<?xml version="1.0" encoding="UTF-8" standalone="no" ?>
<gpx xmlns="http://www.topografix.com/GPX/1/1" xmlns:xsi="http://www.w3.org/2001/XMLSchema-instance" xsi:schemaLocation="http://www.topografix.com/GPX/1/1 http://www.topografix.com/GPX/1/1/gpx.xsd" version="1.1" creator="VisuGPX - https://www.visugpx.com">
  <metadata>
    <name>Montreal 70K D2400</name>
    <desc><![CDATA[Montreal 76K D2400 tracé à revoir]]></desc>
  </metadata>
  <wpt lat="44.52849" lon="4.29223">
    <ele>287</ele>
    <name><![CDATA[Départ]]></name>
  </wpt>
  <trk>
    <name><![CDATA[20180807221000-MJqCB]]></name>
    <trkseg>
      <trkpt lat="44.52835" lon="4.29234">
        <ele>290</ele>
        <time>2018-06-03T06:11:44.000Z</time>
      </trkpt>
      <trkpt lat="44.52835" lon="4.29235">
        <ele>290</ele>
        <time>2018-06-03T06:11:45.000Z</time>
      </trkpt>
      <trkpt lat="44.52835" lon="4.29235">
        <ele>290</ele>
        <time>2018-06-03T06:11:46.000Z</time>
      </trkpt>
      <trkpt lat="44.52835" lon="4.29235">
        <ele>290</ele>
        <time>2018-06-03T06:11:47.000Z</time>
      </trkpt>
      <trkpt lat="44.52835" lon="4.29235">
        <ele>290</ele>
        <time>2018-06-03T06:11:48.000Z</time>
      </trkpt>
      <trkpt lat="44.52835" lon="4.29235">
        <ele>290</ele>
        <time>2018-06-03T06:11:49.000Z</time>
      </trkpt>
      <trkpt lat="44.52835" lon="4.29235">
        <ele>290</ele>
        <time>2018-06-03T06:11:50.000Z</time>
      </trkpt>
      <trkpt lat="44.52835" lon="4.29235">
        <ele>290</ele>
        <time>2018-06-03T06:11:51.000Z</time>
      </trkpt>
      <trkpt lat="44.52835" lon="4.29235">
        <ele>290</ele>
        <time>2018-06-03T06:11:52.000Z</time>
      </trkpt>
      <trkpt lat="44.52835" lon="4.29235">
        <ele>290</ele>
        <time>2018-06-03T06:11:53.000Z</time>
      </trkpt>
      <trkpt lat="44.52835" lon="4.29235">
        <ele>290</ele>
        <time>2018-06-03T06:11:54.000Z</time>
      </trkpt>
      <trkpt lat="44.52835" lon="4.29234">
        <ele>290</ele>
        <time>2018-06-03T06:11:55.000Z</time>
      </trkpt>
      <trkpt lat="44.52835" lon="4.29234">
        <ele>290</ele>
        <time>2018-06-03T06:11:56.000Z</time>
      </trkpt>
      <trkpt lat="44.52835" lon="4.29234">
        <ele>290</ele>
        <time>2018-06-03T06:11:57.000Z</time>
      </trkpt>
      <trkpt lat="44.52835" lon="4.29234">
        <ele>290</ele>
        <time>2018-06-03T06:11:58.000Z</time>
      </trkpt>
      <trkpt lat="44.52835" lon="4.29234">
        <ele>290</ele>
        <time>2018-06-03T06:11:59.000Z</time>
      </trkpt>
      <trkpt lat="44.52835" lon="4.29234">
        <ele>290</ele>
        <time>2018-06-03T06:12:00.000Z</time>
      </trkpt>
      <trkpt lat="44.52835" lon="4.29234">
        <ele>290</ele>
        <time>2018-06-03T06:12:01.000Z</time>
      </trkpt>
      <trkpt lat="44.52834" lon="4.29233">
        <ele>290</ele>
        <time>2018-06-03T06:12:02.000Z</time>
      </trkpt>
      <trkpt lat="44.52833" lon="4.29232">
        <ele>293</ele>
        <time>2018-06-03T06:12:03.000Z</time>
      </trkpt>
      <trkpt lat="44.52831" lon="4.29233">
        <ele>293</ele>
        <time>2018-06-03T06:12:04.000Z</time>
      </trkpt>
      <trkpt lat="44.52829" lon="4.29233">
        <ele>293</ele>
        <time>2018-06-03T06:12:05.000Z</time>
      </trkpt>
      <trkpt lat="44.52825" lon="4.29234">
        <ele>293</ele>
        <time>2018-06-03T06:12:06.000Z</time>
      </trkpt>
      <trkpt lat="44.52821" lon="4.29235">
        <ele>293</ele>
        <time>2018-06-03T06:12:07.000Z</time>
      </trkpt>
      <trkpt lat="44.52817" lon="4.29236">
        <ele>293</ele>
        <time>2018-06-03T06:12:08.000Z</time>
      </trkpt>
      <trkpt lat="44.52812" lon="4.29237">
        <ele>292</ele>
        <time>2018-06-03T06:12:09.000Z</time>
      </trkpt>
      <trkpt lat="44.52807" lon="4.29238">
        <ele>292</ele>
        <time>2018-06-03T06:12:10.000Z</time>
      </trkpt>
      <trkpt lat="44.52803" lon="4.29239">
        <ele>292</ele>
        <time>2018-06-03T06:12:11.000Z</time>
      </trkpt>
      <trkpt lat="44.52798" lon="4.29239">
        <ele>292</ele>
        <time>2018-06-03T06:12:12.000Z</time>
      </trkpt>
      <trkpt lat="44.52794" lon="4.29239">
        <ele>291</ele>
        <time>2018-06-03T06:12:13.000Z</time>
      </trkpt>
      <trkpt lat="44.52791" lon="4.29239">
        <ele>291</ele>
        <time>2018-06-03T06:12:14.000Z</time>
      </trkpt>
      <trkpt lat="44.52789" lon="4.29239">
        <ele>291</ele>
        <time>2018-06-03T06:12:15.000Z</time>
      </trkpt>
      <trkpt lat="44.52787" lon="4.29239">
        <ele>291</ele>
        <time>2018-06-03T06:12:16.000Z</time>
      </trkpt>
      <trkpt lat="44.52787" lon="4.29239">
        <ele>291</ele>
        <time>2018-06-03T06:12:17.000Z</time>
      </trkpt>
      <trkpt lat="44.52786" lon="4.29239">
        <ele>291</ele>
        <time>2018-06-03T06:12:18.000Z</time>
      </trkpt>
      <trkpt lat="44.52785" lon="4.29239">
        <ele>291</ele>
        <time>2018-06-03T06:12:19.000Z</time>
      </trkpt>
      <trkpt lat="44.52785" lon="4.29238">
        <ele>291</ele>
        <time>2018-06-03T06:12:20.000Z</time>
      </trkpt>
      <trkpt lat="44.52785" lon="4.29238">
        <ele>291</ele>
        <time>2018-06-03T06:12:21.000Z</time>
      </trkpt>
      <trkpt lat="44.52784" lon="4.29238">
        <ele>291</ele>
        <time>2018-06-03T06:12:22.000Z</time>
      </trkpt>
      <trkpt lat="44.52784" lon="4.29238">
        <ele>291</ele>
        <time>2018-06-03T06:12:23.000Z</time>
      </trkpt>
      <trkpt lat="44.52784" lon="4.29238">
        <ele>291</ele>
        <time>2018-06-03T06:12:24.000Z</time>
      </trkpt>
      <trkpt lat="44.52784" lon="4.29238">
        <ele>291</ele>
        <time>2018-06-03T06:12:25.000Z</time>
      </trkpt>
      <trkpt lat="44.52783" lon="4.29237">
        <ele>291</ele>
        <time>2018-06-03T06:12:26.000Z</time>
      </trkpt>
      <trkpt lat="44.52782" lon="4.29235">
        <ele>291</ele>
        <time>2018-06-03T06:12:27.000Z</time>
      </trkpt>
      <trkpt lat="44.52781" lon="4.29232">
        <ele>291</ele>
        <time>2018-06-03T06:12:28.000Z</time>
      </trkpt>
      <trkpt lat="44.5278" lon="4.29228">
        <ele>291</ele>
        <time>2018-06-03T06:12:29.000Z</time>
      </trkpt>
      <trkpt lat="44.52779" lon="4.29223">
        <ele>291</ele>
        <time>2018-06-03T06:12:30.000Z</time>
      </trkpt>
      <trkpt lat="44.52778" lon="4.29219">
        <ele>291</ele>
        <time>2018-06-03T06:12:31.000Z</time>
      </trkpt>
      <trkpt lat="44.52778" lon="4.29215">
        <ele>291</ele>
        <time>2018-06-03T06:12:32.000Z</time>
      </trkpt>
      <trkpt lat="44.52778" lon="4.2921">
        <ele>290</ele>
        <time>2018-06-03T06:12:33.000Z</time>
      </trkpt>
      <trkpt lat="44.52779" lon="4.29205">
        <ele>290</ele>
        <time>2018-06-03T06:12:34.000Z</time>
      </trkpt>
      <trkpt lat="44.52779" lon="4.292">
        <ele>290</ele>
        <time>2018-06-03T06:12:35.000Z</time>
      </trkpt>
      <trkpt lat="44.5278" lon="4.29194">
        <ele>290</ele>
        <time>2018-06-03T06:12:36.000Z</time>
      </trkpt>
      <trkpt lat="44.52781" lon="4.29189">
        <ele>290</ele>
        <time>2018-06-03T06:12:37.000Z</time>
      </trkpt>
      <trkpt lat="44.52782" lon="4.29183">
        <ele>290</ele>
        <time>2018-06-03T06:12:38.000Z</time>
      </trkpt>
      <trkpt lat="44.52783" lon="4.29177">
        <ele>290</ele>
        <time>2018-06-03T06:12:39.000Z</time>
      </trkpt>
      <trkpt lat="44.52784" lon="4.29171">
        <ele>290</ele>
        <time>2018-06-03T06:12:40.000Z</time>
      </trkpt>
      <trkpt lat="44.52785" lon="4.29165">
        <ele>288</ele>
        <time>2018-06-03T06:12:41.000Z</time>
      </trkpt>
      <trkpt lat="44.52786" lon="4.29158">
        <ele>288</ele>
        <time>2018-06-03T06:12:42.000Z</time>
      </trkpt>
      <trkpt lat="44.52788" lon="4.29151">
        <ele>288</ele>
        <time>2018-06-03T06:12:43.000Z</time>
      </trkpt>
      <trkpt lat="44.52789" lon="4.29144">
        <ele>288</ele>
        <time>2018-06-03T06:12:44.000Z</time>
      </trkpt>
      <trkpt lat="44.5279" lon="4.29137">
        <ele>288</ele>
        <time>2018-06-03T06:12:45.000Z</time>
      </trkpt>
      <trkpt lat="44.52792" lon="4.2913">
        <ele>288</ele>
        <time>2018-06-03T06:12:46.000Z</time>
      </trkpt>
      <trkpt lat="44.52793" lon="4.29123">
        <ele>288</ele>
        <time>2018-06-03T06:12:47.000Z</time>
      </trkpt>
      <trkpt lat="44.52795" lon="4.29116">
        <ele>287</ele>
        <time>2018-06-03T06:12:48.000Z</time>
      </trkpt>
      <trkpt lat="44.52796" lon="4.29109">
        <ele>287</ele>
        <time>2018-06-03T06:12:49.000Z</time>
      </trkpt>
      <trkpt lat="44.52797" lon="4.29102">
        <ele>287</ele>
        <time>2018-06-03T06:12:50.000Z</time>
      </trkpt>
      <trkpt lat="44.52798" lon="4.29095">
        <ele>287</ele>
        <time>2018-06-03T06:12:51.000Z</time>
      </trkpt>
      <trkpt lat="44.52799" lon="4.29088">
        <ele>287</ele>
        <time>2018-06-03T06:12:52.000Z</time>
      </trkpt>
      <trkpt lat="44.528" lon="4.29081">
        <ele>286</ele>
        <time>2018-06-03T06:12:53.000Z</time>
      </trkpt>
      <trkpt lat="44.52801" lon="4.29073">
        <ele>286</ele>
        <time>2018-06-03T06:12:54.000Z</time>
      </trkpt>
      <trkpt lat="44.52802" lon="4.29067">
        <ele>286</ele>
        <time>2018-06-03T06:12:55.000Z</time>
      </trkpt>
      <trkpt lat="44.52801" lon="4.2906">
        <ele>286</ele>
        <time>2018-06-03T06:12:56.000Z</time>
      </trkpt>
      <trkpt lat="44.52797" lon="4.29056">
        <ele>286</ele>
        <time>2018-06-03T06:12:57.000Z</time>
      </trkpt>
      <trkpt lat="44.52793" lon="4.29052">
        <ele>286</ele>
        <time>2018-06-03T06:12:58.000Z</time>
      </trkpt>
      <trkpt lat="44.52786" lon="4.2905">
        <ele>285</ele>
        <time>2018-06-03T06:12:59.000Z</time>
      </trkpt>
      <trkpt lat="44.52779" lon="4.29047">
        <ele>285</ele>
        <time>2018-06-03T06:13:00.000Z</time>
      </trkpt>
      <trkpt lat="44.52772" lon="4.29044">
        <ele>285</ele>
        <time>2018-06-03T06:13:01.000Z</time>
      </trkpt>
      <trkpt lat="44.52763" lon="4.29041">
        <ele>285</ele>
        <time>2018-06-03T06:13:02.000Z</time>
      </trkpt>
      <trkpt lat="44.52755" lon="4.29038">
        <ele>285</ele>
        <time>2018-06-03T06:13:03.000Z</time>
      </trkpt>
      <trkpt lat="44.52745" lon="4.29036">
        <ele>281</ele>
        <time>2018-06-03T06:13:04.000Z</time>
      </trkpt>
      <trkpt lat="44.52736" lon="4.29034">
        <ele>281</ele>
        <time>2018-06-03T06:13:05.000Z</time>
      </trkpt>
      <trkpt lat="44.52726" lon="4.29031">
        <ele>281</ele>
        <time>2018-06-03T06:13:06.000Z</time>
      </trkpt>
      <trkpt lat="44.52717" lon="4.29027">
        <ele>280</ele>
        <time>2018-06-03T06:13:07.000Z</time>
      </trkpt>
      <trkpt lat="44.52707" lon="4.29023">
        <ele>280</ele>
        <time>2018-06-03T06:13:08.000Z</time>
      </trkpt>
      <trkpt lat="44.52698" lon="4.2902">
        <ele>279</ele>
        <time>2018-06-03T06:13:09.000Z</time>
      </trkpt>
      <trkpt lat="44.5269" lon="4.29017">
        <ele>279</ele>
        <time>2018-06-03T06:13:10.000Z</time>
      </trkpt>
      <trkpt lat="44.52683" lon="4.29013">
        <ele>278</ele>
        <time>2018-06-03T06:13:11.000Z</time>
      </trkpt>
      <trkpt lat="44.52675" lon="4.2901">
        <ele>278</ele>
        <time>2018-06-03T06:13:12.000Z</time>
      </trkpt>
      <trkpt lat="44.52667" lon="4.29005">
        <ele>277</ele>
        <time>2018-06-03T06:13:13.000Z</time>
      </trkpt>
      <trkpt lat="44.5266" lon="4.29001">
        <ele>275</ele>
        <time>2018-06-03T06:13:14.000Z</time>
      </trkpt>
      <trkpt lat="44.52654" lon="4.28996">
        <ele>273</ele>
        <time>2018-06-03T06:13:15.000Z</time>
      </trkpt>
      <trkpt lat="44.52647" lon="4.2899">
        <ele>272</ele>
        <time>2018-06-03T06:13:16.000Z</time>
      </trkpt>
      <trkpt lat="44.52642" lon="4.28984">
        <ele>272</ele>
        <time>2018-06-03T06:13:17.000Z</time>
      </trkpt>
      <trkpt lat="44.52636" lon="4.28978">
        <ele>271</ele>
        <time>2018-06-03T06:13:18.000Z</time>
      </trkpt>
      <trkpt lat="44.52631" lon="4.28973">
        <ele>271</ele>
        <time>2018-06-03T06:13:19.000Z</time>
      </trkpt>
      <trkpt lat="44.52628" lon="4.28966">
        <ele>270</ele>
        <time>2018-06-03T06:13:20.000Z</time>
      </trkpt>
      <trkpt lat="44.52625" lon="4.28958">
        <ele>270</ele>
        <time>2018-06-03T06:13:21.000Z</time>
      </trkpt>
      <trkpt lat="44.52624" lon="4.28948">
        <ele>270</ele>
        <time>2018-06-03T06:13:22.000Z</time>
      </trkpt>
      <trkpt lat="44.52623" lon="4.28938">
        <ele>270</ele>
        <time>2018-06-03T06:13:23.000Z</time>
      </trkpt>
      <trkpt lat="44.52621" lon="4.28927">
        <ele>269</ele>
        <time>2018-06-03T06:13:24.000Z</time>
      </trkpt>
      <trkpt lat="44.5262" lon="4.28917">
        <ele>269</ele>
        <time>2018-06-03T06:13:25.000Z</time>
      </trkpt>
      <trkpt lat="44.52618" lon="4.28907">
        <ele>270</ele>
        <time>2018-06-03T06:13:26.000Z</time>
      </trkpt>
      <trkpt lat="44.52615" lon="4.28898">
        <ele>270</ele>
        <time>2018-06-03T06:13:27.000Z</time>
      </trkpt>
      <trkpt lat="44.52611" lon="4.28891">
        <ele>270</ele>
        <time>2018-06-03T06:13:28.000Z</time>
      </trkpt>
      <trkpt lat="44.52607" lon="4.28885">
        <ele>270</ele>
        <time>2018-06-03T06:13:29.000Z</time>
      </trkpt>
      <trkpt lat="44.52603" lon="4.28881">
        <ele>270</ele>
        <time>2018-06-03T06:13:30.000Z</time>
      </trkpt>
      <trkpt lat="44.52599" lon="4.28879">
        <ele>270</ele>
        <time>2018-06-03T06:13:31.000Z</time>
      </trkpt>
      <trkpt lat="44.52595" lon="4.28882">
        <ele>270</ele>
        <time>2018-06-03T06:13:32.000Z</time>
      </trkpt>
      <trkpt lat="44.52591" lon="4.28886">
        <ele>269</ele>
        <time>2018-06-03T06:13:33.000Z</time>
      </trkpt>
      <trkpt lat="44.52587" lon="4.2889">
        <ele>269</ele>
        <time>2018-06-03T06:13:34.000Z</time>
      </trkpt>
      <trkpt lat="44.52582" lon="4.28893">
        <ele>270</ele>
        <time>2018-06-03T06:13:35.000Z</time>
      </trkpt>
      <trkpt lat="44.52577" lon="4.28896">
        <ele>270</ele>
        <time>2018-06-03T06:13:36.000Z</time>
      </trkpt>
      <trkpt lat="44.52572" lon="4.28898">
        <ele>270</ele>
        <time>2018-06-03T06:13:37.000Z</time>
      </trkpt>
      <trkpt lat="44.52566" lon="4.28899">
        <ele>270</ele>
        <time>2018-06-03T06:13:38.000Z</time>
      </trkpt>
      <trkpt lat="44.52561" lon="4.28902">
        <ele>271</ele>
        <time>2018-06-03T06:13:39.000Z</time>
      </trkpt>
      <trkpt lat="44.52556" lon="4.28905">
        <ele>271</ele>
        <time>2018-06-03T06:13:40.000Z</time>
      </trkpt>
      <trkpt lat="44.52551" lon="4.28907">
        <ele>271</ele>
        <time>2018-06-03T06:13:41.000Z</time>
      </trkpt>
      <trkpt lat="44.52546" lon="4.28911">
        <ele>271</ele>
        <time>2018-06-03T06:13:42.000Z</time>
      </trkpt>
      <trkpt lat="44.52541" lon="4.28915">
        <ele>272</ele>
        <time>2018-06-03T06:13:43.000Z</time>
      </trkpt>
      <trkpt lat="44.52536" lon="4.28919">
        <ele>268</ele>
        <time>2018-06-03T06:13:44.000Z</time>
      </trkpt>
      <trkpt lat="44.52531" lon="4.28923">
        <ele>268</ele>
        <time>2018-06-03T06:13:45.000Z</time>
      </trkpt>
      <trkpt lat="44.52526" lon="4.28927">
        <ele>268</ele>
        <time>2018-06-03T06:13:46.000Z</time>
      </trkpt>
      <trkpt lat="44.52522" lon="4.28932">
        <ele>268</ele>
        <time>2018-06-03T06:13:47.000Z</time>
      </trkpt>
      <trkpt lat="44.52518" lon="4.28938">
        <ele>268</ele>
        <time>2018-06-03T06:13:48.000Z</time>
      </trkpt>
      <trkpt lat="44.52513" lon="4.28943">
        <ele>268</ele>
        <time>2018-06-03T06:13:49.000Z</time>
      </trkpt>
      <trkpt lat="44.52509" lon="4.28949">
        <ele>268</ele>
        <time>2018-06-03T06:13:50.000Z</time>
      </trkpt>
      <trkpt lat="44.52505" lon="4.28954">
        <ele>267</ele>
        <time>2018-06-03T06:13:51.000Z</time>
      </trkpt>
      <trkpt lat="44.52501" lon="4.2896">
        <ele>267</ele>
        <time>2018-06-03T06:13:52.000Z</time>
      </trkpt>
      <trkpt lat="44.52498" lon="4.28965">
        <ele>268</ele>
        <time>2018-06-03T06:13:53.000Z</time>
      </trkpt>
      <trkpt lat="44.52495" lon="4.28971">
        <ele>268</ele>
        <time>2018-06-03T06:13:54.000Z</time>
      </trkpt>
      <trkpt lat="44.52491" lon="4.28978">
        <ele>267</ele>
        <time>2018-06-03T06:13:55.000Z</time>
      </trkpt>
      <trkpt lat="44.52487" lon="4.28985">
        <ele>267</ele>
        <time>2018-06-03T06:13:56.000Z</time>
      </trkpt>
      <trkpt lat="44.52483" lon="4.28991">
        <ele>266</ele>
        <time>2018-06-03T06:13:57.000Z</time>
      </trkpt>
      <trkpt lat="44.52479" lon="4.28997">
        <ele>267</ele>
        <time>2018-06-03T06:13:58.000Z</time>
      </trkpt>
      <trkpt lat="44.52474" lon="4.29004">
        <ele>264</ele>
        <time>2018-06-03T06:13:59.000Z</time>
      </trkpt>
      <trkpt lat="44.52469" lon="4.29011">
        <ele>264</ele>
        <time>2018-06-03T06:14:00.000Z</time>
      </trkpt>
      <trkpt lat="44.52464" lon="4.29018">
        <ele>264</ele>
        <time>2018-06-03T06:14:01.000Z</time>
      </trkpt>
      <trkpt lat="44.52459" lon="4.29022">
        <ele>264</ele>
        <time>2018-06-03T06:14:02.000Z</time>
      </trkpt>
      <trkpt lat="44.52453" lon="4.29025">
        <ele>264</ele>
        <time>2018-06-03T06:14:03.000Z</time>
      </trkpt>
      <trkpt lat="44.52447" lon="4.29029">
        <ele>264</ele>
        <time>2018-06-03T06:14:04.000Z</time>
      </trkpt>
      <trkpt lat="44.52442" lon="4.29033">
        <ele>264</ele>
        <time>2018-06-03T06:14:05.000Z</time>
      </trkpt>
      <trkpt lat="44.52436" lon="4.29036">
        <ele>264</ele>
        <time>2018-06-03T06:14:06.000Z</time>
      </trkpt>
      <trkpt lat="44.52431" lon="4.29038">
        <ele>264</ele>
        <time>2018-06-03T06:14:07.000Z</time>
      </trkpt>
      <trkpt lat="44.52426" lon="4.2904">
        <ele>264</ele>
        <time>2018-06-03T06:14:08.000Z</time>
      </trkpt>
      <trkpt lat="44.52423" lon="4.29042">
        <ele>264</ele>
        <time>2018-06-03T06:14:09.000Z</time>
      </trkpt>
      <trkpt lat="44.52421" lon="4.29044">
        <ele>264</ele>
        <time>2018-06-03T06:14:10.000Z</time>
      </trkpt>
      <trkpt lat="44.5242" lon="4.29046">
        <ele>264</ele>
        <time>2018-06-03T06:14:11.000Z</time>
      </trkpt>
      <trkpt lat="44.52419" lon="4.29048">
        <ele>264</ele>
        <time>2018-06-03T06:14:12.000Z</time>
      </trkpt>
      <trkpt lat="44.52419" lon="4.2905">
        <ele>264</ele>
        <time>2018-06-03T06:14:13.000Z</time>
      </trkpt>
      <trkpt lat="44.52419" lon="4.29052">
        <ele>264</ele>
        <time>2018-06-03T06:14:14.000Z</time>
      </trkpt>
      <trkpt lat="44.52418" lon="4.29057">
        <ele>264</ele>
        <time>2018-06-03T06:14:15.000Z</time>
      </trkpt>
      <trkpt lat="44.52417" lon="4.29062">
        <ele>264</ele>
        <time>2018-06-03T06:14:16.000Z</time>
      </trkpt>
      <trkpt lat="44.52416" lon="4.29068">
        <ele>265</ele>
        <time>2018-06-03T06:14:17.000Z</time>
      </trkpt>
      <trkpt lat="44.52416" lon="4.29074">
        <ele>264</ele>
        <time>2018-06-03T06:14:18.000Z</time>
      </trkpt>
      <trkpt lat="44.52415" lon="4.2908">
        <ele>264</ele>
        <time>2018-06-03T06:14:19.000Z</time>
      </trkpt>
      <trkpt lat="44.52413" lon="4.29086">
        <ele>263</ele>
        <time>2018-06-03T06:14:20.000Z</time>
      </trkpt>
      <trkpt lat="44.52412" lon="4.29091">
        <ele>262</ele>
        <time>2018-06-03T06:14:21.000Z</time>
      </trkpt>
      <trkpt lat="44.5241" lon="4.29095">
        <ele>262</ele>
        <time>2018-06-03T06:14:22.000Z</time>
      </trkpt>
      <trkpt lat="44.52408" lon="4.29097">
        <ele>262</ele>
        <time>2018-06-03T06:14:23.000Z</time>
      </trkpt>
      <trkpt lat="44.52406" lon="4.29098">
        <ele>261</ele>
        <time>2018-06-03T06:14:24.000Z</time>
      </trkpt>
      <trkpt lat="44.52404" lon="4.29098">
        <ele>261</ele>
        <time>2018-06-03T06:14:25.000Z</time>
      </trkpt>
      <trkpt lat="44.52402" lon="4.29097">
        <ele>261</ele>
        <time>2018-06-03T06:14:26.000Z</time>
      </trkpt>
      <trkpt lat="44.524" lon="4.29097">
        <ele>261</ele>
        <time>2018-06-03T06:14:27.000Z</time>
      </trkpt>
      <trkpt lat="44.52399" lon="4.29098">
        <ele>261</ele>
        <time>2018-06-03T06:14:28.000Z</time>
      </trkpt>
      <trkpt lat="44.52398" lon="4.29098">
        <ele>261</ele>
        <time>2018-06-03T06:14:29.000Z</time>
      </trkpt>
      <trkpt lat="44.52397" lon="4.29099">
        <ele>261</ele>
        <time>2018-06-03T06:14:30.000Z</time>
      </trkpt>
      <trkpt lat="44.52396" lon="4.29099">
        <ele>261</ele>
        <time>2018-06-03T06:14:31.000Z</time>
      </trkpt>
      <trkpt lat="44.52395" lon="4.29099">
        <ele>261</ele>
        <time>2018-06-03T06:14:32.000Z</time>
      </trkpt>
      <trkpt lat="44.52395" lon="4.291">
        <ele>261</ele>
        <time>2018-06-03T06:14:33.000Z</time>
      </trkpt>
      <trkpt lat="44.52393" lon="4.291">
        <ele>261</ele>
        <time>2018-06-03T06:14:34.000Z</time>
      </trkpt>
      <trkpt lat="44.52392" lon="4.29101">
        <ele>261</ele>
        <time>2018-06-03T06:14:35.000Z</time>
      </trkpt>
      <trkpt lat="44.52391" lon="4.29101">
        <ele>261</ele>
        <time>2018-06-03T06:14:36.000Z</time>
      </trkpt>
      <trkpt lat="44.52389" lon="4.29101">
        <ele>261</ele>
        <time>2018-06-03T06:14:37.000Z</time>
      </trkpt>
      <trkpt lat="44.52388" lon="4.29102">
        <ele>261</ele>
        <time>2018-06-03T06:14:38.000Z</time>
      </trkpt>
      <trkpt lat="44.52388" lon="4.29103">
        <ele>261</ele>
        <time>2018-06-03T06:14:39.000Z</time>
      </trkpt>
      <trkpt lat="44.52387" lon="4.29103">
        <ele>261</ele>
        <time>2018-06-03T06:14:40.000Z</time>
      </trkpt>
      <trkpt lat="44.52386" lon="4.29103">
        <ele>261</ele>
        <time>2018-06-03T06:14:41.000Z</time>
      </trkpt>
      <trkpt lat="44.52386" lon="4.29104">
        <ele>261</ele>
        <time>2018-06-03T06:14:42.000Z</time>
      </trkpt>
      <trkpt lat="44.52385" lon="4.29104">
        <ele>261</ele>
        <time>2018-06-03T06:14:43.000Z</time>
      </trkpt>
      <trkpt lat="44.52384" lon="4.29104">
        <ele>261</ele>
        <time>2018-06-03T06:14:44.000Z</time>
      </trkpt>
      <trkpt lat="44.52384" lon="4.29104">
        <ele>261</ele>
        <time>2018-06-03T06:14:45.000Z</time>
      </trkpt>
      <trkpt lat="44.52384" lon="4.29104">
        <ele>261</ele>
        <time>2018-06-03T06:14:46.000Z</time>
      </trkpt>
      <trkpt lat="44.52384" lon="4.29104">
        <ele>261</ele>
        <time>2018-06-03T06:14:47.000Z</time>
      </trkpt>
      <trkpt lat="44.52383" lon="4.29104">
        <ele>261</ele>
        <time>2018-06-03T06:14:48.000Z</time>
      </trkpt>
      <trkpt lat="44.52382" lon="4.29105">
        <ele>261</ele>
        <time>2018-06-03T06:14:49.000Z</time>
      </trkpt>
      <trkpt lat="44.52381" lon="4.29105">
        <ele>261</ele>
        <time>2018-06-03T06:14:50.000Z</time>
      </trkpt>
      <trkpt lat="44.52379" lon="4.29105">
        <ele>261</ele>
        <time>2018-06-03T06:14:51.000Z</time>
      </trkpt>
      <trkpt lat="44.52378" lon="4.29105">
        <ele>261</ele>
        <time>2018-06-03T06:14:52.000Z</time>
      </trkpt>
      <trkpt lat="44.52377" lon="4.29105">
        <ele>261</ele>
        <time>2018-06-03T06:14:53.000Z</time>
      </trkpt>
      <trkpt lat="44.52376" lon="4.29105">
        <ele>261</ele>
        <time>2018-06-03T06:14:54.000Z</time>
      </trkpt>
      <trkpt lat="44.52375" lon="4.29105">
        <ele>261</ele>
        <time>2018-06-03T06:14:55.000Z</time>
      </trkpt>
      <trkpt lat="44.52374" lon="4.29106">
        <ele>261</ele>
        <time>2018-06-03T06:14:56.000Z</time>
      </trkpt>
      <trkpt lat="44.52372" lon="4.29106">
        <ele>261</ele>
        <time>2018-06-03T06:14:57.000Z</time>
      </trkpt>
      <trkpt lat="44.5237" lon="4.29105">
        <ele>261</ele>
        <time>2018-06-03T06:14:58.000Z</time>
      </trkpt>
      <trkpt lat="44.52368" lon="4.29105">
        <ele>261</ele>
        <time>2018-06-03T06:14:59.000Z</time>
      </trkpt>
      <trkpt lat="44.52366" lon="4.29105">
        <ele>261</ele>
        <time>2018-06-03T06:15:00.000Z</time>
      </trkpt>
      <trkpt lat="44.52364" lon="4.29104">
        <ele>262</ele>
        <time>2018-06-03T06:15:01.000Z</time>
      </trkpt>
      <trkpt lat="44.52362" lon="4.29104">
        <ele>262</ele>
        <time>2018-06-03T06:15:02.000Z</time>
      </trkpt>
      <trkpt lat="44.52359" lon="4.29104">
        <ele>262</ele>
        <time>2018-06-03T06:15:03.000Z</time>
      </trkpt>
      <trkpt lat="44.52357" lon="4.29105">
        <ele>262</ele>
        <time>2018-06-03T06:15:04.000Z</time>
      </trkpt>
      <trkpt lat="44.52355" lon="4.29106">
        <ele>262</ele>
        <time>2018-06-03T06:15:05.000Z</time>
      </trkpt>
      <trkpt lat="44.52352" lon="4.29105">
        <ele>262</ele>
        <time>2018-06-03T06:15:06.000Z</time>
      </trkpt>
      <trkpt lat="44.5235" lon="4.29103">
        <ele>262</ele>
        <time>2018-06-03T06:15:07.000Z</time>
      </trkpt>
      <trkpt lat="44.52348" lon="4.29102">
        <ele>263</ele>
        <time>2018-06-03T06:15:08.000Z</time>
      </trkpt>
      <trkpt lat="44.52345" lon="4.291">
        <ele>263</ele>
        <time>2018-06-03T06:15:09.000Z</time>
      </trkpt>
      <trkpt lat="44.52343" lon="4.29098">
        <ele>263</ele>
        <time>2018-06-03T06:15:10.000Z</time>
      </trkpt>
      <trkpt lat="44.52341" lon="4.29096">
        <ele>264</ele>
        <time>2018-06-03T06:15:11.000Z</time>
      </trkpt>
      <trkpt lat="44.52339" lon="4.29094">
        <ele>264</ele>
        <time>2018-06-03T06:15:12.000Z</time>
      </trkpt>
      <trkpt lat="44.52338" lon="4.29092">
        <ele>265</ele>
        <time>2018-06-03T06:15:13.000Z</time>
      </trkpt>
      <trkpt lat="44.52336" lon="4.29091">
        <ele>265</ele>
        <time>2018-06-03T06:15:14.000Z</time>
      </trkpt>
      <trkpt lat="44.52334" lon="4.29089">
        <ele>266</ele>
        <time>2018-06-03T06:15:15.000Z</time>
      </trkpt>
      <trkpt lat="44.52332" lon="4.29088">
        <ele>265</ele>
        <time>2018-06-03T06:15:16.000Z</time>
      </trkpt>
      <trkpt lat="44.52331" lon="4.29088">
        <ele>265</ele>
        <time>2018-06-03T06:15:17.000Z</time>
      </trkpt>
      <trkpt lat="44.52331" lon="4.29087">
        <ele>265</ele>
        <time>2018-06-03T06:15:18.000Z</time>
      </trkpt>
      <trkpt lat="44.5233" lon="4.29087">
        <ele>265</ele>
        <time>2018-06-03T06:15:19.000Z</time>
      </trkpt>
      <trkpt lat="44.5233" lon="4.29087">
        <ele>265</ele>
        <time>2018-06-03T06:15:20.000Z</time>
      </trkpt>
      <trkpt lat="44.52329" lon="4.29086">
        <ele>265</ele>
        <time>2018-06-03T06:15:21.000Z</time>
      </trkpt>
      <trkpt lat="44.52329" lon="4.29086">
        <ele>265</ele>
        <time>2018-06-03T06:15:22.000Z</time>
      </trkpt>
      <trkpt lat="44.52328" lon="4.29086">
        <ele>265</ele>
        <time>2018-06-03T06:15:23.000Z</time>
      </trkpt>
      <trkpt lat="44.52328" lon="4.29085">
        <ele>265</ele>
        <time>2018-06-03T06:15:24.000Z</time>
      </trkpt>
      <trkpt lat="44.52327" lon="4.29084">
        <ele>265</ele>
        <time>2018-06-03T06:15:25.000Z</time>
      </trkpt>
      <trkpt lat="44.52326" lon="4.29083">
        <ele>267</ele>
        <time>2018-06-03T06:15:26.000Z</time>
      </trkpt>
      <trkpt lat="44.52325" lon="4.29082">
        <ele>267</ele>
        <time>2018-06-03T06:15:27.000Z</time>
      </trkpt>
      <trkpt lat="44.52324" lon="4.29082">
        <ele>267</ele>
        <time>2018-06-03T06:15:28.000Z</time>
      </trkpt>
      <trkpt lat="44.52323" lon="4.29081">
        <ele>267</ele>
        <time>2018-06-03T06:15:29.000Z</time>
      </trkpt>
      <trkpt lat="44.52321" lon="4.29079">
        <ele>267</ele>
        <time>2018-06-03T06:15:30.000Z</time>
      </trkpt>
      <trkpt lat="44.5232" lon="4.29078">
        <ele>267</ele>
        <time>2018-06-03T06:15:31.000Z</time>
      </trkpt>
      <trkpt lat="44.52318" lon="4.29077">
        <ele>267</ele>
        <time>2018-06-03T06:15:32.000Z</time>
      </trkpt>
      <trkpt lat="44.52316" lon="4.29076">
        <ele>267</ele>
        <time>2018-06-03T06:15:33.000Z</time>
      </trkpt>
      <trkpt lat="44.52314" lon="4.29074">
        <ele>267</ele>
        <time>2018-06-03T06:15:34.000Z</time>
      </trkpt>
      <trkpt lat="44.52312" lon="4.29072">
        <ele>267</ele>
        <time>2018-06-03T06:15:35.000Z</time>
      </trkpt>
      <trkpt lat="44.52309" lon="4.2907">
        <ele>267</ele>
        <time>2018-06-03T06:15:36.000Z</time>
      </trkpt>
      <trkpt lat="44.52305" lon="4.29068">
        <ele>266</ele>
        <time>2018-06-03T06:15:37.000Z</time>
      </trkpt>
      <trkpt lat="44.52302" lon="4.29067">
        <ele>266</ele>
        <time>2018-06-03T06:15:38.000Z</time>
      </trkpt>
      <trkpt lat="44.52299" lon="4.29065">
        <ele>266</ele>
        <time>2018-06-03T06:15:39.000Z</time>
      </trkpt>
      <trkpt lat="44.52296" lon="4.29063">
        <ele>266</ele>
        <time>2018-06-03T06:15:40.000Z</time>
      </trkpt>
      <trkpt lat="44.52293" lon="4.29061">
        <ele>266</ele>
        <time>2018-06-03T06:15:41.000Z</time>
      </trkpt>
      <trkpt lat="44.5229" lon="4.29059">
        <ele>266</ele>
        <time>2018-06-03T06:15:42.000Z</time>
      </trkpt>
      <trkpt lat="44.52288" lon="4.29057">
        <ele>266</ele>
        <time>2018-06-03T06:15:43.000Z</time>
      </trkpt>
      <trkpt lat="44.52285" lon="4.29054">
        <ele>266</ele>
        <time>2018-06-03T06:15:44.000Z</time>
      </trkpt>
      <trkpt lat="44.52283" lon="4.29052">
        <ele>266</ele>
        <time>2018-06-03T06:15:45.000Z</time>
      </trkpt>
      <trkpt lat="44.52281" lon="4.2905">
        <ele>266</ele>
        <time>2018-06-03T06:15:46.000Z</time>
      </trkpt>
      <trkpt lat="44.52279" lon="4.29047">
        <ele>266</ele>
        <time>2018-06-03T06:15:47.000Z</time>
      </trkpt>
      <trkpt lat="44.52277" lon="4.29045">
        <ele>266</ele>
        <time>2018-06-03T06:15:48.000Z</time>
      </trkpt>
      <trkpt lat="44.52275" lon="4.29043">
        <ele>267</ele>
        <time>2018-06-03T06:15:49.000Z</time>
      </trkpt>
      <trkpt lat="44.52274" lon="4.29041">
        <ele>267</ele>
        <time>2018-06-03T06:15:50.000Z</time>
      </trkpt>
      <trkpt lat="44.52274" lon="4.29039">
        <ele>267</ele>
        <time>2018-06-03T06:15:51.000Z</time>
      </trkpt>
      <trkpt lat="44.52273" lon="4.29035">
        <ele>267</ele>
        <time>2018-06-03T06:15:52.000Z</time>
      </trkpt>
      <trkpt lat="44.52272" lon="4.29031">
        <ele>267</ele>
        <time>2018-06-03T06:15:53.000Z</time>
      </trkpt>
      <trkpt lat="44.52271" lon="4.29029">
        <ele>267</ele>
        <time>2018-06-03T06:15:54.000Z</time>
      </trkpt>
      <trkpt lat="44.5227" lon="4.29026">
        <ele>268</ele>
        <time>2018-06-03T06:15:55.000Z</time>
      </trkpt>
      <trkpt lat="44.52269" lon="4.29025">
        <ele>268</ele>
        <time>2018-06-03T06:15:56.000Z</time>
      </trkpt>
      <trkpt lat="44.52267" lon="4.29023">
        <ele>268</ele>
        <time>2018-06-03T06:15:57.000Z</time>
      </trkpt>
      <trkpt lat="44.52265" lon="4.29021">
        <ele>268</ele>
        <time>2018-06-03T06:15:58.000Z</time>
      </trkpt>
      <trkpt lat="44.52263" lon="4.29018">
        <ele>268</ele>
        <time>2018-06-03T06:15:59.000Z</time>
      </trkpt>
      <trkpt lat="44.52262" lon="4.29016">
        <ele>269</ele>
        <time>2018-06-03T06:16:00.000Z</time>
      </trkpt>
      <trkpt lat="44.5226" lon="4.29015">
        <ele>269</ele>
        <time>2018-06-03T06:16:01.000Z</time>
      </trkpt>
      <trkpt lat="44.52259" lon="4.29015">
        <ele>269</ele>
        <time>2018-06-03T06:16:02.000Z</time>
      </trkpt>
      <trkpt lat="44.52258" lon="4.29015">
        <ele>269</ele>
        <time>2018-06-03T06:16:03.000Z</time>
      </trkpt>
      <trkpt lat="44.52255" lon="4.29015">
        <ele>269</ele>
        <time>2018-06-03T06:16:04.000Z</time>
      </trkpt>
      <trkpt lat="44.52253" lon="4.29015">
        <ele>269</ele>
        <time>2018-06-03T06:16:05.000Z</time>
      </trkpt>
      <trkpt lat="44.5225" lon="4.29014">
        <ele>268</ele>
        <time>2018-06-03T06:16:06.000Z</time>
      </trkpt>
      <trkpt lat="44.52247" lon="4.29013">
        <ele>268</ele>
        <time>2018-06-03T06:16:07.000Z</time>
      </trkpt>
      <trkpt lat="44.52244" lon="4.29012">
        <ele>268</ele>
        <time>2018-06-03T06:16:08.000Z</time>
      </trkpt>
      <trkpt lat="44.52241" lon="4.29011">
        <ele>268</ele>
        <time>2018-06-03T06:16:09.000Z</time>
      </trkpt>
      <trkpt lat="44.52237" lon="4.2901">
        <ele>267</ele>
        <time>2018-06-03T06:16:10.000Z</time>
      </trkpt>
      <trkpt lat="44.52234" lon="4.29008">
        <ele>267</ele>
        <time>2018-06-03T06:16:11.000Z</time>
      </trkpt>
      <trkpt lat="44.5223" lon="4.29007">
        <ele>267</ele>
        <time>2018-06-03T06:16:12.000Z</time>
      </trkpt>
      <trkpt lat="44.52227" lon="4.29006">
        <ele>266</ele>
        <time>2018-06-03T06:16:13.000Z</time>
      </trkpt>
      <trkpt lat="44.52223" lon="4.29005">
        <ele>266</ele>
        <time>2018-06-03T06:16:14.000Z</time>
      </trkpt>
      <trkpt lat="44.5222" lon="4.29005">
        <ele>266</ele>
        <time>2018-06-03T06:16:15.000Z</time>
      </trkpt>
      <trkpt lat="44.52217" lon="4.29004">
        <ele>266</ele>
        <time>2018-06-03T06:16:16.000Z</time>
      </trkpt>
      <trkpt lat="44.52215" lon="4.29002">
        <ele>266</ele>
        <time>2018-06-03T06:16:17.000Z</time>
      </trkpt>
      <trkpt lat="44.52214" lon="4.28999">
        <ele>272</ele>
        <time>2018-06-03T06:16:18.000Z</time>
      </trkpt>
      <trkpt lat="44.52213" lon="4.28996">
        <ele>272</ele>
        <time>2018-06-03T06:16:19.000Z</time>
      </trkpt>
      <trkpt lat="44.52213" lon="4.28993">
        <ele>272</ele>
        <time>2018-06-03T06:16:20.000Z</time>
      </trkpt>
      <trkpt lat="44.52213" lon="4.2899">
        <ele>272</ele>
        <time>2018-06-03T06:16:21.000Z</time>
      </trkpt>
      <trkpt lat="44.52213" lon="4.28987">
        <ele>272</ele>
        <time>2018-06-03T06:16:22.000Z</time>
      </trkpt>
      <trkpt lat="44.52212" lon="4.28983">
        <ele>272</ele>
        <time>2018-06-03T06:16:23.000Z</time>
      </trkpt>
      <trkpt lat="44.52212" lon="4.2898">
        <ele>272</ele>
        <time>2018-06-03T06:16:24.000Z</time>
      </trkpt>
      <trkpt lat="44.52213" lon="4.28977">
        <ele>272</ele>
        <time>2018-06-03T06:16:25.000Z</time>
      </trkpt>
      <trkpt lat="44.52213" lon="4.28974">
        <ele>272</ele>
        <time>2018-06-03T06:16:26.000Z</time>
      </trkpt>
      <trkpt lat="44.52212" lon="4.28971">
        <ele>272</ele>
        <time>2018-06-03T06:16:27.000Z</time>
      </trkpt>
      <trkpt lat="44.52212" lon="4.28969">
        <ele>273</ele>
        <time>2018-06-03T06:16:28.000Z</time>
      </trkpt>
      <trkpt lat="44.52211" lon="4.28968">
        <ele>273</ele>
        <time>2018-06-03T06:16:29.000Z</time>
      </trkpt>
      <trkpt lat="44.52209" lon="4.28966">
        <ele>273</ele>
        <time>2018-06-03T06:16:30.000Z</time>
      </trkpt>
      <trkpt lat="44.52207" lon="4.28964">
        <ele>273</ele>
        <time>2018-06-03T06:16:31.000Z</time>
      </trkpt>
      <trkpt lat="44.52206" lon="4.28963">
        <ele>273</ele>
        <time>2018-06-03T06:16:32.000Z</time>
      </trkpt>
      <trkpt lat="44.52204" lon="4.28961">
        <ele>273</ele>
        <time>2018-06-03T06:16:33.000Z</time>
      </trkpt>
      <trkpt lat="44.52203" lon="4.28959">
        <ele>273</ele>
        <time>2018-06-03T06:16:34.000Z</time>
      </trkpt>
      <trkpt lat="44.52201" lon="4.28957">
        <ele>273</ele>
        <time>2018-06-03T06:16:35.000Z</time>
      </trkpt>
      <trkpt lat="44.52199" lon="4.28955">
        <ele>273</ele>
        <time>2018-06-03T06:16:36.000Z</time>
      </trkpt>
      <trkpt lat="44.52198" lon="4.28952">
        <ele>273</ele>
        <time>2018-06-03T06:16:37.000Z</time>
      </trkpt>
      <trkpt lat="44.52196" lon="4.2895">
        <ele>273</ele>
        <time>2018-06-03T06:16:38.000Z</time>
      </trkpt>
      <trkpt lat="44.52194" lon="4.28948">
        <ele>273</ele>
        <time>2018-06-03T06:16:39.000Z</time>
      </trkpt>
      <trkpt lat="44.52193" lon="4.28946">
        <ele>273</ele>
        <time>2018-06-03T06:16:40.000Z</time>
      </trkpt>
      <trkpt lat="44.52191" lon="4.28944">
        <ele>273</ele>
        <time>2018-06-03T06:16:41.000Z</time>
      </trkpt>
      <trkpt lat="44.5219" lon="4.28942">
        <ele>273</ele>
        <time>2018-06-03T06:16:42.000Z</time>
      </trkpt>
      <trkpt lat="44.52188" lon="4.28941">
        <ele>273</ele>
        <time>2018-06-03T06:16:43.000Z</time>
      </trkpt>
      <trkpt lat="44.52186" lon="4.2894">
        <ele>273</ele>
        <time>2018-06-03T06:16:44.000Z</time>
      </trkpt>
      <trkpt lat="44.52184" lon="4.28939">
        <ele>274</ele>
        <time>2018-06-03T06:16:45.000Z</time>
      </trkpt>
      <trkpt lat="44.52182" lon="4.28937">
        <ele>274</ele>
        <time>2018-06-03T06:16:46.000Z</time>
      </trkpt>
      <trkpt lat="44.52181" lon="4.28935">
        <ele>274</ele>
        <time>2018-06-03T06:16:47.000Z</time>
      </trkpt>
      <trkpt lat="44.52179" lon="4.28933">
        <ele>274</ele>
        <time>2018-06-03T06:16:48.000Z</time>
      </trkpt>
      <trkpt lat="44.52178" lon="4.2893">
        <ele>274</ele>
        <time>2018-06-03T06:16:49.000Z</time>
      </trkpt>
      <trkpt lat="44.52177" lon="4.28926">
        <ele>274</ele>
        <time>2018-06-03T06:16:50.000Z</time>
      </trkpt>
      <trkpt lat="44.52177" lon="4.28924">
        <ele>274</ele>
        <time>2018-06-03T06:16:51.000Z</time>
      </trkpt>
      <trkpt lat="44.52177" lon="4.28922">
        <ele>274</ele>
        <time>2018-06-03T06:16:52.000Z</time>
      </trkpt>
      <trkpt lat="44.52178" lon="4.28919">
        <ele>274</ele>
        <time>2018-06-03T06:16:53.000Z</time>
      </trkpt>
      <trkpt lat="44.52178" lon="4.28916">
        <ele>276</ele>
        <time>2018-06-03T06:16:54.000Z</time>
      </trkpt>
      <trkpt lat="44.52179" lon="4.28913">
        <ele>276</ele>
        <time>2018-06-03T06:16:55.000Z</time>
      </trkpt>
      <trkpt lat="44.52179" lon="4.28911">
        <ele>276</ele>
        <time>2018-06-03T06:16:56.000Z</time>
      </trkpt>
      <trkpt lat="44.52179" lon="4.28908">
        <ele>276</ele>
        <time>2018-06-03T06:16:57.000Z</time>
      </trkpt>
      <trkpt lat="44.5218" lon="4.28905">
        <ele>276</ele>
        <time>2018-06-03T06:16:58.000Z</time>
      </trkpt>
      <trkpt lat="44.5218" lon="4.28901">
        <ele>276</ele>
        <time>2018-06-03T06:16:59.000Z</time>
      </trkpt>
      <trkpt lat="44.52181" lon="4.28898">
        <ele>276</ele>
        <time>2018-06-03T06:17:00.000Z</time>
      </trkpt>
      <trkpt lat="44.52181" lon="4.28895">
        <ele>277</ele>
        <time>2018-06-03T06:17:01.000Z</time>
      </trkpt>
      <trkpt lat="44.52182" lon="4.28892">
        <ele>277</ele>
        <time>2018-06-03T06:17:02.000Z</time>
      </trkpt>
      <trkpt lat="44.52182" lon="4.28889">
        <ele>277</ele>
        <time>2018-06-03T06:17:03.000Z</time>
      </trkpt>
      <trkpt lat="44.52183" lon="4.28886">
        <ele>277</ele>
        <time>2018-06-03T06:17:04.000Z</time>
      </trkpt>
      <trkpt lat="44.52184" lon="4.28883">
        <ele>277</ele>
        <time>2018-06-03T06:17:05.000Z</time>
      </trkpt>
      <trkpt lat="44.52185" lon="4.28881">
        <ele>277</ele>
        <time>2018-06-03T06:17:06.000Z</time>
      </trkpt>
      <trkpt lat="44.52185" lon="4.28878">
        <ele>277</ele>
        <time>2018-06-03T06:17:07.000Z</time>
      </trkpt>
      <trkpt lat="44.52185" lon="4.28875">
        <ele>277</ele>
        <time>2018-06-03T06:17:08.000Z</time>
      </trkpt>
      <trkpt lat="44.52187" lon="4.28872">
        <ele>277</ele>
        <time>2018-06-03T06:17:09.000Z</time>
      </trkpt>
      <trkpt lat="44.52189" lon="4.2887">
        <ele>277</ele>
        <time>2018-06-03T06:17:10.000Z</time>
      </trkpt>
      <trkpt lat="44.52191" lon="4.28868">
        <ele>277</ele>
        <time>2018-06-03T06:17:11.000Z</time>
      </trkpt>
      <trkpt lat="44.52193" lon="4.28867">
        <ele>277</ele>
        <time>2018-06-03T06:17:12.000Z</time>
      </trkpt>
      <trkpt lat="44.52196" lon="4.28865">
        <ele>277</ele>
        <time>2018-06-03T06:17:13.000Z</time>
      </trkpt>
      <trkpt lat="44.52198" lon="4.28865">
        <ele>277</ele>
        <time>2018-06-03T06:17:14.000Z</time>
      </trkpt>
      <trkpt lat="44.52201" lon="4.28865">
        <ele>277</ele>
        <time>2018-06-03T06:17:15.000Z</time>
      </trkpt>
      <trkpt lat="44.52204" lon="4.28864">
        <ele>277</ele>
        <time>2018-06-03T06:17:16.000Z</time>
      </trkpt>
      <trkpt lat="44.52206" lon="4.28862">
        <ele>278</ele>
        <time>2018-06-03T06:17:17.000Z</time>
      </trkpt>
      <trkpt lat="44.52209" lon="4.28861">
        <ele>278</ele>
        <time>2018-06-03T06:17:18.000Z</time>
      </trkpt>
      <trkpt lat="44.52211" lon="4.28859">
        <ele>278</ele>
        <time>2018-06-03T06:17:19.000Z</time>
      </trkpt>
      <trkpt lat="44.52214" lon="4.28857">
        <ele>278</ele>
        <time>2018-06-03T06:17:20.000Z</time>
      </trkpt>
      <trkpt lat="44.52217" lon="4.28855">
        <ele>278</ele>
        <time>2018-06-03T06:17:21.000Z</time>
      </trkpt>
      <trkpt lat="44.5222" lon="4.28853">
        <ele>278</ele>
        <time>2018-06-03T06:17:22.000Z</time>
      </trkpt>
      <trkpt lat="44.52224" lon="4.28851">
        <ele>278</ele>
        <time>2018-06-03T06:17:23.000Z</time>
      </trkpt>
      <trkpt lat="44.52227" lon="4.28847">
        <ele>278</ele>
        <time>2018-06-03T06:17:24.000Z</time>
      </trkpt>
      <trkpt lat="44.5223" lon="4.28843">
        <ele>278</ele>
        <time>2018-06-03T06:17:25.000Z</time>
      </trkpt>
      <trkpt lat="44.52232" lon="4.28839">
        <ele>279</ele>
        <time>2018-06-03T06:17:26.000Z</time>
      </trkpt>
      <trkpt lat="44.52235" lon="4.28834">
        <ele>279</ele>
        <time>2018-06-03T06:17:27.000Z</time>
      </trkpt>
      <trkpt lat="44.52238" lon="4.2883">
        <ele>279</ele>
        <time>2018-06-03T06:17:28.000Z</time>
      </trkpt>
      <trkpt lat="44.5224" lon="4.28825">
        <ele>279</ele>
        <time>2018-06-03T06:17:29.000Z</time>
      </trkpt>
      <trkpt lat="44.52242" lon="4.28821">
        <ele>279</ele>
        <time>2018-06-03T06:17:30.000Z</time>
      </trkpt>
      <trkpt lat="44.52245" lon="4.28816">
        <ele>279</ele>
        <time>2018-06-03T06:17:31.000Z</time>
      </trkpt>
      <trkpt lat="44.52247" lon="4.28811">
        <ele>279</ele>
        <time>2018-06-03T06:17:32.000Z</time>
      </trkpt>
      <trkpt lat="44.52248" lon="4.28806">
        <ele>279</ele>
        <time>2018-06-03T06:17:33.000Z</time>
      </trkpt>
      <trkpt lat="44.5225" lon="4.28801">
        <ele>279</ele>
        <time>2018-06-03T06:17:34.000Z</time>
      </trkpt>
      <trkpt lat="44.52252" lon="4.28796">
        <ele>282</ele>
        <time>2018-06-03T06:17:35.000Z</time>
      </trkpt>
      <trkpt lat="44.52253" lon="4.28791">
        <ele>282</ele>
        <time>2018-06-03T06:17:36.000Z</time>
      </trkpt>
      <trkpt lat="44.52254" lon="4.28786">
        <ele>282</ele>
        <time>2018-06-03T06:17:37.000Z</time>
      </trkpt>
      <trkpt lat="44.52256" lon="4.28781">
        <ele>282</ele>
        <time>2018-06-03T06:17:38.000Z</time>
      </trkpt>
      <trkpt lat="44.52257" lon="4.28776">
        <ele>282</ele>
        <time>2018-06-03T06:17:39.000Z</time>
      </trkpt>
      <trkpt lat="44.52259" lon="4.28771">
        <ele>282</ele>
        <time>2018-06-03T06:17:40.000Z</time>
      </trkpt>
      <trkpt lat="44.5226" lon="4.28766">
        <ele>283</ele>
        <time>2018-06-03T06:17:41.000Z</time>
      </trkpt>
      <trkpt lat="44.52261" lon="4.28761">
        <ele>283</ele>
        <time>2018-06-03T06:17:42.000Z</time>
      </trkpt>
      <trkpt lat="44.52263" lon="4.28756">
        <ele>283</ele>
        <time>2018-06-03T06:17:43.000Z</time>
      </trkpt>
      <trkpt lat="44.52264" lon="4.28752">
        <ele>283</ele>
        <time>2018-06-03T06:17:44.000Z</time>
      </trkpt>
      <trkpt lat="44.52266" lon="4.28747">
        <ele>285</ele>
        <time>2018-06-03T06:17:45.000Z</time>
      </trkpt>
      <trkpt lat="44.52268" lon="4.28743">
        <ele>285</ele>
        <time>2018-06-03T06:17:46.000Z</time>
      </trkpt>
      <trkpt lat="44.5227" lon="4.28738">
        <ele>285</ele>
        <time>2018-06-03T06:17:47.000Z</time>
      </trkpt>
      <trkpt lat="44.52272" lon="4.28734">
        <ele>285</ele>
        <time>2018-06-03T06:17:48.000Z</time>
      </trkpt>
      <trkpt lat="44.52275" lon="4.28731">
        <ele>285</ele>
        <time>2018-06-03T06:17:49.000Z</time>
      </trkpt>
      <trkpt lat="44.52278" lon="4.28728">
        <ele>286</ele>
        <time>2018-06-03T06:17:50.000Z</time>
      </trkpt>
      <trkpt lat="44.5228" lon="4.28725">
        <ele>286</ele>
        <time>2018-06-03T06:17:51.000Z</time>
      </trkpt>
      <trkpt lat="44.52283" lon="4.28722">
        <ele>286</ele>
        <time>2018-06-03T06:17:52.000Z</time>
      </trkpt>
      <trkpt lat="44.52286" lon="4.2872">
        <ele>286</ele>
        <time>2018-06-03T06:17:53.000Z</time>
      </trkpt>
      <trkpt lat="44.52288" lon="4.28717">
        <ele>286</ele>
        <time>2018-06-03T06:17:54.000Z</time>
      </trkpt>
      <trkpt lat="44.52291" lon="4.28714">
        <ele>286</ele>
        <time>2018-06-03T06:17:55.000Z</time>
      </trkpt>
      <trkpt lat="44.52293" lon="4.2871">
        <ele>286</ele>
        <time>2018-06-03T06:17:56.000Z</time>
      </trkpt>
      <trkpt lat="44.52295" lon="4.28706">
        <ele>286</ele>
        <time>2018-06-03T06:17:57.000Z</time>
      </trkpt>
      <trkpt lat="44.52296" lon="4.28702">
        <ele>286</ele>
        <time>2018-06-03T06:17:58.000Z</time>
      </trkpt>
      <trkpt lat="44.52298" lon="4.28699">
        <ele>287</ele>
        <time>2018-06-03T06:17:59.000Z</time>
      </trkpt>
      <trkpt lat="44.52299" lon="4.28695">
        <ele>287</ele>
        <time>2018-06-03T06:18:00.000Z</time>
      </trkpt>
      <trkpt lat="44.523" lon="4.28692">
        <ele>287</ele>
        <time>2018-06-03T06:18:01.000Z</time>
      </trkpt>
      <trkpt lat="44.52301" lon="4.28688">
        <ele>287</ele>
        <time>2018-06-03T06:18:02.000Z</time>
      </trkpt>
      <trkpt lat="44.52303" lon="4.28684">
        <ele>287</ele>
        <time>2018-06-03T06:18:03.000Z</time>
      </trkpt>
      <trkpt lat="44.52304" lon="4.28681">
        <ele>287</ele>
        <time>2018-06-03T06:18:04.000Z</time>
      </trkpt>
      <trkpt lat="44.52305" lon="4.28677">
        <ele>287</ele>
        <time>2018-06-03T06:18:05.000Z</time>
      </trkpt>
      <trkpt lat="44.52307" lon="4.28673">
        <ele>287</ele>
        <time>2018-06-03T06:18:06.000Z</time>
      </trkpt>
      <trkpt lat="44.52308" lon="4.2867">
        <ele>287</ele>
        <time>2018-06-03T06:18:07.000Z</time>
      </trkpt>
      <trkpt lat="44.5231" lon="4.28666">
        <ele>290</ele>
        <time>2018-06-03T06:18:08.000Z</time>
      </trkpt>
      <trkpt lat="44.52312" lon="4.28662">
        <ele>290</ele>
        <time>2018-06-03T06:18:09.000Z</time>
      </trkpt>
      <trkpt lat="44.52313" lon="4.28659">
        <ele>290</ele>
        <time>2018-06-03T06:18:10.000Z</time>
      </trkpt>
      <trkpt lat="44.52315" lon="4.28655">
        <ele>290</ele>
        <time>2018-06-03T06:18:11.000Z</time>
      </trkpt>
      <trkpt lat="44.52317" lon="4.28651">
        <ele>290</ele>
        <time>2018-06-03T06:18:12.000Z</time>
      </trkpt>
      <trkpt lat="44.52319" lon="4.28648">
        <ele>290</ele>
        <time>2018-06-03T06:18:13.000Z</time>
      </trkpt>
      <trkpt lat="44.52321" lon="4.28644">
        <ele>290</ele>
        <time>2018-06-03T06:18:14.000Z</time>
      </trkpt>
      <trkpt lat="44.52323" lon="4.28641">
        <ele>290</ele>
        <time>2018-06-03T06:18:15.000Z</time>
      </trkpt>
      <trkpt lat="44.52325" lon="4.28637">
        <ele>290</ele>
        <time>2018-06-03T06:18:16.000Z</time>
      </trkpt>
      <trkpt lat="44.52327" lon="4.28634">
        <ele>290</ele>
        <time>2018-06-03T06:18:17.000Z</time>
      </trkpt>
      <trkpt lat="44.52329" lon="4.2863">
        <ele>290</ele>
        <time>2018-06-03T06:18:18.000Z</time>
      </trkpt>
      <trkpt lat="44.52331" lon="4.28626">
        <ele>290</ele>
        <time>2018-06-03T06:18:19.000Z</time>
      </trkpt>
      <trkpt lat="44.52332" lon="4.28622">
        <ele>290</ele>
        <time>2018-06-03T06:18:20.000Z</time>
      </trkpt>
      <trkpt lat="44.52334" lon="4.28618">
        <ele>290</ele>
        <time>2018-06-03T06:18:21.000Z</time>
      </trkpt>
      <trkpt lat="44.52335" lon="4.28614">
        <ele>290</ele>
        <time>2018-06-03T06:18:22.000Z</time>
      </trkpt>
      <trkpt lat="44.52337" lon="4.2861">
        <ele>290</ele>
        <time>2018-06-03T06:18:23.000Z</time>
      </trkpt>
      <trkpt lat="44.52338" lon="4.28606">
        <ele>291</ele>
        <time>2018-06-03T06:18:24.000Z</time>
      </trkpt>
      <trkpt lat="44.5234" lon="4.28602">
        <ele>291</ele>
        <time>2018-06-03T06:18:25.000Z</time>
      </trkpt>
      <trkpt lat="44.52341" lon="4.28598">
        <ele>291</ele>
        <time>2018-06-03T06:18:26.000Z</time>
      </trkpt>
      <trkpt lat="44.52342" lon="4.28594">
        <ele>291</ele>
        <time>2018-06-03T06:18:27.000Z</time>
      </trkpt>
      <trkpt lat="44.52343" lon="4.2859">
        <ele>291</ele>
        <time>2018-06-03T06:18:28.000Z</time>
      </trkpt>
      <trkpt lat="44.52343" lon="4.28586">
        <ele>291</ele>
        <time>2018-06-03T06:18:29.000Z</time>
      </trkpt>
      <trkpt lat="44.52342" lon="4.28583">
        <ele>292</ele>
        <time>2018-06-03T06:18:30.000Z</time>
      </trkpt>
      <trkpt lat="44.52339" lon="4.28581">
        <ele>292</ele>
        <time>2018-06-03T06:18:31.000Z</time>
      </trkpt>
      <trkpt lat="44.52336" lon="4.28579">
        <ele>292</ele>
        <time>2018-06-03T06:18:32.000Z</time>
      </trkpt>
      <trkpt lat="44.52333" lon="4.28578">
        <ele>292</ele>
        <time>2018-06-03T06:18:33.000Z</time>
      </trkpt>
      <trkpt lat="44.5233" lon="4.28576">
        <ele>292</ele>
        <time>2018-06-03T06:18:34.000Z</time>
      </trkpt>
      <trkpt lat="44.52327" lon="4.28575">
        <ele>292</ele>
        <time>2018-06-03T06:18:35.000Z</time>
      </trkpt>
      <trkpt lat="44.52324" lon="4.28573">
        <ele>293</ele>
        <time>2018-06-03T06:18:36.000Z</time>
      </trkpt>
      <trkpt lat="44.5232" lon="4.28571">
        <ele>293</ele>
        <time>2018-06-03T06:18:37.000Z</time>
      </trkpt>
      <trkpt lat="44.52317" lon="4.28569">
        <ele>293</ele>
        <time>2018-06-03T06:18:38.000Z</time>
      </trkpt>
      <trkpt lat="44.52314" lon="4.28568">
        <ele>293</ele>
        <time>2018-06-03T06:18:39.000Z</time>
      </trkpt>
      <trkpt lat="44.52311" lon="4.28566">
        <ele>293</ele>
        <time>2018-06-03T06:18:40.000Z</time>
      </trkpt>
      <trkpt lat="44.52308" lon="4.28564">
        <ele>293</ele>
        <time>2018-06-03T06:18:41.000Z</time>
      </trkpt>
      <trkpt lat="44.52305" lon="4.28562">
        <ele>293</ele>
        <time>2018-06-03T06:18:42.000Z</time>
      </trkpt>
      <trkpt lat="44.52302" lon="4.2856">
        <ele>293</ele>
        <time>2018-06-03T06:18:43.000Z</time>
      </trkpt>
      <trkpt lat="44.52298" lon="4.28558">
        <ele>293</ele>
        <time>2018-06-03T06:18:44.000Z</time>
      </trkpt>
      <trkpt lat="44.52295" lon="4.28556">
        <ele>293</ele>
        <time>2018-06-03T06:18:45.000Z</time>
      </trkpt>
      <trkpt lat="44.52292" lon="4.28554">
        <ele>293</ele>
        <time>2018-06-03T06:18:46.000Z</time>
      </trkpt>
      <trkpt lat="44.52288" lon="4.28552">
        <ele>293</ele>
        <time>2018-06-03T06:18:47.000Z</time>
      </trkpt>
      <trkpt lat="44.52285" lon="4.28551">
        <ele>293</ele>
        <time>2018-06-03T06:18:48.000Z</time>
      </trkpt>
      <trkpt lat="44.52281" lon="4.28551">
        <ele>293</ele>
        <time>2018-06-03T06:18:49.000Z</time>
      </trkpt>
      <trkpt lat="44.52277" lon="4.2855">
        <ele>293</ele>
        <time>2018-06-03T06:18:50.000Z</time>
      </trkpt>
      <trkpt lat="44.52273" lon="4.28549">
        <ele>293</ele>
        <time>2018-06-03T06:18:51.000Z</time>
      </trkpt>
      <trkpt lat="44.52268" lon="4.28548">
        <ele>293</ele>
        <time>2018-06-03T06:18:52.000Z</time>
      </trkpt>
      <trkpt lat="44.52264" lon="4.28546">
        <ele>293</ele>
        <time>2018-06-03T06:18:53.000Z</time>
      </trkpt>
      <trkpt lat="44.5226" lon="4.28545">
        <ele>293</ele>
        <time>2018-06-03T06:18:54.000Z</time>
      </trkpt>
      <trkpt lat="44.52256" lon="4.28544">
        <ele>293</ele>
        <time>2018-06-03T06:18:55.000Z</time>
      </trkpt>
      <trkpt lat="44.52252" lon="4.28543">
        <ele>293</ele>
        <time>2018-06-03T06:18:56.000Z</time>
      </trkpt>
      <trkpt lat="44.52249" lon="4.28544">
        <ele>289</ele>
        <time>2018-06-03T06:18:57.000Z</time>
      </trkpt>
      <trkpt lat="44.52246" lon="4.28547">
        <ele>289</ele>
        <time>2018-06-03T06:18:58.000Z</time>
      </trkpt>
      <trkpt lat="44.52245" lon="4.28552">
        <ele>289</ele>
        <time>2018-06-03T06:18:59.000Z</time>
      </trkpt>
      <trkpt lat="44.52242" lon="4.28556">
        <ele>289</ele>
        <time>2018-06-03T06:19:00.000Z</time>
      </trkpt>
      <trkpt lat="44.52239" lon="4.28556">
        <ele>289</ele>
        <time>2018-06-03T06:19:01.000Z</time>
      </trkpt>
      <trkpt lat="44.52236" lon="4.28554">
        <ele>289</ele>
        <time>2018-06-03T06:19:02.000Z</time>
      </trkpt>
      <trkpt lat="44.52232" lon="4.28551">
        <ele>289</ele>
        <time>2018-06-03T06:19:03.000Z</time>
      </trkpt>
      <trkpt lat="44.5223" lon="4.28549">
        <ele>289</ele>
        <time>2018-06-03T06:19:04.000Z</time>
      </trkpt>
      <trkpt lat="44.52229" lon="4.28547">
        <ele>288</ele>
        <time>2018-06-03T06:19:05.000Z</time>
      </trkpt>
      <trkpt lat="44.52229" lon="4.28546">
        <ele>288</ele>
        <time>2018-06-03T06:19:06.000Z</time>
      </trkpt>
      <trkpt lat="44.5223" lon="4.28545">
        <ele>288</ele>
        <time>2018-06-03T06:19:07.000Z</time>
      </trkpt>
      <trkpt lat="44.5223" lon="4.28542">
        <ele>288</ele>
        <time>2018-06-03T06:19:08.000Z</time>
      </trkpt>
      <trkpt lat="44.52231" lon="4.2854">
        <ele>289</ele>
        <time>2018-06-03T06:19:09.000Z</time>
      </trkpt>
      <trkpt lat="44.52232" lon="4.28536">
        <ele>289</ele>
        <time>2018-06-03T06:19:10.000Z</time>
      </trkpt>
      <trkpt lat="44.52234" lon="4.28531">
        <ele>289</ele>
        <time>2018-06-03T06:19:11.000Z</time>
      </trkpt>
      <trkpt lat="44.52235" lon="4.28527">
        <ele>289</ele>
        <time>2018-06-03T06:19:12.000Z</time>
      </trkpt>
      <trkpt lat="44.52237" lon="4.28522">
        <ele>289</ele>
        <time>2018-06-03T06:19:13.000Z</time>
      </trkpt>
      <trkpt lat="44.52238" lon="4.28518">
        <ele>290</ele>
        <time>2018-06-03T06:19:14.000Z</time>
      </trkpt>
      <trkpt lat="44.52238" lon="4.28513">
        <ele>290</ele>
        <time>2018-06-03T06:19:15.000Z</time>
      </trkpt>
      <trkpt lat="44.52237" lon="4.28507">
        <ele>290</ele>
        <time>2018-06-03T06:19:16.000Z</time>
      </trkpt>
      <trkpt lat="44.52236" lon="4.28501">
        <ele>290</ele>
        <time>2018-06-03T06:19:17.000Z</time>
      </trkpt>
      <trkpt lat="44.52236" lon="4.28494">
        <ele>290</ele>
        <time>2018-06-03T06:19:18.000Z</time>
      </trkpt>
      <trkpt lat="44.52237" lon="4.28487">
        <ele>290</ele>
        <time>2018-06-03T06:19:19.000Z</time>
      </trkpt>
      <trkpt lat="44.52237" lon="4.2848">
        <ele>289</ele>
        <time>2018-06-03T06:19:20.000Z</time>
      </trkpt>
      <trkpt lat="44.52238" lon="4.28472">
        <ele>289</ele>
        <time>2018-06-03T06:19:21.000Z</time>
      </trkpt>
      <trkpt lat="44.52239" lon="4.28465">
        <ele>289</ele>
        <time>2018-06-03T06:19:22.000Z</time>
      </trkpt>
      <trkpt lat="44.5224" lon="4.28457">
        <ele>289</ele>
        <time>2018-06-03T06:19:23.000Z</time>
      </trkpt>
      <trkpt lat="44.5224" lon="4.28451">
        <ele>289</ele>
        <time>2018-06-03T06:19:24.000Z</time>
      </trkpt>
      <trkpt lat="44.52241" lon="4.28447">
        <ele>289</ele>
        <time>2018-06-03T06:19:25.000Z</time>
      </trkpt>
      <trkpt lat="44.52241" lon="4.28442">
        <ele>289</ele>
        <time>2018-06-03T06:19:26.000Z</time>
      </trkpt>
      <trkpt lat="44.52241" lon="4.28438">
        <ele>289</ele>
        <time>2018-06-03T06:19:27.000Z</time>
      </trkpt>
      <trkpt lat="44.52241" lon="4.28433">
        <ele>290</ele>
        <time>2018-06-03T06:19:28.000Z</time>
      </trkpt>
      <trkpt lat="44.52242" lon="4.28428">
        <ele>290</ele>
        <time>2018-06-03T06:19:29.000Z</time>
      </trkpt>
      <trkpt lat="44.52243" lon="4.28423">
        <ele>291</ele>
        <time>2018-06-03T06:19:30.000Z</time>
      </trkpt>
      <trkpt lat="44.52244" lon="4.28419">
        <ele>291</ele>
        <time>2018-06-03T06:19:31.000Z</time>
      </trkpt>
      <trkpt lat="44.52245" lon="4.28414">
        <ele>292</ele>
        <time>2018-06-03T06:19:32.000Z</time>
      </trkpt>
      <trkpt lat="44.52246" lon="4.28409">
        <ele>291</ele>
        <time>2018-06-03T06:19:33.000Z</time>
      </trkpt>
      <trkpt lat="44.52246" lon="4.28404">
        <ele>290</ele>
        <time>2018-06-03T06:19:34.000Z</time>
      </trkpt>
      <trkpt lat="44.52247" lon="4.28399">
        <ele>290</ele>
        <time>2018-06-03T06:19:35.000Z</time>
      </trkpt>
      <trkpt lat="44.52248" lon="4.28394">
        <ele>290</ele>
        <time>2018-06-03T06:19:36.000Z</time>
      </trkpt>
      <trkpt lat="44.52249" lon="4.2839">
        <ele>289</ele>
        <time>2018-06-03T06:19:37.000Z</time>
      </trkpt>
      <trkpt lat="44.5225" lon="4.28385">
        <ele>289</ele>
        <time>2018-06-03T06:19:38.000Z</time>
      </trkpt>
      <trkpt lat="44.52251" lon="4.2838">
        <ele>295</ele>
        <time>2018-06-03T06:19:39.000Z</time>
      </trkpt>
      <trkpt lat="44.52252" lon="4.28376">
        <ele>295</ele>
        <time>2018-06-03T06:19:40.000Z</time>
      </trkpt>
      <trkpt lat="44.52254" lon="4.28372">
        <ele>295</ele>
        <time>2018-06-03T06:19:41.000Z</time>
      </trkpt>
      <trkpt lat="44.52255" lon="4.28367">
        <ele>295</ele>
        <time>2018-06-03T06:19:42.000Z</time>
      </trkpt>
      <trkpt lat="44.52257" lon="4.28363">
        <ele>295</ele>
        <time>2018-06-03T06:19:43.000Z</time>
      </trkpt>
      <trkpt lat="44.52259" lon="4.28359">
        <ele>295</ele>
        <time>2018-06-03T06:19:44.000Z</time>
      </trkpt>
      <trkpt lat="44.5226" lon="4.28355">
        <ele>294</ele>
        <time>2018-06-03T06:19:45.000Z</time>
      </trkpt>
      <trkpt lat="44.52262" lon="4.28351">
        <ele>294</ele>
        <time>2018-06-03T06:19:46.000Z</time>
      </trkpt>
      <trkpt lat="44.52263" lon="4.28347">
        <ele>294</ele>
        <time>2018-06-03T06:19:47.000Z</time>
      </trkpt>
      <trkpt lat="44.52265" lon="4.28343">
        <ele>294</ele>
        <time>2018-06-03T06:19:48.000Z</time>
      </trkpt>
      <trkpt lat="44.52268" lon="4.2834">
        <ele>294</ele>
        <time>2018-06-03T06:19:49.000Z</time>
      </trkpt>
      <trkpt lat="44.5227" lon="4.28339">
        <ele>295</ele>
        <time>2018-06-03T06:19:50.000Z</time>
      </trkpt>
      <trkpt lat="44.52273" lon="4.28338">
        <ele>295</ele>
        <time>2018-06-03T06:19:51.000Z</time>
      </trkpt>
      <trkpt lat="44.52275" lon="4.28337">
        <ele>295</ele>
        <time>2018-06-03T06:19:52.000Z</time>
      </trkpt>
      <trkpt lat="44.52278" lon="4.28337">
        <ele>295</ele>
        <time>2018-06-03T06:19:53.000Z</time>
      </trkpt>
      <trkpt lat="44.5228" lon="4.28336">
        <ele>296</ele>
        <time>2018-06-03T06:19:54.000Z</time>
      </trkpt>
      <trkpt lat="44.52282" lon="4.28334">
        <ele>296</ele>
        <time>2018-06-03T06:19:55.000Z</time>
      </trkpt>
      <trkpt lat="44.52285" lon="4.28332">
        <ele>296</ele>
        <time>2018-06-03T06:19:56.000Z</time>
      </trkpt>
      <trkpt lat="44.52288" lon="4.28329">
        <ele>296</ele>
        <time>2018-06-03T06:19:57.000Z</time>
      </trkpt>
      <trkpt lat="44.5229" lon="4.28326">
        <ele>296</ele>
        <time>2018-06-03T06:19:58.000Z</time>
      </trkpt>
      <trkpt lat="44.52293" lon="4.28323">
        <ele>296</ele>
        <time>2018-06-03T06:19:59.000Z</time>
      </trkpt>
      <trkpt lat="44.52296" lon="4.28321">
        <ele>297</ele>
        <time>2018-06-03T06:20:00.000Z</time>
      </trkpt>
      <trkpt lat="44.523" lon="4.28318">
        <ele>297</ele>
        <time>2018-06-03T06:20:01.000Z</time>
      </trkpt>
      <trkpt lat="44.52303" lon="4.28316">
        <ele>297</ele>
        <time>2018-06-03T06:20:02.000Z</time>
      </trkpt>
      <trkpt lat="44.52306" lon="4.28314">
        <ele>297</ele>
        <time>2018-06-03T06:20:03.000Z</time>
      </trkpt>
      <trkpt lat="44.52309" lon="4.28311">
        <ele>297</ele>
        <time>2018-06-03T06:20:04.000Z</time>
      </trkpt>
      <trkpt lat="44.52312" lon="4.28308">
        <ele>298</ele>
        <time>2018-06-03T06:20:05.000Z</time>
      </trkpt>
      <trkpt lat="44.52315" lon="4.28305">
        <ele>298</ele>
        <time>2018-06-03T06:20:06.000Z</time>
      </trkpt>
      <trkpt lat="44.52319" lon="4.28301">
        <ele>298</ele>
        <time>2018-06-03T06:20:07.000Z</time>
      </trkpt>
      <trkpt lat="44.52322" lon="4.28298">
        <ele>297</ele>
        <time>2018-06-03T06:20:08.000Z</time>
      </trkpt>
      <trkpt lat="44.52326" lon="4.28295">
        <ele>297</ele>
        <time>2018-06-03T06:20:09.000Z</time>
      </trkpt>
      <trkpt lat="44.52331" lon="4.28292">
        <ele>297</ele>
        <time>2018-06-03T06:20:10.000Z</time>
      </trkpt>
      <trkpt lat="44.52335" lon="4.28289">
        <ele>299</ele>
        <time>2018-06-03T06:20:11.000Z</time>
      </trkpt>
      <trkpt lat="44.52339" lon="4.28287">
        <ele>299</ele>
        <time>2018-06-03T06:20:12.000Z</time>
      </trkpt>
      <trkpt lat="44.52344" lon="4.28283">
        <ele>299</ele>
        <time>2018-06-03T06:20:13.000Z</time>
      </trkpt>
      <trkpt lat="44.52348" lon="4.2828">
        <ele>298</ele>
        <time>2018-06-03T06:20:14.000Z</time>
      </trkpt>
      <trkpt lat="44.52352" lon="4.28278">
        <ele>298</ele>
        <time>2018-06-03T06:20:15.000Z</time>
      </trkpt>
      <trkpt lat="44.52356" lon="4.28275">
        <ele>298</ele>
        <time>2018-06-03T06:20:16.000Z</time>
      </trkpt>
      <trkpt lat="44.5236" lon="4.28272">
        <ele>298</ele>
        <time>2018-06-03T06:20:17.000Z</time>
      </trkpt>
      <trkpt lat="44.52364" lon="4.28269">
        <ele>298</ele>
        <time>2018-06-03T06:20:18.000Z</time>
      </trkpt>
      <trkpt lat="44.52368" lon="4.28265">
        <ele>298</ele>
        <time>2018-06-03T06:20:19.000Z</time>
      </trkpt>
      <trkpt lat="44.52372" lon="4.28262">
        <ele>298</ele>
        <time>2018-06-03T06:20:20.000Z</time>
      </trkpt>
      <trkpt lat="44.52376" lon="4.2826">
        <ele>298</ele>
        <time>2018-06-03T06:20:21.000Z</time>
      </trkpt>
      <trkpt lat="44.5238" lon="4.28257">
        <ele>298</ele>
        <time>2018-06-03T06:20:22.000Z</time>
      </trkpt>
      <trkpt lat="44.52385" lon="4.28256">
        <ele>298</ele>
        <time>2018-06-03T06:20:23.000Z</time>
      </trkpt>
      <trkpt lat="44.52389" lon="4.28255">
        <ele>298</ele>
        <time>2018-06-03T06:20:24.000Z</time>
      </trkpt>
      <trkpt lat="44.52393" lon="4.28255">
        <ele>298</ele>
        <time>2018-06-03T06:20:25.000Z</time>
      </trkpt>
      <trkpt lat="44.52397" lon="4.28255">
        <ele>298</ele>
        <time>2018-06-03T06:20:26.000Z</time>
      </trkpt>
      <trkpt lat="44.52402" lon="4.28254">
        <ele>298</ele>
        <time>2018-06-03T06:20:27.000Z</time>
      </trkpt>
      <trkpt lat="44.52406" lon="4.28252">
        <ele>298</ele>
        <time>2018-06-03T06:20:28.000Z</time>
      </trkpt>
      <trkpt lat="44.5241" lon="4.2825">
        <ele>297</ele>
        <time>2018-06-03T06:20:29.000Z</time>
      </trkpt>
      <trkpt lat="44.52413" lon="4.28248">
        <ele>297</ele>
        <time>2018-06-03T06:20:30.000Z</time>
      </trkpt>
      <trkpt lat="44.52417" lon="4.28245">
        <ele>297</ele>
        <time>2018-06-03T06:20:31.000Z</time>
      </trkpt>
      <trkpt lat="44.52419" lon="4.28242">
        <ele>298</ele>
        <time>2018-06-03T06:20:32.000Z</time>
      </trkpt>
      <trkpt lat="44.5242" lon="4.28237">
        <ele>298</ele>
        <time>2018-06-03T06:20:33.000Z</time>
      </trkpt>
      <trkpt lat="44.52419" lon="4.28232">
        <ele>298</ele>
        <time>2018-06-03T06:20:34.000Z</time>
      </trkpt>
      <trkpt lat="44.52417" lon="4.28226">
        <ele>298</ele>
        <time>2018-06-03T06:20:35.000Z</time>
      </trkpt>
      <trkpt lat="44.52415" lon="4.28219">
        <ele>297</ele>
        <time>2018-06-03T06:20:36.000Z</time>
      </trkpt>
      <trkpt lat="44.52413" lon="4.28211">
        <ele>297</ele>
        <time>2018-06-03T06:20:37.000Z</time>
      </trkpt>
      <trkpt lat="44.52411" lon="4.28203">
        <ele>296</ele>
        <time>2018-06-03T06:20:38.000Z</time>
      </trkpt>
      <trkpt lat="44.52409" lon="4.28195">
        <ele>296</ele>
        <time>2018-06-03T06:20:39.000Z</time>
      </trkpt>
      <trkpt lat="44.52406" lon="4.28186">
        <ele>296</ele>
        <time>2018-06-03T06:20:40.000Z</time>
      </trkpt>
      <trkpt lat="44.52404" lon="4.28177">
        <ele>296</ele>
        <time>2018-06-03T06:20:41.000Z</time>
      </trkpt>
      <trkpt lat="44.52401" lon="4.28169">
        <ele>296</ele>
        <time>2018-06-03T06:20:42.000Z</time>
      </trkpt>
      <trkpt lat="44.52399" lon="4.28161">
        <ele>297</ele>
        <time>2018-06-03T06:20:43.000Z</time>
      </trkpt>
      <trkpt lat="44.52397" lon="4.28155">
        <ele>298</ele>
        <time>2018-06-03T06:20:44.000Z</time>
      </trkpt>
      <trkpt lat="44.52394" lon="4.28152">
        <ele>298</ele>
        <time>2018-06-03T06:20:45.000Z</time>
      </trkpt>
      <trkpt lat="44.5239" lon="4.2815">
        <ele>298</ele>
        <time>2018-06-03T06:20:46.000Z</time>
      </trkpt>
      <trkpt lat="44.52385" lon="4.28151">
        <ele>298</ele>
        <time>2018-06-03T06:20:47.000Z</time>
      </trkpt>
      <trkpt lat="44.52381" lon="4.28153">
        <ele>298</ele>
        <time>2018-06-03T06:20:48.000Z</time>
      </trkpt>
      <trkpt lat="44.52377" lon="4.28157">
        <ele>298</ele>
        <time>2018-06-03T06:20:49.000Z</time>
      </trkpt>
      <trkpt lat="44.52374" lon="4.28161">
        <ele>298</ele>
        <time>2018-06-03T06:20:50.000Z</time>
      </trkpt>
      <trkpt lat="44.5237" lon="4.28165">
        <ele>298</ele>
        <time>2018-06-03T06:20:51.000Z</time>
      </trkpt>
      <trkpt lat="44.52366" lon="4.2817">
        <ele>297</ele>
        <time>2018-06-03T06:20:52.000Z</time>
      </trkpt>
      <trkpt lat="44.52362" lon="4.28173">
        <ele>297</ele>
        <time>2018-06-03T06:20:53.000Z</time>
      </trkpt>
      <trkpt lat="44.52357" lon="4.28176">
        <ele>297</ele>
        <time>2018-06-03T06:20:54.000Z</time>
      </trkpt>
      <trkpt lat="44.52352" lon="4.28179">
        <ele>297</ele>
        <time>2018-06-03T06:20:55.000Z</time>
      </trkpt>
      <trkpt lat="44.52347" lon="4.28181">
        <ele>297</ele>
        <time>2018-06-03T06:20:56.000Z</time>
      </trkpt>
      <trkpt lat="44.52342" lon="4.28183">
        <ele>297</ele>
        <time>2018-06-03T06:20:57.000Z</time>
      </trkpt>
      <trkpt lat="44.52337" lon="4.28185">
        <ele>297</ele>
        <time>2018-06-03T06:20:58.000Z</time>
      </trkpt>
      <trkpt lat="44.52331" lon="4.28187">
        <ele>297</ele>
        <time>2018-06-03T06:20:59.000Z</time>
      </trkpt>
      <trkpt lat="44.52326" lon="4.28189">
        <ele>297</ele>
        <time>2018-06-03T06:21:00.000Z</time>
      </trkpt>
      <trkpt lat="44.5232" lon="4.28192">
        <ele>297</ele>
        <time>2018-06-03T06:21:01.000Z</time>
      </trkpt>
      <trkpt lat="44.52315" lon="4.28195">
        <ele>297</ele>
        <time>2018-06-03T06:21:02.000Z</time>
      </trkpt>
      <trkpt lat="44.5231" lon="4.28198">
        <ele>297</ele>
        <time>2018-06-03T06:21:03.000Z</time>
      </trkpt>
      <trkpt lat="44.52305" lon="4.28201">
        <ele>297</ele>
        <time>2018-06-03T06:21:04.000Z</time>
      </trkpt>
      <trkpt lat="44.523" lon="4.28205">
        <ele>297</ele>
        <time>2018-06-03T06:21:05.000Z</time>
      </trkpt>
      <trkpt lat="44.52294" lon="4.28208">
        <ele>297</ele>
        <time>2018-06-03T06:21:06.000Z</time>
      </trkpt>
      <trkpt lat="44.52288" lon="4.28212">
        <ele>297</ele>
        <time>2018-06-03T06:21:07.000Z</time>
      </trkpt>
      <trkpt lat="44.52282" lon="4.28217">
        <ele>297</ele>
        <time>2018-06-03T06:21:08.000Z</time>
      </trkpt>
      <trkpt lat="44.52276" lon="4.28221">
        <ele>297</ele>
        <time>2018-06-03T06:21:09.000Z</time>
      </trkpt>
      <trkpt lat="44.5227" lon="4.28226">
        <ele>297</ele>
        <time>2018-06-03T06:21:10.000Z</time>
      </trkpt>
      <trkpt lat="44.52264" lon="4.28231">
        <ele>296</ele>
        <time>2018-06-03T06:21:11.000Z</time>
      </trkpt>
      <trkpt lat="44.52258" lon="4.28236">
        <ele>296</ele>
        <time>2018-06-03T06:21:12.000Z</time>
      </trkpt>
      <trkpt lat="44.52252" lon="4.28241">
        <ele>295</ele>
        <time>2018-06-03T06:21:13.000Z</time>
      </trkpt>
      <trkpt lat="44.52247" lon="4.28245">
        <ele>295</ele>
        <time>2018-06-03T06:21:14.000Z</time>
      </trkpt>
      <trkpt lat="44.52241" lon="4.28247">
        <ele>295</ele>
        <time>2018-06-03T06:21:15.000Z</time>
      </trkpt>
      <trkpt lat="44.52236" lon="4.28248">
        <ele>295</ele>
        <time>2018-06-03T06:21:16.000Z</time>
      </trkpt>
      <trkpt lat="44.52232" lon="4.28249">
        <ele>295</ele>
        <time>2018-06-03T06:21:17.000Z</time>
      </trkpt>
      <trkpt lat="44.52228" lon="4.28249">
        <ele>296</ele>
        <time>2018-06-03T06:21:18.000Z</time>
      </trkpt>
      <trkpt lat="44.52223" lon="4.28249">
        <ele>296</ele>
        <time>2018-06-03T06:21:19.000Z</time>
      </trkpt>
      <trkpt lat="44.52219" lon="4.28249">
        <ele>296</ele>
        <time>2018-06-03T06:21:20.000Z</time>
      </trkpt>
      <trkpt lat="44.52214" lon="4.28248">
        <ele>296</ele>
        <time>2018-06-03T06:21:21.000Z</time>
      </trkpt>
      <trkpt lat="44.5221" lon="4.28248">
        <ele>296</ele>
        <time>2018-06-03T06:21:22.000Z</time>
      </trkpt>
      <trkpt lat="44.52205" lon="4.28247">
        <ele>295</ele>
        <time>2018-06-03T06:21:23.000Z</time>
      </trkpt>
      <trkpt lat="44.522" lon="4.28245">
        <ele>295</ele>
        <time>2018-06-03T06:21:24.000Z</time>
      </trkpt>
      <trkpt lat="44.52195" lon="4.28241">
        <ele>295</ele>
        <time>2018-06-03T06:21:25.000Z</time>
      </trkpt>
      <trkpt lat="44.52192" lon="4.28238">
        <ele>295</ele>
        <time>2018-06-03T06:21:26.000Z</time>
      </trkpt>
      <trkpt lat="44.52188" lon="4.28235">
        <ele>295</ele>
        <time>2018-06-03T06:21:27.000Z</time>
      </trkpt>
      <trkpt lat="44.52185" lon="4.28233">
        <ele>295</ele>
        <time>2018-06-03T06:21:28.000Z</time>
      </trkpt>
      <trkpt lat="44.52182" lon="4.28231">
        <ele>295</ele>
        <time>2018-06-03T06:21:29.000Z</time>
      </trkpt>
      <trkpt lat="44.52178" lon="4.28228">
        <ele>295</ele>
        <time>2018-06-03T06:21:30.000Z</time>
      </trkpt>
      <trkpt lat="44.52175" lon="4.28225">
        <ele>295</ele>
        <time>2018-06-03T06:21:31.000Z</time>
      </trkpt>
      <trkpt lat="44.52172" lon="4.28221">
        <ele>296</ele>
        <time>2018-06-03T06:21:32.000Z</time>
      </trkpt>
      <trkpt lat="44.52169" lon="4.28216">
        <ele>296</ele>
        <time>2018-06-03T06:21:33.000Z</time>
      </trkpt>
      <trkpt lat="44.52166" lon="4.28212">
        <ele>295</ele>
        <time>2018-06-03T06:21:34.000Z</time>
      </trkpt>
      <trkpt lat="44.52164" lon="4.28207">
        <ele>296</ele>
        <time>2018-06-03T06:21:35.000Z</time>
      </trkpt>
      <trkpt lat="44.52161" lon="4.28202">
        <ele>296</ele>
        <time>2018-06-03T06:21:36.000Z</time>
      </trkpt>
      <trkpt lat="44.52159" lon="4.28197">
        <ele>296</ele>
        <time>2018-06-03T06:21:37.000Z</time>
      </trkpt>
      <trkpt lat="44.52156" lon="4.28192">
        <ele>297</ele>
        <time>2018-06-03T06:21:38.000Z</time>
      </trkpt>
      <trkpt lat="44.52154" lon="4.28188">
        <ele>297</ele>
        <time>2018-06-03T06:21:39.000Z</time>
      </trkpt>
      <trkpt lat="44.52152" lon="4.28184">
        <ele>297</ele>
        <time>2018-06-03T06:21:40.000Z</time>
      </trkpt>
      <trkpt lat="44.5215" lon="4.28181">
        <ele>297</ele>
        <time>2018-06-03T06:21:41.000Z</time>
      </trkpt>
      <trkpt lat="44.52148" lon="4.28178">
        <ele>298</ele>
        <time>2018-06-03T06:21:42.000Z</time>
      </trkpt>
      <trkpt lat="44.52146" lon="4.28174">
        <ele>298</ele>
        <time>2018-06-03T06:21:43.000Z</time>
      </trkpt>
      <trkpt lat="44.52144" lon="4.2817">
        <ele>297</ele>
        <time>2018-06-03T06:21:44.000Z</time>
      </trkpt>
      <trkpt lat="44.52141" lon="4.28167">
        <ele>297</ele>
        <time>2018-06-03T06:21:45.000Z</time>
      </trkpt>
      <trkpt lat="44.52139" lon="4.28164">
        <ele>301</ele>
        <time>2018-06-03T06:21:46.000Z</time>
      </trkpt>
      <trkpt lat="44.52137" lon="4.2816">
        <ele>301</ele>
        <time>2018-06-03T06:21:47.000Z</time>
      </trkpt>
      <trkpt lat="44.52135" lon="4.28157">
        <ele>301</ele>
        <time>2018-06-03T06:21:48.000Z</time>
      </trkpt>
      <trkpt lat="44.52132" lon="4.28154">
        <ele>301</ele>
        <time>2018-06-03T06:21:49.000Z</time>
      </trkpt>
      <trkpt lat="44.5213" lon="4.28151">
        <ele>301</ele>
        <time>2018-06-03T06:21:50.000Z</time>
      </trkpt>
      <trkpt lat="44.52127" lon="4.28149">
        <ele>301</ele>
        <time>2018-06-03T06:21:51.000Z</time>
      </trkpt>
      <trkpt lat="44.52125" lon="4.28146">
        <ele>301</ele>
        <time>2018-06-03T06:21:52.000Z</time>
      </trkpt>
      <trkpt lat="44.52124" lon="4.28142">
        <ele>301</ele>
        <time>2018-06-03T06:21:53.000Z</time>
      </trkpt>
      <trkpt lat="44.52124" lon="4.28138">
        <ele>302</ele>
        <time>2018-06-03T06:21:54.000Z</time>
      </trkpt>
      <trkpt lat="44.52124" lon="4.28135">
        <ele>302</ele>
        <time>2018-06-03T06:21:55.000Z</time>
      </trkpt>
      <trkpt lat="44.52125" lon="4.28132">
        <ele>302</ele>
        <time>2018-06-03T06:21:56.000Z</time>
      </trkpt>
      <trkpt lat="44.52127" lon="4.28129">
        <ele>302</ele>
        <time>2018-06-03T06:21:57.000Z</time>
      </trkpt>
      <trkpt lat="44.52129" lon="4.28126">
        <ele>302</ele>
        <time>2018-06-03T06:21:58.000Z</time>
      </trkpt>
      <trkpt lat="44.52131" lon="4.28123">
        <ele>302</ele>
        <time>2018-06-03T06:21:59.000Z</time>
      </trkpt>
      <trkpt lat="44.52132" lon="4.2812">
        <ele>302</ele>
        <time>2018-06-03T06:22:00.000Z</time>
      </trkpt>
      <trkpt lat="44.52133" lon="4.28117">
        <ele>303</ele>
        <time>2018-06-03T06:22:01.000Z</time>
      </trkpt>
      <trkpt lat="44.52134" lon="4.28114">
        <ele>303</ele>
        <time>2018-06-03T06:22:02.000Z</time>
      </trkpt>
      <trkpt lat="44.52135" lon="4.28112">
        <ele>303</ele>
        <time>2018-06-03T06:22:03.000Z</time>
      </trkpt>
      <trkpt lat="44.52137" lon="4.28109">
        <ele>303</ele>
        <time>2018-06-03T06:22:04.000Z</time>
      </trkpt>
      <trkpt lat="44.52138" lon="4.28107">
        <ele>303</ele>
        <time>2018-06-03T06:22:05.000Z</time>
      </trkpt>
      <trkpt lat="44.52139" lon="4.28104">
        <ele>303</ele>
        <time>2018-06-03T06:22:06.000Z</time>
      </trkpt>
      <trkpt lat="44.5214" lon="4.28101">
        <ele>304</ele>
        <time>2018-06-03T06:22:07.000Z</time>
      </trkpt>
      <trkpt lat="44.52142" lon="4.28099">
        <ele>304</ele>
        <time>2018-06-03T06:22:08.000Z</time>
      </trkpt>
      <trkpt lat="44.52143" lon="4.28097">
        <ele>304</ele>
        <time>2018-06-03T06:22:09.000Z</time>
      </trkpt>
      <trkpt lat="44.52145" lon="4.28094">
        <ele>304</ele>
        <time>2018-06-03T06:22:10.000Z</time>
      </trkpt>
      <trkpt lat="44.52146" lon="4.28091">
        <ele>304</ele>
        <time>2018-06-03T06:22:11.000Z</time>
      </trkpt>
      <trkpt lat="44.52148" lon="4.28089">
        <ele>305</ele>
        <time>2018-06-03T06:22:12.000Z</time>
      </trkpt>
      <trkpt lat="44.5215" lon="4.28086">
        <ele>305</ele>
        <time>2018-06-03T06:22:13.000Z</time>
      </trkpt>
      <trkpt lat="44.52151" lon="4.28083">
        <ele>306</ele>
        <time>2018-06-03T06:22:14.000Z</time>
      </trkpt>
      <trkpt lat="44.52153" lon="4.28081">
        <ele>306</ele>
        <time>2018-06-03T06:22:15.000Z</time>
      </trkpt>
      <trkpt lat="44.52154" lon="4.28079">
        <ele>306</ele>
        <time>2018-06-03T06:22:16.000Z</time>
      </trkpt>
      <trkpt lat="44.52156" lon="4.28077">
        <ele>306</ele>
        <time>2018-06-03T06:22:17.000Z</time>
      </trkpt>
      <trkpt lat="44.52158" lon="4.28075">
        <ele>306</ele>
        <time>2018-06-03T06:22:18.000Z</time>
      </trkpt>
      <trkpt lat="44.5216" lon="4.28073">
        <ele>306</ele>
        <time>2018-06-03T06:22:19.000Z</time>
      </trkpt>
      <trkpt lat="44.52162" lon="4.28069">
        <ele>306</ele>
        <time>2018-06-03T06:22:20.000Z</time>
      </trkpt>
      <trkpt lat="44.52164" lon="4.28066">
        <ele>306</ele>
        <time>2018-06-03T06:22:21.000Z</time>
      </trkpt>
      <trkpt lat="44.52166" lon="4.28063">
        <ele>306</ele>
        <time>2018-06-03T06:22:22.000Z</time>
      </trkpt>
      <trkpt lat="44.52168" lon="4.28059">
        <ele>307</ele>
        <time>2018-06-03T06:22:23.000Z</time>
      </trkpt>
      <trkpt lat="44.5217" lon="4.28056">
        <ele>307</ele>
        <time>2018-06-03T06:22:24.000Z</time>
      </trkpt>
      <trkpt lat="44.52172" lon="4.28053">
        <ele>307</ele>
        <time>2018-06-03T06:22:25.000Z</time>
      </trkpt>
      <trkpt lat="44.52175" lon="4.2805">
        <ele>307</ele>
        <time>2018-06-03T06:22:26.000Z</time>
      </trkpt>
      <trkpt lat="44.52177" lon="4.28048">
        <ele>307</ele>
        <time>2018-06-03T06:22:27.000Z</time>
      </trkpt>
      <trkpt lat="44.5218" lon="4.28046">
        <ele>307</ele>
        <time>2018-06-03T06:22:28.000Z</time>
      </trkpt>
      <trkpt lat="44.52182" lon="4.28043">
        <ele>307</ele>
        <time>2018-06-03T06:22:29.000Z</time>
      </trkpt>
      <trkpt lat="44.52184" lon="4.2804">
        <ele>307</ele>
        <time>2018-06-03T06:22:30.000Z</time>
      </trkpt>
      <trkpt lat="44.52186" lon="4.28037">
        <ele>307</ele>
        <time>2018-06-03T06:22:31.000Z</time>
      </trkpt>
      <trkpt lat="44.52189" lon="4.28034">
        <ele>307</ele>
        <time>2018-06-03T06:22:32.000Z</time>
      </trkpt>
      <trkpt lat="44.52191" lon="4.2803">
        <ele>307</ele>
        <time>2018-06-03T06:22:33.000Z</time>
      </trkpt>
      <trkpt lat="44.52193" lon="4.28027">
        <ele>307</ele>
        <time>2018-06-03T06:22:34.000Z</time>
      </trkpt>
      <trkpt lat="44.52194" lon="4.28024">
        <ele>307</ele>
        <time>2018-06-03T06:22:35.000Z</time>
      </trkpt>
      <trkpt lat="44.52195" lon="4.28021">
        <ele>307</ele>
        <time>2018-06-03T06:22:36.000Z</time>
      </trkpt>
      <trkpt lat="44.52197" lon="4.28018">
        <ele>307</ele>
        <time>2018-06-03T06:22:37.000Z</time>
      </trkpt>
      <trkpt lat="44.52198" lon="4.28015">
        <ele>307</ele>
        <time>2018-06-03T06:22:38.000Z</time>
      </trkpt>
      <trkpt lat="44.522" lon="4.28012">
        <ele>307</ele>
        <time>2018-06-03T06:22:39.000Z</time>
      </trkpt>
      <trkpt lat="44.52202" lon="4.2801">
        <ele>307</ele>
        <time>2018-06-03T06:22:40.000Z</time>
      </trkpt>
      <trkpt lat="44.52204" lon="4.28007">
        <ele>307</ele>
        <time>2018-06-03T06:22:41.000Z</time>
      </trkpt>
      <trkpt lat="44.52207" lon="4.28004">
        <ele>307</ele>
        <time>2018-06-03T06:22:42.000Z</time>
      </trkpt>
      <trkpt lat="44.52209" lon="4.28001">
        <ele>307</ele>
        <time>2018-06-03T06:22:43.000Z</time>
      </trkpt>
      <trkpt lat="44.52211" lon="4.27997">
        <ele>306</ele>
        <time>2018-06-03T06:22:44.000Z</time>
      </trkpt>
      <trkpt lat="44.52214" lon="4.27993">
        <ele>306</ele>
        <time>2018-06-03T06:22:45.000Z</time>
      </trkpt>
      <trkpt lat="44.52216" lon="4.2799">
        <ele>306</ele>
        <time>2018-06-03T06:22:46.000Z</time>
      </trkpt>
      <trkpt lat="44.52219" lon="4.27986">
        <ele>306</ele>
        <time>2018-06-03T06:22:47.000Z</time>
      </trkpt>
      <trkpt lat="44.52222" lon="4.27982">
        <ele>306</ele>
        <time>2018-06-03T06:22:48.000Z</time>
      </trkpt>
      <trkpt lat="44.52225" lon="4.27979">
        <ele>306</ele>
        <time>2018-06-03T06:22:49.000Z</time>
      </trkpt>
      <trkpt lat="44.52228" lon="4.27976">
        <ele>306</ele>
        <time>2018-06-03T06:22:50.000Z</time>
      </trkpt>
      <trkpt lat="44.52231" lon="4.27973">
        <ele>306</ele>
        <time>2018-06-03T06:22:51.000Z</time>
      </trkpt>
      <trkpt lat="44.52234" lon="4.27971">
        <ele>306</ele>
        <time>2018-06-03T06:22:52.000Z</time>
      </trkpt>
      <trkpt lat="44.52237" lon="4.27969">
        <ele>306</ele>
        <time>2018-06-03T06:22:53.000Z</time>
      </trkpt>
      <trkpt lat="44.52241" lon="4.27967">
        <ele>306</ele>
        <time>2018-06-03T06:22:54.000Z</time>
      </trkpt>
      <trkpt lat="44.52244" lon="4.27965">
        <ele>306</ele>
        <time>2018-06-03T06:22:55.000Z</time>
      </trkpt>
      <trkpt lat="44.52247" lon="4.27964">
        <ele>306</ele>
        <time>2018-06-03T06:22:56.000Z</time>
      </trkpt>
      <trkpt lat="44.5225" lon="4.27963">
        <ele>308</ele>
        <time>2018-06-03T06:22:57.000Z</time>
      </trkpt>
      <trkpt lat="44.52254" lon="4.27962">
        <ele>308</ele>
        <time>2018-06-03T06:22:58.000Z</time>
      </trkpt>
      <trkpt lat="44.52257" lon="4.27961">
        <ele>309</ele>
        <time>2018-06-03T06:22:59.000Z</time>
      </trkpt>
      <trkpt lat="44.5226" lon="4.2796">
        <ele>309</ele>
        <time>2018-06-03T06:23:00.000Z</time>
      </trkpt>
      <trkpt lat="44.52264" lon="4.27959">
        <ele>309</ele>
        <time>2018-06-03T06:23:01.000Z</time>
      </trkpt>
      <trkpt lat="44.52267" lon="4.27958">
        <ele>309</ele>
        <time>2018-06-03T06:23:02.000Z</time>
      </trkpt>
      <trkpt lat="44.52271" lon="4.27957">
        <ele>309</ele>
        <time>2018-06-03T06:23:03.000Z</time>
      </trkpt>
      <trkpt lat="44.52274" lon="4.27955">
        <ele>309</ele>
        <time>2018-06-03T06:23:04.000Z</time>
      </trkpt>
      <trkpt lat="44.52278" lon="4.27954">
        <ele>309</ele>
        <time>2018-06-03T06:23:05.000Z</time>
      </trkpt>
      <trkpt lat="44.52281" lon="4.27954">
        <ele>309</ele>
        <time>2018-06-03T06:23:06.000Z</time>
      </trkpt>
      <trkpt lat="44.52285" lon="4.27953">
        <ele>309</ele>
        <time>2018-06-03T06:23:07.000Z</time>
      </trkpt>
      <trkpt lat="44.52289" lon="4.27953">
        <ele>309</ele>
        <time>2018-06-03T06:23:08.000Z</time>
      </trkpt>
      <trkpt lat="44.52292" lon="4.27953">
        <ele>310</ele>
        <time>2018-06-03T06:23:09.000Z</time>
      </trkpt>
      <trkpt lat="44.52296" lon="4.27953">
        <ele>310</ele>
        <time>2018-06-03T06:23:10.000Z</time>
      </trkpt>
      <trkpt lat="44.523" lon="4.27952">
        <ele>310</ele>
        <time>2018-06-03T06:23:11.000Z</time>
      </trkpt>
      <trkpt lat="44.52304" lon="4.27952">
        <ele>310</ele>
        <time>2018-06-03T06:23:12.000Z</time>
      </trkpt>
      <trkpt lat="44.52308" lon="4.27952">
        <ele>310</ele>
        <time>2018-06-03T06:23:13.000Z</time>
      </trkpt>
      <trkpt lat="44.52312" lon="4.27952">
        <ele>310</ele>
        <time>2018-06-03T06:23:14.000Z</time>
      </trkpt>
      <trkpt lat="44.52317" lon="4.27952">
        <ele>311</ele>
        <time>2018-06-03T06:23:15.000Z</time>
      </trkpt>
      <trkpt lat="44.52321" lon="4.27952">
        <ele>311</ele>
        <time>2018-06-03T06:23:16.000Z</time>
      </trkpt>
      <trkpt lat="44.52325" lon="4.27952">
        <ele>311</ele>
        <time>2018-06-03T06:23:17.000Z</time>
      </trkpt>
      <trkpt lat="44.52329" lon="4.27951">
        <ele>311</ele>
        <time>2018-06-03T06:23:18.000Z</time>
      </trkpt>
      <trkpt lat="44.52334" lon="4.2795">
        <ele>312</ele>
        <time>2018-06-03T06:23:19.000Z</time>
      </trkpt>
      <trkpt lat="44.52338" lon="4.2795">
        <ele>312</ele>
        <time>2018-06-03T06:23:20.000Z</time>
      </trkpt>
      <trkpt lat="44.52342" lon="4.2795">
        <ele>312</ele>
        <time>2018-06-03T06:23:21.000Z</time>
      </trkpt>
      <trkpt lat="44.52346" lon="4.27949">
        <ele>312</ele>
        <time>2018-06-03T06:23:22.000Z</time>
      </trkpt>
      <trkpt lat="44.5235" lon="4.27948">
        <ele>312</ele>
        <time>2018-06-03T06:23:23.000Z</time>
      </trkpt>
      <trkpt lat="44.52354" lon="4.27948">
        <ele>312</ele>
        <time>2018-06-03T06:23:24.000Z</time>
      </trkpt>
      <trkpt lat="44.52358" lon="4.27947">
        <ele>312</ele>
        <time>2018-06-03T06:23:25.000Z</time>
      </trkpt>
      <trkpt lat="44.52362" lon="4.27947">
        <ele>312</ele>
        <time>2018-06-03T06:23:26.000Z</time>
      </trkpt>
      <trkpt lat="44.52367" lon="4.27946">
        <ele>312</ele>
        <time>2018-06-03T06:23:27.000Z</time>
      </trkpt>
      <trkpt lat="44.52371" lon="4.27946">
        <ele>312</ele>
        <time>2018-06-03T06:23:28.000Z</time>
      </trkpt>
      <trkpt lat="44.52375" lon="4.27945">
        <ele>312</ele>
        <time>2018-06-03T06:23:29.000Z</time>
      </trkpt>
      <trkpt lat="44.52379" lon="4.27944">
        <ele>312</ele>
        <time>2018-06-03T06:23:30.000Z</time>
      </trkpt>
      <trkpt lat="44.52384" lon="4.27944">
        <ele>312</ele>
        <time>2018-06-03T06:23:31.000Z</time>
      </trkpt>
      <trkpt lat="44.52388" lon="4.27944">
        <ele>312</ele>
        <time>2018-06-03T06:23:32.000Z</time>
      </trkpt>
      <trkpt lat="44.52393" lon="4.27944">
        <ele>312</ele>
        <time>2018-06-03T06:23:33.000Z</time>
      </trkpt>
      <trkpt lat="44.52399" lon="4.27942">
        <ele>312</ele>
        <time>2018-06-03T06:23:34.000Z</time>
      </trkpt>
      <trkpt lat="44.52404" lon="4.27939">
        <ele>312</ele>
        <time>2018-06-03T06:23:35.000Z</time>
      </trkpt>
      <trkpt lat="44.52408" lon="4.27935">
        <ele>312</ele>
        <time>2018-06-03T06:23:36.000Z</time>
      </trkpt>
      <trkpt lat="44.52412" lon="4.2793">
        <ele>312</ele>
        <time>2018-06-03T06:23:37.000Z</time>
      </trkpt>
      <trkpt lat="44.52417" lon="4.27926">
        <ele>312</ele>
        <time>2018-06-03T06:23:38.000Z</time>
      </trkpt>
      <trkpt lat="44.52421" lon="4.27921">
        <ele>312</ele>
        <time>2018-06-03T06:23:39.000Z</time>
      </trkpt>
      <trkpt lat="44.52425" lon="4.27918">
        <ele>312</ele>
        <time>2018-06-03T06:23:40.000Z</time>
      </trkpt>
      <trkpt lat="44.52428" lon="4.27914">
        <ele>314</ele>
        <time>2018-06-03T06:23:41.000Z</time>
      </trkpt>
      <trkpt lat="44.52429" lon="4.27909">
        <ele>314</ele>
        <time>2018-06-03T06:23:42.000Z</time>
      </trkpt>
      <trkpt lat="44.52429" lon="4.27905">
        <ele>314</ele>
        <time>2018-06-03T06:23:43.000Z</time>
      </trkpt>
      <trkpt lat="44.52427" lon="4.279">
        <ele>314</ele>
        <time>2018-06-03T06:23:44.000Z</time>
      </trkpt>
      <trkpt lat="44.52425" lon="4.27896">
        <ele>314</ele>
        <time>2018-06-03T06:23:45.000Z</time>
      </trkpt>
      <trkpt lat="44.52423" lon="4.27892">
        <ele>314</ele>
        <time>2018-06-03T06:23:46.000Z</time>
      </trkpt>
      <trkpt lat="44.5242" lon="4.27887">
        <ele>314</ele>
        <time>2018-06-03T06:23:47.000Z</time>
      </trkpt>
      <trkpt lat="44.52419" lon="4.27883">
        <ele>314</ele>
        <time>2018-06-03T06:23:48.000Z</time>
      </trkpt>
      <trkpt lat="44.52417" lon="4.27878">
        <ele>314</ele>
        <time>2018-06-03T06:23:49.000Z</time>
      </trkpt>
      <trkpt lat="44.52414" lon="4.27873">
        <ele>314</ele>
        <time>2018-06-03T06:23:50.000Z</time>
      </trkpt>
      <trkpt lat="44.52412" lon="4.27868">
        <ele>314</ele>
        <time>2018-06-03T06:23:51.000Z</time>
      </trkpt>
      <trkpt lat="44.5241" lon="4.27864">
        <ele>314</ele>
        <time>2018-06-03T06:23:52.000Z</time>
      </trkpt>
      <trkpt lat="44.52409" lon="4.27858">
        <ele>314</ele>
        <time>2018-06-03T06:23:53.000Z</time>
      </trkpt>
      <trkpt lat="44.52407" lon="4.27853">
        <ele>314</ele>
        <time>2018-06-03T06:23:54.000Z</time>
      </trkpt>
      <trkpt lat="44.52405" lon="4.27848">
        <ele>314</ele>
        <time>2018-06-03T06:23:55.000Z</time>
      </trkpt>
      <trkpt lat="44.52403" lon="4.27843">
        <ele>314</ele>
        <time>2018-06-03T06:23:56.000Z</time>
      </trkpt>
      <trkpt lat="44.52403" lon="4.27837">
        <ele>314</ele>
        <time>2018-06-03T06:23:57.000Z</time>
      </trkpt>
      <trkpt lat="44.52403" lon="4.27832">
        <ele>314</ele>
        <time>2018-06-03T06:23:58.000Z</time>
      </trkpt>
      <trkpt lat="44.52404" lon="4.27828">
        <ele>314</ele>
        <time>2018-06-03T06:23:59.000Z</time>
      </trkpt>
      <trkpt lat="44.52407" lon="4.27824">
        <ele>314</ele>
        <time>2018-06-03T06:24:00.000Z</time>
      </trkpt>
      <trkpt lat="44.52409" lon="4.27821">
        <ele>314</ele>
        <time>2018-06-03T06:24:01.000Z</time>
      </trkpt>
      <trkpt lat="44.52412" lon="4.27817">
        <ele>314</ele>
        <time>2018-06-03T06:24:02.000Z</time>
      </trkpt>
      <trkpt lat="44.52414" lon="4.27814">
        <ele>314</ele>
        <time>2018-06-03T06:24:03.000Z</time>
      </trkpt>
      <trkpt lat="44.52417" lon="4.2781">
        <ele>316</ele>
        <time>2018-06-03T06:24:04.000Z</time>
      </trkpt>
      <trkpt lat="44.5242" lon="4.27807">
        <ele>316</ele>
        <time>2018-06-03T06:24:05.000Z</time>
      </trkpt>
      <trkpt lat="44.52423" lon="4.27804">
        <ele>316</ele>
        <time>2018-06-03T06:24:06.000Z</time>
      </trkpt>
      <trkpt lat="44.52426" lon="4.278">
        <ele>316</ele>
        <time>2018-06-03T06:24:07.000Z</time>
      </trkpt>
      <trkpt lat="44.52429" lon="4.27797">
        <ele>316</ele>
        <time>2018-06-03T06:24:08.000Z</time>
      </trkpt>
      <trkpt lat="44.52432" lon="4.27794">
        <ele>316</ele>
        <time>2018-06-03T06:24:09.000Z</time>
      </trkpt>
      <trkpt lat="44.52434" lon="4.2779">
        <ele>316</ele>
        <time>2018-06-03T06:24:10.000Z</time>
      </trkpt>
      <trkpt lat="44.52437" lon="4.27785">
        <ele>316</ele>
        <time>2018-06-03T06:24:11.000Z</time>
      </trkpt>
      <trkpt lat="44.52438" lon="4.2778">
        <ele>316</ele>
        <time>2018-06-03T06:24:12.000Z</time>
      </trkpt>
      <trkpt lat="44.52439" lon="4.27775">
        <ele>316</ele>
        <time>2018-06-03T06:24:13.000Z</time>
      </trkpt>
      <trkpt lat="44.5244" lon="4.27769">
        <ele>316</ele>
        <time>2018-06-03T06:24:14.000Z</time>
      </trkpt>
      <trkpt lat="44.5244" lon="4.27762">
        <ele>316</ele>
        <time>2018-06-03T06:24:15.000Z</time>
      </trkpt>
      <trkpt lat="44.5244" lon="4.27756">
        <ele>316</ele>
        <time>2018-06-03T06:24:16.000Z</time>
      </trkpt>
      <trkpt lat="44.5244" lon="4.2775">
        <ele>316</ele>
        <time>2018-06-03T06:24:17.000Z</time>
      </trkpt>
      <trkpt lat="44.52438" lon="4.27745">
        <ele>316</ele>
        <time>2018-06-03T06:24:18.000Z</time>
      </trkpt>
      <trkpt lat="44.52436" lon="4.2774">
        <ele>316</ele>
        <time>2018-06-03T06:24:19.000Z</time>
      </trkpt>
      <trkpt lat="44.52434" lon="4.27735">
        <ele>316</ele>
        <time>2018-06-03T06:24:20.000Z</time>
      </trkpt>
      <trkpt lat="44.52433" lon="4.2773">
        <ele>316</ele>
        <time>2018-06-03T06:24:21.000Z</time>
      </trkpt>
      <trkpt lat="44.52431" lon="4.27724">
        <ele>316</ele>
        <time>2018-06-03T06:24:22.000Z</time>
      </trkpt>
      <trkpt lat="44.5243" lon="4.27718">
        <ele>316</ele>
        <time>2018-06-03T06:24:23.000Z</time>
      </trkpt>
      <trkpt lat="44.52428" lon="4.27712">
        <ele>316</ele>
        <time>2018-06-03T06:24:24.000Z</time>
      </trkpt>
      <trkpt lat="44.52425" lon="4.27706">
        <ele>316</ele>
        <time>2018-06-03T06:24:25.000Z</time>
      </trkpt>
      <trkpt lat="44.52422" lon="4.277">
        <ele>316</ele>
        <time>2018-06-03T06:24:26.000Z</time>
      </trkpt>
      <trkpt lat="44.5242" lon="4.27693">
        <ele>315</ele>
        <time>2018-06-03T06:24:27.000Z</time>
      </trkpt>
      <trkpt lat="44.52419" lon="4.27686">
        <ele>315</ele>
        <time>2018-06-03T06:24:28.000Z</time>
      </trkpt>
      <trkpt lat="44.52417" lon="4.27679">
        <ele>312</ele>
        <time>2018-06-03T06:24:29.000Z</time>
      </trkpt>
      <trkpt lat="44.52414" lon="4.27672">
        <ele>313</ele>
        <time>2018-06-03T06:24:30.000Z</time>
      </trkpt>
      <trkpt lat="44.52411" lon="4.27664">
        <ele>312</ele>
        <time>2018-06-03T06:24:31.000Z</time>
      </trkpt>
      <trkpt lat="44.52408" lon="4.27656">
        <ele>310</ele>
        <time>2018-06-03T06:24:32.000Z</time>
      </trkpt>
      <trkpt lat="44.52405" lon="4.2765">
        <ele>310</ele>
        <time>2018-06-03T06:24:33.000Z</time>
      </trkpt>
      <trkpt lat="44.52403" lon="4.27645">
        <ele>309</ele>
        <time>2018-06-03T06:24:34.000Z</time>
      </trkpt>
      <trkpt lat="44.52401" lon="4.27639">
        <ele>309</ele>
        <time>2018-06-03T06:24:35.000Z</time>
      </trkpt>
      <trkpt lat="44.52398" lon="4.27632">
        <ele>308</ele>
        <time>2018-06-03T06:24:36.000Z</time>
      </trkpt>
      <trkpt lat="44.52396" lon="4.27624">
        <ele>308</ele>
        <time>2018-06-03T06:24:37.000Z</time>
      </trkpt>
      <trkpt lat="44.52393" lon="4.27615">
        <ele>307</ele>
        <time>2018-06-03T06:24:38.000Z</time>
      </trkpt>
      <trkpt lat="44.52391" lon="4.27607">
        <ele>307</ele>
        <time>2018-06-03T06:24:39.000Z</time>
      </trkpt>
      <trkpt lat="44.52387" lon="4.276">
        <ele>307</ele>
        <time>2018-06-03T06:24:40.000Z</time>
      </trkpt>
      <trkpt lat="44.52386" lon="4.27595">
        <ele>307</ele>
        <time>2018-06-03T06:24:41.000Z</time>
      </trkpt>
      <trkpt lat="44.52386" lon="4.27591">
        <ele>307</ele>
        <time>2018-06-03T06:24:42.000Z</time>
      </trkpt>
      <trkpt lat="44.52389" lon="4.27588">
        <ele>307</ele>
        <time>2018-06-03T06:24:43.000Z</time>
      </trkpt>
      <trkpt lat="44.52392" lon="4.27586">
        <ele>307</ele>
        <time>2018-06-03T06:24:44.000Z</time>
      </trkpt>
      <trkpt lat="44.52396" lon="4.27585">
        <ele>307</ele>
        <time>2018-06-03T06:24:45.000Z</time>
      </trkpt>
      <trkpt lat="44.52398" lon="4.27584">
        <ele>307</ele>
        <time>2018-06-03T06:24:46.000Z</time>
      </trkpt>
      <trkpt lat="44.52401" lon="4.27582">
        <ele>305</ele>
        <time>2018-06-03T06:24:47.000Z</time>
      </trkpt>
      <trkpt lat="44.52403" lon="4.27579">
        <ele>306</ele>
        <time>2018-06-03T06:24:48.000Z</time>
      </trkpt>
      <trkpt lat="44.52404" lon="4.27576">
        <ele>306</ele>
        <time>2018-06-03T06:24:49.000Z</time>
      </trkpt>
      <trkpt lat="44.52404" lon="4.27572">
        <ele>305</ele>
        <time>2018-06-03T06:24:50.000Z</time>
      </trkpt>
      <trkpt lat="44.52404" lon="4.27567">
        <ele>305</ele>
        <time>2018-06-03T06:24:51.000Z</time>
      </trkpt>
      <trkpt lat="44.52404" lon="4.27563">
        <ele>305</ele>
        <time>2018-06-03T06:24:52.000Z</time>
      </trkpt>
      <trkpt lat="44.52403" lon="4.27558">
        <ele>304</ele>
        <time>2018-06-03T06:24:53.000Z</time>
      </trkpt>
      <trkpt lat="44.52401" lon="4.27554">
        <ele>304</ele>
        <time>2018-06-03T06:24:54.000Z</time>
      </trkpt>
      <trkpt lat="44.52399" lon="4.27552">
        <ele>304</ele>
        <time>2018-06-03T06:24:55.000Z</time>
      </trkpt>
      <trkpt lat="44.52396" lon="4.27551">
        <ele>304</ele>
        <time>2018-06-03T06:24:56.000Z</time>
      </trkpt>
      <trkpt lat="44.52394" lon="4.27549">
        <ele>304</ele>
        <time>2018-06-03T06:24:57.000Z</time>
      </trkpt>
      <trkpt lat="44.52392" lon="4.27546">
        <ele>303</ele>
        <time>2018-06-03T06:24:58.000Z</time>
      </trkpt>
      <trkpt lat="44.52392" lon="4.27543">
        <ele>303</ele>
        <time>2018-06-03T06:24:59.000Z</time>
      </trkpt>
      <trkpt lat="44.52392" lon="4.27541">
        <ele>303</ele>
        <time>2018-06-03T06:25:00.000Z</time>
      </trkpt>
      <trkpt lat="44.52392" lon="4.27539">
        <ele>303</ele>
        <time>2018-06-03T06:25:01.000Z</time>
      </trkpt>
      <trkpt lat="44.52392" lon="4.27536">
        <ele>303</ele>
        <time>2018-06-03T06:25:02.000Z</time>
      </trkpt>
      <trkpt lat="44.52391" lon="4.27534">
        <ele>303</ele>
        <time>2018-06-03T06:25:03.000Z</time>
      </trkpt>
      <trkpt lat="44.52391" lon="4.27531">
        <ele>303</ele>
        <time>2018-06-03T06:25:04.000Z</time>
      </trkpt>
      <trkpt lat="44.5239" lon="4.27528">
        <ele>303</ele>
        <time>2018-06-03T06:25:05.000Z</time>
      </trkpt>
      <trkpt lat="44.5239" lon="4.27525">
        <ele>303</ele>
        <time>2018-06-03T06:25:06.000Z</time>
      </trkpt>
      <trkpt lat="44.52389" lon="4.27523">
        <ele>303</ele>
        <time>2018-06-03T06:25:07.000Z</time>
      </trkpt>
      <trkpt lat="44.52388" lon="4.2752">
        <ele>303</ele>
        <time>2018-06-03T06:25:08.000Z</time>
      </trkpt>
      <trkpt lat="44.52388" lon="4.27518">
        <ele>303</ele>
        <time>2018-06-03T06:25:09.000Z</time>
      </trkpt>
      <trkpt lat="44.52388" lon="4.27515">
        <ele>303</ele>
        <time>2018-06-03T06:25:10.000Z</time>
      </trkpt>
      <trkpt lat="44.52388" lon="4.27512">
        <ele>303</ele>
        <time>2018-06-03T06:25:11.000Z</time>
      </trkpt>
      <trkpt lat="44.52387" lon="4.27509">
        <ele>303</ele>
        <time>2018-06-03T06:25:12.000Z</time>
      </trkpt>
      <trkpt lat="44.52387" lon="4.27507">
        <ele>303</ele>
        <time>2018-06-03T06:25:13.000Z</time>
      </trkpt>
      <trkpt lat="44.52387" lon="4.27504">
        <ele>303</ele>
        <time>2018-06-03T06:25:14.000Z</time>
      </trkpt>
      <trkpt lat="44.52386" lon="4.27501">
        <ele>303</ele>
        <time>2018-06-03T06:25:15.000Z</time>
      </trkpt>
      <trkpt lat="44.52387" lon="4.27498">
        <ele>303</ele>
        <time>2018-06-03T06:25:16.000Z</time>
      </trkpt>
      <trkpt lat="44.52388" lon="4.27495">
        <ele>303</ele>
        <time>2018-06-03T06:25:17.000Z</time>
      </trkpt>
      <trkpt lat="44.52389" lon="4.27492">
        <ele>303</ele>
        <time>2018-06-03T06:25:18.000Z</time>
      </trkpt>
      <trkpt lat="44.5239" lon="4.2749">
        <ele>303</ele>
        <time>2018-06-03T06:25:19.000Z</time>
      </trkpt>
      <trkpt lat="44.52392" lon="4.27488">
        <ele>303</ele>
        <time>2018-06-03T06:25:20.000Z</time>
      </trkpt>
      <trkpt lat="44.52393" lon="4.27485">
        <ele>303</ele>
        <time>2018-06-03T06:25:21.000Z</time>
      </trkpt>
      <trkpt lat="44.52395" lon="4.27484">
        <ele>303</ele>
        <time>2018-06-03T06:25:22.000Z</time>
      </trkpt>
      <trkpt lat="44.52397" lon="4.27482">
        <ele>303</ele>
        <time>2018-06-03T06:25:23.000Z</time>
      </trkpt>
      <trkpt lat="44.52398" lon="4.2748">
        <ele>303</ele>
        <time>2018-06-03T06:25:24.000Z</time>
      </trkpt>
      <trkpt lat="44.524" lon="4.27478">
        <ele>303</ele>
        <time>2018-06-03T06:25:25.000Z</time>
      </trkpt>
      <trkpt lat="44.52402" lon="4.27476">
        <ele>303</ele>
        <time>2018-06-03T06:25:26.000Z</time>
      </trkpt>
      <trkpt lat="44.52402" lon="4.27473">
        <ele>303</ele>
        <time>2018-06-03T06:25:27.000Z</time>
      </trkpt>
      <trkpt lat="44.52403" lon="4.27471">
        <ele>303</ele>
        <time>2018-06-03T06:25:28.000Z</time>
      </trkpt>
      <trkpt lat="44.52403" lon="4.27469">
        <ele>303</ele>
        <time>2018-06-03T06:25:29.000Z</time>
      </trkpt>
      <trkpt lat="44.52404" lon="4.27467">
        <ele>303</ele>
        <time>2018-06-03T06:25:30.000Z</time>
      </trkpt>
      <trkpt lat="44.52404" lon="4.27465">
        <ele>303</ele>
        <time>2018-06-03T06:25:31.000Z</time>
      </trkpt>
      <trkpt lat="44.52404" lon="4.27463">
        <ele>303</ele>
        <time>2018-06-03T06:25:32.000Z</time>
      </trkpt>
      <trkpt lat="44.52405" lon="4.27461">
        <ele>303</ele>
        <time>2018-06-03T06:25:33.000Z</time>
      </trkpt>
      <trkpt lat="44.52405" lon="4.27458">
        <ele>303</ele>
        <time>2018-06-03T06:25:34.000Z</time>
      </trkpt>
      <trkpt lat="44.52405" lon="4.27456">
        <ele>303</ele>
        <time>2018-06-03T06:25:35.000Z</time>
      </trkpt>
      <trkpt lat="44.52405" lon="4.27453">
        <ele>303</ele>
        <time>2018-06-03T06:25:36.000Z</time>
      </trkpt>
      <trkpt lat="44.52405" lon="4.27449">
        <ele>303</ele>
        <time>2018-06-03T06:25:37.000Z</time>
      </trkpt>
      <trkpt lat="44.52405" lon="4.27446">
        <ele>304</ele>
        <time>2018-06-03T06:25:38.000Z</time>
      </trkpt>
      <trkpt lat="44.52405" lon="4.27443">
        <ele>304</ele>
        <time>2018-06-03T06:25:39.000Z</time>
      </trkpt>
      <trkpt lat="44.52404" lon="4.27439">
        <ele>304</ele>
        <time>2018-06-03T06:25:40.000Z</time>
      </trkpt>
      <trkpt lat="44.52403" lon="4.27437">
        <ele>304</ele>
        <time>2018-06-03T06:25:41.000Z</time>
      </trkpt>
      <trkpt lat="44.52403" lon="4.27437">
        <ele>304</ele>
        <time>2018-06-03T06:25:42.000Z</time>
      </trkpt>
      <trkpt lat="44.52402" lon="4.27437">
        <ele>304</ele>
        <time>2018-06-03T06:25:43.000Z</time>
      </trkpt>
      <trkpt lat="44.524" lon="4.27439">
        <ele>304</ele>
        <time>2018-06-03T06:25:44.000Z</time>
      </trkpt>
      <trkpt lat="44.52398" lon="4.2744">
        <ele>303</ele>
        <time>2018-06-03T06:25:45.000Z</time>
      </trkpt>
      <trkpt lat="44.52395" lon="4.27441">
        <ele>303</ele>
        <time>2018-06-03T06:25:46.000Z</time>
      </trkpt>
      <trkpt lat="44.52391" lon="4.27442">
        <ele>303</ele>
        <time>2018-06-03T06:25:47.000Z</time>
      </trkpt>
      <trkpt lat="44.52387" lon="4.27443">
        <ele>303</ele>
        <time>2018-06-03T06:25:48.000Z</time>
      </trkpt>
      <trkpt lat="44.52383" lon="4.27444">
        <ele>302</ele>
        <time>2018-06-03T06:25:49.000Z</time>
      </trkpt>
      <trkpt lat="44.52378" lon="4.27444">
        <ele>302</ele>
        <time>2018-06-03T06:25:50.000Z</time>
      </trkpt>
      <trkpt lat="44.52375" lon="4.27444">
        <ele>302</ele>
        <time>2018-06-03T06:25:51.000Z</time>
      </trkpt>
      <trkpt lat="44.52373" lon="4.27447">
        <ele>302</ele>
        <time>2018-06-03T06:25:52.000Z</time>
      </trkpt>
      <trkpt lat="44.5237" lon="4.27449">
        <ele>302</ele>
        <time>2018-06-03T06:25:53.000Z</time>
      </trkpt>
      <trkpt lat="44.52367" lon="4.27452">
        <ele>301</ele>
        <time>2018-06-03T06:25:54.000Z</time>
      </trkpt>
      <trkpt lat="44.52363" lon="4.27453">
        <ele>301</ele>
        <time>2018-06-03T06:25:55.000Z</time>
      </trkpt>
      <trkpt lat="44.52359" lon="4.27454">
        <ele>301</ele>
        <time>2018-06-03T06:25:56.000Z</time>
      </trkpt>
      <trkpt lat="44.52353" lon="4.27454">
        <ele>301</ele>
        <time>2018-06-03T06:25:57.000Z</time>
      </trkpt>
      <trkpt lat="44.52347" lon="4.27454">
        <ele>300</ele>
        <time>2018-06-03T06:25:58.000Z</time>
      </trkpt>
      <trkpt lat="44.52342" lon="4.27455">
        <ele>300</ele>
        <time>2018-06-03T06:25:59.000Z</time>
      </trkpt>
      <trkpt lat="44.52336" lon="4.27456">
        <ele>300</ele>
        <time>2018-06-03T06:26:00.000Z</time>
      </trkpt>
      <trkpt lat="44.52332" lon="4.27458">
        <ele>298</ele>
        <time>2018-06-03T06:26:01.000Z</time>
      </trkpt>
      <trkpt lat="44.52328" lon="4.27459">
        <ele>298</ele>
        <time>2018-06-03T06:26:02.000Z</time>
      </trkpt>
      <trkpt lat="44.52324" lon="4.27458">
        <ele>298</ele>
        <time>2018-06-03T06:26:03.000Z</time>
      </trkpt>
      <trkpt lat="44.52322" lon="4.27456">
        <ele>298</ele>
        <time>2018-06-03T06:26:04.000Z</time>
      </trkpt>
      <trkpt lat="44.5232" lon="4.27453">
        <ele>298</ele>
        <time>2018-06-03T06:26:05.000Z</time>
      </trkpt>
      <trkpt lat="44.52318" lon="4.27449">
        <ele>298</ele>
        <time>2018-06-03T06:26:06.000Z</time>
      </trkpt>
      <trkpt lat="44.52316" lon="4.27445">
        <ele>298</ele>
        <time>2018-06-03T06:26:07.000Z</time>
      </trkpt>
      <trkpt lat="44.52313" lon="4.27443">
        <ele>298</ele>
        <time>2018-06-03T06:26:08.000Z</time>
      </trkpt>
      <trkpt lat="44.52311" lon="4.27441">
        <ele>298</ele>
        <time>2018-06-03T06:26:09.000Z</time>
      </trkpt>
      <trkpt lat="44.52308" lon="4.27442">
        <ele>298</ele>
        <time>2018-06-03T06:26:10.000Z</time>
      </trkpt>
      <trkpt lat="44.52305" lon="4.27444">
        <ele>298</ele>
        <time>2018-06-03T06:26:11.000Z</time>
      </trkpt>
      <trkpt lat="44.52302" lon="4.27446">
        <ele>298</ele>
        <time>2018-06-03T06:26:12.000Z</time>
      </trkpt>
      <trkpt lat="44.523" lon="4.27448">
        <ele>298</ele>
        <time>2018-06-03T06:26:13.000Z</time>
      </trkpt>
      <trkpt lat="44.52298" lon="4.27449">
        <ele>298</ele>
        <time>2018-06-03T06:26:14.000Z</time>
      </trkpt>
      <trkpt lat="44.52296" lon="4.2745">
        <ele>298</ele>
        <time>2018-06-03T06:26:15.000Z</time>
      </trkpt>
      <trkpt lat="44.52294" lon="4.27451">
        <ele>298</ele>
        <time>2018-06-03T06:26:16.000Z</time>
      </trkpt>
      <trkpt lat="44.52293" lon="4.27453">
        <ele>298</ele>
        <time>2018-06-03T06:26:17.000Z</time>
      </trkpt>
      <trkpt lat="44.52291" lon="4.27456">
        <ele>298</ele>
        <time>2018-06-03T06:26:18.000Z</time>
      </trkpt>
      <trkpt lat="44.52289" lon="4.27458">
        <ele>298</ele>
        <time>2018-06-03T06:26:19.000Z</time>
      </trkpt>
      <trkpt lat="44.52287" lon="4.2746">
        <ele>298</ele>
        <time>2018-06-03T06:26:20.000Z</time>
      </trkpt>
      <trkpt lat="44.52285" lon="4.27461">
        <ele>298</ele>
        <time>2018-06-03T06:26:21.000Z</time>
      </trkpt>
      <trkpt lat="44.52283" lon="4.27461">
        <ele>298</ele>
        <time>2018-06-03T06:26:22.000Z</time>
      </trkpt>
      <trkpt lat="44.52281" lon="4.27462">
        <ele>298</ele>
        <time>2018-06-03T06:26:23.000Z</time>
      </trkpt>
      <trkpt lat="44.52279" lon="4.27463">
        <ele>298</ele>
        <time>2018-06-03T06:26:24.000Z</time>
      </trkpt>
      <trkpt lat="44.52277" lon="4.27463">
        <ele>298</ele>
        <time>2018-06-03T06:26:25.000Z</time>
      </trkpt>
      <trkpt lat="44.52275" lon="4.27463">
        <ele>298</ele>
        <time>2018-06-03T06:26:26.000Z</time>
      </trkpt>
      <trkpt lat="44.52273" lon="4.27463">
        <ele>298</ele>
        <time>2018-06-03T06:26:27.000Z</time>
      </trkpt>
      <trkpt lat="44.52271" lon="4.27463">
        <ele>298</ele>
        <time>2018-06-03T06:26:28.000Z</time>
      </trkpt>
      <trkpt lat="44.5227" lon="4.27462">
        <ele>298</ele>
        <time>2018-06-03T06:26:29.000Z</time>
      </trkpt>
      <trkpt lat="44.52269" lon="4.27461">
        <ele>298</ele>
        <time>2018-06-03T06:26:30.000Z</time>
      </trkpt>
      <trkpt lat="44.52269" lon="4.2746">
        <ele>298</ele>
        <time>2018-06-03T06:26:31.000Z</time>
      </trkpt>
      <trkpt lat="44.52269" lon="4.27459">
        <ele>299</ele>
        <time>2018-06-03T06:26:32.000Z</time>
      </trkpt>
      <trkpt lat="44.52268" lon="4.27458">
        <ele>299</ele>
        <time>2018-06-03T06:26:33.000Z</time>
      </trkpt>
      <trkpt lat="44.52267" lon="4.27456">
        <ele>299</ele>
        <time>2018-06-03T06:26:34.000Z</time>
      </trkpt>
      <trkpt lat="44.52266" lon="4.27454">
        <ele>299</ele>
        <time>2018-06-03T06:26:35.000Z</time>
      </trkpt>
      <trkpt lat="44.52265" lon="4.27452">
        <ele>299</ele>
        <time>2018-06-03T06:26:36.000Z</time>
      </trkpt>
      <trkpt lat="44.52264" lon="4.27451">
        <ele>299</ele>
        <time>2018-06-03T06:26:37.000Z</time>
      </trkpt>
      <trkpt lat="44.52263" lon="4.27449">
        <ele>299</ele>
        <time>2018-06-03T06:26:38.000Z</time>
      </trkpt>
      <trkpt lat="44.52261" lon="4.27447">
        <ele>299</ele>
        <time>2018-06-03T06:26:39.000Z</time>
      </trkpt>
      <trkpt lat="44.52259" lon="4.27446">
        <ele>299</ele>
        <time>2018-06-03T06:26:40.000Z</time>
      </trkpt>
      <trkpt lat="44.52258" lon="4.27446">
        <ele>299</ele>
        <time>2018-06-03T06:26:41.000Z</time>
      </trkpt>
      <trkpt lat="44.52257" lon="4.27445">
        <ele>300</ele>
        <time>2018-06-03T06:26:42.000Z</time>
      </trkpt>
      <trkpt lat="44.52255" lon="4.27444">
        <ele>300</ele>
        <time>2018-06-03T06:26:43.000Z</time>
      </trkpt>
      <trkpt lat="44.52253" lon="4.27442">
        <ele>300</ele>
        <time>2018-06-03T06:26:44.000Z</time>
      </trkpt>
      <trkpt lat="44.52251" lon="4.27439">
        <ele>300</ele>
        <time>2018-06-03T06:26:45.000Z</time>
      </trkpt>
      <trkpt lat="44.52249" lon="4.27436">
        <ele>301</ele>
        <time>2018-06-03T06:26:46.000Z</time>
      </trkpt>
      <trkpt lat="44.52247" lon="4.27433">
        <ele>301</ele>
        <time>2018-06-03T06:26:47.000Z</time>
      </trkpt>
      <trkpt lat="44.52246" lon="4.27431">
        <ele>301</ele>
        <time>2018-06-03T06:26:48.000Z</time>
      </trkpt>
      <trkpt lat="44.52244" lon="4.27429">
        <ele>301</ele>
        <time>2018-06-03T06:26:49.000Z</time>
      </trkpt>
      <trkpt lat="44.52242" lon="4.27427">
        <ele>301</ele>
        <time>2018-06-03T06:26:50.000Z</time>
      </trkpt>
      <trkpt lat="44.5224" lon="4.27425">
        <ele>301</ele>
        <time>2018-06-03T06:26:51.000Z</time>
      </trkpt>
      <trkpt lat="44.52238" lon="4.27422">
        <ele>301</ele>
        <time>2018-06-03T06:26:52.000Z</time>
      </trkpt>
      <trkpt lat="44.52235" lon="4.27418">
        <ele>301</ele>
        <time>2018-06-03T06:26:53.000Z</time>
      </trkpt>
      <trkpt lat="44.52233" lon="4.27417">
        <ele>303</ele>
        <time>2018-06-03T06:26:54.000Z</time>
      </trkpt>
      <trkpt lat="44.5223" lon="4.27416">
        <ele>303</ele>
        <time>2018-06-03T06:26:55.000Z</time>
      </trkpt>
      <trkpt lat="44.52227" lon="4.27415">
        <ele>303</ele>
        <time>2018-06-03T06:26:56.000Z</time>
      </trkpt>
      <trkpt lat="44.52225" lon="4.27415">
        <ele>303</ele>
        <time>2018-06-03T06:26:57.000Z</time>
      </trkpt>
      <trkpt lat="44.52222" lon="4.27416">
        <ele>303</ele>
        <time>2018-06-03T06:26:58.000Z</time>
      </trkpt>
      <trkpt lat="44.5222" lon="4.27417">
        <ele>301</ele>
        <time>2018-06-03T06:26:59.000Z</time>
      </trkpt>
      <trkpt lat="44.52217" lon="4.27417">
        <ele>301</ele>
        <time>2018-06-03T06:27:00.000Z</time>
      </trkpt>
      <trkpt lat="44.52215" lon="4.27415">
        <ele>303</ele>
        <time>2018-06-03T06:27:01.000Z</time>
      </trkpt>
      <trkpt lat="44.52213" lon="4.27411">
        <ele>303</ele>
        <time>2018-06-03T06:27:02.000Z</time>
      </trkpt>
      <trkpt lat="44.5221" lon="4.27408">
        <ele>303</ele>
        <time>2018-06-03T06:27:03.000Z</time>
      </trkpt>
      <trkpt lat="44.52207" lon="4.27404">
        <ele>303</ele>
        <time>2018-06-03T06:27:04.000Z</time>
      </trkpt>
      <trkpt lat="44.52204" lon="4.27401">
        <ele>303</ele>
        <time>2018-06-03T06:27:05.000Z</time>
      </trkpt>
      <trkpt lat="44.52202" lon="4.27398">
        <ele>303</ele>
        <time>2018-06-03T06:27:06.000Z</time>
      </trkpt>
      <trkpt lat="44.522" lon="4.27396">
        <ele>303</ele>
        <time>2018-06-03T06:27:07.000Z</time>
      </trkpt>
      <trkpt lat="44.52198" lon="4.27394">
        <ele>303</ele>
        <time>2018-06-03T06:27:08.000Z</time>
      </trkpt>
      <trkpt lat="44.52196" lon="4.27392">
        <ele>303</ele>
        <time>2018-06-03T06:27:09.000Z</time>
      </trkpt>
      <trkpt lat="44.52193" lon="4.2739">
        <ele>303</ele>
        <time>2018-06-03T06:27:10.000Z</time>
      </trkpt>
      <trkpt lat="44.5219" lon="4.27388">
        <ele>303</ele>
        <time>2018-06-03T06:27:11.000Z</time>
      </trkpt>
      <trkpt lat="44.52187" lon="4.27385">
        <ele>302</ele>
        <time>2018-06-03T06:27:12.000Z</time>
      </trkpt>
      <trkpt lat="44.52183" lon="4.27382">
        <ele>302</ele>
        <time>2018-06-03T06:27:13.000Z</time>
      </trkpt>
      <trkpt lat="44.52179" lon="4.27379">
        <ele>302</ele>
        <time>2018-06-03T06:27:14.000Z</time>
      </trkpt>
      <trkpt lat="44.52175" lon="4.27375">
        <ele>302</ele>
        <time>2018-06-03T06:27:15.000Z</time>
      </trkpt>
      <trkpt lat="44.52172" lon="4.27372">
        <ele>302</ele>
        <time>2018-06-03T06:27:16.000Z</time>
      </trkpt>
      <trkpt lat="44.5217" lon="4.2737">
        <ele>302</ele>
        <time>2018-06-03T06:27:17.000Z</time>
      </trkpt>
      <trkpt lat="44.52167" lon="4.27368">
        <ele>302</ele>
        <time>2018-06-03T06:27:18.000Z</time>
      </trkpt>
      <trkpt lat="44.52164" lon="4.27365">
        <ele>303</ele>
        <time>2018-06-03T06:27:19.000Z</time>
      </trkpt>
      <trkpt lat="44.52162" lon="4.27362">
        <ele>302</ele>
        <time>2018-06-03T06:27:20.000Z</time>
      </trkpt>
      <trkpt lat="44.52158" lon="4.27359">
        <ele>302</ele>
        <time>2018-06-03T06:27:21.000Z</time>
      </trkpt>
      <trkpt lat="44.52156" lon="4.27357">
        <ele>302</ele>
        <time>2018-06-03T06:27:22.000Z</time>
      </trkpt>
      <trkpt lat="44.52153" lon="4.27355">
        <ele>302</ele>
        <time>2018-06-03T06:27:23.000Z</time>
      </trkpt>
      <trkpt lat="44.52151" lon="4.27353">
        <ele>302</ele>
        <time>2018-06-03T06:27:24.000Z</time>
      </trkpt>
      <trkpt lat="44.52149" lon="4.27351">
        <ele>302</ele>
        <time>2018-06-03T06:27:25.000Z</time>
      </trkpt>
      <trkpt lat="44.52146" lon="4.27348">
        <ele>302</ele>
        <time>2018-06-03T06:27:26.000Z</time>
      </trkpt>
      <trkpt lat="44.52142" lon="4.27345">
        <ele>302</ele>
        <time>2018-06-03T06:27:27.000Z</time>
      </trkpt>
      <trkpt lat="44.52138" lon="4.27343">
        <ele>302</ele>
        <time>2018-06-03T06:27:28.000Z</time>
      </trkpt>
      <trkpt lat="44.52134" lon="4.27339">
        <ele>302</ele>
        <time>2018-06-03T06:27:29.000Z</time>
      </trkpt>
      <trkpt lat="44.5213" lon="4.27336">
        <ele>303</ele>
        <time>2018-06-03T06:27:30.000Z</time>
      </trkpt>
      <trkpt lat="44.52127" lon="4.27334">
        <ele>303</ele>
        <time>2018-06-03T06:27:31.000Z</time>
      </trkpt>
      <trkpt lat="44.52123" lon="4.27332">
        <ele>302</ele>
        <time>2018-06-03T06:27:32.000Z</time>
      </trkpt>
      <trkpt lat="44.52119" lon="4.27329">
        <ele>302</ele>
        <time>2018-06-03T06:27:33.000Z</time>
      </trkpt>
      <trkpt lat="44.52116" lon="4.27326">
        <ele>302</ele>
        <time>2018-06-03T06:27:34.000Z</time>
      </trkpt>
      <trkpt lat="44.52113" lon="4.27323">
        <ele>302</ele>
        <time>2018-06-03T06:27:35.000Z</time>
      </trkpt>
      <trkpt lat="44.52111" lon="4.27318">
        <ele>302</ele>
        <time>2018-06-03T06:27:36.000Z</time>
      </trkpt>
      <trkpt lat="44.52111" lon="4.27314">
        <ele>302</ele>
        <time>2018-06-03T06:27:37.000Z</time>
      </trkpt>
      <trkpt lat="44.52112" lon="4.27311">
        <ele>302</ele>
        <time>2018-06-03T06:27:38.000Z</time>
      </trkpt>
      <trkpt lat="44.52113" lon="4.27306">
        <ele>302</ele>
        <time>2018-06-03T06:27:39.000Z</time>
      </trkpt>
      <trkpt lat="44.52115" lon="4.27301">
        <ele>302</ele>
        <time>2018-06-03T06:27:40.000Z</time>
      </trkpt>
      <trkpt lat="44.52117" lon="4.27297">
        <ele>302</ele>
        <time>2018-06-03T06:27:41.000Z</time>
      </trkpt>
      <trkpt lat="44.52119" lon="4.27293">
        <ele>302</ele>
        <time>2018-06-03T06:27:42.000Z</time>
      </trkpt>
      <trkpt lat="44.52122" lon="4.27289">
        <ele>302</ele>
        <time>2018-06-03T06:27:43.000Z</time>
      </trkpt>
      <trkpt lat="44.52124" lon="4.27285">
        <ele>302</ele>
        <time>2018-06-03T06:27:44.000Z</time>
      </trkpt>
      <trkpt lat="44.52126" lon="4.27281">
        <ele>302</ele>
        <time>2018-06-03T06:27:45.000Z</time>
      </trkpt>
      <trkpt lat="44.52128" lon="4.27278">
        <ele>302</ele>
        <time>2018-06-03T06:27:46.000Z</time>
      </trkpt>
      <trkpt lat="44.5213" lon="4.27276">
        <ele>302</ele>
        <time>2018-06-03T06:27:47.000Z</time>
      </trkpt>
      <trkpt lat="44.52132" lon="4.27273">
        <ele>302</ele>
        <time>2018-06-03T06:27:48.000Z</time>
      </trkpt>
      <trkpt lat="44.52134" lon="4.27269">
        <ele>303</ele>
        <time>2018-06-03T06:27:49.000Z</time>
      </trkpt>
      <trkpt lat="44.52137" lon="4.27266">
        <ele>303</ele>
        <time>2018-06-03T06:27:50.000Z</time>
      </trkpt>
      <trkpt lat="44.52139" lon="4.27263">
        <ele>303</ele>
        <time>2018-06-03T06:27:51.000Z</time>
      </trkpt>
      <trkpt lat="44.52141" lon="4.27261">
        <ele>303</ele>
        <time>2018-06-03T06:27:52.000Z</time>
      </trkpt>
      <trkpt lat="44.52144" lon="4.27258">
        <ele>303</ele>
        <time>2018-06-03T06:27:53.000Z</time>
      </trkpt>
      <trkpt lat="44.52146" lon="4.27255">
        <ele>303</ele>
        <time>2018-06-03T06:27:54.000Z</time>
      </trkpt>
      <trkpt lat="44.5215" lon="4.27254">
        <ele>303</ele>
        <time>2018-06-03T06:27:55.000Z</time>
      </trkpt>
      <trkpt lat="44.52152" lon="4.27253">
        <ele>303</ele>
        <time>2018-06-03T06:27:56.000Z</time>
      </trkpt>
      <trkpt lat="44.52155" lon="4.27252">
        <ele>303</ele>
        <time>2018-06-03T06:27:57.000Z</time>
      </trkpt>
      <trkpt lat="44.52158" lon="4.27251">
        <ele>303</ele>
        <time>2018-06-03T06:27:58.000Z</time>
      </trkpt>
      <trkpt lat="44.52162" lon="4.2725">
        <ele>304</ele>
        <time>2018-06-03T06:27:59.000Z</time>
      </trkpt>
      <trkpt lat="44.52166" lon="4.27249">
        <ele>304</ele>
        <time>2018-06-03T06:28:00.000Z</time>
      </trkpt>
      <trkpt lat="44.5217" lon="4.27248">
        <ele>305</ele>
        <time>2018-06-03T06:28:01.000Z</time>
      </trkpt>
      <trkpt lat="44.52174" lon="4.27247">
        <ele>305</ele>
        <time>2018-06-03T06:28:02.000Z</time>
      </trkpt>
      <trkpt lat="44.52178" lon="4.27245">
        <ele>306</ele>
        <time>2018-06-03T06:28:03.000Z</time>
      </trkpt>
      <trkpt lat="44.52182" lon="4.27242">
        <ele>306</ele>
        <time>2018-06-03T06:28:04.000Z</time>
      </trkpt>
      <trkpt lat="44.52186" lon="4.27239">
        <ele>307</ele>
        <time>2018-06-03T06:28:05.000Z</time>
      </trkpt>
      <trkpt lat="44.5219" lon="4.27237">
        <ele>307</ele>
        <time>2018-06-03T06:28:06.000Z</time>
      </trkpt>
      <trkpt lat="44.52194" lon="4.27234">
        <ele>307</ele>
        <time>2018-06-03T06:28:07.000Z</time>
      </trkpt>
      <trkpt lat="44.52197" lon="4.27231">
        <ele>307</ele>
        <time>2018-06-03T06:28:08.000Z</time>
      </trkpt>
      <trkpt lat="44.522" lon="4.27228">
        <ele>308</ele>
        <time>2018-06-03T06:28:09.000Z</time>
      </trkpt>
      <trkpt lat="44.52203" lon="4.27225">
        <ele>308</ele>
        <time>2018-06-03T06:28:10.000Z</time>
      </trkpt>
      <trkpt lat="44.52206" lon="4.27222">
        <ele>308</ele>
        <time>2018-06-03T06:28:11.000Z</time>
      </trkpt>
      <trkpt lat="44.52209" lon="4.27219">
        <ele>308</ele>
        <time>2018-06-03T06:28:12.000Z</time>
      </trkpt>
      <trkpt lat="44.52212" lon="4.27217">
        <ele>308</ele>
        <time>2018-06-03T06:28:13.000Z</time>
      </trkpt>
      <trkpt lat="44.52215" lon="4.27214">
        <ele>309</ele>
        <time>2018-06-03T06:28:14.000Z</time>
      </trkpt>
      <trkpt lat="44.52217" lon="4.27211">
        <ele>309</ele>
        <time>2018-06-03T06:28:15.000Z</time>
      </trkpt>
      <trkpt lat="44.52219" lon="4.27209">
        <ele>309</ele>
        <time>2018-06-03T06:28:16.000Z</time>
      </trkpt>
      <trkpt lat="44.52221" lon="4.27206">
        <ele>309</ele>
        <time>2018-06-03T06:28:17.000Z</time>
      </trkpt>
      <trkpt lat="44.52223" lon="4.27203">
        <ele>309</ele>
        <time>2018-06-03T06:28:18.000Z</time>
      </trkpt>
      <trkpt lat="44.52225" lon="4.272">
        <ele>310</ele>
        <time>2018-06-03T06:28:19.000Z</time>
      </trkpt>
      <trkpt lat="44.52227" lon="4.27198">
        <ele>310</ele>
        <time>2018-06-03T06:28:20.000Z</time>
      </trkpt>
      <trkpt lat="44.52229" lon="4.27195">
        <ele>310</ele>
        <time>2018-06-03T06:28:21.000Z</time>
      </trkpt>
      <trkpt lat="44.5223" lon="4.27193">
        <ele>310</ele>
        <time>2018-06-03T06:28:22.000Z</time>
      </trkpt>
      <trkpt lat="44.52231" lon="4.2719">
        <ele>311</ele>
        <time>2018-06-03T06:28:23.000Z</time>
      </trkpt>
      <trkpt lat="44.52233" lon="4.27188">
        <ele>311</ele>
        <time>2018-06-03T06:28:24.000Z</time>
      </trkpt>
      <trkpt lat="44.52234" lon="4.27185">
        <ele>311</ele>
        <time>2018-06-03T06:28:25.000Z</time>
      </trkpt>
      <trkpt lat="44.52235" lon="4.27183">
        <ele>312</ele>
        <time>2018-06-03T06:28:26.000Z</time>
      </trkpt>
      <trkpt lat="44.52235" lon="4.2718">
        <ele>312</ele>
        <time>2018-06-03T06:28:27.000Z</time>
      </trkpt>
      <trkpt lat="44.52236" lon="4.27177">
        <ele>312</ele>
        <time>2018-06-03T06:28:28.000Z</time>
      </trkpt>
      <trkpt lat="44.52237" lon="4.27175">
        <ele>313</ele>
        <time>2018-06-03T06:28:29.000Z</time>
      </trkpt>
      <trkpt lat="44.52238" lon="4.27172">
        <ele>313</ele>
        <time>2018-06-03T06:28:30.000Z</time>
      </trkpt>
      <trkpt lat="44.52239" lon="4.2717">
        <ele>313</ele>
        <time>2018-06-03T06:28:31.000Z</time>
      </trkpt>
      <trkpt lat="44.52241" lon="4.27168">
        <ele>314</ele>
        <time>2018-06-03T06:28:32.000Z</time>
      </trkpt>
      <trkpt lat="44.52242" lon="4.27167">
        <ele>316</ele>
        <time>2018-06-03T06:28:33.000Z</time>
      </trkpt>
      <trkpt lat="44.52243" lon="4.27165">
        <ele>316</ele>
        <time>2018-06-03T06:28:34.000Z</time>
      </trkpt>
      <trkpt lat="44.52244" lon="4.27163">
        <ele>316</ele>
        <time>2018-06-03T06:28:35.000Z</time>
      </trkpt>
      <trkpt lat="44.52246" lon="4.27161">
        <ele>316</ele>
        <time>2018-06-03T06:28:36.000Z</time>
      </trkpt>
      <trkpt lat="44.52247" lon="4.2716">
        <ele>316</ele>
        <time>2018-06-03T06:28:37.000Z</time>
      </trkpt>
      <trkpt lat="44.52248" lon="4.27159">
        <ele>316</ele>
        <time>2018-06-03T06:28:38.000Z</time>
      </trkpt>
      <trkpt lat="44.5225" lon="4.27158">
        <ele>316</ele>
        <time>2018-06-03T06:28:39.000Z</time>
      </trkpt>
      <trkpt lat="44.52252" lon="4.27157">
        <ele>319</ele>
        <time>2018-06-03T06:28:40.000Z</time>
      </trkpt>
      <trkpt lat="44.52253" lon="4.27156">
        <ele>319</ele>
        <time>2018-06-03T06:28:41.000Z</time>
      </trkpt>
      <trkpt lat="44.52255" lon="4.27155">
        <ele>320</ele>
        <time>2018-06-03T06:28:42.000Z</time>
      </trkpt>
      <trkpt lat="44.52256" lon="4.27153">
        <ele>320</ele>
        <time>2018-06-03T06:28:43.000Z</time>
      </trkpt>
      <trkpt lat="44.52258" lon="4.27151">
        <ele>320</ele>
        <time>2018-06-03T06:28:44.000Z</time>
      </trkpt>
      <trkpt lat="44.52259" lon="4.2715">
        <ele>321</ele>
        <time>2018-06-03T06:28:45.000Z</time>
      </trkpt>
      <trkpt lat="44.5226" lon="4.27148">
        <ele>321</ele>
        <time>2018-06-03T06:28:46.000Z</time>
      </trkpt>
      <trkpt lat="44.52262" lon="4.27146">
        <ele>321</ele>
        <time>2018-06-03T06:28:47.000Z</time>
      </trkpt>
      <trkpt lat="44.52263" lon="4.27145">
        <ele>322</ele>
        <time>2018-06-03T06:28:48.000Z</time>
      </trkpt>
      <trkpt lat="44.52265" lon="4.27144">
        <ele>322</ele>
        <time>2018-06-03T06:28:49.000Z</time>
      </trkpt>
      <trkpt lat="44.52266" lon="4.27143">
        <ele>322</ele>
        <time>2018-06-03T06:28:50.000Z</time>
      </trkpt>
      <trkpt lat="44.52268" lon="4.27141">
        <ele>323</ele>
        <time>2018-06-03T06:28:51.000Z</time>
      </trkpt>
      <trkpt lat="44.5227" lon="4.27139">
        <ele>323</ele>
        <time>2018-06-03T06:28:52.000Z</time>
      </trkpt>
      <trkpt lat="44.52271" lon="4.27137">
        <ele>323</ele>
        <time>2018-06-03T06:28:53.000Z</time>
      </trkpt>
      <trkpt lat="44.52272" lon="4.27135">
        <ele>323</ele>
        <time>2018-06-03T06:28:54.000Z</time>
      </trkpt>
      <trkpt lat="44.52273" lon="4.27132">
        <ele>324</ele>
        <time>2018-06-03T06:28:55.000Z</time>
      </trkpt>
      <trkpt lat="44.52275" lon="4.2713">
        <ele>324</ele>
        <time>2018-06-03T06:28:56.000Z</time>
      </trkpt>
      <trkpt lat="44.52276" lon="4.27127">
        <ele>324</ele>
        <time>2018-06-03T06:28:57.000Z</time>
      </trkpt>
      <trkpt lat="44.52277" lon="4.27125">
        <ele>324</ele>
        <time>2018-06-03T06:28:58.000Z</time>
      </trkpt>
      <trkpt lat="44.52279" lon="4.27123">
        <ele>324</ele>
        <time>2018-06-03T06:28:59.000Z</time>
      </trkpt>
      <trkpt lat="44.5228" lon="4.2712">
        <ele>325</ele>
        <time>2018-06-03T06:29:00.000Z</time>
      </trkpt>
      <trkpt lat="44.52281" lon="4.27118">
        <ele>325</ele>
        <time>2018-06-03T06:29:01.000Z</time>
      </trkpt>
      <trkpt lat="44.52282" lon="4.27115">
        <ele>325</ele>
        <time>2018-06-03T06:29:02.000Z</time>
      </trkpt>
      <trkpt lat="44.52282" lon="4.27112">
        <ele>325</ele>
        <time>2018-06-03T06:29:03.000Z</time>
      </trkpt>
      <trkpt lat="44.52283" lon="4.27109">
        <ele>325</ele>
        <time>2018-06-03T06:29:04.000Z</time>
      </trkpt>
      <trkpt lat="44.52284" lon="4.27106">
        <ele>325</ele>
        <time>2018-06-03T06:29:05.000Z</time>
      </trkpt>
      <trkpt lat="44.52284" lon="4.27103">
        <ele>326</ele>
        <time>2018-06-03T06:29:06.000Z</time>
      </trkpt>
      <trkpt lat="44.52285" lon="4.271">
        <ele>326</ele>
        <time>2018-06-03T06:29:07.000Z</time>
      </trkpt>
      <trkpt lat="44.52286" lon="4.27097">
        <ele>326</ele>
        <time>2018-06-03T06:29:08.000Z</time>
      </trkpt>
      <trkpt lat="44.52286" lon="4.27094">
        <ele>326</ele>
        <time>2018-06-03T06:29:09.000Z</time>
      </trkpt>
      <trkpt lat="44.52287" lon="4.27091">
        <ele>326</ele>
        <time>2018-06-03T06:29:10.000Z</time>
      </trkpt>
      <trkpt lat="44.52286" lon="4.27087">
        <ele>326</ele>
        <time>2018-06-03T06:29:11.000Z</time>
      </trkpt>
      <trkpt lat="44.52286" lon="4.27083">
        <ele>330</ele>
        <time>2018-06-03T06:29:12.000Z</time>
      </trkpt>
      <trkpt lat="44.52286" lon="4.27078">
        <ele>330</ele>
        <time>2018-06-03T06:29:13.000Z</time>
      </trkpt>
      <trkpt lat="44.52287" lon="4.27074">
        <ele>330</ele>
        <time>2018-06-03T06:29:14.000Z</time>
      </trkpt>
      <trkpt lat="44.52288" lon="4.27069">
        <ele>330</ele>
        <time>2018-06-03T06:29:15.000Z</time>
      </trkpt>
      <trkpt lat="44.52289" lon="4.27064">
        <ele>330</ele>
        <time>2018-06-03T06:29:16.000Z</time>
      </trkpt>
      <trkpt lat="44.5229" lon="4.27059">
        <ele>330</ele>
        <time>2018-06-03T06:29:17.000Z</time>
      </trkpt>
      <trkpt lat="44.52292" lon="4.27055">
        <ele>330</ele>
        <time>2018-06-03T06:29:18.000Z</time>
      </trkpt>
      <trkpt lat="44.52294" lon="4.2705">
        <ele>331</ele>
        <time>2018-06-03T06:29:19.000Z</time>
      </trkpt>
      <trkpt lat="44.52297" lon="4.27047">
        <ele>331</ele>
        <time>2018-06-03T06:29:20.000Z</time>
      </trkpt>
      <trkpt lat="44.523" lon="4.27044">
        <ele>331</ele>
        <time>2018-06-03T06:29:21.000Z</time>
      </trkpt>
      <trkpt lat="44.52302" lon="4.27041">
        <ele>331</ele>
        <time>2018-06-03T06:29:22.000Z</time>
      </trkpt>
      <trkpt lat="44.52305" lon="4.27039">
        <ele>331</ele>
        <time>2018-06-03T06:29:23.000Z</time>
      </trkpt>
      <trkpt lat="44.52307" lon="4.27037">
        <ele>331</ele>
        <time>2018-06-03T06:29:24.000Z</time>
      </trkpt>
      <trkpt lat="44.5231" lon="4.27035">
        <ele>332</ele>
        <time>2018-06-03T06:29:25.000Z</time>
      </trkpt>
      <trkpt lat="44.52312" lon="4.27033">
        <ele>332</ele>
        <time>2018-06-03T06:29:26.000Z</time>
      </trkpt>
      <trkpt lat="44.52315" lon="4.27031">
        <ele>332</ele>
        <time>2018-06-03T06:29:27.000Z</time>
      </trkpt>
      <trkpt lat="44.52318" lon="4.2703">
        <ele>332</ele>
        <time>2018-06-03T06:29:28.000Z</time>
      </trkpt>
      <trkpt lat="44.5232" lon="4.27028">
        <ele>332</ele>
        <time>2018-06-03T06:29:29.000Z</time>
      </trkpt>
      <trkpt lat="44.52323" lon="4.27027">
        <ele>332</ele>
        <time>2018-06-03T06:29:30.000Z</time>
      </trkpt>
      <trkpt lat="44.52325" lon="4.27024">
        <ele>333</ele>
        <time>2018-06-03T06:29:31.000Z</time>
      </trkpt>
      <trkpt lat="44.52327" lon="4.27022">
        <ele>333</ele>
        <time>2018-06-03T06:29:32.000Z</time>
      </trkpt>
      <trkpt lat="44.5233" lon="4.27021">
        <ele>333</ele>
        <time>2018-06-03T06:29:33.000Z</time>
      </trkpt>
      <trkpt lat="44.52333" lon="4.2702">
        <ele>333</ele>
        <time>2018-06-03T06:29:34.000Z</time>
      </trkpt>
      <trkpt lat="44.52335" lon="4.27018">
        <ele>337</ele>
        <time>2018-06-03T06:29:35.000Z</time>
      </trkpt>
      <trkpt lat="44.52337" lon="4.27017">
        <ele>337</ele>
        <time>2018-06-03T06:29:36.000Z</time>
      </trkpt>
      <trkpt lat="44.5234" lon="4.27015">
        <ele>337</ele>
        <time>2018-06-03T06:29:37.000Z</time>
      </trkpt>
      <trkpt lat="44.52342" lon="4.27013">
        <ele>337</ele>
        <time>2018-06-03T06:29:38.000Z</time>
      </trkpt>
      <trkpt lat="44.52344" lon="4.27012">
        <ele>337</ele>
        <time>2018-06-03T06:29:39.000Z</time>
      </trkpt>
      <trkpt lat="44.52346" lon="4.2701">
        <ele>337</ele>
        <time>2018-06-03T06:29:40.000Z</time>
      </trkpt>
      <trkpt lat="44.52348" lon="4.27009">
        <ele>337</ele>
        <time>2018-06-03T06:29:41.000Z</time>
      </trkpt>
      <trkpt lat="44.52351" lon="4.27007">
        <ele>337</ele>
        <time>2018-06-03T06:29:42.000Z</time>
      </trkpt>
      <trkpt lat="44.52353" lon="4.27006">
        <ele>338</ele>
        <time>2018-06-03T06:29:43.000Z</time>
      </trkpt>
      <trkpt lat="44.52355" lon="4.27004">
        <ele>338</ele>
        <time>2018-06-03T06:29:44.000Z</time>
      </trkpt>
      <trkpt lat="44.52357" lon="4.27003">
        <ele>338</ele>
        <time>2018-06-03T06:29:45.000Z</time>
      </trkpt>
      <trkpt lat="44.52359" lon="4.27001">
        <ele>338</ele>
        <time>2018-06-03T06:29:46.000Z</time>
      </trkpt>
      <trkpt lat="44.52361" lon="4.27">
        <ele>340</ele>
        <time>2018-06-03T06:29:47.000Z</time>
      </trkpt>
      <trkpt lat="44.52364" lon="4.26998">
        <ele>341</ele>
        <time>2018-06-03T06:29:48.000Z</time>
      </trkpt>
      <trkpt lat="44.52366" lon="4.26996">
        <ele>341</ele>
        <time>2018-06-03T06:29:49.000Z</time>
      </trkpt>
      <trkpt lat="44.52367" lon="4.26994">
        <ele>341</ele>
        <time>2018-06-03T06:29:50.000Z</time>
      </trkpt>
      <trkpt lat="44.52369" lon="4.26993">
        <ele>341</ele>
        <time>2018-06-03T06:29:51.000Z</time>
      </trkpt>
      <trkpt lat="44.52371" lon="4.26991">
        <ele>342</ele>
        <time>2018-06-03T06:29:52.000Z</time>
      </trkpt>
      <trkpt lat="44.52373" lon="4.2699">
        <ele>342</ele>
        <time>2018-06-03T06:29:53.000Z</time>
      </trkpt>
      <trkpt lat="44.52375" lon="4.26988">
        <ele>342</ele>
        <time>2018-06-03T06:29:54.000Z</time>
      </trkpt>
      <trkpt lat="44.52377" lon="4.26987">
        <ele>342</ele>
        <time>2018-06-03T06:29:55.000Z</time>
      </trkpt>
      <trkpt lat="44.52379" lon="4.26986">
        <ele>342</ele>
        <time>2018-06-03T06:29:56.000Z</time>
      </trkpt>
      <trkpt lat="44.52381" lon="4.26985">
        <ele>342</ele>
        <time>2018-06-03T06:29:57.000Z</time>
      </trkpt>
      <trkpt lat="44.52383" lon="4.26984">
        <ele>343</ele>
        <time>2018-06-03T06:29:58.000Z</time>
      </trkpt>
      <trkpt lat="44.52385" lon="4.26984">
        <ele>343</ele>
        <time>2018-06-03T06:29:59.000Z</time>
      </trkpt>
      <trkpt lat="44.52387" lon="4.26983">
        <ele>343</ele>
        <time>2018-06-03T06:30:00.000Z</time>
      </trkpt>
      <trkpt lat="44.52389" lon="4.26982">
        <ele>343</ele>
        <time>2018-06-03T06:30:01.000Z</time>
      </trkpt>
      <trkpt lat="44.52391" lon="4.26981">
        <ele>343</ele>
        <time>2018-06-03T06:30:02.000Z</time>
      </trkpt>
      <trkpt lat="44.52393" lon="4.2698">
        <ele>343</ele>
        <time>2018-06-03T06:30:03.000Z</time>
      </trkpt>
      <trkpt lat="44.52394" lon="4.26978">
        <ele>343</ele>
        <time>2018-06-03T06:30:04.000Z</time>
      </trkpt>
      <trkpt lat="44.52396" lon="4.26977">
        <ele>343</ele>
        <time>2018-06-03T06:30:05.000Z</time>
      </trkpt>
      <trkpt lat="44.52397" lon="4.26976">
        <ele>344</ele>
        <time>2018-06-03T06:30:06.000Z</time>
      </trkpt>
      <trkpt lat="44.52399" lon="4.26975">
        <ele>344</ele>
        <time>2018-06-03T06:30:07.000Z</time>
      </trkpt>
      <trkpt lat="44.52401" lon="4.26974">
        <ele>344</ele>
        <time>2018-06-03T06:30:08.000Z</time>
      </trkpt>
      <trkpt lat="44.52403" lon="4.26973">
        <ele>344</ele>
        <time>2018-06-03T06:30:09.000Z</time>
      </trkpt>
      <trkpt lat="44.52404" lon="4.26973">
        <ele>344</ele>
        <time>2018-06-03T06:30:10.000Z</time>
      </trkpt>
      <trkpt lat="44.52406" lon="4.26972">
        <ele>344</ele>
        <time>2018-06-03T06:30:11.000Z</time>
      </trkpt>
      <trkpt lat="44.52408" lon="4.26972">
        <ele>344</ele>
        <time>2018-06-03T06:30:12.000Z</time>
      </trkpt>
      <trkpt lat="44.5241" lon="4.26971">
        <ele>344</ele>
        <time>2018-06-03T06:30:13.000Z</time>
      </trkpt>
      <trkpt lat="44.52411" lon="4.2697">
        <ele>344</ele>
        <time>2018-06-03T06:30:14.000Z</time>
      </trkpt>
      <trkpt lat="44.52412" lon="4.26968">
        <ele>344</ele>
        <time>2018-06-03T06:30:15.000Z</time>
      </trkpt>
      <trkpt lat="44.52414" lon="4.26966">
        <ele>344</ele>
        <time>2018-06-03T06:30:16.000Z</time>
      </trkpt>
      <trkpt lat="44.52414" lon="4.26964">
        <ele>344</ele>
        <time>2018-06-03T06:30:17.000Z</time>
      </trkpt>
      <trkpt lat="44.52415" lon="4.26962">
        <ele>344</ele>
        <time>2018-06-03T06:30:18.000Z</time>
      </trkpt>
      <trkpt lat="44.52417" lon="4.2696">
        <ele>344</ele>
        <time>2018-06-03T06:30:19.000Z</time>
      </trkpt>
      <trkpt lat="44.52418" lon="4.26958">
        <ele>350</ele>
        <time>2018-06-03T06:30:20.000Z</time>
      </trkpt>
      <trkpt lat="44.52419" lon="4.26957">
        <ele>350</ele>
        <time>2018-06-03T06:30:21.000Z</time>
      </trkpt>
      <trkpt lat="44.52421" lon="4.26955">
        <ele>350</ele>
        <time>2018-06-03T06:30:22.000Z</time>
      </trkpt>
      <trkpt lat="44.52422" lon="4.26954">
        <ele>350</ele>
        <time>2018-06-03T06:30:23.000Z</time>
      </trkpt>
      <trkpt lat="44.52423" lon="4.26953">
        <ele>350</ele>
        <time>2018-06-03T06:30:24.000Z</time>
      </trkpt>
      <trkpt lat="44.52425" lon="4.26951">
        <ele>350</ele>
        <time>2018-06-03T06:30:25.000Z</time>
      </trkpt>
      <trkpt lat="44.52426" lon="4.2695">
        <ele>350</ele>
        <time>2018-06-03T06:30:26.000Z</time>
      </trkpt>
      <trkpt lat="44.52427" lon="4.26948">
        <ele>350</ele>
        <time>2018-06-03T06:30:27.000Z</time>
      </trkpt>
      <trkpt lat="44.52428" lon="4.26946">
        <ele>351</ele>
        <time>2018-06-03T06:30:28.000Z</time>
      </trkpt>
      <trkpt lat="44.52429" lon="4.26944">
        <ele>351</ele>
        <time>2018-06-03T06:30:29.000Z</time>
      </trkpt>
      <trkpt lat="44.5243" lon="4.26942">
        <ele>351</ele>
        <time>2018-06-03T06:30:30.000Z</time>
      </trkpt>
      <trkpt lat="44.52431" lon="4.2694">
        <ele>351</ele>
        <time>2018-06-03T06:30:31.000Z</time>
      </trkpt>
      <trkpt lat="44.52432" lon="4.26939">
        <ele>351</ele>
        <time>2018-06-03T06:30:32.000Z</time>
      </trkpt>
      <trkpt lat="44.52434" lon="4.26937">
        <ele>351</ele>
        <time>2018-06-03T06:30:33.000Z</time>
      </trkpt>
      <trkpt lat="44.52435" lon="4.26936">
        <ele>351</ele>
        <time>2018-06-03T06:30:34.000Z</time>
      </trkpt>
      <trkpt lat="44.52437" lon="4.26934">
        <ele>351</ele>
        <time>2018-06-03T06:30:35.000Z</time>
      </trkpt>
      <trkpt lat="44.52438" lon="4.26933">
        <ele>351</ele>
        <time>2018-06-03T06:30:36.000Z</time>
      </trkpt>
      <trkpt lat="44.5244" lon="4.26932">
        <ele>351</ele>
        <time>2018-06-03T06:30:37.000Z</time>
      </trkpt>
      <trkpt lat="44.52441" lon="4.26931">
        <ele>351</ele>
        <time>2018-06-03T06:30:38.000Z</time>
      </trkpt>
      <trkpt lat="44.52443" lon="4.2693">
        <ele>351</ele>
        <time>2018-06-03T06:30:39.000Z</time>
      </trkpt>
      <trkpt lat="44.52445" lon="4.26929">
        <ele>351</ele>
        <time>2018-06-03T06:30:40.000Z</time>
      </trkpt>
      <trkpt lat="44.52447" lon="4.26929">
        <ele>351</ele>
        <time>2018-06-03T06:30:41.000Z</time>
      </trkpt>
      <trkpt lat="44.52449" lon="4.26928">
        <ele>351</ele>
        <time>2018-06-03T06:30:42.000Z</time>
      </trkpt>
      <trkpt lat="44.52452" lon="4.26928">
        <ele>352</ele>
        <time>2018-06-03T06:30:43.000Z</time>
      </trkpt>
      <trkpt lat="44.52453" lon="4.26928">
        <ele>352</ele>
        <time>2018-06-03T06:30:44.000Z</time>
      </trkpt>
      <trkpt lat="44.52455" lon="4.26927">
        <ele>352</ele>
        <time>2018-06-03T06:30:45.000Z</time>
      </trkpt>
      <trkpt lat="44.52457" lon="4.26927">
        <ele>352</ele>
        <time>2018-06-03T06:30:46.000Z</time>
      </trkpt>
      <trkpt lat="44.52459" lon="4.26926">
        <ele>352</ele>
        <time>2018-06-03T06:30:47.000Z</time>
      </trkpt>
      <trkpt lat="44.52461" lon="4.26926">
        <ele>352</ele>
        <time>2018-06-03T06:30:48.000Z</time>
      </trkpt>
      <trkpt lat="44.52463" lon="4.26925">
        <ele>352</ele>
        <time>2018-06-03T06:30:49.000Z</time>
      </trkpt>
      <trkpt lat="44.52465" lon="4.26924">
        <ele>352</ele>
        <time>2018-06-03T06:30:50.000Z</time>
      </trkpt>
      <trkpt lat="44.52467" lon="4.26925">
        <ele>353</ele>
        <time>2018-06-03T06:30:51.000Z</time>
      </trkpt>
      <trkpt lat="44.52469" lon="4.26925">
        <ele>353</ele>
        <time>2018-06-03T06:30:52.000Z</time>
      </trkpt>
      <trkpt lat="44.52471" lon="4.26925">
        <ele>353</ele>
        <time>2018-06-03T06:30:53.000Z</time>
      </trkpt>
      <trkpt lat="44.52473" lon="4.26925">
        <ele>353</ele>
        <time>2018-06-03T06:30:54.000Z</time>
      </trkpt>
      <trkpt lat="44.52475" lon="4.26926">
        <ele>353</ele>
        <time>2018-06-03T06:30:55.000Z</time>
      </trkpt>
      <trkpt lat="44.52477" lon="4.26926">
        <ele>353</ele>
        <time>2018-06-03T06:30:56.000Z</time>
      </trkpt>
      <trkpt lat="44.52479" lon="4.26927">
        <ele>353</ele>
        <time>2018-06-03T06:30:57.000Z</time>
      </trkpt>
      <trkpt lat="44.52481" lon="4.26928">
        <ele>354</ele>
        <time>2018-06-03T06:30:58.000Z</time>
      </trkpt>
      <trkpt lat="44.52483" lon="4.26929">
        <ele>354</ele>
        <time>2018-06-03T06:30:59.000Z</time>
      </trkpt>
      <trkpt lat="44.52485" lon="4.26929">
        <ele>354</ele>
        <time>2018-06-03T06:31:00.000Z</time>
      </trkpt>
      <trkpt lat="44.52488" lon="4.26929">
        <ele>354</ele>
        <time>2018-06-03T06:31:01.000Z</time>
      </trkpt>
      <trkpt lat="44.5249" lon="4.26929">
        <ele>354</ele>
        <time>2018-06-03T06:31:02.000Z</time>
      </trkpt>
      <trkpt lat="44.52492" lon="4.26928">
        <ele>354</ele>
        <time>2018-06-03T06:31:03.000Z</time>
      </trkpt>
      <trkpt lat="44.52493" lon="4.26928">
        <ele>355</ele>
        <time>2018-06-03T06:31:04.000Z</time>
      </trkpt>
      <trkpt lat="44.52495" lon="4.26927">
        <ele>355</ele>
        <time>2018-06-03T06:31:05.000Z</time>
      </trkpt>
      <trkpt lat="44.52497" lon="4.26927">
        <ele>355</ele>
        <time>2018-06-03T06:31:06.000Z</time>
      </trkpt>
      <trkpt lat="44.52499" lon="4.26926">
        <ele>355</ele>
        <time>2018-06-03T06:31:07.000Z</time>
      </trkpt>
      <trkpt lat="44.525" lon="4.26924">
        <ele>356</ele>
        <time>2018-06-03T06:31:08.000Z</time>
      </trkpt>
      <trkpt lat="44.52502" lon="4.26923">
        <ele>357</ele>
        <time>2018-06-03T06:31:09.000Z</time>
      </trkpt>
      <trkpt lat="44.52504" lon="4.26922">
        <ele>357</ele>
        <time>2018-06-03T06:31:10.000Z</time>
      </trkpt>
      <trkpt lat="44.52505" lon="4.26921">
        <ele>357</ele>
        <time>2018-06-03T06:31:11.000Z</time>
      </trkpt>
      <trkpt lat="44.52507" lon="4.26919">
        <ele>357</ele>
        <time>2018-06-03T06:31:12.000Z</time>
      </trkpt>
      <trkpt lat="44.52509" lon="4.26918">
        <ele>356</ele>
        <time>2018-06-03T06:31:13.000Z</time>
      </trkpt>
      <trkpt lat="44.52511" lon="4.26917">
        <ele>357</ele>
        <time>2018-06-03T06:31:14.000Z</time>
      </trkpt>
      <trkpt lat="44.52512" lon="4.26914">
        <ele>357</ele>
        <time>2018-06-03T06:31:15.000Z</time>
      </trkpt>
      <trkpt lat="44.52514" lon="4.26911">
        <ele>357</ele>
        <time>2018-06-03T06:31:16.000Z</time>
      </trkpt>
      <trkpt lat="44.52515" lon="4.26909">
        <ele>357</ele>
        <time>2018-06-03T06:31:17.000Z</time>
      </trkpt>
      <trkpt lat="44.52516" lon="4.26906">
        <ele>357</ele>
        <time>2018-06-03T06:31:18.000Z</time>
      </trkpt>
      <trkpt lat="44.52516" lon="4.26904">
        <ele>357</ele>
        <time>2018-06-03T06:31:19.000Z</time>
      </trkpt>
      <trkpt lat="44.52517" lon="4.26902">
        <ele>357</ele>
        <time>2018-06-03T06:31:20.000Z</time>
      </trkpt>
      <trkpt lat="44.52518" lon="4.269">
        <ele>357</ele>
        <time>2018-06-03T06:31:21.000Z</time>
      </trkpt>
      <trkpt lat="44.52519" lon="4.26897">
        <ele>357</ele>
        <time>2018-06-03T06:31:22.000Z</time>
      </trkpt>
      <trkpt lat="44.5252" lon="4.26895">
        <ele>357</ele>
        <time>2018-06-03T06:31:23.000Z</time>
      </trkpt>
      <trkpt lat="44.52522" lon="4.26893">
        <ele>357</ele>
        <time>2018-06-03T06:31:24.000Z</time>
      </trkpt>
      <trkpt lat="44.52523" lon="4.26892">
        <ele>357</ele>
        <time>2018-06-03T06:31:25.000Z</time>
      </trkpt>
      <trkpt lat="44.52523" lon="4.26891">
        <ele>357</ele>
        <time>2018-06-03T06:31:26.000Z</time>
      </trkpt>
      <trkpt lat="44.52523" lon="4.26891">
        <ele>357</ele>
        <time>2018-06-03T06:31:27.000Z</time>
      </trkpt>
      <trkpt lat="44.52523" lon="4.26891">
        <ele>357</ele>
        <time>2018-06-03T06:31:28.000Z</time>
      </trkpt>
      <trkpt lat="44.52523" lon="4.26891">
        <ele>357</ele>
        <time>2018-06-03T06:31:29.000Z</time>
      </trkpt>
      <trkpt lat="44.52523" lon="4.26891">
        <ele>357</ele>
        <time>2018-06-03T06:31:30.000Z</time>
      </trkpt>
      <trkpt lat="44.52523" lon="4.26891">
        <ele>357</ele>
        <time>2018-06-03T06:31:31.000Z</time>
      </trkpt>
      <trkpt lat="44.52523" lon="4.26891">
        <ele>357</ele>
        <time>2018-06-03T06:31:32.000Z</time>
      </trkpt>
      <trkpt lat="44.52523" lon="4.26891">
        <ele>357</ele>
        <time>2018-06-03T06:31:33.000Z</time>
      </trkpt>
      <trkpt lat="44.52523" lon="4.26891">
        <ele>357</ele>
        <time>2018-06-03T06:31:34.000Z</time>
      </trkpt>
      <trkpt lat="44.52523" lon="4.26891">
        <ele>357</ele>
        <time>2018-06-03T06:31:35.000Z</time>
      </trkpt>
      <trkpt lat="44.52523" lon="4.26891">
        <ele>357</ele>
        <time>2018-06-03T06:31:36.000Z</time>
      </trkpt>
      <trkpt lat="44.52523" lon="4.26891">
        <ele>357</ele>
        <time>2018-06-03T06:31:37.000Z</time>
      </trkpt>
      <trkpt lat="44.52523" lon="4.26891">
        <ele>357</ele>
        <time>2018-06-03T06:31:38.000Z</time>
      </trkpt>
      <trkpt lat="44.52523" lon="4.26891">
        <ele>357</ele>
        <time>2018-06-03T06:31:39.000Z</time>
      </trkpt>
      <trkpt lat="44.52523" lon="4.26892">
        <ele>357</ele>
        <time>2018-06-03T06:31:40.000Z</time>
      </trkpt>
      <trkpt lat="44.52524" lon="4.26891">
        <ele>357</ele>
        <time>2018-06-03T06:31:41.000Z</time>
      </trkpt>
      <trkpt lat="44.52525" lon="4.2689">
        <ele>357</ele>
        <time>2018-06-03T06:31:42.000Z</time>
      </trkpt>
      <trkpt lat="44.52526" lon="4.26889">
        <ele>358</ele>
        <time>2018-06-03T06:31:43.000Z</time>
      </trkpt>
      <trkpt lat="44.52528" lon="4.26887">
        <ele>358</ele>
        <time>2018-06-03T06:31:44.000Z</time>
      </trkpt>
      <trkpt lat="44.5253" lon="4.26885">
        <ele>358</ele>
        <time>2018-06-03T06:31:45.000Z</time>
      </trkpt>
      <trkpt lat="44.52532" lon="4.26883">
        <ele>358</ele>
        <time>2018-06-03T06:31:46.000Z</time>
      </trkpt>
      <trkpt lat="44.52534" lon="4.26881">
        <ele>358</ele>
        <time>2018-06-03T06:31:47.000Z</time>
      </trkpt>
      <trkpt lat="44.52536" lon="4.26879">
        <ele>358</ele>
        <time>2018-06-03T06:31:48.000Z</time>
      </trkpt>
      <trkpt lat="44.52539" lon="4.26877">
        <ele>358</ele>
        <time>2018-06-03T06:31:49.000Z</time>
      </trkpt>
      <trkpt lat="44.52541" lon="4.26875">
        <ele>358</ele>
        <time>2018-06-03T06:31:50.000Z</time>
      </trkpt>
      <trkpt lat="44.52543" lon="4.26873">
        <ele>358</ele>
        <time>2018-06-03T06:31:51.000Z</time>
      </trkpt>
      <trkpt lat="44.52545" lon="4.26871">
        <ele>358</ele>
        <time>2018-06-03T06:31:52.000Z</time>
      </trkpt>
      <trkpt lat="44.52547" lon="4.26869">
        <ele>358</ele>
        <time>2018-06-03T06:31:53.000Z</time>
      </trkpt>
      <trkpt lat="44.5255" lon="4.26867">
        <ele>358</ele>
        <time>2018-06-03T06:31:54.000Z</time>
      </trkpt>
      <trkpt lat="44.52552" lon="4.26865">
        <ele>358</ele>
        <time>2018-06-03T06:31:55.000Z</time>
      </trkpt>
      <trkpt lat="44.52554" lon="4.26863">
        <ele>358</ele>
        <time>2018-06-03T06:31:56.000Z</time>
      </trkpt>
      <trkpt lat="44.52555" lon="4.26861">
        <ele>358</ele>
        <time>2018-06-03T06:31:57.000Z</time>
      </trkpt>
      <trkpt lat="44.52557" lon="4.26858">
        <ele>358</ele>
        <time>2018-06-03T06:31:58.000Z</time>
      </trkpt>
      <trkpt lat="44.52559" lon="4.26856">
        <ele>358</ele>
        <time>2018-06-03T06:31:59.000Z</time>
      </trkpt>
      <trkpt lat="44.52561" lon="4.26855">
        <ele>358</ele>
        <time>2018-06-03T06:32:00.000Z</time>
      </trkpt>
      <trkpt lat="44.52564" lon="4.26854">
        <ele>358</ele>
        <time>2018-06-03T06:32:01.000Z</time>
      </trkpt>
      <trkpt lat="44.52567" lon="4.26853">
        <ele>358</ele>
        <time>2018-06-03T06:32:02.000Z</time>
      </trkpt>
      <trkpt lat="44.52569" lon="4.26853">
        <ele>359</ele>
        <time>2018-06-03T06:32:03.000Z</time>
      </trkpt>
      <trkpt lat="44.52572" lon="4.26852">
        <ele>359</ele>
        <time>2018-06-03T06:32:04.000Z</time>
      </trkpt>
      <trkpt lat="44.52575" lon="4.26852">
        <ele>359</ele>
        <time>2018-06-03T06:32:05.000Z</time>
      </trkpt>
      <trkpt lat="44.52577" lon="4.26852">
        <ele>359</ele>
        <time>2018-06-03T06:32:06.000Z</time>
      </trkpt>
      <trkpt lat="44.5258" lon="4.26851">
        <ele>359</ele>
        <time>2018-06-03T06:32:07.000Z</time>
      </trkpt>
      <trkpt lat="44.52582" lon="4.2685">
        <ele>359</ele>
        <time>2018-06-03T06:32:08.000Z</time>
      </trkpt>
      <trkpt lat="44.52585" lon="4.2685">
        <ele>360</ele>
        <time>2018-06-03T06:32:09.000Z</time>
      </trkpt>
      <trkpt lat="44.52588" lon="4.26849">
        <ele>360</ele>
        <time>2018-06-03T06:32:10.000Z</time>
      </trkpt>
      <trkpt lat="44.5259" lon="4.26849">
        <ele>360</ele>
        <time>2018-06-03T06:32:11.000Z</time>
      </trkpt>
      <trkpt lat="44.52593" lon="4.26848">
        <ele>360</ele>
        <time>2018-06-03T06:32:12.000Z</time>
      </trkpt>
      <trkpt lat="44.52595" lon="4.26846">
        <ele>360</ele>
        <time>2018-06-03T06:32:13.000Z</time>
      </trkpt>
      <trkpt lat="44.52598" lon="4.26844">
        <ele>360</ele>
        <time>2018-06-03T06:32:14.000Z</time>
      </trkpt>
      <trkpt lat="44.526" lon="4.26842">
        <ele>360</ele>
        <time>2018-06-03T06:32:15.000Z</time>
      </trkpt>
      <trkpt lat="44.52602" lon="4.26841">
        <ele>360</ele>
        <time>2018-06-03T06:32:16.000Z</time>
      </trkpt>
      <trkpt lat="44.52604" lon="4.2684">
        <ele>360</ele>
        <time>2018-06-03T06:32:17.000Z</time>
      </trkpt>
      <trkpt lat="44.52606" lon="4.26839">
        <ele>360</ele>
        <time>2018-06-03T06:32:18.000Z</time>
      </trkpt>
      <trkpt lat="44.52609" lon="4.26837">
        <ele>360</ele>
        <time>2018-06-03T06:32:19.000Z</time>
      </trkpt>
      <trkpt lat="44.52611" lon="4.26837">
        <ele>360</ele>
        <time>2018-06-03T06:32:20.000Z</time>
      </trkpt>
      <trkpt lat="44.52613" lon="4.26836">
        <ele>360</ele>
        <time>2018-06-03T06:32:21.000Z</time>
      </trkpt>
      <trkpt lat="44.52615" lon="4.26836">
        <ele>361</ele>
        <time>2018-06-03T06:32:22.000Z</time>
      </trkpt>
      <trkpt lat="44.52618" lon="4.26836">
        <ele>361</ele>
        <time>2018-06-03T06:32:23.000Z</time>
      </trkpt>
      <trkpt lat="44.5262" lon="4.26835">
        <ele>361</ele>
        <time>2018-06-03T06:32:24.000Z</time>
      </trkpt>
      <trkpt lat="44.52622" lon="4.26835">
        <ele>361</ele>
        <time>2018-06-03T06:32:25.000Z</time>
      </trkpt>
      <trkpt lat="44.52625" lon="4.26834">
        <ele>361</ele>
        <time>2018-06-03T06:32:26.000Z</time>
      </trkpt>
      <trkpt lat="44.52627" lon="4.26834">
        <ele>361</ele>
        <time>2018-06-03T06:32:27.000Z</time>
      </trkpt>
      <trkpt lat="44.5263" lon="4.26833">
        <ele>361</ele>
        <time>2018-06-03T06:32:28.000Z</time>
      </trkpt>
      <trkpt lat="44.52632" lon="4.26832">
        <ele>361</ele>
        <time>2018-06-03T06:32:29.000Z</time>
      </trkpt>
      <trkpt lat="44.52635" lon="4.26831">
        <ele>362</ele>
        <time>2018-06-03T06:32:30.000Z</time>
      </trkpt>
      <trkpt lat="44.52637" lon="4.26828">
        <ele>362</ele>
        <time>2018-06-03T06:32:31.000Z</time>
      </trkpt>
      <trkpt lat="44.52639" lon="4.26826">
        <ele>362</ele>
        <time>2018-06-03T06:32:32.000Z</time>
      </trkpt>
      <trkpt lat="44.52641" lon="4.26825">
        <ele>362</ele>
        <time>2018-06-03T06:32:33.000Z</time>
      </trkpt>
      <trkpt lat="44.52643" lon="4.26823">
        <ele>362</ele>
        <time>2018-06-03T06:32:34.000Z</time>
      </trkpt>
      <trkpt lat="44.52645" lon="4.26821">
        <ele>362</ele>
        <time>2018-06-03T06:32:35.000Z</time>
      </trkpt>
      <trkpt lat="44.52647" lon="4.2682">
        <ele>362</ele>
        <time>2018-06-03T06:32:36.000Z</time>
      </trkpt>
      <trkpt lat="44.5265" lon="4.26819">
        <ele>362</ele>
        <time>2018-06-03T06:32:37.000Z</time>
      </trkpt>
      <trkpt lat="44.52652" lon="4.26818">
        <ele>362</ele>
        <time>2018-06-03T06:32:38.000Z</time>
      </trkpt>
      <trkpt lat="44.52654" lon="4.26817">
        <ele>362</ele>
        <time>2018-06-03T06:32:39.000Z</time>
      </trkpt>
      <trkpt lat="44.52656" lon="4.26815">
        <ele>362</ele>
        <time>2018-06-03T06:32:40.000Z</time>
      </trkpt>
      <trkpt lat="44.52659" lon="4.26814">
        <ele>362</ele>
        <time>2018-06-03T06:32:41.000Z</time>
      </trkpt>
      <trkpt lat="44.52661" lon="4.26813">
        <ele>362</ele>
        <time>2018-06-03T06:32:42.000Z</time>
      </trkpt>
      <trkpt lat="44.52663" lon="4.26813">
        <ele>362</ele>
        <time>2018-06-03T06:32:43.000Z</time>
      </trkpt>
      <trkpt lat="44.52666" lon="4.26812">
        <ele>362</ele>
        <time>2018-06-03T06:32:44.000Z</time>
      </trkpt>
      <trkpt lat="44.52669" lon="4.26812">
        <ele>365</ele>
        <time>2018-06-03T06:32:45.000Z</time>
      </trkpt>
      <trkpt lat="44.52671" lon="4.26811">
        <ele>365</ele>
        <time>2018-06-03T06:32:46.000Z</time>
      </trkpt>
      <trkpt lat="44.52674" lon="4.26811">
        <ele>365</ele>
        <time>2018-06-03T06:32:47.000Z</time>
      </trkpt>
      <trkpt lat="44.52676" lon="4.26811">
        <ele>365</ele>
        <time>2018-06-03T06:32:48.000Z</time>
      </trkpt>
      <trkpt lat="44.52679" lon="4.26812">
        <ele>365</ele>
        <time>2018-06-03T06:32:49.000Z</time>
      </trkpt>
      <trkpt lat="44.52682" lon="4.26812">
        <ele>365</ele>
        <time>2018-06-03T06:32:50.000Z</time>
      </trkpt>
      <trkpt lat="44.52685" lon="4.26812">
        <ele>365</ele>
        <time>2018-06-03T06:32:51.000Z</time>
      </trkpt>
      <trkpt lat="44.52688" lon="4.26811">
        <ele>365</ele>
        <time>2018-06-03T06:32:52.000Z</time>
      </trkpt>
      <trkpt lat="44.5269" lon="4.26811">
        <ele>366</ele>
        <time>2018-06-03T06:32:53.000Z</time>
      </trkpt>
      <trkpt lat="44.52693" lon="4.2681">
        <ele>366</ele>
        <time>2018-06-03T06:32:54.000Z</time>
      </trkpt>
      <trkpt lat="44.52695" lon="4.2681">
        <ele>366</ele>
        <time>2018-06-03T06:32:55.000Z</time>
      </trkpt>
      <trkpt lat="44.52698" lon="4.26809">
        <ele>366</ele>
        <time>2018-06-03T06:32:56.000Z</time>
      </trkpt>
      <trkpt lat="44.527" lon="4.26808">
        <ele>366</ele>
        <time>2018-06-03T06:32:57.000Z</time>
      </trkpt>
      <trkpt lat="44.52703" lon="4.26806">
        <ele>366</ele>
        <time>2018-06-03T06:32:58.000Z</time>
      </trkpt>
      <trkpt lat="44.52706" lon="4.26805">
        <ele>366</ele>
        <time>2018-06-03T06:32:59.000Z</time>
      </trkpt>
      <trkpt lat="44.52708" lon="4.26804">
        <ele>366</ele>
        <time>2018-06-03T06:33:00.000Z</time>
      </trkpt>
      <trkpt lat="44.52711" lon="4.26803">
        <ele>366</ele>
        <time>2018-06-03T06:33:01.000Z</time>
      </trkpt>
      <trkpt lat="44.52714" lon="4.26802">
        <ele>366</ele>
        <time>2018-06-03T06:33:02.000Z</time>
      </trkpt>
      <trkpt lat="44.52716" lon="4.26801">
        <ele>366</ele>
        <time>2018-06-03T06:33:03.000Z</time>
      </trkpt>
      <trkpt lat="44.52719" lon="4.26801">
        <ele>366</ele>
        <time>2018-06-03T06:33:04.000Z</time>
      </trkpt>
      <trkpt lat="44.52721" lon="4.268">
        <ele>367</ele>
        <time>2018-06-03T06:33:05.000Z</time>
      </trkpt>
      <trkpt lat="44.52724" lon="4.26799">
        <ele>367</ele>
        <time>2018-06-03T06:33:06.000Z</time>
      </trkpt>
      <trkpt lat="44.52726" lon="4.26798">
        <ele>367</ele>
        <time>2018-06-03T06:33:07.000Z</time>
      </trkpt>
      <trkpt lat="44.52729" lon="4.26797">
        <ele>367</ele>
        <time>2018-06-03T06:33:08.000Z</time>
      </trkpt>
      <trkpt lat="44.52731" lon="4.26795">
        <ele>367</ele>
        <time>2018-06-03T06:33:09.000Z</time>
      </trkpt>
      <trkpt lat="44.52733" lon="4.26792">
        <ele>367</ele>
        <time>2018-06-03T06:33:10.000Z</time>
      </trkpt>
      <trkpt lat="44.52734" lon="4.26789">
        <ele>367</ele>
        <time>2018-06-03T06:33:11.000Z</time>
      </trkpt>
      <trkpt lat="44.52734" lon="4.26786">
        <ele>367</ele>
        <time>2018-06-03T06:33:12.000Z</time>
      </trkpt>
      <trkpt lat="44.52732" lon="4.26784">
        <ele>367</ele>
        <time>2018-06-03T06:33:13.000Z</time>
      </trkpt>
      <trkpt lat="44.52731" lon="4.26782">
        <ele>367</ele>
        <time>2018-06-03T06:33:14.000Z</time>
      </trkpt>
      <trkpt lat="44.52729" lon="4.26779">
        <ele>367</ele>
        <time>2018-06-03T06:33:15.000Z</time>
      </trkpt>
      <trkpt lat="44.52728" lon="4.26776">
        <ele>367</ele>
        <time>2018-06-03T06:33:16.000Z</time>
      </trkpt>
      <trkpt lat="44.52726" lon="4.26774">
        <ele>367</ele>
        <time>2018-06-03T06:33:17.000Z</time>
      </trkpt>
      <trkpt lat="44.52724" lon="4.26771">
        <ele>367</ele>
        <time>2018-06-03T06:33:18.000Z</time>
      </trkpt>
      <trkpt lat="44.52723" lon="4.26769">
        <ele>367</ele>
        <time>2018-06-03T06:33:19.000Z</time>
      </trkpt>
      <trkpt lat="44.52722" lon="4.26767">
        <ele>367</ele>
        <time>2018-06-03T06:33:20.000Z</time>
      </trkpt>
      <trkpt lat="44.5272" lon="4.26764">
        <ele>367</ele>
        <time>2018-06-03T06:33:21.000Z</time>
      </trkpt>
      <trkpt lat="44.52719" lon="4.26762">
        <ele>367</ele>
        <time>2018-06-03T06:33:22.000Z</time>
      </trkpt>
      <trkpt lat="44.52717" lon="4.2676">
        <ele>367</ele>
        <time>2018-06-03T06:33:23.000Z</time>
      </trkpt>
      <trkpt lat="44.52715" lon="4.26758">
        <ele>367</ele>
        <time>2018-06-03T06:33:24.000Z</time>
      </trkpt>
      <trkpt lat="44.52713" lon="4.26756">
        <ele>367</ele>
        <time>2018-06-03T06:33:25.000Z</time>
      </trkpt>
      <trkpt lat="44.52711" lon="4.26754">
        <ele>367</ele>
        <time>2018-06-03T06:33:26.000Z</time>
      </trkpt>
      <trkpt lat="44.52708" lon="4.26752">
        <ele>367</ele>
        <time>2018-06-03T06:33:27.000Z</time>
      </trkpt>
      <trkpt lat="44.52706" lon="4.26751">
        <ele>367</ele>
        <time>2018-06-03T06:33:28.000Z</time>
      </trkpt>
      <trkpt lat="44.52703" lon="4.26749">
        <ele>369</ele>
        <time>2018-06-03T06:33:29.000Z</time>
      </trkpt>
      <trkpt lat="44.52701" lon="4.26746">
        <ele>369</ele>
        <time>2018-06-03T06:33:30.000Z</time>
      </trkpt>
      <trkpt lat="44.52699" lon="4.26743">
        <ele>369</ele>
        <time>2018-06-03T06:33:31.000Z</time>
      </trkpt>
      <trkpt lat="44.52698" lon="4.26739">
        <ele>369</ele>
        <time>2018-06-03T06:33:32.000Z</time>
      </trkpt>
      <trkpt lat="44.52696" lon="4.26736">
        <ele>369</ele>
        <time>2018-06-03T06:33:33.000Z</time>
      </trkpt>
      <trkpt lat="44.52695" lon="4.26733">
        <ele>369</ele>
        <time>2018-06-03T06:33:34.000Z</time>
      </trkpt>
      <trkpt lat="44.52694" lon="4.26729">
        <ele>369</ele>
        <time>2018-06-03T06:33:35.000Z</time>
      </trkpt>
      <trkpt lat="44.52693" lon="4.26725">
        <ele>369</ele>
        <time>2018-06-03T06:33:36.000Z</time>
      </trkpt>
      <trkpt lat="44.52693" lon="4.26721">
        <ele>369</ele>
        <time>2018-06-03T06:33:37.000Z</time>
      </trkpt>
      <trkpt lat="44.52692" lon="4.26717">
        <ele>369</ele>
        <time>2018-06-03T06:33:38.000Z</time>
      </trkpt>
      <trkpt lat="44.5269" lon="4.26712">
        <ele>369</ele>
        <time>2018-06-03T06:33:39.000Z</time>
      </trkpt>
      <trkpt lat="44.52689" lon="4.26708">
        <ele>369</ele>
        <time>2018-06-03T06:33:40.000Z</time>
      </trkpt>
      <trkpt lat="44.52689" lon="4.26704">
        <ele>369</ele>
        <time>2018-06-03T06:33:41.000Z</time>
      </trkpt>
      <trkpt lat="44.52689" lon="4.267">
        <ele>369</ele>
        <time>2018-06-03T06:33:42.000Z</time>
      </trkpt>
      <trkpt lat="44.52689" lon="4.26696">
        <ele>369</ele>
        <time>2018-06-03T06:33:43.000Z</time>
      </trkpt>
      <trkpt lat="44.52689" lon="4.26692">
        <ele>369</ele>
        <time>2018-06-03T06:33:44.000Z</time>
      </trkpt>
      <trkpt lat="44.52689" lon="4.26688">
        <ele>369</ele>
        <time>2018-06-03T06:33:45.000Z</time>
      </trkpt>
      <trkpt lat="44.52688" lon="4.26684">
        <ele>369</ele>
        <time>2018-06-03T06:33:46.000Z</time>
      </trkpt>
      <trkpt lat="44.52688" lon="4.26681">
        <ele>369</ele>
        <time>2018-06-03T06:33:47.000Z</time>
      </trkpt>
      <trkpt lat="44.52687" lon="4.26678">
        <ele>369</ele>
        <time>2018-06-03T06:33:48.000Z</time>
      </trkpt>
      <trkpt lat="44.52687" lon="4.26674">
        <ele>369</ele>
        <time>2018-06-03T06:33:49.000Z</time>
      </trkpt>
      <trkpt lat="44.52686" lon="4.2667">
        <ele>369</ele>
        <time>2018-06-03T06:33:50.000Z</time>
      </trkpt>
      <trkpt lat="44.52686" lon="4.26666">
        <ele>369</ele>
        <time>2018-06-03T06:33:51.000Z</time>
      </trkpt>
      <trkpt lat="44.52686" lon="4.26662">
        <ele>369</ele>
        <time>2018-06-03T06:33:52.000Z</time>
      </trkpt>
      <trkpt lat="44.52684" lon="4.26658">
        <ele>369</ele>
        <time>2018-06-03T06:33:53.000Z</time>
      </trkpt>
      <trkpt lat="44.52684" lon="4.26654">
        <ele>369</ele>
        <time>2018-06-03T06:33:54.000Z</time>
      </trkpt>
      <trkpt lat="44.52684" lon="4.2665">
        <ele>369</ele>
        <time>2018-06-03T06:33:55.000Z</time>
      </trkpt>
      <trkpt lat="44.52684" lon="4.26645">
        <ele>369</ele>
        <time>2018-06-03T06:33:56.000Z</time>
      </trkpt>
      <trkpt lat="44.52684" lon="4.26641">
        <ele>369</ele>
        <time>2018-06-03T06:33:57.000Z</time>
      </trkpt>
      <trkpt lat="44.52684" lon="4.26637">
        <ele>369</ele>
        <time>2018-06-03T06:33:58.000Z</time>
      </trkpt>
      <trkpt lat="44.52684" lon="4.26632">
        <ele>369</ele>
        <time>2018-06-03T06:33:59.000Z</time>
      </trkpt>
      <trkpt lat="44.52684" lon="4.26628">
        <ele>369</ele>
        <time>2018-06-03T06:34:00.000Z</time>
      </trkpt>
      <trkpt lat="44.52684" lon="4.26624">
        <ele>369</ele>
        <time>2018-06-03T06:34:01.000Z</time>
      </trkpt>
      <trkpt lat="44.52685" lon="4.2662">
        <ele>369</ele>
        <time>2018-06-03T06:34:02.000Z</time>
      </trkpt>
      <trkpt lat="44.52687" lon="4.26616">
        <ele>369</ele>
        <time>2018-06-03T06:34:03.000Z</time>
      </trkpt>
      <trkpt lat="44.52688" lon="4.26611">
        <ele>369</ele>
        <time>2018-06-03T06:34:04.000Z</time>
      </trkpt>
      <trkpt lat="44.52689" lon="4.26606">
        <ele>369</ele>
        <time>2018-06-03T06:34:05.000Z</time>
      </trkpt>
      <trkpt lat="44.5269" lon="4.26601">
        <ele>368</ele>
        <time>2018-06-03T06:34:06.000Z</time>
      </trkpt>
      <trkpt lat="44.52691" lon="4.26598">
        <ele>368</ele>
        <time>2018-06-03T06:34:07.000Z</time>
      </trkpt>
      <trkpt lat="44.52693" lon="4.26596">
        <ele>368</ele>
        <time>2018-06-03T06:34:08.000Z</time>
      </trkpt>
      <trkpt lat="44.52695" lon="4.26594">
        <ele>369</ele>
        <time>2018-06-03T06:34:09.000Z</time>
      </trkpt>
      <trkpt lat="44.52697" lon="4.26592">
        <ele>369</ele>
        <time>2018-06-03T06:34:10.000Z</time>
      </trkpt>
      <trkpt lat="44.527" lon="4.26589">
        <ele>369</ele>
        <time>2018-06-03T06:34:11.000Z</time>
      </trkpt>
      <trkpt lat="44.52702" lon="4.26587">
        <ele>369</ele>
        <time>2018-06-03T06:34:12.000Z</time>
      </trkpt>
      <trkpt lat="44.52705" lon="4.26584">
        <ele>369</ele>
        <time>2018-06-03T06:34:13.000Z</time>
      </trkpt>
      <trkpt lat="44.52707" lon="4.26581">
        <ele>368</ele>
        <time>2018-06-03T06:34:14.000Z</time>
      </trkpt>
      <trkpt lat="44.52709" lon="4.26578">
        <ele>368</ele>
        <time>2018-06-03T06:34:15.000Z</time>
      </trkpt>
      <trkpt lat="44.52712" lon="4.26575">
        <ele>369</ele>
        <time>2018-06-03T06:34:16.000Z</time>
      </trkpt>
      <trkpt lat="44.52714" lon="4.26572">
        <ele>369</ele>
        <time>2018-06-03T06:34:17.000Z</time>
      </trkpt>
      <trkpt lat="44.52716" lon="4.26569">
        <ele>369</ele>
        <time>2018-06-03T06:34:18.000Z</time>
      </trkpt>
      <trkpt lat="44.52718" lon="4.26567">
        <ele>369</ele>
        <time>2018-06-03T06:34:19.000Z</time>
      </trkpt>
      <trkpt lat="44.5272" lon="4.26565">
        <ele>369</ele>
        <time>2018-06-03T06:34:20.000Z</time>
      </trkpt>
      <trkpt lat="44.52722" lon="4.26564">
        <ele>369</ele>
        <time>2018-06-03T06:34:21.000Z</time>
      </trkpt>
      <trkpt lat="44.52724" lon="4.26561">
        <ele>369</ele>
        <time>2018-06-03T06:34:22.000Z</time>
      </trkpt>
      <trkpt lat="44.52726" lon="4.26558">
        <ele>369</ele>
        <time>2018-06-03T06:34:23.000Z</time>
      </trkpt>
      <trkpt lat="44.52729" lon="4.26556">
        <ele>370</ele>
        <time>2018-06-03T06:34:24.000Z</time>
      </trkpt>
      <trkpt lat="44.52732" lon="4.26553">
        <ele>370</ele>
        <time>2018-06-03T06:34:25.000Z</time>
      </trkpt>
      <trkpt lat="44.52733" lon="4.26552">
        <ele>370</ele>
        <time>2018-06-03T06:34:26.000Z</time>
      </trkpt>
      <trkpt lat="44.52735" lon="4.2655">
        <ele>370</ele>
        <time>2018-06-03T06:34:27.000Z</time>
      </trkpt>
      <trkpt lat="44.52735" lon="4.26547">
        <ele>370</ele>
        <time>2018-06-03T06:34:28.000Z</time>
      </trkpt>
      <trkpt lat="44.52736" lon="4.26544">
        <ele>369</ele>
        <time>2018-06-03T06:34:29.000Z</time>
      </trkpt>
      <trkpt lat="44.52737" lon="4.26542">
        <ele>369</ele>
        <time>2018-06-03T06:34:30.000Z</time>
      </trkpt>
      <trkpt lat="44.52739" lon="4.2654">
        <ele>370</ele>
        <time>2018-06-03T06:34:31.000Z</time>
      </trkpt>
      <trkpt lat="44.5274" lon="4.26538">
        <ele>370</ele>
        <time>2018-06-03T06:34:32.000Z</time>
      </trkpt>
      <trkpt lat="44.52741" lon="4.26536">
        <ele>370</ele>
        <time>2018-06-03T06:34:33.000Z</time>
      </trkpt>
      <trkpt lat="44.52742" lon="4.26533">
        <ele>370</ele>
        <time>2018-06-03T06:34:34.000Z</time>
      </trkpt>
      <trkpt lat="44.52744" lon="4.2653">
        <ele>370</ele>
        <time>2018-06-03T06:34:35.000Z</time>
      </trkpt>
      <trkpt lat="44.52745" lon="4.26528">
        <ele>370</ele>
        <time>2018-06-03T06:34:36.000Z</time>
      </trkpt>
      <trkpt lat="44.52747" lon="4.26526">
        <ele>370</ele>
        <time>2018-06-03T06:34:37.000Z</time>
      </trkpt>
      <trkpt lat="44.52749" lon="4.26524">
        <ele>370</ele>
        <time>2018-06-03T06:34:38.000Z</time>
      </trkpt>
      <trkpt lat="44.5275" lon="4.26522">
        <ele>374</ele>
        <time>2018-06-03T06:34:39.000Z</time>
      </trkpt>
      <trkpt lat="44.52751" lon="4.26519">
        <ele>374</ele>
        <time>2018-06-03T06:34:40.000Z</time>
      </trkpt>
      <trkpt lat="44.52753" lon="4.26516">
        <ele>374</ele>
        <time>2018-06-03T06:34:41.000Z</time>
      </trkpt>
      <trkpt lat="44.52754" lon="4.26514">
        <ele>374</ele>
        <time>2018-06-03T06:34:42.000Z</time>
      </trkpt>
      <trkpt lat="44.52756" lon="4.26511">
        <ele>374</ele>
        <time>2018-06-03T06:34:43.000Z</time>
      </trkpt>
      <trkpt lat="44.52758" lon="4.26508">
        <ele>374</ele>
        <time>2018-06-03T06:34:44.000Z</time>
      </trkpt>
      <trkpt lat="44.5276" lon="4.26506">
        <ele>374</ele>
        <time>2018-06-03T06:34:45.000Z</time>
      </trkpt>
      <trkpt lat="44.52761" lon="4.26503">
        <ele>374</ele>
        <time>2018-06-03T06:34:46.000Z</time>
      </trkpt>
      <trkpt lat="44.52763" lon="4.265">
        <ele>374</ele>
        <time>2018-06-03T06:34:47.000Z</time>
      </trkpt>
      <trkpt lat="44.52765" lon="4.26497">
        <ele>374</ele>
        <time>2018-06-03T06:34:48.000Z</time>
      </trkpt>
      <trkpt lat="44.52767" lon="4.26494">
        <ele>374</ele>
        <time>2018-06-03T06:34:49.000Z</time>
      </trkpt>
      <trkpt lat="44.52769" lon="4.26491">
        <ele>374</ele>
        <time>2018-06-03T06:34:50.000Z</time>
      </trkpt>
      <trkpt lat="44.52772" lon="4.26488">
        <ele>374</ele>
        <time>2018-06-03T06:34:51.000Z</time>
      </trkpt>
      <trkpt lat="44.52774" lon="4.26485">
        <ele>374</ele>
        <time>2018-06-03T06:34:52.000Z</time>
      </trkpt>
      <trkpt lat="44.52775" lon="4.26483">
        <ele>374</ele>
        <time>2018-06-03T06:34:53.000Z</time>
      </trkpt>
      <trkpt lat="44.52777" lon="4.2648">
        <ele>374</ele>
        <time>2018-06-03T06:34:54.000Z</time>
      </trkpt>
      <trkpt lat="44.52779" lon="4.26478">
        <ele>374</ele>
        <time>2018-06-03T06:34:55.000Z</time>
      </trkpt>
      <trkpt lat="44.52781" lon="4.26475">
        <ele>374</ele>
        <time>2018-06-03T06:34:56.000Z</time>
      </trkpt>
      <trkpt lat="44.52783" lon="4.26474">
        <ele>374</ele>
        <time>2018-06-03T06:34:57.000Z</time>
      </trkpt>
      <trkpt lat="44.52784" lon="4.26473">
        <ele>374</ele>
        <time>2018-06-03T06:34:58.000Z</time>
      </trkpt>
      <trkpt lat="44.52786" lon="4.26471">
        <ele>374</ele>
        <time>2018-06-03T06:34:59.000Z</time>
      </trkpt>
      <trkpt lat="44.52788" lon="4.2647">
        <ele>374</ele>
        <time>2018-06-03T06:35:00.000Z</time>
      </trkpt>
      <trkpt lat="44.5279" lon="4.26469">
        <ele>374</ele>
        <time>2018-06-03T06:35:01.000Z</time>
      </trkpt>
      <trkpt lat="44.52792" lon="4.26467">
        <ele>374</ele>
        <time>2018-06-03T06:35:02.000Z</time>
      </trkpt>
      <trkpt lat="44.52794" lon="4.26465">
        <ele>374</ele>
        <time>2018-06-03T06:35:03.000Z</time>
      </trkpt>
      <trkpt lat="44.52795" lon="4.26462">
        <ele>374</ele>
        <time>2018-06-03T06:35:04.000Z</time>
      </trkpt>
      <trkpt lat="44.52796" lon="4.26459">
        <ele>374</ele>
        <time>2018-06-03T06:35:05.000Z</time>
      </trkpt>
      <trkpt lat="44.52798" lon="4.26457">
        <ele>375</ele>
        <time>2018-06-03T06:35:06.000Z</time>
      </trkpt>
      <trkpt lat="44.528" lon="4.26455">
        <ele>375</ele>
        <time>2018-06-03T06:35:07.000Z</time>
      </trkpt>
      <trkpt lat="44.52802" lon="4.26453">
        <ele>375</ele>
        <time>2018-06-03T06:35:08.000Z</time>
      </trkpt>
      <trkpt lat="44.52804" lon="4.26451">
        <ele>375</ele>
        <time>2018-06-03T06:35:09.000Z</time>
      </trkpt>
      <trkpt lat="44.52806" lon="4.26449">
        <ele>375</ele>
        <time>2018-06-03T06:35:10.000Z</time>
      </trkpt>
      <trkpt lat="44.52808" lon="4.26448">
        <ele>375</ele>
        <time>2018-06-03T06:35:11.000Z</time>
      </trkpt>
      <trkpt lat="44.5281" lon="4.26446">
        <ele>375</ele>
        <time>2018-06-03T06:35:12.000Z</time>
      </trkpt>
      <trkpt lat="44.52812" lon="4.26445">
        <ele>375</ele>
        <time>2018-06-03T06:35:13.000Z</time>
      </trkpt>
      <trkpt lat="44.52814" lon="4.26443">
        <ele>375</ele>
        <time>2018-06-03T06:35:14.000Z</time>
      </trkpt>
      <trkpt lat="44.52815" lon="4.2644">
        <ele>375</ele>
        <time>2018-06-03T06:35:15.000Z</time>
      </trkpt>
      <trkpt lat="44.52816" lon="4.26437">
        <ele>375</ele>
        <time>2018-06-03T06:35:16.000Z</time>
      </trkpt>
      <trkpt lat="44.52819" lon="4.26435">
        <ele>376</ele>
        <time>2018-06-03T06:35:17.000Z</time>
      </trkpt>
      <trkpt lat="44.52822" lon="4.26433">
        <ele>376</ele>
        <time>2018-06-03T06:35:18.000Z</time>
      </trkpt>
      <trkpt lat="44.52825" lon="4.26433">
        <ele>376</ele>
        <time>2018-06-03T06:35:19.000Z</time>
      </trkpt>
      <trkpt lat="44.52828" lon="4.26432">
        <ele>376</ele>
        <time>2018-06-03T06:35:20.000Z</time>
      </trkpt>
      <trkpt lat="44.52831" lon="4.26431">
        <ele>376</ele>
        <time>2018-06-03T06:35:21.000Z</time>
      </trkpt>
      <trkpt lat="44.52834" lon="4.26429">
        <ele>378</ele>
        <time>2018-06-03T06:35:22.000Z</time>
      </trkpt>
      <trkpt lat="44.52837" lon="4.26428">
        <ele>378</ele>
        <time>2018-06-03T06:35:23.000Z</time>
      </trkpt>
      <trkpt lat="44.5284" lon="4.26426">
        <ele>378</ele>
        <time>2018-06-03T06:35:24.000Z</time>
      </trkpt>
      <trkpt lat="44.52842" lon="4.26423">
        <ele>378</ele>
        <time>2018-06-03T06:35:25.000Z</time>
      </trkpt>
      <trkpt lat="44.52843" lon="4.26421">
        <ele>378</ele>
        <time>2018-06-03T06:35:26.000Z</time>
      </trkpt>
      <trkpt lat="44.52843" lon="4.26419">
        <ele>378</ele>
        <time>2018-06-03T06:35:27.000Z</time>
      </trkpt>
      <trkpt lat="44.52843" lon="4.26417">
        <ele>378</ele>
        <time>2018-06-03T06:35:28.000Z</time>
      </trkpt>
      <trkpt lat="44.52843" lon="4.26415">
        <ele>377</ele>
        <time>2018-06-03T06:35:29.000Z</time>
      </trkpt>
      <trkpt lat="44.52843" lon="4.26412">
        <ele>377</ele>
        <time>2018-06-03T06:35:30.000Z</time>
      </trkpt>
      <trkpt lat="44.52843" lon="4.26409">
        <ele>377</ele>
        <time>2018-06-03T06:35:31.000Z</time>
      </trkpt>
      <trkpt lat="44.52843" lon="4.26407">
        <ele>377</ele>
        <time>2018-06-03T06:35:32.000Z</time>
      </trkpt>
      <trkpt lat="44.52843" lon="4.26404">
        <ele>377</ele>
        <time>2018-06-03T06:35:33.000Z</time>
      </trkpt>
      <trkpt lat="44.52843" lon="4.26401">
        <ele>377</ele>
        <time>2018-06-03T06:35:34.000Z</time>
      </trkpt>
      <trkpt lat="44.52844" lon="4.26399">
        <ele>377</ele>
        <time>2018-06-03T06:35:35.000Z</time>
      </trkpt>
      <trkpt lat="44.52845" lon="4.26396">
        <ele>376</ele>
        <time>2018-06-03T06:35:36.000Z</time>
      </trkpt>
      <trkpt lat="44.52845" lon="4.26393">
        <ele>376</ele>
        <time>2018-06-03T06:35:37.000Z</time>
      </trkpt>
      <trkpt lat="44.52846" lon="4.2639">
        <ele>376</ele>
        <time>2018-06-03T06:35:38.000Z</time>
      </trkpt>
      <trkpt lat="44.52846" lon="4.26388">
        <ele>376</ele>
        <time>2018-06-03T06:35:39.000Z</time>
      </trkpt>
      <trkpt lat="44.52846" lon="4.26385">
        <ele>376</ele>
        <time>2018-06-03T06:35:40.000Z</time>
      </trkpt>
      <trkpt lat="44.52845" lon="4.26382">
        <ele>376</ele>
        <time>2018-06-03T06:35:41.000Z</time>
      </trkpt>
      <trkpt lat="44.52845" lon="4.26379">
        <ele>376</ele>
        <time>2018-06-03T06:35:42.000Z</time>
      </trkpt>
      <trkpt lat="44.52845" lon="4.26377">
        <ele>376</ele>
        <time>2018-06-03T06:35:43.000Z</time>
      </trkpt>
      <trkpt lat="44.52844" lon="4.26374">
        <ele>376</ele>
        <time>2018-06-03T06:35:44.000Z</time>
      </trkpt>
      <trkpt lat="44.52843" lon="4.26371">
        <ele>376</ele>
        <time>2018-06-03T06:35:45.000Z</time>
      </trkpt>
      <trkpt lat="44.52843" lon="4.26369">
        <ele>376</ele>
        <time>2018-06-03T06:35:46.000Z</time>
      </trkpt>
      <trkpt lat="44.52842" lon="4.26366">
        <ele>376</ele>
        <time>2018-06-03T06:35:47.000Z</time>
      </trkpt>
      <trkpt lat="44.52841" lon="4.26363">
        <ele>376</ele>
        <time>2018-06-03T06:35:48.000Z</time>
      </trkpt>
      <trkpt lat="44.52839" lon="4.26362">
        <ele>376</ele>
        <time>2018-06-03T06:35:49.000Z</time>
      </trkpt>
      <trkpt lat="44.52837" lon="4.26362">
        <ele>376</ele>
        <time>2018-06-03T06:35:50.000Z</time>
      </trkpt>
      <trkpt lat="44.52836" lon="4.26363">
        <ele>376</ele>
        <time>2018-06-03T06:35:51.000Z</time>
      </trkpt>
      <trkpt lat="44.52834" lon="4.26364">
        <ele>376</ele>
        <time>2018-06-03T06:35:52.000Z</time>
      </trkpt>
      <trkpt lat="44.52832" lon="4.26363">
        <ele>372</ele>
        <time>2018-06-03T06:35:53.000Z</time>
      </trkpt>
      <trkpt lat="44.5283" lon="4.2636">
        <ele>372</ele>
        <time>2018-06-03T06:35:54.000Z</time>
      </trkpt>
      <trkpt lat="44.52828" lon="4.26357">
        <ele>372</ele>
        <time>2018-06-03T06:35:55.000Z</time>
      </trkpt>
      <trkpt lat="44.52826" lon="4.26355">
        <ele>372</ele>
        <time>2018-06-03T06:35:56.000Z</time>
      </trkpt>
      <trkpt lat="44.52825" lon="4.26353">
        <ele>372</ele>
        <time>2018-06-03T06:35:57.000Z</time>
      </trkpt>
      <trkpt lat="44.52822" lon="4.26351">
        <ele>372</ele>
        <time>2018-06-03T06:35:58.000Z</time>
      </trkpt>
      <trkpt lat="44.5282" lon="4.26347">
        <ele>372</ele>
        <time>2018-06-03T06:35:59.000Z</time>
      </trkpt>
      <trkpt lat="44.52819" lon="4.26344">
        <ele>372</ele>
        <time>2018-06-03T06:36:00.000Z</time>
      </trkpt>
      <trkpt lat="44.52817" lon="4.2634">
        <ele>372</ele>
        <time>2018-06-03T06:36:01.000Z</time>
      </trkpt>
      <trkpt lat="44.52817" lon="4.26338">
        <ele>372</ele>
        <time>2018-06-03T06:36:02.000Z</time>
      </trkpt>
      <trkpt lat="44.52816" lon="4.26335">
        <ele>372</ele>
        <time>2018-06-03T06:36:03.000Z</time>
      </trkpt>
      <trkpt lat="44.52816" lon="4.26331">
        <ele>372</ele>
        <time>2018-06-03T06:36:04.000Z</time>
      </trkpt>
      <trkpt lat="44.52817" lon="4.26329">
        <ele>372</ele>
        <time>2018-06-03T06:36:05.000Z</time>
      </trkpt>
      <trkpt lat="44.52818" lon="4.26326">
        <ele>372</ele>
        <time>2018-06-03T06:36:06.000Z</time>
      </trkpt>
      <trkpt lat="44.5282" lon="4.26325">
        <ele>372</ele>
        <time>2018-06-03T06:36:07.000Z</time>
      </trkpt>
      <trkpt lat="44.52823" lon="4.26323">
        <ele>372</ele>
        <time>2018-06-03T06:36:08.000Z</time>
      </trkpt>
      <trkpt lat="44.52826" lon="4.26321">
        <ele>372</ele>
        <time>2018-06-03T06:36:09.000Z</time>
      </trkpt>
      <trkpt lat="44.52829" lon="4.26319">
        <ele>373</ele>
        <time>2018-06-03T06:36:10.000Z</time>
      </trkpt>
      <trkpt lat="44.52832" lon="4.26317">
        <ele>372</ele>
        <time>2018-06-03T06:36:11.000Z</time>
      </trkpt>
      <trkpt lat="44.52835" lon="4.26315">
        <ele>376</ele>
        <time>2018-06-03T06:36:12.000Z</time>
      </trkpt>
      <trkpt lat="44.52839" lon="4.26313">
        <ele>376</ele>
        <time>2018-06-03T06:36:13.000Z</time>
      </trkpt>
      <trkpt lat="44.52842" lon="4.26311">
        <ele>376</ele>
        <time>2018-06-03T06:36:14.000Z</time>
      </trkpt>
      <trkpt lat="44.52845" lon="4.26309">
        <ele>376</ele>
        <time>2018-06-03T06:36:15.000Z</time>
      </trkpt>
      <trkpt lat="44.52847" lon="4.26306">
        <ele>376</ele>
        <time>2018-06-03T06:36:16.000Z</time>
      </trkpt>
      <trkpt lat="44.52847" lon="4.26301">
        <ele>376</ele>
        <time>2018-06-03T06:36:17.000Z</time>
      </trkpt>
      <trkpt lat="44.52847" lon="4.26296">
        <ele>376</ele>
        <time>2018-06-03T06:36:18.000Z</time>
      </trkpt>
      <trkpt lat="44.52848" lon="4.26293">
        <ele>376</ele>
        <time>2018-06-03T06:36:19.000Z</time>
      </trkpt>
      <trkpt lat="44.52849" lon="4.2629">
        <ele>376</ele>
        <time>2018-06-03T06:36:20.000Z</time>
      </trkpt>
      <trkpt lat="44.5285" lon="4.26287">
        <ele>376</ele>
        <time>2018-06-03T06:36:21.000Z</time>
      </trkpt>
      <trkpt lat="44.52851" lon="4.26285">
        <ele>376</ele>
        <time>2018-06-03T06:36:22.000Z</time>
      </trkpt>
      <trkpt lat="44.52853" lon="4.26283">
        <ele>376</ele>
        <time>2018-06-03T06:36:23.000Z</time>
      </trkpt>
      <trkpt lat="44.52855" lon="4.26281">
        <ele>376</ele>
        <time>2018-06-03T06:36:24.000Z</time>
      </trkpt>
      <trkpt lat="44.52855" lon="4.26278">
        <ele>376</ele>
        <time>2018-06-03T06:36:25.000Z</time>
      </trkpt>
      <trkpt lat="44.52855" lon="4.26274">
        <ele>376</ele>
        <time>2018-06-03T06:36:26.000Z</time>
      </trkpt>
      <trkpt lat="44.52855" lon="4.2627">
        <ele>377</ele>
        <time>2018-06-03T06:36:27.000Z</time>
      </trkpt>
      <trkpt lat="44.52855" lon="4.26266">
        <ele>377</ele>
        <time>2018-06-03T06:36:28.000Z</time>
      </trkpt>
      <trkpt lat="44.52854" lon="4.26262">
        <ele>377</ele>
        <time>2018-06-03T06:36:29.000Z</time>
      </trkpt>
      <trkpt lat="44.52853" lon="4.26257">
        <ele>377</ele>
        <time>2018-06-03T06:36:30.000Z</time>
      </trkpt>
      <trkpt lat="44.52852" lon="4.26253">
        <ele>376</ele>
        <time>2018-06-03T06:36:31.000Z</time>
      </trkpt>
      <trkpt lat="44.5285" lon="4.26249">
        <ele>380</ele>
        <time>2018-06-03T06:36:32.000Z</time>
      </trkpt>
      <trkpt lat="44.5285" lon="4.26244">
        <ele>380</ele>
        <time>2018-06-03T06:36:33.000Z</time>
      </trkpt>
      <trkpt lat="44.52849" lon="4.2624">
        <ele>380</ele>
        <time>2018-06-03T06:36:34.000Z</time>
      </trkpt>
      <trkpt lat="44.52849" lon="4.26235">
        <ele>381</ele>
        <time>2018-06-03T06:36:35.000Z</time>
      </trkpt>
      <trkpt lat="44.52849" lon="4.26231">
        <ele>381</ele>
        <time>2018-06-03T06:36:36.000Z</time>
      </trkpt>
      <trkpt lat="44.52851" lon="4.26226">
        <ele>382</ele>
        <time>2018-06-03T06:36:37.000Z</time>
      </trkpt>
      <trkpt lat="44.52853" lon="4.26223">
        <ele>382</ele>
        <time>2018-06-03T06:36:38.000Z</time>
      </trkpt>
      <trkpt lat="44.52855" lon="4.2622">
        <ele>382</ele>
        <time>2018-06-03T06:36:39.000Z</time>
      </trkpt>
      <trkpt lat="44.52856" lon="4.26216">
        <ele>383</ele>
        <time>2018-06-03T06:36:40.000Z</time>
      </trkpt>
      <trkpt lat="44.52858" lon="4.26214">
        <ele>383</ele>
        <time>2018-06-03T06:36:41.000Z</time>
      </trkpt>
      <trkpt lat="44.52858" lon="4.26211">
        <ele>383</ele>
        <time>2018-06-03T06:36:42.000Z</time>
      </trkpt>
      <trkpt lat="44.5286" lon="4.26209">
        <ele>383</ele>
        <time>2018-06-03T06:36:43.000Z</time>
      </trkpt>
      <trkpt lat="44.52861" lon="4.26207">
        <ele>384</ele>
        <time>2018-06-03T06:36:44.000Z</time>
      </trkpt>
      <trkpt lat="44.52863" lon="4.26205">
        <ele>384</ele>
        <time>2018-06-03T06:36:45.000Z</time>
      </trkpt>
      <trkpt lat="44.52864" lon="4.26203">
        <ele>384</ele>
        <time>2018-06-03T06:36:46.000Z</time>
      </trkpt>
      <trkpt lat="44.52865" lon="4.26201">
        <ele>384</ele>
        <time>2018-06-03T06:36:47.000Z</time>
      </trkpt>
      <trkpt lat="44.52866" lon="4.26198">
        <ele>384</ele>
        <time>2018-06-03T06:36:48.000Z</time>
      </trkpt>
      <trkpt lat="44.52868" lon="4.26196">
        <ele>384</ele>
        <time>2018-06-03T06:36:49.000Z</time>
      </trkpt>
      <trkpt lat="44.52868" lon="4.26194">
        <ele>385</ele>
        <time>2018-06-03T06:36:50.000Z</time>
      </trkpt>
      <trkpt lat="44.52869" lon="4.26192">
        <ele>385</ele>
        <time>2018-06-03T06:36:51.000Z</time>
      </trkpt>
      <trkpt lat="44.5287" lon="4.2619">
        <ele>385</ele>
        <time>2018-06-03T06:36:52.000Z</time>
      </trkpt>
      <trkpt lat="44.52871" lon="4.26188">
        <ele>385</ele>
        <time>2018-06-03T06:36:53.000Z</time>
      </trkpt>
      <trkpt lat="44.52871" lon="4.26186">
        <ele>385</ele>
        <time>2018-06-03T06:36:54.000Z</time>
      </trkpt>
      <trkpt lat="44.52872" lon="4.26184">
        <ele>385</ele>
        <time>2018-06-03T06:36:55.000Z</time>
      </trkpt>
      <trkpt lat="44.52872" lon="4.26181">
        <ele>385</ele>
        <time>2018-06-03T06:36:56.000Z</time>
      </trkpt>
      <trkpt lat="44.52873" lon="4.2618">
        <ele>385</ele>
        <time>2018-06-03T06:36:57.000Z</time>
      </trkpt>
      <trkpt lat="44.52873" lon="4.26178">
        <ele>385</ele>
        <time>2018-06-03T06:36:58.000Z</time>
      </trkpt>
      <trkpt lat="44.52874" lon="4.26176">
        <ele>385</ele>
        <time>2018-06-03T06:36:59.000Z</time>
      </trkpt>
      <trkpt lat="44.52874" lon="4.26174">
        <ele>386</ele>
        <time>2018-06-03T06:37:00.000Z</time>
      </trkpt>
      <trkpt lat="44.52874" lon="4.26172">
        <ele>386</ele>
        <time>2018-06-03T06:37:01.000Z</time>
      </trkpt>
      <trkpt lat="44.52875" lon="4.2617">
        <ele>386</ele>
        <time>2018-06-03T06:37:02.000Z</time>
      </trkpt>
      <trkpt lat="44.52876" lon="4.26168">
        <ele>386</ele>
        <time>2018-06-03T06:37:03.000Z</time>
      </trkpt>
      <trkpt lat="44.52876" lon="4.26166">
        <ele>393</ele>
        <time>2018-06-03T06:37:04.000Z</time>
      </trkpt>
      <trkpt lat="44.52876" lon="4.26164">
        <ele>393</ele>
        <time>2018-06-03T06:37:05.000Z</time>
      </trkpt>
      <trkpt lat="44.52875" lon="4.26161">
        <ele>393</ele>
        <time>2018-06-03T06:37:06.000Z</time>
      </trkpt>
      <trkpt lat="44.52875" lon="4.26159">
        <ele>393</ele>
        <time>2018-06-03T06:37:07.000Z</time>
      </trkpt>
      <trkpt lat="44.52875" lon="4.26156">
        <ele>394</ele>
        <time>2018-06-03T06:37:08.000Z</time>
      </trkpt>
      <trkpt lat="44.52875" lon="4.26154">
        <ele>394</ele>
        <time>2018-06-03T06:37:09.000Z</time>
      </trkpt>
      <trkpt lat="44.52874" lon="4.26152">
        <ele>394</ele>
        <time>2018-06-03T06:37:10.000Z</time>
      </trkpt>
      <trkpt lat="44.52874" lon="4.2615">
        <ele>394</ele>
        <time>2018-06-03T06:37:11.000Z</time>
      </trkpt>
      <trkpt lat="44.52873" lon="4.26148">
        <ele>394</ele>
        <time>2018-06-03T06:37:12.000Z</time>
      </trkpt>
      <trkpt lat="44.52873" lon="4.26146">
        <ele>394</ele>
        <time>2018-06-03T06:37:13.000Z</time>
      </trkpt>
      <trkpt lat="44.52873" lon="4.26144">
        <ele>394</ele>
        <time>2018-06-03T06:37:14.000Z</time>
      </trkpt>
      <trkpt lat="44.52873" lon="4.26142">
        <ele>394</ele>
        <time>2018-06-03T06:37:15.000Z</time>
      </trkpt>
      <trkpt lat="44.52874" lon="4.2614">
        <ele>395</ele>
        <time>2018-06-03T06:37:16.000Z</time>
      </trkpt>
      <trkpt lat="44.52874" lon="4.26138">
        <ele>395</ele>
        <time>2018-06-03T06:37:17.000Z</time>
      </trkpt>
      <trkpt lat="44.52874" lon="4.26136">
        <ele>395</ele>
        <time>2018-06-03T06:37:18.000Z</time>
      </trkpt>
      <trkpt lat="44.52875" lon="4.26134">
        <ele>395</ele>
        <time>2018-06-03T06:37:19.000Z</time>
      </trkpt>
      <trkpt lat="44.52875" lon="4.26132">
        <ele>395</ele>
        <time>2018-06-03T06:37:20.000Z</time>
      </trkpt>
      <trkpt lat="44.52876" lon="4.2613">
        <ele>395</ele>
        <time>2018-06-03T06:37:21.000Z</time>
      </trkpt>
      <trkpt lat="44.52876" lon="4.26127">
        <ele>396</ele>
        <time>2018-06-03T06:37:22.000Z</time>
      </trkpt>
      <trkpt lat="44.52876" lon="4.26125">
        <ele>396</ele>
        <time>2018-06-03T06:37:23.000Z</time>
      </trkpt>
      <trkpt lat="44.52877" lon="4.26123">
        <ele>396</ele>
        <time>2018-06-03T06:37:24.000Z</time>
      </trkpt>
      <trkpt lat="44.52877" lon="4.26121">
        <ele>396</ele>
        <time>2018-06-03T06:37:25.000Z</time>
      </trkpt>
      <trkpt lat="44.52878" lon="4.26119">
        <ele>396</ele>
        <time>2018-06-03T06:37:26.000Z</time>
      </trkpt>
      <trkpt lat="44.52878" lon="4.26117">
        <ele>396</ele>
        <time>2018-06-03T06:37:27.000Z</time>
      </trkpt>
      <trkpt lat="44.52877" lon="4.26115">
        <ele>397</ele>
        <time>2018-06-03T06:37:28.000Z</time>
      </trkpt>
      <trkpt lat="44.52877" lon="4.26113">
        <ele>397</ele>
        <time>2018-06-03T06:37:29.000Z</time>
      </trkpt>
      <trkpt lat="44.52876" lon="4.26113">
        <ele>397</ele>
        <time>2018-06-03T06:37:30.000Z</time>
      </trkpt>
      <trkpt lat="44.52874" lon="4.26113">
        <ele>397</ele>
        <time>2018-06-03T06:37:31.000Z</time>
      </trkpt>
      <trkpt lat="44.52872" lon="4.26113">
        <ele>397</ele>
        <time>2018-06-03T06:37:32.000Z</time>
      </trkpt>
      <trkpt lat="44.52871" lon="4.26113">
        <ele>397</ele>
        <time>2018-06-03T06:37:33.000Z</time>
      </trkpt>
      <trkpt lat="44.52869" lon="4.26113">
        <ele>397</ele>
        <time>2018-06-03T06:37:34.000Z</time>
      </trkpt>
      <trkpt lat="44.52866" lon="4.26113">
        <ele>397</ele>
        <time>2018-06-03T06:37:35.000Z</time>
      </trkpt>
      <trkpt lat="44.52864" lon="4.26112">
        <ele>397</ele>
        <time>2018-06-03T06:37:36.000Z</time>
      </trkpt>
      <trkpt lat="44.52862" lon="4.26111">
        <ele>397</ele>
        <time>2018-06-03T06:37:37.000Z</time>
      </trkpt>
      <trkpt lat="44.52859" lon="4.26111">
        <ele>397</ele>
        <time>2018-06-03T06:37:38.000Z</time>
      </trkpt>
      <trkpt lat="44.52857" lon="4.2611">
        <ele>397</ele>
        <time>2018-06-03T06:37:39.000Z</time>
      </trkpt>
      <trkpt lat="44.52855" lon="4.26109">
        <ele>398</ele>
        <time>2018-06-03T06:37:40.000Z</time>
      </trkpt>
      <trkpt lat="44.52853" lon="4.26108">
        <ele>398</ele>
        <time>2018-06-03T06:37:41.000Z</time>
      </trkpt>
      <trkpt lat="44.5285" lon="4.26107">
        <ele>398</ele>
        <time>2018-06-03T06:37:42.000Z</time>
      </trkpt>
      <trkpt lat="44.52848" lon="4.26107">
        <ele>398</ele>
        <time>2018-06-03T06:37:43.000Z</time>
      </trkpt>
      <trkpt lat="44.52845" lon="4.26107">
        <ele>398</ele>
        <time>2018-06-03T06:37:44.000Z</time>
      </trkpt>
      <trkpt lat="44.52842" lon="4.26107">
        <ele>398</ele>
        <time>2018-06-03T06:37:45.000Z</time>
      </trkpt>
      <trkpt lat="44.5284" lon="4.26106">
        <ele>399</ele>
        <time>2018-06-03T06:37:46.000Z</time>
      </trkpt>
      <trkpt lat="44.52837" lon="4.26105">
        <ele>399</ele>
        <time>2018-06-03T06:37:47.000Z</time>
      </trkpt>
      <trkpt lat="44.52835" lon="4.26105">
        <ele>399</ele>
        <time>2018-06-03T06:37:48.000Z</time>
      </trkpt>
      <trkpt lat="44.52833" lon="4.26104">
        <ele>398</ele>
        <time>2018-06-03T06:37:49.000Z</time>
      </trkpt>
      <trkpt lat="44.52831" lon="4.26104">
        <ele>398</ele>
        <time>2018-06-03T06:37:50.000Z</time>
      </trkpt>
      <trkpt lat="44.5283" lon="4.26103">
        <ele>398</ele>
        <time>2018-06-03T06:37:51.000Z</time>
      </trkpt>
      <trkpt lat="44.52828" lon="4.26102">
        <ele>398</ele>
        <time>2018-06-03T06:37:52.000Z</time>
      </trkpt>
      <trkpt lat="44.52827" lon="4.26101">
        <ele>398</ele>
        <time>2018-06-03T06:37:53.000Z</time>
      </trkpt>
      <trkpt lat="44.52825" lon="4.261">
        <ele>398</ele>
        <time>2018-06-03T06:37:54.000Z</time>
      </trkpt>
      <trkpt lat="44.52823" lon="4.26099">
        <ele>399</ele>
        <time>2018-06-03T06:37:55.000Z</time>
      </trkpt>
      <trkpt lat="44.52821" lon="4.26098">
        <ele>399</ele>
        <time>2018-06-03T06:37:56.000Z</time>
      </trkpt>
      <trkpt lat="44.5282" lon="4.26096">
        <ele>399</ele>
        <time>2018-06-03T06:37:57.000Z</time>
      </trkpt>
      <trkpt lat="44.52818" lon="4.26094">
        <ele>399</ele>
        <time>2018-06-03T06:37:58.000Z</time>
      </trkpt>
      <trkpt lat="44.52817" lon="4.26093">
        <ele>399</ele>
        <time>2018-06-03T06:37:59.000Z</time>
      </trkpt>
      <trkpt lat="44.52816" lon="4.26091">
        <ele>399</ele>
        <time>2018-06-03T06:38:00.000Z</time>
      </trkpt>
      <trkpt lat="44.52815" lon="4.2609">
        <ele>399</ele>
        <time>2018-06-03T06:38:01.000Z</time>
      </trkpt>
      <trkpt lat="44.52814" lon="4.26089">
        <ele>399</ele>
        <time>2018-06-03T06:38:02.000Z</time>
      </trkpt>
      <trkpt lat="44.52813" lon="4.26087">
        <ele>399</ele>
        <time>2018-06-03T06:38:03.000Z</time>
      </trkpt>
      <trkpt lat="44.52813" lon="4.26085">
        <ele>399</ele>
        <time>2018-06-03T06:38:04.000Z</time>
      </trkpt>
      <trkpt lat="44.52812" lon="4.26084">
        <ele>399</ele>
        <time>2018-06-03T06:38:05.000Z</time>
      </trkpt>
      <trkpt lat="44.52811" lon="4.26081">
        <ele>404</ele>
        <time>2018-06-03T06:38:06.000Z</time>
      </trkpt>
      <trkpt lat="44.5281" lon="4.26079">
        <ele>404</ele>
        <time>2018-06-03T06:38:07.000Z</time>
      </trkpt>
      <trkpt lat="44.5281" lon="4.26077">
        <ele>404</ele>
        <time>2018-06-03T06:38:08.000Z</time>
      </trkpt>
      <trkpt lat="44.5281" lon="4.26075">
        <ele>404</ele>
        <time>2018-06-03T06:38:09.000Z</time>
      </trkpt>
      <trkpt lat="44.5281" lon="4.26073">
        <ele>404</ele>
        <time>2018-06-03T06:38:10.000Z</time>
      </trkpt>
      <trkpt lat="44.52809" lon="4.26071">
        <ele>404</ele>
        <time>2018-06-03T06:38:11.000Z</time>
      </trkpt>
      <trkpt lat="44.52808" lon="4.26069">
        <ele>404</ele>
        <time>2018-06-03T06:38:12.000Z</time>
      </trkpt>
      <trkpt lat="44.52807" lon="4.26067">
        <ele>404</ele>
        <time>2018-06-03T06:38:13.000Z</time>
      </trkpt>
      <trkpt lat="44.52806" lon="4.26064">
        <ele>404</ele>
        <time>2018-06-03T06:38:14.000Z</time>
      </trkpt>
      <trkpt lat="44.52805" lon="4.26062">
        <ele>404</ele>
        <time>2018-06-03T06:38:15.000Z</time>
      </trkpt>
      <trkpt lat="44.52804" lon="4.2606">
        <ele>404</ele>
        <time>2018-06-03T06:38:16.000Z</time>
      </trkpt>
      <trkpt lat="44.52804" lon="4.26059">
        <ele>404</ele>
        <time>2018-06-03T06:38:17.000Z</time>
      </trkpt>
      <trkpt lat="44.52803" lon="4.26057">
        <ele>404</ele>
        <time>2018-06-03T06:38:18.000Z</time>
      </trkpt>
      <trkpt lat="44.52803" lon="4.26055">
        <ele>404</ele>
        <time>2018-06-03T06:38:19.000Z</time>
      </trkpt>
      <trkpt lat="44.52802" lon="4.26052">
        <ele>404</ele>
        <time>2018-06-03T06:38:20.000Z</time>
      </trkpt>
      <trkpt lat="44.52802" lon="4.26051">
        <ele>404</ele>
        <time>2018-06-03T06:38:21.000Z</time>
      </trkpt>
      <trkpt lat="44.52802" lon="4.26048">
        <ele>404</ele>
        <time>2018-06-03T06:38:22.000Z</time>
      </trkpt>
      <trkpt lat="44.52801" lon="4.26046">
        <ele>404</ele>
        <time>2018-06-03T06:38:23.000Z</time>
      </trkpt>
      <trkpt lat="44.52801" lon="4.26044">
        <ele>404</ele>
        <time>2018-06-03T06:38:24.000Z</time>
      </trkpt>
      <trkpt lat="44.52801" lon="4.26042">
        <ele>404</ele>
        <time>2018-06-03T06:38:25.000Z</time>
      </trkpt>
      <trkpt lat="44.52802" lon="4.2604">
        <ele>404</ele>
        <time>2018-06-03T06:38:26.000Z</time>
      </trkpt>
      <trkpt lat="44.52803" lon="4.26037">
        <ele>404</ele>
        <time>2018-06-03T06:38:27.000Z</time>
      </trkpt>
      <trkpt lat="44.52805" lon="4.26035">
        <ele>404</ele>
        <time>2018-06-03T06:38:28.000Z</time>
      </trkpt>
      <trkpt lat="44.52807" lon="4.26033">
        <ele>404</ele>
        <time>2018-06-03T06:38:29.000Z</time>
      </trkpt>
      <trkpt lat="44.52809" lon="4.26031">
        <ele>404</ele>
        <time>2018-06-03T06:38:30.000Z</time>
      </trkpt>
      <trkpt lat="44.52811" lon="4.26029">
        <ele>404</ele>
        <time>2018-06-03T06:38:31.000Z</time>
      </trkpt>
      <trkpt lat="44.52813" lon="4.26027">
        <ele>405</ele>
        <time>2018-06-03T06:38:32.000Z</time>
      </trkpt>
      <trkpt lat="44.52815" lon="4.26025">
        <ele>405</ele>
        <time>2018-06-03T06:38:33.000Z</time>
      </trkpt>
      <trkpt lat="44.52817" lon="4.26023">
        <ele>405</ele>
        <time>2018-06-03T06:38:34.000Z</time>
      </trkpt>
      <trkpt lat="44.5282" lon="4.26021">
        <ele>405</ele>
        <time>2018-06-03T06:38:35.000Z</time>
      </trkpt>
      <trkpt lat="44.52822" lon="4.26019">
        <ele>405</ele>
        <time>2018-06-03T06:38:36.000Z</time>
      </trkpt>
      <trkpt lat="44.52824" lon="4.26018">
        <ele>406</ele>
        <time>2018-06-03T06:38:37.000Z</time>
      </trkpt>
      <trkpt lat="44.52826" lon="4.26017">
        <ele>406</ele>
        <time>2018-06-03T06:38:38.000Z</time>
      </trkpt>
      <trkpt lat="44.52828" lon="4.26015">
        <ele>406</ele>
        <time>2018-06-03T06:38:39.000Z</time>
      </trkpt>
      <trkpt lat="44.5283" lon="4.26014">
        <ele>406</ele>
        <time>2018-06-03T06:38:40.000Z</time>
      </trkpt>
      <trkpt lat="44.52832" lon="4.26014">
        <ele>406</ele>
        <time>2018-06-03T06:38:41.000Z</time>
      </trkpt>
      <trkpt lat="44.52834" lon="4.26014">
        <ele>406</ele>
        <time>2018-06-03T06:38:42.000Z</time>
      </trkpt>
      <trkpt lat="44.52837" lon="4.26015">
        <ele>406</ele>
        <time>2018-06-03T06:38:43.000Z</time>
      </trkpt>
      <trkpt lat="44.52839" lon="4.26015">
        <ele>406</ele>
        <time>2018-06-03T06:38:44.000Z</time>
      </trkpt>
      <trkpt lat="44.52842" lon="4.26017">
        <ele>406</ele>
        <time>2018-06-03T06:38:45.000Z</time>
      </trkpt>
      <trkpt lat="44.52844" lon="4.26017">
        <ele>406</ele>
        <time>2018-06-03T06:38:46.000Z</time>
      </trkpt>
      <trkpt lat="44.52847" lon="4.26018">
        <ele>406</ele>
        <time>2018-06-03T06:38:47.000Z</time>
      </trkpt>
      <trkpt lat="44.5285" lon="4.26019">
        <ele>406</ele>
        <time>2018-06-03T06:38:48.000Z</time>
      </trkpt>
      <trkpt lat="44.52853" lon="4.2602">
        <ele>405</ele>
        <time>2018-06-03T06:38:49.000Z</time>
      </trkpt>
      <trkpt lat="44.52856" lon="4.26019">
        <ele>405</ele>
        <time>2018-06-03T06:38:50.000Z</time>
      </trkpt>
      <trkpt lat="44.52859" lon="4.26018">
        <ele>405</ele>
        <time>2018-06-03T06:38:51.000Z</time>
      </trkpt>
      <trkpt lat="44.52861" lon="4.26015">
        <ele>405</ele>
        <time>2018-06-03T06:38:52.000Z</time>
      </trkpt>
      <trkpt lat="44.52862" lon="4.26012">
        <ele>405</ele>
        <time>2018-06-03T06:38:53.000Z</time>
      </trkpt>
      <trkpt lat="44.52862" lon="4.26008">
        <ele>405</ele>
        <time>2018-06-03T06:38:54.000Z</time>
      </trkpt>
      <trkpt lat="44.52863" lon="4.26004">
        <ele>405</ele>
        <time>2018-06-03T06:38:55.000Z</time>
      </trkpt>
      <trkpt lat="44.52863" lon="4.26001">
        <ele>405</ele>
        <time>2018-06-03T06:38:56.000Z</time>
      </trkpt>
      <trkpt lat="44.52863" lon="4.25997">
        <ele>406</ele>
        <time>2018-06-03T06:38:57.000Z</time>
      </trkpt>
      <trkpt lat="44.52864" lon="4.25993">
        <ele>406</ele>
        <time>2018-06-03T06:38:58.000Z</time>
      </trkpt>
      <trkpt lat="44.52864" lon="4.2599">
        <ele>405</ele>
        <time>2018-06-03T06:38:59.000Z</time>
      </trkpt>
      <trkpt lat="44.52865" lon="4.25987">
        <ele>405</ele>
        <time>2018-06-03T06:39:00.000Z</time>
      </trkpt>
      <trkpt lat="44.52866" lon="4.25984">
        <ele>405</ele>
        <time>2018-06-03T06:39:01.000Z</time>
      </trkpt>
      <trkpt lat="44.52866" lon="4.2598">
        <ele>405</ele>
        <time>2018-06-03T06:39:02.000Z</time>
      </trkpt>
      <trkpt lat="44.52867" lon="4.25977">
        <ele>405</ele>
        <time>2018-06-03T06:39:03.000Z</time>
      </trkpt>
      <trkpt lat="44.52868" lon="4.25973">
        <ele>405</ele>
        <time>2018-06-03T06:39:04.000Z</time>
      </trkpt>
      <trkpt lat="44.52868" lon="4.2597">
        <ele>405</ele>
        <time>2018-06-03T06:39:05.000Z</time>
      </trkpt>
      <trkpt lat="44.52869" lon="4.25966">
        <ele>405</ele>
        <time>2018-06-03T06:39:06.000Z</time>
      </trkpt>
      <trkpt lat="44.52869" lon="4.25963">
        <ele>405</ele>
        <time>2018-06-03T06:39:07.000Z</time>
      </trkpt>
      <trkpt lat="44.5287" lon="4.25959">
        <ele>405</ele>
        <time>2018-06-03T06:39:08.000Z</time>
      </trkpt>
      <trkpt lat="44.52871" lon="4.25955">
        <ele>405</ele>
        <time>2018-06-03T06:39:09.000Z</time>
      </trkpt>
      <trkpt lat="44.52872" lon="4.25951">
        <ele>405</ele>
        <time>2018-06-03T06:39:10.000Z</time>
      </trkpt>
      <trkpt lat="44.52874" lon="4.25946">
        <ele>405</ele>
        <time>2018-06-03T06:39:11.000Z</time>
      </trkpt>
      <trkpt lat="44.52875" lon="4.25941">
        <ele>404</ele>
        <time>2018-06-03T06:39:12.000Z</time>
      </trkpt>
      <trkpt lat="44.52877" lon="4.25937">
        <ele>404</ele>
        <time>2018-06-03T06:39:13.000Z</time>
      </trkpt>
      <trkpt lat="44.52879" lon="4.25936">
        <ele>404</ele>
        <time>2018-06-03T06:39:14.000Z</time>
      </trkpt>
      <trkpt lat="44.52882" lon="4.25935">
        <ele>405</ele>
        <time>2018-06-03T06:39:15.000Z</time>
      </trkpt>
      <trkpt lat="44.52887" lon="4.25933">
        <ele>405</ele>
        <time>2018-06-03T06:39:16.000Z</time>
      </trkpt>
      <trkpt lat="44.52891" lon="4.2593">
        <ele>405</ele>
        <time>2018-06-03T06:39:17.000Z</time>
      </trkpt>
      <trkpt lat="44.52893" lon="4.25925">
        <ele>405</ele>
        <time>2018-06-03T06:39:18.000Z</time>
      </trkpt>
      <trkpt lat="44.52894" lon="4.2592">
        <ele>405</ele>
        <time>2018-06-03T06:39:19.000Z</time>
      </trkpt>
      <trkpt lat="44.52894" lon="4.25915">
        <ele>404</ele>
        <time>2018-06-03T06:39:20.000Z</time>
      </trkpt>
      <trkpt lat="44.52895" lon="4.25908">
        <ele>404</ele>
        <time>2018-06-03T06:39:21.000Z</time>
      </trkpt>
      <trkpt lat="44.52894" lon="4.25902">
        <ele>404</ele>
        <time>2018-06-03T06:39:22.000Z</time>
      </trkpt>
      <trkpt lat="44.52895" lon="4.25895">
        <ele>404</ele>
        <time>2018-06-03T06:39:23.000Z</time>
      </trkpt>
      <trkpt lat="44.52895" lon="4.2589">
        <ele>403</ele>
        <time>2018-06-03T06:39:24.000Z</time>
      </trkpt>
      <trkpt lat="44.52896" lon="4.25884">
        <ele>403</ele>
        <time>2018-06-03T06:39:25.000Z</time>
      </trkpt>
      <trkpt lat="44.52896" lon="4.25878">
        <ele>403</ele>
        <time>2018-06-03T06:39:26.000Z</time>
      </trkpt>
      <trkpt lat="44.52896" lon="4.25872">
        <ele>403</ele>
        <time>2018-06-03T06:39:27.000Z</time>
      </trkpt>
      <trkpt lat="44.52896" lon="4.25866">
        <ele>403</ele>
        <time>2018-06-03T06:39:28.000Z</time>
      </trkpt>
      <trkpt lat="44.52896" lon="4.2586">
        <ele>403</ele>
        <time>2018-06-03T06:39:29.000Z</time>
      </trkpt>
      <trkpt lat="44.52895" lon="4.25854">
        <ele>404</ele>
        <time>2018-06-03T06:39:30.000Z</time>
      </trkpt>
      <trkpt lat="44.52894" lon="4.25848">
        <ele>404</ele>
        <time>2018-06-03T06:39:31.000Z</time>
      </trkpt>
      <trkpt lat="44.52892" lon="4.25843">
        <ele>404</ele>
        <time>2018-06-03T06:39:32.000Z</time>
      </trkpt>
      <trkpt lat="44.52891" lon="4.25837">
        <ele>404</ele>
        <time>2018-06-03T06:39:33.000Z</time>
      </trkpt>
      <trkpt lat="44.5289" lon="4.25833">
        <ele>405</ele>
        <time>2018-06-03T06:39:34.000Z</time>
      </trkpt>
      <trkpt lat="44.52891" lon="4.2583">
        <ele>405</ele>
        <time>2018-06-03T06:39:35.000Z</time>
      </trkpt>
      <trkpt lat="44.52893" lon="4.25827">
        <ele>405</ele>
        <time>2018-06-03T06:39:36.000Z</time>
      </trkpt>
      <trkpt lat="44.52894" lon="4.25827">
        <ele>405</ele>
        <time>2018-06-03T06:39:37.000Z</time>
      </trkpt>
      <trkpt lat="44.52896" lon="4.25827">
        <ele>405</ele>
        <time>2018-06-03T06:39:38.000Z</time>
      </trkpt>
      <trkpt lat="44.52899" lon="4.25826">
        <ele>405</ele>
        <time>2018-06-03T06:39:39.000Z</time>
      </trkpt>
      <trkpt lat="44.52902" lon="4.25825">
        <ele>405</ele>
        <time>2018-06-03T06:39:40.000Z</time>
      </trkpt>
      <trkpt lat="44.52905" lon="4.25823">
        <ele>405</ele>
        <time>2018-06-03T06:39:41.000Z</time>
      </trkpt>
      <trkpt lat="44.52908" lon="4.25821">
        <ele>406</ele>
        <time>2018-06-03T06:39:42.000Z</time>
      </trkpt>
      <trkpt lat="44.52911" lon="4.25819">
        <ele>406</ele>
        <time>2018-06-03T06:39:43.000Z</time>
      </trkpt>
      <trkpt lat="44.52915" lon="4.25816">
        <ele>406</ele>
        <time>2018-06-03T06:39:44.000Z</time>
      </trkpt>
      <trkpt lat="44.52918" lon="4.25814">
        <ele>406</ele>
        <time>2018-06-03T06:39:45.000Z</time>
      </trkpt>
      <trkpt lat="44.52921" lon="4.2581">
        <ele>406</ele>
        <time>2018-06-03T06:39:46.000Z</time>
      </trkpt>
      <trkpt lat="44.52923" lon="4.25805">
        <ele>406</ele>
        <time>2018-06-03T06:39:47.000Z</time>
      </trkpt>
      <trkpt lat="44.52924" lon="4.258">
        <ele>406</ele>
        <time>2018-06-03T06:39:48.000Z</time>
      </trkpt>
      <trkpt lat="44.52925" lon="4.25796">
        <ele>406</ele>
        <time>2018-06-03T06:39:49.000Z</time>
      </trkpt>
      <trkpt lat="44.52925" lon="4.25793">
        <ele>406</ele>
        <time>2018-06-03T06:39:50.000Z</time>
      </trkpt>
      <trkpt lat="44.52926" lon="4.2579">
        <ele>407</ele>
        <time>2018-06-03T06:39:51.000Z</time>
      </trkpt>
      <trkpt lat="44.52927" lon="4.25787">
        <ele>407</ele>
        <time>2018-06-03T06:39:52.000Z</time>
      </trkpt>
      <trkpt lat="44.52928" lon="4.25784">
        <ele>407</ele>
        <time>2018-06-03T06:39:53.000Z</time>
      </trkpt>
      <trkpt lat="44.52929" lon="4.25781">
        <ele>407</ele>
        <time>2018-06-03T06:39:54.000Z</time>
      </trkpt>
      <trkpt lat="44.5293" lon="4.25778">
        <ele>407</ele>
        <time>2018-06-03T06:39:55.000Z</time>
      </trkpt>
      <trkpt lat="44.5293" lon="4.25775">
        <ele>408</ele>
        <time>2018-06-03T06:39:56.000Z</time>
      </trkpt>
      <trkpt lat="44.52931" lon="4.25772">
        <ele>408</ele>
        <time>2018-06-03T06:39:57.000Z</time>
      </trkpt>
      <trkpt lat="44.52931" lon="4.2577">
        <ele>408</ele>
        <time>2018-06-03T06:39:58.000Z</time>
      </trkpt>
      <trkpt lat="44.52932" lon="4.25768">
        <ele>408</ele>
        <time>2018-06-03T06:39:59.000Z</time>
      </trkpt>
      <trkpt lat="44.52934" lon="4.25765">
        <ele>408</ele>
        <time>2018-06-03T06:40:00.000Z</time>
      </trkpt>
      <trkpt lat="44.52935" lon="4.25762">
        <ele>408</ele>
        <time>2018-06-03T06:40:01.000Z</time>
      </trkpt>
      <trkpt lat="44.52936" lon="4.25759">
        <ele>409</ele>
        <time>2018-06-03T06:40:02.000Z</time>
      </trkpt>
      <trkpt lat="44.52938" lon="4.25756">
        <ele>409</ele>
        <time>2018-06-03T06:40:03.000Z</time>
      </trkpt>
      <trkpt lat="44.5294" lon="4.25754">
        <ele>408</ele>
        <time>2018-06-03T06:40:04.000Z</time>
      </trkpt>
      <trkpt lat="44.52941" lon="4.25751">
        <ele>408</ele>
        <time>2018-06-03T06:40:05.000Z</time>
      </trkpt>
      <trkpt lat="44.52943" lon="4.25748">
        <ele>412</ele>
        <time>2018-06-03T06:40:06.000Z</time>
      </trkpt>
      <trkpt lat="44.52944" lon="4.25745">
        <ele>412</ele>
        <time>2018-06-03T06:40:07.000Z</time>
      </trkpt>
      <trkpt lat="44.52945" lon="4.25742">
        <ele>412</ele>
        <time>2018-06-03T06:40:08.000Z</time>
      </trkpt>
      <trkpt lat="44.52947" lon="4.25739">
        <ele>412</ele>
        <time>2018-06-03T06:40:09.000Z</time>
      </trkpt>
      <trkpt lat="44.52947" lon="4.25736">
        <ele>412</ele>
        <time>2018-06-03T06:40:10.000Z</time>
      </trkpt>
      <trkpt lat="44.52947" lon="4.25733">
        <ele>412</ele>
        <time>2018-06-03T06:40:11.000Z</time>
      </trkpt>
      <trkpt lat="44.52948" lon="4.25731">
        <ele>412</ele>
        <time>2018-06-03T06:40:12.000Z</time>
      </trkpt>
      <trkpt lat="44.52948" lon="4.25728">
        <ele>412</ele>
        <time>2018-06-03T06:40:13.000Z</time>
      </trkpt>
      <trkpt lat="44.52948" lon="4.25726">
        <ele>412</ele>
        <time>2018-06-03T06:40:14.000Z</time>
      </trkpt>
      <trkpt lat="44.52948" lon="4.25723">
        <ele>412</ele>
        <time>2018-06-03T06:40:15.000Z</time>
      </trkpt>
      <trkpt lat="44.52948" lon="4.2572">
        <ele>412</ele>
        <time>2018-06-03T06:40:16.000Z</time>
      </trkpt>
      <trkpt lat="44.52948" lon="4.25718">
        <ele>412</ele>
        <time>2018-06-03T06:40:17.000Z</time>
      </trkpt>
      <trkpt lat="44.52947" lon="4.25715">
        <ele>412</ele>
        <time>2018-06-03T06:40:18.000Z</time>
      </trkpt>
      <trkpt lat="44.52947" lon="4.25713">
        <ele>413</ele>
        <time>2018-06-03T06:40:19.000Z</time>
      </trkpt>
      <trkpt lat="44.52947" lon="4.2571">
        <ele>413</ele>
        <time>2018-06-03T06:40:20.000Z</time>
      </trkpt>
      <trkpt lat="44.52947" lon="4.25707">
        <ele>413</ele>
        <time>2018-06-03T06:40:21.000Z</time>
      </trkpt>
      <trkpt lat="44.52946" lon="4.25704">
        <ele>413</ele>
        <time>2018-06-03T06:40:22.000Z</time>
      </trkpt>
      <trkpt lat="44.52945" lon="4.25701">
        <ele>413</ele>
        <time>2018-06-03T06:40:23.000Z</time>
      </trkpt>
      <trkpt lat="44.52945" lon="4.25697">
        <ele>413</ele>
        <time>2018-06-03T06:40:24.000Z</time>
      </trkpt>
      <trkpt lat="44.52945" lon="4.25695">
        <ele>413</ele>
        <time>2018-06-03T06:40:25.000Z</time>
      </trkpt>
      <trkpt lat="44.52944" lon="4.25693">
        <ele>413</ele>
        <time>2018-06-03T06:40:26.000Z</time>
      </trkpt>
      <trkpt lat="44.52944" lon="4.2569">
        <ele>413</ele>
        <time>2018-06-03T06:40:27.000Z</time>
      </trkpt>
      <trkpt lat="44.52944" lon="4.25687">
        <ele>414</ele>
        <time>2018-06-03T06:40:28.000Z</time>
      </trkpt>
      <trkpt lat="44.52943" lon="4.25684">
        <ele>414</ele>
        <time>2018-06-03T06:40:29.000Z</time>
      </trkpt>
      <trkpt lat="44.52943" lon="4.25681">
        <ele>414</ele>
        <time>2018-06-03T06:40:30.000Z</time>
      </trkpt>
      <trkpt lat="44.52942" lon="4.25678">
        <ele>414</ele>
        <time>2018-06-03T06:40:31.000Z</time>
      </trkpt>
      <trkpt lat="44.52942" lon="4.25675">
        <ele>414</ele>
        <time>2018-06-03T06:40:32.000Z</time>
      </trkpt>
      <trkpt lat="44.52942" lon="4.25671">
        <ele>414</ele>
        <time>2018-06-03T06:40:33.000Z</time>
      </trkpt>
      <trkpt lat="44.52942" lon="4.25667">
        <ele>414</ele>
        <time>2018-06-03T06:40:34.000Z</time>
      </trkpt>
      <trkpt lat="44.52942" lon="4.25664">
        <ele>417</ele>
        <time>2018-06-03T06:40:35.000Z</time>
      </trkpt>
      <trkpt lat="44.52943" lon="4.25661">
        <ele>417</ele>
        <time>2018-06-03T06:40:36.000Z</time>
      </trkpt>
      <trkpt lat="44.52943" lon="4.25658">
        <ele>417</ele>
        <time>2018-06-03T06:40:37.000Z</time>
      </trkpt>
      <trkpt lat="44.52944" lon="4.25655">
        <ele>417</ele>
        <time>2018-06-03T06:40:38.000Z</time>
      </trkpt>
      <trkpt lat="44.52944" lon="4.25652">
        <ele>417</ele>
        <time>2018-06-03T06:40:39.000Z</time>
      </trkpt>
      <trkpt lat="44.52945" lon="4.25649">
        <ele>417</ele>
        <time>2018-06-03T06:40:40.000Z</time>
      </trkpt>
      <trkpt lat="44.52945" lon="4.25646">
        <ele>417</ele>
        <time>2018-06-03T06:40:41.000Z</time>
      </trkpt>
      <trkpt lat="44.52946" lon="4.25643">
        <ele>417</ele>
        <time>2018-06-03T06:40:42.000Z</time>
      </trkpt>
      <trkpt lat="44.52946" lon="4.2564">
        <ele>417</ele>
        <time>2018-06-03T06:40:43.000Z</time>
      </trkpt>
      <trkpt lat="44.52946" lon="4.25636">
        <ele>417</ele>
        <time>2018-06-03T06:40:44.000Z</time>
      </trkpt>
      <trkpt lat="44.52946" lon="4.25633">
        <ele>417</ele>
        <time>2018-06-03T06:40:45.000Z</time>
      </trkpt>
      <trkpt lat="44.52947" lon="4.25629">
        <ele>417</ele>
        <time>2018-06-03T06:40:46.000Z</time>
      </trkpt>
      <trkpt lat="44.52947" lon="4.25626">
        <ele>417</ele>
        <time>2018-06-03T06:40:47.000Z</time>
      </trkpt>
      <trkpt lat="44.52948" lon="4.25622">
        <ele>417</ele>
        <time>2018-06-03T06:40:48.000Z</time>
      </trkpt>
      <trkpt lat="44.52948" lon="4.25618">
        <ele>417</ele>
        <time>2018-06-03T06:40:49.000Z</time>
      </trkpt>
      <trkpt lat="44.52948" lon="4.25614">
        <ele>417</ele>
        <time>2018-06-03T06:40:50.000Z</time>
      </trkpt>
      <trkpt lat="44.52949" lon="4.2561">
        <ele>417</ele>
        <time>2018-06-03T06:40:51.000Z</time>
      </trkpt>
      <trkpt lat="44.52949" lon="4.25606">
        <ele>417</ele>
        <time>2018-06-03T06:40:52.000Z</time>
      </trkpt>
      <trkpt lat="44.52949" lon="4.25603">
        <ele>417</ele>
        <time>2018-06-03T06:40:53.000Z</time>
      </trkpt>
      <trkpt lat="44.52949" lon="4.25599">
        <ele>417</ele>
        <time>2018-06-03T06:40:54.000Z</time>
      </trkpt>
      <trkpt lat="44.52949" lon="4.25595">
        <ele>418</ele>
        <time>2018-06-03T06:40:55.000Z</time>
      </trkpt>
      <trkpt lat="44.52949" lon="4.25591">
        <ele>418</ele>
        <time>2018-06-03T06:40:56.000Z</time>
      </trkpt>
      <trkpt lat="44.52949" lon="4.25588">
        <ele>418</ele>
        <time>2018-06-03T06:40:57.000Z</time>
      </trkpt>
      <trkpt lat="44.52949" lon="4.25585">
        <ele>418</ele>
        <time>2018-06-03T06:40:58.000Z</time>
      </trkpt>
      <trkpt lat="44.52949" lon="4.25581">
        <ele>419</ele>
        <time>2018-06-03T06:40:59.000Z</time>
      </trkpt>
      <trkpt lat="44.52949" lon="4.25577">
        <ele>419</ele>
        <time>2018-06-03T06:41:00.000Z</time>
      </trkpt>
      <trkpt lat="44.52949" lon="4.25573">
        <ele>419</ele>
        <time>2018-06-03T06:41:01.000Z</time>
      </trkpt>
      <trkpt lat="44.52948" lon="4.2557">
        <ele>420</ele>
        <time>2018-06-03T06:41:02.000Z</time>
      </trkpt>
      <trkpt lat="44.52948" lon="4.25566">
        <ele>419</ele>
        <time>2018-06-03T06:41:03.000Z</time>
      </trkpt>
      <trkpt lat="44.52948" lon="4.25563">
        <ele>419</ele>
        <time>2018-06-03T06:41:04.000Z</time>
      </trkpt>
      <trkpt lat="44.52948" lon="4.25559">
        <ele>420</ele>
        <time>2018-06-03T06:41:05.000Z</time>
      </trkpt>
      <trkpt lat="44.52948" lon="4.25555">
        <ele>420</ele>
        <time>2018-06-03T06:41:06.000Z</time>
      </trkpt>
      <trkpt lat="44.52948" lon="4.25552">
        <ele>420</ele>
        <time>2018-06-03T06:41:07.000Z</time>
      </trkpt>
      <trkpt lat="44.52948" lon="4.25549">
        <ele>420</ele>
        <time>2018-06-03T06:41:08.000Z</time>
      </trkpt>
      <trkpt lat="44.52948" lon="4.25545">
        <ele>420</ele>
        <time>2018-06-03T06:41:09.000Z</time>
      </trkpt>
      <trkpt lat="44.52947" lon="4.25541">
        <ele>420</ele>
        <time>2018-06-03T06:41:10.000Z</time>
      </trkpt>
      <trkpt lat="44.52947" lon="4.25538">
        <ele>420</ele>
        <time>2018-06-03T06:41:11.000Z</time>
      </trkpt>
      <trkpt lat="44.52947" lon="4.25535">
        <ele>420</ele>
        <time>2018-06-03T06:41:12.000Z</time>
      </trkpt>
      <trkpt lat="44.52946" lon="4.25532">
        <ele>420</ele>
        <time>2018-06-03T06:41:13.000Z</time>
      </trkpt>
      <trkpt lat="44.52946" lon="4.25529">
        <ele>420</ele>
        <time>2018-06-03T06:41:14.000Z</time>
      </trkpt>
      <trkpt lat="44.52946" lon="4.25526">
        <ele>420</ele>
        <time>2018-06-03T06:41:15.000Z</time>
      </trkpt>
      <trkpt lat="44.52946" lon="4.25523">
        <ele>420</ele>
        <time>2018-06-03T06:41:16.000Z</time>
      </trkpt>
      <trkpt lat="44.52946" lon="4.25521">
        <ele>420</ele>
        <time>2018-06-03T06:41:17.000Z</time>
      </trkpt>
      <trkpt lat="44.52946" lon="4.25518">
        <ele>420</ele>
        <time>2018-06-03T06:41:18.000Z</time>
      </trkpt>
      <trkpt lat="44.52946" lon="4.25515">
        <ele>420</ele>
        <time>2018-06-03T06:41:19.000Z</time>
      </trkpt>
      <trkpt lat="44.52946" lon="4.25512">
        <ele>420</ele>
        <time>2018-06-03T06:41:20.000Z</time>
      </trkpt>
      <trkpt lat="44.52946" lon="4.25509">
        <ele>420</ele>
        <time>2018-06-03T06:41:21.000Z</time>
      </trkpt>
      <trkpt lat="44.52945" lon="4.25507">
        <ele>421</ele>
        <time>2018-06-03T06:41:22.000Z</time>
      </trkpt>
      <trkpt lat="44.52945" lon="4.25504">
        <ele>421</ele>
        <time>2018-06-03T06:41:23.000Z</time>
      </trkpt>
      <trkpt lat="44.52945" lon="4.25501">
        <ele>421</ele>
        <time>2018-06-03T06:41:24.000Z</time>
      </trkpt>
      <trkpt lat="44.52945" lon="4.25498">
        <ele>422</ele>
        <time>2018-06-03T06:41:25.000Z</time>
      </trkpt>
      <trkpt lat="44.52945" lon="4.25496">
        <ele>422</ele>
        <time>2018-06-03T06:41:26.000Z</time>
      </trkpt>
      <trkpt lat="44.52945" lon="4.25493">
        <ele>422</ele>
        <time>2018-06-03T06:41:27.000Z</time>
      </trkpt>
      <trkpt lat="44.52945" lon="4.2549">
        <ele>422</ele>
        <time>2018-06-03T06:41:28.000Z</time>
      </trkpt>
      <trkpt lat="44.52945" lon="4.25488">
        <ele>422</ele>
        <time>2018-06-03T06:41:29.000Z</time>
      </trkpt>
      <trkpt lat="44.52946" lon="4.25485">
        <ele>422</ele>
        <time>2018-06-03T06:41:30.000Z</time>
      </trkpt>
      <trkpt lat="44.52947" lon="4.25481">
        <ele>422</ele>
        <time>2018-06-03T06:41:31.000Z</time>
      </trkpt>
      <trkpt lat="44.52948" lon="4.25479">
        <ele>422</ele>
        <time>2018-06-03T06:41:32.000Z</time>
      </trkpt>
      <trkpt lat="44.52949" lon="4.25476">
        <ele>422</ele>
        <time>2018-06-03T06:41:33.000Z</time>
      </trkpt>
      <trkpt lat="44.52949" lon="4.25473">
        <ele>422</ele>
        <time>2018-06-03T06:41:34.000Z</time>
      </trkpt>
      <trkpt lat="44.5295" lon="4.25469">
        <ele>422</ele>
        <time>2018-06-03T06:41:35.000Z</time>
      </trkpt>
      <trkpt lat="44.5295" lon="4.25466">
        <ele>422</ele>
        <time>2018-06-03T06:41:36.000Z</time>
      </trkpt>
      <trkpt lat="44.52951" lon="4.25462">
        <ele>422</ele>
        <time>2018-06-03T06:41:37.000Z</time>
      </trkpt>
      <trkpt lat="44.52951" lon="4.25459">
        <ele>422</ele>
        <time>2018-06-03T06:41:38.000Z</time>
      </trkpt>
      <trkpt lat="44.52952" lon="4.25456">
        <ele>422</ele>
        <time>2018-06-03T06:41:39.000Z</time>
      </trkpt>
      <trkpt lat="44.52953" lon="4.25452">
        <ele>422</ele>
        <time>2018-06-03T06:41:40.000Z</time>
      </trkpt>
      <trkpt lat="44.52955" lon="4.25449">
        <ele>422</ele>
        <time>2018-06-03T06:41:41.000Z</time>
      </trkpt>
      <trkpt lat="44.52956" lon="4.25445">
        <ele>422</ele>
        <time>2018-06-03T06:41:42.000Z</time>
      </trkpt>
      <trkpt lat="44.52957" lon="4.25442">
        <ele>422</ele>
        <time>2018-06-03T06:41:43.000Z</time>
      </trkpt>
      <trkpt lat="44.52958" lon="4.25438">
        <ele>422</ele>
        <time>2018-06-03T06:41:44.000Z</time>
      </trkpt>
      <trkpt lat="44.52959" lon="4.25435">
        <ele>422</ele>
        <time>2018-06-03T06:41:45.000Z</time>
      </trkpt>
      <trkpt lat="44.5296" lon="4.25432">
        <ele>422</ele>
        <time>2018-06-03T06:41:46.000Z</time>
      </trkpt>
      <trkpt lat="44.5296" lon="4.25428">
        <ele>423</ele>
        <time>2018-06-03T06:41:47.000Z</time>
      </trkpt>
      <trkpt lat="44.5296" lon="4.25424">
        <ele>423</ele>
        <time>2018-06-03T06:41:48.000Z</time>
      </trkpt>
      <trkpt lat="44.52961" lon="4.25421">
        <ele>423</ele>
        <time>2018-06-03T06:41:49.000Z</time>
      </trkpt>
      <trkpt lat="44.52961" lon="4.25416">
        <ele>428</ele>
        <time>2018-06-03T06:41:50.000Z</time>
      </trkpt>
      <trkpt lat="44.52963" lon="4.25412">
        <ele>428</ele>
        <time>2018-06-03T06:41:51.000Z</time>
      </trkpt>
      <trkpt lat="44.52965" lon="4.25409">
        <ele>428</ele>
        <time>2018-06-03T06:41:52.000Z</time>
      </trkpt>
      <trkpt lat="44.52966" lon="4.25405">
        <ele>428</ele>
        <time>2018-06-03T06:41:53.000Z</time>
      </trkpt>
      <trkpt lat="44.52967" lon="4.25402">
        <ele>428</ele>
        <time>2018-06-03T06:41:54.000Z</time>
      </trkpt>
      <trkpt lat="44.52969" lon="4.25398">
        <ele>428</ele>
        <time>2018-06-03T06:41:55.000Z</time>
      </trkpt>
      <trkpt lat="44.5297" lon="4.25395">
        <ele>428</ele>
        <time>2018-06-03T06:41:56.000Z</time>
      </trkpt>
      <trkpt lat="44.52972" lon="4.25391">
        <ele>428</ele>
        <time>2018-06-03T06:41:57.000Z</time>
      </trkpt>
      <trkpt lat="44.52974" lon="4.25388">
        <ele>428</ele>
        <time>2018-06-03T06:41:58.000Z</time>
      </trkpt>
      <trkpt lat="44.52975" lon="4.25384">
        <ele>429</ele>
        <time>2018-06-03T06:41:59.000Z</time>
      </trkpt>
      <trkpt lat="44.52977" lon="4.25381">
        <ele>429</ele>
        <time>2018-06-03T06:42:00.000Z</time>
      </trkpt>
      <trkpt lat="44.52979" lon="4.25378">
        <ele>429</ele>
        <time>2018-06-03T06:42:01.000Z</time>
      </trkpt>
      <trkpt lat="44.5298" lon="4.25375">
        <ele>430</ele>
        <time>2018-06-03T06:42:02.000Z</time>
      </trkpt>
      <trkpt lat="44.52982" lon="4.25372">
        <ele>430</ele>
        <time>2018-06-03T06:42:03.000Z</time>
      </trkpt>
      <trkpt lat="44.52984" lon="4.25369">
        <ele>430</ele>
        <time>2018-06-03T06:42:04.000Z</time>
      </trkpt>
      <trkpt lat="44.52986" lon="4.25365">
        <ele>431</ele>
        <time>2018-06-03T06:42:05.000Z</time>
      </trkpt>
      <trkpt lat="44.52987" lon="4.25362">
        <ele>431</ele>
        <time>2018-06-03T06:42:06.000Z</time>
      </trkpt>
      <trkpt lat="44.52989" lon="4.25358">
        <ele>431</ele>
        <time>2018-06-03T06:42:07.000Z</time>
      </trkpt>
      <trkpt lat="44.5299" lon="4.25355">
        <ele>432</ele>
        <time>2018-06-03T06:42:08.000Z</time>
      </trkpt>
      <trkpt lat="44.52992" lon="4.25352">
        <ele>432</ele>
        <time>2018-06-03T06:42:09.000Z</time>
      </trkpt>
      <trkpt lat="44.52994" lon="4.25349">
        <ele>433</ele>
        <time>2018-06-03T06:42:10.000Z</time>
      </trkpt>
      <trkpt lat="44.52995" lon="4.25346">
        <ele>433</ele>
        <time>2018-06-03T06:42:11.000Z</time>
      </trkpt>
      <trkpt lat="44.52997" lon="4.25343">
        <ele>434</ele>
        <time>2018-06-03T06:42:12.000Z</time>
      </trkpt>
      <trkpt lat="44.52998" lon="4.25339">
        <ele>435</ele>
        <time>2018-06-03T06:42:13.000Z</time>
      </trkpt>
      <trkpt lat="44.53" lon="4.25336">
        <ele>434</ele>
        <time>2018-06-03T06:42:14.000Z</time>
      </trkpt>
      <trkpt lat="44.53002" lon="4.25333">
        <ele>436</ele>
        <time>2018-06-03T06:42:15.000Z</time>
      </trkpt>
      <trkpt lat="44.53005" lon="4.25331">
        <ele>435</ele>
        <time>2018-06-03T06:42:16.000Z</time>
      </trkpt>
      <trkpt lat="44.53007" lon="4.25328">
        <ele>435</ele>
        <time>2018-06-03T06:42:17.000Z</time>
      </trkpt>
      <trkpt lat="44.53008" lon="4.25325">
        <ele>435</ele>
        <time>2018-06-03T06:42:18.000Z</time>
      </trkpt>
      <trkpt lat="44.5301" lon="4.25323">
        <ele>435</ele>
        <time>2018-06-03T06:42:19.000Z</time>
      </trkpt>
      <trkpt lat="44.53012" lon="4.2532">
        <ele>435</ele>
        <time>2018-06-03T06:42:20.000Z</time>
      </trkpt>
      <trkpt lat="44.53014" lon="4.25317">
        <ele>434</ele>
        <time>2018-06-03T06:42:21.000Z</time>
      </trkpt>
      <trkpt lat="44.53015" lon="4.25315">
        <ele>434</ele>
        <time>2018-06-03T06:42:22.000Z</time>
      </trkpt>
      <trkpt lat="44.53017" lon="4.25312">
        <ele>434</ele>
        <time>2018-06-03T06:42:23.000Z</time>
      </trkpt>
      <trkpt lat="44.53019" lon="4.2531">
        <ele>434</ele>
        <time>2018-06-03T06:42:24.000Z</time>
      </trkpt>
      <trkpt lat="44.53021" lon="4.25308">
        <ele>434</ele>
        <time>2018-06-03T06:42:25.000Z</time>
      </trkpt>
      <trkpt lat="44.53023" lon="4.25306">
        <ele>434</ele>
        <time>2018-06-03T06:42:26.000Z</time>
      </trkpt>
      <trkpt lat="44.53025" lon="4.25303">
        <ele>434</ele>
        <time>2018-06-03T06:42:27.000Z</time>
      </trkpt>
      <trkpt lat="44.53027" lon="4.25301">
        <ele>434</ele>
        <time>2018-06-03T06:42:28.000Z</time>
      </trkpt>
      <trkpt lat="44.53029" lon="4.25298">
        <ele>434</ele>
        <time>2018-06-03T06:42:29.000Z</time>
      </trkpt>
      <trkpt lat="44.5303" lon="4.25296">
        <ele>434</ele>
        <time>2018-06-03T06:42:30.000Z</time>
      </trkpt>
      <trkpt lat="44.53032" lon="4.25293">
        <ele>434</ele>
        <time>2018-06-03T06:42:31.000Z</time>
      </trkpt>
      <trkpt lat="44.53033" lon="4.25291">
        <ele>434</ele>
        <time>2018-06-03T06:42:32.000Z</time>
      </trkpt>
      <trkpt lat="44.53035" lon="4.25288">
        <ele>434</ele>
        <time>2018-06-03T06:42:33.000Z</time>
      </trkpt>
      <trkpt lat="44.53037" lon="4.25285">
        <ele>434</ele>
        <time>2018-06-03T06:42:34.000Z</time>
      </trkpt>
      <trkpt lat="44.53038" lon="4.25283">
        <ele>434</ele>
        <time>2018-06-03T06:42:35.000Z</time>
      </trkpt>
      <trkpt lat="44.5304" lon="4.2528">
        <ele>434</ele>
        <time>2018-06-03T06:42:36.000Z</time>
      </trkpt>
      <trkpt lat="44.53042" lon="4.25278">
        <ele>434</ele>
        <time>2018-06-03T06:42:37.000Z</time>
      </trkpt>
      <trkpt lat="44.53043" lon="4.25275">
        <ele>434</ele>
        <time>2018-06-03T06:42:38.000Z</time>
      </trkpt>
      <trkpt lat="44.53045" lon="4.25273">
        <ele>434</ele>
        <time>2018-06-03T06:42:39.000Z</time>
      </trkpt>
      <trkpt lat="44.53046" lon="4.2527">
        <ele>434</ele>
        <time>2018-06-03T06:42:40.000Z</time>
      </trkpt>
      <trkpt lat="44.53048" lon="4.25268">
        <ele>434</ele>
        <time>2018-06-03T06:42:41.000Z</time>
      </trkpt>
      <trkpt lat="44.53049" lon="4.25265">
        <ele>434</ele>
        <time>2018-06-03T06:42:42.000Z</time>
      </trkpt>
      <trkpt lat="44.5305" lon="4.25262">
        <ele>434</ele>
        <time>2018-06-03T06:42:43.000Z</time>
      </trkpt>
      <trkpt lat="44.53052" lon="4.25259">
        <ele>434</ele>
        <time>2018-06-03T06:42:44.000Z</time>
      </trkpt>
      <trkpt lat="44.53053" lon="4.25256">
        <ele>434</ele>
        <time>2018-06-03T06:42:45.000Z</time>
      </trkpt>
      <trkpt lat="44.53054" lon="4.25254">
        <ele>434</ele>
        <time>2018-06-03T06:42:46.000Z</time>
      </trkpt>
      <trkpt lat="44.53055" lon="4.25251">
        <ele>434</ele>
        <time>2018-06-03T06:42:47.000Z</time>
      </trkpt>
      <trkpt lat="44.53056" lon="4.25248">
        <ele>439</ele>
        <time>2018-06-03T06:42:48.000Z</time>
      </trkpt>
      <trkpt lat="44.53058" lon="4.25245">
        <ele>439</ele>
        <time>2018-06-03T06:42:49.000Z</time>
      </trkpt>
      <trkpt lat="44.53059" lon="4.25242">
        <ele>439</ele>
        <time>2018-06-03T06:42:50.000Z</time>
      </trkpt>
      <trkpt lat="44.5306" lon="4.25239">
        <ele>439</ele>
        <time>2018-06-03T06:42:51.000Z</time>
      </trkpt>
      <trkpt lat="44.53061" lon="4.25237">
        <ele>439</ele>
        <time>2018-06-03T06:42:52.000Z</time>
      </trkpt>
      <trkpt lat="44.53062" lon="4.25234">
        <ele>439</ele>
        <time>2018-06-03T06:42:53.000Z</time>
      </trkpt>
      <trkpt lat="44.53063" lon="4.25231">
        <ele>439</ele>
        <time>2018-06-03T06:42:54.000Z</time>
      </trkpt>
      <trkpt lat="44.53064" lon="4.25228">
        <ele>439</ele>
        <time>2018-06-03T06:42:55.000Z</time>
      </trkpt>
      <trkpt lat="44.53065" lon="4.25225">
        <ele>439</ele>
        <time>2018-06-03T06:42:56.000Z</time>
      </trkpt>
      <trkpt lat="44.53066" lon="4.25223">
        <ele>439</ele>
        <time>2018-06-03T06:42:57.000Z</time>
      </trkpt>
      <trkpt lat="44.53067" lon="4.2522">
        <ele>440</ele>
        <time>2018-06-03T06:42:58.000Z</time>
      </trkpt>
      <trkpt lat="44.53068" lon="4.25218">
        <ele>440</ele>
        <time>2018-06-03T06:42:59.000Z</time>
      </trkpt>
      <trkpt lat="44.53069" lon="4.25215">
        <ele>440</ele>
        <time>2018-06-03T06:43:00.000Z</time>
      </trkpt>
      <trkpt lat="44.5307" lon="4.25212">
        <ele>440</ele>
        <time>2018-06-03T06:43:01.000Z</time>
      </trkpt>
      <trkpt lat="44.53071" lon="4.2521">
        <ele>440</ele>
        <time>2018-06-03T06:43:02.000Z</time>
      </trkpt>
      <trkpt lat="44.53072" lon="4.25207">
        <ele>440</ele>
        <time>2018-06-03T06:43:03.000Z</time>
      </trkpt>
      <trkpt lat="44.53073" lon="4.25205">
        <ele>440</ele>
        <time>2018-06-03T06:43:04.000Z</time>
      </trkpt>
      <trkpt lat="44.53074" lon="4.25202">
        <ele>441</ele>
        <time>2018-06-03T06:43:05.000Z</time>
      </trkpt>
      <trkpt lat="44.53075" lon="4.25199">
        <ele>441</ele>
        <time>2018-06-03T06:43:06.000Z</time>
      </trkpt>
      <trkpt lat="44.53076" lon="4.25197">
        <ele>441</ele>
        <time>2018-06-03T06:43:07.000Z</time>
      </trkpt>
      <trkpt lat="44.53077" lon="4.25194">
        <ele>441</ele>
        <time>2018-06-03T06:43:08.000Z</time>
      </trkpt>
      <trkpt lat="44.53077" lon="4.25192">
        <ele>441</ele>
        <time>2018-06-03T06:43:09.000Z</time>
      </trkpt>
      <trkpt lat="44.53078" lon="4.25189">
        <ele>441</ele>
        <time>2018-06-03T06:43:10.000Z</time>
      </trkpt>
      <trkpt lat="44.53079" lon="4.25186">
        <ele>441</ele>
        <time>2018-06-03T06:43:11.000Z</time>
      </trkpt>
      <trkpt lat="44.5308" lon="4.25182">
        <ele>441</ele>
        <time>2018-06-03T06:43:12.000Z</time>
      </trkpt>
      <trkpt lat="44.53081" lon="4.25179">
        <ele>442</ele>
        <time>2018-06-03T06:43:13.000Z</time>
      </trkpt>
      <trkpt lat="44.53082" lon="4.25176">
        <ele>442</ele>
        <time>2018-06-03T06:43:14.000Z</time>
      </trkpt>
      <trkpt lat="44.53083" lon="4.25172">
        <ele>442</ele>
        <time>2018-06-03T06:43:15.000Z</time>
      </trkpt>
      <trkpt lat="44.53084" lon="4.25169">
        <ele>440</ele>
        <time>2018-06-03T06:43:16.000Z</time>
      </trkpt>
      <trkpt lat="44.53084" lon="4.25165">
        <ele>442</ele>
        <time>2018-06-03T06:43:17.000Z</time>
      </trkpt>
      <trkpt lat="44.53085" lon="4.25162">
        <ele>441</ele>
        <time>2018-06-03T06:43:18.000Z</time>
      </trkpt>
      <trkpt lat="44.53086" lon="4.25158">
        <ele>440</ele>
        <time>2018-06-03T06:43:19.000Z</time>
      </trkpt>
      <trkpt lat="44.53087" lon="4.25154">
        <ele>440</ele>
        <time>2018-06-03T06:43:20.000Z</time>
      </trkpt>
      <trkpt lat="44.53087" lon="4.2515">
        <ele>440</ele>
        <time>2018-06-03T06:43:21.000Z</time>
      </trkpt>
      <trkpt lat="44.53088" lon="4.25147">
        <ele>439</ele>
        <time>2018-06-03T06:43:22.000Z</time>
      </trkpt>
      <trkpt lat="44.53089" lon="4.25143">
        <ele>439</ele>
        <time>2018-06-03T06:43:23.000Z</time>
      </trkpt>
      <trkpt lat="44.53089" lon="4.2514">
        <ele>439</ele>
        <time>2018-06-03T06:43:24.000Z</time>
      </trkpt>
      <trkpt lat="44.5309" lon="4.25137">
        <ele>439</ele>
        <time>2018-06-03T06:43:25.000Z</time>
      </trkpt>
      <trkpt lat="44.53091" lon="4.25134">
        <ele>439</ele>
        <time>2018-06-03T06:43:26.000Z</time>
      </trkpt>
      <trkpt lat="44.53091" lon="4.25132">
        <ele>439</ele>
        <time>2018-06-03T06:43:27.000Z</time>
      </trkpt>
      <trkpt lat="44.53092" lon="4.25129">
        <ele>439</ele>
        <time>2018-06-03T06:43:28.000Z</time>
      </trkpt>
      <trkpt lat="44.53093" lon="4.25125">
        <ele>440</ele>
        <time>2018-06-03T06:43:29.000Z</time>
      </trkpt>
      <trkpt lat="44.53094" lon="4.25122">
        <ele>440</ele>
        <time>2018-06-03T06:43:30.000Z</time>
      </trkpt>
      <trkpt lat="44.53095" lon="4.25119">
        <ele>440</ele>
        <time>2018-06-03T06:43:31.000Z</time>
      </trkpt>
      <trkpt lat="44.53096" lon="4.25116">
        <ele>440</ele>
        <time>2018-06-03T06:43:32.000Z</time>
      </trkpt>
      <trkpt lat="44.53096" lon="4.25113">
        <ele>441</ele>
        <time>2018-06-03T06:43:33.000Z</time>
      </trkpt>
      <trkpt lat="44.53097" lon="4.25109">
        <ele>441</ele>
        <time>2018-06-03T06:43:34.000Z</time>
      </trkpt>
      <trkpt lat="44.53098" lon="4.25105">
        <ele>441</ele>
        <time>2018-06-03T06:43:35.000Z</time>
      </trkpt>
      <trkpt lat="44.53099" lon="4.25102">
        <ele>442</ele>
        <time>2018-06-03T06:43:36.000Z</time>
      </trkpt>
      <trkpt lat="44.53101" lon="4.25099">
        <ele>442</ele>
        <time>2018-06-03T06:43:37.000Z</time>
      </trkpt>
      <trkpt lat="44.53103" lon="4.25096">
        <ele>442</ele>
        <time>2018-06-03T06:43:38.000Z</time>
      </trkpt>
      <trkpt lat="44.53103" lon="4.25093">
        <ele>442</ele>
        <time>2018-06-03T06:43:39.000Z</time>
      </trkpt>
      <trkpt lat="44.53104" lon="4.2509">
        <ele>442</ele>
        <time>2018-06-03T06:43:40.000Z</time>
      </trkpt>
      <trkpt lat="44.53105" lon="4.25087">
        <ele>442</ele>
        <time>2018-06-03T06:43:41.000Z</time>
      </trkpt>
      <trkpt lat="44.53106" lon="4.25084">
        <ele>442</ele>
        <time>2018-06-03T06:43:42.000Z</time>
      </trkpt>
      <trkpt lat="44.53107" lon="4.25081">
        <ele>446</ele>
        <time>2018-06-03T06:43:43.000Z</time>
      </trkpt>
      <trkpt lat="44.53108" lon="4.25077">
        <ele>446</ele>
        <time>2018-06-03T06:43:44.000Z</time>
      </trkpt>
      <trkpt lat="44.53109" lon="4.25074">
        <ele>446</ele>
        <time>2018-06-03T06:43:45.000Z</time>
      </trkpt>
      <trkpt lat="44.53109" lon="4.2507">
        <ele>446</ele>
        <time>2018-06-03T06:43:46.000Z</time>
      </trkpt>
      <trkpt lat="44.5311" lon="4.25067">
        <ele>446</ele>
        <time>2018-06-03T06:43:47.000Z</time>
      </trkpt>
      <trkpt lat="44.53111" lon="4.25063">
        <ele>445</ele>
        <time>2018-06-03T06:43:48.000Z</time>
      </trkpt>
      <trkpt lat="44.53111" lon="4.25059">
        <ele>445</ele>
        <time>2018-06-03T06:43:49.000Z</time>
      </trkpt>
      <trkpt lat="44.53111" lon="4.25056">
        <ele>445</ele>
        <time>2018-06-03T06:43:50.000Z</time>
      </trkpt>
      <trkpt lat="44.53112" lon="4.25053">
        <ele>445</ele>
        <time>2018-06-03T06:43:51.000Z</time>
      </trkpt>
      <trkpt lat="44.53112" lon="4.25049">
        <ele>445</ele>
        <time>2018-06-03T06:43:52.000Z</time>
      </trkpt>
      <trkpt lat="44.53112" lon="4.25045">
        <ele>445</ele>
        <time>2018-06-03T06:43:53.000Z</time>
      </trkpt>
      <trkpt lat="44.53111" lon="4.25041">
        <ele>445</ele>
        <time>2018-06-03T06:43:54.000Z</time>
      </trkpt>
      <trkpt lat="44.53111" lon="4.25036">
        <ele>445</ele>
        <time>2018-06-03T06:43:55.000Z</time>
      </trkpt>
      <trkpt lat="44.53111" lon="4.25032">
        <ele>445</ele>
        <time>2018-06-03T06:43:56.000Z</time>
      </trkpt>
      <trkpt lat="44.5311" lon="4.25027">
        <ele>445</ele>
        <time>2018-06-03T06:43:57.000Z</time>
      </trkpt>
      <trkpt lat="44.53108" lon="4.25023">
        <ele>445</ele>
        <time>2018-06-03T06:43:58.000Z</time>
      </trkpt>
      <trkpt lat="44.53105" lon="4.25021">
        <ele>445</ele>
        <time>2018-06-03T06:43:59.000Z</time>
      </trkpt>
      <trkpt lat="44.53103" lon="4.25022">
        <ele>445</ele>
        <time>2018-06-03T06:44:00.000Z</time>
      </trkpt>
      <trkpt lat="44.531" lon="4.25023">
        <ele>445</ele>
        <time>2018-06-03T06:44:01.000Z</time>
      </trkpt>
      <trkpt lat="44.53098" lon="4.25026">
        <ele>445</ele>
        <time>2018-06-03T06:44:02.000Z</time>
      </trkpt>
      <trkpt lat="44.53095" lon="4.25028">
        <ele>445</ele>
        <time>2018-06-03T06:44:03.000Z</time>
      </trkpt>
      <trkpt lat="44.53093" lon="4.25031">
        <ele>445</ele>
        <time>2018-06-03T06:44:04.000Z</time>
      </trkpt>
      <trkpt lat="44.5309" lon="4.25035">
        <ele>445</ele>
        <time>2018-06-03T06:44:05.000Z</time>
      </trkpt>
      <trkpt lat="44.53088" lon="4.25038">
        <ele>445</ele>
        <time>2018-06-03T06:44:06.000Z</time>
      </trkpt>
      <trkpt lat="44.53085" lon="4.25042">
        <ele>446</ele>
        <time>2018-06-03T06:44:07.000Z</time>
      </trkpt>
      <trkpt lat="44.53082" lon="4.25046">
        <ele>442</ele>
        <time>2018-06-03T06:44:08.000Z</time>
      </trkpt>
      <trkpt lat="44.53079" lon="4.2505">
        <ele>443</ele>
        <time>2018-06-03T06:44:09.000Z</time>
      </trkpt>
      <trkpt lat="44.53077" lon="4.25055">
        <ele>443</ele>
        <time>2018-06-03T06:44:10.000Z</time>
      </trkpt>
      <trkpt lat="44.53074" lon="4.2506">
        <ele>444</ele>
        <time>2018-06-03T06:44:11.000Z</time>
      </trkpt>
      <trkpt lat="44.53072" lon="4.25065">
        <ele>444</ele>
        <time>2018-06-03T06:44:12.000Z</time>
      </trkpt>
      <trkpt lat="44.53069" lon="4.25069">
        <ele>444</ele>
        <time>2018-06-03T06:44:13.000Z</time>
      </trkpt>
      <trkpt lat="44.53066" lon="4.25074">
        <ele>444</ele>
        <time>2018-06-03T06:44:14.000Z</time>
      </trkpt>
      <trkpt lat="44.53064" lon="4.25079">
        <ele>444</ele>
        <time>2018-06-03T06:44:15.000Z</time>
      </trkpt>
      <trkpt lat="44.53061" lon="4.25084">
        <ele>446</ele>
        <time>2018-06-03T06:44:16.000Z</time>
      </trkpt>
      <trkpt lat="44.53059" lon="4.25089">
        <ele>446</ele>
        <time>2018-06-03T06:44:17.000Z</time>
      </trkpt>
      <trkpt lat="44.53056" lon="4.25093">
        <ele>446</ele>
        <time>2018-06-03T06:44:18.000Z</time>
      </trkpt>
      <trkpt lat="44.53052" lon="4.25098">
        <ele>445</ele>
        <time>2018-06-03T06:44:19.000Z</time>
      </trkpt>
      <trkpt lat="44.53048" lon="4.25102">
        <ele>445</ele>
        <time>2018-06-03T06:44:20.000Z</time>
      </trkpt>
      <trkpt lat="44.53044" lon="4.25107">
        <ele>444</ele>
        <time>2018-06-03T06:44:21.000Z</time>
      </trkpt>
      <trkpt lat="44.5304" lon="4.25112">
        <ele>444</ele>
        <time>2018-06-03T06:44:22.000Z</time>
      </trkpt>
      <trkpt lat="44.53037" lon="4.25118">
        <ele>444</ele>
        <time>2018-06-03T06:44:23.000Z</time>
      </trkpt>
      <trkpt lat="44.53033" lon="4.25123">
        <ele>444</ele>
        <time>2018-06-03T06:44:24.000Z</time>
      </trkpt>
      <trkpt lat="44.5303" lon="4.25128">
        <ele>444</ele>
        <time>2018-06-03T06:44:25.000Z</time>
      </trkpt>
      <trkpt lat="44.53027" lon="4.25133">
        <ele>444</ele>
        <time>2018-06-03T06:44:26.000Z</time>
      </trkpt>
      <trkpt lat="44.53024" lon="4.25138">
        <ele>444</ele>
        <time>2018-06-03T06:44:27.000Z</time>
      </trkpt>
      <trkpt lat="44.5302" lon="4.25143">
        <ele>444</ele>
        <time>2018-06-03T06:44:28.000Z</time>
      </trkpt>
      <trkpt lat="44.53016" lon="4.25147">
        <ele>444</ele>
        <time>2018-06-03T06:44:29.000Z</time>
      </trkpt>
      <trkpt lat="44.53012" lon="4.25151">
        <ele>445</ele>
        <time>2018-06-03T06:44:30.000Z</time>
      </trkpt>
      <trkpt lat="44.53008" lon="4.25157">
        <ele>445</ele>
        <time>2018-06-03T06:44:31.000Z</time>
      </trkpt>
      <trkpt lat="44.53005" lon="4.25163">
        <ele>445</ele>
        <time>2018-06-03T06:44:32.000Z</time>
      </trkpt>
      <trkpt lat="44.53002" lon="4.25168">
        <ele>446</ele>
        <time>2018-06-03T06:44:33.000Z</time>
      </trkpt>
      <trkpt lat="44.52999" lon="4.25174">
        <ele>445</ele>
        <time>2018-06-03T06:44:34.000Z</time>
      </trkpt>
      <trkpt lat="44.52995" lon="4.25179">
        <ele>444</ele>
        <time>2018-06-03T06:44:35.000Z</time>
      </trkpt>
      <trkpt lat="44.52991" lon="4.25184">
        <ele>444</ele>
        <time>2018-06-03T06:44:36.000Z</time>
      </trkpt>
      <trkpt lat="44.52986" lon="4.25189">
        <ele>443</ele>
        <time>2018-06-03T06:44:37.000Z</time>
      </trkpt>
      <trkpt lat="44.52981" lon="4.25194">
        <ele>443</ele>
        <time>2018-06-03T06:44:38.000Z</time>
      </trkpt>
      <trkpt lat="44.52975" lon="4.25199">
        <ele>442</ele>
        <time>2018-06-03T06:44:39.000Z</time>
      </trkpt>
      <trkpt lat="44.5297" lon="4.25204">
        <ele>442</ele>
        <time>2018-06-03T06:44:40.000Z</time>
      </trkpt>
      <trkpt lat="44.52965" lon="4.25209">
        <ele>442</ele>
        <time>2018-06-03T06:44:41.000Z</time>
      </trkpt>
      <trkpt lat="44.5296" lon="4.25213">
        <ele>442</ele>
        <time>2018-06-03T06:44:42.000Z</time>
      </trkpt>
      <trkpt lat="44.52956" lon="4.25217">
        <ele>441</ele>
        <time>2018-06-03T06:44:43.000Z</time>
      </trkpt>
      <trkpt lat="44.52952" lon="4.25221">
        <ele>441</ele>
        <time>2018-06-03T06:44:44.000Z</time>
      </trkpt>
      <trkpt lat="44.52948" lon="4.25224">
        <ele>441</ele>
        <time>2018-06-03T06:44:45.000Z</time>
      </trkpt>
      <trkpt lat="44.52946" lon="4.25225">
        <ele>441</ele>
        <time>2018-06-03T06:44:46.000Z</time>
      </trkpt>
      <trkpt lat="44.52943" lon="4.25226">
        <ele>441</ele>
        <time>2018-06-03T06:44:47.000Z</time>
      </trkpt>
      <trkpt lat="44.52938" lon="4.25227">
        <ele>440</ele>
        <time>2018-06-03T06:44:48.000Z</time>
      </trkpt>
      <trkpt lat="44.52934" lon="4.25229">
        <ele>440</ele>
        <time>2018-06-03T06:44:49.000Z</time>
      </trkpt>
      <trkpt lat="44.52929" lon="4.25231">
        <ele>440</ele>
        <time>2018-06-03T06:44:50.000Z</time>
      </trkpt>
      <trkpt lat="44.52924" lon="4.25234">
        <ele>440</ele>
        <time>2018-06-03T06:44:51.000Z</time>
      </trkpt>
      <trkpt lat="44.52919" lon="4.25235">
        <ele>439</ele>
        <time>2018-06-03T06:44:52.000Z</time>
      </trkpt>
      <trkpt lat="44.52915" lon="4.25233">
        <ele>435</ele>
        <time>2018-06-03T06:44:53.000Z</time>
      </trkpt>
      <trkpt lat="44.5291" lon="4.25229">
        <ele>434</ele>
        <time>2018-06-03T06:44:54.000Z</time>
      </trkpt>
      <trkpt lat="44.52906" lon="4.25226">
        <ele>434</ele>
        <time>2018-06-03T06:44:55.000Z</time>
      </trkpt>
      <trkpt lat="44.52901" lon="4.25224">
        <ele>433</ele>
        <time>2018-06-03T06:44:56.000Z</time>
      </trkpt>
      <trkpt lat="44.52895" lon="4.25223">
        <ele>433</ele>
        <time>2018-06-03T06:44:57.000Z</time>
      </trkpt>
      <trkpt lat="44.52888" lon="4.25224">
        <ele>432</ele>
        <time>2018-06-03T06:44:58.000Z</time>
      </trkpt>
      <trkpt lat="44.52881" lon="4.25225">
        <ele>432</ele>
        <time>2018-06-03T06:44:59.000Z</time>
      </trkpt>
      <trkpt lat="44.52875" lon="4.25224">
        <ele>431</ele>
        <time>2018-06-03T06:45:00.000Z</time>
      </trkpt>
      <trkpt lat="44.52868" lon="4.25223">
        <ele>431</ele>
        <time>2018-06-03T06:45:01.000Z</time>
      </trkpt>
      <trkpt lat="44.52861" lon="4.25221">
        <ele>430</ele>
        <time>2018-06-03T06:45:02.000Z</time>
      </trkpt>
      <trkpt lat="44.52855" lon="4.25219">
        <ele>430</ele>
        <time>2018-06-03T06:45:03.000Z</time>
      </trkpt>
      <trkpt lat="44.52849" lon="4.25218">
        <ele>429</ele>
        <time>2018-06-03T06:45:04.000Z</time>
      </trkpt>
      <trkpt lat="44.52842" lon="4.25218">
        <ele>429</ele>
        <time>2018-06-03T06:45:05.000Z</time>
      </trkpt>
      <trkpt lat="44.52835" lon="4.25217">
        <ele>429</ele>
        <time>2018-06-03T06:45:06.000Z</time>
      </trkpt>
      <trkpt lat="44.52828" lon="4.25217">
        <ele>422</ele>
        <time>2018-06-03T06:45:07.000Z</time>
      </trkpt>
      <trkpt lat="44.52821" lon="4.25217">
        <ele>422</ele>
        <time>2018-06-03T06:45:08.000Z</time>
      </trkpt>
      <trkpt lat="44.52814" lon="4.25218">
        <ele>422</ele>
        <time>2018-06-03T06:45:09.000Z</time>
      </trkpt>
      <trkpt lat="44.52808" lon="4.25219">
        <ele>422</ele>
        <time>2018-06-03T06:45:10.000Z</time>
      </trkpt>
      <trkpt lat="44.52803" lon="4.25218">
        <ele>422</ele>
        <time>2018-06-03T06:45:11.000Z</time>
      </trkpt>
      <trkpt lat="44.52799" lon="4.2522">
        <ele>421</ele>
        <time>2018-06-03T06:45:12.000Z</time>
      </trkpt>
      <trkpt lat="44.52796" lon="4.25221">
        <ele>421</ele>
        <time>2018-06-03T06:45:13.000Z</time>
      </trkpt>
      <trkpt lat="44.52795" lon="4.25224">
        <ele>421</ele>
        <time>2018-06-03T06:45:14.000Z</time>
      </trkpt>
      <trkpt lat="44.52795" lon="4.25228">
        <ele>421</ele>
        <time>2018-06-03T06:45:15.000Z</time>
      </trkpt>
      <trkpt lat="44.52794" lon="4.25233">
        <ele>421</ele>
        <time>2018-06-03T06:45:16.000Z</time>
      </trkpt>
      <trkpt lat="44.52794" lon="4.25238">
        <ele>421</ele>
        <time>2018-06-03T06:45:17.000Z</time>
      </trkpt>
      <trkpt lat="44.52793" lon="4.25242">
        <ele>421</ele>
        <time>2018-06-03T06:45:18.000Z</time>
      </trkpt>
      <trkpt lat="44.52792" lon="4.25245">
        <ele>421</ele>
        <time>2018-06-03T06:45:19.000Z</time>
      </trkpt>
      <trkpt lat="44.52789" lon="4.25248">
        <ele>420</ele>
        <time>2018-06-03T06:45:20.000Z</time>
      </trkpt>
      <trkpt lat="44.52786" lon="4.2525">
        <ele>420</ele>
        <time>2018-06-03T06:45:21.000Z</time>
      </trkpt>
      <trkpt lat="44.52782" lon="4.2525">
        <ele>418</ele>
        <time>2018-06-03T06:45:22.000Z</time>
      </trkpt>
      <trkpt lat="44.52777" lon="4.25249">
        <ele>419</ele>
        <time>2018-06-03T06:45:23.000Z</time>
      </trkpt>
      <trkpt lat="44.52773" lon="4.25248">
        <ele>419</ele>
        <time>2018-06-03T06:45:24.000Z</time>
      </trkpt>
      <trkpt lat="44.52768" lon="4.25247">
        <ele>418</ele>
        <time>2018-06-03T06:45:25.000Z</time>
      </trkpt>
      <trkpt lat="44.52763" lon="4.25246">
        <ele>418</ele>
        <time>2018-06-03T06:45:26.000Z</time>
      </trkpt>
      <trkpt lat="44.52759" lon="4.25247">
        <ele>417</ele>
        <time>2018-06-03T06:45:27.000Z</time>
      </trkpt>
      <trkpt lat="44.52756" lon="4.2525">
        <ele>415</ele>
        <time>2018-06-03T06:45:28.000Z</time>
      </trkpt>
      <trkpt lat="44.52752" lon="4.25252">
        <ele>415</ele>
        <time>2018-06-03T06:45:29.000Z</time>
      </trkpt>
      <trkpt lat="44.52749" lon="4.25251">
        <ele>414</ele>
        <time>2018-06-03T06:45:30.000Z</time>
      </trkpt>
      <trkpt lat="44.52747" lon="4.25247">
        <ele>414</ele>
        <time>2018-06-03T06:45:31.000Z</time>
      </trkpt>
      <trkpt lat="44.52745" lon="4.25244">
        <ele>414</ele>
        <time>2018-06-03T06:45:32.000Z</time>
      </trkpt>
      <trkpt lat="44.52742" lon="4.2524">
        <ele>413</ele>
        <time>2018-06-03T06:45:33.000Z</time>
      </trkpt>
      <trkpt lat="44.52739" lon="4.25236">
        <ele>413</ele>
        <time>2018-06-03T06:45:34.000Z</time>
      </trkpt>
      <trkpt lat="44.52735" lon="4.25232">
        <ele>412</ele>
        <time>2018-06-03T06:45:35.000Z</time>
      </trkpt>
      <trkpt lat="44.52732" lon="4.25229">
        <ele>412</ele>
        <time>2018-06-03T06:45:36.000Z</time>
      </trkpt>
      <trkpt lat="44.52728" lon="4.25224">
        <ele>412</ele>
        <time>2018-06-03T06:45:37.000Z</time>
      </trkpt>
      <trkpt lat="44.52723" lon="4.25221">
        <ele>411</ele>
        <time>2018-06-03T06:45:38.000Z</time>
      </trkpt>
      <trkpt lat="44.52719" lon="4.25217">
        <ele>411</ele>
        <time>2018-06-03T06:45:39.000Z</time>
      </trkpt>
      <trkpt lat="44.52714" lon="4.25213">
        <ele>411</ele>
        <time>2018-06-03T06:45:40.000Z</time>
      </trkpt>
      <trkpt lat="44.5271" lon="4.25209">
        <ele>410</ele>
        <time>2018-06-03T06:45:41.000Z</time>
      </trkpt>
      <trkpt lat="44.52707" lon="4.25204">
        <ele>410</ele>
        <time>2018-06-03T06:45:42.000Z</time>
      </trkpt>
      <trkpt lat="44.52703" lon="4.25199">
        <ele>410</ele>
        <time>2018-06-03T06:45:43.000Z</time>
      </trkpt>
      <trkpt lat="44.527" lon="4.25195">
        <ele>410</ele>
        <time>2018-06-03T06:45:44.000Z</time>
      </trkpt>
      <trkpt lat="44.52696" lon="4.25191">
        <ele>409</ele>
        <time>2018-06-03T06:45:45.000Z</time>
      </trkpt>
      <trkpt lat="44.52692" lon="4.25186">
        <ele>409</ele>
        <time>2018-06-03T06:45:46.000Z</time>
      </trkpt>
      <trkpt lat="44.52688" lon="4.25184">
        <ele>409</ele>
        <time>2018-06-03T06:45:47.000Z</time>
      </trkpt>
      <trkpt lat="44.52685" lon="4.25184">
        <ele>408</ele>
        <time>2018-06-03T06:45:48.000Z</time>
      </trkpt>
      <trkpt lat="44.52683" lon="4.25185">
        <ele>408</ele>
        <time>2018-06-03T06:45:49.000Z</time>
      </trkpt>
      <trkpt lat="44.52682" lon="4.25186">
        <ele>408</ele>
        <time>2018-06-03T06:45:50.000Z</time>
      </trkpt>
      <trkpt lat="44.52682" lon="4.25187">
        <ele>408</ele>
        <time>2018-06-03T06:45:51.000Z</time>
      </trkpt>
      <trkpt lat="44.52682" lon="4.25189">
        <ele>408</ele>
        <time>2018-06-03T06:45:52.000Z</time>
      </trkpt>
      <trkpt lat="44.52679" lon="4.25191">
        <ele>408</ele>
        <time>2018-06-03T06:45:53.000Z</time>
      </trkpt>
      <trkpt lat="44.52677" lon="4.25192">
        <ele>408</ele>
        <time>2018-06-03T06:45:54.000Z</time>
      </trkpt>
      <trkpt lat="44.52675" lon="4.25192">
        <ele>408</ele>
        <time>2018-06-03T06:45:55.000Z</time>
      </trkpt>
      <trkpt lat="44.52673" lon="4.2519">
        <ele>408</ele>
        <time>2018-06-03T06:45:56.000Z</time>
      </trkpt>
      <trkpt lat="44.52671" lon="4.25189">
        <ele>408</ele>
        <time>2018-06-03T06:45:57.000Z</time>
      </trkpt>
      <trkpt lat="44.52669" lon="4.25189">
        <ele>408</ele>
        <time>2018-06-03T06:45:58.000Z</time>
      </trkpt>
      <trkpt lat="44.52667" lon="4.25191">
        <ele>397</ele>
        <time>2018-06-03T06:45:59.000Z</time>
      </trkpt>
      <trkpt lat="44.52665" lon="4.25195">
        <ele>397</ele>
        <time>2018-06-03T06:46:00.000Z</time>
      </trkpt>
      <trkpt lat="44.52664" lon="4.25199">
        <ele>396</ele>
        <time>2018-06-03T06:46:01.000Z</time>
      </trkpt>
      <trkpt lat="44.52663" lon="4.25203">
        <ele>396</ele>
        <time>2018-06-03T06:46:02.000Z</time>
      </trkpt>
      <trkpt lat="44.52664" lon="4.25206">
        <ele>396</ele>
        <time>2018-06-03T06:46:03.000Z</time>
      </trkpt>
      <trkpt lat="44.52664" lon="4.25209">
        <ele>396</ele>
        <time>2018-06-03T06:46:04.000Z</time>
      </trkpt>
      <trkpt lat="44.52664" lon="4.25212">
        <ele>396</ele>
        <time>2018-06-03T06:46:05.000Z</time>
      </trkpt>
      <trkpt lat="44.52663" lon="4.25214">
        <ele>396</ele>
        <time>2018-06-03T06:46:06.000Z</time>
      </trkpt>
      <trkpt lat="44.52659" lon="4.25214">
        <ele>396</ele>
        <time>2018-06-03T06:46:07.000Z</time>
      </trkpt>
      <trkpt lat="44.52655" lon="4.25211">
        <ele>395</ele>
        <time>2018-06-03T06:46:08.000Z</time>
      </trkpt>
      <trkpt lat="44.52651" lon="4.25206">
        <ele>395</ele>
        <time>2018-06-03T06:46:09.000Z</time>
      </trkpt>
      <trkpt lat="44.52647" lon="4.25204">
        <ele>395</ele>
        <time>2018-06-03T06:46:10.000Z</time>
      </trkpt>
      <trkpt lat="44.52642" lon="4.25201">
        <ele>394</ele>
        <time>2018-06-03T06:46:11.000Z</time>
      </trkpt>
      <trkpt lat="44.52638" lon="4.25198">
        <ele>393</ele>
        <time>2018-06-03T06:46:12.000Z</time>
      </trkpt>
      <trkpt lat="44.52633" lon="4.25193">
        <ele>393</ele>
        <time>2018-06-03T06:46:13.000Z</time>
      </trkpt>
      <trkpt lat="44.52629" lon="4.25188">
        <ele>392</ele>
        <time>2018-06-03T06:46:14.000Z</time>
      </trkpt>
      <trkpt lat="44.52625" lon="4.25182">
        <ele>391</ele>
        <time>2018-06-03T06:46:15.000Z</time>
      </trkpt>
      <trkpt lat="44.52622" lon="4.25175">
        <ele>391</ele>
        <time>2018-06-03T06:46:16.000Z</time>
      </trkpt>
      <trkpt lat="44.5262" lon="4.25168">
        <ele>390</ele>
        <time>2018-06-03T06:46:17.000Z</time>
      </trkpt>
      <trkpt lat="44.52619" lon="4.25161">
        <ele>386</ele>
        <time>2018-06-03T06:46:18.000Z</time>
      </trkpt>
      <trkpt lat="44.52617" lon="4.25153">
        <ele>386</ele>
        <time>2018-06-03T06:46:19.000Z</time>
      </trkpt>
      <trkpt lat="44.52615" lon="4.25145">
        <ele>385</ele>
        <time>2018-06-03T06:46:20.000Z</time>
      </trkpt>
      <trkpt lat="44.52614" lon="4.25136">
        <ele>385</ele>
        <time>2018-06-03T06:46:21.000Z</time>
      </trkpt>
      <trkpt lat="44.52614" lon="4.25129">
        <ele>384</ele>
        <time>2018-06-03T06:46:22.000Z</time>
      </trkpt>
      <trkpt lat="44.52614" lon="4.25122">
        <ele>384</ele>
        <time>2018-06-03T06:46:23.000Z</time>
      </trkpt>
      <trkpt lat="44.52615" lon="4.25116">
        <ele>384</ele>
        <time>2018-06-03T06:46:24.000Z</time>
      </trkpt>
      <trkpt lat="44.52615" lon="4.25109">
        <ele>383</ele>
        <time>2018-06-03T06:46:25.000Z</time>
      </trkpt>
      <trkpt lat="44.52617" lon="4.25103">
        <ele>383</ele>
        <time>2018-06-03T06:46:26.000Z</time>
      </trkpt>
      <trkpt lat="44.52619" lon="4.25098">
        <ele>383</ele>
        <time>2018-06-03T06:46:27.000Z</time>
      </trkpt>
      <trkpt lat="44.52622" lon="4.25093">
        <ele>384</ele>
        <time>2018-06-03T06:46:28.000Z</time>
      </trkpt>
      <trkpt lat="44.52625" lon="4.25089">
        <ele>384</ele>
        <time>2018-06-03T06:46:29.000Z</time>
      </trkpt>
      <trkpt lat="44.52628" lon="4.25084">
        <ele>385</ele>
        <time>2018-06-03T06:46:30.000Z</time>
      </trkpt>
      <trkpt lat="44.52631" lon="4.25079">
        <ele>378</ele>
        <time>2018-06-03T06:46:31.000Z</time>
      </trkpt>
      <trkpt lat="44.52636" lon="4.25076">
        <ele>379</ele>
        <time>2018-06-03T06:46:32.000Z</time>
      </trkpt>
      <trkpt lat="44.5264" lon="4.25072">
        <ele>379</ele>
        <time>2018-06-03T06:46:33.000Z</time>
      </trkpt>
      <trkpt lat="44.52644" lon="4.25068">
        <ele>380</ele>
        <time>2018-06-03T06:46:34.000Z</time>
      </trkpt>
      <trkpt lat="44.52647" lon="4.25065">
        <ele>380</ele>
        <time>2018-06-03T06:46:35.000Z</time>
      </trkpt>
      <trkpt lat="44.52649" lon="4.25063">
        <ele>380</ele>
        <time>2018-06-03T06:46:36.000Z</time>
      </trkpt>
      <trkpt lat="44.5265" lon="4.25063">
        <ele>380</ele>
        <time>2018-06-03T06:46:37.000Z</time>
      </trkpt>
      <trkpt lat="44.52649" lon="4.25063">
        <ele>380</ele>
        <time>2018-06-03T06:46:38.000Z</time>
      </trkpt>
      <trkpt lat="44.52649" lon="4.25061">
        <ele>380</ele>
        <time>2018-06-03T06:46:39.000Z</time>
      </trkpt>
      <trkpt lat="44.5265" lon="4.25059">
        <ele>379</ele>
        <time>2018-06-03T06:46:40.000Z</time>
      </trkpt>
      <trkpt lat="44.52652" lon="4.25056">
        <ele>379</ele>
        <time>2018-06-03T06:46:41.000Z</time>
      </trkpt>
      <trkpt lat="44.52654" lon="4.25054">
        <ele>379</ele>
        <time>2018-06-03T06:46:42.000Z</time>
      </trkpt>
      <trkpt lat="44.52656" lon="4.2505">
        <ele>379</ele>
        <time>2018-06-03T06:46:43.000Z</time>
      </trkpt>
      <trkpt lat="44.52659" lon="4.25047">
        <ele>378</ele>
        <time>2018-06-03T06:46:44.000Z</time>
      </trkpt>
      <trkpt lat="44.52662" lon="4.25044">
        <ele>378</ele>
        <time>2018-06-03T06:46:45.000Z</time>
      </trkpt>
      <trkpt lat="44.52666" lon="4.25043">
        <ele>378</ele>
        <time>2018-06-03T06:46:46.000Z</time>
      </trkpt>
      <trkpt lat="44.52669" lon="4.25042">
        <ele>388</ele>
        <time>2018-06-03T06:46:47.000Z</time>
      </trkpt>
      <trkpt lat="44.52673" lon="4.25042">
        <ele>388</ele>
        <time>2018-06-03T06:46:48.000Z</time>
      </trkpt>
      <trkpt lat="44.52677" lon="4.25041">
        <ele>388</ele>
        <time>2018-06-03T06:46:49.000Z</time>
      </trkpt>
      <trkpt lat="44.52681" lon="4.25041">
        <ele>388</ele>
        <time>2018-06-03T06:46:50.000Z</time>
      </trkpt>
      <trkpt lat="44.52686" lon="4.25041">
        <ele>388</ele>
        <time>2018-06-03T06:46:51.000Z</time>
      </trkpt>
      <trkpt lat="44.5269" lon="4.25041">
        <ele>389</ele>
        <time>2018-06-03T06:46:52.000Z</time>
      </trkpt>
      <trkpt lat="44.52694" lon="4.25041">
        <ele>389</ele>
        <time>2018-06-03T06:46:53.000Z</time>
      </trkpt>
      <trkpt lat="44.52699" lon="4.25041">
        <ele>389</ele>
        <time>2018-06-03T06:46:54.000Z</time>
      </trkpt>
      <trkpt lat="44.52704" lon="4.2504">
        <ele>389</ele>
        <time>2018-06-03T06:46:55.000Z</time>
      </trkpt>
      <trkpt lat="44.52708" lon="4.25039">
        <ele>389</ele>
        <time>2018-06-03T06:46:56.000Z</time>
      </trkpt>
      <trkpt lat="44.52713" lon="4.25039">
        <ele>390</ele>
        <time>2018-06-03T06:46:57.000Z</time>
      </trkpt>
      <trkpt lat="44.52717" lon="4.25038">
        <ele>390</ele>
        <time>2018-06-03T06:46:58.000Z</time>
      </trkpt>
      <trkpt lat="44.52722" lon="4.25037">
        <ele>390</ele>
        <time>2018-06-03T06:46:59.000Z</time>
      </trkpt>
      <trkpt lat="44.52726" lon="4.25036">
        <ele>390</ele>
        <time>2018-06-03T06:47:00.000Z</time>
      </trkpt>
      <trkpt lat="44.52731" lon="4.25034">
        <ele>390</ele>
        <time>2018-06-03T06:47:01.000Z</time>
      </trkpt>
      <trkpt lat="44.52736" lon="4.25032">
        <ele>389</ele>
        <time>2018-06-03T06:47:02.000Z</time>
      </trkpt>
      <trkpt lat="44.52741" lon="4.2503">
        <ele>389</ele>
        <time>2018-06-03T06:47:03.000Z</time>
      </trkpt>
      <trkpt lat="44.52746" lon="4.25029">
        <ele>389</ele>
        <time>2018-06-03T06:47:04.000Z</time>
      </trkpt>
      <trkpt lat="44.52751" lon="4.25029">
        <ele>393</ele>
        <time>2018-06-03T06:47:05.000Z</time>
      </trkpt>
      <trkpt lat="44.52756" lon="4.25028">
        <ele>393</ele>
        <time>2018-06-03T06:47:06.000Z</time>
      </trkpt>
      <trkpt lat="44.52761" lon="4.25028">
        <ele>394</ele>
        <time>2018-06-03T06:47:07.000Z</time>
      </trkpt>
      <trkpt lat="44.52766" lon="4.25028">
        <ele>394</ele>
        <time>2018-06-03T06:47:08.000Z</time>
      </trkpt>
      <trkpt lat="44.52771" lon="4.25028">
        <ele>394</ele>
        <time>2018-06-03T06:47:09.000Z</time>
      </trkpt>
      <trkpt lat="44.52775" lon="4.25028">
        <ele>395</ele>
        <time>2018-06-03T06:47:10.000Z</time>
      </trkpt>
      <trkpt lat="44.5278" lon="4.25028">
        <ele>395</ele>
        <time>2018-06-03T06:47:11.000Z</time>
      </trkpt>
      <trkpt lat="44.52785" lon="4.25029">
        <ele>396</ele>
        <time>2018-06-03T06:47:12.000Z</time>
      </trkpt>
      <trkpt lat="44.52789" lon="4.2503">
        <ele>396</ele>
        <time>2018-06-03T06:47:13.000Z</time>
      </trkpt>
      <trkpt lat="44.52792" lon="4.2503">
        <ele>396</ele>
        <time>2018-06-03T06:47:14.000Z</time>
      </trkpt>
      <trkpt lat="44.52796" lon="4.25031">
        <ele>396</ele>
        <time>2018-06-03T06:47:15.000Z</time>
      </trkpt>
      <trkpt lat="44.528" lon="4.25032">
        <ele>397</ele>
        <time>2018-06-03T06:47:16.000Z</time>
      </trkpt>
      <trkpt lat="44.52804" lon="4.25032">
        <ele>397</ele>
        <time>2018-06-03T06:47:17.000Z</time>
      </trkpt>
      <trkpt lat="44.52809" lon="4.25033">
        <ele>397</ele>
        <time>2018-06-03T06:47:18.000Z</time>
      </trkpt>
      <trkpt lat="44.52813" lon="4.25033">
        <ele>397</ele>
        <time>2018-06-03T06:47:19.000Z</time>
      </trkpt>
      <trkpt lat="44.52817" lon="4.25032">
        <ele>397</ele>
        <time>2018-06-03T06:47:20.000Z</time>
      </trkpt>
      <trkpt lat="44.52821" lon="4.25032">
        <ele>397</ele>
        <time>2018-06-03T06:47:21.000Z</time>
      </trkpt>
      <trkpt lat="44.52826" lon="4.25031">
        <ele>397</ele>
        <time>2018-06-03T06:47:22.000Z</time>
      </trkpt>
      <trkpt lat="44.5283" lon="4.25031">
        <ele>397</ele>
        <time>2018-06-03T06:47:23.000Z</time>
      </trkpt>
      <trkpt lat="44.52834" lon="4.25031">
        <ele>402</ele>
        <time>2018-06-03T06:47:24.000Z</time>
      </trkpt>
      <trkpt lat="44.52838" lon="4.25031">
        <ele>402</ele>
        <time>2018-06-03T06:47:25.000Z</time>
      </trkpt>
      <trkpt lat="44.52842" lon="4.2503">
        <ele>402</ele>
        <time>2018-06-03T06:47:26.000Z</time>
      </trkpt>
      <trkpt lat="44.52847" lon="4.2503">
        <ele>402</ele>
        <time>2018-06-03T06:47:27.000Z</time>
      </trkpt>
      <trkpt lat="44.52851" lon="4.25029">
        <ele>402</ele>
        <time>2018-06-03T06:47:28.000Z</time>
      </trkpt>
      <trkpt lat="44.52855" lon="4.25029">
        <ele>403</ele>
        <time>2018-06-03T06:47:29.000Z</time>
      </trkpt>
      <trkpt lat="44.5286" lon="4.25028">
        <ele>403</ele>
        <time>2018-06-03T06:47:30.000Z</time>
      </trkpt>
      <trkpt lat="44.52864" lon="4.25028">
        <ele>403</ele>
        <time>2018-06-03T06:47:31.000Z</time>
      </trkpt>
      <trkpt lat="44.52869" lon="4.25028">
        <ele>404</ele>
        <time>2018-06-03T06:47:32.000Z</time>
      </trkpt>
      <trkpt lat="44.52873" lon="4.25027">
        <ele>404</ele>
        <time>2018-06-03T06:47:33.000Z</time>
      </trkpt>
      <trkpt lat="44.52877" lon="4.25026">
        <ele>404</ele>
        <time>2018-06-03T06:47:34.000Z</time>
      </trkpt>
      <trkpt lat="44.52881" lon="4.25025">
        <ele>404</ele>
        <time>2018-06-03T06:47:35.000Z</time>
      </trkpt>
      <trkpt lat="44.52885" lon="4.25023">
        <ele>404</ele>
        <time>2018-06-03T06:47:36.000Z</time>
      </trkpt>
      <trkpt lat="44.5289" lon="4.25022">
        <ele>404</ele>
        <time>2018-06-03T06:47:37.000Z</time>
      </trkpt>
      <trkpt lat="44.52895" lon="4.25021">
        <ele>404</ele>
        <time>2018-06-03T06:47:38.000Z</time>
      </trkpt>
      <trkpt lat="44.52899" lon="4.25019">
        <ele>404</ele>
        <time>2018-06-03T06:47:39.000Z</time>
      </trkpt>
      <trkpt lat="44.52904" lon="4.25017">
        <ele>403</ele>
        <time>2018-06-03T06:47:40.000Z</time>
      </trkpt>
      <trkpt lat="44.52909" lon="4.25015">
        <ele>403</ele>
        <time>2018-06-03T06:47:41.000Z</time>
      </trkpt>
      <trkpt lat="44.52913" lon="4.25013">
        <ele>402</ele>
        <time>2018-06-03T06:47:42.000Z</time>
      </trkpt>
      <trkpt lat="44.52918" lon="4.25011">
        <ele>407</ele>
        <time>2018-06-03T06:47:43.000Z</time>
      </trkpt>
      <trkpt lat="44.52922" lon="4.25008">
        <ele>406</ele>
        <time>2018-06-03T06:47:44.000Z</time>
      </trkpt>
      <trkpt lat="44.52926" lon="4.25005">
        <ele>407</ele>
        <time>2018-06-03T06:47:45.000Z</time>
      </trkpt>
      <trkpt lat="44.5293" lon="4.25003">
        <ele>408</ele>
        <time>2018-06-03T06:47:46.000Z</time>
      </trkpt>
      <trkpt lat="44.52934" lon="4.25001">
        <ele>410</ele>
        <time>2018-06-03T06:47:47.000Z</time>
      </trkpt>
      <trkpt lat="44.52938" lon="4.24998">
        <ele>404</ele>
        <time>2018-06-03T06:47:48.000Z</time>
      </trkpt>
      <trkpt lat="44.52942" lon="4.24996">
        <ele>405</ele>
        <time>2018-06-03T06:47:49.000Z</time>
      </trkpt>
      <trkpt lat="44.52945" lon="4.24993">
        <ele>406</ele>
        <time>2018-06-03T06:47:50.000Z</time>
      </trkpt>
      <trkpt lat="44.52949" lon="4.24989">
        <ele>406</ele>
        <time>2018-06-03T06:47:51.000Z</time>
      </trkpt>
      <trkpt lat="44.52952" lon="4.24984">
        <ele>407</ele>
        <time>2018-06-03T06:47:52.000Z</time>
      </trkpt>
      <trkpt lat="44.52955" lon="4.24979">
        <ele>407</ele>
        <time>2018-06-03T06:47:53.000Z</time>
      </trkpt>
      <trkpt lat="44.52958" lon="4.24973">
        <ele>408</ele>
        <time>2018-06-03T06:47:54.000Z</time>
      </trkpt>
      <trkpt lat="44.52962" lon="4.24967">
        <ele>408</ele>
        <time>2018-06-03T06:47:55.000Z</time>
      </trkpt>
      <trkpt lat="44.52965" lon="4.24961">
        <ele>408</ele>
        <time>2018-06-03T06:47:56.000Z</time>
      </trkpt>
      <trkpt lat="44.52968" lon="4.24955">
        <ele>408</ele>
        <time>2018-06-03T06:47:57.000Z</time>
      </trkpt>
      <trkpt lat="44.52971" lon="4.24948">
        <ele>408</ele>
        <time>2018-06-03T06:47:58.000Z</time>
      </trkpt>
      <trkpt lat="44.52972" lon="4.24941">
        <ele>408</ele>
        <time>2018-06-03T06:47:59.000Z</time>
      </trkpt>
      <trkpt lat="44.52971" lon="4.24934">
        <ele>408</ele>
        <time>2018-06-03T06:48:00.000Z</time>
      </trkpt>
      <trkpt lat="44.5297" lon="4.24928">
        <ele>407</ele>
        <time>2018-06-03T06:48:01.000Z</time>
      </trkpt>
      <trkpt lat="44.52967" lon="4.24922">
        <ele>407</ele>
        <time>2018-06-03T06:48:02.000Z</time>
      </trkpt>
      <trkpt lat="44.52963" lon="4.24917">
        <ele>409</ele>
        <time>2018-06-03T06:48:03.000Z</time>
      </trkpt>
      <trkpt lat="44.52958" lon="4.24912">
        <ele>408</ele>
        <time>2018-06-03T06:48:04.000Z</time>
      </trkpt>
      <trkpt lat="44.52953" lon="4.24907">
        <ele>407</ele>
        <time>2018-06-03T06:48:05.000Z</time>
      </trkpt>
      <trkpt lat="44.52948" lon="4.24903">
        <ele>406</ele>
        <time>2018-06-03T06:48:06.000Z</time>
      </trkpt>
      <trkpt lat="44.52943" lon="4.24898">
        <ele>406</ele>
        <time>2018-06-03T06:48:07.000Z</time>
      </trkpt>
      <trkpt lat="44.52939" lon="4.24892">
        <ele>406</ele>
        <time>2018-06-03T06:48:08.000Z</time>
      </trkpt>
      <trkpt lat="44.52935" lon="4.24886">
        <ele>406</ele>
        <time>2018-06-03T06:48:09.000Z</time>
      </trkpt>
      <trkpt lat="44.52931" lon="4.24881">
        <ele>407</ele>
        <time>2018-06-03T06:48:10.000Z</time>
      </trkpt>
      <trkpt lat="44.52927" lon="4.24875">
        <ele>407</ele>
        <time>2018-06-03T06:48:11.000Z</time>
      </trkpt>
      <trkpt lat="44.52923" lon="4.2487">
        <ele>407</ele>
        <time>2018-06-03T06:48:12.000Z</time>
      </trkpt>
      <trkpt lat="44.52919" lon="4.24864">
        <ele>408</ele>
        <time>2018-06-03T06:48:13.000Z</time>
      </trkpt>
      <trkpt lat="44.52914" lon="4.24857">
        <ele>397</ele>
        <time>2018-06-03T06:48:14.000Z</time>
      </trkpt>
      <trkpt lat="44.5291" lon="4.24851">
        <ele>398</ele>
        <time>2018-06-03T06:48:15.000Z</time>
      </trkpt>
      <trkpt lat="44.52906" lon="4.24843">
        <ele>399</ele>
        <time>2018-06-03T06:48:16.000Z</time>
      </trkpt>
      <trkpt lat="44.52902" lon="4.24836">
        <ele>399</ele>
        <time>2018-06-03T06:48:17.000Z</time>
      </trkpt>
      <trkpt lat="44.52898" lon="4.24828">
        <ele>403</ele>
        <time>2018-06-03T06:48:18.000Z</time>
      </trkpt>
      <trkpt lat="44.52893" lon="4.24819">
        <ele>403</ele>
        <time>2018-06-03T06:48:19.000Z</time>
      </trkpt>
      <trkpt lat="44.52889" lon="4.24811">
        <ele>402</ele>
        <time>2018-06-03T06:48:20.000Z</time>
      </trkpt>
      <trkpt lat="44.52884" lon="4.24803">
        <ele>402</ele>
        <time>2018-06-03T06:48:21.000Z</time>
      </trkpt>
      <trkpt lat="44.5288" lon="4.24796">
        <ele>402</ele>
        <time>2018-06-03T06:48:22.000Z</time>
      </trkpt>
      <trkpt lat="44.52875" lon="4.24789">
        <ele>402</ele>
        <time>2018-06-03T06:48:23.000Z</time>
      </trkpt>
      <trkpt lat="44.5287" lon="4.24782">
        <ele>401</ele>
        <time>2018-06-03T06:48:24.000Z</time>
      </trkpt>
      <trkpt lat="44.52866" lon="4.24776">
        <ele>401</ele>
        <time>2018-06-03T06:48:25.000Z</time>
      </trkpt>
      <trkpt lat="44.52862" lon="4.24771">
        <ele>400</ele>
        <time>2018-06-03T06:48:26.000Z</time>
      </trkpt>
      <trkpt lat="44.52858" lon="4.24765">
        <ele>400</ele>
        <time>2018-06-03T06:48:27.000Z</time>
      </trkpt>
      <trkpt lat="44.52854" lon="4.2476">
        <ele>399</ele>
        <time>2018-06-03T06:48:28.000Z</time>
      </trkpt>
      <trkpt lat="44.5285" lon="4.24755">
        <ele>398</ele>
        <time>2018-06-03T06:48:29.000Z</time>
      </trkpt>
      <trkpt lat="44.52848" lon="4.24749">
        <ele>400</ele>
        <time>2018-06-03T06:48:30.000Z</time>
      </trkpt>
      <trkpt lat="44.52847" lon="4.24743">
        <ele>400</ele>
        <time>2018-06-03T06:48:31.000Z</time>
      </trkpt>
      <trkpt lat="44.52846" lon="4.24738">
        <ele>400</ele>
        <time>2018-06-03T06:48:32.000Z</time>
      </trkpt>
      <trkpt lat="44.52846" lon="4.24733">
        <ele>401</ele>
        <time>2018-06-03T06:48:33.000Z</time>
      </trkpt>
      <trkpt lat="44.52846" lon="4.24728">
        <ele>401</ele>
        <time>2018-06-03T06:48:34.000Z</time>
      </trkpt>
      <trkpt lat="44.52847" lon="4.24724">
        <ele>402</ele>
        <time>2018-06-03T06:48:35.000Z</time>
      </trkpt>
      <trkpt lat="44.52848" lon="4.24721">
        <ele>402</ele>
        <time>2018-06-03T06:48:36.000Z</time>
      </trkpt>
      <trkpt lat="44.5285" lon="4.2472">
        <ele>403</ele>
        <time>2018-06-03T06:48:37.000Z</time>
      </trkpt>
      <trkpt lat="44.52852" lon="4.24719">
        <ele>403</ele>
        <time>2018-06-03T06:48:38.000Z</time>
      </trkpt>
      <trkpt lat="44.52853" lon="4.24718">
        <ele>403</ele>
        <time>2018-06-03T06:48:39.000Z</time>
      </trkpt>
      <trkpt lat="44.52855" lon="4.24716">
        <ele>403</ele>
        <time>2018-06-03T06:48:40.000Z</time>
      </trkpt>
      <trkpt lat="44.52857" lon="4.24713">
        <ele>404</ele>
        <time>2018-06-03T06:48:41.000Z</time>
      </trkpt>
      <trkpt lat="44.52859" lon="4.2471">
        <ele>404</ele>
        <time>2018-06-03T06:48:42.000Z</time>
      </trkpt>
      <trkpt lat="44.52861" lon="4.24707">
        <ele>404</ele>
        <time>2018-06-03T06:48:43.000Z</time>
      </trkpt>
      <trkpt lat="44.52863" lon="4.24703">
        <ele>405</ele>
        <time>2018-06-03T06:48:44.000Z</time>
      </trkpt>
      <trkpt lat="44.52864" lon="4.24699">
        <ele>405</ele>
        <time>2018-06-03T06:48:45.000Z</time>
      </trkpt>
      <trkpt lat="44.52866" lon="4.24695">
        <ele>405</ele>
        <time>2018-06-03T06:48:46.000Z</time>
      </trkpt>
      <trkpt lat="44.52867" lon="4.24692">
        <ele>405</ele>
        <time>2018-06-03T06:48:47.000Z</time>
      </trkpt>
      <trkpt lat="44.52868" lon="4.24688">
        <ele>405</ele>
        <time>2018-06-03T06:48:48.000Z</time>
      </trkpt>
      <trkpt lat="44.52869" lon="4.24685">
        <ele>405</ele>
        <time>2018-06-03T06:48:49.000Z</time>
      </trkpt>
      <trkpt lat="44.5287" lon="4.24681">
        <ele>406</ele>
        <time>2018-06-03T06:48:50.000Z</time>
      </trkpt>
      <trkpt lat="44.52872" lon="4.24678">
        <ele>406</ele>
        <time>2018-06-03T06:48:51.000Z</time>
      </trkpt>
      <trkpt lat="44.52873" lon="4.24675">
        <ele>406</ele>
        <time>2018-06-03T06:48:52.000Z</time>
      </trkpt>
      <trkpt lat="44.52874" lon="4.24672">
        <ele>406</ele>
        <time>2018-06-03T06:48:53.000Z</time>
      </trkpt>
      <trkpt lat="44.52876" lon="4.24668">
        <ele>407</ele>
        <time>2018-06-03T06:48:54.000Z</time>
      </trkpt>
      <trkpt lat="44.52877" lon="4.24665">
        <ele>405</ele>
        <time>2018-06-03T06:48:55.000Z</time>
      </trkpt>
      <trkpt lat="44.52878" lon="4.24662">
        <ele>405</ele>
        <time>2018-06-03T06:48:56.000Z</time>
      </trkpt>
      <trkpt lat="44.52878" lon="4.24659">
        <ele>406</ele>
        <time>2018-06-03T06:48:57.000Z</time>
      </trkpt>
      <trkpt lat="44.52879" lon="4.24656">
        <ele>406</ele>
        <time>2018-06-03T06:48:58.000Z</time>
      </trkpt>
      <trkpt lat="44.52879" lon="4.24654">
        <ele>406</ele>
        <time>2018-06-03T06:48:59.000Z</time>
      </trkpt>
      <trkpt lat="44.5288" lon="4.2465">
        <ele>406</ele>
        <time>2018-06-03T06:49:00.000Z</time>
      </trkpt>
      <trkpt lat="44.5288" lon="4.24647">
        <ele>405</ele>
        <time>2018-06-03T06:49:01.000Z</time>
      </trkpt>
      <trkpt lat="44.5288" lon="4.24644">
        <ele>405</ele>
        <time>2018-06-03T06:49:02.000Z</time>
      </trkpt>
      <trkpt lat="44.5288" lon="4.24641">
        <ele>405</ele>
        <time>2018-06-03T06:49:03.000Z</time>
      </trkpt>
      <trkpt lat="44.5288" lon="4.24637">
        <ele>405</ele>
        <time>2018-06-03T06:49:04.000Z</time>
      </trkpt>
      <trkpt lat="44.5288" lon="4.24634">
        <ele>405</ele>
        <time>2018-06-03T06:49:05.000Z</time>
      </trkpt>
      <trkpt lat="44.5288" lon="4.2463">
        <ele>404</ele>
        <time>2018-06-03T06:49:06.000Z</time>
      </trkpt>
      <trkpt lat="44.5288" lon="4.24627">
        <ele>404</ele>
        <time>2018-06-03T06:49:07.000Z</time>
      </trkpt>
      <trkpt lat="44.5288" lon="4.24624">
        <ele>404</ele>
        <time>2018-06-03T06:49:08.000Z</time>
      </trkpt>
      <trkpt lat="44.5288" lon="4.2462">
        <ele>404</ele>
        <time>2018-06-03T06:49:09.000Z</time>
      </trkpt>
      <trkpt lat="44.5288" lon="4.24617">
        <ele>404</ele>
        <time>2018-06-03T06:49:10.000Z</time>
      </trkpt>
      <trkpt lat="44.52879" lon="4.24615">
        <ele>404</ele>
        <time>2018-06-03T06:49:11.000Z</time>
      </trkpt>
      <trkpt lat="44.52879" lon="4.24612">
        <ele>404</ele>
        <time>2018-06-03T06:49:12.000Z</time>
      </trkpt>
      <trkpt lat="44.52879" lon="4.24609">
        <ele>404</ele>
        <time>2018-06-03T06:49:13.000Z</time>
      </trkpt>
      <trkpt lat="44.52879" lon="4.24606">
        <ele>404</ele>
        <time>2018-06-03T06:49:14.000Z</time>
      </trkpt>
      <trkpt lat="44.5288" lon="4.24603">
        <ele>404</ele>
        <time>2018-06-03T06:49:15.000Z</time>
      </trkpt>
      <trkpt lat="44.5288" lon="4.246">
        <ele>404</ele>
        <time>2018-06-03T06:49:16.000Z</time>
      </trkpt>
      <trkpt lat="44.52881" lon="4.24598">
        <ele>404</ele>
        <time>2018-06-03T06:49:17.000Z</time>
      </trkpt>
      <trkpt lat="44.52882" lon="4.24595">
        <ele>404</ele>
        <time>2018-06-03T06:49:18.000Z</time>
      </trkpt>
      <trkpt lat="44.52883" lon="4.24593">
        <ele>404</ele>
        <time>2018-06-03T06:49:19.000Z</time>
      </trkpt>
      <trkpt lat="44.52884" lon="4.2459">
        <ele>404</ele>
        <time>2018-06-03T06:49:20.000Z</time>
      </trkpt>
      <trkpt lat="44.52886" lon="4.24588">
        <ele>405</ele>
        <time>2018-06-03T06:49:21.000Z</time>
      </trkpt>
      <trkpt lat="44.52888" lon="4.24586">
        <ele>405</ele>
        <time>2018-06-03T06:49:22.000Z</time>
      </trkpt>
      <trkpt lat="44.5289" lon="4.24584">
        <ele>406</ele>
        <time>2018-06-03T06:49:23.000Z</time>
      </trkpt>
      <trkpt lat="44.52892" lon="4.24583">
        <ele>400</ele>
        <time>2018-06-03T06:49:24.000Z</time>
      </trkpt>
      <trkpt lat="44.52894" lon="4.24581">
        <ele>401</ele>
        <time>2018-06-03T06:49:25.000Z</time>
      </trkpt>
      <trkpt lat="44.52897" lon="4.2458">
        <ele>402</ele>
        <time>2018-06-03T06:49:26.000Z</time>
      </trkpt>
      <trkpt lat="44.52899" lon="4.24579">
        <ele>403</ele>
        <time>2018-06-03T06:49:27.000Z</time>
      </trkpt>
      <trkpt lat="44.529" lon="4.24578">
        <ele>403</ele>
        <time>2018-06-03T06:49:28.000Z</time>
      </trkpt>
      <trkpt lat="44.52902" lon="4.24576">
        <ele>404</ele>
        <time>2018-06-03T06:49:29.000Z</time>
      </trkpt>
      <trkpt lat="44.52904" lon="4.24575">
        <ele>404</ele>
        <time>2018-06-03T06:49:30.000Z</time>
      </trkpt>
      <trkpt lat="44.52906" lon="4.24574">
        <ele>405</ele>
        <time>2018-06-03T06:49:31.000Z</time>
      </trkpt>
      <trkpt lat="44.52908" lon="4.24573">
        <ele>405</ele>
        <time>2018-06-03T06:49:32.000Z</time>
      </trkpt>
      <trkpt lat="44.5291" lon="4.24572">
        <ele>405</ele>
        <time>2018-06-03T06:49:33.000Z</time>
      </trkpt>
      <trkpt lat="44.52913" lon="4.24571">
        <ele>405</ele>
        <time>2018-06-03T06:49:34.000Z</time>
      </trkpt>
      <trkpt lat="44.52915" lon="4.24569">
        <ele>405</ele>
        <time>2018-06-03T06:49:35.000Z</time>
      </trkpt>
      <trkpt lat="44.52917" lon="4.24568">
        <ele>404</ele>
        <time>2018-06-03T06:49:36.000Z</time>
      </trkpt>
      <trkpt lat="44.52919" lon="4.24566">
        <ele>411</ele>
        <time>2018-06-03T06:49:37.000Z</time>
      </trkpt>
      <trkpt lat="44.52921" lon="4.24565">
        <ele>411</ele>
        <time>2018-06-03T06:49:38.000Z</time>
      </trkpt>
      <trkpt lat="44.52923" lon="4.24563">
        <ele>411</ele>
        <time>2018-06-03T06:49:39.000Z</time>
      </trkpt>
      <trkpt lat="44.52926" lon="4.24562">
        <ele>410</ele>
        <time>2018-06-03T06:49:40.000Z</time>
      </trkpt>
      <trkpt lat="44.52928" lon="4.24559">
        <ele>410</ele>
        <time>2018-06-03T06:49:41.000Z</time>
      </trkpt>
      <trkpt lat="44.52931" lon="4.24557">
        <ele>410</ele>
        <time>2018-06-03T06:49:42.000Z</time>
      </trkpt>
      <trkpt lat="44.52933" lon="4.24556">
        <ele>410</ele>
        <time>2018-06-03T06:49:43.000Z</time>
      </trkpt>
      <trkpt lat="44.52936" lon="4.24555">
        <ele>410</ele>
        <time>2018-06-03T06:49:44.000Z</time>
      </trkpt>
      <trkpt lat="44.52939" lon="4.24554">
        <ele>410</ele>
        <time>2018-06-03T06:49:45.000Z</time>
      </trkpt>
      <trkpt lat="44.52942" lon="4.24552">
        <ele>410</ele>
        <time>2018-06-03T06:49:46.000Z</time>
      </trkpt>
      <trkpt lat="44.52945" lon="4.24551">
        <ele>410</ele>
        <time>2018-06-03T06:49:47.000Z</time>
      </trkpt>
      <trkpt lat="44.52949" lon="4.2455">
        <ele>410</ele>
        <time>2018-06-03T06:49:48.000Z</time>
      </trkpt>
      <trkpt lat="44.52952" lon="4.24549">
        <ele>410</ele>
        <time>2018-06-03T06:49:49.000Z</time>
      </trkpt>
      <trkpt lat="44.52955" lon="4.24547">
        <ele>410</ele>
        <time>2018-06-03T06:49:50.000Z</time>
      </trkpt>
      <trkpt lat="44.52958" lon="4.24545">
        <ele>410</ele>
        <time>2018-06-03T06:49:51.000Z</time>
      </trkpt>
      <trkpt lat="44.52962" lon="4.24543">
        <ele>410</ele>
        <time>2018-06-03T06:49:52.000Z</time>
      </trkpt>
      <trkpt lat="44.52965" lon="4.24542">
        <ele>410</ele>
        <time>2018-06-03T06:49:53.000Z</time>
      </trkpt>
      <trkpt lat="44.52968" lon="4.2454">
        <ele>410</ele>
        <time>2018-06-03T06:49:54.000Z</time>
      </trkpt>
      <trkpt lat="44.52971" lon="4.24538">
        <ele>410</ele>
        <time>2018-06-03T06:49:55.000Z</time>
      </trkpt>
      <trkpt lat="44.52974" lon="4.24535">
        <ele>410</ele>
        <time>2018-06-03T06:49:56.000Z</time>
      </trkpt>
      <trkpt lat="44.52977" lon="4.24533">
        <ele>410</ele>
        <time>2018-06-03T06:49:57.000Z</time>
      </trkpt>
      <trkpt lat="44.5298" lon="4.24531">
        <ele>410</ele>
        <time>2018-06-03T06:49:58.000Z</time>
      </trkpt>
      <trkpt lat="44.52983" lon="4.24529">
        <ele>410</ele>
        <time>2018-06-03T06:49:59.000Z</time>
      </trkpt>
      <trkpt lat="44.52986" lon="4.24527">
        <ele>409</ele>
        <time>2018-06-03T06:50:00.000Z</time>
      </trkpt>
      <trkpt lat="44.52989" lon="4.24525">
        <ele>409</ele>
        <time>2018-06-03T06:50:01.000Z</time>
      </trkpt>
      <trkpt lat="44.52992" lon="4.24522">
        <ele>409</ele>
        <time>2018-06-03T06:50:02.000Z</time>
      </trkpt>
      <trkpt lat="44.52995" lon="4.2452">
        <ele>408</ele>
        <time>2018-06-03T06:50:03.000Z</time>
      </trkpt>
      <trkpt lat="44.52999" lon="4.24518">
        <ele>408</ele>
        <time>2018-06-03T06:50:04.000Z</time>
      </trkpt>
      <trkpt lat="44.53002" lon="4.24518">
        <ele>414</ele>
        <time>2018-06-03T06:50:05.000Z</time>
      </trkpt>
      <trkpt lat="44.53005" lon="4.24516">
        <ele>413</ele>
        <time>2018-06-03T06:50:06.000Z</time>
      </trkpt>
      <trkpt lat="44.53008" lon="4.24514">
        <ele>413</ele>
        <time>2018-06-03T06:50:07.000Z</time>
      </trkpt>
      <trkpt lat="44.53011" lon="4.24513">
        <ele>413</ele>
        <time>2018-06-03T06:50:08.000Z</time>
      </trkpt>
      <trkpt lat="44.53015" lon="4.24511">
        <ele>414</ele>
        <time>2018-06-03T06:50:09.000Z</time>
      </trkpt>
      <trkpt lat="44.53018" lon="4.2451">
        <ele>415</ele>
        <time>2018-06-03T06:50:10.000Z</time>
      </trkpt>
      <trkpt lat="44.53021" lon="4.24509">
        <ele>415</ele>
        <time>2018-06-03T06:50:11.000Z</time>
      </trkpt>
      <trkpt lat="44.53025" lon="4.24508">
        <ele>416</ele>
        <time>2018-06-03T06:50:12.000Z</time>
      </trkpt>
      <trkpt lat="44.53028" lon="4.24508">
        <ele>417</ele>
        <time>2018-06-03T06:50:13.000Z</time>
      </trkpt>
      <trkpt lat="44.53032" lon="4.24507">
        <ele>417</ele>
        <time>2018-06-03T06:50:14.000Z</time>
      </trkpt>
      <trkpt lat="44.53036" lon="4.24507">
        <ele>418</ele>
        <time>2018-06-03T06:50:15.000Z</time>
      </trkpt>
      <trkpt lat="44.5304" lon="4.24506">
        <ele>418</ele>
        <time>2018-06-03T06:50:16.000Z</time>
      </trkpt>
      <trkpt lat="44.53043" lon="4.24505">
        <ele>419</ele>
        <time>2018-06-03T06:50:17.000Z</time>
      </trkpt>
      <trkpt lat="44.53047" lon="4.24505">
        <ele>419</ele>
        <time>2018-06-03T06:50:18.000Z</time>
      </trkpt>
      <trkpt lat="44.5305" lon="4.24504">
        <ele>419</ele>
        <time>2018-06-03T06:50:19.000Z</time>
      </trkpt>
      <trkpt lat="44.53054" lon="4.24503">
        <ele>419</ele>
        <time>2018-06-03T06:50:20.000Z</time>
      </trkpt>
      <trkpt lat="44.53057" lon="4.24502">
        <ele>420</ele>
        <time>2018-06-03T06:50:21.000Z</time>
      </trkpt>
      <trkpt lat="44.53061" lon="4.24501">
        <ele>420</ele>
        <time>2018-06-03T06:50:22.000Z</time>
      </trkpt>
      <trkpt lat="44.53064" lon="4.245">
        <ele>420</ele>
        <time>2018-06-03T06:50:23.000Z</time>
      </trkpt>
      <trkpt lat="44.53067" lon="4.24499">
        <ele>411</ele>
        <time>2018-06-03T06:50:24.000Z</time>
      </trkpt>
      <trkpt lat="44.5307" lon="4.24498">
        <ele>412</ele>
        <time>2018-06-03T06:50:25.000Z</time>
      </trkpt>
      <trkpt lat="44.53073" lon="4.24497">
        <ele>413</ele>
        <time>2018-06-03T06:50:26.000Z</time>
      </trkpt>
      <trkpt lat="44.53076" lon="4.24495">
        <ele>414</ele>
        <time>2018-06-03T06:50:27.000Z</time>
      </trkpt>
      <trkpt lat="44.5308" lon="4.24493">
        <ele>414</ele>
        <time>2018-06-03T06:50:28.000Z</time>
      </trkpt>
      <trkpt lat="44.53083" lon="4.24491">
        <ele>414</ele>
        <time>2018-06-03T06:50:29.000Z</time>
      </trkpt>
      <trkpt lat="44.53086" lon="4.24488">
        <ele>417</ele>
        <time>2018-06-03T06:50:30.000Z</time>
      </trkpt>
      <trkpt lat="44.53089" lon="4.24485">
        <ele>417</ele>
        <time>2018-06-03T06:50:31.000Z</time>
      </trkpt>
      <trkpt lat="44.53092" lon="4.24483">
        <ele>417</ele>
        <time>2018-06-03T06:50:32.000Z</time>
      </trkpt>
      <trkpt lat="44.53095" lon="4.2448">
        <ele>417</ele>
        <time>2018-06-03T06:50:33.000Z</time>
      </trkpt>
      <trkpt lat="44.53098" lon="4.24477">
        <ele>417</ele>
        <time>2018-06-03T06:50:34.000Z</time>
      </trkpt>
      <trkpt lat="44.53101" lon="4.24475">
        <ele>417</ele>
        <time>2018-06-03T06:50:35.000Z</time>
      </trkpt>
      <trkpt lat="44.53104" lon="4.24472">
        <ele>416</ele>
        <time>2018-06-03T06:50:36.000Z</time>
      </trkpt>
      <trkpt lat="44.53107" lon="4.24469">
        <ele>416</ele>
        <time>2018-06-03T06:50:37.000Z</time>
      </trkpt>
      <trkpt lat="44.5311" lon="4.24465">
        <ele>416</ele>
        <time>2018-06-03T06:50:38.000Z</time>
      </trkpt>
      <trkpt lat="44.53113" lon="4.24461">
        <ele>416</ele>
        <time>2018-06-03T06:50:39.000Z</time>
      </trkpt>
      <trkpt lat="44.53116" lon="4.24457">
        <ele>416</ele>
        <time>2018-06-03T06:50:40.000Z</time>
      </trkpt>
      <trkpt lat="44.53119" lon="4.24453">
        <ele>416</ele>
        <time>2018-06-03T06:50:41.000Z</time>
      </trkpt>
      <trkpt lat="44.53122" lon="4.24448">
        <ele>416</ele>
        <time>2018-06-03T06:50:42.000Z</time>
      </trkpt>
      <trkpt lat="44.53125" lon="4.24444">
        <ele>415</ele>
        <time>2018-06-03T06:50:43.000Z</time>
      </trkpt>
      <trkpt lat="44.53128" lon="4.24439">
        <ele>415</ele>
        <time>2018-06-03T06:50:44.000Z</time>
      </trkpt>
      <trkpt lat="44.53131" lon="4.24434">
        <ele>415</ele>
        <time>2018-06-03T06:50:45.000Z</time>
      </trkpt>
      <trkpt lat="44.53135" lon="4.2443">
        <ele>416</ele>
        <time>2018-06-03T06:50:46.000Z</time>
      </trkpt>
      <trkpt lat="44.53139" lon="4.24426">
        <ele>416</ele>
        <time>2018-06-03T06:50:47.000Z</time>
      </trkpt>
      <trkpt lat="44.53143" lon="4.24421">
        <ele>416</ele>
        <time>2018-06-03T06:50:48.000Z</time>
      </trkpt>
      <trkpt lat="44.53146" lon="4.24417">
        <ele>413</ele>
        <time>2018-06-03T06:50:49.000Z</time>
      </trkpt>
      <trkpt lat="44.5315" lon="4.24412">
        <ele>413</ele>
        <time>2018-06-03T06:50:50.000Z</time>
      </trkpt>
      <trkpt lat="44.53153" lon="4.24408">
        <ele>413</ele>
        <time>2018-06-03T06:50:51.000Z</time>
      </trkpt>
      <trkpt lat="44.53157" lon="4.24403">
        <ele>413</ele>
        <time>2018-06-03T06:50:52.000Z</time>
      </trkpt>
      <trkpt lat="44.5316" lon="4.24399">
        <ele>413</ele>
        <time>2018-06-03T06:50:53.000Z</time>
      </trkpt>
      <trkpt lat="44.53163" lon="4.24395">
        <ele>413</ele>
        <time>2018-06-03T06:50:54.000Z</time>
      </trkpt>
      <trkpt lat="44.53166" lon="4.24391">
        <ele>413</ele>
        <time>2018-06-03T06:50:55.000Z</time>
      </trkpt>
      <trkpt lat="44.53169" lon="4.24388">
        <ele>420</ele>
        <time>2018-06-03T06:50:56.000Z</time>
      </trkpt>
      <trkpt lat="44.53172" lon="4.24385">
        <ele>421</ele>
        <time>2018-06-03T06:50:57.000Z</time>
      </trkpt>
      <trkpt lat="44.53175" lon="4.24383">
        <ele>421</ele>
        <time>2018-06-03T06:50:58.000Z</time>
      </trkpt>
      <trkpt lat="44.53178" lon="4.24381">
        <ele>421</ele>
        <time>2018-06-03T06:50:59.000Z</time>
      </trkpt>
      <trkpt lat="44.5318" lon="4.2438">
        <ele>421</ele>
        <time>2018-06-03T06:51:00.000Z</time>
      </trkpt>
      <trkpt lat="44.53183" lon="4.24378">
        <ele>421</ele>
        <time>2018-06-03T06:51:01.000Z</time>
      </trkpt>
      <trkpt lat="44.53185" lon="4.24377">
        <ele>421</ele>
        <time>2018-06-03T06:51:02.000Z</time>
      </trkpt>
      <trkpt lat="44.53187" lon="4.24375">
        <ele>421</ele>
        <time>2018-06-03T06:51:03.000Z</time>
      </trkpt>
      <trkpt lat="44.5319" lon="4.24373">
        <ele>422</ele>
        <time>2018-06-03T06:51:04.000Z</time>
      </trkpt>
      <trkpt lat="44.53192" lon="4.24371">
        <ele>422</ele>
        <time>2018-06-03T06:51:05.000Z</time>
      </trkpt>
      <trkpt lat="44.53194" lon="4.24368">
        <ele>422</ele>
        <time>2018-06-03T06:51:06.000Z</time>
      </trkpt>
      <trkpt lat="44.53196" lon="4.24366">
        <ele>422</ele>
        <time>2018-06-03T06:51:07.000Z</time>
      </trkpt>
      <trkpt lat="44.53197" lon="4.24362">
        <ele>422</ele>
        <time>2018-06-03T06:51:08.000Z</time>
      </trkpt>
      <trkpt lat="44.53197" lon="4.24359">
        <ele>422</ele>
        <time>2018-06-03T06:51:09.000Z</time>
      </trkpt>
      <trkpt lat="44.53198" lon="4.24355">
        <ele>422</ele>
        <time>2018-06-03T06:51:10.000Z</time>
      </trkpt>
      <trkpt lat="44.53197" lon="4.24351">
        <ele>422</ele>
        <time>2018-06-03T06:51:11.000Z</time>
      </trkpt>
      <trkpt lat="44.53196" lon="4.24348">
        <ele>421</ele>
        <time>2018-06-03T06:51:12.000Z</time>
      </trkpt>
      <trkpt lat="44.53195" lon="4.24345">
        <ele>421</ele>
        <time>2018-06-03T06:51:13.000Z</time>
      </trkpt>
      <trkpt lat="44.53193" lon="4.24342">
        <ele>421</ele>
        <time>2018-06-03T06:51:14.000Z</time>
      </trkpt>
      <trkpt lat="44.53192" lon="4.24338">
        <ele>421</ele>
        <time>2018-06-03T06:51:15.000Z</time>
      </trkpt>
      <trkpt lat="44.5319" lon="4.24335">
        <ele>420</ele>
        <time>2018-06-03T06:51:16.000Z</time>
      </trkpt>
      <trkpt lat="44.53188" lon="4.24332">
        <ele>422</ele>
        <time>2018-06-03T06:51:17.000Z</time>
      </trkpt>
      <trkpt lat="44.53187" lon="4.24329">
        <ele>421</ele>
        <time>2018-06-03T06:51:18.000Z</time>
      </trkpt>
      <trkpt lat="44.53184" lon="4.24326">
        <ele>421</ele>
        <time>2018-06-03T06:51:19.000Z</time>
      </trkpt>
      <trkpt lat="44.53182" lon="4.24323">
        <ele>421</ele>
        <time>2018-06-03T06:51:20.000Z</time>
      </trkpt>
      <trkpt lat="44.5318" lon="4.2432">
        <ele>421</ele>
        <time>2018-06-03T06:51:21.000Z</time>
      </trkpt>
      <trkpt lat="44.53178" lon="4.24317">
        <ele>421</ele>
        <time>2018-06-03T06:51:22.000Z</time>
      </trkpt>
      <trkpt lat="44.53176" lon="4.24314">
        <ele>422</ele>
        <time>2018-06-03T06:51:23.000Z</time>
      </trkpt>
      <trkpt lat="44.53174" lon="4.24311">
        <ele>422</ele>
        <time>2018-06-03T06:51:24.000Z</time>
      </trkpt>
      <trkpt lat="44.53171" lon="4.24308">
        <ele>422</ele>
        <time>2018-06-03T06:51:25.000Z</time>
      </trkpt>
      <trkpt lat="44.53169" lon="4.24305">
        <ele>422</ele>
        <time>2018-06-03T06:51:26.000Z</time>
      </trkpt>
      <trkpt lat="44.53167" lon="4.24302">
        <ele>416</ele>
        <time>2018-06-03T06:51:27.000Z</time>
      </trkpt>
      <trkpt lat="44.53164" lon="4.24299">
        <ele>416</ele>
        <time>2018-06-03T06:51:28.000Z</time>
      </trkpt>
      <trkpt lat="44.53162" lon="4.24296">
        <ele>416</ele>
        <time>2018-06-03T06:51:29.000Z</time>
      </trkpt>
      <trkpt lat="44.5316" lon="4.24294">
        <ele>417</ele>
        <time>2018-06-03T06:51:30.000Z</time>
      </trkpt>
      <trkpt lat="44.53157" lon="4.24292">
        <ele>417</ele>
        <time>2018-06-03T06:51:31.000Z</time>
      </trkpt>
      <trkpt lat="44.53155" lon="4.24289">
        <ele>417</ele>
        <time>2018-06-03T06:51:32.000Z</time>
      </trkpt>
      <trkpt lat="44.53152" lon="4.24287">
        <ele>417</ele>
        <time>2018-06-03T06:51:33.000Z</time>
      </trkpt>
      <trkpt lat="44.5315" lon="4.24284">
        <ele>417</ele>
        <time>2018-06-03T06:51:34.000Z</time>
      </trkpt>
      <trkpt lat="44.53148" lon="4.24281">
        <ele>417</ele>
        <time>2018-06-03T06:51:35.000Z</time>
      </trkpt>
      <trkpt lat="44.53146" lon="4.24278">
        <ele>417</ele>
        <time>2018-06-03T06:51:36.000Z</time>
      </trkpt>
      <trkpt lat="44.53144" lon="4.24276">
        <ele>417</ele>
        <time>2018-06-03T06:51:37.000Z</time>
      </trkpt>
      <trkpt lat="44.53141" lon="4.24273">
        <ele>417</ele>
        <time>2018-06-03T06:51:38.000Z</time>
      </trkpt>
      <trkpt lat="44.53139" lon="4.2427">
        <ele>417</ele>
        <time>2018-06-03T06:51:39.000Z</time>
      </trkpt>
      <trkpt lat="44.53137" lon="4.24267">
        <ele>417</ele>
        <time>2018-06-03T06:51:40.000Z</time>
      </trkpt>
      <trkpt lat="44.53134" lon="4.24264">
        <ele>417</ele>
        <time>2018-06-03T06:51:41.000Z</time>
      </trkpt>
      <trkpt lat="44.53132" lon="4.24261">
        <ele>417</ele>
        <time>2018-06-03T06:51:42.000Z</time>
      </trkpt>
      <trkpt lat="44.5313" lon="4.24257">
        <ele>417</ele>
        <time>2018-06-03T06:51:43.000Z</time>
      </trkpt>
      <trkpt lat="44.53127" lon="4.24254">
        <ele>417</ele>
        <time>2018-06-03T06:51:44.000Z</time>
      </trkpt>
      <trkpt lat="44.53125" lon="4.2425">
        <ele>421</ele>
        <time>2018-06-03T06:51:45.000Z</time>
      </trkpt>
      <trkpt lat="44.53122" lon="4.24246">
        <ele>421</ele>
        <time>2018-06-03T06:51:46.000Z</time>
      </trkpt>
      <trkpt lat="44.5312" lon="4.24241">
        <ele>421</ele>
        <time>2018-06-03T06:51:47.000Z</time>
      </trkpt>
      <trkpt lat="44.53118" lon="4.24236">
        <ele>421</ele>
        <time>2018-06-03T06:51:48.000Z</time>
      </trkpt>
      <trkpt lat="44.53115" lon="4.24232">
        <ele>421</ele>
        <time>2018-06-03T06:51:49.000Z</time>
      </trkpt>
      <trkpt lat="44.53114" lon="4.24226">
        <ele>421</ele>
        <time>2018-06-03T06:51:50.000Z</time>
      </trkpt>
      <trkpt lat="44.53115" lon="4.24221">
        <ele>421</ele>
        <time>2018-06-03T06:51:51.000Z</time>
      </trkpt>
      <trkpt lat="44.53118" lon="4.24219">
        <ele>421</ele>
        <time>2018-06-03T06:51:52.000Z</time>
      </trkpt>
      <trkpt lat="44.5312" lon="4.24219">
        <ele>422</ele>
        <time>2018-06-03T06:51:53.000Z</time>
      </trkpt>
      <trkpt lat="44.53121" lon="4.24219">
        <ele>422</ele>
        <time>2018-06-03T06:51:54.000Z</time>
      </trkpt>
      <trkpt lat="44.53123" lon="4.24221">
        <ele>422</ele>
        <time>2018-06-03T06:51:55.000Z</time>
      </trkpt>
      <trkpt lat="44.53125" lon="4.24222">
        <ele>422</ele>
        <time>2018-06-03T06:51:56.000Z</time>
      </trkpt>
      <trkpt lat="44.53127" lon="4.24223">
        <ele>422</ele>
        <time>2018-06-03T06:51:57.000Z</time>
      </trkpt>
      <trkpt lat="44.53129" lon="4.24225">
        <ele>422</ele>
        <time>2018-06-03T06:51:58.000Z</time>
      </trkpt>
      <trkpt lat="44.53131" lon="4.24226">
        <ele>422</ele>
        <time>2018-06-03T06:51:59.000Z</time>
      </trkpt>
      <trkpt lat="44.53133" lon="4.24228">
        <ele>422</ele>
        <time>2018-06-03T06:52:00.000Z</time>
      </trkpt>
      <trkpt lat="44.53134" lon="4.24229">
        <ele>422</ele>
        <time>2018-06-03T06:52:01.000Z</time>
      </trkpt>
      <trkpt lat="44.53136" lon="4.2423">
        <ele>422</ele>
        <time>2018-06-03T06:52:02.000Z</time>
      </trkpt>
      <trkpt lat="44.53139" lon="4.24232">
        <ele>423</ele>
        <time>2018-06-03T06:52:03.000Z</time>
      </trkpt>
      <trkpt lat="44.53141" lon="4.24234">
        <ele>423</ele>
        <time>2018-06-03T06:52:04.000Z</time>
      </trkpt>
      <trkpt lat="44.53143" lon="4.24235">
        <ele>423</ele>
        <time>2018-06-03T06:52:05.000Z</time>
      </trkpt>
      <trkpt lat="44.53145" lon="4.24236">
        <ele>423</ele>
        <time>2018-06-03T06:52:06.000Z</time>
      </trkpt>
      <trkpt lat="44.53147" lon="4.24236">
        <ele>423</ele>
        <time>2018-06-03T06:52:07.000Z</time>
      </trkpt>
      <trkpt lat="44.53149" lon="4.24237">
        <ele>423</ele>
        <time>2018-06-03T06:52:08.000Z</time>
      </trkpt>
      <trkpt lat="44.53152" lon="4.24238">
        <ele>423</ele>
        <time>2018-06-03T06:52:09.000Z</time>
      </trkpt>
      <trkpt lat="44.53154" lon="4.24239">
        <ele>424</ele>
        <time>2018-06-03T06:52:10.000Z</time>
      </trkpt>
      <trkpt lat="44.53156" lon="4.2424">
        <ele>424</ele>
        <time>2018-06-03T06:52:11.000Z</time>
      </trkpt>
      <trkpt lat="44.53158" lon="4.2424">
        <ele>424</ele>
        <time>2018-06-03T06:52:12.000Z</time>
      </trkpt>
      <trkpt lat="44.5316" lon="4.24241">
        <ele>424</ele>
        <time>2018-06-03T06:52:13.000Z</time>
      </trkpt>
      <trkpt lat="44.53163" lon="4.24242">
        <ele>424</ele>
        <time>2018-06-03T06:52:14.000Z</time>
      </trkpt>
      <trkpt lat="44.53165" lon="4.24243">
        <ele>424</ele>
        <time>2018-06-03T06:52:15.000Z</time>
      </trkpt>
      <trkpt lat="44.53167" lon="4.24244">
        <ele>426</ele>
        <time>2018-06-03T06:52:16.000Z</time>
      </trkpt>
      <trkpt lat="44.53169" lon="4.24245">
        <ele>426</ele>
        <time>2018-06-03T06:52:17.000Z</time>
      </trkpt>
      <trkpt lat="44.53171" lon="4.24246">
        <ele>427</ele>
        <time>2018-06-03T06:52:18.000Z</time>
      </trkpt>
      <trkpt lat="44.53173" lon="4.24247">
        <ele>427</ele>
        <time>2018-06-03T06:52:19.000Z</time>
      </trkpt>
      <trkpt lat="44.53175" lon="4.24247">
        <ele>427</ele>
        <time>2018-06-03T06:52:20.000Z</time>
      </trkpt>
      <trkpt lat="44.53178" lon="4.24248">
        <ele>428</ele>
        <time>2018-06-03T06:52:21.000Z</time>
      </trkpt>
      <trkpt lat="44.5318" lon="4.24249">
        <ele>428</ele>
        <time>2018-06-03T06:52:22.000Z</time>
      </trkpt>
      <trkpt lat="44.53182" lon="4.24249">
        <ele>428</ele>
        <time>2018-06-03T06:52:23.000Z</time>
      </trkpt>
      <trkpt lat="44.53184" lon="4.2425">
        <ele>429</ele>
        <time>2018-06-03T06:52:24.000Z</time>
      </trkpt>
      <trkpt lat="44.53187" lon="4.2425">
        <ele>426</ele>
        <time>2018-06-03T06:52:25.000Z</time>
      </trkpt>
      <trkpt lat="44.53189" lon="4.2425">
        <ele>426</ele>
        <time>2018-06-03T06:52:26.000Z</time>
      </trkpt>
      <trkpt lat="44.53192" lon="4.2425">
        <ele>426</ele>
        <time>2018-06-03T06:52:27.000Z</time>
      </trkpt>
      <trkpt lat="44.53194" lon="4.2425">
        <ele>426</ele>
        <time>2018-06-03T06:52:28.000Z</time>
      </trkpt>
      <trkpt lat="44.53197" lon="4.2425">
        <ele>430</ele>
        <time>2018-06-03T06:52:29.000Z</time>
      </trkpt>
      <trkpt lat="44.53199" lon="4.2425">
        <ele>426</ele>
        <time>2018-06-03T06:52:30.000Z</time>
      </trkpt>
      <trkpt lat="44.53201" lon="4.2425">
        <ele>426</ele>
        <time>2018-06-03T06:52:31.000Z</time>
      </trkpt>
      <trkpt lat="44.53203" lon="4.24249">
        <ele>431</ele>
        <time>2018-06-03T06:52:32.000Z</time>
      </trkpt>
      <trkpt lat="44.53205" lon="4.24248">
        <ele>431</ele>
        <time>2018-06-03T06:52:33.000Z</time>
      </trkpt>
      <trkpt lat="44.53206" lon="4.24246">
        <ele>431</ele>
        <time>2018-06-03T06:52:34.000Z</time>
      </trkpt>
      <trkpt lat="44.53207" lon="4.24244">
        <ele>431</ele>
        <time>2018-06-03T06:52:35.000Z</time>
      </trkpt>
      <trkpt lat="44.53207" lon="4.24241">
        <ele>431</ele>
        <time>2018-06-03T06:52:36.000Z</time>
      </trkpt>
      <trkpt lat="44.53208" lon="4.24239">
        <ele>431</ele>
        <time>2018-06-03T06:52:37.000Z</time>
      </trkpt>
      <trkpt lat="44.53208" lon="4.24237">
        <ele>431</ele>
        <time>2018-06-03T06:52:38.000Z</time>
      </trkpt>
      <trkpt lat="44.53208" lon="4.24235">
        <ele>431</ele>
        <time>2018-06-03T06:52:39.000Z</time>
      </trkpt>
      <trkpt lat="44.53209" lon="4.24233">
        <ele>431</ele>
        <time>2018-06-03T06:52:40.000Z</time>
      </trkpt>
      <trkpt lat="44.53209" lon="4.24231">
        <ele>431</ele>
        <time>2018-06-03T06:52:41.000Z</time>
      </trkpt>
      <trkpt lat="44.5321" lon="4.24228">
        <ele>432</ele>
        <time>2018-06-03T06:52:42.000Z</time>
      </trkpt>
      <trkpt lat="44.53211" lon="4.24226">
        <ele>432</ele>
        <time>2018-06-03T06:52:43.000Z</time>
      </trkpt>
      <trkpt lat="44.53211" lon="4.24224">
        <ele>432</ele>
        <time>2018-06-03T06:52:44.000Z</time>
      </trkpt>
      <trkpt lat="44.53212" lon="4.24221">
        <ele>432</ele>
        <time>2018-06-03T06:52:45.000Z</time>
      </trkpt>
      <trkpt lat="44.53214" lon="4.24219">
        <ele>432</ele>
        <time>2018-06-03T06:52:46.000Z</time>
      </trkpt>
      <trkpt lat="44.53215" lon="4.24217">
        <ele>432</ele>
        <time>2018-06-03T06:52:47.000Z</time>
      </trkpt>
      <trkpt lat="44.53215" lon="4.24215">
        <ele>432</ele>
        <time>2018-06-03T06:52:48.000Z</time>
      </trkpt>
      <trkpt lat="44.53217" lon="4.24212">
        <ele>433</ele>
        <time>2018-06-03T06:52:49.000Z</time>
      </trkpt>
      <trkpt lat="44.53217" lon="4.2421">
        <ele>433</ele>
        <time>2018-06-03T06:52:50.000Z</time>
      </trkpt>
      <trkpt lat="44.53218" lon="4.24207">
        <ele>433</ele>
        <time>2018-06-03T06:52:51.000Z</time>
      </trkpt>
      <trkpt lat="44.53219" lon="4.24204">
        <ele>433</ele>
        <time>2018-06-03T06:52:52.000Z</time>
      </trkpt>
      <trkpt lat="44.5322" lon="4.24202">
        <ele>433</ele>
        <time>2018-06-03T06:52:53.000Z</time>
      </trkpt>
      <trkpt lat="44.53221" lon="4.24199">
        <ele>433</ele>
        <time>2018-06-03T06:52:54.000Z</time>
      </trkpt>
      <trkpt lat="44.53222" lon="4.24197">
        <ele>433</ele>
        <time>2018-06-03T06:52:55.000Z</time>
      </trkpt>
      <trkpt lat="44.53223" lon="4.24194">
        <ele>434</ele>
        <time>2018-06-03T06:52:56.000Z</time>
      </trkpt>
      <trkpt lat="44.53223" lon="4.24191">
        <ele>434</ele>
        <time>2018-06-03T06:52:57.000Z</time>
      </trkpt>
      <trkpt lat="44.53223" lon="4.24188">
        <ele>434</ele>
        <time>2018-06-03T06:52:58.000Z</time>
      </trkpt>
      <trkpt lat="44.53223" lon="4.24186">
        <ele>434</ele>
        <time>2018-06-03T06:52:59.000Z</time>
      </trkpt>
      <trkpt lat="44.53221" lon="4.24184">
        <ele>434</ele>
        <time>2018-06-03T06:53:00.000Z</time>
      </trkpt>
      <trkpt lat="44.53219" lon="4.24182">
        <ele>434</ele>
        <time>2018-06-03T06:53:01.000Z</time>
      </trkpt>
      <trkpt lat="44.53216" lon="4.2418">
        <ele>434</ele>
        <time>2018-06-03T06:53:02.000Z</time>
      </trkpt>
      <trkpt lat="44.53213" lon="4.24178">
        <ele>434</ele>
        <time>2018-06-03T06:53:03.000Z</time>
      </trkpt>
      <trkpt lat="44.53209" lon="4.24176">
        <ele>433</ele>
        <time>2018-06-03T06:53:04.000Z</time>
      </trkpt>
      <trkpt lat="44.53206" lon="4.24175">
        <ele>433</ele>
        <time>2018-06-03T06:53:05.000Z</time>
      </trkpt>
      <trkpt lat="44.53202" lon="4.24173">
        <ele>433</ele>
        <time>2018-06-03T06:53:06.000Z</time>
      </trkpt>
      <trkpt lat="44.53198" lon="4.24172">
        <ele>433</ele>
        <time>2018-06-03T06:53:07.000Z</time>
      </trkpt>
      <trkpt lat="44.53194" lon="4.24169">
        <ele>432</ele>
        <time>2018-06-03T06:53:08.000Z</time>
      </trkpt>
      <trkpt lat="44.53191" lon="4.24165">
        <ele>435</ele>
        <time>2018-06-03T06:53:09.000Z</time>
      </trkpt>
      <trkpt lat="44.53188" lon="4.24161">
        <ele>435</ele>
        <time>2018-06-03T06:53:10.000Z</time>
      </trkpt>
      <trkpt lat="44.53186" lon="4.24156">
        <ele>435</ele>
        <time>2018-06-03T06:53:11.000Z</time>
      </trkpt>
      <trkpt lat="44.53183" lon="4.24151">
        <ele>435</ele>
        <time>2018-06-03T06:53:12.000Z</time>
      </trkpt>
      <trkpt lat="44.5318" lon="4.24147">
        <ele>435</ele>
        <time>2018-06-03T06:53:13.000Z</time>
      </trkpt>
      <trkpt lat="44.53178" lon="4.24142">
        <ele>436</ele>
        <time>2018-06-03T06:53:14.000Z</time>
      </trkpt>
      <trkpt lat="44.53175" lon="4.24136">
        <ele>436</ele>
        <time>2018-06-03T06:53:15.000Z</time>
      </trkpt>
      <trkpt lat="44.53173" lon="4.2413">
        <ele>436</ele>
        <time>2018-06-03T06:53:16.000Z</time>
      </trkpt>
      <trkpt lat="44.5317" lon="4.24123">
        <ele>436</ele>
        <time>2018-06-03T06:53:17.000Z</time>
      </trkpt>
      <trkpt lat="44.53168" lon="4.24117">
        <ele>437</ele>
        <time>2018-06-03T06:53:18.000Z</time>
      </trkpt>
      <trkpt lat="44.53166" lon="4.24111">
        <ele>431</ele>
        <time>2018-06-03T06:53:19.000Z</time>
      </trkpt>
      <trkpt lat="44.53165" lon="4.24107">
        <ele>431</ele>
        <time>2018-06-03T06:53:20.000Z</time>
      </trkpt>
      <trkpt lat="44.53164" lon="4.24103">
        <ele>431</ele>
        <time>2018-06-03T06:53:21.000Z</time>
      </trkpt>
      <trkpt lat="44.53162" lon="4.24098">
        <ele>432</ele>
        <time>2018-06-03T06:53:22.000Z</time>
      </trkpt>
      <trkpt lat="44.5316" lon="4.24094">
        <ele>433</ele>
        <time>2018-06-03T06:53:23.000Z</time>
      </trkpt>
      <trkpt lat="44.53158" lon="4.24088">
        <ele>433</ele>
        <time>2018-06-03T06:53:24.000Z</time>
      </trkpt>
      <trkpt lat="44.53156" lon="4.24083">
        <ele>434</ele>
        <time>2018-06-03T06:53:25.000Z</time>
      </trkpt>
      <trkpt lat="44.53154" lon="4.24078">
        <ele>434</ele>
        <time>2018-06-03T06:53:26.000Z</time>
      </trkpt>
      <trkpt lat="44.53152" lon="4.24073">
        <ele>433</ele>
        <time>2018-06-03T06:53:27.000Z</time>
      </trkpt>
      <trkpt lat="44.53151" lon="4.24068">
        <ele>433</ele>
        <time>2018-06-03T06:53:28.000Z</time>
      </trkpt>
      <trkpt lat="44.5315" lon="4.24063">
        <ele>433</ele>
        <time>2018-06-03T06:53:29.000Z</time>
      </trkpt>
      <trkpt lat="44.5315" lon="4.24058">
        <ele>433</ele>
        <time>2018-06-03T06:53:30.000Z</time>
      </trkpt>
      <trkpt lat="44.5315" lon="4.24053">
        <ele>433</ele>
        <time>2018-06-03T06:53:31.000Z</time>
      </trkpt>
      <trkpt lat="44.5315" lon="4.24047">
        <ele>433</ele>
        <time>2018-06-03T06:53:32.000Z</time>
      </trkpt>
      <trkpt lat="44.5315" lon="4.24042">
        <ele>433</ele>
        <time>2018-06-03T06:53:33.000Z</time>
      </trkpt>
      <trkpt lat="44.5315" lon="4.24037">
        <ele>433</ele>
        <time>2018-06-03T06:53:34.000Z</time>
      </trkpt>
      <trkpt lat="44.5315" lon="4.24031">
        <ele>433</ele>
        <time>2018-06-03T06:53:35.000Z</time>
      </trkpt>
      <trkpt lat="44.5315" lon="4.24026">
        <ele>433</ele>
        <time>2018-06-03T06:53:36.000Z</time>
      </trkpt>
      <trkpt lat="44.5315" lon="4.24021">
        <ele>434</ele>
        <time>2018-06-03T06:53:37.000Z</time>
      </trkpt>
      <trkpt lat="44.53149" lon="4.24016">
        <ele>434</ele>
        <time>2018-06-03T06:53:38.000Z</time>
      </trkpt>
      <trkpt lat="44.53148" lon="4.24011">
        <ele>434</ele>
        <time>2018-06-03T06:53:39.000Z</time>
      </trkpt>
      <trkpt lat="44.53147" lon="4.24007">
        <ele>434</ele>
        <time>2018-06-03T06:53:40.000Z</time>
      </trkpt>
      <trkpt lat="44.53147" lon="4.24002">
        <ele>434</ele>
        <time>2018-06-03T06:53:41.000Z</time>
      </trkpt>
      <trkpt lat="44.53146" lon="4.23997">
        <ele>436</ele>
        <time>2018-06-03T06:53:42.000Z</time>
      </trkpt>
      <trkpt lat="44.53146" lon="4.23992">
        <ele>436</ele>
        <time>2018-06-03T06:53:43.000Z</time>
      </trkpt>
      <trkpt lat="44.53145" lon="4.23988">
        <ele>436</ele>
        <time>2018-06-03T06:53:44.000Z</time>
      </trkpt>
      <trkpt lat="44.53145" lon="4.23983">
        <ele>436</ele>
        <time>2018-06-03T06:53:45.000Z</time>
      </trkpt>
      <trkpt lat="44.53144" lon="4.23978">
        <ele>436</ele>
        <time>2018-06-03T06:53:46.000Z</time>
      </trkpt>
      <trkpt lat="44.53144" lon="4.23973">
        <ele>436</ele>
        <time>2018-06-03T06:53:47.000Z</time>
      </trkpt>
      <trkpt lat="44.53143" lon="4.23968">
        <ele>436</ele>
        <time>2018-06-03T06:53:48.000Z</time>
      </trkpt>
      <trkpt lat="44.53142" lon="4.23963">
        <ele>437</ele>
        <time>2018-06-03T06:53:49.000Z</time>
      </trkpt>
      <trkpt lat="44.5314" lon="4.23958">
        <ele>437</ele>
        <time>2018-06-03T06:53:50.000Z</time>
      </trkpt>
      <trkpt lat="44.53139" lon="4.23954">
        <ele>437</ele>
        <time>2018-06-03T06:53:51.000Z</time>
      </trkpt>
      <trkpt lat="44.53137" lon="4.2395">
        <ele>437</ele>
        <time>2018-06-03T06:53:52.000Z</time>
      </trkpt>
      <trkpt lat="44.53136" lon="4.23945">
        <ele>437</ele>
        <time>2018-06-03T06:53:53.000Z</time>
      </trkpt>
      <trkpt lat="44.53134" lon="4.23941">
        <ele>437</ele>
        <time>2018-06-03T06:53:54.000Z</time>
      </trkpt>
      <trkpt lat="44.53132" lon="4.23936">
        <ele>437</ele>
        <time>2018-06-03T06:53:55.000Z</time>
      </trkpt>
      <trkpt lat="44.5313" lon="4.23932">
        <ele>437</ele>
        <time>2018-06-03T06:53:56.000Z</time>
      </trkpt>
      <trkpt lat="44.53128" lon="4.23928">
        <ele>437</ele>
        <time>2018-06-03T06:53:57.000Z</time>
      </trkpt>
      <trkpt lat="44.53125" lon="4.23924">
        <ele>437</ele>
        <time>2018-06-03T06:53:58.000Z</time>
      </trkpt>
      <trkpt lat="44.53122" lon="4.2392">
        <ele>437</ele>
        <time>2018-06-03T06:53:59.000Z</time>
      </trkpt>
      <trkpt lat="44.53119" lon="4.23916">
        <ele>439</ele>
        <time>2018-06-03T06:54:00.000Z</time>
      </trkpt>
      <trkpt lat="44.53116" lon="4.23911">
        <ele>439</ele>
        <time>2018-06-03T06:54:01.000Z</time>
      </trkpt>
      <trkpt lat="44.53113" lon="4.23906">
        <ele>439</ele>
        <time>2018-06-03T06:54:02.000Z</time>
      </trkpt>
      <trkpt lat="44.5311" lon="4.239">
        <ele>438</ele>
        <time>2018-06-03T06:54:03.000Z</time>
      </trkpt>
      <trkpt lat="44.53108" lon="4.23895">
        <ele>439</ele>
        <time>2018-06-03T06:54:04.000Z</time>
      </trkpt>
      <trkpt lat="44.53105" lon="4.23889">
        <ele>439</ele>
        <time>2018-06-03T06:54:05.000Z</time>
      </trkpt>
      <trkpt lat="44.53103" lon="4.23883">
        <ele>439</ele>
        <time>2018-06-03T06:54:06.000Z</time>
      </trkpt>
      <trkpt lat="44.531" lon="4.23878">
        <ele>439</ele>
        <time>2018-06-03T06:54:07.000Z</time>
      </trkpt>
      <trkpt lat="44.53098" lon="4.23872">
        <ele>439</ele>
        <time>2018-06-03T06:54:08.000Z</time>
      </trkpt>
      <trkpt lat="44.53095" lon="4.23866">
        <ele>439</ele>
        <time>2018-06-03T06:54:09.000Z</time>
      </trkpt>
      <trkpt lat="44.53092" lon="4.2386">
        <ele>439</ele>
        <time>2018-06-03T06:54:10.000Z</time>
      </trkpt>
      <trkpt lat="44.5309" lon="4.23854">
        <ele>438</ele>
        <time>2018-06-03T06:54:11.000Z</time>
      </trkpt>
      <trkpt lat="44.53089" lon="4.23848">
        <ele>438</ele>
        <time>2018-06-03T06:54:12.000Z</time>
      </trkpt>
      <trkpt lat="44.53088" lon="4.23842">
        <ele>438</ele>
        <time>2018-06-03T06:54:13.000Z</time>
      </trkpt>
      <trkpt lat="44.53086" lon="4.23836">
        <ele>437</ele>
        <time>2018-06-03T06:54:14.000Z</time>
      </trkpt>
      <trkpt lat="44.53085" lon="4.23829">
        <ele>438</ele>
        <time>2018-06-03T06:54:15.000Z</time>
      </trkpt>
      <trkpt lat="44.53084" lon="4.23823">
        <ele>439</ele>
        <time>2018-06-03T06:54:16.000Z</time>
      </trkpt>
      <trkpt lat="44.53083" lon="4.23817">
        <ele>435</ele>
        <time>2018-06-03T06:54:17.000Z</time>
      </trkpt>
      <trkpt lat="44.53082" lon="4.2381">
        <ele>435</ele>
        <time>2018-06-03T06:54:18.000Z</time>
      </trkpt>
      <trkpt lat="44.53081" lon="4.23804">
        <ele>435</ele>
        <time>2018-06-03T06:54:19.000Z</time>
      </trkpt>
      <trkpt lat="44.5308" lon="4.23797">
        <ele>434</ele>
        <time>2018-06-03T06:54:20.000Z</time>
      </trkpt>
      <trkpt lat="44.53078" lon="4.23791">
        <ele>434</ele>
        <time>2018-06-03T06:54:21.000Z</time>
      </trkpt>
      <trkpt lat="44.53077" lon="4.23785">
        <ele>435</ele>
        <time>2018-06-03T06:54:22.000Z</time>
      </trkpt>
      <trkpt lat="44.53075" lon="4.23779">
        <ele>435</ele>
        <time>2018-06-03T06:54:23.000Z</time>
      </trkpt>
      <trkpt lat="44.53073" lon="4.23773">
        <ele>435</ele>
        <time>2018-06-03T06:54:24.000Z</time>
      </trkpt>
      <trkpt lat="44.5307" lon="4.23767">
        <ele>435</ele>
        <time>2018-06-03T06:54:25.000Z</time>
      </trkpt>
      <trkpt lat="44.53068" lon="4.23762">
        <ele>435</ele>
        <time>2018-06-03T06:54:26.000Z</time>
      </trkpt>
      <trkpt lat="44.53066" lon="4.23756">
        <ele>435</ele>
        <time>2018-06-03T06:54:27.000Z</time>
      </trkpt>
      <trkpt lat="44.53063" lon="4.23751">
        <ele>435</ele>
        <time>2018-06-03T06:54:28.000Z</time>
      </trkpt>
      <trkpt lat="44.5306" lon="4.23744">
        <ele>437</ele>
        <time>2018-06-03T06:54:29.000Z</time>
      </trkpt>
      <trkpt lat="44.53058" lon="4.23739">
        <ele>437</ele>
        <time>2018-06-03T06:54:30.000Z</time>
      </trkpt>
      <trkpt lat="44.53054" lon="4.23733">
        <ele>436</ele>
        <time>2018-06-03T06:54:31.000Z</time>
      </trkpt>
      <trkpt lat="44.53051" lon="4.23728">
        <ele>436</ele>
        <time>2018-06-03T06:54:32.000Z</time>
      </trkpt>
      <trkpt lat="44.53048" lon="4.23722">
        <ele>436</ele>
        <time>2018-06-03T06:54:33.000Z</time>
      </trkpt>
      <trkpt lat="44.53044" lon="4.23716">
        <ele>436</ele>
        <time>2018-06-03T06:54:34.000Z</time>
      </trkpt>
      <trkpt lat="44.53042" lon="4.23711">
        <ele>436</ele>
        <time>2018-06-03T06:54:35.000Z</time>
      </trkpt>
      <trkpt lat="44.53039" lon="4.23705">
        <ele>436</ele>
        <time>2018-06-03T06:54:36.000Z</time>
      </trkpt>
      <trkpt lat="44.53037" lon="4.23701">
        <ele>436</ele>
        <time>2018-06-03T06:54:37.000Z</time>
      </trkpt>
      <trkpt lat="44.53035" lon="4.23697">
        <ele>436</ele>
        <time>2018-06-03T06:54:38.000Z</time>
      </trkpt>
      <trkpt lat="44.53033" lon="4.23694">
        <ele>436</ele>
        <time>2018-06-03T06:54:39.000Z</time>
      </trkpt>
      <trkpt lat="44.53032" lon="4.23692">
        <ele>436</ele>
        <time>2018-06-03T06:54:40.000Z</time>
      </trkpt>
      <trkpt lat="44.53031" lon="4.2369">
        <ele>436</ele>
        <time>2018-06-03T06:54:41.000Z</time>
      </trkpt>
      <trkpt lat="44.53031" lon="4.23688">
        <ele>436</ele>
        <time>2018-06-03T06:54:42.000Z</time>
      </trkpt>
      <trkpt lat="44.53032" lon="4.23686">
        <ele>436</ele>
        <time>2018-06-03T06:54:43.000Z</time>
      </trkpt>
      <trkpt lat="44.53033" lon="4.23685">
        <ele>436</ele>
        <time>2018-06-03T06:54:44.000Z</time>
      </trkpt>
      <trkpt lat="44.53035" lon="4.23685">
        <ele>436</ele>
        <time>2018-06-03T06:54:45.000Z</time>
      </trkpt>
      <trkpt lat="44.53036" lon="4.23685">
        <ele>436</ele>
        <time>2018-06-03T06:54:46.000Z</time>
      </trkpt>
      <trkpt lat="44.53038" lon="4.23686">
        <ele>436</ele>
        <time>2018-06-03T06:54:47.000Z</time>
      </trkpt>
      <trkpt lat="44.5304" lon="4.23687">
        <ele>436</ele>
        <time>2018-06-03T06:54:48.000Z</time>
      </trkpt>
      <trkpt lat="44.53041" lon="4.23688">
        <ele>437</ele>
        <time>2018-06-03T06:54:49.000Z</time>
      </trkpt>
      <trkpt lat="44.53043" lon="4.23689">
        <ele>437</ele>
        <time>2018-06-03T06:54:50.000Z</time>
      </trkpt>
      <trkpt lat="44.53045" lon="4.2369">
        <ele>437</ele>
        <time>2018-06-03T06:54:51.000Z</time>
      </trkpt>
      <trkpt lat="44.53047" lon="4.23691">
        <ele>437</ele>
        <time>2018-06-03T06:54:52.000Z</time>
      </trkpt>
      <trkpt lat="44.53049" lon="4.23692">
        <ele>437</ele>
        <time>2018-06-03T06:54:53.000Z</time>
      </trkpt>
      <trkpt lat="44.53051" lon="4.23693">
        <ele>437</ele>
        <time>2018-06-03T06:54:54.000Z</time>
      </trkpt>
      <trkpt lat="44.53052" lon="4.23694">
        <ele>437</ele>
        <time>2018-06-03T06:54:55.000Z</time>
      </trkpt>
      <trkpt lat="44.53054" lon="4.23695">
        <ele>437</ele>
        <time>2018-06-03T06:54:56.000Z</time>
      </trkpt>
      <trkpt lat="44.53056" lon="4.23697">
        <ele>437</ele>
        <time>2018-06-03T06:54:57.000Z</time>
      </trkpt>
      <trkpt lat="44.53059" lon="4.23698">
        <ele>437</ele>
        <time>2018-06-03T06:54:58.000Z</time>
      </trkpt>
      <trkpt lat="44.53061" lon="4.237">
        <ele>437</ele>
        <time>2018-06-03T06:54:59.000Z</time>
      </trkpt>
      <trkpt lat="44.53063" lon="4.23702">
        <ele>437</ele>
        <time>2018-06-03T06:55:00.000Z</time>
      </trkpt>
      <trkpt lat="44.53065" lon="4.23703">
        <ele>437</ele>
        <time>2018-06-03T06:55:01.000Z</time>
      </trkpt>
      <trkpt lat="44.53067" lon="4.23704">
        <ele>438</ele>
        <time>2018-06-03T06:55:02.000Z</time>
      </trkpt>
      <trkpt lat="44.53069" lon="4.23705">
        <ele>438</ele>
        <time>2018-06-03T06:55:03.000Z</time>
      </trkpt>
      <trkpt lat="44.53071" lon="4.23706">
        <ele>438</ele>
        <time>2018-06-03T06:55:04.000Z</time>
      </trkpt>
      <trkpt lat="44.53073" lon="4.23707">
        <ele>438</ele>
        <time>2018-06-03T06:55:05.000Z</time>
      </trkpt>
      <trkpt lat="44.53075" lon="4.23709">
        <ele>438</ele>
        <time>2018-06-03T06:55:06.000Z</time>
      </trkpt>
      <trkpt lat="44.53077" lon="4.2371">
        <ele>438</ele>
        <time>2018-06-03T06:55:07.000Z</time>
      </trkpt>
      <trkpt lat="44.53079" lon="4.23712">
        <ele>438</ele>
        <time>2018-06-03T06:55:08.000Z</time>
      </trkpt>
      <trkpt lat="44.53081" lon="4.23713">
        <ele>438</ele>
        <time>2018-06-03T06:55:09.000Z</time>
      </trkpt>
      <trkpt lat="44.53083" lon="4.23714">
        <ele>438</ele>
        <time>2018-06-03T06:55:10.000Z</time>
      </trkpt>
      <trkpt lat="44.53085" lon="4.23716">
        <ele>444</ele>
        <time>2018-06-03T06:55:11.000Z</time>
      </trkpt>
      <trkpt lat="44.53087" lon="4.23717">
        <ele>444</ele>
        <time>2018-06-03T06:55:12.000Z</time>
      </trkpt>
      <trkpt lat="44.5309" lon="4.23719">
        <ele>444</ele>
        <time>2018-06-03T06:55:13.000Z</time>
      </trkpt>
      <trkpt lat="44.53092" lon="4.23721">
        <ele>444</ele>
        <time>2018-06-03T06:55:14.000Z</time>
      </trkpt>
      <trkpt lat="44.53094" lon="4.23722">
        <ele>444</ele>
        <time>2018-06-03T06:55:15.000Z</time>
      </trkpt>
      <trkpt lat="44.53096" lon="4.23723">
        <ele>444</ele>
        <time>2018-06-03T06:55:16.000Z</time>
      </trkpt>
      <trkpt lat="44.53098" lon="4.23724">
        <ele>444</ele>
        <time>2018-06-03T06:55:17.000Z</time>
      </trkpt>
      <trkpt lat="44.531" lon="4.23725">
        <ele>444</ele>
        <time>2018-06-03T06:55:18.000Z</time>
      </trkpt>
      <trkpt lat="44.53102" lon="4.23726">
        <ele>444</ele>
        <time>2018-06-03T06:55:19.000Z</time>
      </trkpt>
      <trkpt lat="44.53105" lon="4.23727">
        <ele>444</ele>
        <time>2018-06-03T06:55:20.000Z</time>
      </trkpt>
      <trkpt lat="44.53107" lon="4.23728">
        <ele>444</ele>
        <time>2018-06-03T06:55:21.000Z</time>
      </trkpt>
      <trkpt lat="44.5311" lon="4.23728">
        <ele>444</ele>
        <time>2018-06-03T06:55:22.000Z</time>
      </trkpt>
      <trkpt lat="44.53112" lon="4.23729">
        <ele>444</ele>
        <time>2018-06-03T06:55:23.000Z</time>
      </trkpt>
      <trkpt lat="44.53114" lon="4.23729">
        <ele>445</ele>
        <time>2018-06-03T06:55:24.000Z</time>
      </trkpt>
      <trkpt lat="44.53116" lon="4.2373">
        <ele>445</ele>
        <time>2018-06-03T06:55:25.000Z</time>
      </trkpt>
      <trkpt lat="44.53118" lon="4.23731">
        <ele>445</ele>
        <time>2018-06-03T06:55:26.000Z</time>
      </trkpt>
      <trkpt lat="44.5312" lon="4.23731">
        <ele>445</ele>
        <time>2018-06-03T06:55:27.000Z</time>
      </trkpt>
      <trkpt lat="44.53122" lon="4.23732">
        <ele>445</ele>
        <time>2018-06-03T06:55:28.000Z</time>
      </trkpt>
      <trkpt lat="44.53123" lon="4.23733">
        <ele>445</ele>
        <time>2018-06-03T06:55:29.000Z</time>
      </trkpt>
      <trkpt lat="44.53125" lon="4.23734">
        <ele>445</ele>
        <time>2018-06-03T06:55:30.000Z</time>
      </trkpt>
      <trkpt lat="44.53127" lon="4.23735">
        <ele>446</ele>
        <time>2018-06-03T06:55:31.000Z</time>
      </trkpt>
      <trkpt lat="44.53129" lon="4.23736">
        <ele>446</ele>
        <time>2018-06-03T06:55:32.000Z</time>
      </trkpt>
      <trkpt lat="44.53131" lon="4.23738">
        <ele>446</ele>
        <time>2018-06-03T06:55:33.000Z</time>
      </trkpt>
      <trkpt lat="44.53133" lon="4.23739">
        <ele>446</ele>
        <time>2018-06-03T06:55:34.000Z</time>
      </trkpt>
      <trkpt lat="44.53135" lon="4.2374">
        <ele>446</ele>
        <time>2018-06-03T06:55:35.000Z</time>
      </trkpt>
      <trkpt lat="44.53137" lon="4.23742">
        <ele>446</ele>
        <time>2018-06-03T06:55:36.000Z</time>
      </trkpt>
      <trkpt lat="44.53139" lon="4.23745">
        <ele>447</ele>
        <time>2018-06-03T06:55:37.000Z</time>
      </trkpt>
      <trkpt lat="44.53141" lon="4.23747">
        <ele>447</ele>
        <time>2018-06-03T06:55:38.000Z</time>
      </trkpt>
      <trkpt lat="44.53143" lon="4.23749">
        <ele>447</ele>
        <time>2018-06-03T06:55:39.000Z</time>
      </trkpt>
      <trkpt lat="44.53145" lon="4.23752">
        <ele>446</ele>
        <time>2018-06-03T06:55:40.000Z</time>
      </trkpt>
      <trkpt lat="44.53147" lon="4.23754">
        <ele>446</ele>
        <time>2018-06-03T06:55:41.000Z</time>
      </trkpt>
      <trkpt lat="44.53149" lon="4.23757">
        <ele>446</ele>
        <time>2018-06-03T06:55:42.000Z</time>
      </trkpt>
      <trkpt lat="44.53151" lon="4.23759">
        <ele>446</ele>
        <time>2018-06-03T06:55:43.000Z</time>
      </trkpt>
      <trkpt lat="44.53153" lon="4.23761">
        <ele>446</ele>
        <time>2018-06-03T06:55:44.000Z</time>
      </trkpt>
      <trkpt lat="44.53155" lon="4.23763">
        <ele>446</ele>
        <time>2018-06-03T06:55:45.000Z</time>
      </trkpt>
      <trkpt lat="44.53157" lon="4.23766">
        <ele>446</ele>
        <time>2018-06-03T06:55:46.000Z</time>
      </trkpt>
      <trkpt lat="44.53159" lon="4.23768">
        <ele>446</ele>
        <time>2018-06-03T06:55:47.000Z</time>
      </trkpt>
      <trkpt lat="44.5316" lon="4.23771">
        <ele>446</ele>
        <time>2018-06-03T06:55:48.000Z</time>
      </trkpt>
      <trkpt lat="44.53162" lon="4.23773">
        <ele>446</ele>
        <time>2018-06-03T06:55:49.000Z</time>
      </trkpt>
      <trkpt lat="44.53163" lon="4.23776">
        <ele>446</ele>
        <time>2018-06-03T06:55:50.000Z</time>
      </trkpt>
      <trkpt lat="44.53165" lon="4.23778">
        <ele>446</ele>
        <time>2018-06-03T06:55:51.000Z</time>
      </trkpt>
      <trkpt lat="44.53167" lon="4.23781">
        <ele>453</ele>
        <time>2018-06-03T06:55:52.000Z</time>
      </trkpt>
      <trkpt lat="44.53169" lon="4.23784">
        <ele>453</ele>
        <time>2018-06-03T06:55:53.000Z</time>
      </trkpt>
      <trkpt lat="44.53171" lon="4.23787">
        <ele>453</ele>
        <time>2018-06-03T06:55:54.000Z</time>
      </trkpt>
      <trkpt lat="44.53173" lon="4.2379">
        <ele>453</ele>
        <time>2018-06-03T06:55:55.000Z</time>
      </trkpt>
      <trkpt lat="44.53175" lon="4.23793">
        <ele>453</ele>
        <time>2018-06-03T06:55:56.000Z</time>
      </trkpt>
      <trkpt lat="44.53177" lon="4.23797">
        <ele>453</ele>
        <time>2018-06-03T06:55:57.000Z</time>
      </trkpt>
      <trkpt lat="44.5318" lon="4.238">
        <ele>453</ele>
        <time>2018-06-03T06:55:58.000Z</time>
      </trkpt>
      <trkpt lat="44.53182" lon="4.23803">
        <ele>453</ele>
        <time>2018-06-03T06:55:59.000Z</time>
      </trkpt>
      <trkpt lat="44.53184" lon="4.23806">
        <ele>453</ele>
        <time>2018-06-03T06:56:00.000Z</time>
      </trkpt>
      <trkpt lat="44.53187" lon="4.23809">
        <ele>453</ele>
        <time>2018-06-03T06:56:01.000Z</time>
      </trkpt>
      <trkpt lat="44.53189" lon="4.23812">
        <ele>453</ele>
        <time>2018-06-03T06:56:02.000Z</time>
      </trkpt>
      <trkpt lat="44.53191" lon="4.23815">
        <ele>453</ele>
        <time>2018-06-03T06:56:03.000Z</time>
      </trkpt>
      <trkpt lat="44.53193" lon="4.23817">
        <ele>453</ele>
        <time>2018-06-03T06:56:04.000Z</time>
      </trkpt>
      <trkpt lat="44.53196" lon="4.2382">
        <ele>453</ele>
        <time>2018-06-03T06:56:05.000Z</time>
      </trkpt>
      <trkpt lat="44.53198" lon="4.23823">
        <ele>453</ele>
        <time>2018-06-03T06:56:06.000Z</time>
      </trkpt>
      <trkpt lat="44.532" lon="4.23825">
        <ele>453</ele>
        <time>2018-06-03T06:56:07.000Z</time>
      </trkpt>
      <trkpt lat="44.53202" lon="4.23827">
        <ele>454</ele>
        <time>2018-06-03T06:56:08.000Z</time>
      </trkpt>
      <trkpt lat="44.53205" lon="4.2383">
        <ele>454</ele>
        <time>2018-06-03T06:56:09.000Z</time>
      </trkpt>
      <trkpt lat="44.53207" lon="4.23832">
        <ele>454</ele>
        <time>2018-06-03T06:56:10.000Z</time>
      </trkpt>
      <trkpt lat="44.53209" lon="4.23834">
        <ele>451</ele>
        <time>2018-06-03T06:56:11.000Z</time>
      </trkpt>
      <trkpt lat="44.53211" lon="4.23837">
        <ele>451</ele>
        <time>2018-06-03T06:56:12.000Z</time>
      </trkpt>
      <trkpt lat="44.53214" lon="4.23839">
        <ele>452</ele>
        <time>2018-06-03T06:56:13.000Z</time>
      </trkpt>
      <trkpt lat="44.53216" lon="4.23841">
        <ele>452</ele>
        <time>2018-06-03T06:56:14.000Z</time>
      </trkpt>
      <trkpt lat="44.53219" lon="4.23843">
        <ele>452</ele>
        <time>2018-06-03T06:56:15.000Z</time>
      </trkpt>
      <trkpt lat="44.53221" lon="4.23845">
        <ele>452</ele>
        <time>2018-06-03T06:56:16.000Z</time>
      </trkpt>
      <trkpt lat="44.53224" lon="4.23847">
        <ele>453</ele>
        <time>2018-06-03T06:56:17.000Z</time>
      </trkpt>
      <trkpt lat="44.53226" lon="4.23848">
        <ele>453</ele>
        <time>2018-06-03T06:56:18.000Z</time>
      </trkpt>
      <trkpt lat="44.53229" lon="4.23848">
        <ele>453</ele>
        <time>2018-06-03T06:56:19.000Z</time>
      </trkpt>
      <trkpt lat="44.53232" lon="4.23847">
        <ele>454</ele>
        <time>2018-06-03T06:56:20.000Z</time>
      </trkpt>
      <trkpt lat="44.53234" lon="4.23845">
        <ele>454</ele>
        <time>2018-06-03T06:56:21.000Z</time>
      </trkpt>
      <trkpt lat="44.53237" lon="4.23844">
        <ele>455</ele>
        <time>2018-06-03T06:56:22.000Z</time>
      </trkpt>
      <trkpt lat="44.53239" lon="4.23842">
        <ele>455</ele>
        <time>2018-06-03T06:56:23.000Z</time>
      </trkpt>
      <trkpt lat="44.53241" lon="4.2384">
        <ele>456</ele>
        <time>2018-06-03T06:56:24.000Z</time>
      </trkpt>
      <trkpt lat="44.53243" lon="4.23838">
        <ele>456</ele>
        <time>2018-06-03T06:56:25.000Z</time>
      </trkpt>
      <trkpt lat="44.53245" lon="4.23835">
        <ele>457</ele>
        <time>2018-06-03T06:56:26.000Z</time>
      </trkpt>
      <trkpt lat="44.53247" lon="4.23834">
        <ele>458</ele>
        <time>2018-06-03T06:56:27.000Z</time>
      </trkpt>
      <trkpt lat="44.53249" lon="4.23832">
        <ele>459</ele>
        <time>2018-06-03T06:56:28.000Z</time>
      </trkpt>
      <trkpt lat="44.53251" lon="4.2383">
        <ele>460</ele>
        <time>2018-06-03T06:56:29.000Z</time>
      </trkpt>
      <trkpt lat="44.53253" lon="4.23828">
        <ele>461</ele>
        <time>2018-06-03T06:56:30.000Z</time>
      </trkpt>
      <trkpt lat="44.53255" lon="4.23826">
        <ele>462</ele>
        <time>2018-06-03T06:56:31.000Z</time>
      </trkpt>
      <trkpt lat="44.53256" lon="4.23824">
        <ele>463</ele>
        <time>2018-06-03T06:56:32.000Z</time>
      </trkpt>
      <trkpt lat="44.53258" lon="4.23821">
        <ele>463</ele>
        <time>2018-06-03T06:56:33.000Z</time>
      </trkpt>
      <trkpt lat="44.53259" lon="4.23819">
        <ele>464</ele>
        <time>2018-06-03T06:56:34.000Z</time>
      </trkpt>
      <trkpt lat="44.5326" lon="4.23817">
        <ele>464</ele>
        <time>2018-06-03T06:56:35.000Z</time>
      </trkpt>
      <trkpt lat="44.53261" lon="4.23814">
        <ele>465</ele>
        <time>2018-06-03T06:56:36.000Z</time>
      </trkpt>
      <trkpt lat="44.53262" lon="4.23812">
        <ele>465</ele>
        <time>2018-06-03T06:56:37.000Z</time>
      </trkpt>
      <trkpt lat="44.53263" lon="4.2381">
        <ele>465</ele>
        <time>2018-06-03T06:56:38.000Z</time>
      </trkpt>
      <trkpt lat="44.53264" lon="4.23807">
        <ele>466</ele>
        <time>2018-06-03T06:56:39.000Z</time>
      </trkpt>
      <trkpt lat="44.53266" lon="4.23804">
        <ele>466</ele>
        <time>2018-06-03T06:56:40.000Z</time>
      </trkpt>
      <trkpt lat="44.53268" lon="4.238">
        <ele>467</ele>
        <time>2018-06-03T06:56:41.000Z</time>
      </trkpt>
      <trkpt lat="44.53269" lon="4.23797">
        <ele>467</ele>
        <time>2018-06-03T06:56:42.000Z</time>
      </trkpt>
      <trkpt lat="44.53271" lon="4.23795">
        <ele>467</ele>
        <time>2018-06-03T06:56:43.000Z</time>
      </trkpt>
      <trkpt lat="44.53272" lon="4.23792">
        <ele>468</ele>
        <time>2018-06-03T06:56:44.000Z</time>
      </trkpt>
      <trkpt lat="44.53273" lon="4.2379">
        <ele>468</ele>
        <time>2018-06-03T06:56:45.000Z</time>
      </trkpt>
      <trkpt lat="44.53274" lon="4.23787">
        <ele>468</ele>
        <time>2018-06-03T06:56:46.000Z</time>
      </trkpt>
      <trkpt lat="44.53275" lon="4.23784">
        <ele>468</ele>
        <time>2018-06-03T06:56:47.000Z</time>
      </trkpt>
      <trkpt lat="44.53276" lon="4.23782">
        <ele>468</ele>
        <time>2018-06-03T06:56:48.000Z</time>
      </trkpt>
      <trkpt lat="44.53277" lon="4.2378">
        <ele>468</ele>
        <time>2018-06-03T06:56:49.000Z</time>
      </trkpt>
      <trkpt lat="44.53278" lon="4.23778">
        <ele>469</ele>
        <time>2018-06-03T06:56:50.000Z</time>
      </trkpt>
      <trkpt lat="44.53278" lon="4.23775">
        <ele>469</ele>
        <time>2018-06-03T06:56:51.000Z</time>
      </trkpt>
      <trkpt lat="44.53279" lon="4.23773">
        <ele>469</ele>
        <time>2018-06-03T06:56:52.000Z</time>
      </trkpt>
      <trkpt lat="44.53279" lon="4.2377">
        <ele>469</ele>
        <time>2018-06-03T06:56:53.000Z</time>
      </trkpt>
      <trkpt lat="44.53278" lon="4.23768">
        <ele>469</ele>
        <time>2018-06-03T06:56:54.000Z</time>
      </trkpt>
      <trkpt lat="44.53277" lon="4.23766">
        <ele>469</ele>
        <time>2018-06-03T06:56:55.000Z</time>
      </trkpt>
      <trkpt lat="44.53277" lon="4.23763">
        <ele>469</ele>
        <time>2018-06-03T06:56:56.000Z</time>
      </trkpt>
      <trkpt lat="44.53276" lon="4.2376">
        <ele>469</ele>
        <time>2018-06-03T06:56:57.000Z</time>
      </trkpt>
      <trkpt lat="44.53276" lon="4.23757">
        <ele>469</ele>
        <time>2018-06-03T06:56:58.000Z</time>
      </trkpt>
      <trkpt lat="44.53275" lon="4.23755">
        <ele>469</ele>
        <time>2018-06-03T06:56:59.000Z</time>
      </trkpt>
      <trkpt lat="44.53275" lon="4.23752">
        <ele>469</ele>
        <time>2018-06-03T06:57:00.000Z</time>
      </trkpt>
      <trkpt lat="44.53275" lon="4.2375">
        <ele>474</ele>
        <time>2018-06-03T06:57:01.000Z</time>
      </trkpt>
      <trkpt lat="44.53274" lon="4.23747">
        <ele>474</ele>
        <time>2018-06-03T06:57:02.000Z</time>
      </trkpt>
      <trkpt lat="44.53274" lon="4.23744">
        <ele>474</ele>
        <time>2018-06-03T06:57:03.000Z</time>
      </trkpt>
      <trkpt lat="44.53274" lon="4.23742">
        <ele>474</ele>
        <time>2018-06-03T06:57:04.000Z</time>
      </trkpt>
      <trkpt lat="44.53274" lon="4.23739">
        <ele>474</ele>
        <time>2018-06-03T06:57:05.000Z</time>
      </trkpt>
      <trkpt lat="44.53273" lon="4.23736">
        <ele>474</ele>
        <time>2018-06-03T06:57:06.000Z</time>
      </trkpt>
      <trkpt lat="44.53273" lon="4.23734">
        <ele>474</ele>
        <time>2018-06-03T06:57:07.000Z</time>
      </trkpt>
      <trkpt lat="44.53273" lon="4.23731">
        <ele>474</ele>
        <time>2018-06-03T06:57:08.000Z</time>
      </trkpt>
      <trkpt lat="44.53273" lon="4.23728">
        <ele>475</ele>
        <time>2018-06-03T06:57:09.000Z</time>
      </trkpt>
      <trkpt lat="44.53273" lon="4.23726">
        <ele>475</ele>
        <time>2018-06-03T06:57:10.000Z</time>
      </trkpt>
      <trkpt lat="44.53273" lon="4.23723">
        <ele>475</ele>
        <time>2018-06-03T06:57:11.000Z</time>
      </trkpt>
      <trkpt lat="44.53273" lon="4.2372">
        <ele>475</ele>
        <time>2018-06-03T06:57:12.000Z</time>
      </trkpt>
      <trkpt lat="44.53273" lon="4.23718">
        <ele>475</ele>
        <time>2018-06-03T06:57:13.000Z</time>
      </trkpt>
      <trkpt lat="44.53273" lon="4.23715">
        <ele>476</ele>
        <time>2018-06-03T06:57:14.000Z</time>
      </trkpt>
      <trkpt lat="44.53274" lon="4.23713">
        <ele>476</ele>
        <time>2018-06-03T06:57:15.000Z</time>
      </trkpt>
      <trkpt lat="44.53275" lon="4.2371">
        <ele>476</ele>
        <time>2018-06-03T06:57:16.000Z</time>
      </trkpt>
      <trkpt lat="44.53276" lon="4.23708">
        <ele>476</ele>
        <time>2018-06-03T06:57:17.000Z</time>
      </trkpt>
      <trkpt lat="44.53277" lon="4.23706">
        <ele>477</ele>
        <time>2018-06-03T06:57:18.000Z</time>
      </trkpt>
      <trkpt lat="44.53279" lon="4.23704">
        <ele>477</ele>
        <time>2018-06-03T06:57:19.000Z</time>
      </trkpt>
      <trkpt lat="44.5328" lon="4.23702">
        <ele>477</ele>
        <time>2018-06-03T06:57:20.000Z</time>
      </trkpt>
      <trkpt lat="44.53281" lon="4.237">
        <ele>477</ele>
        <time>2018-06-03T06:57:21.000Z</time>
      </trkpt>
      <trkpt lat="44.53283" lon="4.23698">
        <ele>478</ele>
        <time>2018-06-03T06:57:22.000Z</time>
      </trkpt>
      <trkpt lat="44.53284" lon="4.23697">
        <ele>478</ele>
        <time>2018-06-03T06:57:23.000Z</time>
      </trkpt>
      <trkpt lat="44.53285" lon="4.23695">
        <ele>478</ele>
        <time>2018-06-03T06:57:24.000Z</time>
      </trkpt>
      <trkpt lat="44.53285" lon="4.23692">
        <ele>478</ele>
        <time>2018-06-03T06:57:25.000Z</time>
      </trkpt>
      <trkpt lat="44.53284" lon="4.2369">
        <ele>478</ele>
        <time>2018-06-03T06:57:26.000Z</time>
      </trkpt>
      <trkpt lat="44.53284" lon="4.23687">
        <ele>478</ele>
        <time>2018-06-03T06:57:27.000Z</time>
      </trkpt>
      <trkpt lat="44.53283" lon="4.23685">
        <ele>478</ele>
        <time>2018-06-03T06:57:28.000Z</time>
      </trkpt>
      <trkpt lat="44.53281" lon="4.23682">
        <ele>478</ele>
        <time>2018-06-03T06:57:29.000Z</time>
      </trkpt>
      <trkpt lat="44.53281" lon="4.23678">
        <ele>477</ele>
        <time>2018-06-03T06:57:30.000Z</time>
      </trkpt>
      <trkpt lat="44.5328" lon="4.23675">
        <ele>477</ele>
        <time>2018-06-03T06:57:31.000Z</time>
      </trkpt>
      <trkpt lat="44.53279" lon="4.23671">
        <ele>477</ele>
        <time>2018-06-03T06:57:32.000Z</time>
      </trkpt>
      <trkpt lat="44.53279" lon="4.23667">
        <ele>477</ele>
        <time>2018-06-03T06:57:33.000Z</time>
      </trkpt>
      <trkpt lat="44.53279" lon="4.23663">
        <ele>481</ele>
        <time>2018-06-03T06:57:34.000Z</time>
      </trkpt>
      <trkpt lat="44.53279" lon="4.23659">
        <ele>481</ele>
        <time>2018-06-03T06:57:35.000Z</time>
      </trkpt>
      <trkpt lat="44.5328" lon="4.23655">
        <ele>482</ele>
        <time>2018-06-03T06:57:36.000Z</time>
      </trkpt>
      <trkpt lat="44.5328" lon="4.23652">
        <ele>482</ele>
        <time>2018-06-03T06:57:37.000Z</time>
      </trkpt>
      <trkpt lat="44.53279" lon="4.23649">
        <ele>482</ele>
        <time>2018-06-03T06:57:38.000Z</time>
      </trkpt>
      <trkpt lat="44.53278" lon="4.23646">
        <ele>482</ele>
        <time>2018-06-03T06:57:39.000Z</time>
      </trkpt>
      <trkpt lat="44.53277" lon="4.23642">
        <ele>482</ele>
        <time>2018-06-03T06:57:40.000Z</time>
      </trkpt>
      <trkpt lat="44.53276" lon="4.23639">
        <ele>482</ele>
        <time>2018-06-03T06:57:41.000Z</time>
      </trkpt>
      <trkpt lat="44.53276" lon="4.23635">
        <ele>482</ele>
        <time>2018-06-03T06:57:42.000Z</time>
      </trkpt>
      <trkpt lat="44.53275" lon="4.23631">
        <ele>482</ele>
        <time>2018-06-03T06:57:43.000Z</time>
      </trkpt>
      <trkpt lat="44.53274" lon="4.23627">
        <ele>482</ele>
        <time>2018-06-03T06:57:44.000Z</time>
      </trkpt>
      <trkpt lat="44.53273" lon="4.23624">
        <ele>482</ele>
        <time>2018-06-03T06:57:45.000Z</time>
      </trkpt>
      <trkpt lat="44.53273" lon="4.2362">
        <ele>482</ele>
        <time>2018-06-03T06:57:46.000Z</time>
      </trkpt>
      <trkpt lat="44.53272" lon="4.23617">
        <ele>482</ele>
        <time>2018-06-03T06:57:47.000Z</time>
      </trkpt>
      <trkpt lat="44.53272" lon="4.23614">
        <ele>482</ele>
        <time>2018-06-03T06:57:48.000Z</time>
      </trkpt>
      <trkpt lat="44.53272" lon="4.23611">
        <ele>482</ele>
        <time>2018-06-03T06:57:49.000Z</time>
      </trkpt>
      <trkpt lat="44.53273" lon="4.23608">
        <ele>482</ele>
        <time>2018-06-03T06:57:50.000Z</time>
      </trkpt>
      <trkpt lat="44.53273" lon="4.23605">
        <ele>482</ele>
        <time>2018-06-03T06:57:51.000Z</time>
      </trkpt>
      <trkpt lat="44.53274" lon="4.23602">
        <ele>482</ele>
        <time>2018-06-03T06:57:52.000Z</time>
      </trkpt>
      <trkpt lat="44.53274" lon="4.23599">
        <ele>482</ele>
        <time>2018-06-03T06:57:53.000Z</time>
      </trkpt>
      <trkpt lat="44.53274" lon="4.23596">
        <ele>482</ele>
        <time>2018-06-03T06:57:54.000Z</time>
      </trkpt>
      <trkpt lat="44.53275" lon="4.23594">
        <ele>482</ele>
        <time>2018-06-03T06:57:55.000Z</time>
      </trkpt>
      <trkpt lat="44.53275" lon="4.23591">
        <ele>482</ele>
        <time>2018-06-03T06:57:56.000Z</time>
      </trkpt>
      <trkpt lat="44.53276" lon="4.23589">
        <ele>482</ele>
        <time>2018-06-03T06:57:57.000Z</time>
      </trkpt>
      <trkpt lat="44.53276" lon="4.23587">
        <ele>482</ele>
        <time>2018-06-03T06:57:58.000Z</time>
      </trkpt>
      <trkpt lat="44.53276" lon="4.23585">
        <ele>482</ele>
        <time>2018-06-03T06:57:59.000Z</time>
      </trkpt>
      <trkpt lat="44.53276" lon="4.23583">
        <ele>482</ele>
        <time>2018-06-03T06:58:00.000Z</time>
      </trkpt>
      <trkpt lat="44.53277" lon="4.2358">
        <ele>482</ele>
        <time>2018-06-03T06:58:01.000Z</time>
      </trkpt>
      <trkpt lat="44.53277" lon="4.23578">
        <ele>482</ele>
        <time>2018-06-03T06:58:02.000Z</time>
      </trkpt>
      <trkpt lat="44.53278" lon="4.23576">
        <ele>483</ele>
        <time>2018-06-03T06:58:03.000Z</time>
      </trkpt>
      <trkpt lat="44.53279" lon="4.23573">
        <ele>483</ele>
        <time>2018-06-03T06:58:04.000Z</time>
      </trkpt>
      <trkpt lat="44.5328" lon="4.2357">
        <ele>483</ele>
        <time>2018-06-03T06:58:05.000Z</time>
      </trkpt>
      <trkpt lat="44.53281" lon="4.23567">
        <ele>483</ele>
        <time>2018-06-03T06:58:06.000Z</time>
      </trkpt>
      <trkpt lat="44.53282" lon="4.23564">
        <ele>484</ele>
        <time>2018-06-03T06:58:07.000Z</time>
      </trkpt>
      <trkpt lat="44.53282" lon="4.23562">
        <ele>484</ele>
        <time>2018-06-03T06:58:08.000Z</time>
      </trkpt>
      <trkpt lat="44.53282" lon="4.2356">
        <ele>484</ele>
        <time>2018-06-03T06:58:09.000Z</time>
      </trkpt>
      <trkpt lat="44.53282" lon="4.23558">
        <ele>484</ele>
        <time>2018-06-03T06:58:10.000Z</time>
      </trkpt>
      <trkpt lat="44.53282" lon="4.23555">
        <ele>484</ele>
        <time>2018-06-03T06:58:11.000Z</time>
      </trkpt>
      <trkpt lat="44.53282" lon="4.23553">
        <ele>484</ele>
        <time>2018-06-03T06:58:12.000Z</time>
      </trkpt>
      <trkpt lat="44.53283" lon="4.23551">
        <ele>484</ele>
        <time>2018-06-03T06:58:13.000Z</time>
      </trkpt>
      <trkpt lat="44.53284" lon="4.23549">
        <ele>484</ele>
        <time>2018-06-03T06:58:14.000Z</time>
      </trkpt>
      <trkpt lat="44.53284" lon="4.23547">
        <ele>484</ele>
        <time>2018-06-03T06:58:15.000Z</time>
      </trkpt>
      <trkpt lat="44.53284" lon="4.23544">
        <ele>484</ele>
        <time>2018-06-03T06:58:16.000Z</time>
      </trkpt>
      <trkpt lat="44.53285" lon="4.23542">
        <ele>484</ele>
        <time>2018-06-03T06:58:17.000Z</time>
      </trkpt>
      <trkpt lat="44.53285" lon="4.2354">
        <ele>484</ele>
        <time>2018-06-03T06:58:18.000Z</time>
      </trkpt>
      <trkpt lat="44.53285" lon="4.23537">
        <ele>484</ele>
        <time>2018-06-03T06:58:19.000Z</time>
      </trkpt>
      <trkpt lat="44.53286" lon="4.23534">
        <ele>484</ele>
        <time>2018-06-03T06:58:20.000Z</time>
      </trkpt>
      <trkpt lat="44.53287" lon="4.23531">
        <ele>484</ele>
        <time>2018-06-03T06:58:21.000Z</time>
      </trkpt>
      <trkpt lat="44.53287" lon="4.23527">
        <ele>484</ele>
        <time>2018-06-03T06:58:22.000Z</time>
      </trkpt>
      <trkpt lat="44.53288" lon="4.23524">
        <ele>485</ele>
        <time>2018-06-03T06:58:23.000Z</time>
      </trkpt>
      <trkpt lat="44.53289" lon="4.2352">
        <ele>485</ele>
        <time>2018-06-03T06:58:24.000Z</time>
      </trkpt>
      <trkpt lat="44.5329" lon="4.23516">
        <ele>485</ele>
        <time>2018-06-03T06:58:25.000Z</time>
      </trkpt>
      <trkpt lat="44.53291" lon="4.23511">
        <ele>485</ele>
        <time>2018-06-03T06:58:26.000Z</time>
      </trkpt>
      <trkpt lat="44.53291" lon="4.23506">
        <ele>485</ele>
        <time>2018-06-03T06:58:27.000Z</time>
      </trkpt>
      <trkpt lat="44.53292" lon="4.23502">
        <ele>485</ele>
        <time>2018-06-03T06:58:28.000Z</time>
      </trkpt>
      <trkpt lat="44.53293" lon="4.23497">
        <ele>483</ele>
        <time>2018-06-03T06:58:29.000Z</time>
      </trkpt>
      <trkpt lat="44.53293" lon="4.23493">
        <ele>483</ele>
        <time>2018-06-03T06:58:30.000Z</time>
      </trkpt>
      <trkpt lat="44.53295" lon="4.23489">
        <ele>483</ele>
        <time>2018-06-03T06:58:31.000Z</time>
      </trkpt>
      <trkpt lat="44.53296" lon="4.23485">
        <ele>483</ele>
        <time>2018-06-03T06:58:32.000Z</time>
      </trkpt>
      <trkpt lat="44.53298" lon="4.2348">
        <ele>483</ele>
        <time>2018-06-03T06:58:33.000Z</time>
      </trkpt>
      <trkpt lat="44.533" lon="4.23476">
        <ele>484</ele>
        <time>2018-06-03T06:58:34.000Z</time>
      </trkpt>
      <trkpt lat="44.53302" lon="4.23472">
        <ele>484</ele>
        <time>2018-06-03T06:58:35.000Z</time>
      </trkpt>
      <trkpt lat="44.53303" lon="4.23468">
        <ele>484</ele>
        <time>2018-06-03T06:58:36.000Z</time>
      </trkpt>
      <trkpt lat="44.53305" lon="4.23464">
        <ele>484</ele>
        <time>2018-06-03T06:58:37.000Z</time>
      </trkpt>
      <trkpt lat="44.53306" lon="4.2346">
        <ele>484</ele>
        <time>2018-06-03T06:58:38.000Z</time>
      </trkpt>
      <trkpt lat="44.53308" lon="4.23456">
        <ele>484</ele>
        <time>2018-06-03T06:58:39.000Z</time>
      </trkpt>
      <trkpt lat="44.5331" lon="4.23452">
        <ele>484</ele>
        <time>2018-06-03T06:58:40.000Z</time>
      </trkpt>
      <trkpt lat="44.53312" lon="4.23448">
        <ele>484</ele>
        <time>2018-06-03T06:58:41.000Z</time>
      </trkpt>
      <trkpt lat="44.53313" lon="4.23444">
        <ele>484</ele>
        <time>2018-06-03T06:58:42.000Z</time>
      </trkpt>
      <trkpt lat="44.53313" lon="4.23441">
        <ele>484</ele>
        <time>2018-06-03T06:58:43.000Z</time>
      </trkpt>
      <trkpt lat="44.53313" lon="4.23436">
        <ele>484</ele>
        <time>2018-06-03T06:58:44.000Z</time>
      </trkpt>
      <trkpt lat="44.53313" lon="4.23432">
        <ele>484</ele>
        <time>2018-06-03T06:58:45.000Z</time>
      </trkpt>
      <trkpt lat="44.53312" lon="4.23426">
        <ele>484</ele>
        <time>2018-06-03T06:58:46.000Z</time>
      </trkpt>
      <trkpt lat="44.5331" lon="4.23422">
        <ele>484</ele>
        <time>2018-06-03T06:58:47.000Z</time>
      </trkpt>
      <trkpt lat="44.53309" lon="4.23417">
        <ele>484</ele>
        <time>2018-06-03T06:58:48.000Z</time>
      </trkpt>
      <trkpt lat="44.53307" lon="4.23413">
        <ele>482</ele>
        <time>2018-06-03T06:58:49.000Z</time>
      </trkpt>
      <trkpt lat="44.53306" lon="4.23409">
        <ele>482</ele>
        <time>2018-06-03T06:58:50.000Z</time>
      </trkpt>
      <trkpt lat="44.53307" lon="4.23406">
        <ele>482</ele>
        <time>2018-06-03T06:58:51.000Z</time>
      </trkpt>
      <trkpt lat="44.53307" lon="4.23402">
        <ele>481</ele>
        <time>2018-06-03T06:58:52.000Z</time>
      </trkpt>
      <trkpt lat="44.53308" lon="4.23398">
        <ele>481</ele>
        <time>2018-06-03T06:58:53.000Z</time>
      </trkpt>
      <trkpt lat="44.53307" lon="4.23394">
        <ele>481</ele>
        <time>2018-06-03T06:58:54.000Z</time>
      </trkpt>
      <trkpt lat="44.53307" lon="4.23389">
        <ele>481</ele>
        <time>2018-06-03T06:58:55.000Z</time>
      </trkpt>
      <trkpt lat="44.53307" lon="4.23384">
        <ele>481</ele>
        <time>2018-06-03T06:58:56.000Z</time>
      </trkpt>
      <trkpt lat="44.53306" lon="4.2338">
        <ele>480</ele>
        <time>2018-06-03T06:58:57.000Z</time>
      </trkpt>
      <trkpt lat="44.53305" lon="4.23376">
        <ele>480</ele>
        <time>2018-06-03T06:58:58.000Z</time>
      </trkpt>
      <trkpt lat="44.53304" lon="4.23372">
        <ele>480</ele>
        <time>2018-06-03T06:58:59.000Z</time>
      </trkpt>
      <trkpt lat="44.53303" lon="4.23368">
        <ele>480</ele>
        <time>2018-06-03T06:59:00.000Z</time>
      </trkpt>
      <trkpt lat="44.53302" lon="4.23364">
        <ele>480</ele>
        <time>2018-06-03T06:59:01.000Z</time>
      </trkpt>
      <trkpt lat="44.53302" lon="4.2336">
        <ele>480</ele>
        <time>2018-06-03T06:59:02.000Z</time>
      </trkpt>
      <trkpt lat="44.53302" lon="4.23356">
        <ele>480</ele>
        <time>2018-06-03T06:59:03.000Z</time>
      </trkpt>
      <trkpt lat="44.53303" lon="4.23352">
        <ele>480</ele>
        <time>2018-06-03T06:59:04.000Z</time>
      </trkpt>
      <trkpt lat="44.53305" lon="4.23349">
        <ele>480</ele>
        <time>2018-06-03T06:59:05.000Z</time>
      </trkpt>
      <trkpt lat="44.53306" lon="4.23345">
        <ele>480</ele>
        <time>2018-06-03T06:59:06.000Z</time>
      </trkpt>
      <trkpt lat="44.53307" lon="4.23342">
        <ele>480</ele>
        <time>2018-06-03T06:59:07.000Z</time>
      </trkpt>
      <trkpt lat="44.53309" lon="4.23338">
        <ele>480</ele>
        <time>2018-06-03T06:59:08.000Z</time>
      </trkpt>
      <trkpt lat="44.53311" lon="4.23335">
        <ele>481</ele>
        <time>2018-06-03T06:59:09.000Z</time>
      </trkpt>
      <trkpt lat="44.53314" lon="4.23332">
        <ele>477</ele>
        <time>2018-06-03T06:59:10.000Z</time>
      </trkpt>
      <trkpt lat="44.53317" lon="4.2333">
        <ele>477</ele>
        <time>2018-06-03T06:59:11.000Z</time>
      </trkpt>
      <trkpt lat="44.5332" lon="4.23327">
        <ele>478</ele>
        <time>2018-06-03T06:59:12.000Z</time>
      </trkpt>
      <trkpt lat="44.53323" lon="4.23324">
        <ele>478</ele>
        <time>2018-06-03T06:59:13.000Z</time>
      </trkpt>
      <trkpt lat="44.53327" lon="4.23321">
        <ele>478</ele>
        <time>2018-06-03T06:59:14.000Z</time>
      </trkpt>
      <trkpt lat="44.5333" lon="4.23319">
        <ele>478</ele>
        <time>2018-06-03T06:59:15.000Z</time>
      </trkpt>
      <trkpt lat="44.53334" lon="4.23316">
        <ele>481</ele>
        <time>2018-06-03T06:59:16.000Z</time>
      </trkpt>
      <trkpt lat="44.53338" lon="4.23313">
        <ele>481</ele>
        <time>2018-06-03T06:59:17.000Z</time>
      </trkpt>
      <trkpt lat="44.53342" lon="4.2331">
        <ele>481</ele>
        <time>2018-06-03T06:59:18.000Z</time>
      </trkpt>
      <trkpt lat="44.53347" lon="4.23308">
        <ele>481</ele>
        <time>2018-06-03T06:59:19.000Z</time>
      </trkpt>
      <trkpt lat="44.53351" lon="4.23306">
        <ele>480</ele>
        <time>2018-06-03T06:59:20.000Z</time>
      </trkpt>
      <trkpt lat="44.53356" lon="4.23304">
        <ele>480</ele>
        <time>2018-06-03T06:59:21.000Z</time>
      </trkpt>
      <trkpt lat="44.5336" lon="4.23301">
        <ele>480</ele>
        <time>2018-06-03T06:59:22.000Z</time>
      </trkpt>
      <trkpt lat="44.53365" lon="4.23299">
        <ele>480</ele>
        <time>2018-06-03T06:59:23.000Z</time>
      </trkpt>
      <trkpt lat="44.53369" lon="4.23296">
        <ele>480</ele>
        <time>2018-06-03T06:59:24.000Z</time>
      </trkpt>
      <trkpt lat="44.53373" lon="4.23294">
        <ele>480</ele>
        <time>2018-06-03T06:59:25.000Z</time>
      </trkpt>
      <trkpt lat="44.53377" lon="4.23292">
        <ele>480</ele>
        <time>2018-06-03T06:59:26.000Z</time>
      </trkpt>
      <trkpt lat="44.53382" lon="4.23289">
        <ele>480</ele>
        <time>2018-06-03T06:59:27.000Z</time>
      </trkpt>
      <trkpt lat="44.53387" lon="4.23288">
        <ele>480</ele>
        <time>2018-06-03T06:59:28.000Z</time>
      </trkpt>
      <trkpt lat="44.53391" lon="4.23287">
        <ele>480</ele>
        <time>2018-06-03T06:59:29.000Z</time>
      </trkpt>
      <trkpt lat="44.53395" lon="4.23286">
        <ele>480</ele>
        <time>2018-06-03T06:59:30.000Z</time>
      </trkpt>
      <trkpt lat="44.53399" lon="4.23284">
        <ele>480</ele>
        <time>2018-06-03T06:59:31.000Z</time>
      </trkpt>
      <trkpt lat="44.53402" lon="4.23282">
        <ele>480</ele>
        <time>2018-06-03T06:59:32.000Z</time>
      </trkpt>
      <trkpt lat="44.53406" lon="4.23281">
        <ele>480</ele>
        <time>2018-06-03T06:59:33.000Z</time>
      </trkpt>
      <trkpt lat="44.53409" lon="4.23281">
        <ele>480</ele>
        <time>2018-06-03T06:59:34.000Z</time>
      </trkpt>
      <trkpt lat="44.53413" lon="4.2328">
        <ele>480</ele>
        <time>2018-06-03T06:59:35.000Z</time>
      </trkpt>
      <trkpt lat="44.53417" lon="4.23278">
        <ele>484</ele>
        <time>2018-06-03T06:59:36.000Z</time>
      </trkpt>
      <trkpt lat="44.53421" lon="4.23276">
        <ele>483</ele>
        <time>2018-06-03T06:59:37.000Z</time>
      </trkpt>
      <trkpt lat="44.53425" lon="4.23275">
        <ele>483</ele>
        <time>2018-06-03T06:59:38.000Z</time>
      </trkpt>
      <trkpt lat="44.53429" lon="4.23273">
        <ele>483</ele>
        <time>2018-06-03T06:59:39.000Z</time>
      </trkpt>
      <trkpt lat="44.53433" lon="4.23272">
        <ele>483</ele>
        <time>2018-06-03T06:59:40.000Z</time>
      </trkpt>
      <trkpt lat="44.53437" lon="4.23271">
        <ele>484</ele>
        <time>2018-06-03T06:59:41.000Z</time>
      </trkpt>
      <trkpt lat="44.53441" lon="4.23271">
        <ele>484</ele>
        <time>2018-06-03T06:59:42.000Z</time>
      </trkpt>
      <trkpt lat="44.53445" lon="4.2327">
        <ele>484</ele>
        <time>2018-06-03T06:59:43.000Z</time>
      </trkpt>
      <trkpt lat="44.53448" lon="4.23269">
        <ele>484</ele>
        <time>2018-06-03T06:59:44.000Z</time>
      </trkpt>
      <trkpt lat="44.53452" lon="4.23268">
        <ele>485</ele>
        <time>2018-06-03T06:59:45.000Z</time>
      </trkpt>
      <trkpt lat="44.53456" lon="4.23267">
        <ele>485</ele>
        <time>2018-06-03T06:59:46.000Z</time>
      </trkpt>
      <trkpt lat="44.53459" lon="4.23267">
        <ele>485</ele>
        <time>2018-06-03T06:59:47.000Z</time>
      </trkpt>
      <trkpt lat="44.53463" lon="4.23267">
        <ele>485</ele>
        <time>2018-06-03T06:59:48.000Z</time>
      </trkpt>
      <trkpt lat="44.53467" lon="4.23267">
        <ele>485</ele>
        <time>2018-06-03T06:59:49.000Z</time>
      </trkpt>
      <trkpt lat="44.53471" lon="4.23267">
        <ele>485</ele>
        <time>2018-06-03T06:59:50.000Z</time>
      </trkpt>
      <trkpt lat="44.53473" lon="4.23266">
        <ele>485</ele>
        <time>2018-06-03T06:59:51.000Z</time>
      </trkpt>
      <trkpt lat="44.53475" lon="4.23266">
        <ele>485</ele>
        <time>2018-06-03T06:59:52.000Z</time>
      </trkpt>
      <trkpt lat="44.53477" lon="4.23266">
        <ele>485</ele>
        <time>2018-06-03T06:59:53.000Z</time>
      </trkpt>
      <trkpt lat="44.53479" lon="4.23265">
        <ele>485</ele>
        <time>2018-06-03T06:59:54.000Z</time>
      </trkpt>
      <trkpt lat="44.5348" lon="4.23265">
        <ele>485</ele>
        <time>2018-06-03T06:59:55.000Z</time>
      </trkpt>
      <trkpt lat="44.53482" lon="4.23265">
        <ele>485</ele>
        <time>2018-06-03T06:59:56.000Z</time>
      </trkpt>
      <trkpt lat="44.53484" lon="4.23265">
        <ele>485</ele>
        <time>2018-06-03T06:59:57.000Z</time>
      </trkpt>
      <trkpt lat="44.53487" lon="4.23264">
        <ele>485</ele>
        <time>2018-06-03T06:59:58.000Z</time>
      </trkpt>
      <trkpt lat="44.5349" lon="4.23264">
        <ele>485</ele>
        <time>2018-06-03T06:59:59.000Z</time>
      </trkpt>
      <trkpt lat="44.53493" lon="4.23264">
        <ele>485</ele>
        <time>2018-06-03T07:00:00.000Z</time>
      </trkpt>
      <trkpt lat="44.53495" lon="4.23264">
        <ele>485</ele>
        <time>2018-06-03T07:00:01.000Z</time>
      </trkpt>
      <trkpt lat="44.53497" lon="4.23263">
        <ele>485</ele>
        <time>2018-06-03T07:00:02.000Z</time>
      </trkpt>
      <trkpt lat="44.53499" lon="4.23262">
        <ele>485</ele>
        <time>2018-06-03T07:00:03.000Z</time>
      </trkpt>
      <trkpt lat="44.53501" lon="4.23261">
        <ele>488</ele>
        <time>2018-06-03T07:00:04.000Z</time>
      </trkpt>
      <trkpt lat="44.53504" lon="4.23261">
        <ele>488</ele>
        <time>2018-06-03T07:00:05.000Z</time>
      </trkpt>
      <trkpt lat="44.53506" lon="4.23259">
        <ele>488</ele>
        <time>2018-06-03T07:00:06.000Z</time>
      </trkpt>
      <trkpt lat="44.53509" lon="4.23258">
        <ele>489</ele>
        <time>2018-06-03T07:00:07.000Z</time>
      </trkpt>
      <trkpt lat="44.53511" lon="4.23257">
        <ele>489</ele>
        <time>2018-06-03T07:00:08.000Z</time>
      </trkpt>
      <trkpt lat="44.53514" lon="4.23256">
        <ele>490</ele>
        <time>2018-06-03T07:00:09.000Z</time>
      </trkpt>
      <trkpt lat="44.53517" lon="4.23255">
        <ele>490</ele>
        <time>2018-06-03T07:00:10.000Z</time>
      </trkpt>
      <trkpt lat="44.53519" lon="4.23254">
        <ele>491</ele>
        <time>2018-06-03T07:00:11.000Z</time>
      </trkpt>
      <trkpt lat="44.53522" lon="4.23252">
        <ele>491</ele>
        <time>2018-06-03T07:00:12.000Z</time>
      </trkpt>
      <trkpt lat="44.53524" lon="4.2325">
        <ele>491</ele>
        <time>2018-06-03T07:00:13.000Z</time>
      </trkpt>
      <trkpt lat="44.53526" lon="4.23248">
        <ele>485</ele>
        <time>2018-06-03T07:00:14.000Z</time>
      </trkpt>
      <trkpt lat="44.53529" lon="4.23246">
        <ele>485</ele>
        <time>2018-06-03T07:00:15.000Z</time>
      </trkpt>
      <trkpt lat="44.53531" lon="4.23245">
        <ele>485</ele>
        <time>2018-06-03T07:00:16.000Z</time>
      </trkpt>
      <trkpt lat="44.53533" lon="4.23243">
        <ele>485</ele>
        <time>2018-06-03T07:00:17.000Z</time>
      </trkpt>
      <trkpt lat="44.53536" lon="4.23241">
        <ele>485</ele>
        <time>2018-06-03T07:00:18.000Z</time>
      </trkpt>
      <trkpt lat="44.53538" lon="4.23239">
        <ele>485</ele>
        <time>2018-06-03T07:00:19.000Z</time>
      </trkpt>
      <trkpt lat="44.5354" lon="4.23237">
        <ele>486</ele>
        <time>2018-06-03T07:00:20.000Z</time>
      </trkpt>
      <trkpt lat="44.53542" lon="4.23235">
        <ele>486</ele>
        <time>2018-06-03T07:00:21.000Z</time>
      </trkpt>
      <trkpt lat="44.53544" lon="4.23233">
        <ele>486</ele>
        <time>2018-06-03T07:00:22.000Z</time>
      </trkpt>
      <trkpt lat="44.53547" lon="4.23231">
        <ele>486</ele>
        <time>2018-06-03T07:00:23.000Z</time>
      </trkpt>
      <trkpt lat="44.53549" lon="4.23229">
        <ele>486</ele>
        <time>2018-06-03T07:00:24.000Z</time>
      </trkpt>
      <trkpt lat="44.53551" lon="4.23227">
        <ele>486</ele>
        <time>2018-06-03T07:00:25.000Z</time>
      </trkpt>
      <trkpt lat="44.53553" lon="4.23225">
        <ele>486</ele>
        <time>2018-06-03T07:00:26.000Z</time>
      </trkpt>
      <trkpt lat="44.53555" lon="4.23223">
        <ele>486</ele>
        <time>2018-06-03T07:00:27.000Z</time>
      </trkpt>
      <trkpt lat="44.53558" lon="4.23221">
        <ele>486</ele>
        <time>2018-06-03T07:00:28.000Z</time>
      </trkpt>
      <trkpt lat="44.5356" lon="4.23219">
        <ele>486</ele>
        <time>2018-06-03T07:00:29.000Z</time>
      </trkpt>
      <trkpt lat="44.53562" lon="4.23217">
        <ele>486</ele>
        <time>2018-06-03T07:00:30.000Z</time>
      </trkpt>
      <trkpt lat="44.53564" lon="4.23215">
        <ele>486</ele>
        <time>2018-06-03T07:00:31.000Z</time>
      </trkpt>
      <trkpt lat="44.53567" lon="4.23213">
        <ele>486</ele>
        <time>2018-06-03T07:00:32.000Z</time>
      </trkpt>
      <trkpt lat="44.53568" lon="4.23211">
        <ele>486</ele>
        <time>2018-06-03T07:00:33.000Z</time>
      </trkpt>
      <trkpt lat="44.5357" lon="4.23209">
        <ele>486</ele>
        <time>2018-06-03T07:00:34.000Z</time>
      </trkpt>
      <trkpt lat="44.53572" lon="4.23206">
        <ele>486</ele>
        <time>2018-06-03T07:00:35.000Z</time>
      </trkpt>
      <trkpt lat="44.53574" lon="4.23204">
        <ele>486</ele>
        <time>2018-06-03T07:00:36.000Z</time>
      </trkpt>
      <trkpt lat="44.53576" lon="4.23202">
        <ele>486</ele>
        <time>2018-06-03T07:00:37.000Z</time>
      </trkpt>
      <trkpt lat="44.53578" lon="4.232">
        <ele>486</ele>
        <time>2018-06-03T07:00:38.000Z</time>
      </trkpt>
      <trkpt lat="44.5358" lon="4.23198">
        <ele>485</ele>
        <time>2018-06-03T07:00:39.000Z</time>
      </trkpt>
      <trkpt lat="44.53583" lon="4.23195">
        <ele>485</ele>
        <time>2018-06-03T07:00:40.000Z</time>
      </trkpt>
      <trkpt lat="44.53585" lon="4.23193">
        <ele>494</ele>
        <time>2018-06-03T07:00:41.000Z</time>
      </trkpt>
      <trkpt lat="44.53588" lon="4.23191">
        <ele>494</ele>
        <time>2018-06-03T07:00:42.000Z</time>
      </trkpt>
      <trkpt lat="44.5359" lon="4.23189">
        <ele>493</ele>
        <time>2018-06-03T07:00:43.000Z</time>
      </trkpt>
      <trkpt lat="44.53593" lon="4.23187">
        <ele>493</ele>
        <time>2018-06-03T07:00:44.000Z</time>
      </trkpt>
      <trkpt lat="44.53596" lon="4.23185">
        <ele>493</ele>
        <time>2018-06-03T07:00:45.000Z</time>
      </trkpt>
      <trkpt lat="44.53598" lon="4.23183">
        <ele>493</ele>
        <time>2018-06-03T07:00:46.000Z</time>
      </trkpt>
      <trkpt lat="44.53601" lon="4.2318">
        <ele>493</ele>
        <time>2018-06-03T07:00:47.000Z</time>
      </trkpt>
      <trkpt lat="44.53603" lon="4.23176">
        <ele>493</ele>
        <time>2018-06-03T07:00:48.000Z</time>
      </trkpt>
      <trkpt lat="44.53605" lon="4.23173">
        <ele>493</ele>
        <time>2018-06-03T07:00:49.000Z</time>
      </trkpt>
      <trkpt lat="44.53607" lon="4.23171">
        <ele>494</ele>
        <time>2018-06-03T07:00:50.000Z</time>
      </trkpt>
      <trkpt lat="44.5361" lon="4.23168">
        <ele>494</ele>
        <time>2018-06-03T07:00:51.000Z</time>
      </trkpt>
      <trkpt lat="44.53613" lon="4.23166">
        <ele>488</ele>
        <time>2018-06-03T07:00:52.000Z</time>
      </trkpt>
      <trkpt lat="44.53615" lon="4.23164">
        <ele>488</ele>
        <time>2018-06-03T07:00:53.000Z</time>
      </trkpt>
      <trkpt lat="44.53617" lon="4.23162">
        <ele>488</ele>
        <time>2018-06-03T07:00:54.000Z</time>
      </trkpt>
      <trkpt lat="44.53619" lon="4.2316">
        <ele>489</ele>
        <time>2018-06-03T07:00:55.000Z</time>
      </trkpt>
      <trkpt lat="44.53621" lon="4.23158">
        <ele>489</ele>
        <time>2018-06-03T07:00:56.000Z</time>
      </trkpt>
      <trkpt lat="44.53624" lon="4.23156">
        <ele>489</ele>
        <time>2018-06-03T07:00:57.000Z</time>
      </trkpt>
      <trkpt lat="44.53626" lon="4.23155">
        <ele>489</ele>
        <time>2018-06-03T07:00:58.000Z</time>
      </trkpt>
      <trkpt lat="44.53628" lon="4.23153">
        <ele>490</ele>
        <time>2018-06-03T07:00:59.000Z</time>
      </trkpt>
      <trkpt lat="44.5363" lon="4.23151">
        <ele>490</ele>
        <time>2018-06-03T07:01:00.000Z</time>
      </trkpt>
      <trkpt lat="44.53632" lon="4.23149">
        <ele>490</ele>
        <time>2018-06-03T07:01:01.000Z</time>
      </trkpt>
      <trkpt lat="44.53634" lon="4.23147">
        <ele>490</ele>
        <time>2018-06-03T07:01:02.000Z</time>
      </trkpt>
      <trkpt lat="44.53636" lon="4.23146">
        <ele>490</ele>
        <time>2018-06-03T07:01:03.000Z</time>
      </trkpt>
      <trkpt lat="44.53638" lon="4.23144">
        <ele>490</ele>
        <time>2018-06-03T07:01:04.000Z</time>
      </trkpt>
      <trkpt lat="44.5364" lon="4.23142">
        <ele>490</ele>
        <time>2018-06-03T07:01:05.000Z</time>
      </trkpt>
      <trkpt lat="44.53642" lon="4.23139">
        <ele>490</ele>
        <time>2018-06-03T07:01:06.000Z</time>
      </trkpt>
      <trkpt lat="44.53643" lon="4.23138">
        <ele>490</ele>
        <time>2018-06-03T07:01:07.000Z</time>
      </trkpt>
      <trkpt lat="44.53645" lon="4.23136">
        <ele>490</ele>
        <time>2018-06-03T07:01:08.000Z</time>
      </trkpt>
      <trkpt lat="44.53647" lon="4.23134">
        <ele>490</ele>
        <time>2018-06-03T07:01:09.000Z</time>
      </trkpt>
      <trkpt lat="44.53648" lon="4.23132">
        <ele>490</ele>
        <time>2018-06-03T07:01:10.000Z</time>
      </trkpt>
      <trkpt lat="44.5365" lon="4.2313">
        <ele>490</ele>
        <time>2018-06-03T07:01:11.000Z</time>
      </trkpt>
      <trkpt lat="44.53652" lon="4.23129">
        <ele>490</ele>
        <time>2018-06-03T07:01:12.000Z</time>
      </trkpt>
      <trkpt lat="44.53654" lon="4.23128">
        <ele>490</ele>
        <time>2018-06-03T07:01:13.000Z</time>
      </trkpt>
      <trkpt lat="44.53656" lon="4.23127">
        <ele>490</ele>
        <time>2018-06-03T07:01:14.000Z</time>
      </trkpt>
      <trkpt lat="44.53657" lon="4.23126">
        <ele>490</ele>
        <time>2018-06-03T07:01:15.000Z</time>
      </trkpt>
      <trkpt lat="44.53657" lon="4.23124">
        <ele>490</ele>
        <time>2018-06-03T07:01:16.000Z</time>
      </trkpt>
      <trkpt lat="44.53657" lon="4.23124">
        <ele>490</ele>
        <time>2018-06-03T07:01:17.000Z</time>
      </trkpt>
      <trkpt lat="44.53658" lon="4.23124">
        <ele>490</ele>
        <time>2018-06-03T07:01:18.000Z</time>
      </trkpt>
      <trkpt lat="44.53658" lon="4.23124">
        <ele>490</ele>
        <time>2018-06-03T07:01:19.000Z</time>
      </trkpt>
      <trkpt lat="44.53658" lon="4.23123">
        <ele>490</ele>
        <time>2018-06-03T07:01:20.000Z</time>
      </trkpt>
      <trkpt lat="44.53658" lon="4.23124">
        <ele>490</ele>
        <time>2018-06-03T07:01:21.000Z</time>
      </trkpt>
      <trkpt lat="44.53658" lon="4.23123">
        <ele>490</ele>
        <time>2018-06-03T07:01:22.000Z</time>
      </trkpt>
      <trkpt lat="44.53658" lon="4.23124">
        <ele>490</ele>
        <time>2018-06-03T07:01:23.000Z</time>
      </trkpt>
      <trkpt lat="44.53658" lon="4.23124">
        <ele>490</ele>
        <time>2018-06-03T07:01:24.000Z</time>
      </trkpt>
      <trkpt lat="44.53658" lon="4.23124">
        <ele>490</ele>
        <time>2018-06-03T07:01:25.000Z</time>
      </trkpt>
      <trkpt lat="44.53658" lon="4.23124">
        <ele>490</ele>
        <time>2018-06-03T07:01:26.000Z</time>
      </trkpt>
      <trkpt lat="44.53658" lon="4.23124">
        <ele>490</ele>
        <time>2018-06-03T07:01:27.000Z</time>
      </trkpt>
      <trkpt lat="44.53658" lon="4.23124">
        <ele>490</ele>
        <time>2018-06-03T07:01:28.000Z</time>
      </trkpt>
      <trkpt lat="44.53658" lon="4.23124">
        <ele>490</ele>
        <time>2018-06-03T07:01:29.000Z</time>
      </trkpt>
      <trkpt lat="44.53658" lon="4.23124">
        <ele>490</ele>
        <time>2018-06-03T07:01:30.000Z</time>
      </trkpt>
      <trkpt lat="44.53658" lon="4.23123">
        <ele>490</ele>
        <time>2018-06-03T07:01:31.000Z</time>
      </trkpt>
      <trkpt lat="44.53658" lon="4.23123">
        <ele>490</ele>
        <time>2018-06-03T07:01:32.000Z</time>
      </trkpt>
      <trkpt lat="44.53659" lon="4.23121">
        <ele>490</ele>
        <time>2018-06-03T07:01:33.000Z</time>
      </trkpt>
      <trkpt lat="44.53659" lon="4.2312">
        <ele>490</ele>
        <time>2018-06-03T07:01:34.000Z</time>
      </trkpt>
      <trkpt lat="44.5366" lon="4.23118">
        <ele>490</ele>
        <time>2018-06-03T07:01:35.000Z</time>
      </trkpt>
      <trkpt lat="44.53661" lon="4.23116">
        <ele>490</ele>
        <time>2018-06-03T07:01:36.000Z</time>
      </trkpt>
      <trkpt lat="44.53662" lon="4.23113">
        <ele>490</ele>
        <time>2018-06-03T07:01:37.000Z</time>
      </trkpt>
      <trkpt lat="44.53663" lon="4.23111">
        <ele>490</ele>
        <time>2018-06-03T07:01:38.000Z</time>
      </trkpt>
      <trkpt lat="44.53664" lon="4.23108">
        <ele>490</ele>
        <time>2018-06-03T07:01:39.000Z</time>
      </trkpt>
      <trkpt lat="44.53666" lon="4.23105">
        <ele>490</ele>
        <time>2018-06-03T07:01:40.000Z</time>
      </trkpt>
      <trkpt lat="44.53667" lon="4.23102">
        <ele>497</ele>
        <time>2018-06-03T07:01:41.000Z</time>
      </trkpt>
      <trkpt lat="44.53669" lon="4.231">
        <ele>496</ele>
        <time>2018-06-03T07:01:42.000Z</time>
      </trkpt>
      <trkpt lat="44.5367" lon="4.23097">
        <ele>496</ele>
        <time>2018-06-03T07:01:43.000Z</time>
      </trkpt>
      <trkpt lat="44.53672" lon="4.23095">
        <ele>495</ele>
        <time>2018-06-03T07:01:44.000Z</time>
      </trkpt>
      <trkpt lat="44.53673" lon="4.23093">
        <ele>495</ele>
        <time>2018-06-03T07:01:45.000Z</time>
      </trkpt>
      <trkpt lat="44.53675" lon="4.2309">
        <ele>495</ele>
        <time>2018-06-03T07:01:46.000Z</time>
      </trkpt>
      <trkpt lat="44.53676" lon="4.23088">
        <ele>495</ele>
        <time>2018-06-03T07:01:47.000Z</time>
      </trkpt>
      <trkpt lat="44.53678" lon="4.23086">
        <ele>495</ele>
        <time>2018-06-03T07:01:48.000Z</time>
      </trkpt>
      <trkpt lat="44.53679" lon="4.23084">
        <ele>495</ele>
        <time>2018-06-03T07:01:49.000Z</time>
      </trkpt>
      <trkpt lat="44.5368" lon="4.23081">
        <ele>494</ele>
        <time>2018-06-03T07:01:50.000Z</time>
      </trkpt>
      <trkpt lat="44.53682" lon="4.23079">
        <ele>495</ele>
        <time>2018-06-03T07:01:51.000Z</time>
      </trkpt>
      <trkpt lat="44.53683" lon="4.23077">
        <ele>495</ele>
        <time>2018-06-03T07:01:52.000Z</time>
      </trkpt>
      <trkpt lat="44.53684" lon="4.23074">
        <ele>495</ele>
        <time>2018-06-03T07:01:53.000Z</time>
      </trkpt>
      <trkpt lat="44.53686" lon="4.23072">
        <ele>496</ele>
        <time>2018-06-03T07:01:54.000Z</time>
      </trkpt>
      <trkpt lat="44.53688" lon="4.2307">
        <ele>496</ele>
        <time>2018-06-03T07:01:55.000Z</time>
      </trkpt>
      <trkpt lat="44.53689" lon="4.23068">
        <ele>496</ele>
        <time>2018-06-03T07:01:56.000Z</time>
      </trkpt>
      <trkpt lat="44.53691" lon="4.23066">
        <ele>497</ele>
        <time>2018-06-03T07:01:57.000Z</time>
      </trkpt>
      <trkpt lat="44.53693" lon="4.23064">
        <ele>497</ele>
        <time>2018-06-03T07:01:58.000Z</time>
      </trkpt>
      <trkpt lat="44.53694" lon="4.23061">
        <ele>497</ele>
        <time>2018-06-03T07:01:59.000Z</time>
      </trkpt>
      <trkpt lat="44.53695" lon="4.23059">
        <ele>497</ele>
        <time>2018-06-03T07:02:00.000Z</time>
      </trkpt>
      <trkpt lat="44.53697" lon="4.23057">
        <ele>497</ele>
        <time>2018-06-03T07:02:01.000Z</time>
      </trkpt>
      <trkpt lat="44.53698" lon="4.23055">
        <ele>498</ele>
        <time>2018-06-03T07:02:02.000Z</time>
      </trkpt>
      <trkpt lat="44.537" lon="4.23053">
        <ele>498</ele>
        <time>2018-06-03T07:02:03.000Z</time>
      </trkpt>
      <trkpt lat="44.53701" lon="4.23051">
        <ele>498</ele>
        <time>2018-06-03T07:02:04.000Z</time>
      </trkpt>
      <trkpt lat="44.53703" lon="4.23049">
        <ele>498</ele>
        <time>2018-06-03T07:02:05.000Z</time>
      </trkpt>
      <trkpt lat="44.53704" lon="4.23046">
        <ele>498</ele>
        <time>2018-06-03T07:02:06.000Z</time>
      </trkpt>
      <trkpt lat="44.53705" lon="4.23044">
        <ele>498</ele>
        <time>2018-06-03T07:02:07.000Z</time>
      </trkpt>
      <trkpt lat="44.53706" lon="4.23042">
        <ele>498</ele>
        <time>2018-06-03T07:02:08.000Z</time>
      </trkpt>
      <trkpt lat="44.53707" lon="4.2304">
        <ele>499</ele>
        <time>2018-06-03T07:02:09.000Z</time>
      </trkpt>
      <trkpt lat="44.53709" lon="4.23039">
        <ele>499</ele>
        <time>2018-06-03T07:02:10.000Z</time>
      </trkpt>
      <trkpt lat="44.5371" lon="4.23037">
        <ele>499</ele>
        <time>2018-06-03T07:02:11.000Z</time>
      </trkpt>
      <trkpt lat="44.53711" lon="4.23035">
        <ele>499</ele>
        <time>2018-06-03T07:02:12.000Z</time>
      </trkpt>
      <trkpt lat="44.53712" lon="4.23033">
        <ele>499</ele>
        <time>2018-06-03T07:02:13.000Z</time>
      </trkpt>
      <trkpt lat="44.53713" lon="4.23031">
        <ele>499</ele>
        <time>2018-06-03T07:02:14.000Z</time>
      </trkpt>
      <trkpt lat="44.53714" lon="4.23029">
        <ele>499</ele>
        <time>2018-06-03T07:02:15.000Z</time>
      </trkpt>
      <trkpt lat="44.53715" lon="4.23027">
        <ele>500</ele>
        <time>2018-06-03T07:02:16.000Z</time>
      </trkpt>
      <trkpt lat="44.53716" lon="4.23024">
        <ele>500</ele>
        <time>2018-06-03T07:02:17.000Z</time>
      </trkpt>
      <trkpt lat="44.53717" lon="4.23022">
        <ele>500</ele>
        <time>2018-06-03T07:02:18.000Z</time>
      </trkpt>
      <trkpt lat="44.53718" lon="4.2302">
        <ele>500</ele>
        <time>2018-06-03T07:02:19.000Z</time>
      </trkpt>
      <trkpt lat="44.53719" lon="4.23018">
        <ele>500</ele>
        <time>2018-06-03T07:02:20.000Z</time>
      </trkpt>
      <trkpt lat="44.53719" lon="4.23017">
        <ele>500</ele>
        <time>2018-06-03T07:02:21.000Z</time>
      </trkpt>
      <trkpt lat="44.5372" lon="4.23017">
        <ele>501</ele>
        <time>2018-06-03T07:02:22.000Z</time>
      </trkpt>
      <trkpt lat="44.5372" lon="4.23017">
        <ele>501</ele>
        <time>2018-06-03T07:02:23.000Z</time>
      </trkpt>
      <trkpt lat="44.5372" lon="4.23017">
        <ele>501</ele>
        <time>2018-06-03T07:02:24.000Z</time>
      </trkpt>
      <trkpt lat="44.5372" lon="4.23017">
        <ele>501</ele>
        <time>2018-06-03T07:02:25.000Z</time>
      </trkpt>
      <trkpt lat="44.5372" lon="4.23016">
        <ele>501</ele>
        <time>2018-06-03T07:02:26.000Z</time>
      </trkpt>
      <trkpt lat="44.53721" lon="4.23016">
        <ele>501</ele>
        <time>2018-06-03T07:02:27.000Z</time>
      </trkpt>
      <trkpt lat="44.53721" lon="4.23016">
        <ele>501</ele>
        <time>2018-06-03T07:02:28.000Z</time>
      </trkpt>
      <trkpt lat="44.53721" lon="4.23016">
        <ele>501</ele>
        <time>2018-06-03T07:02:29.000Z</time>
      </trkpt>
      <trkpt lat="44.53721" lon="4.23016">
        <ele>501</ele>
        <time>2018-06-03T07:02:30.000Z</time>
      </trkpt>
      <trkpt lat="44.53722" lon="4.23015">
        <ele>501</ele>
        <time>2018-06-03T07:02:31.000Z</time>
      </trkpt>
      <trkpt lat="44.53722" lon="4.23015">
        <ele>501</ele>
        <time>2018-06-03T07:02:32.000Z</time>
      </trkpt>
      <trkpt lat="44.53722" lon="4.23014">
        <ele>501</ele>
        <time>2018-06-03T07:02:33.000Z</time>
      </trkpt>
      <trkpt lat="44.53723" lon="4.23013">
        <ele>501</ele>
        <time>2018-06-03T07:02:34.000Z</time>
      </trkpt>
      <trkpt lat="44.53723" lon="4.23013">
        <ele>501</ele>
        <time>2018-06-03T07:02:35.000Z</time>
      </trkpt>
      <trkpt lat="44.53724" lon="4.23012">
        <ele>501</ele>
        <time>2018-06-03T07:02:36.000Z</time>
      </trkpt>
      <trkpt lat="44.53724" lon="4.2301">
        <ele>502</ele>
        <time>2018-06-03T07:02:37.000Z</time>
      </trkpt>
      <trkpt lat="44.53724" lon="4.23008">
        <ele>502</ele>
        <time>2018-06-03T07:02:38.000Z</time>
      </trkpt>
      <trkpt lat="44.53724" lon="4.23007">
        <ele>502</ele>
        <time>2018-06-03T07:02:39.000Z</time>
      </trkpt>
      <trkpt lat="44.53724" lon="4.23006">
        <ele>502</ele>
        <time>2018-06-03T07:02:40.000Z</time>
      </trkpt>
      <trkpt lat="44.53725" lon="4.23005">
        <ele>502</ele>
        <time>2018-06-03T07:02:41.000Z</time>
      </trkpt>
      <trkpt lat="44.53725" lon="4.23003">
        <ele>502</ele>
        <time>2018-06-03T07:02:42.000Z</time>
      </trkpt>
      <trkpt lat="44.53726" lon="4.23002">
        <ele>502</ele>
        <time>2018-06-03T07:02:43.000Z</time>
      </trkpt>
      <trkpt lat="44.53726" lon="4.23">
        <ele>503</ele>
        <time>2018-06-03T07:02:44.000Z</time>
      </trkpt>
      <trkpt lat="44.53726" lon="4.22999">
        <ele>503</ele>
        <time>2018-06-03T07:02:45.000Z</time>
      </trkpt>
      <trkpt lat="44.53726" lon="4.22998">
        <ele>503</ele>
        <time>2018-06-03T07:02:46.000Z</time>
      </trkpt>
      <trkpt lat="44.53726" lon="4.22997">
        <ele>503</ele>
        <time>2018-06-03T07:02:47.000Z</time>
      </trkpt>
      <trkpt lat="44.53726" lon="4.22995">
        <ele>503</ele>
        <time>2018-06-03T07:02:48.000Z</time>
      </trkpt>
      <trkpt lat="44.53726" lon="4.22994">
        <ele>503</ele>
        <time>2018-06-03T07:02:49.000Z</time>
      </trkpt>
      <trkpt lat="44.53726" lon="4.22994">
        <ele>503</ele>
        <time>2018-06-03T07:02:50.000Z</time>
      </trkpt>
      <trkpt lat="44.53726" lon="4.22994">
        <ele>503</ele>
        <time>2018-06-03T07:02:51.000Z</time>
      </trkpt>
      <trkpt lat="44.53726" lon="4.22994">
        <ele>503</ele>
        <time>2018-06-03T07:02:52.000Z</time>
      </trkpt>
      <trkpt lat="44.53727" lon="4.22992">
        <ele>503</ele>
        <time>2018-06-03T07:02:53.000Z</time>
      </trkpt>
      <trkpt lat="44.53727" lon="4.22991">
        <ele>503</ele>
        <time>2018-06-03T07:02:54.000Z</time>
      </trkpt>
      <trkpt lat="44.53727" lon="4.22989">
        <ele>503</ele>
        <time>2018-06-03T07:02:55.000Z</time>
      </trkpt>
      <trkpt lat="44.53726" lon="4.22986">
        <ele>503</ele>
        <time>2018-06-03T07:02:56.000Z</time>
      </trkpt>
      <trkpt lat="44.53726" lon="4.22983">
        <ele>503</ele>
        <time>2018-06-03T07:02:57.000Z</time>
      </trkpt>
      <trkpt lat="44.53724" lon="4.2298">
        <ele>503</ele>
        <time>2018-06-03T07:02:58.000Z</time>
      </trkpt>
      <trkpt lat="44.53723" lon="4.22977">
        <ele>503</ele>
        <time>2018-06-03T07:02:59.000Z</time>
      </trkpt>
      <trkpt lat="44.53722" lon="4.22975">
        <ele>503</ele>
        <time>2018-06-03T07:03:00.000Z</time>
      </trkpt>
      <trkpt lat="44.53722" lon="4.22973">
        <ele>502</ele>
        <time>2018-06-03T07:03:01.000Z</time>
      </trkpt>
      <trkpt lat="44.53721" lon="4.22971">
        <ele>502</ele>
        <time>2018-06-03T07:03:02.000Z</time>
      </trkpt>
      <trkpt lat="44.5372" lon="4.2297">
        <ele>502</ele>
        <time>2018-06-03T07:03:03.000Z</time>
      </trkpt>
      <trkpt lat="44.5372" lon="4.22968">
        <ele>502</ele>
        <time>2018-06-03T07:03:04.000Z</time>
      </trkpt>
      <trkpt lat="44.53719" lon="4.22966">
        <ele>502</ele>
        <time>2018-06-03T07:03:05.000Z</time>
      </trkpt>
      <trkpt lat="44.53719" lon="4.22964">
        <ele>502</ele>
        <time>2018-06-03T07:03:06.000Z</time>
      </trkpt>
      <trkpt lat="44.53718" lon="4.22962">
        <ele>502</ele>
        <time>2018-06-03T07:03:07.000Z</time>
      </trkpt>
      <trkpt lat="44.53717" lon="4.2296">
        <ele>502</ele>
        <time>2018-06-03T07:03:08.000Z</time>
      </trkpt>
      <trkpt lat="44.53716" lon="4.22957">
        <ele>502</ele>
        <time>2018-06-03T07:03:09.000Z</time>
      </trkpt>
      <trkpt lat="44.53715" lon="4.22955">
        <ele>502</ele>
        <time>2018-06-03T07:03:10.000Z</time>
      </trkpt>
      <trkpt lat="44.53714" lon="4.22953">
        <ele>502</ele>
        <time>2018-06-03T07:03:11.000Z</time>
      </trkpt>
      <trkpt lat="44.53713" lon="4.22952">
        <ele>502</ele>
        <time>2018-06-03T07:03:12.000Z</time>
      </trkpt>
      <trkpt lat="44.53713" lon="4.22952">
        <ele>502</ele>
        <time>2018-06-03T07:03:13.000Z</time>
      </trkpt>
      <trkpt lat="44.53713" lon="4.22952">
        <ele>502</ele>
        <time>2018-06-03T07:03:14.000Z</time>
      </trkpt>
      <trkpt lat="44.53713" lon="4.22951">
        <ele>502</ele>
        <time>2018-06-03T07:03:15.000Z</time>
      </trkpt>
      <trkpt lat="44.53712" lon="4.2295">
        <ele>502</ele>
        <time>2018-06-03T07:03:16.000Z</time>
      </trkpt>
      <trkpt lat="44.53712" lon="4.22949">
        <ele>502</ele>
        <time>2018-06-03T07:03:17.000Z</time>
      </trkpt>
      <trkpt lat="44.53711" lon="4.22948">
        <ele>502</ele>
        <time>2018-06-03T07:03:18.000Z</time>
      </trkpt>
      <trkpt lat="44.53711" lon="4.22947">
        <ele>502</ele>
        <time>2018-06-03T07:03:19.000Z</time>
      </trkpt>
      <trkpt lat="44.5371" lon="4.22946">
        <ele>502</ele>
        <time>2018-06-03T07:03:20.000Z</time>
      </trkpt>
      <trkpt lat="44.5371" lon="4.22944">
        <ele>501</ele>
        <time>2018-06-03T07:03:21.000Z</time>
      </trkpt>
      <trkpt lat="44.53709" lon="4.22943">
        <ele>501</ele>
        <time>2018-06-03T07:03:22.000Z</time>
      </trkpt>
      <trkpt lat="44.53709" lon="4.22942">
        <ele>502</ele>
        <time>2018-06-03T07:03:23.000Z</time>
      </trkpt>
      <trkpt lat="44.5371" lon="4.22941">
        <ele>502</ele>
        <time>2018-06-03T07:03:24.000Z</time>
      </trkpt>
      <trkpt lat="44.5371" lon="4.22939">
        <ele>502</ele>
        <time>2018-06-03T07:03:25.000Z</time>
      </trkpt>
      <trkpt lat="44.5371" lon="4.22938">
        <ele>502</ele>
        <time>2018-06-03T07:03:26.000Z</time>
      </trkpt>
      <trkpt lat="44.53711" lon="4.22937">
        <ele>502</ele>
        <time>2018-06-03T07:03:27.000Z</time>
      </trkpt>
      <trkpt lat="44.53712" lon="4.22936">
        <ele>502</ele>
        <time>2018-06-03T07:03:28.000Z</time>
      </trkpt>
      <trkpt lat="44.53712" lon="4.22935">
        <ele>502</ele>
        <time>2018-06-03T07:03:29.000Z</time>
      </trkpt>
      <trkpt lat="44.53712" lon="4.22935">
        <ele>502</ele>
        <time>2018-06-03T07:03:30.000Z</time>
      </trkpt>
      <trkpt lat="44.53712" lon="4.22935">
        <ele>502</ele>
        <time>2018-06-03T07:03:31.000Z</time>
      </trkpt>
      <trkpt lat="44.53712" lon="4.22936">
        <ele>502</ele>
        <time>2018-06-03T07:03:32.000Z</time>
      </trkpt>
      <trkpt lat="44.53712" lon="4.22936">
        <ele>502</ele>
        <time>2018-06-03T07:03:33.000Z</time>
      </trkpt>
      <trkpt lat="44.53713" lon="4.22935">
        <ele>502</ele>
        <time>2018-06-03T07:03:34.000Z</time>
      </trkpt>
      <trkpt lat="44.53714" lon="4.22934">
        <ele>502</ele>
        <time>2018-06-03T07:03:35.000Z</time>
      </trkpt>
      <trkpt lat="44.53714" lon="4.22933">
        <ele>503</ele>
        <time>2018-06-03T07:03:36.000Z</time>
      </trkpt>
      <trkpt lat="44.53715" lon="4.22932">
        <ele>503</ele>
        <time>2018-06-03T07:03:37.000Z</time>
      </trkpt>
      <trkpt lat="44.53715" lon="4.22932">
        <ele>503</ele>
        <time>2018-06-03T07:03:38.000Z</time>
      </trkpt>
      <trkpt lat="44.53715" lon="4.22932">
        <ele>503</ele>
        <time>2018-06-03T07:03:39.000Z</time>
      </trkpt>
      <trkpt lat="44.53715" lon="4.22932">
        <ele>503</ele>
        <time>2018-06-03T07:03:40.000Z</time>
      </trkpt>
      <trkpt lat="44.53714" lon="4.22932">
        <ele>503</ele>
        <time>2018-06-03T07:03:41.000Z</time>
      </trkpt>
      <trkpt lat="44.53714" lon="4.22932">
        <ele>503</ele>
        <time>2018-06-03T07:03:42.000Z</time>
      </trkpt>
      <trkpt lat="44.53714" lon="4.22931">
        <ele>503</ele>
        <time>2018-06-03T07:03:43.000Z</time>
      </trkpt>
      <trkpt lat="44.53714" lon="4.22931">
        <ele>503</ele>
        <time>2018-06-03T07:03:44.000Z</time>
      </trkpt>
      <trkpt lat="44.53715" lon="4.22931">
        <ele>503</ele>
        <time>2018-06-03T07:03:45.000Z</time>
      </trkpt>
      <trkpt lat="44.53716" lon="4.2293">
        <ele>503</ele>
        <time>2018-06-03T07:03:46.000Z</time>
      </trkpt>
      <trkpt lat="44.53717" lon="4.22929">
        <ele>503</ele>
        <time>2018-06-03T07:03:47.000Z</time>
      </trkpt>
      <trkpt lat="44.53718" lon="4.22928">
        <ele>503</ele>
        <time>2018-06-03T07:03:48.000Z</time>
      </trkpt>
      <trkpt lat="44.53718" lon="4.22927">
        <ele>504</ele>
        <time>2018-06-03T07:03:49.000Z</time>
      </trkpt>
      <trkpt lat="44.53719" lon="4.22926">
        <ele>504</ele>
        <time>2018-06-03T07:03:50.000Z</time>
      </trkpt>
      <trkpt lat="44.5372" lon="4.22925">
        <ele>504</ele>
        <time>2018-06-03T07:03:51.000Z</time>
      </trkpt>
      <trkpt lat="44.53721" lon="4.22924">
        <ele>504</ele>
        <time>2018-06-03T07:03:52.000Z</time>
      </trkpt>
      <trkpt lat="44.53721" lon="4.22922">
        <ele>504</ele>
        <time>2018-06-03T07:03:53.000Z</time>
      </trkpt>
      <trkpt lat="44.53721" lon="4.2292">
        <ele>504</ele>
        <time>2018-06-03T07:03:54.000Z</time>
      </trkpt>
      <trkpt lat="44.53722" lon="4.22919">
        <ele>505</ele>
        <time>2018-06-03T07:03:55.000Z</time>
      </trkpt>
      <trkpt lat="44.53722" lon="4.22917">
        <ele>505</ele>
        <time>2018-06-03T07:03:56.000Z</time>
      </trkpt>
      <trkpt lat="44.53722" lon="4.22916">
        <ele>507</ele>
        <time>2018-06-03T07:03:57.000Z</time>
      </trkpt>
      <trkpt lat="44.53722" lon="4.22915">
        <ele>507</ele>
        <time>2018-06-03T07:03:58.000Z</time>
      </trkpt>
      <trkpt lat="44.53722" lon="4.22915">
        <ele>507</ele>
        <time>2018-06-03T07:03:59.000Z</time>
      </trkpt>
      <trkpt lat="44.53722" lon="4.22915">
        <ele>507</ele>
        <time>2018-06-03T07:04:00.000Z</time>
      </trkpt>
      <trkpt lat="44.53722" lon="4.22914">
        <ele>508</ele>
        <time>2018-06-03T07:04:01.000Z</time>
      </trkpt>
      <trkpt lat="44.53722" lon="4.22912">
        <ele>508</ele>
        <time>2018-06-03T07:04:02.000Z</time>
      </trkpt>
      <trkpt lat="44.53723" lon="4.2291">
        <ele>508</ele>
        <time>2018-06-03T07:04:03.000Z</time>
      </trkpt>
      <trkpt lat="44.53724" lon="4.22908">
        <ele>508</ele>
        <time>2018-06-03T07:04:04.000Z</time>
      </trkpt>
      <trkpt lat="44.53725" lon="4.22905">
        <ele>508</ele>
        <time>2018-06-03T07:04:05.000Z</time>
      </trkpt>
      <trkpt lat="44.53726" lon="4.22903">
        <ele>508</ele>
        <time>2018-06-03T07:04:06.000Z</time>
      </trkpt>
      <trkpt lat="44.53727" lon="4.229">
        <ele>508</ele>
        <time>2018-06-03T07:04:07.000Z</time>
      </trkpt>
      <trkpt lat="44.53728" lon="4.22897">
        <ele>508</ele>
        <time>2018-06-03T07:04:08.000Z</time>
      </trkpt>
      <trkpt lat="44.53729" lon="4.22894">
        <ele>508</ele>
        <time>2018-06-03T07:04:09.000Z</time>
      </trkpt>
      <trkpt lat="44.5373" lon="4.22891">
        <ele>508</ele>
        <time>2018-06-03T07:04:10.000Z</time>
      </trkpt>
      <trkpt lat="44.53731" lon="4.22888">
        <ele>508</ele>
        <time>2018-06-03T07:04:11.000Z</time>
      </trkpt>
      <trkpt lat="44.53732" lon="4.22885">
        <ele>508</ele>
        <time>2018-06-03T07:04:12.000Z</time>
      </trkpt>
      <trkpt lat="44.53733" lon="4.22882">
        <ele>509</ele>
        <time>2018-06-03T07:04:13.000Z</time>
      </trkpt>
      <trkpt lat="44.53734" lon="4.22879">
        <ele>509</ele>
        <time>2018-06-03T07:04:14.000Z</time>
      </trkpt>
      <trkpt lat="44.53735" lon="4.22876">
        <ele>509</ele>
        <time>2018-06-03T07:04:15.000Z</time>
      </trkpt>
      <trkpt lat="44.53736" lon="4.22873">
        <ele>509</ele>
        <time>2018-06-03T07:04:16.000Z</time>
      </trkpt>
      <trkpt lat="44.53737" lon="4.2287">
        <ele>509</ele>
        <time>2018-06-03T07:04:17.000Z</time>
      </trkpt>
      <trkpt lat="44.53738" lon="4.22867">
        <ele>510</ele>
        <time>2018-06-03T07:04:18.000Z</time>
      </trkpt>
      <trkpt lat="44.53739" lon="4.22864">
        <ele>510</ele>
        <time>2018-06-03T07:04:19.000Z</time>
      </trkpt>
      <trkpt lat="44.5374" lon="4.22861">
        <ele>510</ele>
        <time>2018-06-03T07:04:20.000Z</time>
      </trkpt>
      <trkpt lat="44.53741" lon="4.22858">
        <ele>511</ele>
        <time>2018-06-03T07:04:21.000Z</time>
      </trkpt>
      <trkpt lat="44.53742" lon="4.22855">
        <ele>511</ele>
        <time>2018-06-03T07:04:22.000Z</time>
      </trkpt>
      <trkpt lat="44.53743" lon="4.22853">
        <ele>512</ele>
        <time>2018-06-03T07:04:23.000Z</time>
      </trkpt>
      <trkpt lat="44.53744" lon="4.2285">
        <ele>512</ele>
        <time>2018-06-03T07:04:24.000Z</time>
      </trkpt>
      <trkpt lat="44.53746" lon="4.22847">
        <ele>513</ele>
        <time>2018-06-03T07:04:25.000Z</time>
      </trkpt>
      <trkpt lat="44.53747" lon="4.22845">
        <ele>514</ele>
        <time>2018-06-03T07:04:26.000Z</time>
      </trkpt>
      <trkpt lat="44.53749" lon="4.22843">
        <ele>514</ele>
        <time>2018-06-03T07:04:27.000Z</time>
      </trkpt>
      <trkpt lat="44.53751" lon="4.22841">
        <ele>519</ele>
        <time>2018-06-03T07:04:28.000Z</time>
      </trkpt>
      <trkpt lat="44.53753" lon="4.22839">
        <ele>519</ele>
        <time>2018-06-03T07:04:29.000Z</time>
      </trkpt>
      <trkpt lat="44.53754" lon="4.22836">
        <ele>519</ele>
        <time>2018-06-03T07:04:30.000Z</time>
      </trkpt>
      <trkpt lat="44.53756" lon="4.22835">
        <ele>519</ele>
        <time>2018-06-03T07:04:31.000Z</time>
      </trkpt>
      <trkpt lat="44.53758" lon="4.22833">
        <ele>520</ele>
        <time>2018-06-03T07:04:32.000Z</time>
      </trkpt>
      <trkpt lat="44.5376" lon="4.22831">
        <ele>520</ele>
        <time>2018-06-03T07:04:33.000Z</time>
      </trkpt>
      <trkpt lat="44.53762" lon="4.22829">
        <ele>521</ele>
        <time>2018-06-03T07:04:34.000Z</time>
      </trkpt>
      <trkpt lat="44.53763" lon="4.22827">
        <ele>521</ele>
        <time>2018-06-03T07:04:35.000Z</time>
      </trkpt>
      <trkpt lat="44.53765" lon="4.22825">
        <ele>522</ele>
        <time>2018-06-03T07:04:36.000Z</time>
      </trkpt>
      <trkpt lat="44.53767" lon="4.22824">
        <ele>522</ele>
        <time>2018-06-03T07:04:37.000Z</time>
      </trkpt>
      <trkpt lat="44.53769" lon="4.22822">
        <ele>522</ele>
        <time>2018-06-03T07:04:38.000Z</time>
      </trkpt>
      <trkpt lat="44.53771" lon="4.22821">
        <ele>523</ele>
        <time>2018-06-03T07:04:39.000Z</time>
      </trkpt>
      <trkpt lat="44.53773" lon="4.2282">
        <ele>523</ele>
        <time>2018-06-03T07:04:40.000Z</time>
      </trkpt>
      <trkpt lat="44.53775" lon="4.22819">
        <ele>523</ele>
        <time>2018-06-03T07:04:41.000Z</time>
      </trkpt>
      <trkpt lat="44.53778" lon="4.22818">
        <ele>523</ele>
        <time>2018-06-03T07:04:42.000Z</time>
      </trkpt>
      <trkpt lat="44.5378" lon="4.22817">
        <ele>524</ele>
        <time>2018-06-03T07:04:43.000Z</time>
      </trkpt>
      <trkpt lat="44.53782" lon="4.22815">
        <ele>524</ele>
        <time>2018-06-03T07:04:44.000Z</time>
      </trkpt>
      <trkpt lat="44.53784" lon="4.22814">
        <ele>524</ele>
        <time>2018-06-03T07:04:45.000Z</time>
      </trkpt>
      <trkpt lat="44.53786" lon="4.22812">
        <ele>524</ele>
        <time>2018-06-03T07:04:46.000Z</time>
      </trkpt>
      <trkpt lat="44.53788" lon="4.22811">
        <ele>525</ele>
        <time>2018-06-03T07:04:47.000Z</time>
      </trkpt>
      <trkpt lat="44.5379" lon="4.22809">
        <ele>525</ele>
        <time>2018-06-03T07:04:48.000Z</time>
      </trkpt>
      <trkpt lat="44.53792" lon="4.22808">
        <ele>525</ele>
        <time>2018-06-03T07:04:49.000Z</time>
      </trkpt>
      <trkpt lat="44.53794" lon="4.22806">
        <ele>525</ele>
        <time>2018-06-03T07:04:50.000Z</time>
      </trkpt>
      <trkpt lat="44.53796" lon="4.22805">
        <ele>525</ele>
        <time>2018-06-03T07:04:51.000Z</time>
      </trkpt>
      <trkpt lat="44.53798" lon="4.22803">
        <ele>525</ele>
        <time>2018-06-03T07:04:52.000Z</time>
      </trkpt>
      <trkpt lat="44.538" lon="4.22802">
        <ele>525</ele>
        <time>2018-06-03T07:04:53.000Z</time>
      </trkpt>
      <trkpt lat="44.53802" lon="4.228">
        <ele>526</ele>
        <time>2018-06-03T07:04:54.000Z</time>
      </trkpt>
      <trkpt lat="44.53803" lon="4.22799">
        <ele>526</ele>
        <time>2018-06-03T07:04:55.000Z</time>
      </trkpt>
      <trkpt lat="44.53805" lon="4.22797">
        <ele>526</ele>
        <time>2018-06-03T07:04:56.000Z</time>
      </trkpt>
      <trkpt lat="44.53807" lon="4.22796">
        <ele>526</ele>
        <time>2018-06-03T07:04:57.000Z</time>
      </trkpt>
      <trkpt lat="44.53809" lon="4.22795">
        <ele>526</ele>
        <time>2018-06-03T07:04:58.000Z</time>
      </trkpt>
      <trkpt lat="44.5381" lon="4.22794">
        <ele>526</ele>
        <time>2018-06-03T07:04:59.000Z</time>
      </trkpt>
      <trkpt lat="44.53812" lon="4.22792">
        <ele>526</ele>
        <time>2018-06-03T07:05:00.000Z</time>
      </trkpt>
      <trkpt lat="44.53814" lon="4.22791">
        <ele>526</ele>
        <time>2018-06-03T07:05:01.000Z</time>
      </trkpt>
      <trkpt lat="44.53816" lon="4.22789">
        <ele>527</ele>
        <time>2018-06-03T07:05:02.000Z</time>
      </trkpt>
      <trkpt lat="44.53818" lon="4.22788">
        <ele>527</ele>
        <time>2018-06-03T07:05:03.000Z</time>
      </trkpt>
      <trkpt lat="44.5382" lon="4.22786">
        <ele>527</ele>
        <time>2018-06-03T07:05:04.000Z</time>
      </trkpt>
      <trkpt lat="44.53822" lon="4.22785">
        <ele>527</ele>
        <time>2018-06-03T07:05:05.000Z</time>
      </trkpt>
      <trkpt lat="44.53823" lon="4.22783">
        <ele>527</ele>
        <time>2018-06-03T07:05:06.000Z</time>
      </trkpt>
      <trkpt lat="44.53825" lon="4.22782">
        <ele>527</ele>
        <time>2018-06-03T07:05:07.000Z</time>
      </trkpt>
      <trkpt lat="44.53826" lon="4.2278">
        <ele>527</ele>
        <time>2018-06-03T07:05:08.000Z</time>
      </trkpt>
      <trkpt lat="44.53827" lon="4.22777">
        <ele>528</ele>
        <time>2018-06-03T07:05:09.000Z</time>
      </trkpt>
      <trkpt lat="44.53826" lon="4.22774">
        <ele>528</ele>
        <time>2018-06-03T07:05:10.000Z</time>
      </trkpt>
      <trkpt lat="44.53826" lon="4.22771">
        <ele>528</ele>
        <time>2018-06-03T07:05:11.000Z</time>
      </trkpt>
      <trkpt lat="44.53825" lon="4.22768">
        <ele>528</ele>
        <time>2018-06-03T07:05:12.000Z</time>
      </trkpt>
      <trkpt lat="44.53824" lon="4.22765">
        <ele>529</ele>
        <time>2018-06-03T07:05:13.000Z</time>
      </trkpt>
      <trkpt lat="44.53823" lon="4.22762">
        <ele>529</ele>
        <time>2018-06-03T07:05:14.000Z</time>
      </trkpt>
      <trkpt lat="44.53821" lon="4.22759">
        <ele>529</ele>
        <time>2018-06-03T07:05:15.000Z</time>
      </trkpt>
      <trkpt lat="44.5382" lon="4.22757">
        <ele>529</ele>
        <time>2018-06-03T07:05:16.000Z</time>
      </trkpt>
      <trkpt lat="44.53819" lon="4.22754">
        <ele>529</ele>
        <time>2018-06-03T07:05:17.000Z</time>
      </trkpt>
      <trkpt lat="44.53818" lon="4.22751">
        <ele>529</ele>
        <time>2018-06-03T07:05:18.000Z</time>
      </trkpt>
      <trkpt lat="44.53817" lon="4.22748">
        <ele>531</ele>
        <time>2018-06-03T07:05:19.000Z</time>
      </trkpt>
      <trkpt lat="44.53816" lon="4.22745">
        <ele>530</ele>
        <time>2018-06-03T07:05:20.000Z</time>
      </trkpt>
      <trkpt lat="44.53815" lon="4.22742">
        <ele>530</ele>
        <time>2018-06-03T07:05:21.000Z</time>
      </trkpt>
      <trkpt lat="44.53816" lon="4.22739">
        <ele>530</ele>
        <time>2018-06-03T07:05:22.000Z</time>
      </trkpt>
      <trkpt lat="44.53817" lon="4.22736">
        <ele>530</ele>
        <time>2018-06-03T07:05:23.000Z</time>
      </trkpt>
      <trkpt lat="44.53818" lon="4.22735">
        <ele>530</ele>
        <time>2018-06-03T07:05:24.000Z</time>
      </trkpt>
      <trkpt lat="44.5382" lon="4.22734">
        <ele>531</ele>
        <time>2018-06-03T07:05:25.000Z</time>
      </trkpt>
      <trkpt lat="44.53822" lon="4.22734">
        <ele>531</ele>
        <time>2018-06-03T07:05:26.000Z</time>
      </trkpt>
      <trkpt lat="44.53824" lon="4.22733">
        <ele>531</ele>
        <time>2018-06-03T07:05:27.000Z</time>
      </trkpt>
      <trkpt lat="44.53827" lon="4.22732">
        <ele>531</ele>
        <time>2018-06-03T07:05:28.000Z</time>
      </trkpt>
      <trkpt lat="44.53829" lon="4.22732">
        <ele>531</ele>
        <time>2018-06-03T07:05:29.000Z</time>
      </trkpt>
      <trkpt lat="44.53831" lon="4.22731">
        <ele>531</ele>
        <time>2018-06-03T07:05:30.000Z</time>
      </trkpt>
      <trkpt lat="44.53833" lon="4.2273">
        <ele>531</ele>
        <time>2018-06-03T07:05:31.000Z</time>
      </trkpt>
      <trkpt lat="44.53835" lon="4.22729">
        <ele>538</ele>
        <time>2018-06-03T07:05:32.000Z</time>
      </trkpt>
      <trkpt lat="44.53837" lon="4.22728">
        <ele>538</ele>
        <time>2018-06-03T07:05:33.000Z</time>
      </trkpt>
      <trkpt lat="44.53839" lon="4.22728">
        <ele>539</ele>
        <time>2018-06-03T07:05:34.000Z</time>
      </trkpt>
      <trkpt lat="44.53841" lon="4.22727">
        <ele>539</ele>
        <time>2018-06-03T07:05:35.000Z</time>
      </trkpt>
      <trkpt lat="44.53843" lon="4.22726">
        <ele>539</ele>
        <time>2018-06-03T07:05:36.000Z</time>
      </trkpt>
      <trkpt lat="44.53845" lon="4.22725">
        <ele>540</ele>
        <time>2018-06-03T07:05:37.000Z</time>
      </trkpt>
      <trkpt lat="44.53847" lon="4.22724">
        <ele>540</ele>
        <time>2018-06-03T07:05:38.000Z</time>
      </trkpt>
      <trkpt lat="44.53849" lon="4.22723">
        <ele>540</ele>
        <time>2018-06-03T07:05:39.000Z</time>
      </trkpt>
      <trkpt lat="44.5385" lon="4.22722">
        <ele>540</ele>
        <time>2018-06-03T07:05:40.000Z</time>
      </trkpt>
      <trkpt lat="44.53852" lon="4.22721">
        <ele>541</ele>
        <time>2018-06-03T07:05:41.000Z</time>
      </trkpt>
      <trkpt lat="44.53854" lon="4.22721">
        <ele>541</ele>
        <time>2018-06-03T07:05:42.000Z</time>
      </trkpt>
      <trkpt lat="44.53855" lon="4.2272">
        <ele>541</ele>
        <time>2018-06-03T07:05:43.000Z</time>
      </trkpt>
      <trkpt lat="44.53857" lon="4.2272">
        <ele>541</ele>
        <time>2018-06-03T07:05:44.000Z</time>
      </trkpt>
      <trkpt lat="44.53859" lon="4.22719">
        <ele>542</ele>
        <time>2018-06-03T07:05:45.000Z</time>
      </trkpt>
      <trkpt lat="44.53861" lon="4.22718">
        <ele>542</ele>
        <time>2018-06-03T07:05:46.000Z</time>
      </trkpt>
      <trkpt lat="44.53862" lon="4.22717">
        <ele>542</ele>
        <time>2018-06-03T07:05:47.000Z</time>
      </trkpt>
      <trkpt lat="44.53864" lon="4.22716">
        <ele>542</ele>
        <time>2018-06-03T07:05:48.000Z</time>
      </trkpt>
      <trkpt lat="44.53866" lon="4.22715">
        <ele>542</ele>
        <time>2018-06-03T07:05:49.000Z</time>
      </trkpt>
      <trkpt lat="44.53868" lon="4.22714">
        <ele>543</ele>
        <time>2018-06-03T07:05:50.000Z</time>
      </trkpt>
      <trkpt lat="44.53869" lon="4.22711">
        <ele>543</ele>
        <time>2018-06-03T07:05:51.000Z</time>
      </trkpt>
      <trkpt lat="44.5387" lon="4.22708">
        <ele>543</ele>
        <time>2018-06-03T07:05:52.000Z</time>
      </trkpt>
      <trkpt lat="44.5387" lon="4.22705">
        <ele>543</ele>
        <time>2018-06-03T07:05:53.000Z</time>
      </trkpt>
      <trkpt lat="44.53869" lon="4.22702">
        <ele>543</ele>
        <time>2018-06-03T07:05:54.000Z</time>
      </trkpt>
      <trkpt lat="44.53869" lon="4.22699">
        <ele>543</ele>
        <time>2018-06-03T07:05:55.000Z</time>
      </trkpt>
      <trkpt lat="44.53869" lon="4.22696">
        <ele>543</ele>
        <time>2018-06-03T07:05:56.000Z</time>
      </trkpt>
      <trkpt lat="44.53869" lon="4.22693">
        <ele>543</ele>
        <time>2018-06-03T07:05:57.000Z</time>
      </trkpt>
      <trkpt lat="44.53868" lon="4.22691">
        <ele>544</ele>
        <time>2018-06-03T07:05:58.000Z</time>
      </trkpt>
      <trkpt lat="44.53868" lon="4.22688">
        <ele>544</ele>
        <time>2018-06-03T07:05:59.000Z</time>
      </trkpt>
      <trkpt lat="44.53868" lon="4.22686">
        <ele>544</ele>
        <time>2018-06-03T07:06:00.000Z</time>
      </trkpt>
      <trkpt lat="44.53867" lon="4.22683">
        <ele>543</ele>
        <time>2018-06-03T07:06:01.000Z</time>
      </trkpt>
      <trkpt lat="44.53867" lon="4.2268">
        <ele>543</ele>
        <time>2018-06-03T07:06:02.000Z</time>
      </trkpt>
      <trkpt lat="44.53867" lon="4.22676">
        <ele>544</ele>
        <time>2018-06-03T07:06:03.000Z</time>
      </trkpt>
      <trkpt lat="44.53867" lon="4.22674">
        <ele>543</ele>
        <time>2018-06-03T07:06:04.000Z</time>
      </trkpt>
      <trkpt lat="44.53866" lon="4.22671">
        <ele>543</ele>
        <time>2018-06-03T07:06:05.000Z</time>
      </trkpt>
      <trkpt lat="44.53865" lon="4.22669">
        <ele>543</ele>
        <time>2018-06-03T07:06:06.000Z</time>
      </trkpt>
      <trkpt lat="44.53864" lon="4.22666">
        <ele>548</ele>
        <time>2018-06-03T07:06:07.000Z</time>
      </trkpt>
      <trkpt lat="44.53864" lon="4.22665">
        <ele>548</ele>
        <time>2018-06-03T07:06:08.000Z</time>
      </trkpt>
      <trkpt lat="44.53863" lon="4.22663">
        <ele>548</ele>
        <time>2018-06-03T07:06:09.000Z</time>
      </trkpt>
      <trkpt lat="44.53863" lon="4.2266">
        <ele>548</ele>
        <time>2018-06-03T07:06:10.000Z</time>
      </trkpt>
      <trkpt lat="44.53863" lon="4.22658">
        <ele>548</ele>
        <time>2018-06-03T07:06:11.000Z</time>
      </trkpt>
      <trkpt lat="44.53864" lon="4.22656">
        <ele>548</ele>
        <time>2018-06-03T07:06:12.000Z</time>
      </trkpt>
      <trkpt lat="44.53866" lon="4.22656">
        <ele>548</ele>
        <time>2018-06-03T07:06:13.000Z</time>
      </trkpt>
      <trkpt lat="44.53868" lon="4.22656">
        <ele>549</ele>
        <time>2018-06-03T07:06:14.000Z</time>
      </trkpt>
      <trkpt lat="44.53869" lon="4.22657">
        <ele>549</ele>
        <time>2018-06-03T07:06:15.000Z</time>
      </trkpt>
      <trkpt lat="44.53871" lon="4.22659">
        <ele>549</ele>
        <time>2018-06-03T07:06:16.000Z</time>
      </trkpt>
      <trkpt lat="44.53872" lon="4.2266">
        <ele>549</ele>
        <time>2018-06-03T07:06:17.000Z</time>
      </trkpt>
      <trkpt lat="44.53873" lon="4.22662">
        <ele>550</ele>
        <time>2018-06-03T07:06:18.000Z</time>
      </trkpt>
      <trkpt lat="44.53874" lon="4.22664">
        <ele>550</ele>
        <time>2018-06-03T07:06:19.000Z</time>
      </trkpt>
      <trkpt lat="44.53876" lon="4.22666">
        <ele>550</ele>
        <time>2018-06-03T07:06:20.000Z</time>
      </trkpt>
      <trkpt lat="44.53877" lon="4.22667">
        <ele>545</ele>
        <time>2018-06-03T07:06:21.000Z</time>
      </trkpt>
      <trkpt lat="44.53879" lon="4.22669">
        <ele>546</ele>
        <time>2018-06-03T07:06:22.000Z</time>
      </trkpt>
      <trkpt lat="44.53881" lon="4.2267">
        <ele>546</ele>
        <time>2018-06-03T07:06:23.000Z</time>
      </trkpt>
      <trkpt lat="44.53883" lon="4.22671">
        <ele>546</ele>
        <time>2018-06-03T07:06:24.000Z</time>
      </trkpt>
      <trkpt lat="44.53886" lon="4.22672">
        <ele>547</ele>
        <time>2018-06-03T07:06:25.000Z</time>
      </trkpt>
      <trkpt lat="44.53887" lon="4.22674">
        <ele>547</ele>
        <time>2018-06-03T07:06:26.000Z</time>
      </trkpt>
      <trkpt lat="44.53889" lon="4.22675">
        <ele>547</ele>
        <time>2018-06-03T07:06:27.000Z</time>
      </trkpt>
      <trkpt lat="44.5389" lon="4.22676">
        <ele>548</ele>
        <time>2018-06-03T07:06:28.000Z</time>
      </trkpt>
      <trkpt lat="44.53892" lon="4.22677">
        <ele>548</ele>
        <time>2018-06-03T07:06:29.000Z</time>
      </trkpt>
      <trkpt lat="44.53893" lon="4.22678">
        <ele>548</ele>
        <time>2018-06-03T07:06:30.000Z</time>
      </trkpt>
      <trkpt lat="44.53894" lon="4.22679">
        <ele>548</ele>
        <time>2018-06-03T07:06:31.000Z</time>
      </trkpt>
      <trkpt lat="44.53896" lon="4.22681">
        <ele>548</ele>
        <time>2018-06-03T07:06:32.000Z</time>
      </trkpt>
      <trkpt lat="44.53897" lon="4.22682">
        <ele>548</ele>
        <time>2018-06-03T07:06:33.000Z</time>
      </trkpt>
      <trkpt lat="44.53899" lon="4.22684">
        <ele>549</ele>
        <time>2018-06-03T07:06:34.000Z</time>
      </trkpt>
      <trkpt lat="44.539" lon="4.22686">
        <ele>549</ele>
        <time>2018-06-03T07:06:35.000Z</time>
      </trkpt>
      <trkpt lat="44.53902" lon="4.22687">
        <ele>549</ele>
        <time>2018-06-03T07:06:36.000Z</time>
      </trkpt>
      <trkpt lat="44.53904" lon="4.22689">
        <ele>549</ele>
        <time>2018-06-03T07:06:37.000Z</time>
      </trkpt>
      <trkpt lat="44.53905" lon="4.22691">
        <ele>549</ele>
        <time>2018-06-03T07:06:38.000Z</time>
      </trkpt>
      <trkpt lat="44.53907" lon="4.22692">
        <ele>548</ele>
        <time>2018-06-03T07:06:39.000Z</time>
      </trkpt>
      <trkpt lat="44.53909" lon="4.22694">
        <ele>548</ele>
        <time>2018-06-03T07:06:40.000Z</time>
      </trkpt>
      <trkpt lat="44.53911" lon="4.22696">
        <ele>548</ele>
        <time>2018-06-03T07:06:41.000Z</time>
      </trkpt>
      <trkpt lat="44.53912" lon="4.22698">
        <ele>548</ele>
        <time>2018-06-03T07:06:42.000Z</time>
      </trkpt>
      <trkpt lat="44.53914" lon="4.22701">
        <ele>548</ele>
        <time>2018-06-03T07:06:43.000Z</time>
      </trkpt>
      <trkpt lat="44.53916" lon="4.22703">
        <ele>548</ele>
        <time>2018-06-03T07:06:44.000Z</time>
      </trkpt>
      <trkpt lat="44.53917" lon="4.22705">
        <ele>561</ele>
        <time>2018-06-03T07:06:45.000Z</time>
      </trkpt>
      <trkpt lat="44.53918" lon="4.22707">
        <ele>561</ele>
        <time>2018-06-03T07:06:46.000Z</time>
      </trkpt>
      <trkpt lat="44.5392" lon="4.22708">
        <ele>561</ele>
        <time>2018-06-03T07:06:47.000Z</time>
      </trkpt>
      <trkpt lat="44.53921" lon="4.2271">
        <ele>561</ele>
        <time>2018-06-03T07:06:48.000Z</time>
      </trkpt>
      <trkpt lat="44.53922" lon="4.22712">
        <ele>561</ele>
        <time>2018-06-03T07:06:49.000Z</time>
      </trkpt>
      <trkpt lat="44.53923" lon="4.22713">
        <ele>561</ele>
        <time>2018-06-03T07:06:50.000Z</time>
      </trkpt>
      <trkpt lat="44.53924" lon="4.22715">
        <ele>560</ele>
        <time>2018-06-03T07:06:51.000Z</time>
      </trkpt>
      <trkpt lat="44.53926" lon="4.22716">
        <ele>560</ele>
        <time>2018-06-03T07:06:52.000Z</time>
      </trkpt>
      <trkpt lat="44.53927" lon="4.22718">
        <ele>560</ele>
        <time>2018-06-03T07:06:53.000Z</time>
      </trkpt>
      <trkpt lat="44.53928" lon="4.22719">
        <ele>560</ele>
        <time>2018-06-03T07:06:54.000Z</time>
      </trkpt>
      <trkpt lat="44.53929" lon="4.22721">
        <ele>560</ele>
        <time>2018-06-03T07:06:55.000Z</time>
      </trkpt>
      <trkpt lat="44.5393" lon="4.22722">
        <ele>560</ele>
        <time>2018-06-03T07:06:56.000Z</time>
      </trkpt>
      <trkpt lat="44.53931" lon="4.22724">
        <ele>560</ele>
        <time>2018-06-03T07:06:57.000Z</time>
      </trkpt>
      <trkpt lat="44.53932" lon="4.22726">
        <ele>560</ele>
        <time>2018-06-03T07:06:58.000Z</time>
      </trkpt>
      <trkpt lat="44.53934" lon="4.22727">
        <ele>560</ele>
        <time>2018-06-03T07:06:59.000Z</time>
      </trkpt>
      <trkpt lat="44.53935" lon="4.22729">
        <ele>560</ele>
        <time>2018-06-03T07:07:00.000Z</time>
      </trkpt>
      <trkpt lat="44.53936" lon="4.2273">
        <ele>560</ele>
        <time>2018-06-03T07:07:01.000Z</time>
      </trkpt>
      <trkpt lat="44.53938" lon="4.22731">
        <ele>560</ele>
        <time>2018-06-03T07:07:02.000Z</time>
      </trkpt>
      <trkpt lat="44.53938" lon="4.22732">
        <ele>560</ele>
        <time>2018-06-03T07:07:03.000Z</time>
      </trkpt>
      <trkpt lat="44.53939" lon="4.22733">
        <ele>560</ele>
        <time>2018-06-03T07:07:04.000Z</time>
      </trkpt>
      <trkpt lat="44.5394" lon="4.22734">
        <ele>560</ele>
        <time>2018-06-03T07:07:05.000Z</time>
      </trkpt>
      <trkpt lat="44.53941" lon="4.22735">
        <ele>560</ele>
        <time>2018-06-03T07:07:06.000Z</time>
      </trkpt>
      <trkpt lat="44.53943" lon="4.22738">
        <ele>560</ele>
        <time>2018-06-03T07:07:07.000Z</time>
      </trkpt>
      <trkpt lat="44.53943" lon="4.22739">
        <ele>560</ele>
        <time>2018-06-03T07:07:08.000Z</time>
      </trkpt>
      <trkpt lat="44.53945" lon="4.22741">
        <ele>561</ele>
        <time>2018-06-03T07:07:09.000Z</time>
      </trkpt>
      <trkpt lat="44.53946" lon="4.22743">
        <ele>561</ele>
        <time>2018-06-03T07:07:10.000Z</time>
      </trkpt>
      <trkpt lat="44.53948" lon="4.22745">
        <ele>561</ele>
        <time>2018-06-03T07:07:11.000Z</time>
      </trkpt>
      <trkpt lat="44.53949" lon="4.22746">
        <ele>561</ele>
        <time>2018-06-03T07:07:12.000Z</time>
      </trkpt>
      <trkpt lat="44.5395" lon="4.22748">
        <ele>562</ele>
        <time>2018-06-03T07:07:13.000Z</time>
      </trkpt>
      <trkpt lat="44.53951" lon="4.22751">
        <ele>556</ele>
        <time>2018-06-03T07:07:14.000Z</time>
      </trkpt>
      <trkpt lat="44.53953" lon="4.22753">
        <ele>556</ele>
        <time>2018-06-03T07:07:15.000Z</time>
      </trkpt>
      <trkpt lat="44.53954" lon="4.22755">
        <ele>556</ele>
        <time>2018-06-03T07:07:16.000Z</time>
      </trkpt>
      <trkpt lat="44.53956" lon="4.22758">
        <ele>556</ele>
        <time>2018-06-03T07:07:17.000Z</time>
      </trkpt>
      <trkpt lat="44.53958" lon="4.2276">
        <ele>557</ele>
        <time>2018-06-03T07:07:18.000Z</time>
      </trkpt>
      <trkpt lat="44.53961" lon="4.22763">
        <ele>557</ele>
        <time>2018-06-03T07:07:19.000Z</time>
      </trkpt>
      <trkpt lat="44.53963" lon="4.22765">
        <ele>557</ele>
        <time>2018-06-03T07:07:20.000Z</time>
      </trkpt>
      <trkpt lat="44.53965" lon="4.22768">
        <ele>558</ele>
        <time>2018-06-03T07:07:21.000Z</time>
      </trkpt>
      <trkpt lat="44.53967" lon="4.2277">
        <ele>558</ele>
        <time>2018-06-03T07:07:22.000Z</time>
      </trkpt>
      <trkpt lat="44.53969" lon="4.22773">
        <ele>558</ele>
        <time>2018-06-03T07:07:23.000Z</time>
      </trkpt>
      <trkpt lat="44.53971" lon="4.22775">
        <ele>558</ele>
        <time>2018-06-03T07:07:24.000Z</time>
      </trkpt>
      <trkpt lat="44.53973" lon="4.22778">
        <ele>558</ele>
        <time>2018-06-03T07:07:25.000Z</time>
      </trkpt>
      <trkpt lat="44.53975" lon="4.22781">
        <ele>558</ele>
        <time>2018-06-03T07:07:26.000Z</time>
      </trkpt>
      <trkpt lat="44.53976" lon="4.22783">
        <ele>558</ele>
        <time>2018-06-03T07:07:27.000Z</time>
      </trkpt>
      <trkpt lat="44.53978" lon="4.22786">
        <ele>558</ele>
        <time>2018-06-03T07:07:28.000Z</time>
      </trkpt>
      <trkpt lat="44.5398" lon="4.22789">
        <ele>558</ele>
        <time>2018-06-03T07:07:29.000Z</time>
      </trkpt>
      <trkpt lat="44.53982" lon="4.22792">
        <ele>558</ele>
        <time>2018-06-03T07:07:30.000Z</time>
      </trkpt>
      <trkpt lat="44.53983" lon="4.22794">
        <ele>557</ele>
        <time>2018-06-03T07:07:31.000Z</time>
      </trkpt>
      <trkpt lat="44.53985" lon="4.22797">
        <ele>557</ele>
        <time>2018-06-03T07:07:32.000Z</time>
      </trkpt>
      <trkpt lat="44.53987" lon="4.22799">
        <ele>557</ele>
        <time>2018-06-03T07:07:33.000Z</time>
      </trkpt>
      <trkpt lat="44.53988" lon="4.22802">
        <ele>557</ele>
        <time>2018-06-03T07:07:34.000Z</time>
      </trkpt>
      <trkpt lat="44.5399" lon="4.22805">
        <ele>557</ele>
        <time>2018-06-03T07:07:35.000Z</time>
      </trkpt>
      <trkpt lat="44.53992" lon="4.22808">
        <ele>557</ele>
        <time>2018-06-03T07:07:36.000Z</time>
      </trkpt>
      <trkpt lat="44.53994" lon="4.22811">
        <ele>557</ele>
        <time>2018-06-03T07:07:37.000Z</time>
      </trkpt>
      <trkpt lat="44.53996" lon="4.22815">
        <ele>557</ele>
        <time>2018-06-03T07:07:38.000Z</time>
      </trkpt>
      <trkpt lat="44.53998" lon="4.22818">
        <ele>557</ele>
        <time>2018-06-03T07:07:39.000Z</time>
      </trkpt>
      <trkpt lat="44.54" lon="4.2282">
        <ele>562</ele>
        <time>2018-06-03T07:07:40.000Z</time>
      </trkpt>
      <trkpt lat="44.54002" lon="4.22823">
        <ele>562</ele>
        <time>2018-06-03T07:07:41.000Z</time>
      </trkpt>
      <trkpt lat="44.54004" lon="4.22825">
        <ele>561</ele>
        <time>2018-06-03T07:07:42.000Z</time>
      </trkpt>
      <trkpt lat="44.54006" lon="4.22828">
        <ele>561</ele>
        <time>2018-06-03T07:07:43.000Z</time>
      </trkpt>
      <trkpt lat="44.54007" lon="4.22831">
        <ele>561</ele>
        <time>2018-06-03T07:07:44.000Z</time>
      </trkpt>
      <trkpt lat="44.54009" lon="4.22833">
        <ele>561</ele>
        <time>2018-06-03T07:07:45.000Z</time>
      </trkpt>
      <trkpt lat="44.54011" lon="4.22836">
        <ele>557</ele>
        <time>2018-06-03T07:07:46.000Z</time>
      </trkpt>
      <trkpt lat="44.54013" lon="4.22838">
        <ele>557</ele>
        <time>2018-06-03T07:07:47.000Z</time>
      </trkpt>
      <trkpt lat="44.54015" lon="4.22841">
        <ele>557</ele>
        <time>2018-06-03T07:07:48.000Z</time>
      </trkpt>
      <trkpt lat="44.54017" lon="4.22844">
        <ele>557</ele>
        <time>2018-06-03T07:07:49.000Z</time>
      </trkpt>
      <trkpt lat="44.54019" lon="4.22847">
        <ele>557</ele>
        <time>2018-06-03T07:07:50.000Z</time>
      </trkpt>
      <trkpt lat="44.54021" lon="4.22849">
        <ele>557</ele>
        <time>2018-06-03T07:07:51.000Z</time>
      </trkpt>
      <trkpt lat="44.54023" lon="4.22851">
        <ele>557</ele>
        <time>2018-06-03T07:07:52.000Z</time>
      </trkpt>
      <trkpt lat="44.54025" lon="4.22853">
        <ele>556</ele>
        <time>2018-06-03T07:07:53.000Z</time>
      </trkpt>
      <trkpt lat="44.54027" lon="4.22854">
        <ele>556</ele>
        <time>2018-06-03T07:07:54.000Z</time>
      </trkpt>
      <trkpt lat="44.54028" lon="4.22856">
        <ele>556</ele>
        <time>2018-06-03T07:07:55.000Z</time>
      </trkpt>
      <trkpt lat="44.54031" lon="4.22857">
        <ele>556</ele>
        <time>2018-06-03T07:07:56.000Z</time>
      </trkpt>
      <trkpt lat="44.54033" lon="4.22858">
        <ele>556</ele>
        <time>2018-06-03T07:07:57.000Z</time>
      </trkpt>
      <trkpt lat="44.54035" lon="4.22859">
        <ele>556</ele>
        <time>2018-06-03T07:07:58.000Z</time>
      </trkpt>
      <trkpt lat="44.54037" lon="4.22859">
        <ele>556</ele>
        <time>2018-06-03T07:07:59.000Z</time>
      </trkpt>
      <trkpt lat="44.54039" lon="4.22858">
        <ele>557</ele>
        <time>2018-06-03T07:08:00.000Z</time>
      </trkpt>
      <trkpt lat="44.54041" lon="4.22858">
        <ele>557</ele>
        <time>2018-06-03T07:08:01.000Z</time>
      </trkpt>
      <trkpt lat="44.54043" lon="4.22857">
        <ele>557</ele>
        <time>2018-06-03T07:08:02.000Z</time>
      </trkpt>
      <trkpt lat="44.54045" lon="4.22856">
        <ele>557</ele>
        <time>2018-06-03T07:08:03.000Z</time>
      </trkpt>
      <trkpt lat="44.54047" lon="4.22855">
        <ele>557</ele>
        <time>2018-06-03T07:08:04.000Z</time>
      </trkpt>
      <trkpt lat="44.5405" lon="4.22854">
        <ele>557</ele>
        <time>2018-06-03T07:08:05.000Z</time>
      </trkpt>
      <trkpt lat="44.54052" lon="4.22854">
        <ele>557</ele>
        <time>2018-06-03T07:08:06.000Z</time>
      </trkpt>
      <trkpt lat="44.54054" lon="4.22853">
        <ele>558</ele>
        <time>2018-06-03T07:08:07.000Z</time>
      </trkpt>
      <trkpt lat="44.54056" lon="4.22852">
        <ele>558</ele>
        <time>2018-06-03T07:08:08.000Z</time>
      </trkpt>
      <trkpt lat="44.54058" lon="4.22851">
        <ele>558</ele>
        <time>2018-06-03T07:08:09.000Z</time>
      </trkpt>
      <trkpt lat="44.5406" lon="4.2285">
        <ele>558</ele>
        <time>2018-06-03T07:08:10.000Z</time>
      </trkpt>
      <trkpt lat="44.54062" lon="4.22849">
        <ele>558</ele>
        <time>2018-06-03T07:08:11.000Z</time>
      </trkpt>
      <trkpt lat="44.54064" lon="4.22849">
        <ele>558</ele>
        <time>2018-06-03T07:08:12.000Z</time>
      </trkpt>
      <trkpt lat="44.54066" lon="4.22848">
        <ele>559</ele>
        <time>2018-06-03T07:08:13.000Z</time>
      </trkpt>
      <trkpt lat="44.54068" lon="4.22847">
        <ele>559</ele>
        <time>2018-06-03T07:08:14.000Z</time>
      </trkpt>
      <trkpt lat="44.5407" lon="4.22845">
        <ele>559</ele>
        <time>2018-06-03T07:08:15.000Z</time>
      </trkpt>
      <trkpt lat="44.54072" lon="4.22843">
        <ele>560</ele>
        <time>2018-06-03T07:08:16.000Z</time>
      </trkpt>
      <trkpt lat="44.54074" lon="4.22841">
        <ele>560</ele>
        <time>2018-06-03T07:08:17.000Z</time>
      </trkpt>
      <trkpt lat="44.54076" lon="4.22839">
        <ele>561</ele>
        <time>2018-06-03T07:08:18.000Z</time>
      </trkpt>
      <trkpt lat="44.54077" lon="4.22837">
        <ele>561</ele>
        <time>2018-06-03T07:08:19.000Z</time>
      </trkpt>
      <trkpt lat="44.54079" lon="4.22835">
        <ele>562</ele>
        <time>2018-06-03T07:08:20.000Z</time>
      </trkpt>
      <trkpt lat="44.54081" lon="4.22833">
        <ele>564</ele>
        <time>2018-06-03T07:08:21.000Z</time>
      </trkpt>
      <trkpt lat="44.54082" lon="4.2283">
        <ele>564</ele>
        <time>2018-06-03T07:08:22.000Z</time>
      </trkpt>
      <trkpt lat="44.54084" lon="4.22828">
        <ele>564</ele>
        <time>2018-06-03T07:08:23.000Z</time>
      </trkpt>
      <trkpt lat="44.54085" lon="4.22826">
        <ele>564</ele>
        <time>2018-06-03T07:08:24.000Z</time>
      </trkpt>
      <trkpt lat="44.54087" lon="4.22823">
        <ele>565</ele>
        <time>2018-06-03T07:08:25.000Z</time>
      </trkpt>
      <trkpt lat="44.54089" lon="4.22821">
        <ele>565</ele>
        <time>2018-06-03T07:08:26.000Z</time>
      </trkpt>
      <trkpt lat="44.5409" lon="4.22819">
        <ele>566</ele>
        <time>2018-06-03T07:08:27.000Z</time>
      </trkpt>
      <trkpt lat="44.54091" lon="4.22817">
        <ele>566</ele>
        <time>2018-06-03T07:08:28.000Z</time>
      </trkpt>
      <trkpt lat="44.54092" lon="4.22815">
        <ele>566</ele>
        <time>2018-06-03T07:08:29.000Z</time>
      </trkpt>
      <trkpt lat="44.54093" lon="4.22812">
        <ele>567</ele>
        <time>2018-06-03T07:08:30.000Z</time>
      </trkpt>
      <trkpt lat="44.54094" lon="4.22809">
        <ele>567</ele>
        <time>2018-06-03T07:08:31.000Z</time>
      </trkpt>
      <trkpt lat="44.54095" lon="4.22807">
        <ele>567</ele>
        <time>2018-06-03T07:08:32.000Z</time>
      </trkpt>
      <trkpt lat="44.54097" lon="4.22804">
        <ele>567</ele>
        <time>2018-06-03T07:08:33.000Z</time>
      </trkpt>
      <trkpt lat="44.54097" lon="4.22801">
        <ele>568</ele>
        <time>2018-06-03T07:08:34.000Z</time>
      </trkpt>
      <trkpt lat="44.54098" lon="4.22798">
        <ele>568</ele>
        <time>2018-06-03T07:08:35.000Z</time>
      </trkpt>
      <trkpt lat="44.54099" lon="4.22795">
        <ele>569</ele>
        <time>2018-06-03T07:08:36.000Z</time>
      </trkpt>
      <trkpt lat="44.54101" lon="4.22792">
        <ele>569</ele>
        <time>2018-06-03T07:08:37.000Z</time>
      </trkpt>
      <trkpt lat="44.54102" lon="4.22789">
        <ele>569</ele>
        <time>2018-06-03T07:08:38.000Z</time>
      </trkpt>
      <trkpt lat="44.54103" lon="4.22786">
        <ele>569</ele>
        <time>2018-06-03T07:08:39.000Z</time>
      </trkpt>
      <trkpt lat="44.54105" lon="4.22783">
        <ele>570</ele>
        <time>2018-06-03T07:08:40.000Z</time>
      </trkpt>
      <trkpt lat="44.54106" lon="4.2278">
        <ele>570</ele>
        <time>2018-06-03T07:08:41.000Z</time>
      </trkpt>
      <trkpt lat="44.54107" lon="4.22778">
        <ele>570</ele>
        <time>2018-06-03T07:08:42.000Z</time>
      </trkpt>
      <trkpt lat="44.54108" lon="4.22775">
        <ele>571</ele>
        <time>2018-06-03T07:08:43.000Z</time>
      </trkpt>
      <trkpt lat="44.54109" lon="4.22772">
        <ele>571</ele>
        <time>2018-06-03T07:08:44.000Z</time>
      </trkpt>
      <trkpt lat="44.5411" lon="4.22769">
        <ele>571</ele>
        <time>2018-06-03T07:08:45.000Z</time>
      </trkpt>
      <trkpt lat="44.54112" lon="4.22767">
        <ele>571</ele>
        <time>2018-06-03T07:08:46.000Z</time>
      </trkpt>
      <trkpt lat="44.54114" lon="4.22765">
        <ele>571</ele>
        <time>2018-06-03T07:08:47.000Z</time>
      </trkpt>
      <trkpt lat="44.54116" lon="4.22763">
        <ele>571</ele>
        <time>2018-06-03T07:08:48.000Z</time>
      </trkpt>
      <trkpt lat="44.54117" lon="4.2276">
        <ele>571</ele>
        <time>2018-06-03T07:08:49.000Z</time>
      </trkpt>
      <trkpt lat="44.54118" lon="4.22758">
        <ele>571</ele>
        <time>2018-06-03T07:08:50.000Z</time>
      </trkpt>
      <trkpt lat="44.54119" lon="4.22755">
        <ele>571</ele>
        <time>2018-06-03T07:08:51.000Z</time>
      </trkpt>
      <trkpt lat="44.54121" lon="4.22753">
        <ele>571</ele>
        <time>2018-06-03T07:08:52.000Z</time>
      </trkpt>
      <trkpt lat="44.54122" lon="4.2275">
        <ele>571</ele>
        <time>2018-06-03T07:08:53.000Z</time>
      </trkpt>
      <trkpt lat="44.54123" lon="4.22747">
        <ele>578</ele>
        <time>2018-06-03T07:08:54.000Z</time>
      </trkpt>
      <trkpt lat="44.54124" lon="4.22745">
        <ele>578</ele>
        <time>2018-06-03T07:08:55.000Z</time>
      </trkpt>
      <trkpt lat="44.54125" lon="4.22742">
        <ele>578</ele>
        <time>2018-06-03T07:08:56.000Z</time>
      </trkpt>
      <trkpt lat="44.54126" lon="4.22739">
        <ele>578</ele>
        <time>2018-06-03T07:08:57.000Z</time>
      </trkpt>
      <trkpt lat="44.54127" lon="4.22737">
        <ele>578</ele>
        <time>2018-06-03T07:08:58.000Z</time>
      </trkpt>
      <trkpt lat="44.54129" lon="4.22735">
        <ele>578</ele>
        <time>2018-06-03T07:08:59.000Z</time>
      </trkpt>
      <trkpt lat="44.5413" lon="4.22732">
        <ele>578</ele>
        <time>2018-06-03T07:09:00.000Z</time>
      </trkpt>
      <trkpt lat="44.54131" lon="4.2273">
        <ele>578</ele>
        <time>2018-06-03T07:09:01.000Z</time>
      </trkpt>
      <trkpt lat="44.54132" lon="4.22728">
        <ele>578</ele>
        <time>2018-06-03T07:09:02.000Z</time>
      </trkpt>
      <trkpt lat="44.54133" lon="4.22725">
        <ele>578</ele>
        <time>2018-06-03T07:09:03.000Z</time>
      </trkpt>
      <trkpt lat="44.54134" lon="4.22723">
        <ele>578</ele>
        <time>2018-06-03T07:09:04.000Z</time>
      </trkpt>
      <trkpt lat="44.54135" lon="4.22721">
        <ele>579</ele>
        <time>2018-06-03T07:09:05.000Z</time>
      </trkpt>
      <trkpt lat="44.54137" lon="4.22718">
        <ele>579</ele>
        <time>2018-06-03T07:09:06.000Z</time>
      </trkpt>
      <trkpt lat="44.54138" lon="4.22717">
        <ele>579</ele>
        <time>2018-06-03T07:09:07.000Z</time>
      </trkpt>
      <trkpt lat="44.5414" lon="4.22715">
        <ele>579</ele>
        <time>2018-06-03T07:09:08.000Z</time>
      </trkpt>
      <trkpt lat="44.54141" lon="4.22712">
        <ele>579</ele>
        <time>2018-06-03T07:09:09.000Z</time>
      </trkpt>
      <trkpt lat="44.54142" lon="4.2271">
        <ele>579</ele>
        <time>2018-06-03T07:09:10.000Z</time>
      </trkpt>
      <trkpt lat="44.54143" lon="4.22707">
        <ele>579</ele>
        <time>2018-06-03T07:09:11.000Z</time>
      </trkpt>
      <trkpt lat="44.54143" lon="4.22705">
        <ele>579</ele>
        <time>2018-06-03T07:09:12.000Z</time>
      </trkpt>
      <trkpt lat="44.54144" lon="4.22703">
        <ele>579</ele>
        <time>2018-06-03T07:09:13.000Z</time>
      </trkpt>
      <trkpt lat="44.54145" lon="4.227">
        <ele>579</ele>
        <time>2018-06-03T07:09:14.000Z</time>
      </trkpt>
      <trkpt lat="44.54146" lon="4.22698">
        <ele>580</ele>
        <time>2018-06-03T07:09:15.000Z</time>
      </trkpt>
      <trkpt lat="44.54146" lon="4.22696">
        <ele>580</ele>
        <time>2018-06-03T07:09:16.000Z</time>
      </trkpt>
      <trkpt lat="44.54147" lon="4.22694">
        <ele>580</ele>
        <time>2018-06-03T07:09:17.000Z</time>
      </trkpt>
      <trkpt lat="44.54148" lon="4.22691">
        <ele>580</ele>
        <time>2018-06-03T07:09:18.000Z</time>
      </trkpt>
      <trkpt lat="44.54148" lon="4.22689">
        <ele>580</ele>
        <time>2018-06-03T07:09:19.000Z</time>
      </trkpt>
      <trkpt lat="44.54149" lon="4.22687">
        <ele>580</ele>
        <time>2018-06-03T07:09:20.000Z</time>
      </trkpt>
      <trkpt lat="44.54149" lon="4.22685">
        <ele>580</ele>
        <time>2018-06-03T07:09:21.000Z</time>
      </trkpt>
      <trkpt lat="44.5415" lon="4.22683">
        <ele>580</ele>
        <time>2018-06-03T07:09:22.000Z</time>
      </trkpt>
      <trkpt lat="44.54151" lon="4.22681">
        <ele>580</ele>
        <time>2018-06-03T07:09:23.000Z</time>
      </trkpt>
      <trkpt lat="44.54152" lon="4.22679">
        <ele>580</ele>
        <time>2018-06-03T07:09:24.000Z</time>
      </trkpt>
      <trkpt lat="44.54152" lon="4.22676">
        <ele>580</ele>
        <time>2018-06-03T07:09:25.000Z</time>
      </trkpt>
      <trkpt lat="44.54153" lon="4.22674">
        <ele>580</ele>
        <time>2018-06-03T07:09:26.000Z</time>
      </trkpt>
      <trkpt lat="44.54154" lon="4.22672">
        <ele>580</ele>
        <time>2018-06-03T07:09:27.000Z</time>
      </trkpt>
      <trkpt lat="44.54155" lon="4.2267">
        <ele>580</ele>
        <time>2018-06-03T07:09:28.000Z</time>
      </trkpt>
      <trkpt lat="44.54156" lon="4.22668">
        <ele>580</ele>
        <time>2018-06-03T07:09:29.000Z</time>
      </trkpt>
      <trkpt lat="44.54156" lon="4.22666">
        <ele>584</ele>
        <time>2018-06-03T07:09:30.000Z</time>
      </trkpt>
      <trkpt lat="44.54157" lon="4.22664">
        <ele>584</ele>
        <time>2018-06-03T07:09:31.000Z</time>
      </trkpt>
      <trkpt lat="44.54158" lon="4.22662">
        <ele>584</ele>
        <time>2018-06-03T07:09:32.000Z</time>
      </trkpt>
      <trkpt lat="44.54159" lon="4.22661">
        <ele>584</ele>
        <time>2018-06-03T07:09:33.000Z</time>
      </trkpt>
      <trkpt lat="44.5416" lon="4.22659">
        <ele>584</ele>
        <time>2018-06-03T07:09:34.000Z</time>
      </trkpt>
      <trkpt lat="44.54162" lon="4.22657">
        <ele>585</ele>
        <time>2018-06-03T07:09:35.000Z</time>
      </trkpt>
      <trkpt lat="44.54163" lon="4.22654">
        <ele>585</ele>
        <time>2018-06-03T07:09:36.000Z</time>
      </trkpt>
      <trkpt lat="44.54164" lon="4.22652">
        <ele>586</ele>
        <time>2018-06-03T07:09:37.000Z</time>
      </trkpt>
      <trkpt lat="44.54165" lon="4.2265">
        <ele>586</ele>
        <time>2018-06-03T07:09:38.000Z</time>
      </trkpt>
      <trkpt lat="44.54166" lon="4.22649">
        <ele>586</ele>
        <time>2018-06-03T07:09:39.000Z</time>
      </trkpt>
      <trkpt lat="44.54167" lon="4.22648">
        <ele>585</ele>
        <time>2018-06-03T07:09:40.000Z</time>
      </trkpt>
      <trkpt lat="44.54168" lon="4.22646">
        <ele>585</ele>
        <time>2018-06-03T07:09:41.000Z</time>
      </trkpt>
      <trkpt lat="44.5417" lon="4.22645">
        <ele>585</ele>
        <time>2018-06-03T07:09:42.000Z</time>
      </trkpt>
      <trkpt lat="44.54171" lon="4.22643">
        <ele>586</ele>
        <time>2018-06-03T07:09:43.000Z</time>
      </trkpt>
      <trkpt lat="44.54172" lon="4.22642">
        <ele>586</ele>
        <time>2018-06-03T07:09:44.000Z</time>
      </trkpt>
      <trkpt lat="44.54174" lon="4.2264">
        <ele>586</ele>
        <time>2018-06-03T07:09:45.000Z</time>
      </trkpt>
      <trkpt lat="44.54175" lon="4.22638">
        <ele>586</ele>
        <time>2018-06-03T07:09:46.000Z</time>
      </trkpt>
      <trkpt lat="44.54177" lon="4.22636">
        <ele>587</ele>
        <time>2018-06-03T07:09:47.000Z</time>
      </trkpt>
      <trkpt lat="44.54178" lon="4.22635">
        <ele>587</ele>
        <time>2018-06-03T07:09:48.000Z</time>
      </trkpt>
      <trkpt lat="44.5418" lon="4.22633">
        <ele>587</ele>
        <time>2018-06-03T07:09:49.000Z</time>
      </trkpt>
      <trkpt lat="44.54181" lon="4.22631">
        <ele>587</ele>
        <time>2018-06-03T07:09:50.000Z</time>
      </trkpt>
      <trkpt lat="44.54183" lon="4.2263">
        <ele>588</ele>
        <time>2018-06-03T07:09:51.000Z</time>
      </trkpt>
      <trkpt lat="44.54184" lon="4.22628">
        <ele>588</ele>
        <time>2018-06-03T07:09:52.000Z</time>
      </trkpt>
      <trkpt lat="44.54186" lon="4.22627">
        <ele>588</ele>
        <time>2018-06-03T07:09:53.000Z</time>
      </trkpt>
      <trkpt lat="44.54188" lon="4.22625">
        <ele>588</ele>
        <time>2018-06-03T07:09:54.000Z</time>
      </trkpt>
      <trkpt lat="44.54189" lon="4.22624">
        <ele>588</ele>
        <time>2018-06-03T07:09:55.000Z</time>
      </trkpt>
      <trkpt lat="44.5419" lon="4.22622">
        <ele>589</ele>
        <time>2018-06-03T07:09:56.000Z</time>
      </trkpt>
      <trkpt lat="44.54191" lon="4.22621">
        <ele>589</ele>
        <time>2018-06-03T07:09:57.000Z</time>
      </trkpt>
      <trkpt lat="44.54192" lon="4.22619">
        <ele>589</ele>
        <time>2018-06-03T07:09:58.000Z</time>
      </trkpt>
      <trkpt lat="44.54193" lon="4.22618">
        <ele>589</ele>
        <time>2018-06-03T07:09:59.000Z</time>
      </trkpt>
      <trkpt lat="44.54194" lon="4.22616">
        <ele>589</ele>
        <time>2018-06-03T07:10:00.000Z</time>
      </trkpt>
      <trkpt lat="44.54195" lon="4.22615">
        <ele>589</ele>
        <time>2018-06-03T07:10:01.000Z</time>
      </trkpt>
      <trkpt lat="44.54197" lon="4.22613">
        <ele>589</ele>
        <time>2018-06-03T07:10:02.000Z</time>
      </trkpt>
      <trkpt lat="44.54198" lon="4.22612">
        <ele>589</ele>
        <time>2018-06-03T07:10:03.000Z</time>
      </trkpt>
      <trkpt lat="44.542" lon="4.22611">
        <ele>589</ele>
        <time>2018-06-03T07:10:04.000Z</time>
      </trkpt>
      <trkpt lat="44.54201" lon="4.2261">
        <ele>590</ele>
        <time>2018-06-03T07:10:05.000Z</time>
      </trkpt>
      <trkpt lat="44.54202" lon="4.2261">
        <ele>590</ele>
        <time>2018-06-03T07:10:06.000Z</time>
      </trkpt>
      <trkpt lat="44.54204" lon="4.22609">
        <ele>590</ele>
        <time>2018-06-03T07:10:07.000Z</time>
      </trkpt>
      <trkpt lat="44.54205" lon="4.22608">
        <ele>590</ele>
        <time>2018-06-03T07:10:08.000Z</time>
      </trkpt>
      <trkpt lat="44.54207" lon="4.22607">
        <ele>590</ele>
        <time>2018-06-03T07:10:09.000Z</time>
      </trkpt>
      <trkpt lat="44.54209" lon="4.22606">
        <ele>590</ele>
        <time>2018-06-03T07:10:10.000Z</time>
      </trkpt>
      <trkpt lat="44.5421" lon="4.22605">
        <ele>590</ele>
        <time>2018-06-03T07:10:11.000Z</time>
      </trkpt>
      <trkpt lat="44.54213" lon="4.22604">
        <ele>590</ele>
        <time>2018-06-03T07:10:12.000Z</time>
      </trkpt>
      <trkpt lat="44.54214" lon="4.22603">
        <ele>590</ele>
        <time>2018-06-03T07:10:13.000Z</time>
      </trkpt>
      <trkpt lat="44.54216" lon="4.22602">
        <ele>590</ele>
        <time>2018-06-03T07:10:14.000Z</time>
      </trkpt>
      <trkpt lat="44.54218" lon="4.22601">
        <ele>590</ele>
        <time>2018-06-03T07:10:15.000Z</time>
      </trkpt>
      <trkpt lat="44.5422" lon="4.226">
        <ele>590</ele>
        <time>2018-06-03T07:10:16.000Z</time>
      </trkpt>
      <trkpt lat="44.54222" lon="4.22599">
        <ele>590</ele>
        <time>2018-06-03T07:10:17.000Z</time>
      </trkpt>
      <trkpt lat="44.54223" lon="4.22598">
        <ele>591</ele>
        <time>2018-06-03T07:10:18.000Z</time>
      </trkpt>
      <trkpt lat="44.54225" lon="4.22597">
        <ele>591</ele>
        <time>2018-06-03T07:10:19.000Z</time>
      </trkpt>
      <trkpt lat="44.54226" lon="4.22596">
        <ele>591</ele>
        <time>2018-06-03T07:10:20.000Z</time>
      </trkpt>
      <trkpt lat="44.54228" lon="4.22595">
        <ele>591</ele>
        <time>2018-06-03T07:10:21.000Z</time>
      </trkpt>
      <trkpt lat="44.5423" lon="4.22594">
        <ele>591</ele>
        <time>2018-06-03T07:10:22.000Z</time>
      </trkpt>
      <trkpt lat="44.54231" lon="4.22593">
        <ele>591</ele>
        <time>2018-06-03T07:10:23.000Z</time>
      </trkpt>
      <trkpt lat="44.54233" lon="4.22592">
        <ele>592</ele>
        <time>2018-06-03T07:10:24.000Z</time>
      </trkpt>
      <trkpt lat="44.54235" lon="4.22591">
        <ele>592</ele>
        <time>2018-06-03T07:10:25.000Z</time>
      </trkpt>
      <trkpt lat="44.54236" lon="4.2259">
        <ele>592</ele>
        <time>2018-06-03T07:10:26.000Z</time>
      </trkpt>
      <trkpt lat="44.54238" lon="4.2259">
        <ele>592</ele>
        <time>2018-06-03T07:10:27.000Z</time>
      </trkpt>
      <trkpt lat="44.5424" lon="4.22589">
        <ele>593</ele>
        <time>2018-06-03T07:10:28.000Z</time>
      </trkpt>
      <trkpt lat="44.54242" lon="4.22588">
        <ele>593</ele>
        <time>2018-06-03T07:10:29.000Z</time>
      </trkpt>
      <trkpt lat="44.54243" lon="4.22588">
        <ele>593</ele>
        <time>2018-06-03T07:10:30.000Z</time>
      </trkpt>
      <trkpt lat="44.54245" lon="4.22587">
        <ele>594</ele>
        <time>2018-06-03T07:10:31.000Z</time>
      </trkpt>
      <trkpt lat="44.54247" lon="4.22587">
        <ele>594</ele>
        <time>2018-06-03T07:10:32.000Z</time>
      </trkpt>
      <trkpt lat="44.54249" lon="4.22586">
        <ele>594</ele>
        <time>2018-06-03T07:10:33.000Z</time>
      </trkpt>
      <trkpt lat="44.54251" lon="4.22586">
        <ele>595</ele>
        <time>2018-06-03T07:10:34.000Z</time>
      </trkpt>
      <trkpt lat="44.54253" lon="4.22586">
        <ele>594</ele>
        <time>2018-06-03T07:10:35.000Z</time>
      </trkpt>
      <trkpt lat="44.54255" lon="4.22587">
        <ele>594</ele>
        <time>2018-06-03T07:10:36.000Z</time>
      </trkpt>
      <trkpt lat="44.54257" lon="4.22586">
        <ele>594</ele>
        <time>2018-06-03T07:10:37.000Z</time>
      </trkpt>
      <trkpt lat="44.54259" lon="4.22586">
        <ele>594</ele>
        <time>2018-06-03T07:10:38.000Z</time>
      </trkpt>
      <trkpt lat="44.5426" lon="4.22586">
        <ele>594</ele>
        <time>2018-06-03T07:10:39.000Z</time>
      </trkpt>
      <trkpt lat="44.54262" lon="4.22586">
        <ele>594</ele>
        <time>2018-06-03T07:10:40.000Z</time>
      </trkpt>
      <trkpt lat="44.54264" lon="4.22586">
        <ele>594</ele>
        <time>2018-06-03T07:10:41.000Z</time>
      </trkpt>
      <trkpt lat="44.54266" lon="4.22586">
        <ele>594</ele>
        <time>2018-06-03T07:10:42.000Z</time>
      </trkpt>
      <trkpt lat="44.54268" lon="4.22586">
        <ele>593</ele>
        <time>2018-06-03T07:10:43.000Z</time>
      </trkpt>
      <trkpt lat="44.5427" lon="4.22585">
        <ele>593</ele>
        <time>2018-06-03T07:10:44.000Z</time>
      </trkpt>
      <trkpt lat="44.54272" lon="4.22585">
        <ele>593</ele>
        <time>2018-06-03T07:10:45.000Z</time>
      </trkpt>
      <trkpt lat="44.54273" lon="4.22585">
        <ele>593</ele>
        <time>2018-06-03T07:10:46.000Z</time>
      </trkpt>
      <trkpt lat="44.54275" lon="4.22584">
        <ele>593</ele>
        <time>2018-06-03T07:10:47.000Z</time>
      </trkpt>
      <trkpt lat="44.54276" lon="4.22584">
        <ele>593</ele>
        <time>2018-06-03T07:10:48.000Z</time>
      </trkpt>
      <trkpt lat="44.54278" lon="4.22584">
        <ele>593</ele>
        <time>2018-06-03T07:10:49.000Z</time>
      </trkpt>
      <trkpt lat="44.5428" lon="4.22584">
        <ele>593</ele>
        <time>2018-06-03T07:10:50.000Z</time>
      </trkpt>
      <trkpt lat="44.54282" lon="4.22584">
        <ele>593</ele>
        <time>2018-06-03T07:10:51.000Z</time>
      </trkpt>
      <trkpt lat="44.54284" lon="4.22584">
        <ele>593</ele>
        <time>2018-06-03T07:10:52.000Z</time>
      </trkpt>
      <trkpt lat="44.54285" lon="4.22584">
        <ele>593</ele>
        <time>2018-06-03T07:10:53.000Z</time>
      </trkpt>
      <trkpt lat="44.54287" lon="4.22584">
        <ele>593</ele>
        <time>2018-06-03T07:10:54.000Z</time>
      </trkpt>
      <trkpt lat="44.54288" lon="4.22585">
        <ele>593</ele>
        <time>2018-06-03T07:10:55.000Z</time>
      </trkpt>
      <trkpt lat="44.5429" lon="4.22585">
        <ele>593</ele>
        <time>2018-06-03T07:10:56.000Z</time>
      </trkpt>
      <trkpt lat="44.54291" lon="4.22586">
        <ele>594</ele>
        <time>2018-06-03T07:10:57.000Z</time>
      </trkpt>
      <trkpt lat="44.54293" lon="4.22586">
        <ele>594</ele>
        <time>2018-06-03T07:10:58.000Z</time>
      </trkpt>
      <trkpt lat="44.54295" lon="4.22587">
        <ele>594</ele>
        <time>2018-06-03T07:10:59.000Z</time>
      </trkpt>
      <trkpt lat="44.54296" lon="4.22588">
        <ele>594</ele>
        <time>2018-06-03T07:11:00.000Z</time>
      </trkpt>
      <trkpt lat="44.54298" lon="4.22589">
        <ele>594</ele>
        <time>2018-06-03T07:11:01.000Z</time>
      </trkpt>
      <trkpt lat="44.543" lon="4.2259">
        <ele>594</ele>
        <time>2018-06-03T07:11:02.000Z</time>
      </trkpt>
      <trkpt lat="44.54302" lon="4.22591">
        <ele>594</ele>
        <time>2018-06-03T07:11:03.000Z</time>
      </trkpt>
      <trkpt lat="44.54303" lon="4.22592">
        <ele>594</ele>
        <time>2018-06-03T07:11:04.000Z</time>
      </trkpt>
      <trkpt lat="44.54305" lon="4.22593">
        <ele>594</ele>
        <time>2018-06-03T07:11:05.000Z</time>
      </trkpt>
      <trkpt lat="44.54307" lon="4.22594">
        <ele>594</ele>
        <time>2018-06-03T07:11:06.000Z</time>
      </trkpt>
      <trkpt lat="44.54309" lon="4.22595">
        <ele>594</ele>
        <time>2018-06-03T07:11:07.000Z</time>
      </trkpt>
      <trkpt lat="44.54311" lon="4.22596">
        <ele>594</ele>
        <time>2018-06-03T07:11:08.000Z</time>
      </trkpt>
      <trkpt lat="44.54314" lon="4.22596">
        <ele>595</ele>
        <time>2018-06-03T07:11:09.000Z</time>
      </trkpt>
      <trkpt lat="44.54316" lon="4.22597">
        <ele>595</ele>
        <time>2018-06-03T07:11:10.000Z</time>
      </trkpt>
      <trkpt lat="44.54318" lon="4.22598">
        <ele>595</ele>
        <time>2018-06-03T07:11:11.000Z</time>
      </trkpt>
      <trkpt lat="44.5432" lon="4.22599">
        <ele>595</ele>
        <time>2018-06-03T07:11:12.000Z</time>
      </trkpt>
      <trkpt lat="44.54323" lon="4.226">
        <ele>595</ele>
        <time>2018-06-03T07:11:13.000Z</time>
      </trkpt>
      <trkpt lat="44.54325" lon="4.226">
        <ele>595</ele>
        <time>2018-06-03T07:11:14.000Z</time>
      </trkpt>
      <trkpt lat="44.54327" lon="4.22601">
        <ele>595</ele>
        <time>2018-06-03T07:11:15.000Z</time>
      </trkpt>
      <trkpt lat="44.54329" lon="4.226">
        <ele>595</ele>
        <time>2018-06-03T07:11:16.000Z</time>
      </trkpt>
      <trkpt lat="44.54331" lon="4.226">
        <ele>595</ele>
        <time>2018-06-03T07:11:17.000Z</time>
      </trkpt>
      <trkpt lat="44.54333" lon="4.22599">
        <ele>596</ele>
        <time>2018-06-03T07:11:18.000Z</time>
      </trkpt>
      <trkpt lat="44.54335" lon="4.22597">
        <ele>598</ele>
        <time>2018-06-03T07:11:19.000Z</time>
      </trkpt>
      <trkpt lat="44.54336" lon="4.22595">
        <ele>598</ele>
        <time>2018-06-03T07:11:20.000Z</time>
      </trkpt>
      <trkpt lat="44.54338" lon="4.22593">
        <ele>599</ele>
        <time>2018-06-03T07:11:21.000Z</time>
      </trkpt>
      <trkpt lat="44.54339" lon="4.2259">
        <ele>599</ele>
        <time>2018-06-03T07:11:22.000Z</time>
      </trkpt>
      <trkpt lat="44.5434" lon="4.22588">
        <ele>599</ele>
        <time>2018-06-03T07:11:23.000Z</time>
      </trkpt>
      <trkpt lat="44.54341" lon="4.22586">
        <ele>599</ele>
        <time>2018-06-03T07:11:24.000Z</time>
      </trkpt>
      <trkpt lat="44.54342" lon="4.22585">
        <ele>599</ele>
        <time>2018-06-03T07:11:25.000Z</time>
      </trkpt>
      <trkpt lat="44.54344" lon="4.22583">
        <ele>603</ele>
        <time>2018-06-03T07:11:26.000Z</time>
      </trkpt>
      <trkpt lat="44.54345" lon="4.22581">
        <ele>603</ele>
        <time>2018-06-03T07:11:27.000Z</time>
      </trkpt>
      <trkpt lat="44.54348" lon="4.2258">
        <ele>604</ele>
        <time>2018-06-03T07:11:28.000Z</time>
      </trkpt>
      <trkpt lat="44.5435" lon="4.22579">
        <ele>604</ele>
        <time>2018-06-03T07:11:29.000Z</time>
      </trkpt>
      <trkpt lat="44.54352" lon="4.22578">
        <ele>605</ele>
        <time>2018-06-03T07:11:30.000Z</time>
      </trkpt>
      <trkpt lat="44.54354" lon="4.22578">
        <ele>605</ele>
        <time>2018-06-03T07:11:31.000Z</time>
      </trkpt>
      <trkpt lat="44.54357" lon="4.22578">
        <ele>605</ele>
        <time>2018-06-03T07:11:32.000Z</time>
      </trkpt>
      <trkpt lat="44.5436" lon="4.22578">
        <ele>606</ele>
        <time>2018-06-03T07:11:33.000Z</time>
      </trkpt>
      <trkpt lat="44.54363" lon="4.22578">
        <ele>606</ele>
        <time>2018-06-03T07:11:34.000Z</time>
      </trkpt>
      <trkpt lat="44.54366" lon="4.22578">
        <ele>607</ele>
        <time>2018-06-03T07:11:35.000Z</time>
      </trkpt>
      <trkpt lat="44.54369" lon="4.22578">
        <ele>607</ele>
        <time>2018-06-03T07:11:36.000Z</time>
      </trkpt>
      <trkpt lat="44.54371" lon="4.22579">
        <ele>607</ele>
        <time>2018-06-03T07:11:37.000Z</time>
      </trkpt>
      <trkpt lat="44.54374" lon="4.2258">
        <ele>607</ele>
        <time>2018-06-03T07:11:38.000Z</time>
      </trkpt>
      <trkpt lat="44.54375" lon="4.22581">
        <ele>607</ele>
        <time>2018-06-03T07:11:39.000Z</time>
      </trkpt>
      <trkpt lat="44.54376" lon="4.22583">
        <ele>607</ele>
        <time>2018-06-03T07:11:40.000Z</time>
      </trkpt>
      <trkpt lat="44.54377" lon="4.22585">
        <ele>600</ele>
        <time>2018-06-03T07:11:41.000Z</time>
      </trkpt>
      <trkpt lat="44.54378" lon="4.22588">
        <ele>600</ele>
        <time>2018-06-03T07:11:42.000Z</time>
      </trkpt>
      <trkpt lat="44.54378" lon="4.22591">
        <ele>600</ele>
        <time>2018-06-03T07:11:43.000Z</time>
      </trkpt>
      <trkpt lat="44.54379" lon="4.22594">
        <ele>600</ele>
        <time>2018-06-03T07:11:44.000Z</time>
      </trkpt>
      <trkpt lat="44.54379" lon="4.22597">
        <ele>600</ele>
        <time>2018-06-03T07:11:45.000Z</time>
      </trkpt>
      <trkpt lat="44.54379" lon="4.226">
        <ele>600</ele>
        <time>2018-06-03T07:11:46.000Z</time>
      </trkpt>
      <trkpt lat="44.5438" lon="4.22603">
        <ele>599</ele>
        <time>2018-06-03T07:11:47.000Z</time>
      </trkpt>
      <trkpt lat="44.54381" lon="4.22606">
        <ele>599</ele>
        <time>2018-06-03T07:11:48.000Z</time>
      </trkpt>
      <trkpt lat="44.54382" lon="4.22609">
        <ele>599</ele>
        <time>2018-06-03T07:11:49.000Z</time>
      </trkpt>
      <trkpt lat="44.54384" lon="4.22612">
        <ele>599</ele>
        <time>2018-06-03T07:11:50.000Z</time>
      </trkpt>
      <trkpt lat="44.54386" lon="4.22614">
        <ele>599</ele>
        <time>2018-06-03T07:11:51.000Z</time>
      </trkpt>
      <trkpt lat="44.54388" lon="4.22616">
        <ele>599</ele>
        <time>2018-06-03T07:11:52.000Z</time>
      </trkpt>
      <trkpt lat="44.5439" lon="4.22618">
        <ele>599</ele>
        <time>2018-06-03T07:11:53.000Z</time>
      </trkpt>
      <trkpt lat="44.54392" lon="4.2262">
        <ele>599</ele>
        <time>2018-06-03T07:11:54.000Z</time>
      </trkpt>
      <trkpt lat="44.54394" lon="4.22622">
        <ele>599</ele>
        <time>2018-06-03T07:11:55.000Z</time>
      </trkpt>
      <trkpt lat="44.54396" lon="4.22623">
        <ele>599</ele>
        <time>2018-06-03T07:11:56.000Z</time>
      </trkpt>
      <trkpt lat="44.54398" lon="4.22625">
        <ele>599</ele>
        <time>2018-06-03T07:11:57.000Z</time>
      </trkpt>
      <trkpt lat="44.544" lon="4.22627">
        <ele>598</ele>
        <time>2018-06-03T07:11:58.000Z</time>
      </trkpt>
      <trkpt lat="44.54402" lon="4.22628">
        <ele>598</ele>
        <time>2018-06-03T07:11:59.000Z</time>
      </trkpt>
      <trkpt lat="44.54404" lon="4.2263">
        <ele>598</ele>
        <time>2018-06-03T07:12:00.000Z</time>
      </trkpt>
      <trkpt lat="44.54405" lon="4.22632">
        <ele>598</ele>
        <time>2018-06-03T07:12:01.000Z</time>
      </trkpt>
      <trkpt lat="44.54407" lon="4.22633">
        <ele>598</ele>
        <time>2018-06-03T07:12:02.000Z</time>
      </trkpt>
      <trkpt lat="44.54409" lon="4.22635">
        <ele>598</ele>
        <time>2018-06-03T07:12:03.000Z</time>
      </trkpt>
      <trkpt lat="44.54411" lon="4.22636">
        <ele>598</ele>
        <time>2018-06-03T07:12:04.000Z</time>
      </trkpt>
      <trkpt lat="44.54413" lon="4.22638">
        <ele>598</ele>
        <time>2018-06-03T07:12:05.000Z</time>
      </trkpt>
      <trkpt lat="44.54415" lon="4.22639">
        <ele>597</ele>
        <time>2018-06-03T07:12:06.000Z</time>
      </trkpt>
      <trkpt lat="44.54417" lon="4.22642">
        <ele>603</ele>
        <time>2018-06-03T07:12:07.000Z</time>
      </trkpt>
      <trkpt lat="44.5442" lon="4.22644">
        <ele>603</ele>
        <time>2018-06-03T07:12:08.000Z</time>
      </trkpt>
      <trkpt lat="44.54421" lon="4.22646">
        <ele>603</ele>
        <time>2018-06-03T07:12:09.000Z</time>
      </trkpt>
      <trkpt lat="44.54424" lon="4.22648">
        <ele>602</ele>
        <time>2018-06-03T07:12:10.000Z</time>
      </trkpt>
      <trkpt lat="44.54426" lon="4.2265">
        <ele>602</ele>
        <time>2018-06-03T07:12:11.000Z</time>
      </trkpt>
      <trkpt lat="44.54429" lon="4.22651">
        <ele>602</ele>
        <time>2018-06-03T07:12:12.000Z</time>
      </trkpt>
      <trkpt lat="44.54431" lon="4.22653">
        <ele>603</ele>
        <time>2018-06-03T07:12:13.000Z</time>
      </trkpt>
      <trkpt lat="44.54434" lon="4.22654">
        <ele>603</ele>
        <time>2018-06-03T07:12:14.000Z</time>
      </trkpt>
      <trkpt lat="44.54436" lon="4.22655">
        <ele>603</ele>
        <time>2018-06-03T07:12:15.000Z</time>
      </trkpt>
      <trkpt lat="44.54439" lon="4.22656">
        <ele>604</ele>
        <time>2018-06-03T07:12:16.000Z</time>
      </trkpt>
      <trkpt lat="44.54441" lon="4.22658">
        <ele>604</ele>
        <time>2018-06-03T07:12:17.000Z</time>
      </trkpt>
      <trkpt lat="44.54444" lon="4.22659">
        <ele>605</ele>
        <time>2018-06-03T07:12:18.000Z</time>
      </trkpt>
      <trkpt lat="44.54446" lon="4.22661">
        <ele>605</ele>
        <time>2018-06-03T07:12:19.000Z</time>
      </trkpt>
      <trkpt lat="44.54448" lon="4.22663">
        <ele>606</ele>
        <time>2018-06-03T07:12:20.000Z</time>
      </trkpt>
      <trkpt lat="44.5445" lon="4.22665">
        <ele>606</ele>
        <time>2018-06-03T07:12:21.000Z</time>
      </trkpt>
      <trkpt lat="44.54452" lon="4.22667">
        <ele>601</ele>
        <time>2018-06-03T07:12:22.000Z</time>
      </trkpt>
      <trkpt lat="44.54454" lon="4.2267">
        <ele>602</ele>
        <time>2018-06-03T07:12:23.000Z</time>
      </trkpt>
      <trkpt lat="44.54456" lon="4.22673">
        <ele>602</ele>
        <time>2018-06-03T07:12:24.000Z</time>
      </trkpt>
      <trkpt lat="44.54458" lon="4.22676">
        <ele>602</ele>
        <time>2018-06-03T07:12:25.000Z</time>
      </trkpt>
      <trkpt lat="44.5446" lon="4.22678">
        <ele>603</ele>
        <time>2018-06-03T07:12:26.000Z</time>
      </trkpt>
      <trkpt lat="44.54462" lon="4.22681">
        <ele>603</ele>
        <time>2018-06-03T07:12:27.000Z</time>
      </trkpt>
      <trkpt lat="44.54463" lon="4.22684">
        <ele>603</ele>
        <time>2018-06-03T07:12:28.000Z</time>
      </trkpt>
      <trkpt lat="44.54465" lon="4.22687">
        <ele>603</ele>
        <time>2018-06-03T07:12:29.000Z</time>
      </trkpt>
      <trkpt lat="44.54467" lon="4.2269">
        <ele>603</ele>
        <time>2018-06-03T07:12:30.000Z</time>
      </trkpt>
      <trkpt lat="44.54469" lon="4.22693">
        <ele>603</ele>
        <time>2018-06-03T07:12:31.000Z</time>
      </trkpt>
      <trkpt lat="44.54471" lon="4.22696">
        <ele>604</ele>
        <time>2018-06-03T07:12:32.000Z</time>
      </trkpt>
      <trkpt lat="44.54472" lon="4.22699">
        <ele>604</ele>
        <time>2018-06-03T07:12:33.000Z</time>
      </trkpt>
      <trkpt lat="44.54474" lon="4.22702">
        <ele>604</ele>
        <time>2018-06-03T07:12:34.000Z</time>
      </trkpt>
      <trkpt lat="44.54476" lon="4.22705">
        <ele>604</ele>
        <time>2018-06-03T07:12:35.000Z</time>
      </trkpt>
      <trkpt lat="44.54478" lon="4.22708">
        <ele>604</ele>
        <time>2018-06-03T07:12:36.000Z</time>
      </trkpt>
      <trkpt lat="44.5448" lon="4.22711">
        <ele>604</ele>
        <time>2018-06-03T07:12:37.000Z</time>
      </trkpt>
      <trkpt lat="44.54481" lon="4.22714">
        <ele>604</ele>
        <time>2018-06-03T07:12:38.000Z</time>
      </trkpt>
      <trkpt lat="44.54483" lon="4.22717">
        <ele>604</ele>
        <time>2018-06-03T07:12:39.000Z</time>
      </trkpt>
      <trkpt lat="44.54485" lon="4.2272">
        <ele>605</ele>
        <time>2018-06-03T07:12:40.000Z</time>
      </trkpt>
      <trkpt lat="44.54487" lon="4.22723">
        <ele>605</ele>
        <time>2018-06-03T07:12:41.000Z</time>
      </trkpt>
      <trkpt lat="44.54489" lon="4.22726">
        <ele>605</ele>
        <time>2018-06-03T07:12:42.000Z</time>
      </trkpt>
      <trkpt lat="44.5449" lon="4.22728">
        <ele>606</ele>
        <time>2018-06-03T07:12:43.000Z</time>
      </trkpt>
      <trkpt lat="44.54492" lon="4.22731">
        <ele>606</ele>
        <time>2018-06-03T07:12:44.000Z</time>
      </trkpt>
      <trkpt lat="44.54494" lon="4.22734">
        <ele>607</ele>
        <time>2018-06-03T07:12:45.000Z</time>
      </trkpt>
      <trkpt lat="44.54495" lon="4.22737">
        <ele>608</ele>
        <time>2018-06-03T07:12:46.000Z</time>
      </trkpt>
      <trkpt lat="44.54496" lon="4.2274">
        <ele>608</ele>
        <time>2018-06-03T07:12:47.000Z</time>
      </trkpt>
      <trkpt lat="44.54496" lon="4.22744">
        <ele>609</ele>
        <time>2018-06-03T07:12:48.000Z</time>
      </trkpt>
      <trkpt lat="44.54496" lon="4.22747">
        <ele>610</ele>
        <time>2018-06-03T07:12:49.000Z</time>
      </trkpt>
      <trkpt lat="44.54497" lon="4.2275">
        <ele>610</ele>
        <time>2018-06-03T07:12:50.000Z</time>
      </trkpt>
      <trkpt lat="44.54497" lon="4.22754">
        <ele>610</ele>
        <time>2018-06-03T07:12:51.000Z</time>
      </trkpt>
      <trkpt lat="44.54497" lon="4.22756">
        <ele>608</ele>
        <time>2018-06-03T07:12:52.000Z</time>
      </trkpt>
      <trkpt lat="44.54496" lon="4.22759">
        <ele>607</ele>
        <time>2018-06-03T07:12:53.000Z</time>
      </trkpt>
      <trkpt lat="44.54496" lon="4.22763">
        <ele>606</ele>
        <time>2018-06-03T07:12:54.000Z</time>
      </trkpt>
      <trkpt lat="44.54497" lon="4.22766">
        <ele>606</ele>
        <time>2018-06-03T07:12:55.000Z</time>
      </trkpt>
      <trkpt lat="44.54497" lon="4.2277">
        <ele>605</ele>
        <time>2018-06-03T07:12:56.000Z</time>
      </trkpt>
      <trkpt lat="44.54498" lon="4.22773">
        <ele>604</ele>
        <time>2018-06-03T07:12:57.000Z</time>
      </trkpt>
      <trkpt lat="44.54498" lon="4.22776">
        <ele>604</ele>
        <time>2018-06-03T07:12:58.000Z</time>
      </trkpt>
      <trkpt lat="44.54498" lon="4.22779">
        <ele>603</ele>
        <time>2018-06-03T07:12:59.000Z</time>
      </trkpt>
      <trkpt lat="44.54499" lon="4.22781">
        <ele>603</ele>
        <time>2018-06-03T07:13:00.000Z</time>
      </trkpt>
      <trkpt lat="44.54499" lon="4.22784">
        <ele>603</ele>
        <time>2018-06-03T07:13:01.000Z</time>
      </trkpt>
      <trkpt lat="44.54499" lon="4.22787">
        <ele>603</ele>
        <time>2018-06-03T07:13:02.000Z</time>
      </trkpt>
      <trkpt lat="44.54499" lon="4.2279">
        <ele>603</ele>
        <time>2018-06-03T07:13:03.000Z</time>
      </trkpt>
      <trkpt lat="44.545" lon="4.22793">
        <ele>603</ele>
        <time>2018-06-03T07:13:04.000Z</time>
      </trkpt>
      <trkpt lat="44.545" lon="4.22796">
        <ele>621</ele>
        <time>2018-06-03T07:13:05.000Z</time>
      </trkpt>
      <trkpt lat="44.54501" lon="4.22799">
        <ele>621</ele>
        <time>2018-06-03T07:13:06.000Z</time>
      </trkpt>
      <trkpt lat="44.54501" lon="4.22802">
        <ele>621</ele>
        <time>2018-06-03T07:13:07.000Z</time>
      </trkpt>
      <trkpt lat="44.54501" lon="4.22806">
        <ele>620</ele>
        <time>2018-06-03T07:13:08.000Z</time>
      </trkpt>
      <trkpt lat="44.54502" lon="4.2281">
        <ele>620</ele>
        <time>2018-06-03T07:13:09.000Z</time>
      </trkpt>
      <trkpt lat="44.54502" lon="4.22813">
        <ele>619</ele>
        <time>2018-06-03T07:13:10.000Z</time>
      </trkpt>
      <trkpt lat="44.54502" lon="4.22817">
        <ele>618</ele>
        <time>2018-06-03T07:13:11.000Z</time>
      </trkpt>
      <trkpt lat="44.54503" lon="4.22821">
        <ele>617</ele>
        <time>2018-06-03T07:13:12.000Z</time>
      </trkpt>
      <trkpt lat="44.54503" lon="4.22824">
        <ele>616</ele>
        <time>2018-06-03T07:13:13.000Z</time>
      </trkpt>
      <trkpt lat="44.54503" lon="4.22828">
        <ele>614</ele>
        <time>2018-06-03T07:13:14.000Z</time>
      </trkpt>
      <trkpt lat="44.54504" lon="4.22832">
        <ele>613</ele>
        <time>2018-06-03T07:13:15.000Z</time>
      </trkpt>
      <trkpt lat="44.54505" lon="4.22836">
        <ele>614</ele>
        <time>2018-06-03T07:13:16.000Z</time>
      </trkpt>
      <trkpt lat="44.54506" lon="4.22839">
        <ele>615</ele>
        <time>2018-06-03T07:13:17.000Z</time>
      </trkpt>
      <trkpt lat="44.54507" lon="4.22843">
        <ele>616</ele>
        <time>2018-06-03T07:13:18.000Z</time>
      </trkpt>
      <trkpt lat="44.54508" lon="4.22846">
        <ele>617</ele>
        <time>2018-06-03T07:13:19.000Z</time>
      </trkpt>
      <trkpt lat="44.54509" lon="4.22848">
        <ele>617</ele>
        <time>2018-06-03T07:13:20.000Z</time>
      </trkpt>
      <trkpt lat="44.5451" lon="4.2285">
        <ele>618</ele>
        <time>2018-06-03T07:13:21.000Z</time>
      </trkpt>
      <trkpt lat="44.54511" lon="4.22851">
        <ele>618</ele>
        <time>2018-06-03T07:13:22.000Z</time>
      </trkpt>
      <trkpt lat="44.54513" lon="4.22853">
        <ele>619</ele>
        <time>2018-06-03T07:13:23.000Z</time>
      </trkpt>
      <trkpt lat="44.54514" lon="4.22855">
        <ele>619</ele>
        <time>2018-06-03T07:13:24.000Z</time>
      </trkpt>
      <trkpt lat="44.54515" lon="4.22857">
        <ele>619</ele>
        <time>2018-06-03T07:13:25.000Z</time>
      </trkpt>
      <trkpt lat="44.54516" lon="4.22858">
        <ele>620</ele>
        <time>2018-06-03T07:13:26.000Z</time>
      </trkpt>
      <trkpt lat="44.54517" lon="4.2286">
        <ele>620</ele>
        <time>2018-06-03T07:13:27.000Z</time>
      </trkpt>
      <trkpt lat="44.54517" lon="4.22862">
        <ele>620</ele>
        <time>2018-06-03T07:13:28.000Z</time>
      </trkpt>
      <trkpt lat="44.54518" lon="4.22865">
        <ele>620</ele>
        <time>2018-06-03T07:13:29.000Z</time>
      </trkpt>
      <trkpt lat="44.54518" lon="4.22868">
        <ele>620</ele>
        <time>2018-06-03T07:13:30.000Z</time>
      </trkpt>
      <trkpt lat="44.54518" lon="4.22872">
        <ele>620</ele>
        <time>2018-06-03T07:13:31.000Z</time>
      </trkpt>
      <trkpt lat="44.54518" lon="4.22876">
        <ele>620</ele>
        <time>2018-06-03T07:13:32.000Z</time>
      </trkpt>
      <trkpt lat="44.54518" lon="4.22881">
        <ele>620</ele>
        <time>2018-06-03T07:13:33.000Z</time>
      </trkpt>
      <trkpt lat="44.54517" lon="4.22885">
        <ele>620</ele>
        <time>2018-06-03T07:13:34.000Z</time>
      </trkpt>
      <trkpt lat="44.54517" lon="4.22889">
        <ele>620</ele>
        <time>2018-06-03T07:13:35.000Z</time>
      </trkpt>
      <trkpt lat="44.54516" lon="4.22894">
        <ele>619</ele>
        <time>2018-06-03T07:13:36.000Z</time>
      </trkpt>
      <trkpt lat="44.54515" lon="4.22898">
        <ele>618</ele>
        <time>2018-06-03T07:13:37.000Z</time>
      </trkpt>
      <trkpt lat="44.54513" lon="4.22902">
        <ele>618</ele>
        <time>2018-06-03T07:13:38.000Z</time>
      </trkpt>
      <trkpt lat="44.54512" lon="4.22906">
        <ele>617</ele>
        <time>2018-06-03T07:13:39.000Z</time>
      </trkpt>
      <trkpt lat="44.54511" lon="4.22911">
        <ele>616</ele>
        <time>2018-06-03T07:13:40.000Z</time>
      </trkpt>
      <trkpt lat="44.54509" lon="4.22915">
        <ele>615</ele>
        <time>2018-06-03T07:13:41.000Z</time>
      </trkpt>
      <trkpt lat="44.54508" lon="4.2292">
        <ele>613</ele>
        <time>2018-06-03T07:13:42.000Z</time>
      </trkpt>
      <trkpt lat="44.54506" lon="4.22924">
        <ele>613</ele>
        <time>2018-06-03T07:13:43.000Z</time>
      </trkpt>
      <trkpt lat="44.54505" lon="4.22929">
        <ele>613</ele>
        <time>2018-06-03T07:13:44.000Z</time>
      </trkpt>
      <trkpt lat="44.54504" lon="4.22933">
        <ele>613</ele>
        <time>2018-06-03T07:13:45.000Z</time>
      </trkpt>
      <trkpt lat="44.54503" lon="4.22938">
        <ele>613</ele>
        <time>2018-06-03T07:13:46.000Z</time>
      </trkpt>
      <trkpt lat="44.54502" lon="4.22942">
        <ele>614</ele>
        <time>2018-06-03T07:13:47.000Z</time>
      </trkpt>
      <trkpt lat="44.545" lon="4.22945">
        <ele>614</ele>
        <time>2018-06-03T07:13:48.000Z</time>
      </trkpt>
      <trkpt lat="44.545" lon="4.22948">
        <ele>614</ele>
        <time>2018-06-03T07:13:49.000Z</time>
      </trkpt>
      <trkpt lat="44.545" lon="4.22951">
        <ele>602</ele>
        <time>2018-06-03T07:13:50.000Z</time>
      </trkpt>
      <trkpt lat="44.545" lon="4.22953">
        <ele>602</ele>
        <time>2018-06-03T07:13:51.000Z</time>
      </trkpt>
      <trkpt lat="44.545" lon="4.22957">
        <ele>613</ele>
        <time>2018-06-03T07:13:52.000Z</time>
      </trkpt>
      <trkpt lat="44.54501" lon="4.22962">
        <ele>613</ele>
        <time>2018-06-03T07:13:53.000Z</time>
      </trkpt>
      <trkpt lat="44.54502" lon="4.22967">
        <ele>613</ele>
        <time>2018-06-03T07:13:54.000Z</time>
      </trkpt>
      <trkpt lat="44.54503" lon="4.22973">
        <ele>613</ele>
        <time>2018-06-03T07:13:55.000Z</time>
      </trkpt>
      <trkpt lat="44.54504" lon="4.22977">
        <ele>612</ele>
        <time>2018-06-03T07:13:56.000Z</time>
      </trkpt>
      <trkpt lat="44.54505" lon="4.22982">
        <ele>612</ele>
        <time>2018-06-03T07:13:57.000Z</time>
      </trkpt>
      <trkpt lat="44.54506" lon="4.22987">
        <ele>611</ele>
        <time>2018-06-03T07:13:58.000Z</time>
      </trkpt>
      <trkpt lat="44.54508" lon="4.22992">
        <ele>611</ele>
        <time>2018-06-03T07:13:59.000Z</time>
      </trkpt>
      <trkpt lat="44.54511" lon="4.22996">
        <ele>611</ele>
        <time>2018-06-03T07:14:00.000Z</time>
      </trkpt>
      <trkpt lat="44.54513" lon="4.22999">
        <ele>611</ele>
        <time>2018-06-03T07:14:01.000Z</time>
      </trkpt>
      <trkpt lat="44.54515" lon="4.23001">
        <ele>605</ele>
        <time>2018-06-03T07:14:02.000Z</time>
      </trkpt>
      <trkpt lat="44.54517" lon="4.23003">
        <ele>605</ele>
        <time>2018-06-03T07:14:03.000Z</time>
      </trkpt>
      <trkpt lat="44.54519" lon="4.23003">
        <ele>605</ele>
        <time>2018-06-03T07:14:04.000Z</time>
      </trkpt>
      <trkpt lat="44.54521" lon="4.23004">
        <ele>605</ele>
        <time>2018-06-03T07:14:05.000Z</time>
      </trkpt>
      <trkpt lat="44.54523" lon="4.23005">
        <ele>605</ele>
        <time>2018-06-03T07:14:06.000Z</time>
      </trkpt>
      <trkpt lat="44.54524" lon="4.23006">
        <ele>605</ele>
        <time>2018-06-03T07:14:07.000Z</time>
      </trkpt>
      <trkpt lat="44.54525" lon="4.23006">
        <ele>605</ele>
        <time>2018-06-03T07:14:08.000Z</time>
      </trkpt>
      <trkpt lat="44.54525" lon="4.23007">
        <ele>605</ele>
        <time>2018-06-03T07:14:09.000Z</time>
      </trkpt>
      <trkpt lat="44.54525" lon="4.23007">
        <ele>605</ele>
        <time>2018-06-03T07:14:10.000Z</time>
      </trkpt>
      <trkpt lat="44.54525" lon="4.23008">
        <ele>605</ele>
        <time>2018-06-03T07:14:11.000Z</time>
      </trkpt>
      <trkpt lat="44.54525" lon="4.23009">
        <ele>604</ele>
        <time>2018-06-03T07:14:12.000Z</time>
      </trkpt>
      <trkpt lat="44.54525" lon="4.23009">
        <ele>604</ele>
        <time>2018-06-03T07:14:13.000Z</time>
      </trkpt>
      <trkpt lat="44.54525" lon="4.2301">
        <ele>604</ele>
        <time>2018-06-03T07:14:14.000Z</time>
      </trkpt>
      <trkpt lat="44.54525" lon="4.2301">
        <ele>604</ele>
        <time>2018-06-03T07:14:15.000Z</time>
      </trkpt>
      <trkpt lat="44.54525" lon="4.23011">
        <ele>604</ele>
        <time>2018-06-03T07:14:16.000Z</time>
      </trkpt>
      <trkpt lat="44.54525" lon="4.23011">
        <ele>604</ele>
        <time>2018-06-03T07:14:17.000Z</time>
      </trkpt>
      <trkpt lat="44.54526" lon="4.23012">
        <ele>604</ele>
        <time>2018-06-03T07:14:18.000Z</time>
      </trkpt>
      <trkpt lat="44.54526" lon="4.23012">
        <ele>604</ele>
        <time>2018-06-03T07:14:19.000Z</time>
      </trkpt>
      <trkpt lat="44.54526" lon="4.23013">
        <ele>604</ele>
        <time>2018-06-03T07:14:20.000Z</time>
      </trkpt>
      <trkpt lat="44.54526" lon="4.23013">
        <ele>604</ele>
        <time>2018-06-03T07:14:21.000Z</time>
      </trkpt>
      <trkpt lat="44.54526" lon="4.23013">
        <ele>604</ele>
        <time>2018-06-03T07:14:22.000Z</time>
      </trkpt>
      <trkpt lat="44.54526" lon="4.23014">
        <ele>604</ele>
        <time>2018-06-03T07:14:23.000Z</time>
      </trkpt>
      <trkpt lat="44.54526" lon="4.23014">
        <ele>604</ele>
        <time>2018-06-03T07:14:24.000Z</time>
      </trkpt>
      <trkpt lat="44.54526" lon="4.23014">
        <ele>604</ele>
        <time>2018-06-03T07:14:25.000Z</time>
      </trkpt>
      <trkpt lat="44.54526" lon="4.23015">
        <ele>604</ele>
        <time>2018-06-03T07:14:26.000Z</time>
      </trkpt>
      <trkpt lat="44.54526" lon="4.23015">
        <ele>604</ele>
        <time>2018-06-03T07:14:27.000Z</time>
      </trkpt>
      <trkpt lat="44.54526" lon="4.23015">
        <ele>604</ele>
        <time>2018-06-03T07:14:28.000Z</time>
      </trkpt>
      <trkpt lat="44.54526" lon="4.23015">
        <ele>604</ele>
        <time>2018-06-03T07:14:29.000Z</time>
      </trkpt>
      <trkpt lat="44.54526" lon="4.23016">
        <ele>604</ele>
        <time>2018-06-03T07:14:30.000Z</time>
      </trkpt>
      <trkpt lat="44.54526" lon="4.23016">
        <ele>604</ele>
        <time>2018-06-03T07:14:31.000Z</time>
      </trkpt>
      <trkpt lat="44.54526" lon="4.23016">
        <ele>604</ele>
        <time>2018-06-03T07:14:32.000Z</time>
      </trkpt>
      <trkpt lat="44.54526" lon="4.23017">
        <ele>604</ele>
        <time>2018-06-03T07:14:33.000Z</time>
      </trkpt>
      <trkpt lat="44.54526" lon="4.23017">
        <ele>604</ele>
        <time>2018-06-03T07:14:34.000Z</time>
      </trkpt>
      <trkpt lat="44.54526" lon="4.23017">
        <ele>604</ele>
        <time>2018-06-03T07:14:35.000Z</time>
      </trkpt>
      <trkpt lat="44.54526" lon="4.23018">
        <ele>604</ele>
        <time>2018-06-03T07:14:36.000Z</time>
      </trkpt>
      <trkpt lat="44.54526" lon="4.23018">
        <ele>604</ele>
        <time>2018-06-03T07:14:37.000Z</time>
      </trkpt>
      <trkpt lat="44.54527" lon="4.23018">
        <ele>604</ele>
        <time>2018-06-03T07:14:38.000Z</time>
      </trkpt>
      <trkpt lat="44.54527" lon="4.23019">
        <ele>604</ele>
        <time>2018-06-03T07:14:39.000Z</time>
      </trkpt>
      <trkpt lat="44.54527" lon="4.23019">
        <ele>604</ele>
        <time>2018-06-03T07:14:40.000Z</time>
      </trkpt>
      <trkpt lat="44.54527" lon="4.23019">
        <ele>604</ele>
        <time>2018-06-03T07:14:41.000Z</time>
      </trkpt>
      <trkpt lat="44.54527" lon="4.23019">
        <ele>604</ele>
        <time>2018-06-03T07:14:42.000Z</time>
      </trkpt>
      <trkpt lat="44.54527" lon="4.2302">
        <ele>604</ele>
        <time>2018-06-03T07:14:43.000Z</time>
      </trkpt>
      <trkpt lat="44.54527" lon="4.2302">
        <ele>604</ele>
        <time>2018-06-03T07:14:44.000Z</time>
      </trkpt>
      <trkpt lat="44.54527" lon="4.2302">
        <ele>604</ele>
        <time>2018-06-03T07:14:45.000Z</time>
      </trkpt>
      <trkpt lat="44.54527" lon="4.23021">
        <ele>603</ele>
        <time>2018-06-03T07:14:46.000Z</time>
      </trkpt>
      <trkpt lat="44.54527" lon="4.23021">
        <ele>603</ele>
        <time>2018-06-03T07:14:47.000Z</time>
      </trkpt>
      <trkpt lat="44.54527" lon="4.23021">
        <ele>603</ele>
        <time>2018-06-03T07:14:48.000Z</time>
      </trkpt>
      <trkpt lat="44.54527" lon="4.23021">
        <ele>603</ele>
        <time>2018-06-03T07:14:49.000Z</time>
      </trkpt>
      <trkpt lat="44.54527" lon="4.23022">
        <ele>603</ele>
        <time>2018-06-03T07:14:50.000Z</time>
      </trkpt>
      <trkpt lat="44.54527" lon="4.23022">
        <ele>603</ele>
        <time>2018-06-03T07:14:51.000Z</time>
      </trkpt>
      <trkpt lat="44.54527" lon="4.23022">
        <ele>603</ele>
        <time>2018-06-03T07:14:52.000Z</time>
      </trkpt>
      <trkpt lat="44.54527" lon="4.23023">
        <ele>603</ele>
        <time>2018-06-03T07:14:53.000Z</time>
      </trkpt>
      <trkpt lat="44.54527" lon="4.23023">
        <ele>603</ele>
        <time>2018-06-03T07:14:54.000Z</time>
      </trkpt>
      <trkpt lat="44.54527" lon="4.23023">
        <ele>603</ele>
        <time>2018-06-03T07:14:55.000Z</time>
      </trkpt>
      <trkpt lat="44.54526" lon="4.23023">
        <ele>603</ele>
        <time>2018-06-03T07:14:56.000Z</time>
      </trkpt>
      <trkpt lat="44.54526" lon="4.23024">
        <ele>603</ele>
        <time>2018-06-03T07:14:57.000Z</time>
      </trkpt>
      <trkpt lat="44.54526" lon="4.23024">
        <ele>603</ele>
        <time>2018-06-03T07:14:58.000Z</time>
      </trkpt>
      <trkpt lat="44.54526" lon="4.23024">
        <ele>603</ele>
        <time>2018-06-03T07:14:59.000Z</time>
      </trkpt>
      <trkpt lat="44.54526" lon="4.23024">
        <ele>603</ele>
        <time>2018-06-03T07:15:00.000Z</time>
      </trkpt>
      <trkpt lat="44.54526" lon="4.23024">
        <ele>603</ele>
        <time>2018-06-03T07:15:01.000Z</time>
      </trkpt>
      <trkpt lat="44.54526" lon="4.23025">
        <ele>603</ele>
        <time>2018-06-03T07:15:02.000Z</time>
      </trkpt>
      <trkpt lat="44.54526" lon="4.23025">
        <ele>603</ele>
        <time>2018-06-03T07:15:03.000Z</time>
      </trkpt>
      <trkpt lat="44.54526" lon="4.23025">
        <ele>603</ele>
        <time>2018-06-03T07:15:04.000Z</time>
      </trkpt>
      <trkpt lat="44.54526" lon="4.23025">
        <ele>603</ele>
        <time>2018-06-03T07:15:05.000Z</time>
      </trkpt>
      <trkpt lat="44.54526" lon="4.23025">
        <ele>603</ele>
        <time>2018-06-03T07:15:06.000Z</time>
      </trkpt>
      <trkpt lat="44.54526" lon="4.23025">
        <ele>603</ele>
        <time>2018-06-03T07:15:07.000Z</time>
      </trkpt>
      <trkpt lat="44.54526" lon="4.23025">
        <ele>603</ele>
        <time>2018-06-03T07:15:08.000Z</time>
      </trkpt>
      <trkpt lat="44.54526" lon="4.23025">
        <ele>603</ele>
        <time>2018-06-03T07:15:09.000Z</time>
      </trkpt>
      <trkpt lat="44.54525" lon="4.23025">
        <ele>603</ele>
        <time>2018-06-03T07:15:10.000Z</time>
      </trkpt>
      <trkpt lat="44.54525" lon="4.23025">
        <ele>603</ele>
        <time>2018-06-03T07:15:11.000Z</time>
      </trkpt>
      <trkpt lat="44.54525" lon="4.23025">
        <ele>603</ele>
        <time>2018-06-03T07:15:12.000Z</time>
      </trkpt>
      <trkpt lat="44.54525" lon="4.23025">
        <ele>603</ele>
        <time>2018-06-03T07:15:13.000Z</time>
      </trkpt>
      <trkpt lat="44.54525" lon="4.23025">
        <ele>603</ele>
        <time>2018-06-03T07:15:14.000Z</time>
      </trkpt>
      <trkpt lat="44.54525" lon="4.23025">
        <ele>603</ele>
        <time>2018-06-03T07:15:15.000Z</time>
      </trkpt>
      <trkpt lat="44.54525" lon="4.23025">
        <ele>603</ele>
        <time>2018-06-03T07:15:16.000Z</time>
      </trkpt>
      <trkpt lat="44.54525" lon="4.23025">
        <ele>603</ele>
        <time>2018-06-03T07:15:17.000Z</time>
      </trkpt>
      <trkpt lat="44.54525" lon="4.23025">
        <ele>603</ele>
        <time>2018-06-03T07:15:18.000Z</time>
      </trkpt>
      <trkpt lat="44.54525" lon="4.23025">
        <ele>603</ele>
        <time>2018-06-03T07:15:19.000Z</time>
      </trkpt>
      <trkpt lat="44.54525" lon="4.23025">
        <ele>603</ele>
        <time>2018-06-03T07:15:20.000Z</time>
      </trkpt>
      <trkpt lat="44.54525" lon="4.23025">
        <ele>603</ele>
        <time>2018-06-03T07:15:21.000Z</time>
      </trkpt>
      <trkpt lat="44.54525" lon="4.23025">
        <ele>603</ele>
        <time>2018-06-03T07:15:22.000Z</time>
      </trkpt>
      <trkpt lat="44.54525" lon="4.23025">
        <ele>603</ele>
        <time>2018-06-03T07:15:23.000Z</time>
      </trkpt>
      <trkpt lat="44.54525" lon="4.23025">
        <ele>603</ele>
        <time>2018-06-03T07:15:24.000Z</time>
      </trkpt>
      <trkpt lat="44.54525" lon="4.23025">
        <ele>603</ele>
        <time>2018-06-03T07:15:25.000Z</time>
      </trkpt>
      <trkpt lat="44.54525" lon="4.23026">
        <ele>603</ele>
        <time>2018-06-03T07:15:26.000Z</time>
      </trkpt>
      <trkpt lat="44.54525" lon="4.23026">
        <ele>603</ele>
        <time>2018-06-03T07:15:27.000Z</time>
      </trkpt>
      <trkpt lat="44.54525" lon="4.23026">
        <ele>603</ele>
        <time>2018-06-03T07:15:28.000Z</time>
      </trkpt>
      <trkpt lat="44.54525" lon="4.23026">
        <ele>603</ele>
        <time>2018-06-03T07:15:29.000Z</time>
      </trkpt>
      <trkpt lat="44.54525" lon="4.23026">
        <ele>603</ele>
        <time>2018-06-03T07:15:30.000Z</time>
      </trkpt>
      <trkpt lat="44.54525" lon="4.23026">
        <ele>603</ele>
        <time>2018-06-03T07:15:31.000Z</time>
      </trkpt>
      <trkpt lat="44.54525" lon="4.23026">
        <ele>603</ele>
        <time>2018-06-03T07:15:32.000Z</time>
      </trkpt>
      <trkpt lat="44.54524" lon="4.23026">
        <ele>603</ele>
        <time>2018-06-03T07:15:33.000Z</time>
      </trkpt>
      <trkpt lat="44.54524" lon="4.23026">
        <ele>603</ele>
        <time>2018-06-03T07:15:34.000Z</time>
      </trkpt>
      <trkpt lat="44.54524" lon="4.23026">
        <ele>603</ele>
        <time>2018-06-03T07:15:35.000Z</time>
      </trkpt>
      <trkpt lat="44.54524" lon="4.23026">
        <ele>603</ele>
        <time>2018-06-03T07:15:36.000Z</time>
      </trkpt>
      <trkpt lat="44.54524" lon="4.23026">
        <ele>603</ele>
        <time>2018-06-03T07:15:37.000Z</time>
      </trkpt>
      <trkpt lat="44.54524" lon="4.23026">
        <ele>603</ele>
        <time>2018-06-03T07:15:38.000Z</time>
      </trkpt>
      <trkpt lat="44.54524" lon="4.23026">
        <ele>603</ele>
        <time>2018-06-03T07:15:39.000Z</time>
      </trkpt>
      <trkpt lat="44.54524" lon="4.23027">
        <ele>603</ele>
        <time>2018-06-03T07:15:40.000Z</time>
      </trkpt>
      <trkpt lat="44.54524" lon="4.23027">
        <ele>603</ele>
        <time>2018-06-03T07:15:41.000Z</time>
      </trkpt>
      <trkpt lat="44.54524" lon="4.23027">
        <ele>603</ele>
        <time>2018-06-03T07:15:42.000Z</time>
      </trkpt>
      <trkpt lat="44.54524" lon="4.23027">
        <ele>603</ele>
        <time>2018-06-03T07:15:43.000Z</time>
      </trkpt>
      <trkpt lat="44.54524" lon="4.23027">
        <ele>603</ele>
        <time>2018-06-03T07:15:44.000Z</time>
      </trkpt>
      <trkpt lat="44.54524" lon="4.23027">
        <ele>603</ele>
        <time>2018-06-03T07:15:45.000Z</time>
      </trkpt>
      <trkpt lat="44.54524" lon="4.23027">
        <ele>603</ele>
        <time>2018-06-03T07:15:46.000Z</time>
      </trkpt>
      <trkpt lat="44.54524" lon="4.23027">
        <ele>603</ele>
        <time>2018-06-03T07:15:47.000Z</time>
      </trkpt>
      <trkpt lat="44.54524" lon="4.23027">
        <ele>603</ele>
        <time>2018-06-03T07:15:48.000Z</time>
      </trkpt>
      <trkpt lat="44.54524" lon="4.23027">
        <ele>603</ele>
        <time>2018-06-03T07:15:49.000Z</time>
      </trkpt>
      <trkpt lat="44.54523" lon="4.23027">
        <ele>603</ele>
        <time>2018-06-03T07:15:50.000Z</time>
      </trkpt>
      <trkpt lat="44.54523" lon="4.23027">
        <ele>603</ele>
        <time>2018-06-03T07:15:51.000Z</time>
      </trkpt>
      <trkpt lat="44.54523" lon="4.23027">
        <ele>603</ele>
        <time>2018-06-03T07:15:52.000Z</time>
      </trkpt>
      <trkpt lat="44.54523" lon="4.23027">
        <ele>603</ele>
        <time>2018-06-03T07:15:53.000Z</time>
      </trkpt>
      <trkpt lat="44.54523" lon="4.23027">
        <ele>603</ele>
        <time>2018-06-03T07:15:54.000Z</time>
      </trkpt>
      <trkpt lat="44.54523" lon="4.23027">
        <ele>603</ele>
        <time>2018-06-03T07:15:55.000Z</time>
      </trkpt>
      <trkpt lat="44.54523" lon="4.23027">
        <ele>603</ele>
        <time>2018-06-03T07:15:56.000Z</time>
      </trkpt>
      <trkpt lat="44.54523" lon="4.23026">
        <ele>603</ele>
        <time>2018-06-03T07:15:57.000Z</time>
      </trkpt>
      <trkpt lat="44.54523" lon="4.23026">
        <ele>603</ele>
        <time>2018-06-03T07:15:58.000Z</time>
      </trkpt>
      <trkpt lat="44.54523" lon="4.23026">
        <ele>603</ele>
        <time>2018-06-03T07:15:59.000Z</time>
      </trkpt>
      <trkpt lat="44.54523" lon="4.23026">
        <ele>603</ele>
        <time>2018-06-03T07:16:00.000Z</time>
      </trkpt>
      <trkpt lat="44.54523" lon="4.23026">
        <ele>603</ele>
        <time>2018-06-03T07:16:01.000Z</time>
      </trkpt>
      <trkpt lat="44.54523" lon="4.23026">
        <ele>603</ele>
        <time>2018-06-03T07:16:02.000Z</time>
      </trkpt>
      <trkpt lat="44.54523" lon="4.23026">
        <ele>603</ele>
        <time>2018-06-03T07:16:03.000Z</time>
      </trkpt>
      <trkpt lat="44.54523" lon="4.23026">
        <ele>603</ele>
        <time>2018-06-03T07:16:04.000Z</time>
      </trkpt>
      <trkpt lat="44.54523" lon="4.23026">
        <ele>603</ele>
        <time>2018-06-03T07:16:05.000Z</time>
      </trkpt>
      <trkpt lat="44.54523" lon="4.23025">
        <ele>603</ele>
        <time>2018-06-03T07:16:06.000Z</time>
      </trkpt>
      <trkpt lat="44.54523" lon="4.23025">
        <ele>603</ele>
        <time>2018-06-03T07:16:07.000Z</time>
      </trkpt>
      <trkpt lat="44.54523" lon="4.23025">
        <ele>603</ele>
        <time>2018-06-03T07:16:08.000Z</time>
      </trkpt>
      <trkpt lat="44.54523" lon="4.23025">
        <ele>603</ele>
        <time>2018-06-03T07:16:09.000Z</time>
      </trkpt>
      <trkpt lat="44.54523" lon="4.23025">
        <ele>603</ele>
        <time>2018-06-03T07:16:10.000Z</time>
      </trkpt>
      <trkpt lat="44.54523" lon="4.23025">
        <ele>603</ele>
        <time>2018-06-03T07:16:11.000Z</time>
      </trkpt>
      <trkpt lat="44.54523" lon="4.23024">
        <ele>603</ele>
        <time>2018-06-03T07:16:12.000Z</time>
      </trkpt>
      <trkpt lat="44.54523" lon="4.23024">
        <ele>603</ele>
        <time>2018-06-03T07:16:13.000Z</time>
      </trkpt>
      <trkpt lat="44.54523" lon="4.23024">
        <ele>603</ele>
        <time>2018-06-03T07:16:14.000Z</time>
      </trkpt>
      <trkpt lat="44.54523" lon="4.23024">
        <ele>603</ele>
        <time>2018-06-03T07:16:15.000Z</time>
      </trkpt>
      <trkpt lat="44.54523" lon="4.23024">
        <ele>603</ele>
        <time>2018-06-03T07:16:16.000Z</time>
      </trkpt>
      <trkpt lat="44.54522" lon="4.23023">
        <ele>603</ele>
        <time>2018-06-03T07:16:17.000Z</time>
      </trkpt>
      <trkpt lat="44.54522" lon="4.23023">
        <ele>603</ele>
        <time>2018-06-03T07:16:18.000Z</time>
      </trkpt>
      <trkpt lat="44.54522" lon="4.23023">
        <ele>603</ele>
        <time>2018-06-03T07:16:19.000Z</time>
      </trkpt>
      <trkpt lat="44.54522" lon="4.23023">
        <ele>603</ele>
        <time>2018-06-03T07:16:20.000Z</time>
      </trkpt>
      <trkpt lat="44.54522" lon="4.23023">
        <ele>603</ele>
        <time>2018-06-03T07:16:21.000Z</time>
      </trkpt>
      <trkpt lat="44.54522" lon="4.23022">
        <ele>603</ele>
        <time>2018-06-03T07:16:22.000Z</time>
      </trkpt>
      <trkpt lat="44.54522" lon="4.23022">
        <ele>603</ele>
        <time>2018-06-03T07:16:23.000Z</time>
      </trkpt>
      <trkpt lat="44.54522" lon="4.23022">
        <ele>603</ele>
        <time>2018-06-03T07:16:24.000Z</time>
      </trkpt>
      <trkpt lat="44.54522" lon="4.23022">
        <ele>603</ele>
        <time>2018-06-03T07:16:25.000Z</time>
      </trkpt>
      <trkpt lat="44.54522" lon="4.23022">
        <ele>603</ele>
        <time>2018-06-03T07:16:26.000Z</time>
      </trkpt>
      <trkpt lat="44.54522" lon="4.23021">
        <ele>603</ele>
        <time>2018-06-03T07:16:27.000Z</time>
      </trkpt>
      <trkpt lat="44.54521" lon="4.23021">
        <ele>603</ele>
        <time>2018-06-03T07:16:28.000Z</time>
      </trkpt>
      <trkpt lat="44.54521" lon="4.23021">
        <ele>604</ele>
        <time>2018-06-03T07:16:29.000Z</time>
      </trkpt>
      <trkpt lat="44.54521" lon="4.23021">
        <ele>604</ele>
        <time>2018-06-03T07:16:30.000Z</time>
      </trkpt>
      <trkpt lat="44.54521" lon="4.23021">
        <ele>604</ele>
        <time>2018-06-03T07:16:31.000Z</time>
      </trkpt>
      <trkpt lat="44.54521" lon="4.23021">
        <ele>604</ele>
        <time>2018-06-03T07:16:32.000Z</time>
      </trkpt>
      <trkpt lat="44.54521" lon="4.23021">
        <ele>604</ele>
        <time>2018-06-03T07:16:33.000Z</time>
      </trkpt>
      <trkpt lat="44.54521" lon="4.2302">
        <ele>604</ele>
        <time>2018-06-03T07:16:34.000Z</time>
      </trkpt>
      <trkpt lat="44.54521" lon="4.2302">
        <ele>604</ele>
        <time>2018-06-03T07:16:35.000Z</time>
      </trkpt>
      <trkpt lat="44.54521" lon="4.2302">
        <ele>604</ele>
        <time>2018-06-03T07:16:36.000Z</time>
      </trkpt>
      <trkpt lat="44.54521" lon="4.2302">
        <ele>604</ele>
        <time>2018-06-03T07:16:37.000Z</time>
      </trkpt>
      <trkpt lat="44.54521" lon="4.2302">
        <ele>604</ele>
        <time>2018-06-03T07:16:38.000Z</time>
      </trkpt>
      <trkpt lat="44.54521" lon="4.2302">
        <ele>604</ele>
        <time>2018-06-03T07:16:39.000Z</time>
      </trkpt>
      <trkpt lat="44.54521" lon="4.2302">
        <ele>604</ele>
        <time>2018-06-03T07:16:40.000Z</time>
      </trkpt>
      <trkpt lat="44.54521" lon="4.2302">
        <ele>604</ele>
        <time>2018-06-03T07:16:41.000Z</time>
      </trkpt>
      <trkpt lat="44.54521" lon="4.23019">
        <ele>604</ele>
        <time>2018-06-03T07:16:42.000Z</time>
      </trkpt>
      <trkpt lat="44.54521" lon="4.23019">
        <ele>604</ele>
        <time>2018-06-03T07:16:43.000Z</time>
      </trkpt>
      <trkpt lat="44.54521" lon="4.23019">
        <ele>604</ele>
        <time>2018-06-03T07:16:44.000Z</time>
      </trkpt>
      <trkpt lat="44.54521" lon="4.23019">
        <ele>604</ele>
        <time>2018-06-03T07:16:45.000Z</time>
      </trkpt>
      <trkpt lat="44.54521" lon="4.23019">
        <ele>604</ele>
        <time>2018-06-03T07:16:46.000Z</time>
      </trkpt>
      <trkpt lat="44.54521" lon="4.23019">
        <ele>604</ele>
        <time>2018-06-03T07:16:47.000Z</time>
      </trkpt>
      <trkpt lat="44.54521" lon="4.23019">
        <ele>604</ele>
        <time>2018-06-03T07:16:48.000Z</time>
      </trkpt>
      <trkpt lat="44.5452" lon="4.23019">
        <ele>604</ele>
        <time>2018-06-03T07:16:49.000Z</time>
      </trkpt>
      <trkpt lat="44.5452" lon="4.23019">
        <ele>604</ele>
        <time>2018-06-03T07:16:50.000Z</time>
      </trkpt>
      <trkpt lat="44.5452" lon="4.23019">
        <ele>604</ele>
        <time>2018-06-03T07:16:51.000Z</time>
      </trkpt>
      <trkpt lat="44.5452" lon="4.23019">
        <ele>604</ele>
        <time>2018-06-03T07:16:52.000Z</time>
      </trkpt>
      <trkpt lat="44.5452" lon="4.23019">
        <ele>604</ele>
        <time>2018-06-03T07:16:53.000Z</time>
      </trkpt>
      <trkpt lat="44.5452" lon="4.23019">
        <ele>604</ele>
        <time>2018-06-03T07:16:54.000Z</time>
      </trkpt>
      <trkpt lat="44.5452" lon="4.23019">
        <ele>604</ele>
        <time>2018-06-03T07:16:55.000Z</time>
      </trkpt>
      <trkpt lat="44.5452" lon="4.23019">
        <ele>604</ele>
        <time>2018-06-03T07:16:56.000Z</time>
      </trkpt>
      <trkpt lat="44.5452" lon="4.23019">
        <ele>604</ele>
        <time>2018-06-03T07:16:57.000Z</time>
      </trkpt>
      <trkpt lat="44.5452" lon="4.23019">
        <ele>604</ele>
        <time>2018-06-03T07:16:58.000Z</time>
      </trkpt>
      <trkpt lat="44.5452" lon="4.23019">
        <ele>604</ele>
        <time>2018-06-03T07:16:59.000Z</time>
      </trkpt>
      <trkpt lat="44.5452" lon="4.23019">
        <ele>604</ele>
        <time>2018-06-03T07:17:00.000Z</time>
      </trkpt>
      <trkpt lat="44.5452" lon="4.23019">
        <ele>604</ele>
        <time>2018-06-03T07:17:01.000Z</time>
      </trkpt>
      <trkpt lat="44.5452" lon="4.23019">
        <ele>604</ele>
        <time>2018-06-03T07:17:02.000Z</time>
      </trkpt>
      <trkpt lat="44.5452" lon="4.23019">
        <ele>604</ele>
        <time>2018-06-03T07:17:03.000Z</time>
      </trkpt>
      <trkpt lat="44.5452" lon="4.23019">
        <ele>604</ele>
        <time>2018-06-03T07:17:04.000Z</time>
      </trkpt>
      <trkpt lat="44.5452" lon="4.23019">
        <ele>604</ele>
        <time>2018-06-03T07:17:05.000Z</time>
      </trkpt>
      <trkpt lat="44.5452" lon="4.23019">
        <ele>604</ele>
        <time>2018-06-03T07:17:06.000Z</time>
      </trkpt>
      <trkpt lat="44.5452" lon="4.23019">
        <ele>604</ele>
        <time>2018-06-03T07:17:07.000Z</time>
      </trkpt>
      <trkpt lat="44.5452" lon="4.23019">
        <ele>604</ele>
        <time>2018-06-03T07:17:08.000Z</time>
      </trkpt>
      <trkpt lat="44.5452" lon="4.23019">
        <ele>604</ele>
        <time>2018-06-03T07:17:09.000Z</time>
      </trkpt>
      <trkpt lat="44.5452" lon="4.23019">
        <ele>604</ele>
        <time>2018-06-03T07:17:10.000Z</time>
      </trkpt>
      <trkpt lat="44.5452" lon="4.23019">
        <ele>604</ele>
        <time>2018-06-03T07:17:11.000Z</time>
      </trkpt>
      <trkpt lat="44.5452" lon="4.23019">
        <ele>604</ele>
        <time>2018-06-03T07:17:12.000Z</time>
      </trkpt>
      <trkpt lat="44.5452" lon="4.23019">
        <ele>604</ele>
        <time>2018-06-03T07:17:13.000Z</time>
      </trkpt>
      <trkpt lat="44.5452" lon="4.23019">
        <ele>604</ele>
        <time>2018-06-03T07:17:14.000Z</time>
      </trkpt>
      <trkpt lat="44.5452" lon="4.23019">
        <ele>604</ele>
        <time>2018-06-03T07:17:15.000Z</time>
      </trkpt>
      <trkpt lat="44.5452" lon="4.23019">
        <ele>604</ele>
        <time>2018-06-03T07:17:16.000Z</time>
      </trkpt>
      <trkpt lat="44.5452" lon="4.23018">
        <ele>604</ele>
        <time>2018-06-03T07:17:17.000Z</time>
      </trkpt>
      <trkpt lat="44.5452" lon="4.23018">
        <ele>604</ele>
        <time>2018-06-03T07:17:18.000Z</time>
      </trkpt>
      <trkpt lat="44.5452" lon="4.23018">
        <ele>604</ele>
        <time>2018-06-03T07:17:19.000Z</time>
      </trkpt>
      <trkpt lat="44.54519" lon="4.23018">
        <ele>604</ele>
        <time>2018-06-03T07:17:20.000Z</time>
      </trkpt>
      <trkpt lat="44.54519" lon="4.23018">
        <ele>604</ele>
        <time>2018-06-03T07:17:21.000Z</time>
      </trkpt>
      <trkpt lat="44.54519" lon="4.23018">
        <ele>604</ele>
        <time>2018-06-03T07:17:22.000Z</time>
      </trkpt>
      <trkpt lat="44.54519" lon="4.23018">
        <ele>604</ele>
        <time>2018-06-03T07:17:23.000Z</time>
      </trkpt>
      <trkpt lat="44.54519" lon="4.23018">
        <ele>604</ele>
        <time>2018-06-03T07:17:24.000Z</time>
      </trkpt>
      <trkpt lat="44.54519" lon="4.23018">
        <ele>604</ele>
        <time>2018-06-03T07:17:25.000Z</time>
      </trkpt>
      <trkpt lat="44.54519" lon="4.23018">
        <ele>604</ele>
        <time>2018-06-03T07:17:26.000Z</time>
      </trkpt>
      <trkpt lat="44.54519" lon="4.23018">
        <ele>604</ele>
        <time>2018-06-03T07:17:27.000Z</time>
      </trkpt>
      <trkpt lat="44.54519" lon="4.23018">
        <ele>604</ele>
        <time>2018-06-03T07:17:28.000Z</time>
      </trkpt>
      <trkpt lat="44.54519" lon="4.23018">
        <ele>604</ele>
        <time>2018-06-03T07:17:29.000Z</time>
      </trkpt>
      <trkpt lat="44.54519" lon="4.23018">
        <ele>604</ele>
        <time>2018-06-03T07:17:30.000Z</time>
      </trkpt>
      <trkpt lat="44.54519" lon="4.23018">
        <ele>604</ele>
        <time>2018-06-03T07:17:31.000Z</time>
      </trkpt>
      <trkpt lat="44.54519" lon="4.23018">
        <ele>604</ele>
        <time>2018-06-03T07:17:32.000Z</time>
      </trkpt>
      <trkpt lat="44.54519" lon="4.23018">
        <ele>604</ele>
        <time>2018-06-03T07:17:33.000Z</time>
      </trkpt>
      <trkpt lat="44.54518" lon="4.23018">
        <ele>604</ele>
        <time>2018-06-03T07:17:34.000Z</time>
      </trkpt>
      <trkpt lat="44.54518" lon="4.23018">
        <ele>604</ele>
        <time>2018-06-03T07:17:35.000Z</time>
      </trkpt>
      <trkpt lat="44.54518" lon="4.23018">
        <ele>604</ele>
        <time>2018-06-03T07:17:36.000Z</time>
      </trkpt>
      <trkpt lat="44.54518" lon="4.23018">
        <ele>604</ele>
        <time>2018-06-03T07:17:37.000Z</time>
      </trkpt>
      <trkpt lat="44.54518" lon="4.23018">
        <ele>604</ele>
        <time>2018-06-03T07:17:38.000Z</time>
      </trkpt>
      <trkpt lat="44.54518" lon="4.23018">
        <ele>604</ele>
        <time>2018-06-03T07:17:39.000Z</time>
      </trkpt>
      <trkpt lat="44.54518" lon="4.23018">
        <ele>604</ele>
        <time>2018-06-03T07:17:40.000Z</time>
      </trkpt>
      <trkpt lat="44.54518" lon="4.23018">
        <ele>604</ele>
        <time>2018-06-03T07:17:41.000Z</time>
      </trkpt>
      <trkpt lat="44.54518" lon="4.23018">
        <ele>604</ele>
        <time>2018-06-03T07:17:42.000Z</time>
      </trkpt>
      <trkpt lat="44.54518" lon="4.23018">
        <ele>604</ele>
        <time>2018-06-03T07:17:43.000Z</time>
      </trkpt>
      <trkpt lat="44.54518" lon="4.23018">
        <ele>604</ele>
        <time>2018-06-03T07:17:44.000Z</time>
      </trkpt>
      <trkpt lat="44.54518" lon="4.23018">
        <ele>604</ele>
        <time>2018-06-03T07:17:45.000Z</time>
      </trkpt>
      <trkpt lat="44.54517" lon="4.23018">
        <ele>604</ele>
        <time>2018-06-03T07:17:46.000Z</time>
      </trkpt>
      <trkpt lat="44.54517" lon="4.23018">
        <ele>604</ele>
        <time>2018-06-03T07:17:47.000Z</time>
      </trkpt>
      <trkpt lat="44.54517" lon="4.23018">
        <ele>604</ele>
        <time>2018-06-03T07:17:48.000Z</time>
      </trkpt>
      <trkpt lat="44.54517" lon="4.23018">
        <ele>604</ele>
        <time>2018-06-03T07:17:49.000Z</time>
      </trkpt>
      <trkpt lat="44.54517" lon="4.23018">
        <ele>604</ele>
        <time>2018-06-03T07:17:50.000Z</time>
      </trkpt>
      <trkpt lat="44.54517" lon="4.23018">
        <ele>604</ele>
        <time>2018-06-03T07:17:51.000Z</time>
      </trkpt>
      <trkpt lat="44.54517" lon="4.23018">
        <ele>604</ele>
        <time>2018-06-03T07:17:52.000Z</time>
      </trkpt>
      <trkpt lat="44.54517" lon="4.23018">
        <ele>604</ele>
        <time>2018-06-03T07:17:53.000Z</time>
      </trkpt>
      <trkpt lat="44.54517" lon="4.23018">
        <ele>604</ele>
        <time>2018-06-03T07:17:54.000Z</time>
      </trkpt>
      <trkpt lat="44.54517" lon="4.23018">
        <ele>604</ele>
        <time>2018-06-03T07:17:55.000Z</time>
      </trkpt>
      <trkpt lat="44.54517" lon="4.23018">
        <ele>604</ele>
        <time>2018-06-03T07:17:56.000Z</time>
      </trkpt>
      <trkpt lat="44.54516" lon="4.23018">
        <ele>604</ele>
        <time>2018-06-03T07:17:57.000Z</time>
      </trkpt>
      <trkpt lat="44.54516" lon="4.23018">
        <ele>604</ele>
        <time>2018-06-03T07:17:58.000Z</time>
      </trkpt>
      <trkpt lat="44.54516" lon="4.23018">
        <ele>604</ele>
        <time>2018-06-03T07:17:59.000Z</time>
      </trkpt>
      <trkpt lat="44.54516" lon="4.23018">
        <ele>604</ele>
        <time>2018-06-03T07:18:00.000Z</time>
      </trkpt>
      <trkpt lat="44.54516" lon="4.23018">
        <ele>604</ele>
        <time>2018-06-03T07:18:01.000Z</time>
      </trkpt>
      <trkpt lat="44.54516" lon="4.23018">
        <ele>604</ele>
        <time>2018-06-03T07:18:02.000Z</time>
      </trkpt>
      <trkpt lat="44.54516" lon="4.23018">
        <ele>604</ele>
        <time>2018-06-03T07:18:03.000Z</time>
      </trkpt>
      <trkpt lat="44.54516" lon="4.23018">
        <ele>604</ele>
        <time>2018-06-03T07:18:04.000Z</time>
      </trkpt>
      <trkpt lat="44.54516" lon="4.23018">
        <ele>604</ele>
        <time>2018-06-03T07:18:05.000Z</time>
      </trkpt>
      <trkpt lat="44.54516" lon="4.23018">
        <ele>604</ele>
        <time>2018-06-03T07:18:06.000Z</time>
      </trkpt>
      <trkpt lat="44.54516" lon="4.23018">
        <ele>604</ele>
        <time>2018-06-03T07:18:07.000Z</time>
      </trkpt>
      <trkpt lat="44.54516" lon="4.23018">
        <ele>604</ele>
        <time>2018-06-03T07:18:08.000Z</time>
      </trkpt>
      <trkpt lat="44.54516" lon="4.23018">
        <ele>604</ele>
        <time>2018-06-03T07:18:09.000Z</time>
      </trkpt>
      <trkpt lat="44.54516" lon="4.23018">
        <ele>604</ele>
        <time>2018-06-03T07:18:10.000Z</time>
      </trkpt>
      <trkpt lat="44.54516" lon="4.23018">
        <ele>604</ele>
        <time>2018-06-03T07:18:11.000Z</time>
      </trkpt>
      <trkpt lat="44.54516" lon="4.23018">
        <ele>604</ele>
        <time>2018-06-03T07:18:12.000Z</time>
      </trkpt>
      <trkpt lat="44.54516" lon="4.23018">
        <ele>604</ele>
        <time>2018-06-03T07:18:13.000Z</time>
      </trkpt>
      <trkpt lat="44.54515" lon="4.23018">
        <ele>604</ele>
        <time>2018-06-03T07:18:14.000Z</time>
      </trkpt>
      <trkpt lat="44.54515" lon="4.23018">
        <ele>604</ele>
        <time>2018-06-03T07:18:15.000Z</time>
      </trkpt>
      <trkpt lat="44.54515" lon="4.23018">
        <ele>604</ele>
        <time>2018-06-03T07:18:16.000Z</time>
      </trkpt>
      <trkpt lat="44.54515" lon="4.23018">
        <ele>604</ele>
        <time>2018-06-03T07:18:17.000Z</time>
      </trkpt>
      <trkpt lat="44.54515" lon="4.23018">
        <ele>604</ele>
        <time>2018-06-03T07:18:18.000Z</time>
      </trkpt>
      <trkpt lat="44.54515" lon="4.23018">
        <ele>604</ele>
        <time>2018-06-03T07:18:19.000Z</time>
      </trkpt>
      <trkpt lat="44.54515" lon="4.23018">
        <ele>604</ele>
        <time>2018-06-03T07:18:20.000Z</time>
      </trkpt>
      <trkpt lat="44.54515" lon="4.23018">
        <ele>604</ele>
        <time>2018-06-03T07:18:21.000Z</time>
      </trkpt>
      <trkpt lat="44.54515" lon="4.23018">
        <ele>604</ele>
        <time>2018-06-03T07:18:22.000Z</time>
      </trkpt>
      <trkpt lat="44.54515" lon="4.23018">
        <ele>604</ele>
        <time>2018-06-03T07:18:23.000Z</time>
      </trkpt>
      <trkpt lat="44.54515" lon="4.23018">
        <ele>604</ele>
        <time>2018-06-03T07:18:24.000Z</time>
      </trkpt>
      <trkpt lat="44.54514" lon="4.23018">
        <ele>604</ele>
        <time>2018-06-03T07:18:25.000Z</time>
      </trkpt>
      <trkpt lat="44.54514" lon="4.23018">
        <ele>604</ele>
        <time>2018-06-03T07:18:26.000Z</time>
      </trkpt>
      <trkpt lat="44.54514" lon="4.23018">
        <ele>604</ele>
        <time>2018-06-03T07:18:27.000Z</time>
      </trkpt>
      <trkpt lat="44.54514" lon="4.23018">
        <ele>604</ele>
        <time>2018-06-03T07:18:28.000Z</time>
      </trkpt>
      <trkpt lat="44.54514" lon="4.23019">
        <ele>604</ele>
        <time>2018-06-03T07:18:29.000Z</time>
      </trkpt>
      <trkpt lat="44.54514" lon="4.23019">
        <ele>604</ele>
        <time>2018-06-03T07:18:30.000Z</time>
      </trkpt>
      <trkpt lat="44.54514" lon="4.23019">
        <ele>604</ele>
        <time>2018-06-03T07:18:31.000Z</time>
      </trkpt>
      <trkpt lat="44.54514" lon="4.23019">
        <ele>604</ele>
        <time>2018-06-03T07:18:32.000Z</time>
      </trkpt>
      <trkpt lat="44.54514" lon="4.23019">
        <ele>604</ele>
        <time>2018-06-03T07:18:33.000Z</time>
      </trkpt>
      <trkpt lat="44.54514" lon="4.23019">
        <ele>604</ele>
        <time>2018-06-03T07:18:34.000Z</time>
      </trkpt>
      <trkpt lat="44.54514" lon="4.23019">
        <ele>604</ele>
        <time>2018-06-03T07:18:35.000Z</time>
      </trkpt>
      <trkpt lat="44.54514" lon="4.23019">
        <ele>604</ele>
        <time>2018-06-03T07:18:36.000Z</time>
      </trkpt>
      <trkpt lat="44.54514" lon="4.23019">
        <ele>604</ele>
        <time>2018-06-03T07:18:37.000Z</time>
      </trkpt>
      <trkpt lat="44.54514" lon="4.23019">
        <ele>604</ele>
        <time>2018-06-03T07:18:38.000Z</time>
      </trkpt>
      <trkpt lat="44.54514" lon="4.23019">
        <ele>604</ele>
        <time>2018-06-03T07:18:39.000Z</time>
      </trkpt>
      <trkpt lat="44.54514" lon="4.23019">
        <ele>604</ele>
        <time>2018-06-03T07:18:40.000Z</time>
      </trkpt>
      <trkpt lat="44.54514" lon="4.23019">
        <ele>604</ele>
        <time>2018-06-03T07:18:41.000Z</time>
      </trkpt>
      <trkpt lat="44.54514" lon="4.23019">
        <ele>604</ele>
        <time>2018-06-03T07:18:42.000Z</time>
      </trkpt>
      <trkpt lat="44.54514" lon="4.23019">
        <ele>604</ele>
        <time>2018-06-03T07:18:43.000Z</time>
      </trkpt>
      <trkpt lat="44.54514" lon="4.23019">
        <ele>604</ele>
        <time>2018-06-03T07:18:44.000Z</time>
      </trkpt>
      <trkpt lat="44.54514" lon="4.23019">
        <ele>604</ele>
        <time>2018-06-03T07:18:45.000Z</time>
      </trkpt>
      <trkpt lat="44.54514" lon="4.23019">
        <ele>604</ele>
        <time>2018-06-03T07:18:46.000Z</time>
      </trkpt>
      <trkpt lat="44.54515" lon="4.23019">
        <ele>604</ele>
        <time>2018-06-03T07:18:47.000Z</time>
      </trkpt>
      <trkpt lat="44.54515" lon="4.23019">
        <ele>604</ele>
        <time>2018-06-03T07:18:48.000Z</time>
      </trkpt>
      <trkpt lat="44.54515" lon="4.23019">
        <ele>604</ele>
        <time>2018-06-03T07:18:49.000Z</time>
      </trkpt>
      <trkpt lat="44.54515" lon="4.23019">
        <ele>604</ele>
        <time>2018-06-03T07:18:50.000Z</time>
      </trkpt>
      <trkpt lat="44.54516" lon="4.23019">
        <ele>604</ele>
        <time>2018-06-03T07:18:51.000Z</time>
      </trkpt>
      <trkpt lat="44.54516" lon="4.23019">
        <ele>604</ele>
        <time>2018-06-03T07:18:52.000Z</time>
      </trkpt>
      <trkpt lat="44.54516" lon="4.23019">
        <ele>604</ele>
        <time>2018-06-03T07:18:53.000Z</time>
      </trkpt>
      <trkpt lat="44.54516" lon="4.23019">
        <ele>604</ele>
        <time>2018-06-03T07:18:54.000Z</time>
      </trkpt>
      <trkpt lat="44.54517" lon="4.23019">
        <ele>604</ele>
        <time>2018-06-03T07:18:55.000Z</time>
      </trkpt>
      <trkpt lat="44.54517" lon="4.23019">
        <ele>604</ele>
        <time>2018-06-03T07:18:56.000Z</time>
      </trkpt>
      <trkpt lat="44.54517" lon="4.23018">
        <ele>604</ele>
        <time>2018-06-03T07:18:57.000Z</time>
      </trkpt>
      <trkpt lat="44.54518" lon="4.23018">
        <ele>604</ele>
        <time>2018-06-03T07:18:58.000Z</time>
      </trkpt>
      <trkpt lat="44.54518" lon="4.23018">
        <ele>604</ele>
        <time>2018-06-03T07:18:59.000Z</time>
      </trkpt>
      <trkpt lat="44.54518" lon="4.23018">
        <ele>604</ele>
        <time>2018-06-03T07:19:00.000Z</time>
      </trkpt>
      <trkpt lat="44.54518" lon="4.23018">
        <ele>604</ele>
        <time>2018-06-03T07:19:01.000Z</time>
      </trkpt>
      <trkpt lat="44.54519" lon="4.23018">
        <ele>604</ele>
        <time>2018-06-03T07:19:02.000Z</time>
      </trkpt>
      <trkpt lat="44.54519" lon="4.23018">
        <ele>604</ele>
        <time>2018-06-03T07:19:03.000Z</time>
      </trkpt>
      <trkpt lat="44.54519" lon="4.23018">
        <ele>604</ele>
        <time>2018-06-03T07:19:04.000Z</time>
      </trkpt>
      <trkpt lat="44.5452" lon="4.23018">
        <ele>604</ele>
        <time>2018-06-03T07:19:05.000Z</time>
      </trkpt>
      <trkpt lat="44.5452" lon="4.23018">
        <ele>604</ele>
        <time>2018-06-03T07:19:06.000Z</time>
      </trkpt>
      <trkpt lat="44.5452" lon="4.23018">
        <ele>604</ele>
        <time>2018-06-03T07:19:07.000Z</time>
      </trkpt>
      <trkpt lat="44.54521" lon="4.23018">
        <ele>604</ele>
        <time>2018-06-03T07:19:08.000Z</time>
      </trkpt>
      <trkpt lat="44.54521" lon="4.23018">
        <ele>604</ele>
        <time>2018-06-03T07:19:09.000Z</time>
      </trkpt>
      <trkpt lat="44.54521" lon="4.23018">
        <ele>604</ele>
        <time>2018-06-03T07:19:10.000Z</time>
      </trkpt>
      <trkpt lat="44.54521" lon="4.23018">
        <ele>604</ele>
        <time>2018-06-03T07:19:11.000Z</time>
      </trkpt>
      <trkpt lat="44.54522" lon="4.23018">
        <ele>604</ele>
        <time>2018-06-03T07:19:12.000Z</time>
      </trkpt>
      <trkpt lat="44.54522" lon="4.23018">
        <ele>604</ele>
        <time>2018-06-03T07:19:13.000Z</time>
      </trkpt>
      <trkpt lat="44.54522" lon="4.23018">
        <ele>604</ele>
        <time>2018-06-03T07:19:14.000Z</time>
      </trkpt>
      <trkpt lat="44.54522" lon="4.23018">
        <ele>604</ele>
        <time>2018-06-03T07:19:15.000Z</time>
      </trkpt>
      <trkpt lat="44.54523" lon="4.23018">
        <ele>604</ele>
        <time>2018-06-03T07:19:16.000Z</time>
      </trkpt>
      <trkpt lat="44.54523" lon="4.23018">
        <ele>604</ele>
        <time>2018-06-03T07:19:17.000Z</time>
      </trkpt>
      <trkpt lat="44.54523" lon="4.23019">
        <ele>604</ele>
        <time>2018-06-03T07:19:18.000Z</time>
      </trkpt>
      <trkpt lat="44.54523" lon="4.23019">
        <ele>604</ele>
        <time>2018-06-03T07:19:19.000Z</time>
      </trkpt>
      <trkpt lat="44.54523" lon="4.23019">
        <ele>604</ele>
        <time>2018-06-03T07:19:20.000Z</time>
      </trkpt>
      <trkpt lat="44.54523" lon="4.23019">
        <ele>604</ele>
        <time>2018-06-03T07:19:21.000Z</time>
      </trkpt>
      <trkpt lat="44.54524" lon="4.23019">
        <ele>604</ele>
        <time>2018-06-03T07:19:22.000Z</time>
      </trkpt>
      <trkpt lat="44.54524" lon="4.23019">
        <ele>604</ele>
        <time>2018-06-03T07:19:23.000Z</time>
      </trkpt>
      <trkpt lat="44.54524" lon="4.2302">
        <ele>604</ele>
        <time>2018-06-03T07:19:24.000Z</time>
      </trkpt>
      <trkpt lat="44.54524" lon="4.2302">
        <ele>604</ele>
        <time>2018-06-03T07:19:25.000Z</time>
      </trkpt>
      <trkpt lat="44.54524" lon="4.2302">
        <ele>604</ele>
        <time>2018-06-03T07:19:26.000Z</time>
      </trkpt>
      <trkpt lat="44.54524" lon="4.2302">
        <ele>604</ele>
        <time>2018-06-03T07:19:27.000Z</time>
      </trkpt>
      <trkpt lat="44.54525" lon="4.23019">
        <ele>604</ele>
        <time>2018-06-03T07:19:28.000Z</time>
      </trkpt>
      <trkpt lat="44.54525" lon="4.23019">
        <ele>604</ele>
        <time>2018-06-03T07:19:29.000Z</time>
      </trkpt>
      <trkpt lat="44.54525" lon="4.23019">
        <ele>604</ele>
        <time>2018-06-03T07:19:30.000Z</time>
      </trkpt>
      <trkpt lat="44.54525" lon="4.23019">
        <ele>604</ele>
        <time>2018-06-03T07:19:31.000Z</time>
      </trkpt>
      <trkpt lat="44.54525" lon="4.23019">
        <ele>604</ele>
        <time>2018-06-03T07:19:32.000Z</time>
      </trkpt>
      <trkpt lat="44.54525" lon="4.23019">
        <ele>604</ele>
        <time>2018-06-03T07:19:33.000Z</time>
      </trkpt>
      <trkpt lat="44.54526" lon="4.23019">
        <ele>604</ele>
        <time>2018-06-03T07:19:34.000Z</time>
      </trkpt>
      <trkpt lat="44.54527" lon="4.23018">
        <ele>604</ele>
        <time>2018-06-03T07:19:35.000Z</time>
      </trkpt>
      <trkpt lat="44.54528" lon="4.23017">
        <ele>604</ele>
        <time>2018-06-03T07:19:36.000Z</time>
      </trkpt>
      <trkpt lat="44.54529" lon="4.23016">
        <ele>604</ele>
        <time>2018-06-03T07:19:37.000Z</time>
      </trkpt>
      <trkpt lat="44.54531" lon="4.23015">
        <ele>604</ele>
        <time>2018-06-03T07:19:38.000Z</time>
      </trkpt>
      <trkpt lat="44.54532" lon="4.23015">
        <ele>604</ele>
        <time>2018-06-03T07:19:39.000Z</time>
      </trkpt>
      <trkpt lat="44.54533" lon="4.23014">
        <ele>604</ele>
        <time>2018-06-03T07:19:40.000Z</time>
      </trkpt>
      <trkpt lat="44.54534" lon="4.23013">
        <ele>604</ele>
        <time>2018-06-03T07:19:41.000Z</time>
      </trkpt>
      <trkpt lat="44.54535" lon="4.23012">
        <ele>604</ele>
        <time>2018-06-03T07:19:42.000Z</time>
      </trkpt>
      <trkpt lat="44.54537" lon="4.23011">
        <ele>604</ele>
        <time>2018-06-03T07:19:43.000Z</time>
      </trkpt>
      <trkpt lat="44.54539" lon="4.23009">
        <ele>604</ele>
        <time>2018-06-03T07:19:44.000Z</time>
      </trkpt>
      <trkpt lat="44.54541" lon="4.23008">
        <ele>605</ele>
        <time>2018-06-03T07:19:45.000Z</time>
      </trkpt>
      <trkpt lat="44.54543" lon="4.23006">
        <ele>605</ele>
        <time>2018-06-03T07:19:46.000Z</time>
      </trkpt>
      <trkpt lat="44.54546" lon="4.23005">
        <ele>605</ele>
        <time>2018-06-03T07:19:47.000Z</time>
      </trkpt>
      <trkpt lat="44.54549" lon="4.23005">
        <ele>605</ele>
        <time>2018-06-03T07:19:48.000Z</time>
      </trkpt>
      <trkpt lat="44.54553" lon="4.23006">
        <ele>605</ele>
        <time>2018-06-03T07:19:49.000Z</time>
      </trkpt>
      <trkpt lat="44.54556" lon="4.23007">
        <ele>606</ele>
        <time>2018-06-03T07:19:50.000Z</time>
      </trkpt>
      <trkpt lat="44.54562" lon="4.23007">
        <ele>606</ele>
        <time>2018-06-03T07:19:51.000Z</time>
      </trkpt>
      <trkpt lat="44.54567" lon="4.23008">
        <ele>607</ele>
        <time>2018-06-03T07:19:52.000Z</time>
      </trkpt>
      <trkpt lat="44.54573" lon="4.2301">
        <ele>608</ele>
        <time>2018-06-03T07:19:53.000Z</time>
      </trkpt>
      <trkpt lat="44.54579" lon="4.23011">
        <ele>609</ele>
        <time>2018-06-03T07:19:54.000Z</time>
      </trkpt>
      <trkpt lat="44.54586" lon="4.23012">
        <ele>609</ele>
        <time>2018-06-03T07:19:55.000Z</time>
      </trkpt>
      <trkpt lat="44.54594" lon="4.23013">
        <ele>608</ele>
        <time>2018-06-03T07:19:56.000Z</time>
      </trkpt>
      <trkpt lat="44.54602" lon="4.23014">
        <ele>607</ele>
        <time>2018-06-03T07:19:57.000Z</time>
      </trkpt>
      <trkpt lat="44.54609" lon="4.23014">
        <ele>606</ele>
        <time>2018-06-03T07:19:58.000Z</time>
      </trkpt>
      <trkpt lat="44.54617" lon="4.23013">
        <ele>606</ele>
        <time>2018-06-03T07:19:59.000Z</time>
      </trkpt>
      <trkpt lat="44.54624" lon="4.23012">
        <ele>606</ele>
        <time>2018-06-03T07:20:00.000Z</time>
      </trkpt>
      <trkpt lat="44.54632" lon="4.23012">
        <ele>605</ele>
        <time>2018-06-03T07:20:01.000Z</time>
      </trkpt>
      <trkpt lat="44.54639" lon="4.23012">
        <ele>606</ele>
        <time>2018-06-03T07:20:02.000Z</time>
      </trkpt>
      <trkpt lat="44.54646" lon="4.23012">
        <ele>606</ele>
        <time>2018-06-03T07:20:03.000Z</time>
      </trkpt>
      <trkpt lat="44.54654" lon="4.23013">
        <ele>606</ele>
        <time>2018-06-03T07:20:04.000Z</time>
      </trkpt>
      <trkpt lat="44.5466" lon="4.23013">
        <ele>606</ele>
        <time>2018-06-03T07:20:05.000Z</time>
      </trkpt>
      <trkpt lat="44.54667" lon="4.23013">
        <ele>607</ele>
        <time>2018-06-03T07:20:06.000Z</time>
      </trkpt>
      <trkpt lat="44.54672" lon="4.23013">
        <ele>606</ele>
        <time>2018-06-03T07:20:07.000Z</time>
      </trkpt>
      <trkpt lat="44.54678" lon="4.23014">
        <ele>605</ele>
        <time>2018-06-03T07:20:08.000Z</time>
      </trkpt>
      <trkpt lat="44.54684" lon="4.23015">
        <ele>605</ele>
        <time>2018-06-03T07:20:09.000Z</time>
      </trkpt>
      <trkpt lat="44.5469" lon="4.23017">
        <ele>604</ele>
        <time>2018-06-03T07:20:10.000Z</time>
      </trkpt>
      <trkpt lat="44.54694" lon="4.23021">
        <ele>604</ele>
        <time>2018-06-03T07:20:11.000Z</time>
      </trkpt>
      <trkpt lat="44.54697" lon="4.23027">
        <ele>603</ele>
        <time>2018-06-03T07:20:12.000Z</time>
      </trkpt>
      <trkpt lat="44.54698" lon="4.23033">
        <ele>603</ele>
        <time>2018-06-03T07:20:13.000Z</time>
      </trkpt>
      <trkpt lat="44.54698" lon="4.23039">
        <ele>602</ele>
        <time>2018-06-03T07:20:14.000Z</time>
      </trkpt>
      <trkpt lat="44.54695" lon="4.23045">
        <ele>602</ele>
        <time>2018-06-03T07:20:15.000Z</time>
      </trkpt>
      <trkpt lat="44.54691" lon="4.23051">
        <ele>601</ele>
        <time>2018-06-03T07:20:16.000Z</time>
      </trkpt>
      <trkpt lat="44.54687" lon="4.23058">
        <ele>601</ele>
        <time>2018-06-03T07:20:17.000Z</time>
      </trkpt>
      <trkpt lat="44.54682" lon="4.23066">
        <ele>600</ele>
        <time>2018-06-03T07:20:18.000Z</time>
      </trkpt>
      <trkpt lat="44.54678" lon="4.23074">
        <ele>599</ele>
        <time>2018-06-03T07:20:19.000Z</time>
      </trkpt>
      <trkpt lat="44.54672" lon="4.23082">
        <ele>598</ele>
        <time>2018-06-03T07:20:20.000Z</time>
      </trkpt>
      <trkpt lat="44.54667" lon="4.23091">
        <ele>595</ele>
        <time>2018-06-03T07:20:21.000Z</time>
      </trkpt>
      <trkpt lat="44.54661" lon="4.23099">
        <ele>593</ele>
        <time>2018-06-03T07:20:22.000Z</time>
      </trkpt>
      <trkpt lat="44.54655" lon="4.23108">
        <ele>592</ele>
        <time>2018-06-03T07:20:23.000Z</time>
      </trkpt>
      <trkpt lat="44.54649" lon="4.23116">
        <ele>591</ele>
        <time>2018-06-03T07:20:24.000Z</time>
      </trkpt>
      <trkpt lat="44.54643" lon="4.23123">
        <ele>590</ele>
        <time>2018-06-03T07:20:25.000Z</time>
      </trkpt>
      <trkpt lat="44.54636" lon="4.2313">
        <ele>590</ele>
        <time>2018-06-03T07:20:26.000Z</time>
      </trkpt>
      <trkpt lat="44.54629" lon="4.23136">
        <ele>589</ele>
        <time>2018-06-03T07:20:27.000Z</time>
      </trkpt>
      <trkpt lat="44.54622" lon="4.23141">
        <ele>589</ele>
        <time>2018-06-03T07:20:28.000Z</time>
      </trkpt>
      <trkpt lat="44.54614" lon="4.23145">
        <ele>588</ele>
        <time>2018-06-03T07:20:29.000Z</time>
      </trkpt>
      <trkpt lat="44.54606" lon="4.23149">
        <ele>587</ele>
        <time>2018-06-03T07:20:30.000Z</time>
      </trkpt>
      <trkpt lat="44.54598" lon="4.23153">
        <ele>586</ele>
        <time>2018-06-03T07:20:31.000Z</time>
      </trkpt>
      <trkpt lat="44.54591" lon="4.23157">
        <ele>585</ele>
        <time>2018-06-03T07:20:32.000Z</time>
      </trkpt>
      <trkpt lat="44.54584" lon="4.2316">
        <ele>584</ele>
        <time>2018-06-03T07:20:33.000Z</time>
      </trkpt>
      <trkpt lat="44.54578" lon="4.23164">
        <ele>583</ele>
        <time>2018-06-03T07:20:34.000Z</time>
      </trkpt>
      <trkpt lat="44.54571" lon="4.23168">
        <ele>579</ele>
        <time>2018-06-03T07:20:35.000Z</time>
      </trkpt>
      <trkpt lat="44.54564" lon="4.23172">
        <ele>577</ele>
        <time>2018-06-03T07:20:36.000Z</time>
      </trkpt>
      <trkpt lat="44.54556" lon="4.23176">
        <ele>576</ele>
        <time>2018-06-03T07:20:37.000Z</time>
      </trkpt>
      <trkpt lat="44.54548" lon="4.23179">
        <ele>575</ele>
        <time>2018-06-03T07:20:38.000Z</time>
      </trkpt>
      <trkpt lat="44.5454" lon="4.23181">
        <ele>575</ele>
        <time>2018-06-03T07:20:39.000Z</time>
      </trkpt>
      <trkpt lat="44.54532" lon="4.23182">
        <ele>575</ele>
        <time>2018-06-03T07:20:40.000Z</time>
      </trkpt>
      <trkpt lat="44.54523" lon="4.2318">
        <ele>574</ele>
        <time>2018-06-03T07:20:41.000Z</time>
      </trkpt>
      <trkpt lat="44.54515" lon="4.23178">
        <ele>575</ele>
        <time>2018-06-03T07:20:42.000Z</time>
      </trkpt>
      <trkpt lat="44.54506" lon="4.23174">
        <ele>575</ele>
        <time>2018-06-03T07:20:43.000Z</time>
      </trkpt>
      <trkpt lat="44.54498" lon="4.23171">
        <ele>574</ele>
        <time>2018-06-03T07:20:44.000Z</time>
      </trkpt>
      <trkpt lat="44.54489" lon="4.23167">
        <ele>572</ele>
        <time>2018-06-03T07:20:45.000Z</time>
      </trkpt>
      <trkpt lat="44.54481" lon="4.23164">
        <ele>576</ele>
        <time>2018-06-03T07:20:46.000Z</time>
      </trkpt>
      <trkpt lat="44.54472" lon="4.23161">
        <ele>576</ele>
        <time>2018-06-03T07:20:47.000Z</time>
      </trkpt>
      <trkpt lat="44.54465" lon="4.23158">
        <ele>576</ele>
        <time>2018-06-03T07:20:48.000Z</time>
      </trkpt>
      <trkpt lat="44.54457" lon="4.23157">
        <ele>575</ele>
        <time>2018-06-03T07:20:49.000Z</time>
      </trkpt>
      <trkpt lat="44.5445" lon="4.23155">
        <ele>574</ele>
        <time>2018-06-03T07:20:50.000Z</time>
      </trkpt>
      <trkpt lat="44.54442" lon="4.23152">
        <ele>574</ele>
        <time>2018-06-03T07:20:51.000Z</time>
      </trkpt>
      <trkpt lat="44.54435" lon="4.23148">
        <ele>573</ele>
        <time>2018-06-03T07:20:52.000Z</time>
      </trkpt>
      <trkpt lat="44.54429" lon="4.23143">
        <ele>573</ele>
        <time>2018-06-03T07:20:53.000Z</time>
      </trkpt>
      <trkpt lat="44.54424" lon="4.2314">
        <ele>573</ele>
        <time>2018-06-03T07:20:54.000Z</time>
      </trkpt>
      <trkpt lat="44.5442" lon="4.23139">
        <ele>573</ele>
        <time>2018-06-03T07:20:55.000Z</time>
      </trkpt>
      <trkpt lat="44.54417" lon="4.23141">
        <ele>573</ele>
        <time>2018-06-03T07:20:56.000Z</time>
      </trkpt>
      <trkpt lat="44.54417" lon="4.23143">
        <ele>572</ele>
        <time>2018-06-03T07:20:57.000Z</time>
      </trkpt>
      <trkpt lat="44.54418" lon="4.23146">
        <ele>572</ele>
        <time>2018-06-03T07:20:58.000Z</time>
      </trkpt>
      <trkpt lat="44.54419" lon="4.23147">
        <ele>571</ele>
        <time>2018-06-03T07:20:59.000Z</time>
      </trkpt>
      <trkpt lat="44.5442" lon="4.23146">
        <ele>572</ele>
        <time>2018-06-03T07:21:00.000Z</time>
      </trkpt>
      <trkpt lat="44.5442" lon="4.23147">
        <ele>572</ele>
        <time>2018-06-03T07:21:01.000Z</time>
      </trkpt>
      <trkpt lat="44.54421" lon="4.23146">
        <ele>572</ele>
        <time>2018-06-03T07:21:02.000Z</time>
      </trkpt>
      <trkpt lat="44.54421" lon="4.23146">
        <ele>572</ele>
        <time>2018-06-03T07:21:03.000Z</time>
      </trkpt>
      <trkpt lat="44.54421" lon="4.23146">
        <ele>572</ele>
        <time>2018-06-03T07:21:04.000Z</time>
      </trkpt>
      <trkpt lat="44.54421" lon="4.23146">
        <ele>572</ele>
        <time>2018-06-03T07:21:05.000Z</time>
      </trkpt>
      <trkpt lat="44.54421" lon="4.23146">
        <ele>572</ele>
        <time>2018-06-03T07:21:06.000Z</time>
      </trkpt>
      <trkpt lat="44.54422" lon="4.23146">
        <ele>572</ele>
        <time>2018-06-03T07:21:07.000Z</time>
      </trkpt>
      <trkpt lat="44.54422" lon="4.23145">
        <ele>572</ele>
        <time>2018-06-03T07:21:08.000Z</time>
      </trkpt>
      <trkpt lat="44.54422" lon="4.23145">
        <ele>572</ele>
        <time>2018-06-03T07:21:09.000Z</time>
      </trkpt>
      <trkpt lat="44.54422" lon="4.23145">
        <ele>572</ele>
        <time>2018-06-03T07:21:10.000Z</time>
      </trkpt>
      <trkpt lat="44.54422" lon="4.23145">
        <ele>572</ele>
        <time>2018-06-03T07:21:11.000Z</time>
      </trkpt>
      <trkpt lat="44.54422" lon="4.23145">
        <ele>572</ele>
        <time>2018-06-03T07:21:12.000Z</time>
      </trkpt>
      <trkpt lat="44.54422" lon="4.23145">
        <ele>572</ele>
        <time>2018-06-03T07:21:13.000Z</time>
      </trkpt>
      <trkpt lat="44.54422" lon="4.23145">
        <ele>572</ele>
        <time>2018-06-03T07:21:14.000Z</time>
      </trkpt>
      <trkpt lat="44.54422" lon="4.23144">
        <ele>572</ele>
        <time>2018-06-03T07:21:15.000Z</time>
      </trkpt>
      <trkpt lat="44.54423" lon="4.23144">
        <ele>572</ele>
        <time>2018-06-03T07:21:16.000Z</time>
      </trkpt>
      <trkpt lat="44.54423" lon="4.23144">
        <ele>572</ele>
        <time>2018-06-03T07:21:17.000Z</time>
      </trkpt>
      <trkpt lat="44.54423" lon="4.23144">
        <ele>572</ele>
        <time>2018-06-03T07:21:18.000Z</time>
      </trkpt>
      <trkpt lat="44.54423" lon="4.23144">
        <ele>572</ele>
        <time>2018-06-03T07:21:19.000Z</time>
      </trkpt>
      <trkpt lat="44.54423" lon="4.23144">
        <ele>572</ele>
        <time>2018-06-03T07:21:20.000Z</time>
      </trkpt>
      <trkpt lat="44.54423" lon="4.23144">
        <ele>572</ele>
        <time>2018-06-03T07:21:21.000Z</time>
      </trkpt>
      <trkpt lat="44.54423" lon="4.23144">
        <ele>572</ele>
        <time>2018-06-03T07:21:22.000Z</time>
      </trkpt>
      <trkpt lat="44.54423" lon="4.23144">
        <ele>572</ele>
        <time>2018-06-03T07:21:23.000Z</time>
      </trkpt>
      <trkpt lat="44.54423" lon="4.23143">
        <ele>572</ele>
        <time>2018-06-03T07:21:24.000Z</time>
      </trkpt>
      <trkpt lat="44.54423" lon="4.23143">
        <ele>572</ele>
        <time>2018-06-03T07:21:25.000Z</time>
      </trkpt>
      <trkpt lat="44.54423" lon="4.23143">
        <ele>572</ele>
        <time>2018-06-03T07:21:26.000Z</time>
      </trkpt>
      <trkpt lat="44.54423" lon="4.23143">
        <ele>572</ele>
        <time>2018-06-03T07:21:27.000Z</time>
      </trkpt>
      <trkpt lat="44.54423" lon="4.23143">
        <ele>572</ele>
        <time>2018-06-03T07:21:28.000Z</time>
      </trkpt>
      <trkpt lat="44.54423" lon="4.23143">
        <ele>572</ele>
        <time>2018-06-03T07:21:29.000Z</time>
      </trkpt>
      <trkpt lat="44.54423" lon="4.23143">
        <ele>573</ele>
        <time>2018-06-03T07:21:30.000Z</time>
      </trkpt>
      <trkpt lat="44.54423" lon="4.23143">
        <ele>573</ele>
        <time>2018-06-03T07:21:31.000Z</time>
      </trkpt>
      <trkpt lat="44.54423" lon="4.23143">
        <ele>573</ele>
        <time>2018-06-03T07:21:32.000Z</time>
      </trkpt>
      <trkpt lat="44.54423" lon="4.23143">
        <ele>573</ele>
        <time>2018-06-03T07:21:33.000Z</time>
      </trkpt>
      <trkpt lat="44.54423" lon="4.23144">
        <ele>572</ele>
        <time>2018-06-03T07:21:34.000Z</time>
      </trkpt>
      <trkpt lat="44.54424" lon="4.23144">
        <ele>572</ele>
        <time>2018-06-03T07:21:35.000Z</time>
      </trkpt>
      <trkpt lat="44.54425" lon="4.23145">
        <ele>572</ele>
        <time>2018-06-03T07:21:36.000Z</time>
      </trkpt>
      <trkpt lat="44.54426" lon="4.23147">
        <ele>572</ele>
        <time>2018-06-03T07:21:37.000Z</time>
      </trkpt>
      <trkpt lat="44.54428" lon="4.2315">
        <ele>572</ele>
        <time>2018-06-03T07:21:38.000Z</time>
      </trkpt>
      <trkpt lat="44.54431" lon="4.23155">
        <ele>571</ele>
        <time>2018-06-03T07:21:39.000Z</time>
      </trkpt>
      <trkpt lat="44.54434" lon="4.23159">
        <ele>571</ele>
        <time>2018-06-03T07:21:40.000Z</time>
      </trkpt>
      <trkpt lat="44.54437" lon="4.23164">
        <ele>571</ele>
        <time>2018-06-03T07:21:41.000Z</time>
      </trkpt>
      <trkpt lat="44.54442" lon="4.23169">
        <ele>565</ele>
        <time>2018-06-03T07:21:42.000Z</time>
      </trkpt>
      <trkpt lat="44.54446" lon="4.23174">
        <ele>565</ele>
        <time>2018-06-03T07:21:43.000Z</time>
      </trkpt>
      <trkpt lat="44.54451" lon="4.2318">
        <ele>565</ele>
        <time>2018-06-03T07:21:44.000Z</time>
      </trkpt>
      <trkpt lat="44.54456" lon="4.23186">
        <ele>565</ele>
        <time>2018-06-03T07:21:45.000Z</time>
      </trkpt>
      <trkpt lat="44.54461" lon="4.23191">
        <ele>565</ele>
        <time>2018-06-03T07:21:46.000Z</time>
      </trkpt>
      <trkpt lat="44.54466" lon="4.23197">
        <ele>565</ele>
        <time>2018-06-03T07:21:47.000Z</time>
      </trkpt>
      <trkpt lat="44.54469" lon="4.23203">
        <ele>565</ele>
        <time>2018-06-03T07:21:48.000Z</time>
      </trkpt>
      <trkpt lat="44.54472" lon="4.23211">
        <ele>564</ele>
        <time>2018-06-03T07:21:49.000Z</time>
      </trkpt>
      <trkpt lat="44.54475" lon="4.2322">
        <ele>564</ele>
        <time>2018-06-03T07:21:50.000Z</time>
      </trkpt>
      <trkpt lat="44.54477" lon="4.23228">
        <ele>564</ele>
        <time>2018-06-03T07:21:51.000Z</time>
      </trkpt>
      <trkpt lat="44.54477" lon="4.23236">
        <ele>563</ele>
        <time>2018-06-03T07:21:52.000Z</time>
      </trkpt>
      <trkpt lat="44.54475" lon="4.23242">
        <ele>563</ele>
        <time>2018-06-03T07:21:53.000Z</time>
      </trkpt>
      <trkpt lat="44.54472" lon="4.23248">
        <ele>562</ele>
        <time>2018-06-03T07:21:54.000Z</time>
      </trkpt>
      <trkpt lat="44.54468" lon="4.23256">
        <ele>556</ele>
        <time>2018-06-03T07:21:55.000Z</time>
      </trkpt>
      <trkpt lat="44.54465" lon="4.23264">
        <ele>555</ele>
        <time>2018-06-03T07:21:56.000Z</time>
      </trkpt>
      <trkpt lat="44.54461" lon="4.23273">
        <ele>554</ele>
        <time>2018-06-03T07:21:57.000Z</time>
      </trkpt>
      <trkpt lat="44.54457" lon="4.23282">
        <ele>554</ele>
        <time>2018-06-03T07:21:58.000Z</time>
      </trkpt>
      <trkpt lat="44.54453" lon="4.23291">
        <ele>553</ele>
        <time>2018-06-03T07:21:59.000Z</time>
      </trkpt>
      <trkpt lat="44.54449" lon="4.233">
        <ele>552</ele>
        <time>2018-06-03T07:22:00.000Z</time>
      </trkpt>
      <trkpt lat="44.54444" lon="4.23309">
        <ele>552</ele>
        <time>2018-06-03T07:22:01.000Z</time>
      </trkpt>
      <trkpt lat="44.54439" lon="4.23317">
        <ele>551</ele>
        <time>2018-06-03T07:22:02.000Z</time>
      </trkpt>
      <trkpt lat="44.54435" lon="4.23325">
        <ele>550</ele>
        <time>2018-06-03T07:22:03.000Z</time>
      </trkpt>
      <trkpt lat="44.54431" lon="4.2333">
        <ele>549</ele>
        <time>2018-06-03T07:22:04.000Z</time>
      </trkpt>
      <trkpt lat="44.54427" lon="4.23333">
        <ele>548</ele>
        <time>2018-06-03T07:22:05.000Z</time>
      </trkpt>
      <trkpt lat="44.54424" lon="4.23334">
        <ele>546</ele>
        <time>2018-06-03T07:22:06.000Z</time>
      </trkpt>
      <trkpt lat="44.5442" lon="4.23334">
        <ele>546</ele>
        <time>2018-06-03T07:22:07.000Z</time>
      </trkpt>
      <trkpt lat="44.54415" lon="4.23334">
        <ele>546</ele>
        <time>2018-06-03T07:22:08.000Z</time>
      </trkpt>
      <trkpt lat="44.5441" lon="4.23334">
        <ele>545</ele>
        <time>2018-06-03T07:22:09.000Z</time>
      </trkpt>
      <trkpt lat="44.54407" lon="4.23335">
        <ele>544</ele>
        <time>2018-06-03T07:22:10.000Z</time>
      </trkpt>
      <trkpt lat="44.54407" lon="4.23336">
        <ele>544</ele>
        <time>2018-06-03T07:22:11.000Z</time>
      </trkpt>
      <trkpt lat="44.54406" lon="4.23336">
        <ele>544</ele>
        <time>2018-06-03T07:22:12.000Z</time>
      </trkpt>
      <trkpt lat="44.54406" lon="4.23336">
        <ele>544</ele>
        <time>2018-06-03T07:22:13.000Z</time>
      </trkpt>
      <trkpt lat="44.54406" lon="4.23336">
        <ele>544</ele>
        <time>2018-06-03T07:22:14.000Z</time>
      </trkpt>
      <trkpt lat="44.54406" lon="4.23336">
        <ele>544</ele>
        <time>2018-06-03T07:22:15.000Z</time>
      </trkpt>
      <trkpt lat="44.54405" lon="4.23336">
        <ele>544</ele>
        <time>2018-06-03T07:22:16.000Z</time>
      </trkpt>
      <trkpt lat="44.54404" lon="4.23337">
        <ele>543</ele>
        <time>2018-06-03T07:22:17.000Z</time>
      </trkpt>
      <trkpt lat="44.54402" lon="4.23339">
        <ele>543</ele>
        <time>2018-06-03T07:22:18.000Z</time>
      </trkpt>
      <trkpt lat="44.54399" lon="4.23343">
        <ele>543</ele>
        <time>2018-06-03T07:22:19.000Z</time>
      </trkpt>
      <trkpt lat="44.54396" lon="4.23347">
        <ele>542</ele>
        <time>2018-06-03T07:22:20.000Z</time>
      </trkpt>
      <trkpt lat="44.54391" lon="4.23352">
        <ele>542</ele>
        <time>2018-06-03T07:22:21.000Z</time>
      </trkpt>
      <trkpt lat="44.54387" lon="4.23357">
        <ele>541</ele>
        <time>2018-06-03T07:22:22.000Z</time>
      </trkpt>
      <trkpt lat="44.54383" lon="4.23364">
        <ele>541</ele>
        <time>2018-06-03T07:22:23.000Z</time>
      </trkpt>
      <trkpt lat="44.54378" lon="4.23371">
        <ele>540</ele>
        <time>2018-06-03T07:22:24.000Z</time>
      </trkpt>
      <trkpt lat="44.54373" lon="4.23377">
        <ele>540</ele>
        <time>2018-06-03T07:22:25.000Z</time>
      </trkpt>
      <trkpt lat="44.54369" lon="4.23382">
        <ele>540</ele>
        <time>2018-06-03T07:22:26.000Z</time>
      </trkpt>
      <trkpt lat="44.54365" lon="4.23385">
        <ele>539</ele>
        <time>2018-06-03T07:22:27.000Z</time>
      </trkpt>
      <trkpt lat="44.5436" lon="4.23387">
        <ele>539</ele>
        <time>2018-06-03T07:22:28.000Z</time>
      </trkpt>
      <trkpt lat="44.54357" lon="4.23384">
        <ele>539</ele>
        <time>2018-06-03T07:22:29.000Z</time>
      </trkpt>
      <trkpt lat="44.54355" lon="4.2338">
        <ele>539</ele>
        <time>2018-06-03T07:22:30.000Z</time>
      </trkpt>
      <trkpt lat="44.54352" lon="4.23374">
        <ele>539</ele>
        <time>2018-06-03T07:22:31.000Z</time>
      </trkpt>
      <trkpt lat="44.5435" lon="4.23367">
        <ele>539</ele>
        <time>2018-06-03T07:22:32.000Z</time>
      </trkpt>
      <trkpt lat="44.54347" lon="4.23362">
        <ele>539</ele>
        <time>2018-06-03T07:22:33.000Z</time>
      </trkpt>
      <trkpt lat="44.54343" lon="4.23359">
        <ele>539</ele>
        <time>2018-06-03T07:22:34.000Z</time>
      </trkpt>
      <trkpt lat="44.54339" lon="4.2336">
        <ele>539</ele>
        <time>2018-06-03T07:22:35.000Z</time>
      </trkpt>
      <trkpt lat="44.54335" lon="4.23362">
        <ele>539</ele>
        <time>2018-06-03T07:22:36.000Z</time>
      </trkpt>
      <trkpt lat="44.5433" lon="4.23366">
        <ele>533</ele>
        <time>2018-06-03T07:22:37.000Z</time>
      </trkpt>
      <trkpt lat="44.54325" lon="4.2337">
        <ele>533</ele>
        <time>2018-06-03T07:22:38.000Z</time>
      </trkpt>
      <trkpt lat="44.54318" lon="4.23373">
        <ele>533</ele>
        <time>2018-06-03T07:22:39.000Z</time>
      </trkpt>
      <trkpt lat="44.54312" lon="4.23378">
        <ele>532</ele>
        <time>2018-06-03T07:22:40.000Z</time>
      </trkpt>
      <trkpt lat="44.54305" lon="4.23382">
        <ele>532</ele>
        <time>2018-06-03T07:22:41.000Z</time>
      </trkpt>
      <trkpt lat="44.54298" lon="4.23385">
        <ele>532</ele>
        <time>2018-06-03T07:22:42.000Z</time>
      </trkpt>
      <trkpt lat="44.54291" lon="4.23388">
        <ele>531</ele>
        <time>2018-06-03T07:22:43.000Z</time>
      </trkpt>
      <trkpt lat="44.54285" lon="4.23391">
        <ele>531</ele>
        <time>2018-06-03T07:22:44.000Z</time>
      </trkpt>
      <trkpt lat="44.54281" lon="4.23394">
        <ele>531</ele>
        <time>2018-06-03T07:22:45.000Z</time>
      </trkpt>
      <trkpt lat="44.54278" lon="4.23397">
        <ele>530</ele>
        <time>2018-06-03T07:22:46.000Z</time>
      </trkpt>
      <trkpt lat="44.54274" lon="4.23402">
        <ele>530</ele>
        <time>2018-06-03T07:22:47.000Z</time>
      </trkpt>
      <trkpt lat="44.54271" lon="4.23407">
        <ele>529</ele>
        <time>2018-06-03T07:22:48.000Z</time>
      </trkpt>
      <trkpt lat="44.54268" lon="4.23413">
        <ele>529</ele>
        <time>2018-06-03T07:22:49.000Z</time>
      </trkpt>
      <trkpt lat="44.54264" lon="4.23419">
        <ele>527</ele>
        <time>2018-06-03T07:22:50.000Z</time>
      </trkpt>
      <trkpt lat="44.5426" lon="4.23425">
        <ele>527</ele>
        <time>2018-06-03T07:22:51.000Z</time>
      </trkpt>
      <trkpt lat="44.54256" lon="4.23432">
        <ele>527</ele>
        <time>2018-06-03T07:22:52.000Z</time>
      </trkpt>
      <trkpt lat="44.54253" lon="4.2344">
        <ele>527</ele>
        <time>2018-06-03T07:22:53.000Z</time>
      </trkpt>
      <trkpt lat="44.54251" lon="4.23449">
        <ele>527</ele>
        <time>2018-06-03T07:22:54.000Z</time>
      </trkpt>
      <trkpt lat="44.54249" lon="4.23458">
        <ele>524</ele>
        <time>2018-06-03T07:22:55.000Z</time>
      </trkpt>
      <trkpt lat="44.54247" lon="4.23467">
        <ele>524</ele>
        <time>2018-06-03T07:22:56.000Z</time>
      </trkpt>
      <trkpt lat="44.54245" lon="4.23476">
        <ele>523</ele>
        <time>2018-06-03T07:22:57.000Z</time>
      </trkpt>
      <trkpt lat="44.54244" lon="4.23485">
        <ele>523</ele>
        <time>2018-06-03T07:22:58.000Z</time>
      </trkpt>
      <trkpt lat="44.54242" lon="4.23494">
        <ele>523</ele>
        <time>2018-06-03T07:22:59.000Z</time>
      </trkpt>
      <trkpt lat="44.5424" lon="4.23503">
        <ele>521</ele>
        <time>2018-06-03T07:23:00.000Z</time>
      </trkpt>
      <trkpt lat="44.54238" lon="4.23512">
        <ele>521</ele>
        <time>2018-06-03T07:23:01.000Z</time>
      </trkpt>
      <trkpt lat="44.54237" lon="4.23521">
        <ele>521</ele>
        <time>2018-06-03T07:23:02.000Z</time>
      </trkpt>
      <trkpt lat="44.54238" lon="4.23529">
        <ele>521</ele>
        <time>2018-06-03T07:23:03.000Z</time>
      </trkpt>
      <trkpt lat="44.54237" lon="4.23538">
        <ele>521</ele>
        <time>2018-06-03T07:23:04.000Z</time>
      </trkpt>
      <trkpt lat="44.54236" lon="4.23547">
        <ele>521</ele>
        <time>2018-06-03T07:23:05.000Z</time>
      </trkpt>
      <trkpt lat="44.54234" lon="4.23556">
        <ele>521</ele>
        <time>2018-06-03T07:23:06.000Z</time>
      </trkpt>
      <trkpt lat="44.54233" lon="4.23565">
        <ele>521</ele>
        <time>2018-06-03T07:23:07.000Z</time>
      </trkpt>
      <trkpt lat="44.54231" lon="4.23575">
        <ele>521</ele>
        <time>2018-06-03T07:23:08.000Z</time>
      </trkpt>
      <trkpt lat="44.54229" lon="4.23585">
        <ele>519</ele>
        <time>2018-06-03T07:23:09.000Z</time>
      </trkpt>
      <trkpt lat="44.54228" lon="4.23596">
        <ele>518</ele>
        <time>2018-06-03T07:23:10.000Z</time>
      </trkpt>
      <trkpt lat="44.54227" lon="4.23607">
        <ele>518</ele>
        <time>2018-06-03T07:23:11.000Z</time>
      </trkpt>
      <trkpt lat="44.54228" lon="4.23617">
        <ele>517</ele>
        <time>2018-06-03T07:23:12.000Z</time>
      </trkpt>
      <trkpt lat="44.54228" lon="4.23626">
        <ele>517</ele>
        <time>2018-06-03T07:23:13.000Z</time>
      </trkpt>
      <trkpt lat="44.54227" lon="4.23634">
        <ele>517</ele>
        <time>2018-06-03T07:23:14.000Z</time>
      </trkpt>
      <trkpt lat="44.54226" lon="4.23641">
        <ele>516</ele>
        <time>2018-06-03T07:23:15.000Z</time>
      </trkpt>
      <trkpt lat="44.54223" lon="4.23648">
        <ele>516</ele>
        <time>2018-06-03T07:23:16.000Z</time>
      </trkpt>
      <trkpt lat="44.5422" lon="4.23655">
        <ele>516</ele>
        <time>2018-06-03T07:23:17.000Z</time>
      </trkpt>
      <trkpt lat="44.54218" lon="4.23663">
        <ele>516</ele>
        <time>2018-06-03T07:23:18.000Z</time>
      </trkpt>
      <trkpt lat="44.54217" lon="4.23671">
        <ele>512</ele>
        <time>2018-06-03T07:23:19.000Z</time>
      </trkpt>
      <trkpt lat="44.54218" lon="4.23679">
        <ele>512</ele>
        <time>2018-06-03T07:23:20.000Z</time>
      </trkpt>
      <trkpt lat="44.54219" lon="4.23687">
        <ele>512</ele>
        <time>2018-06-03T07:23:21.000Z</time>
      </trkpt>
      <trkpt lat="44.54221" lon="4.23696">
        <ele>512</ele>
        <time>2018-06-03T07:23:22.000Z</time>
      </trkpt>
      <trkpt lat="44.54223" lon="4.23704">
        <ele>511</ele>
        <time>2018-06-03T07:23:23.000Z</time>
      </trkpt>
      <trkpt lat="44.54225" lon="4.23712">
        <ele>511</ele>
        <time>2018-06-03T07:23:24.000Z</time>
      </trkpt>
      <trkpt lat="44.54228" lon="4.2372">
        <ele>511</ele>
        <time>2018-06-03T07:23:25.000Z</time>
      </trkpt>
      <trkpt lat="44.5423" lon="4.23728">
        <ele>511</ele>
        <time>2018-06-03T07:23:26.000Z</time>
      </trkpt>
      <trkpt lat="44.54233" lon="4.23735">
        <ele>510</ele>
        <time>2018-06-03T07:23:27.000Z</time>
      </trkpt>
      <trkpt lat="44.54234" lon="4.23742">
        <ele>510</ele>
        <time>2018-06-03T07:23:28.000Z</time>
      </trkpt>
      <trkpt lat="44.54236" lon="4.23749">
        <ele>510</ele>
        <time>2018-06-03T07:23:29.000Z</time>
      </trkpt>
      <trkpt lat="44.54237" lon="4.23756">
        <ele>508</ele>
        <time>2018-06-03T07:23:30.000Z</time>
      </trkpt>
      <trkpt lat="44.54238" lon="4.23763">
        <ele>507</ele>
        <time>2018-06-03T07:23:31.000Z</time>
      </trkpt>
      <trkpt lat="44.54239" lon="4.23768">
        <ele>507</ele>
        <time>2018-06-03T07:23:32.000Z</time>
      </trkpt>
      <trkpt lat="44.54239" lon="4.23775">
        <ele>506</ele>
        <time>2018-06-03T07:23:33.000Z</time>
      </trkpt>
      <trkpt lat="44.54241" lon="4.23781">
        <ele>506</ele>
        <time>2018-06-03T07:23:34.000Z</time>
      </trkpt>
      <trkpt lat="44.54242" lon="4.23786">
        <ele>505</ele>
        <time>2018-06-03T07:23:35.000Z</time>
      </trkpt>
      <trkpt lat="44.54243" lon="4.2379">
        <ele>505</ele>
        <time>2018-06-03T07:23:36.000Z</time>
      </trkpt>
      <trkpt lat="44.54244" lon="4.23795">
        <ele>505</ele>
        <time>2018-06-03T07:23:37.000Z</time>
      </trkpt>
      <trkpt lat="44.54244" lon="4.23799">
        <ele>504</ele>
        <time>2018-06-03T07:23:38.000Z</time>
      </trkpt>
      <trkpt lat="44.54243" lon="4.23803">
        <ele>504</ele>
        <time>2018-06-03T07:23:39.000Z</time>
      </trkpt>
      <trkpt lat="44.54242" lon="4.23806">
        <ele>504</ele>
        <time>2018-06-03T07:23:40.000Z</time>
      </trkpt>
      <trkpt lat="44.54239" lon="4.23808">
        <ele>504</ele>
        <time>2018-06-03T07:23:41.000Z</time>
      </trkpt>
      <trkpt lat="44.54237" lon="4.2381">
        <ele>504</ele>
        <time>2018-06-03T07:23:42.000Z</time>
      </trkpt>
      <trkpt lat="44.54234" lon="4.23811">
        <ele>504</ele>
        <time>2018-06-03T07:23:43.000Z</time>
      </trkpt>
      <trkpt lat="44.54232" lon="4.23811">
        <ele>504</ele>
        <time>2018-06-03T07:23:44.000Z</time>
      </trkpt>
      <trkpt lat="44.5423" lon="4.2381">
        <ele>504</ele>
        <time>2018-06-03T07:23:45.000Z</time>
      </trkpt>
      <trkpt lat="44.54229" lon="4.23809">
        <ele>504</ele>
        <time>2018-06-03T07:23:46.000Z</time>
      </trkpt>
      <trkpt lat="44.54227" lon="4.23809">
        <ele>504</ele>
        <time>2018-06-03T07:23:47.000Z</time>
      </trkpt>
      <trkpt lat="44.54226" lon="4.23809">
        <ele>504</ele>
        <time>2018-06-03T07:23:48.000Z</time>
      </trkpt>
      <trkpt lat="44.54225" lon="4.2381">
        <ele>504</ele>
        <time>2018-06-03T07:23:49.000Z</time>
      </trkpt>
      <trkpt lat="44.54225" lon="4.23811">
        <ele>504</ele>
        <time>2018-06-03T07:23:50.000Z</time>
      </trkpt>
      <trkpt lat="44.54224" lon="4.23811">
        <ele>504</ele>
        <time>2018-06-03T07:23:51.000Z</time>
      </trkpt>
      <trkpt lat="44.54224" lon="4.23812">
        <ele>504</ele>
        <time>2018-06-03T07:23:52.000Z</time>
      </trkpt>
      <trkpt lat="44.54223" lon="4.23813">
        <ele>504</ele>
        <time>2018-06-03T07:23:53.000Z</time>
      </trkpt>
      <trkpt lat="44.54223" lon="4.23813">
        <ele>504</ele>
        <time>2018-06-03T07:23:54.000Z</time>
      </trkpt>
      <trkpt lat="44.54222" lon="4.23814">
        <ele>504</ele>
        <time>2018-06-03T07:23:55.000Z</time>
      </trkpt>
      <trkpt lat="44.54221" lon="4.23816">
        <ele>504</ele>
        <time>2018-06-03T07:23:56.000Z</time>
      </trkpt>
      <trkpt lat="44.5422" lon="4.23818">
        <ele>504</ele>
        <time>2018-06-03T07:23:57.000Z</time>
      </trkpt>
      <trkpt lat="44.5422" lon="4.23821">
        <ele>504</ele>
        <time>2018-06-03T07:23:58.000Z</time>
      </trkpt>
      <trkpt lat="44.5422" lon="4.23823">
        <ele>504</ele>
        <time>2018-06-03T07:23:59.000Z</time>
      </trkpt>
      <trkpt lat="44.5422" lon="4.23824">
        <ele>504</ele>
        <time>2018-06-03T07:24:00.000Z</time>
      </trkpt>
      <trkpt lat="44.54219" lon="4.23827">
        <ele>503</ele>
        <time>2018-06-03T07:24:01.000Z</time>
      </trkpt>
      <trkpt lat="44.54218" lon="4.23829">
        <ele>503</ele>
        <time>2018-06-03T07:24:02.000Z</time>
      </trkpt>
      <trkpt lat="44.54217" lon="4.23831">
        <ele>503</ele>
        <time>2018-06-03T07:24:03.000Z</time>
      </trkpt>
      <trkpt lat="44.54217" lon="4.23833">
        <ele>503</ele>
        <time>2018-06-03T07:24:04.000Z</time>
      </trkpt>
      <trkpt lat="44.54216" lon="4.23834">
        <ele>499</ele>
        <time>2018-06-03T07:24:05.000Z</time>
      </trkpt>
      <trkpt lat="44.54216" lon="4.23836">
        <ele>499</ele>
        <time>2018-06-03T07:24:06.000Z</time>
      </trkpt>
      <trkpt lat="44.54215" lon="4.23838">
        <ele>499</ele>
        <time>2018-06-03T07:24:07.000Z</time>
      </trkpt>
      <trkpt lat="44.54214" lon="4.23841">
        <ele>499</ele>
        <time>2018-06-03T07:24:08.000Z</time>
      </trkpt>
      <trkpt lat="44.54213" lon="4.23844">
        <ele>499</ele>
        <time>2018-06-03T07:24:09.000Z</time>
      </trkpt>
      <trkpt lat="44.54212" lon="4.23847">
        <ele>499</ele>
        <time>2018-06-03T07:24:10.000Z</time>
      </trkpt>
      <trkpt lat="44.54212" lon="4.2385">
        <ele>499</ele>
        <time>2018-06-03T07:24:11.000Z</time>
      </trkpt>
      <trkpt lat="44.54212" lon="4.23854">
        <ele>498</ele>
        <time>2018-06-03T07:24:12.000Z</time>
      </trkpt>
      <trkpt lat="44.54211" lon="4.23858">
        <ele>498</ele>
        <time>2018-06-03T07:24:13.000Z</time>
      </trkpt>
      <trkpt lat="44.5421" lon="4.23863">
        <ele>498</ele>
        <time>2018-06-03T07:24:14.000Z</time>
      </trkpt>
      <trkpt lat="44.54209" lon="4.23869">
        <ele>498</ele>
        <time>2018-06-03T07:24:15.000Z</time>
      </trkpt>
      <trkpt lat="44.54208" lon="4.23875">
        <ele>497</ele>
        <time>2018-06-03T07:24:16.000Z</time>
      </trkpt>
      <trkpt lat="44.54208" lon="4.23882">
        <ele>497</ele>
        <time>2018-06-03T07:24:17.000Z</time>
      </trkpt>
      <trkpt lat="44.54207" lon="4.23889">
        <ele>497</ele>
        <time>2018-06-03T07:24:18.000Z</time>
      </trkpt>
      <trkpt lat="44.54207" lon="4.23896">
        <ele>497</ele>
        <time>2018-06-03T07:24:19.000Z</time>
      </trkpt>
      <trkpt lat="44.54206" lon="4.23903">
        <ele>496</ele>
        <time>2018-06-03T07:24:20.000Z</time>
      </trkpt>
      <trkpt lat="44.54204" lon="4.2391">
        <ele>496</ele>
        <time>2018-06-03T07:24:21.000Z</time>
      </trkpt>
      <trkpt lat="44.54202" lon="4.23915">
        <ele>496</ele>
        <time>2018-06-03T07:24:22.000Z</time>
      </trkpt>
      <trkpt lat="44.54199" lon="4.23919">
        <ele>493</ele>
        <time>2018-06-03T07:24:23.000Z</time>
      </trkpt>
      <trkpt lat="44.54196" lon="4.23922">
        <ele>493</ele>
        <time>2018-06-03T07:24:24.000Z</time>
      </trkpt>
      <trkpt lat="44.54194" lon="4.23925">
        <ele>493</ele>
        <time>2018-06-03T07:24:25.000Z</time>
      </trkpt>
      <trkpt lat="44.54191" lon="4.23928">
        <ele>493</ele>
        <time>2018-06-03T07:24:26.000Z</time>
      </trkpt>
      <trkpt lat="44.54187" lon="4.2393">
        <ele>493</ele>
        <time>2018-06-03T07:24:27.000Z</time>
      </trkpt>
      <trkpt lat="44.54182" lon="4.23932">
        <ele>493</ele>
        <time>2018-06-03T07:24:28.000Z</time>
      </trkpt>
      <trkpt lat="44.54178" lon="4.23935">
        <ele>493</ele>
        <time>2018-06-03T07:24:29.000Z</time>
      </trkpt>
      <trkpt lat="44.54174" lon="4.23939">
        <ele>493</ele>
        <time>2018-06-03T07:24:30.000Z</time>
      </trkpt>
      <trkpt lat="44.5417" lon="4.23943">
        <ele>493</ele>
        <time>2018-06-03T07:24:31.000Z</time>
      </trkpt>
      <trkpt lat="44.54167" lon="4.23947">
        <ele>493</ele>
        <time>2018-06-03T07:24:32.000Z</time>
      </trkpt>
      <trkpt lat="44.54165" lon="4.23951">
        <ele>494</ele>
        <time>2018-06-03T07:24:33.000Z</time>
      </trkpt>
      <trkpt lat="44.54163" lon="4.23956">
        <ele>494</ele>
        <time>2018-06-03T07:24:34.000Z</time>
      </trkpt>
      <trkpt lat="44.54163" lon="4.23961">
        <ele>493</ele>
        <time>2018-06-03T07:24:35.000Z</time>
      </trkpt>
      <trkpt lat="44.54163" lon="4.23965">
        <ele>493</ele>
        <time>2018-06-03T07:24:36.000Z</time>
      </trkpt>
      <trkpt lat="44.54163" lon="4.23969">
        <ele>493</ele>
        <time>2018-06-03T07:24:37.000Z</time>
      </trkpt>
      <trkpt lat="44.54164" lon="4.23972">
        <ele>493</ele>
        <time>2018-06-03T07:24:38.000Z</time>
      </trkpt>
      <trkpt lat="44.54164" lon="4.23975">
        <ele>493</ele>
        <time>2018-06-03T07:24:39.000Z</time>
      </trkpt>
      <trkpt lat="44.54165" lon="4.23978">
        <ele>493</ele>
        <time>2018-06-03T07:24:40.000Z</time>
      </trkpt>
      <trkpt lat="44.54166" lon="4.23982">
        <ele>492</ele>
        <time>2018-06-03T07:24:41.000Z</time>
      </trkpt>
      <trkpt lat="44.54168" lon="4.23984">
        <ele>491</ele>
        <time>2018-06-03T07:24:42.000Z</time>
      </trkpt>
      <trkpt lat="44.54169" lon="4.23985">
        <ele>491</ele>
        <time>2018-06-03T07:24:43.000Z</time>
      </trkpt>
      <trkpt lat="44.5417" lon="4.23987">
        <ele>491</ele>
        <time>2018-06-03T07:24:44.000Z</time>
      </trkpt>
      <trkpt lat="44.54171" lon="4.2399">
        <ele>491</ele>
        <time>2018-06-03T07:24:45.000Z</time>
      </trkpt>
      <trkpt lat="44.54172" lon="4.23993">
        <ele>491</ele>
        <time>2018-06-03T07:24:46.000Z</time>
      </trkpt>
      <trkpt lat="44.54173" lon="4.23996">
        <ele>491</ele>
        <time>2018-06-03T07:24:47.000Z</time>
      </trkpt>
      <trkpt lat="44.54175" lon="4.23998">
        <ele>491</ele>
        <time>2018-06-03T07:24:48.000Z</time>
      </trkpt>
      <trkpt lat="44.54176" lon="4.24">
        <ele>491</ele>
        <time>2018-06-03T07:24:49.000Z</time>
      </trkpt>
      <trkpt lat="44.54178" lon="4.24001">
        <ele>491</ele>
        <time>2018-06-03T07:24:50.000Z</time>
      </trkpt>
      <trkpt lat="44.54179" lon="4.24001">
        <ele>491</ele>
        <time>2018-06-03T07:24:51.000Z</time>
      </trkpt>
      <trkpt lat="44.54179" lon="4.24001">
        <ele>491</ele>
        <time>2018-06-03T07:24:52.000Z</time>
      </trkpt>
      <trkpt lat="44.54179" lon="4.24001">
        <ele>491</ele>
        <time>2018-06-03T07:24:53.000Z</time>
      </trkpt>
      <trkpt lat="44.54179" lon="4.24001">
        <ele>491</ele>
        <time>2018-06-03T07:24:54.000Z</time>
      </trkpt>
      <trkpt lat="44.5418" lon="4.24002">
        <ele>491</ele>
        <time>2018-06-03T07:24:55.000Z</time>
      </trkpt>
      <trkpt lat="44.5418" lon="4.24002">
        <ele>491</ele>
        <time>2018-06-03T07:24:56.000Z</time>
      </trkpt>
      <trkpt lat="44.54179" lon="4.24003">
        <ele>491</ele>
        <time>2018-06-03T07:24:57.000Z</time>
      </trkpt>
      <trkpt lat="44.54179" lon="4.24004">
        <ele>491</ele>
        <time>2018-06-03T07:24:58.000Z</time>
      </trkpt>
      <trkpt lat="44.54179" lon="4.24006">
        <ele>491</ele>
        <time>2018-06-03T07:24:59.000Z</time>
      </trkpt>
      <trkpt lat="44.54179" lon="4.24007">
        <ele>491</ele>
        <time>2018-06-03T07:25:00.000Z</time>
      </trkpt>
      <trkpt lat="44.54179" lon="4.24007">
        <ele>491</ele>
        <time>2018-06-03T07:25:01.000Z</time>
      </trkpt>
      <trkpt lat="44.54179" lon="4.24007">
        <ele>491</ele>
        <time>2018-06-03T07:25:02.000Z</time>
      </trkpt>
      <trkpt lat="44.54179" lon="4.24008">
        <ele>491</ele>
        <time>2018-06-03T07:25:03.000Z</time>
      </trkpt>
      <trkpt lat="44.54179" lon="4.24008">
        <ele>491</ele>
        <time>2018-06-03T07:25:04.000Z</time>
      </trkpt>
      <trkpt lat="44.54179" lon="4.2401">
        <ele>491</ele>
        <time>2018-06-03T07:25:05.000Z</time>
      </trkpt>
      <trkpt lat="44.5418" lon="4.24013">
        <ele>491</ele>
        <time>2018-06-03T07:25:06.000Z</time>
      </trkpt>
      <trkpt lat="44.5418" lon="4.24015">
        <ele>492</ele>
        <time>2018-06-03T07:25:07.000Z</time>
      </trkpt>
      <trkpt lat="44.5418" lon="4.24018">
        <ele>492</ele>
        <time>2018-06-03T07:25:08.000Z</time>
      </trkpt>
      <trkpt lat="44.54181" lon="4.24022">
        <ele>492</ele>
        <time>2018-06-03T07:25:09.000Z</time>
      </trkpt>
      <trkpt lat="44.54182" lon="4.24026">
        <ele>492</ele>
        <time>2018-06-03T07:25:10.000Z</time>
      </trkpt>
      <trkpt lat="44.54183" lon="4.24028">
        <ele>492</ele>
        <time>2018-06-03T07:25:11.000Z</time>
      </trkpt>
      <trkpt lat="44.54183" lon="4.24031">
        <ele>492</ele>
        <time>2018-06-03T07:25:12.000Z</time>
      </trkpt>
      <trkpt lat="44.54183" lon="4.24034">
        <ele>492</ele>
        <time>2018-06-03T07:25:13.000Z</time>
      </trkpt>
      <trkpt lat="44.54183" lon="4.24036">
        <ele>492</ele>
        <time>2018-06-03T07:25:14.000Z</time>
      </trkpt>
      <trkpt lat="44.54185" lon="4.24038">
        <ele>492</ele>
        <time>2018-06-03T07:25:15.000Z</time>
      </trkpt>
      <trkpt lat="44.54185" lon="4.2404">
        <ele>492</ele>
        <time>2018-06-03T07:25:16.000Z</time>
      </trkpt>
      <trkpt lat="44.54186" lon="4.24041">
        <ele>492</ele>
        <time>2018-06-03T07:25:17.000Z</time>
      </trkpt>
      <trkpt lat="44.54188" lon="4.24043">
        <ele>492</ele>
        <time>2018-06-03T07:25:18.000Z</time>
      </trkpt>
      <trkpt lat="44.54189" lon="4.24045">
        <ele>492</ele>
        <time>2018-06-03T07:25:19.000Z</time>
      </trkpt>
      <trkpt lat="44.5419" lon="4.24048">
        <ele>493</ele>
        <time>2018-06-03T07:25:20.000Z</time>
      </trkpt>
      <trkpt lat="44.54191" lon="4.24051">
        <ele>493</ele>
        <time>2018-06-03T07:25:21.000Z</time>
      </trkpt>
      <trkpt lat="44.54192" lon="4.24054">
        <ele>493</ele>
        <time>2018-06-03T07:25:22.000Z</time>
      </trkpt>
      <trkpt lat="44.54194" lon="4.24057">
        <ele>493</ele>
        <time>2018-06-03T07:25:23.000Z</time>
      </trkpt>
      <trkpt lat="44.54195" lon="4.24059">
        <ele>493</ele>
        <time>2018-06-03T07:25:24.000Z</time>
      </trkpt>
      <trkpt lat="44.54197" lon="4.24062">
        <ele>493</ele>
        <time>2018-06-03T07:25:25.000Z</time>
      </trkpt>
      <trkpt lat="44.54199" lon="4.24064">
        <ele>493</ele>
        <time>2018-06-03T07:25:26.000Z</time>
      </trkpt>
      <trkpt lat="44.54201" lon="4.24067">
        <ele>493</ele>
        <time>2018-06-03T07:25:27.000Z</time>
      </trkpt>
      <trkpt lat="44.54204" lon="4.24069">
        <ele>493</ele>
        <time>2018-06-03T07:25:28.000Z</time>
      </trkpt>
      <trkpt lat="44.54207" lon="4.2407">
        <ele>493</ele>
        <time>2018-06-03T07:25:29.000Z</time>
      </trkpt>
      <trkpt lat="44.54209" lon="4.24072">
        <ele>493</ele>
        <time>2018-06-03T07:25:30.000Z</time>
      </trkpt>
      <trkpt lat="44.54212" lon="4.24073">
        <ele>493</ele>
        <time>2018-06-03T07:25:31.000Z</time>
      </trkpt>
      <trkpt lat="44.54214" lon="4.24073">
        <ele>493</ele>
        <time>2018-06-03T07:25:32.000Z</time>
      </trkpt>
      <trkpt lat="44.54217" lon="4.24072">
        <ele>493</ele>
        <time>2018-06-03T07:25:33.000Z</time>
      </trkpt>
      <trkpt lat="44.54221" lon="4.24072">
        <ele>493</ele>
        <time>2018-06-03T07:25:34.000Z</time>
      </trkpt>
      <trkpt lat="44.54224" lon="4.24071">
        <ele>493</ele>
        <time>2018-06-03T07:25:35.000Z</time>
      </trkpt>
      <trkpt lat="44.54227" lon="4.24071">
        <ele>493</ele>
        <time>2018-06-03T07:25:36.000Z</time>
      </trkpt>
      <trkpt lat="44.54229" lon="4.24071">
        <ele>493</ele>
        <time>2018-06-03T07:25:37.000Z</time>
      </trkpt>
      <trkpt lat="44.54232" lon="4.2407">
        <ele>493</ele>
        <time>2018-06-03T07:25:38.000Z</time>
      </trkpt>
      <trkpt lat="44.54234" lon="4.24069">
        <ele>493</ele>
        <time>2018-06-03T07:25:39.000Z</time>
      </trkpt>
      <trkpt lat="44.54236" lon="4.24069">
        <ele>493</ele>
        <time>2018-06-03T07:25:40.000Z</time>
      </trkpt>
      <trkpt lat="44.54238" lon="4.24069">
        <ele>493</ele>
        <time>2018-06-03T07:25:41.000Z</time>
      </trkpt>
      <trkpt lat="44.54241" lon="4.24069">
        <ele>493</ele>
        <time>2018-06-03T07:25:42.000Z</time>
      </trkpt>
      <trkpt lat="44.54243" lon="4.24068">
        <ele>493</ele>
        <time>2018-06-03T07:25:43.000Z</time>
      </trkpt>
      <trkpt lat="44.54245" lon="4.24067">
        <ele>493</ele>
        <time>2018-06-03T07:25:44.000Z</time>
      </trkpt>
      <trkpt lat="44.54247" lon="4.24066">
        <ele>493</ele>
        <time>2018-06-03T07:25:45.000Z</time>
      </trkpt>
      <trkpt lat="44.54249" lon="4.24067">
        <ele>493</ele>
        <time>2018-06-03T07:25:46.000Z</time>
      </trkpt>
      <trkpt lat="44.54252" lon="4.24066">
        <ele>491</ele>
        <time>2018-06-03T07:25:47.000Z</time>
      </trkpt>
      <trkpt lat="44.54254" lon="4.24066">
        <ele>491</ele>
        <time>2018-06-03T07:25:48.000Z</time>
      </trkpt>
      <trkpt lat="44.54256" lon="4.24066">
        <ele>491</ele>
        <time>2018-06-03T07:25:49.000Z</time>
      </trkpt>
      <trkpt lat="44.54258" lon="4.24066">
        <ele>491</ele>
        <time>2018-06-03T07:25:50.000Z</time>
      </trkpt>
      <trkpt lat="44.54261" lon="4.24067">
        <ele>491</ele>
        <time>2018-06-03T07:25:51.000Z</time>
      </trkpt>
      <trkpt lat="44.54263" lon="4.24068">
        <ele>491</ele>
        <time>2018-06-03T07:25:52.000Z</time>
      </trkpt>
      <trkpt lat="44.54265" lon="4.24069">
        <ele>490</ele>
        <time>2018-06-03T07:25:53.000Z</time>
      </trkpt>
      <trkpt lat="44.54268" lon="4.2407">
        <ele>490</ele>
        <time>2018-06-03T07:25:54.000Z</time>
      </trkpt>
      <trkpt lat="44.54271" lon="4.2407">
        <ele>490</ele>
        <time>2018-06-03T07:25:55.000Z</time>
      </trkpt>
      <trkpt lat="44.54274" lon="4.24071">
        <ele>490</ele>
        <time>2018-06-03T07:25:56.000Z</time>
      </trkpt>
      <trkpt lat="44.54276" lon="4.24071">
        <ele>490</ele>
        <time>2018-06-03T07:25:57.000Z</time>
      </trkpt>
      <trkpt lat="44.54279" lon="4.24072">
        <ele>490</ele>
        <time>2018-06-03T07:25:58.000Z</time>
      </trkpt>
      <trkpt lat="44.54282" lon="4.24072">
        <ele>490</ele>
        <time>2018-06-03T07:25:59.000Z</time>
      </trkpt>
      <trkpt lat="44.54285" lon="4.24073">
        <ele>490</ele>
        <time>2018-06-03T07:26:00.000Z</time>
      </trkpt>
      <trkpt lat="44.54287" lon="4.24073">
        <ele>490</ele>
        <time>2018-06-03T07:26:01.000Z</time>
      </trkpt>
      <trkpt lat="44.5429" lon="4.24073">
        <ele>490</ele>
        <time>2018-06-03T07:26:02.000Z</time>
      </trkpt>
      <trkpt lat="44.54292" lon="4.24073">
        <ele>490</ele>
        <time>2018-06-03T07:26:03.000Z</time>
      </trkpt>
      <trkpt lat="44.54295" lon="4.24073">
        <ele>490</ele>
        <time>2018-06-03T07:26:04.000Z</time>
      </trkpt>
      <trkpt lat="44.54298" lon="4.24074">
        <ele>490</ele>
        <time>2018-06-03T07:26:05.000Z</time>
      </trkpt>
      <trkpt lat="44.543" lon="4.24075">
        <ele>490</ele>
        <time>2018-06-03T07:26:06.000Z</time>
      </trkpt>
      <trkpt lat="44.54303" lon="4.24076">
        <ele>490</ele>
        <time>2018-06-03T07:26:07.000Z</time>
      </trkpt>
      <trkpt lat="44.54305" lon="4.24076">
        <ele>490</ele>
        <time>2018-06-03T07:26:08.000Z</time>
      </trkpt>
      <trkpt lat="44.54308" lon="4.24077">
        <ele>490</ele>
        <time>2018-06-03T07:26:09.000Z</time>
      </trkpt>
      <trkpt lat="44.5431" lon="4.24079">
        <ele>491</ele>
        <time>2018-06-03T07:26:10.000Z</time>
      </trkpt>
      <trkpt lat="44.54313" lon="4.24081">
        <ele>491</ele>
        <time>2018-06-03T07:26:11.000Z</time>
      </trkpt>
      <trkpt lat="44.54315" lon="4.24083">
        <ele>491</ele>
        <time>2018-06-03T07:26:12.000Z</time>
      </trkpt>
      <trkpt lat="44.54317" lon="4.24085">
        <ele>497</ele>
        <time>2018-06-03T07:26:13.000Z</time>
      </trkpt>
      <trkpt lat="44.54319" lon="4.24088">
        <ele>497</ele>
        <time>2018-06-03T07:26:14.000Z</time>
      </trkpt>
      <trkpt lat="44.54321" lon="4.2409">
        <ele>497</ele>
        <time>2018-06-03T07:26:15.000Z</time>
      </trkpt>
      <trkpt lat="44.54323" lon="4.24094">
        <ele>497</ele>
        <time>2018-06-03T07:26:16.000Z</time>
      </trkpt>
      <trkpt lat="44.54324" lon="4.24097">
        <ele>497</ele>
        <time>2018-06-03T07:26:17.000Z</time>
      </trkpt>
      <trkpt lat="44.54325" lon="4.241">
        <ele>497</ele>
        <time>2018-06-03T07:26:18.000Z</time>
      </trkpt>
      <trkpt lat="44.54326" lon="4.24103">
        <ele>498</ele>
        <time>2018-06-03T07:26:19.000Z</time>
      </trkpt>
      <trkpt lat="44.54328" lon="4.24106">
        <ele>498</ele>
        <time>2018-06-03T07:26:20.000Z</time>
      </trkpt>
      <trkpt lat="44.54329" lon="4.24108">
        <ele>498</ele>
        <time>2018-06-03T07:26:21.000Z</time>
      </trkpt>
      <trkpt lat="44.54331" lon="4.2411">
        <ele>498</ele>
        <time>2018-06-03T07:26:22.000Z</time>
      </trkpt>
      <trkpt lat="44.54333" lon="4.24112">
        <ele>499</ele>
        <time>2018-06-03T07:26:23.000Z</time>
      </trkpt>
      <trkpt lat="44.54335" lon="4.24113">
        <ele>500</ele>
        <time>2018-06-03T07:26:24.000Z</time>
      </trkpt>
      <trkpt lat="44.54337" lon="4.24114">
        <ele>500</ele>
        <time>2018-06-03T07:26:25.000Z</time>
      </trkpt>
      <trkpt lat="44.54339" lon="4.24116">
        <ele>501</ele>
        <time>2018-06-03T07:26:26.000Z</time>
      </trkpt>
      <trkpt lat="44.54341" lon="4.24117">
        <ele>501</ele>
        <time>2018-06-03T07:26:27.000Z</time>
      </trkpt>
      <trkpt lat="44.54343" lon="4.24117">
        <ele>501</ele>
        <time>2018-06-03T07:26:28.000Z</time>
      </trkpt>
      <trkpt lat="44.54345" lon="4.24117">
        <ele>501</ele>
        <time>2018-06-03T07:26:29.000Z</time>
      </trkpt>
      <trkpt lat="44.54348" lon="4.24117">
        <ele>501</ele>
        <time>2018-06-03T07:26:30.000Z</time>
      </trkpt>
      <trkpt lat="44.54351" lon="4.24117">
        <ele>501</ele>
        <time>2018-06-03T07:26:31.000Z</time>
      </trkpt>
      <trkpt lat="44.54354" lon="4.24117">
        <ele>501</ele>
        <time>2018-06-03T07:26:32.000Z</time>
      </trkpt>
      <trkpt lat="44.54357" lon="4.24118">
        <ele>501</ele>
        <time>2018-06-03T07:26:33.000Z</time>
      </trkpt>
      <trkpt lat="44.54359" lon="4.24118">
        <ele>501</ele>
        <time>2018-06-03T07:26:34.000Z</time>
      </trkpt>
      <trkpt lat="44.54362" lon="4.24117">
        <ele>501</ele>
        <time>2018-06-03T07:26:35.000Z</time>
      </trkpt>
      <trkpt lat="44.54365" lon="4.24117">
        <ele>501</ele>
        <time>2018-06-03T07:26:36.000Z</time>
      </trkpt>
      <trkpt lat="44.54368" lon="4.24117">
        <ele>501</ele>
        <time>2018-06-03T07:26:37.000Z</time>
      </trkpt>
      <trkpt lat="44.5437" lon="4.24117">
        <ele>501</ele>
        <time>2018-06-03T07:26:38.000Z</time>
      </trkpt>
      <trkpt lat="44.54372" lon="4.24118">
        <ele>501</ele>
        <time>2018-06-03T07:26:39.000Z</time>
      </trkpt>
      <trkpt lat="44.54375" lon="4.24118">
        <ele>501</ele>
        <time>2018-06-03T07:26:40.000Z</time>
      </trkpt>
      <trkpt lat="44.54377" lon="4.24119">
        <ele>502</ele>
        <time>2018-06-03T07:26:41.000Z</time>
      </trkpt>
      <trkpt lat="44.54379" lon="4.2412">
        <ele>502</ele>
        <time>2018-06-03T07:26:42.000Z</time>
      </trkpt>
      <trkpt lat="44.54382" lon="4.2412">
        <ele>502</ele>
        <time>2018-06-03T07:26:43.000Z</time>
      </trkpt>
      <trkpt lat="44.54384" lon="4.24119">
        <ele>502</ele>
        <time>2018-06-03T07:26:44.000Z</time>
      </trkpt>
      <trkpt lat="44.54386" lon="4.24119">
        <ele>502</ele>
        <time>2018-06-03T07:26:45.000Z</time>
      </trkpt>
      <trkpt lat="44.54389" lon="4.24119">
        <ele>502</ele>
        <time>2018-06-03T07:26:46.000Z</time>
      </trkpt>
      <trkpt lat="44.54391" lon="4.2412">
        <ele>502</ele>
        <time>2018-06-03T07:26:47.000Z</time>
      </trkpt>
      <trkpt lat="44.54394" lon="4.2412">
        <ele>502</ele>
        <time>2018-06-03T07:26:48.000Z</time>
      </trkpt>
      <trkpt lat="44.54396" lon="4.24121">
        <ele>502</ele>
        <time>2018-06-03T07:26:49.000Z</time>
      </trkpt>
      <trkpt lat="44.54398" lon="4.24121">
        <ele>502</ele>
        <time>2018-06-03T07:26:50.000Z</time>
      </trkpt>
      <trkpt lat="44.54401" lon="4.24122">
        <ele>502</ele>
        <time>2018-06-03T07:26:51.000Z</time>
      </trkpt>
      <trkpt lat="44.54403" lon="4.24122">
        <ele>502</ele>
        <time>2018-06-03T07:26:52.000Z</time>
      </trkpt>
      <trkpt lat="44.54406" lon="4.24123">
        <ele>502</ele>
        <time>2018-06-03T07:26:53.000Z</time>
      </trkpt>
      <trkpt lat="44.54408" lon="4.24124">
        <ele>502</ele>
        <time>2018-06-03T07:26:54.000Z</time>
      </trkpt>
      <trkpt lat="44.54411" lon="4.24125">
        <ele>502</ele>
        <time>2018-06-03T07:26:55.000Z</time>
      </trkpt>
      <trkpt lat="44.54414" lon="4.24127">
        <ele>502</ele>
        <time>2018-06-03T07:26:56.000Z</time>
      </trkpt>
      <trkpt lat="44.54417" lon="4.24128">
        <ele>503</ele>
        <time>2018-06-03T07:26:57.000Z</time>
      </trkpt>
      <trkpt lat="44.5442" lon="4.2413">
        <ele>503</ele>
        <time>2018-06-03T07:26:58.000Z</time>
      </trkpt>
      <trkpt lat="44.54422" lon="4.24132">
        <ele>503</ele>
        <time>2018-06-03T07:26:59.000Z</time>
      </trkpt>
      <trkpt lat="44.54425" lon="4.24133">
        <ele>503</ele>
        <time>2018-06-03T07:27:00.000Z</time>
      </trkpt>
      <trkpt lat="44.54428" lon="4.24135">
        <ele>503</ele>
        <time>2018-06-03T07:27:01.000Z</time>
      </trkpt>
      <trkpt lat="44.5443" lon="4.24137">
        <ele>503</ele>
        <time>2018-06-03T07:27:02.000Z</time>
      </trkpt>
      <trkpt lat="44.54433" lon="4.24137">
        <ele>503</ele>
        <time>2018-06-03T07:27:03.000Z</time>
      </trkpt>
      <trkpt lat="44.54435" lon="4.24138">
        <ele>503</ele>
        <time>2018-06-03T07:27:04.000Z</time>
      </trkpt>
      <trkpt lat="44.54437" lon="4.24139">
        <ele>504</ele>
        <time>2018-06-03T07:27:05.000Z</time>
      </trkpt>
      <trkpt lat="44.54439" lon="4.2414">
        <ele>504</ele>
        <time>2018-06-03T07:27:06.000Z</time>
      </trkpt>
      <trkpt lat="44.54441" lon="4.2414">
        <ele>504</ele>
        <time>2018-06-03T07:27:07.000Z</time>
      </trkpt>
      <trkpt lat="44.54443" lon="4.24141">
        <ele>504</ele>
        <time>2018-06-03T07:27:08.000Z</time>
      </trkpt>
      <trkpt lat="44.54445" lon="4.24141">
        <ele>504</ele>
        <time>2018-06-03T07:27:09.000Z</time>
      </trkpt>
      <trkpt lat="44.54447" lon="4.24142">
        <ele>504</ele>
        <time>2018-06-03T07:27:10.000Z</time>
      </trkpt>
      <trkpt lat="44.54449" lon="4.24142">
        <ele>504</ele>
        <time>2018-06-03T07:27:11.000Z</time>
      </trkpt>
      <trkpt lat="44.54452" lon="4.24144">
        <ele>504</ele>
        <time>2018-06-03T07:27:12.000Z</time>
      </trkpt>
      <trkpt lat="44.54454" lon="4.24145">
        <ele>504</ele>
        <time>2018-06-03T07:27:13.000Z</time>
      </trkpt>
      <trkpt lat="44.54456" lon="4.24146">
        <ele>504</ele>
        <time>2018-06-03T07:27:14.000Z</time>
      </trkpt>
      <trkpt lat="44.54457" lon="4.24147">
        <ele>504</ele>
        <time>2018-06-03T07:27:15.000Z</time>
      </trkpt>
      <trkpt lat="44.54459" lon="4.24149">
        <ele>504</ele>
        <time>2018-06-03T07:27:16.000Z</time>
      </trkpt>
      <trkpt lat="44.54461" lon="4.24151">
        <ele>504</ele>
        <time>2018-06-03T07:27:17.000Z</time>
      </trkpt>
      <trkpt lat="44.54463" lon="4.24153">
        <ele>504</ele>
        <time>2018-06-03T07:27:18.000Z</time>
      </trkpt>
      <trkpt lat="44.54466" lon="4.24154">
        <ele>504</ele>
        <time>2018-06-03T07:27:19.000Z</time>
      </trkpt>
      <trkpt lat="44.54468" lon="4.24155">
        <ele>505</ele>
        <time>2018-06-03T07:27:20.000Z</time>
      </trkpt>
      <trkpt lat="44.5447" lon="4.24156">
        <ele>505</ele>
        <time>2018-06-03T07:27:21.000Z</time>
      </trkpt>
      <trkpt lat="44.54472" lon="4.24157">
        <ele>505</ele>
        <time>2018-06-03T07:27:22.000Z</time>
      </trkpt>
      <trkpt lat="44.54474" lon="4.24159">
        <ele>505</ele>
        <time>2018-06-03T07:27:23.000Z</time>
      </trkpt>
      <trkpt lat="44.54477" lon="4.24161">
        <ele>505</ele>
        <time>2018-06-03T07:27:24.000Z</time>
      </trkpt>
      <trkpt lat="44.54479" lon="4.24163">
        <ele>506</ele>
        <time>2018-06-03T07:27:25.000Z</time>
      </trkpt>
      <trkpt lat="44.5448" lon="4.24166">
        <ele>506</ele>
        <time>2018-06-03T07:27:26.000Z</time>
      </trkpt>
      <trkpt lat="44.54482" lon="4.24169">
        <ele>512</ele>
        <time>2018-06-03T07:27:27.000Z</time>
      </trkpt>
      <trkpt lat="44.54484" lon="4.24172">
        <ele>512</ele>
        <time>2018-06-03T07:27:28.000Z</time>
      </trkpt>
      <trkpt lat="44.54486" lon="4.24174">
        <ele>512</ele>
        <time>2018-06-03T07:27:29.000Z</time>
      </trkpt>
      <trkpt lat="44.54489" lon="4.24176">
        <ele>512</ele>
        <time>2018-06-03T07:27:30.000Z</time>
      </trkpt>
      <trkpt lat="44.54491" lon="4.24178">
        <ele>512</ele>
        <time>2018-06-03T07:27:31.000Z</time>
      </trkpt>
      <trkpt lat="44.54493" lon="4.2418">
        <ele>512</ele>
        <time>2018-06-03T07:27:32.000Z</time>
      </trkpt>
      <trkpt lat="44.54496" lon="4.24182">
        <ele>512</ele>
        <time>2018-06-03T07:27:33.000Z</time>
      </trkpt>
      <trkpt lat="44.54498" lon="4.24184">
        <ele>512</ele>
        <time>2018-06-03T07:27:34.000Z</time>
      </trkpt>
      <trkpt lat="44.54501" lon="4.24186">
        <ele>511</ele>
        <time>2018-06-03T07:27:35.000Z</time>
      </trkpt>
      <trkpt lat="44.54503" lon="4.24189">
        <ele>511</ele>
        <time>2018-06-03T07:27:36.000Z</time>
      </trkpt>
      <trkpt lat="44.54506" lon="4.24191">
        <ele>512</ele>
        <time>2018-06-03T07:27:37.000Z</time>
      </trkpt>
      <trkpt lat="44.54508" lon="4.24194">
        <ele>512</ele>
        <time>2018-06-03T07:27:38.000Z</time>
      </trkpt>
      <trkpt lat="44.54511" lon="4.24197">
        <ele>512</ele>
        <time>2018-06-03T07:27:39.000Z</time>
      </trkpt>
      <trkpt lat="44.54514" lon="4.24198">
        <ele>512</ele>
        <time>2018-06-03T07:27:40.000Z</time>
      </trkpt>
      <trkpt lat="44.54516" lon="4.24201">
        <ele>512</ele>
        <time>2018-06-03T07:27:41.000Z</time>
      </trkpt>
      <trkpt lat="44.54518" lon="4.24203">
        <ele>512</ele>
        <time>2018-06-03T07:27:42.000Z</time>
      </trkpt>
      <trkpt lat="44.54521" lon="4.24205">
        <ele>512</ele>
        <time>2018-06-03T07:27:43.000Z</time>
      </trkpt>
      <trkpt lat="44.54523" lon="4.24207">
        <ele>512</ele>
        <time>2018-06-03T07:27:44.000Z</time>
      </trkpt>
      <trkpt lat="44.54525" lon="4.24209">
        <ele>512</ele>
        <time>2018-06-03T07:27:45.000Z</time>
      </trkpt>
      <trkpt lat="44.54528" lon="4.24211">
        <ele>512</ele>
        <time>2018-06-03T07:27:46.000Z</time>
      </trkpt>
      <trkpt lat="44.5453" lon="4.24213">
        <ele>512</ele>
        <time>2018-06-03T07:27:47.000Z</time>
      </trkpt>
      <trkpt lat="44.54532" lon="4.24215">
        <ele>512</ele>
        <time>2018-06-03T07:27:48.000Z</time>
      </trkpt>
      <trkpt lat="44.54535" lon="4.24218">
        <ele>512</ele>
        <time>2018-06-03T07:27:49.000Z</time>
      </trkpt>
      <trkpt lat="44.54537" lon="4.2422">
        <ele>512</ele>
        <time>2018-06-03T07:27:50.000Z</time>
      </trkpt>
      <trkpt lat="44.5454" lon="4.24222">
        <ele>512</ele>
        <time>2018-06-03T07:27:51.000Z</time>
      </trkpt>
      <trkpt lat="44.54542" lon="4.24225">
        <ele>512</ele>
        <time>2018-06-03T07:27:52.000Z</time>
      </trkpt>
      <trkpt lat="44.54544" lon="4.24228">
        <ele>512</ele>
        <time>2018-06-03T07:27:53.000Z</time>
      </trkpt>
      <trkpt lat="44.54547" lon="4.24231">
        <ele>512</ele>
        <time>2018-06-03T07:27:54.000Z</time>
      </trkpt>
      <trkpt lat="44.5455" lon="4.24234">
        <ele>512</ele>
        <time>2018-06-03T07:27:55.000Z</time>
      </trkpt>
      <trkpt lat="44.54553" lon="4.24236">
        <ele>512</ele>
        <time>2018-06-03T07:27:56.000Z</time>
      </trkpt>
      <trkpt lat="44.54557" lon="4.2424">
        <ele>512</ele>
        <time>2018-06-03T07:27:57.000Z</time>
      </trkpt>
      <trkpt lat="44.5456" lon="4.24245">
        <ele>512</ele>
        <time>2018-06-03T07:27:58.000Z</time>
      </trkpt>
      <trkpt lat="44.54564" lon="4.2425">
        <ele>514</ele>
        <time>2018-06-03T07:27:59.000Z</time>
      </trkpt>
      <trkpt lat="44.54567" lon="4.24256">
        <ele>514</ele>
        <time>2018-06-03T07:28:00.000Z</time>
      </trkpt>
      <trkpt lat="44.54571" lon="4.24262">
        <ele>514</ele>
        <time>2018-06-03T07:28:01.000Z</time>
      </trkpt>
      <trkpt lat="44.54575" lon="4.24267">
        <ele>514</ele>
        <time>2018-06-03T07:28:02.000Z</time>
      </trkpt>
      <trkpt lat="44.54578" lon="4.24272">
        <ele>514</ele>
        <time>2018-06-03T07:28:03.000Z</time>
      </trkpt>
      <trkpt lat="44.54581" lon="4.24277">
        <ele>514</ele>
        <time>2018-06-03T07:28:04.000Z</time>
      </trkpt>
      <trkpt lat="44.54583" lon="4.24283">
        <ele>514</ele>
        <time>2018-06-03T07:28:05.000Z</time>
      </trkpt>
      <trkpt lat="44.54584" lon="4.24292">
        <ele>511</ele>
        <time>2018-06-03T07:28:06.000Z</time>
      </trkpt>
      <trkpt lat="44.54585" lon="4.24299">
        <ele>511</ele>
        <time>2018-06-03T07:28:07.000Z</time>
      </trkpt>
      <trkpt lat="44.54586" lon="4.24308">
        <ele>511</ele>
        <time>2018-06-03T07:28:08.000Z</time>
      </trkpt>
      <trkpt lat="44.54586" lon="4.24315">
        <ele>511</ele>
        <time>2018-06-03T07:28:09.000Z</time>
      </trkpt>
      <trkpt lat="44.54586" lon="4.24324">
        <ele>511</ele>
        <time>2018-06-03T07:28:10.000Z</time>
      </trkpt>
      <trkpt lat="44.54587" lon="4.24332">
        <ele>512</ele>
        <time>2018-06-03T07:28:11.000Z</time>
      </trkpt>
      <trkpt lat="44.54589" lon="4.2434">
        <ele>511</ele>
        <time>2018-06-03T07:28:12.000Z</time>
      </trkpt>
      <trkpt lat="44.54591" lon="4.24348">
        <ele>510</ele>
        <time>2018-06-03T07:28:13.000Z</time>
      </trkpt>
      <trkpt lat="44.54592" lon="4.24355">
        <ele>510</ele>
        <time>2018-06-03T07:28:14.000Z</time>
      </trkpt>
      <trkpt lat="44.54594" lon="4.24363">
        <ele>510</ele>
        <time>2018-06-03T07:28:15.000Z</time>
      </trkpt>
      <trkpt lat="44.54596" lon="4.24372">
        <ele>509</ele>
        <time>2018-06-03T07:28:16.000Z</time>
      </trkpt>
      <trkpt lat="44.54598" lon="4.2438">
        <ele>509</ele>
        <time>2018-06-03T07:28:17.000Z</time>
      </trkpt>
      <trkpt lat="44.54599" lon="4.2439">
        <ele>509</ele>
        <time>2018-06-03T07:28:18.000Z</time>
      </trkpt>
      <trkpt lat="44.546" lon="4.24399">
        <ele>510</ele>
        <time>2018-06-03T07:28:19.000Z</time>
      </trkpt>
      <trkpt lat="44.54602" lon="4.24407">
        <ele>510</ele>
        <time>2018-06-03T07:28:20.000Z</time>
      </trkpt>
      <trkpt lat="44.54604" lon="4.24412">
        <ele>510</ele>
        <time>2018-06-03T07:28:21.000Z</time>
      </trkpt>
      <trkpt lat="44.54606" lon="4.24418">
        <ele>508</ele>
        <time>2018-06-03T07:28:22.000Z</time>
      </trkpt>
      <trkpt lat="44.54609" lon="4.24424">
        <ele>508</ele>
        <time>2018-06-03T07:28:23.000Z</time>
      </trkpt>
      <trkpt lat="44.54611" lon="4.2443">
        <ele>508</ele>
        <time>2018-06-03T07:28:24.000Z</time>
      </trkpt>
      <trkpt lat="44.54613" lon="4.24435">
        <ele>507</ele>
        <time>2018-06-03T07:28:25.000Z</time>
      </trkpt>
      <trkpt lat="44.54615" lon="4.24442">
        <ele>507</ele>
        <time>2018-06-03T07:28:26.000Z</time>
      </trkpt>
      <trkpt lat="44.54616" lon="4.24449">
        <ele>507</ele>
        <time>2018-06-03T07:28:27.000Z</time>
      </trkpt>
      <trkpt lat="44.54617" lon="4.24455">
        <ele>506</ele>
        <time>2018-06-03T07:28:28.000Z</time>
      </trkpt>
      <trkpt lat="44.54619" lon="4.24461">
        <ele>506</ele>
        <time>2018-06-03T07:28:29.000Z</time>
      </trkpt>
      <trkpt lat="44.54621" lon="4.24469">
        <ele>506</ele>
        <time>2018-06-03T07:28:30.000Z</time>
      </trkpt>
      <trkpt lat="44.54622" lon="4.24476">
        <ele>506</ele>
        <time>2018-06-03T07:28:31.000Z</time>
      </trkpt>
      <trkpt lat="44.54625" lon="4.24485">
        <ele>505</ele>
        <time>2018-06-03T07:28:32.000Z</time>
      </trkpt>
      <trkpt lat="44.54628" lon="4.24492">
        <ele>505</ele>
        <time>2018-06-03T07:28:33.000Z</time>
      </trkpt>
      <trkpt lat="44.54631" lon="4.245">
        <ele>505</ele>
        <time>2018-06-03T07:28:34.000Z</time>
      </trkpt>
      <trkpt lat="44.54634" lon="4.24509">
        <ele>503</ele>
        <time>2018-06-03T07:28:35.000Z</time>
      </trkpt>
      <trkpt lat="44.54636" lon="4.24517">
        <ele>502</ele>
        <time>2018-06-03T07:28:36.000Z</time>
      </trkpt>
      <trkpt lat="44.54637" lon="4.24526">
        <ele>502</ele>
        <time>2018-06-03T07:28:37.000Z</time>
      </trkpt>
      <trkpt lat="44.54637" lon="4.24535">
        <ele>502</ele>
        <time>2018-06-03T07:28:38.000Z</time>
      </trkpt>
      <trkpt lat="44.54636" lon="4.24544">
        <ele>502</ele>
        <time>2018-06-03T07:28:39.000Z</time>
      </trkpt>
      <trkpt lat="44.54636" lon="4.24551">
        <ele>502</ele>
        <time>2018-06-03T07:28:40.000Z</time>
      </trkpt>
      <trkpt lat="44.54635" lon="4.24559">
        <ele>502</ele>
        <time>2018-06-03T07:28:41.000Z</time>
      </trkpt>
      <trkpt lat="44.54636" lon="4.24568">
        <ele>501</ele>
        <time>2018-06-03T07:28:42.000Z</time>
      </trkpt>
      <trkpt lat="44.54636" lon="4.24575">
        <ele>501</ele>
        <time>2018-06-03T07:28:43.000Z</time>
      </trkpt>
      <trkpt lat="44.54637" lon="4.24583">
        <ele>501</ele>
        <time>2018-06-03T07:28:44.000Z</time>
      </trkpt>
      <trkpt lat="44.54637" lon="4.24592">
        <ele>498</ele>
        <time>2018-06-03T07:28:45.000Z</time>
      </trkpt>
      <trkpt lat="44.54637" lon="4.246">
        <ele>498</ele>
        <time>2018-06-03T07:28:46.000Z</time>
      </trkpt>
      <trkpt lat="44.54638" lon="4.24609">
        <ele>498</ele>
        <time>2018-06-03T07:28:47.000Z</time>
      </trkpt>
      <trkpt lat="44.54638" lon="4.24617">
        <ele>498</ele>
        <time>2018-06-03T07:28:48.000Z</time>
      </trkpt>
      <trkpt lat="44.54638" lon="4.24625">
        <ele>498</ele>
        <time>2018-06-03T07:28:49.000Z</time>
      </trkpt>
      <trkpt lat="44.54637" lon="4.24634">
        <ele>498</ele>
        <time>2018-06-03T07:28:50.000Z</time>
      </trkpt>
      <trkpt lat="44.54636" lon="4.24644">
        <ele>497</ele>
        <time>2018-06-03T07:28:51.000Z</time>
      </trkpt>
      <trkpt lat="44.54635" lon="4.24653">
        <ele>497</ele>
        <time>2018-06-03T07:28:52.000Z</time>
      </trkpt>
      <trkpt lat="44.54634" lon="4.24661">
        <ele>497</ele>
        <time>2018-06-03T07:28:53.000Z</time>
      </trkpt>
      <trkpt lat="44.54633" lon="4.2467">
        <ele>494</ele>
        <time>2018-06-03T07:28:54.000Z</time>
      </trkpt>
      <trkpt lat="44.54631" lon="4.24678">
        <ele>494</ele>
        <time>2018-06-03T07:28:55.000Z</time>
      </trkpt>
      <trkpt lat="44.5463" lon="4.24686">
        <ele>495</ele>
        <time>2018-06-03T07:28:56.000Z</time>
      </trkpt>
      <trkpt lat="44.54631" lon="4.24693">
        <ele>494</ele>
        <time>2018-06-03T07:28:57.000Z</time>
      </trkpt>
      <trkpt lat="44.5463" lon="4.24702">
        <ele>494</ele>
        <time>2018-06-03T07:28:58.000Z</time>
      </trkpt>
      <trkpt lat="44.54629" lon="4.24711">
        <ele>494</ele>
        <time>2018-06-03T07:28:59.000Z</time>
      </trkpt>
      <trkpt lat="44.54628" lon="4.2472">
        <ele>494</ele>
        <time>2018-06-03T07:29:00.000Z</time>
      </trkpt>
      <trkpt lat="44.54625" lon="4.24729">
        <ele>494</ele>
        <time>2018-06-03T07:29:01.000Z</time>
      </trkpt>
      <trkpt lat="44.54623" lon="4.24738">
        <ele>495</ele>
        <time>2018-06-03T07:29:02.000Z</time>
      </trkpt>
      <trkpt lat="44.5462" lon="4.24746">
        <ele>495</ele>
        <time>2018-06-03T07:29:03.000Z</time>
      </trkpt>
      <trkpt lat="44.54618" lon="4.24754">
        <ele>493</ele>
        <time>2018-06-03T07:29:04.000Z</time>
      </trkpt>
      <trkpt lat="44.54616" lon="4.24763">
        <ele>493</ele>
        <time>2018-06-03T07:29:05.000Z</time>
      </trkpt>
      <trkpt lat="44.54614" lon="4.24772">
        <ele>493</ele>
        <time>2018-06-03T07:29:06.000Z</time>
      </trkpt>
      <trkpt lat="44.54612" lon="4.24781">
        <ele>493</ele>
        <time>2018-06-03T07:29:07.000Z</time>
      </trkpt>
      <trkpt lat="44.54612" lon="4.24789">
        <ele>493</ele>
        <time>2018-06-03T07:29:08.000Z</time>
      </trkpt>
      <trkpt lat="44.54611" lon="4.24797">
        <ele>493</ele>
        <time>2018-06-03T07:29:09.000Z</time>
      </trkpt>
      <trkpt lat="44.54611" lon="4.24805">
        <ele>493</ele>
        <time>2018-06-03T07:29:10.000Z</time>
      </trkpt>
      <trkpt lat="44.54612" lon="4.24813">
        <ele>493</ele>
        <time>2018-06-03T07:29:11.000Z</time>
      </trkpt>
      <trkpt lat="44.54612" lon="4.2482">
        <ele>493</ele>
        <time>2018-06-03T07:29:12.000Z</time>
      </trkpt>
      <trkpt lat="44.54613" lon="4.24828">
        <ele>493</ele>
        <time>2018-06-03T07:29:13.000Z</time>
      </trkpt>
      <trkpt lat="44.54614" lon="4.24836">
        <ele>492</ele>
        <time>2018-06-03T07:29:14.000Z</time>
      </trkpt>
      <trkpt lat="44.54614" lon="4.24843">
        <ele>492</ele>
        <time>2018-06-03T07:29:15.000Z</time>
      </trkpt>
      <trkpt lat="44.54615" lon="4.2485">
        <ele>492</ele>
        <time>2018-06-03T07:29:16.000Z</time>
      </trkpt>
      <trkpt lat="44.54616" lon="4.24857">
        <ele>492</ele>
        <time>2018-06-03T07:29:17.000Z</time>
      </trkpt>
      <trkpt lat="44.54616" lon="4.24864">
        <ele>492</ele>
        <time>2018-06-03T07:29:18.000Z</time>
      </trkpt>
      <trkpt lat="44.54617" lon="4.24872">
        <ele>492</ele>
        <time>2018-06-03T07:29:19.000Z</time>
      </trkpt>
      <trkpt lat="44.54617" lon="4.2488">
        <ele>492</ele>
        <time>2018-06-03T07:29:20.000Z</time>
      </trkpt>
      <trkpt lat="44.54617" lon="4.24887">
        <ele>492</ele>
        <time>2018-06-03T07:29:21.000Z</time>
      </trkpt>
      <trkpt lat="44.54617" lon="4.24894">
        <ele>492</ele>
        <time>2018-06-03T07:29:22.000Z</time>
      </trkpt>
      <trkpt lat="44.54618" lon="4.24902">
        <ele>492</ele>
        <time>2018-06-03T07:29:23.000Z</time>
      </trkpt>
      <trkpt lat="44.54618" lon="4.24909">
        <ele>492</ele>
        <time>2018-06-03T07:29:24.000Z</time>
      </trkpt>
      <trkpt lat="44.54618" lon="4.24915">
        <ele>492</ele>
        <time>2018-06-03T07:29:25.000Z</time>
      </trkpt>
      <trkpt lat="44.54619" lon="4.24921">
        <ele>493</ele>
        <time>2018-06-03T07:29:26.000Z</time>
      </trkpt>
      <trkpt lat="44.54619" lon="4.24927">
        <ele>493</ele>
        <time>2018-06-03T07:29:27.000Z</time>
      </trkpt>
      <trkpt lat="44.5462" lon="4.24933">
        <ele>493</ele>
        <time>2018-06-03T07:29:28.000Z</time>
      </trkpt>
      <trkpt lat="44.54621" lon="4.24937">
        <ele>493</ele>
        <time>2018-06-03T07:29:29.000Z</time>
      </trkpt>
      <trkpt lat="44.54622" lon="4.24942">
        <ele>493</ele>
        <time>2018-06-03T07:29:30.000Z</time>
      </trkpt>
      <trkpt lat="44.54623" lon="4.24944">
        <ele>493</ele>
        <time>2018-06-03T07:29:31.000Z</time>
      </trkpt>
      <trkpt lat="44.54625" lon="4.24944">
        <ele>493</ele>
        <time>2018-06-03T07:29:32.000Z</time>
      </trkpt>
      <trkpt lat="44.54628" lon="4.24943">
        <ele>492</ele>
        <time>2018-06-03T07:29:33.000Z</time>
      </trkpt>
      <trkpt lat="44.54631" lon="4.2494">
        <ele>492</ele>
        <time>2018-06-03T07:29:34.000Z</time>
      </trkpt>
      <trkpt lat="44.54633" lon="4.24934">
        <ele>491</ele>
        <time>2018-06-03T07:29:35.000Z</time>
      </trkpt>
      <trkpt lat="44.54636" lon="4.24929">
        <ele>491</ele>
        <time>2018-06-03T07:29:36.000Z</time>
      </trkpt>
      <trkpt lat="44.54639" lon="4.24926">
        <ele>490</ele>
        <time>2018-06-03T07:29:37.000Z</time>
      </trkpt>
      <trkpt lat="44.54642" lon="4.24925">
        <ele>489</ele>
        <time>2018-06-03T07:29:38.000Z</time>
      </trkpt>
      <trkpt lat="44.54645" lon="4.24924">
        <ele>489</ele>
        <time>2018-06-03T07:29:39.000Z</time>
      </trkpt>
      <trkpt lat="44.54649" lon="4.24925">
        <ele>488</ele>
        <time>2018-06-03T07:29:40.000Z</time>
      </trkpt>
      <trkpt lat="44.54653" lon="4.24928">
        <ele>488</ele>
        <time>2018-06-03T07:29:41.000Z</time>
      </trkpt>
      <trkpt lat="44.54656" lon="4.2493">
        <ele>487</ele>
        <time>2018-06-03T07:29:42.000Z</time>
      </trkpt>
      <trkpt lat="44.54659" lon="4.24933">
        <ele>487</ele>
        <time>2018-06-03T07:29:43.000Z</time>
      </trkpt>
      <trkpt lat="44.54661" lon="4.24935">
        <ele>487</ele>
        <time>2018-06-03T07:29:44.000Z</time>
      </trkpt>
      <trkpt lat="44.54664" lon="4.24937">
        <ele>487</ele>
        <time>2018-06-03T07:29:45.000Z</time>
      </trkpt>
      <trkpt lat="44.54667" lon="4.24938">
        <ele>487</ele>
        <time>2018-06-03T07:29:46.000Z</time>
      </trkpt>
      <trkpt lat="44.5467" lon="4.24937">
        <ele>478</ele>
        <time>2018-06-03T07:29:47.000Z</time>
      </trkpt>
      <trkpt lat="44.54674" lon="4.24937">
        <ele>478</ele>
        <time>2018-06-03T07:29:48.000Z</time>
      </trkpt>
      <trkpt lat="44.54678" lon="4.24935">
        <ele>477</ele>
        <time>2018-06-03T07:29:49.000Z</time>
      </trkpt>
      <trkpt lat="44.54682" lon="4.24932">
        <ele>477</ele>
        <time>2018-06-03T07:29:50.000Z</time>
      </trkpt>
      <trkpt lat="44.54685" lon="4.2493">
        <ele>477</ele>
        <time>2018-06-03T07:29:51.000Z</time>
      </trkpt>
      <trkpt lat="44.54687" lon="4.24929">
        <ele>477</ele>
        <time>2018-06-03T07:29:52.000Z</time>
      </trkpt>
      <trkpt lat="44.54689" lon="4.24929">
        <ele>476</ele>
        <time>2018-06-03T07:29:53.000Z</time>
      </trkpt>
      <trkpt lat="44.54692" lon="4.2493">
        <ele>476</ele>
        <time>2018-06-03T07:29:54.000Z</time>
      </trkpt>
      <trkpt lat="44.54695" lon="4.2493">
        <ele>476</ele>
        <time>2018-06-03T07:29:55.000Z</time>
      </trkpt>
      <trkpt lat="44.54699" lon="4.24929">
        <ele>475</ele>
        <time>2018-06-03T07:29:56.000Z</time>
      </trkpt>
      <trkpt lat="44.54703" lon="4.24927">
        <ele>474</ele>
        <time>2018-06-03T07:29:57.000Z</time>
      </trkpt>
      <trkpt lat="44.54709" lon="4.24927">
        <ele>473</ele>
        <time>2018-06-03T07:29:58.000Z</time>
      </trkpt>
      <trkpt lat="44.54714" lon="4.24925">
        <ele>473</ele>
        <time>2018-06-03T07:29:59.000Z</time>
      </trkpt>
      <trkpt lat="44.54718" lon="4.24925">
        <ele>472</ele>
        <time>2018-06-03T07:30:00.000Z</time>
      </trkpt>
      <trkpt lat="44.5472" lon="4.24927">
        <ele>472</ele>
        <time>2018-06-03T07:30:01.000Z</time>
      </trkpt>
      <trkpt lat="44.54721" lon="4.24931">
        <ele>472</ele>
        <time>2018-06-03T07:30:02.000Z</time>
      </trkpt>
      <trkpt lat="44.54724" lon="4.24933">
        <ele>471</ele>
        <time>2018-06-03T07:30:03.000Z</time>
      </trkpt>
      <trkpt lat="44.54726" lon="4.24936">
        <ele>471</ele>
        <time>2018-06-03T07:30:04.000Z</time>
      </trkpt>
      <trkpt lat="44.54728" lon="4.24939">
        <ele>471</ele>
        <time>2018-06-03T07:30:05.000Z</time>
      </trkpt>
      <trkpt lat="44.5473" lon="4.24943">
        <ele>471</ele>
        <time>2018-06-03T07:30:06.000Z</time>
      </trkpt>
      <trkpt lat="44.54732" lon="4.24947">
        <ele>471</ele>
        <time>2018-06-03T07:30:07.000Z</time>
      </trkpt>
      <trkpt lat="44.54734" lon="4.24952">
        <ele>471</ele>
        <time>2018-06-03T07:30:08.000Z</time>
      </trkpt>
      <trkpt lat="44.54734" lon="4.24957">
        <ele>471</ele>
        <time>2018-06-03T07:30:09.000Z</time>
      </trkpt>
      <trkpt lat="44.54735" lon="4.24962">
        <ele>471</ele>
        <time>2018-06-03T07:30:10.000Z</time>
      </trkpt>
      <trkpt lat="44.54737" lon="4.24969">
        <ele>471</ele>
        <time>2018-06-03T07:30:11.000Z</time>
      </trkpt>
      <trkpt lat="44.54739" lon="4.24975">
        <ele>470</ele>
        <time>2018-06-03T07:30:12.000Z</time>
      </trkpt>
      <trkpt lat="44.5474" lon="4.24983">
        <ele>470</ele>
        <time>2018-06-03T07:30:13.000Z</time>
      </trkpt>
      <trkpt lat="44.54741" lon="4.2499">
        <ele>469</ele>
        <time>2018-06-03T07:30:14.000Z</time>
      </trkpt>
      <trkpt lat="44.54741" lon="4.24996">
        <ele>468</ele>
        <time>2018-06-03T07:30:15.000Z</time>
      </trkpt>
      <trkpt lat="44.54743" lon="4.25001">
        <ele>467</ele>
        <time>2018-06-03T07:30:16.000Z</time>
      </trkpt>
      <trkpt lat="44.54745" lon="4.25005">
        <ele>467</ele>
        <time>2018-06-03T07:30:17.000Z</time>
      </trkpt>
      <trkpt lat="44.54749" lon="4.25006">
        <ele>467</ele>
        <time>2018-06-03T07:30:18.000Z</time>
      </trkpt>
      <trkpt lat="44.54753" lon="4.25007">
        <ele>462</ele>
        <time>2018-06-03T07:30:19.000Z</time>
      </trkpt>
      <trkpt lat="44.54756" lon="4.25006">
        <ele>462</ele>
        <time>2018-06-03T07:30:20.000Z</time>
      </trkpt>
      <trkpt lat="44.54758" lon="4.25003">
        <ele>461</ele>
        <time>2018-06-03T07:30:21.000Z</time>
      </trkpt>
      <trkpt lat="44.5476" lon="4.24999">
        <ele>461</ele>
        <time>2018-06-03T07:30:22.000Z</time>
      </trkpt>
      <trkpt lat="44.54761" lon="4.24995">
        <ele>461</ele>
        <time>2018-06-03T07:30:23.000Z</time>
      </trkpt>
      <trkpt lat="44.54763" lon="4.24992">
        <ele>460</ele>
        <time>2018-06-03T07:30:24.000Z</time>
      </trkpt>
      <trkpt lat="44.54763" lon="4.24988">
        <ele>459</ele>
        <time>2018-06-03T07:30:25.000Z</time>
      </trkpt>
      <trkpt lat="44.54764" lon="4.24985">
        <ele>459</ele>
        <time>2018-06-03T07:30:26.000Z</time>
      </trkpt>
      <trkpt lat="44.54764" lon="4.24981">
        <ele>458</ele>
        <time>2018-06-03T07:30:27.000Z</time>
      </trkpt>
      <trkpt lat="44.54764" lon="4.24977">
        <ele>458</ele>
        <time>2018-06-03T07:30:28.000Z</time>
      </trkpt>
      <trkpt lat="44.54766" lon="4.24973">
        <ele>457</ele>
        <time>2018-06-03T07:30:29.000Z</time>
      </trkpt>
      <trkpt lat="44.54769" lon="4.2497">
        <ele>457</ele>
        <time>2018-06-03T07:30:30.000Z</time>
      </trkpt>
      <trkpt lat="44.54772" lon="4.24968">
        <ele>456</ele>
        <time>2018-06-03T07:30:31.000Z</time>
      </trkpt>
      <trkpt lat="44.54773" lon="4.24966">
        <ele>456</ele>
        <time>2018-06-03T07:30:32.000Z</time>
      </trkpt>
      <trkpt lat="44.54774" lon="4.24963">
        <ele>456</ele>
        <time>2018-06-03T07:30:33.000Z</time>
      </trkpt>
      <trkpt lat="44.54774" lon="4.2496">
        <ele>456</ele>
        <time>2018-06-03T07:30:34.000Z</time>
      </trkpt>
      <trkpt lat="44.54774" lon="4.24956">
        <ele>456</ele>
        <time>2018-06-03T07:30:35.000Z</time>
      </trkpt>
      <trkpt lat="44.54776" lon="4.24953">
        <ele>455</ele>
        <time>2018-06-03T07:30:36.000Z</time>
      </trkpt>
      <trkpt lat="44.54779" lon="4.24951">
        <ele>455</ele>
        <time>2018-06-03T07:30:37.000Z</time>
      </trkpt>
      <trkpt lat="44.54781" lon="4.24948">
        <ele>455</ele>
        <time>2018-06-03T07:30:38.000Z</time>
      </trkpt>
      <trkpt lat="44.54783" lon="4.24945">
        <ele>454</ele>
        <time>2018-06-03T07:30:39.000Z</time>
      </trkpt>
      <trkpt lat="44.54786" lon="4.24944">
        <ele>454</ele>
        <time>2018-06-03T07:30:40.000Z</time>
      </trkpt>
      <trkpt lat="44.54789" lon="4.24944">
        <ele>454</ele>
        <time>2018-06-03T07:30:41.000Z</time>
      </trkpt>
      <trkpt lat="44.54791" lon="4.24944">
        <ele>453</ele>
        <time>2018-06-03T07:30:42.000Z</time>
      </trkpt>
      <trkpt lat="44.54793" lon="4.24944">
        <ele>453</ele>
        <time>2018-06-03T07:30:43.000Z</time>
      </trkpt>
      <trkpt lat="44.54795" lon="4.24944">
        <ele>453</ele>
        <time>2018-06-03T07:30:44.000Z</time>
      </trkpt>
      <trkpt lat="44.54796" lon="4.24943">
        <ele>452</ele>
        <time>2018-06-03T07:30:45.000Z</time>
      </trkpt>
      <trkpt lat="44.54797" lon="4.24941">
        <ele>452</ele>
        <time>2018-06-03T07:30:46.000Z</time>
      </trkpt>
      <trkpt lat="44.54798" lon="4.24938">
        <ele>452</ele>
        <time>2018-06-03T07:30:47.000Z</time>
      </trkpt>
      <trkpt lat="44.54798" lon="4.24936">
        <ele>452</ele>
        <time>2018-06-03T07:30:48.000Z</time>
      </trkpt>
      <trkpt lat="44.54797" lon="4.24934">
        <ele>452</ele>
        <time>2018-06-03T07:30:49.000Z</time>
      </trkpt>
      <trkpt lat="44.54797" lon="4.24932">
        <ele>452</ele>
        <time>2018-06-03T07:30:50.000Z</time>
      </trkpt>
      <trkpt lat="44.54797" lon="4.2493">
        <ele>452</ele>
        <time>2018-06-03T07:30:51.000Z</time>
      </trkpt>
      <trkpt lat="44.54799" lon="4.2493">
        <ele>452</ele>
        <time>2018-06-03T07:30:52.000Z</time>
      </trkpt>
      <trkpt lat="44.548" lon="4.24929">
        <ele>451</ele>
        <time>2018-06-03T07:30:53.000Z</time>
      </trkpt>
      <trkpt lat="44.548" lon="4.2493">
        <ele>451</ele>
        <time>2018-06-03T07:30:54.000Z</time>
      </trkpt>
      <trkpt lat="44.54801" lon="4.24931">
        <ele>451</ele>
        <time>2018-06-03T07:30:55.000Z</time>
      </trkpt>
      <trkpt lat="44.54801" lon="4.24933">
        <ele>451</ele>
        <time>2018-06-03T07:30:56.000Z</time>
      </trkpt>
      <trkpt lat="44.54803" lon="4.24935">
        <ele>451</ele>
        <time>2018-06-03T07:30:57.000Z</time>
      </trkpt>
      <trkpt lat="44.54804" lon="4.24938">
        <ele>451</ele>
        <time>2018-06-03T07:30:58.000Z</time>
      </trkpt>
      <trkpt lat="44.54806" lon="4.24941">
        <ele>451</ele>
        <time>2018-06-03T07:30:59.000Z</time>
      </trkpt>
      <trkpt lat="44.54808" lon="4.24943">
        <ele>451</ele>
        <time>2018-06-03T07:31:00.000Z</time>
      </trkpt>
      <trkpt lat="44.5481" lon="4.24947">
        <ele>451</ele>
        <time>2018-06-03T07:31:01.000Z</time>
      </trkpt>
      <trkpt lat="44.54812" lon="4.24949">
        <ele>450</ele>
        <time>2018-06-03T07:31:02.000Z</time>
      </trkpt>
      <trkpt lat="44.54814" lon="4.2495">
        <ele>450</ele>
        <time>2018-06-03T07:31:03.000Z</time>
      </trkpt>
      <trkpt lat="44.54816" lon="4.2495">
        <ele>450</ele>
        <time>2018-06-03T07:31:04.000Z</time>
      </trkpt>
      <trkpt lat="44.54816" lon="4.24948">
        <ele>450</ele>
        <time>2018-06-03T07:31:05.000Z</time>
      </trkpt>
      <trkpt lat="44.54816" lon="4.24946">
        <ele>450</ele>
        <time>2018-06-03T07:31:06.000Z</time>
      </trkpt>
      <trkpt lat="44.54816" lon="4.24942">
        <ele>449</ele>
        <time>2018-06-03T07:31:07.000Z</time>
      </trkpt>
      <trkpt lat="44.54815" lon="4.24938">
        <ele>449</ele>
        <time>2018-06-03T07:31:08.000Z</time>
      </trkpt>
      <trkpt lat="44.54814" lon="4.24934">
        <ele>449</ele>
        <time>2018-06-03T07:31:09.000Z</time>
      </trkpt>
      <trkpt lat="44.54814" lon="4.2493">
        <ele>448</ele>
        <time>2018-06-03T07:31:10.000Z</time>
      </trkpt>
      <trkpt lat="44.54814" lon="4.24926">
        <ele>448</ele>
        <time>2018-06-03T07:31:11.000Z</time>
      </trkpt>
      <trkpt lat="44.54814" lon="4.24923">
        <ele>447</ele>
        <time>2018-06-03T07:31:12.000Z</time>
      </trkpt>
      <trkpt lat="44.54815" lon="4.24919">
        <ele>447</ele>
        <time>2018-06-03T07:31:13.000Z</time>
      </trkpt>
      <trkpt lat="44.54816" lon="4.24916">
        <ele>444</ele>
        <time>2018-06-03T07:31:14.000Z</time>
      </trkpt>
      <trkpt lat="44.54819" lon="4.24916">
        <ele>443</ele>
        <time>2018-06-03T07:31:15.000Z</time>
      </trkpt>
      <trkpt lat="44.54821" lon="4.24918">
        <ele>445</ele>
        <time>2018-06-03T07:31:16.000Z</time>
      </trkpt>
      <trkpt lat="44.54823" lon="4.24921">
        <ele>444</ele>
        <time>2018-06-03T07:31:17.000Z</time>
      </trkpt>
      <trkpt lat="44.54826" lon="4.24924">
        <ele>444</ele>
        <time>2018-06-03T07:31:18.000Z</time>
      </trkpt>
      <trkpt lat="44.54829" lon="4.24926">
        <ele>444</ele>
        <time>2018-06-03T07:31:19.000Z</time>
      </trkpt>
      <trkpt lat="44.54832" lon="4.24929">
        <ele>444</ele>
        <time>2018-06-03T07:31:20.000Z</time>
      </trkpt>
      <trkpt lat="44.54835" lon="4.24933">
        <ele>433</ele>
        <time>2018-06-03T07:31:21.000Z</time>
      </trkpt>
      <trkpt lat="44.54837" lon="4.24938">
        <ele>432</ele>
        <time>2018-06-03T07:31:22.000Z</time>
      </trkpt>
      <trkpt lat="44.54839" lon="4.24943">
        <ele>432</ele>
        <time>2018-06-03T07:31:23.000Z</time>
      </trkpt>
      <trkpt lat="44.54841" lon="4.24946">
        <ele>431</ele>
        <time>2018-06-03T07:31:24.000Z</time>
      </trkpt>
      <trkpt lat="44.54843" lon="4.24949">
        <ele>431</ele>
        <time>2018-06-03T07:31:25.000Z</time>
      </trkpt>
      <trkpt lat="44.54845" lon="4.24952">
        <ele>431</ele>
        <time>2018-06-03T07:31:26.000Z</time>
      </trkpt>
      <trkpt lat="44.54847" lon="4.24954">
        <ele>430</ele>
        <time>2018-06-03T07:31:27.000Z</time>
      </trkpt>
      <trkpt lat="44.54849" lon="4.24958">
        <ele>430</ele>
        <time>2018-06-03T07:31:28.000Z</time>
      </trkpt>
      <trkpt lat="44.54851" lon="4.24962">
        <ele>430</ele>
        <time>2018-06-03T07:31:29.000Z</time>
      </trkpt>
      <trkpt lat="44.54852" lon="4.24967">
        <ele>430</ele>
        <time>2018-06-03T07:31:30.000Z</time>
      </trkpt>
      <trkpt lat="44.54855" lon="4.24971">
        <ele>430</ele>
        <time>2018-06-03T07:31:31.000Z</time>
      </trkpt>
      <trkpt lat="44.54857" lon="4.24975">
        <ele>430</ele>
        <time>2018-06-03T07:31:32.000Z</time>
      </trkpt>
      <trkpt lat="44.54858" lon="4.24979">
        <ele>431</ele>
        <time>2018-06-03T07:31:33.000Z</time>
      </trkpt>
      <trkpt lat="44.5486" lon="4.24983">
        <ele>430</ele>
        <time>2018-06-03T07:31:34.000Z</time>
      </trkpt>
      <trkpt lat="44.54861" lon="4.24984">
        <ele>430</ele>
        <time>2018-06-03T07:31:35.000Z</time>
      </trkpt>
      <trkpt lat="44.54863" lon="4.24984">
        <ele>430</ele>
        <time>2018-06-03T07:31:36.000Z</time>
      </trkpt>
      <trkpt lat="44.54864" lon="4.24982">
        <ele>429</ele>
        <time>2018-06-03T07:31:37.000Z</time>
      </trkpt>
      <trkpt lat="44.54865" lon="4.24979">
        <ele>429</ele>
        <time>2018-06-03T07:31:38.000Z</time>
      </trkpt>
      <trkpt lat="44.54865" lon="4.24975">
        <ele>428</ele>
        <time>2018-06-03T07:31:39.000Z</time>
      </trkpt>
      <trkpt lat="44.54865" lon="4.24971">
        <ele>428</ele>
        <time>2018-06-03T07:31:40.000Z</time>
      </trkpt>
      <trkpt lat="44.54866" lon="4.24968">
        <ele>428</ele>
        <time>2018-06-03T07:31:41.000Z</time>
      </trkpt>
      <trkpt lat="44.54866" lon="4.24965">
        <ele>428</ele>
        <time>2018-06-03T07:31:42.000Z</time>
      </trkpt>
      <trkpt lat="44.54867" lon="4.24962">
        <ele>427</ele>
        <time>2018-06-03T07:31:43.000Z</time>
      </trkpt>
      <trkpt lat="44.54868" lon="4.24959">
        <ele>427</ele>
        <time>2018-06-03T07:31:44.000Z</time>
      </trkpt>
      <trkpt lat="44.54869" lon="4.24955">
        <ele>427</ele>
        <time>2018-06-03T07:31:45.000Z</time>
      </trkpt>
      <trkpt lat="44.5487" lon="4.24951">
        <ele>426</ele>
        <time>2018-06-03T07:31:46.000Z</time>
      </trkpt>
      <trkpt lat="44.54871" lon="4.24948">
        <ele>426</ele>
        <time>2018-06-03T07:31:47.000Z</time>
      </trkpt>
      <trkpt lat="44.54871" lon="4.24943">
        <ele>426</ele>
        <time>2018-06-03T07:31:48.000Z</time>
      </trkpt>
      <trkpt lat="44.5487" lon="4.24937">
        <ele>426</ele>
        <time>2018-06-03T07:31:49.000Z</time>
      </trkpt>
      <trkpt lat="44.54869" lon="4.24931">
        <ele>426</ele>
        <time>2018-06-03T07:31:50.000Z</time>
      </trkpt>
      <trkpt lat="44.54869" lon="4.24925">
        <ele>427</ele>
        <time>2018-06-03T07:31:51.000Z</time>
      </trkpt>
      <trkpt lat="44.54868" lon="4.2492">
        <ele>427</ele>
        <time>2018-06-03T07:31:52.000Z</time>
      </trkpt>
      <trkpt lat="44.54868" lon="4.24916">
        <ele>422</ele>
        <time>2018-06-03T07:31:53.000Z</time>
      </trkpt>
      <trkpt lat="44.54867" lon="4.2491">
        <ele>422</ele>
        <time>2018-06-03T07:31:54.000Z</time>
      </trkpt>
      <trkpt lat="44.54866" lon="4.24905">
        <ele>422</ele>
        <time>2018-06-03T07:31:55.000Z</time>
      </trkpt>
      <trkpt lat="44.54865" lon="4.249">
        <ele>422</ele>
        <time>2018-06-03T07:31:56.000Z</time>
      </trkpt>
      <trkpt lat="44.54864" lon="4.24894">
        <ele>422</ele>
        <time>2018-06-03T07:31:57.000Z</time>
      </trkpt>
      <trkpt lat="44.54863" lon="4.24891">
        <ele>422</ele>
        <time>2018-06-03T07:31:58.000Z</time>
      </trkpt>
      <trkpt lat="44.54863" lon="4.24889">
        <ele>421</ele>
        <time>2018-06-03T07:31:59.000Z</time>
      </trkpt>
      <trkpt lat="44.54864" lon="4.24887">
        <ele>421</ele>
        <time>2018-06-03T07:32:00.000Z</time>
      </trkpt>
      <trkpt lat="44.54865" lon="4.24886">
        <ele>421</ele>
        <time>2018-06-03T07:32:01.000Z</time>
      </trkpt>
      <trkpt lat="44.54867" lon="4.24886">
        <ele>420</ele>
        <time>2018-06-03T07:32:02.000Z</time>
      </trkpt>
      <trkpt lat="44.5487" lon="4.24886">
        <ele>420</ele>
        <time>2018-06-03T07:32:03.000Z</time>
      </trkpt>
      <trkpt lat="44.54872" lon="4.24887">
        <ele>419</ele>
        <time>2018-06-03T07:32:04.000Z</time>
      </trkpt>
      <trkpt lat="44.54874" lon="4.24888">
        <ele>419</ele>
        <time>2018-06-03T07:32:05.000Z</time>
      </trkpt>
      <trkpt lat="44.54875" lon="4.2489">
        <ele>419</ele>
        <time>2018-06-03T07:32:06.000Z</time>
      </trkpt>
      <trkpt lat="44.54878" lon="4.24894">
        <ele>419</ele>
        <time>2018-06-03T07:32:07.000Z</time>
      </trkpt>
      <trkpt lat="44.54881" lon="4.24897">
        <ele>418</ele>
        <time>2018-06-03T07:32:08.000Z</time>
      </trkpt>
      <trkpt lat="44.54884" lon="4.249">
        <ele>417</ele>
        <time>2018-06-03T07:32:09.000Z</time>
      </trkpt>
      <trkpt lat="44.54887" lon="4.24903">
        <ele>417</ele>
        <time>2018-06-03T07:32:10.000Z</time>
      </trkpt>
      <trkpt lat="44.54891" lon="4.24906">
        <ele>416</ele>
        <time>2018-06-03T07:32:11.000Z</time>
      </trkpt>
      <trkpt lat="44.54894" lon="4.24909">
        <ele>415</ele>
        <time>2018-06-03T07:32:12.000Z</time>
      </trkpt>
      <trkpt lat="44.54898" lon="4.24911">
        <ele>414</ele>
        <time>2018-06-03T07:32:13.000Z</time>
      </trkpt>
      <trkpt lat="44.54902" lon="4.24911">
        <ele>413</ele>
        <time>2018-06-03T07:32:14.000Z</time>
      </trkpt>
      <trkpt lat="44.54906" lon="4.24912">
        <ele>412</ele>
        <time>2018-06-03T07:32:15.000Z</time>
      </trkpt>
      <trkpt lat="44.54909" lon="4.24913">
        <ele>411</ele>
        <time>2018-06-03T07:32:16.000Z</time>
      </trkpt>
      <trkpt lat="44.54913" lon="4.24915">
        <ele>410</ele>
        <time>2018-06-03T07:32:17.000Z</time>
      </trkpt>
      <trkpt lat="44.54916" lon="4.24917">
        <ele>409</ele>
        <time>2018-06-03T07:32:18.000Z</time>
      </trkpt>
      <trkpt lat="44.54919" lon="4.24919">
        <ele>406</ele>
        <time>2018-06-03T07:32:19.000Z</time>
      </trkpt>
      <trkpt lat="44.54922" lon="4.24921">
        <ele>405</ele>
        <time>2018-06-03T07:32:20.000Z</time>
      </trkpt>
      <trkpt lat="44.54924" lon="4.24924">
        <ele>403</ele>
        <time>2018-06-03T07:32:21.000Z</time>
      </trkpt>
      <trkpt lat="44.54926" lon="4.24927">
        <ele>402</ele>
        <time>2018-06-03T07:32:22.000Z</time>
      </trkpt>
      <trkpt lat="44.54928" lon="4.24932">
        <ele>401</ele>
        <time>2018-06-03T07:32:23.000Z</time>
      </trkpt>
      <trkpt lat="44.5493" lon="4.24934">
        <ele>400</ele>
        <time>2018-06-03T07:32:24.000Z</time>
      </trkpt>
      <trkpt lat="44.54933" lon="4.24935">
        <ele>399</ele>
        <time>2018-06-03T07:32:25.000Z</time>
      </trkpt>
      <trkpt lat="44.54935" lon="4.24934">
        <ele>399</ele>
        <time>2018-06-03T07:32:26.000Z</time>
      </trkpt>
      <trkpt lat="44.54937" lon="4.24932">
        <ele>399</ele>
        <time>2018-06-03T07:32:27.000Z</time>
      </trkpt>
      <trkpt lat="44.54939" lon="4.24929">
        <ele>399</ele>
        <time>2018-06-03T07:32:28.000Z</time>
      </trkpt>
      <trkpt lat="44.54941" lon="4.24924">
        <ele>398</ele>
        <time>2018-06-03T07:32:29.000Z</time>
      </trkpt>
      <trkpt lat="44.54942" lon="4.2492">
        <ele>398</ele>
        <time>2018-06-03T07:32:30.000Z</time>
      </trkpt>
      <trkpt lat="44.54942" lon="4.24916">
        <ele>395</ele>
        <time>2018-06-03T07:32:31.000Z</time>
      </trkpt>
      <trkpt lat="44.54943" lon="4.24912">
        <ele>395</ele>
        <time>2018-06-03T07:32:32.000Z</time>
      </trkpt>
      <trkpt lat="44.54944" lon="4.24907">
        <ele>394</ele>
        <time>2018-06-03T07:32:33.000Z</time>
      </trkpt>
      <trkpt lat="44.54943" lon="4.24904">
        <ele>394</ele>
        <time>2018-06-03T07:32:34.000Z</time>
      </trkpt>
      <trkpt lat="44.54942" lon="4.24901">
        <ele>394</ele>
        <time>2018-06-03T07:32:35.000Z</time>
      </trkpt>
      <trkpt lat="44.5494" lon="4.24898">
        <ele>394</ele>
        <time>2018-06-03T07:32:36.000Z</time>
      </trkpt>
      <trkpt lat="44.54937" lon="4.24894">
        <ele>394</ele>
        <time>2018-06-03T07:32:37.000Z</time>
      </trkpt>
      <trkpt lat="44.54934" lon="4.2489">
        <ele>394</ele>
        <time>2018-06-03T07:32:38.000Z</time>
      </trkpt>
      <trkpt lat="44.5493" lon="4.24886">
        <ele>394</ele>
        <time>2018-06-03T07:32:39.000Z</time>
      </trkpt>
      <trkpt lat="44.54927" lon="4.24881">
        <ele>394</ele>
        <time>2018-06-03T07:32:40.000Z</time>
      </trkpt>
      <trkpt lat="44.54923" lon="4.24877">
        <ele>394</ele>
        <time>2018-06-03T07:32:41.000Z</time>
      </trkpt>
      <trkpt lat="44.5492" lon="4.24872">
        <ele>393</ele>
        <time>2018-06-03T07:32:42.000Z</time>
      </trkpt>
      <trkpt lat="44.54918" lon="4.24868">
        <ele>393</ele>
        <time>2018-06-03T07:32:43.000Z</time>
      </trkpt>
      <trkpt lat="44.54918" lon="4.24865">
        <ele>393</ele>
        <time>2018-06-03T07:32:44.000Z</time>
      </trkpt>
      <trkpt lat="44.54919" lon="4.24864">
        <ele>393</ele>
        <time>2018-06-03T07:32:45.000Z</time>
      </trkpt>
      <trkpt lat="44.54921" lon="4.24864">
        <ele>393</ele>
        <time>2018-06-03T07:32:46.000Z</time>
      </trkpt>
      <trkpt lat="44.54923" lon="4.24864">
        <ele>393</ele>
        <time>2018-06-03T07:32:47.000Z</time>
      </trkpt>
      <trkpt lat="44.54926" lon="4.24866">
        <ele>392</ele>
        <time>2018-06-03T07:32:48.000Z</time>
      </trkpt>
      <trkpt lat="44.54928" lon="4.24867">
        <ele>392</ele>
        <time>2018-06-03T07:32:49.000Z</time>
      </trkpt>
      <trkpt lat="44.54929" lon="4.24867">
        <ele>392</ele>
        <time>2018-06-03T07:32:50.000Z</time>
      </trkpt>
      <trkpt lat="44.54932" lon="4.24866">
        <ele>392</ele>
        <time>2018-06-03T07:32:51.000Z</time>
      </trkpt>
      <trkpt lat="44.54935" lon="4.24864">
        <ele>392</ele>
        <time>2018-06-03T07:32:52.000Z</time>
      </trkpt>
      <trkpt lat="44.54938" lon="4.24863">
        <ele>391</ele>
        <time>2018-06-03T07:32:53.000Z</time>
      </trkpt>
      <trkpt lat="44.54943" lon="4.24862">
        <ele>390</ele>
        <time>2018-06-03T07:32:54.000Z</time>
      </trkpt>
      <trkpt lat="44.54947" lon="4.2486">
        <ele>390</ele>
        <time>2018-06-03T07:32:55.000Z</time>
      </trkpt>
      <trkpt lat="44.54952" lon="4.24858">
        <ele>389</ele>
        <time>2018-06-03T07:32:56.000Z</time>
      </trkpt>
      <trkpt lat="44.54958" lon="4.24857">
        <ele>388</ele>
        <time>2018-06-03T07:32:57.000Z</time>
      </trkpt>
      <trkpt lat="44.54963" lon="4.24855">
        <ele>387</ele>
        <time>2018-06-03T07:32:58.000Z</time>
      </trkpt>
      <trkpt lat="44.54968" lon="4.24855">
        <ele>386</ele>
        <time>2018-06-03T07:32:59.000Z</time>
      </trkpt>
      <trkpt lat="44.54972" lon="4.24855">
        <ele>385</ele>
        <time>2018-06-03T07:33:00.000Z</time>
      </trkpt>
      <trkpt lat="44.54978" lon="4.24856">
        <ele>384</ele>
        <time>2018-06-03T07:33:01.000Z</time>
      </trkpt>
      <trkpt lat="44.54983" lon="4.24856">
        <ele>383</ele>
        <time>2018-06-03T07:33:02.000Z</time>
      </trkpt>
      <trkpt lat="44.54989" lon="4.24857">
        <ele>382</ele>
        <time>2018-06-03T07:33:03.000Z</time>
      </trkpt>
      <trkpt lat="44.54994" lon="4.24858">
        <ele>381</ele>
        <time>2018-06-03T07:33:04.000Z</time>
      </trkpt>
      <trkpt lat="44.54999" lon="4.24859">
        <ele>381</ele>
        <time>2018-06-03T07:33:05.000Z</time>
      </trkpt>
      <trkpt lat="44.55004" lon="4.24861">
        <ele>365</ele>
        <time>2018-06-03T07:33:06.000Z</time>
      </trkpt>
      <trkpt lat="44.55007" lon="4.24864">
        <ele>364</ele>
        <time>2018-06-03T07:33:07.000Z</time>
      </trkpt>
      <trkpt lat="44.55009" lon="4.24868">
        <ele>364</ele>
        <time>2018-06-03T07:33:08.000Z</time>
      </trkpt>
      <trkpt lat="44.55011" lon="4.24871">
        <ele>364</ele>
        <time>2018-06-03T07:33:09.000Z</time>
      </trkpt>
      <trkpt lat="44.55014" lon="4.24871">
        <ele>364</ele>
        <time>2018-06-03T07:33:10.000Z</time>
      </trkpt>
      <trkpt lat="44.55015" lon="4.2487">
        <ele>364</ele>
        <time>2018-06-03T07:33:11.000Z</time>
      </trkpt>
      <trkpt lat="44.55017" lon="4.24867">
        <ele>363</ele>
        <time>2018-06-03T07:33:12.000Z</time>
      </trkpt>
      <trkpt lat="44.55018" lon="4.24863">
        <ele>363</ele>
        <time>2018-06-03T07:33:13.000Z</time>
      </trkpt>
      <trkpt lat="44.55018" lon="4.24858">
        <ele>363</ele>
        <time>2018-06-03T07:33:14.000Z</time>
      </trkpt>
      <trkpt lat="44.55018" lon="4.24853">
        <ele>363</ele>
        <time>2018-06-03T07:33:15.000Z</time>
      </trkpt>
      <trkpt lat="44.55017" lon="4.24847">
        <ele>364</ele>
        <time>2018-06-03T07:33:16.000Z</time>
      </trkpt>
      <trkpt lat="44.55015" lon="4.24842">
        <ele>365</ele>
        <time>2018-06-03T07:33:17.000Z</time>
      </trkpt>
      <trkpt lat="44.55012" lon="4.24837">
        <ele>366</ele>
        <time>2018-06-03T07:33:18.000Z</time>
      </trkpt>
      <trkpt lat="44.55009" lon="4.24833">
        <ele>366</ele>
        <time>2018-06-03T07:33:19.000Z</time>
      </trkpt>
      <trkpt lat="44.55005" lon="4.2483">
        <ele>367</ele>
        <time>2018-06-03T07:33:20.000Z</time>
      </trkpt>
      <trkpt lat="44.55001" lon="4.24829">
        <ele>368</ele>
        <time>2018-06-03T07:33:21.000Z</time>
      </trkpt>
      <trkpt lat="44.54996" lon="4.24827">
        <ele>373</ele>
        <time>2018-06-03T07:33:22.000Z</time>
      </trkpt>
      <trkpt lat="44.54991" lon="4.24825">
        <ele>375</ele>
        <time>2018-06-03T07:33:23.000Z</time>
      </trkpt>
      <trkpt lat="44.54986" lon="4.24824">
        <ele>376</ele>
        <time>2018-06-03T07:33:24.000Z</time>
      </trkpt>
      <trkpt lat="44.54981" lon="4.24823">
        <ele>378</ele>
        <time>2018-06-03T07:33:25.000Z</time>
      </trkpt>
      <trkpt lat="44.54976" lon="4.24821">
        <ele>379</ele>
        <time>2018-06-03T07:33:26.000Z</time>
      </trkpt>
      <trkpt lat="44.54972" lon="4.24818">
        <ele>380</ele>
        <time>2018-06-03T07:33:27.000Z</time>
      </trkpt>
      <trkpt lat="44.54967" lon="4.24816">
        <ele>381</ele>
        <time>2018-06-03T07:33:28.000Z</time>
      </trkpt>
      <trkpt lat="44.54964" lon="4.24813">
        <ele>382</ele>
        <time>2018-06-03T07:33:29.000Z</time>
      </trkpt>
      <trkpt lat="44.5496" lon="4.24811">
        <ele>382</ele>
        <time>2018-06-03T07:33:30.000Z</time>
      </trkpt>
      <trkpt lat="44.54958" lon="4.2481">
        <ele>383</ele>
        <time>2018-06-03T07:33:31.000Z</time>
      </trkpt>
      <trkpt lat="44.54956" lon="4.24808">
        <ele>383</ele>
        <time>2018-06-03T07:33:32.000Z</time>
      </trkpt>
      <trkpt lat="44.54955" lon="4.24807">
        <ele>383</ele>
        <time>2018-06-03T07:33:33.000Z</time>
      </trkpt>
      <trkpt lat="44.54954" lon="4.24805">
        <ele>384</ele>
        <time>2018-06-03T07:33:34.000Z</time>
      </trkpt>
      <trkpt lat="44.54954" lon="4.24804">
        <ele>384</ele>
        <time>2018-06-03T07:33:35.000Z</time>
      </trkpt>
      <trkpt lat="44.54953" lon="4.24804">
        <ele>384</ele>
        <time>2018-06-03T07:33:36.000Z</time>
      </trkpt>
      <trkpt lat="44.54953" lon="4.24803">
        <ele>384</ele>
        <time>2018-06-03T07:33:37.000Z</time>
      </trkpt>
      <trkpt lat="44.54953" lon="4.24802">
        <ele>384</ele>
        <time>2018-06-03T07:33:38.000Z</time>
      </trkpt>
      <trkpt lat="44.54953" lon="4.24802">
        <ele>384</ele>
        <time>2018-06-03T07:33:39.000Z</time>
      </trkpt>
      <trkpt lat="44.54953" lon="4.24801">
        <ele>384</ele>
        <time>2018-06-03T07:33:40.000Z</time>
      </trkpt>
      <trkpt lat="44.54953" lon="4.24799">
        <ele>384</ele>
        <time>2018-06-03T07:33:41.000Z</time>
      </trkpt>
      <trkpt lat="44.54953" lon="4.24798">
        <ele>384</ele>
        <time>2018-06-03T07:33:42.000Z</time>
      </trkpt>
      <trkpt lat="44.54953" lon="4.24797">
        <ele>384</ele>
        <time>2018-06-03T07:33:43.000Z</time>
      </trkpt>
      <trkpt lat="44.54953" lon="4.24797">
        <ele>384</ele>
        <time>2018-06-03T07:33:44.000Z</time>
      </trkpt>
      <trkpt lat="44.54953" lon="4.24797">
        <ele>384</ele>
        <time>2018-06-03T07:33:45.000Z</time>
      </trkpt>
      <trkpt lat="44.54954" lon="4.24797">
        <ele>384</ele>
        <time>2018-06-03T07:33:46.000Z</time>
      </trkpt>
      <trkpt lat="44.54954" lon="4.24796">
        <ele>384</ele>
        <time>2018-06-03T07:33:47.000Z</time>
      </trkpt>
      <trkpt lat="44.54955" lon="4.24795">
        <ele>383</ele>
        <time>2018-06-03T07:33:48.000Z</time>
      </trkpt>
      <trkpt lat="44.54955" lon="4.24794">
        <ele>383</ele>
        <time>2018-06-03T07:33:49.000Z</time>
      </trkpt>
      <trkpt lat="44.54955" lon="4.24793">
        <ele>383</ele>
        <time>2018-06-03T07:33:50.000Z</time>
      </trkpt>
      <trkpt lat="44.54956" lon="4.24792">
        <ele>383</ele>
        <time>2018-06-03T07:33:51.000Z</time>
      </trkpt>
      <trkpt lat="44.54957" lon="4.24791">
        <ele>383</ele>
        <time>2018-06-03T07:33:52.000Z</time>
      </trkpt>
      <trkpt lat="44.54958" lon="4.2479">
        <ele>383</ele>
        <time>2018-06-03T07:33:53.000Z</time>
      </trkpt>
      <trkpt lat="44.54959" lon="4.24787">
        <ele>383</ele>
        <time>2018-06-03T07:33:54.000Z</time>
      </trkpt>
      <trkpt lat="44.5496" lon="4.24785">
        <ele>382</ele>
        <time>2018-06-03T07:33:55.000Z</time>
      </trkpt>
      <trkpt lat="44.54962" lon="4.24783">
        <ele>382</ele>
        <time>2018-06-03T07:33:56.000Z</time>
      </trkpt>
      <trkpt lat="44.54964" lon="4.24779">
        <ele>382</ele>
        <time>2018-06-03T07:33:57.000Z</time>
      </trkpt>
      <trkpt lat="44.54966" lon="4.24776">
        <ele>381</ele>
        <time>2018-06-03T07:33:58.000Z</time>
      </trkpt>
      <trkpt lat="44.54969" lon="4.24772">
        <ele>380</ele>
        <time>2018-06-03T07:33:59.000Z</time>
      </trkpt>
      <trkpt lat="44.54972" lon="4.24769">
        <ele>379</ele>
        <time>2018-06-03T07:34:00.000Z</time>
      </trkpt>
      <trkpt lat="44.54975" lon="4.24765">
        <ele>378</ele>
        <time>2018-06-03T07:34:01.000Z</time>
      </trkpt>
      <trkpt lat="44.54978" lon="4.24761">
        <ele>377</ele>
        <time>2018-06-03T07:34:02.000Z</time>
      </trkpt>
      <trkpt lat="44.54981" lon="4.24758">
        <ele>376</ele>
        <time>2018-06-03T07:34:03.000Z</time>
      </trkpt>
      <trkpt lat="44.54985" lon="4.24753">
        <ele>374</ele>
        <time>2018-06-03T07:34:04.000Z</time>
      </trkpt>
      <trkpt lat="44.54989" lon="4.2475">
        <ele>374</ele>
        <time>2018-06-03T07:34:05.000Z</time>
      </trkpt>
      <trkpt lat="44.54992" lon="4.24746">
        <ele>372</ele>
        <time>2018-06-03T07:34:06.000Z</time>
      </trkpt>
      <trkpt lat="44.54996" lon="4.24742">
        <ele>372</ele>
        <time>2018-06-03T07:34:07.000Z</time>
      </trkpt>
      <trkpt lat="44.55" lon="4.24738">
        <ele>374</ele>
        <time>2018-06-03T07:34:08.000Z</time>
      </trkpt>
      <trkpt lat="44.55003" lon="4.24733">
        <ele>362</ele>
        <time>2018-06-03T07:34:09.000Z</time>
      </trkpt>
      <trkpt lat="44.55006" lon="4.24727">
        <ele>361</ele>
        <time>2018-06-03T07:34:10.000Z</time>
      </trkpt>
      <trkpt lat="44.55008" lon="4.2472">
        <ele>361</ele>
        <time>2018-06-03T07:34:11.000Z</time>
      </trkpt>
      <trkpt lat="44.5501" lon="4.24713">
        <ele>361</ele>
        <time>2018-06-03T07:34:12.000Z</time>
      </trkpt>
      <trkpt lat="44.55011" lon="4.24706">
        <ele>361</ele>
        <time>2018-06-03T07:34:13.000Z</time>
      </trkpt>
      <trkpt lat="44.55013" lon="4.24699">
        <ele>362</ele>
        <time>2018-06-03T07:34:14.000Z</time>
      </trkpt>
      <trkpt lat="44.55016" lon="4.2469">
        <ele>363</ele>
        <time>2018-06-03T07:34:15.000Z</time>
      </trkpt>
      <trkpt lat="44.55018" lon="4.24682">
        <ele>363</ele>
        <time>2018-06-03T07:34:16.000Z</time>
      </trkpt>
      <trkpt lat="44.5502" lon="4.24674">
        <ele>364</ele>
        <time>2018-06-03T07:34:17.000Z</time>
      </trkpt>
      <trkpt lat="44.55023" lon="4.24666">
        <ele>364</ele>
        <time>2018-06-03T07:34:18.000Z</time>
      </trkpt>
      <trkpt lat="44.55025" lon="4.24659">
        <ele>363</ele>
        <time>2018-06-03T07:34:19.000Z</time>
      </trkpt>
      <trkpt lat="44.55027" lon="4.24652">
        <ele>362</ele>
        <time>2018-06-03T07:34:20.000Z</time>
      </trkpt>
      <trkpt lat="44.55029" lon="4.24645">
        <ele>361</ele>
        <time>2018-06-03T07:34:21.000Z</time>
      </trkpt>
      <trkpt lat="44.55031" lon="4.24639">
        <ele>360</ele>
        <time>2018-06-03T07:34:22.000Z</time>
      </trkpt>
      <trkpt lat="44.55034" lon="4.24632">
        <ele>359</ele>
        <time>2018-06-03T07:34:23.000Z</time>
      </trkpt>
      <trkpt lat="44.55037" lon="4.24626">
        <ele>359</ele>
        <time>2018-06-03T07:34:24.000Z</time>
      </trkpt>
      <trkpt lat="44.55038" lon="4.2462">
        <ele>358</ele>
        <time>2018-06-03T07:34:25.000Z</time>
      </trkpt>
      <trkpt lat="44.5504" lon="4.24616">
        <ele>358</ele>
        <time>2018-06-03T07:34:26.000Z</time>
      </trkpt>
      <trkpt lat="44.55042" lon="4.24613">
        <ele>358</ele>
        <time>2018-06-03T07:34:27.000Z</time>
      </trkpt>
      <trkpt lat="44.55043" lon="4.2461">
        <ele>358</ele>
        <time>2018-06-03T07:34:28.000Z</time>
      </trkpt>
      <trkpt lat="44.55044" lon="4.24608">
        <ele>357</ele>
        <time>2018-06-03T07:34:29.000Z</time>
      </trkpt>
      <trkpt lat="44.55045" lon="4.24606">
        <ele>357</ele>
        <time>2018-06-03T07:34:30.000Z</time>
      </trkpt>
      <trkpt lat="44.55046" lon="4.24605">
        <ele>357</ele>
        <time>2018-06-03T07:34:31.000Z</time>
      </trkpt>
      <trkpt lat="44.55046" lon="4.24604">
        <ele>357</ele>
        <time>2018-06-03T07:34:32.000Z</time>
      </trkpt>
      <trkpt lat="44.55047" lon="4.24603">
        <ele>357</ele>
        <time>2018-06-03T07:34:33.000Z</time>
      </trkpt>
      <trkpt lat="44.55049" lon="4.24603">
        <ele>356</ele>
        <time>2018-06-03T07:34:34.000Z</time>
      </trkpt>
      <trkpt lat="44.55049" lon="4.24604">
        <ele>356</ele>
        <time>2018-06-03T07:34:35.000Z</time>
      </trkpt>
      <trkpt lat="44.5505" lon="4.24606">
        <ele>356</ele>
        <time>2018-06-03T07:34:36.000Z</time>
      </trkpt>
      <trkpt lat="44.55051" lon="4.24609">
        <ele>356</ele>
        <time>2018-06-03T07:34:37.000Z</time>
      </trkpt>
      <trkpt lat="44.55051" lon="4.24612">
        <ele>356</ele>
        <time>2018-06-03T07:34:38.000Z</time>
      </trkpt>
      <trkpt lat="44.55051" lon="4.24618">
        <ele>356</ele>
        <time>2018-06-03T07:34:39.000Z</time>
      </trkpt>
      <trkpt lat="44.55051" lon="4.24624">
        <ele>357</ele>
        <time>2018-06-03T07:34:40.000Z</time>
      </trkpt>
      <trkpt lat="44.55051" lon="4.24629">
        <ele>357</ele>
        <time>2018-06-03T07:34:41.000Z</time>
      </trkpt>
      <trkpt lat="44.5505" lon="4.24634">
        <ele>357</ele>
        <time>2018-06-03T07:34:42.000Z</time>
      </trkpt>
      <trkpt lat="44.5505" lon="4.24638">
        <ele>357</ele>
        <time>2018-06-03T07:34:43.000Z</time>
      </trkpt>
      <trkpt lat="44.5505" lon="4.24642">
        <ele>357</ele>
        <time>2018-06-03T07:34:44.000Z</time>
      </trkpt>
      <trkpt lat="44.55051" lon="4.24643">
        <ele>357</ele>
        <time>2018-06-03T07:34:45.000Z</time>
      </trkpt>
      <trkpt lat="44.55052" lon="4.24641">
        <ele>356</ele>
        <time>2018-06-03T07:34:46.000Z</time>
      </trkpt>
      <trkpt lat="44.55053" lon="4.24639">
        <ele>356</ele>
        <time>2018-06-03T07:34:47.000Z</time>
      </trkpt>
      <trkpt lat="44.55054" lon="4.24636">
        <ele>356</ele>
        <time>2018-06-03T07:34:48.000Z</time>
      </trkpt>
      <trkpt lat="44.55056" lon="4.24631">
        <ele>356</ele>
        <time>2018-06-03T07:34:49.000Z</time>
      </trkpt>
      <trkpt lat="44.55057" lon="4.24625">
        <ele>356</ele>
        <time>2018-06-03T07:34:50.000Z</time>
      </trkpt>
      <trkpt lat="44.55059" lon="4.24618">
        <ele>355</ele>
        <time>2018-06-03T07:34:51.000Z</time>
      </trkpt>
      <trkpt lat="44.5506" lon="4.24611">
        <ele>355</ele>
        <time>2018-06-03T07:34:52.000Z</time>
      </trkpt>
      <trkpt lat="44.55061" lon="4.24604">
        <ele>354</ele>
        <time>2018-06-03T07:34:53.000Z</time>
      </trkpt>
      <trkpt lat="44.55062" lon="4.24597">
        <ele>353</ele>
        <time>2018-06-03T07:34:54.000Z</time>
      </trkpt>
      <trkpt lat="44.55064" lon="4.24591">
        <ele>352</ele>
        <time>2018-06-03T07:34:55.000Z</time>
      </trkpt>
      <trkpt lat="44.55066" lon="4.24584">
        <ele>352</ele>
        <time>2018-06-03T07:34:56.000Z</time>
      </trkpt>
      <trkpt lat="44.55068" lon="4.24579">
        <ele>351</ele>
        <time>2018-06-03T07:34:57.000Z</time>
      </trkpt>
      <trkpt lat="44.55068" lon="4.24574">
        <ele>351</ele>
        <time>2018-06-03T07:34:58.000Z</time>
      </trkpt>
      <trkpt lat="44.55068" lon="4.24568">
        <ele>352</ele>
        <time>2018-06-03T07:34:59.000Z</time>
      </trkpt>
      <trkpt lat="44.55066" lon="4.24563">
        <ele>353</ele>
        <time>2018-06-03T07:35:00.000Z</time>
      </trkpt>
      <trkpt lat="44.55065" lon="4.2456">
        <ele>353</ele>
        <time>2018-06-03T07:35:01.000Z</time>
      </trkpt>
      <trkpt lat="44.55065" lon="4.24558">
        <ele>353</ele>
        <time>2018-06-03T07:35:02.000Z</time>
      </trkpt>
      <trkpt lat="44.55065" lon="4.24557">
        <ele>353</ele>
        <time>2018-06-03T07:35:03.000Z</time>
      </trkpt>
      <trkpt lat="44.55065" lon="4.24556">
        <ele>353</ele>
        <time>2018-06-03T07:35:04.000Z</time>
      </trkpt>
      <trkpt lat="44.55065" lon="4.24556">
        <ele>353</ele>
        <time>2018-06-03T07:35:05.000Z</time>
      </trkpt>
      <trkpt lat="44.55065" lon="4.24555">
        <ele>353</ele>
        <time>2018-06-03T07:35:06.000Z</time>
      </trkpt>
      <trkpt lat="44.55065" lon="4.24553">
        <ele>353</ele>
        <time>2018-06-03T07:35:07.000Z</time>
      </trkpt>
      <trkpt lat="44.55066" lon="4.24552">
        <ele>353</ele>
        <time>2018-06-03T07:35:08.000Z</time>
      </trkpt>
      <trkpt lat="44.55066" lon="4.24552">
        <ele>353</ele>
        <time>2018-06-03T07:35:09.000Z</time>
      </trkpt>
      <trkpt lat="44.55066" lon="4.24551">
        <ele>354</ele>
        <time>2018-06-03T07:35:10.000Z</time>
      </trkpt>
      <trkpt lat="44.55066" lon="4.24551">
        <ele>354</ele>
        <time>2018-06-03T07:35:11.000Z</time>
      </trkpt>
      <trkpt lat="44.55066" lon="4.2455">
        <ele>354</ele>
        <time>2018-06-03T07:35:12.000Z</time>
      </trkpt>
      <trkpt lat="44.55066" lon="4.2455">
        <ele>354</ele>
        <time>2018-06-03T07:35:13.000Z</time>
      </trkpt>
      <trkpt lat="44.55066" lon="4.2455">
        <ele>354</ele>
        <time>2018-06-03T07:35:14.000Z</time>
      </trkpt>
      <trkpt lat="44.55066" lon="4.24549">
        <ele>354</ele>
        <time>2018-06-03T07:35:15.000Z</time>
      </trkpt>
      <trkpt lat="44.55066" lon="4.24549">
        <ele>354</ele>
        <time>2018-06-03T07:35:16.000Z</time>
      </trkpt>
      <trkpt lat="44.55066" lon="4.24548">
        <ele>354</ele>
        <time>2018-06-03T07:35:17.000Z</time>
      </trkpt>
      <trkpt lat="44.55067" lon="4.24548">
        <ele>354</ele>
        <time>2018-06-03T07:35:18.000Z</time>
      </trkpt>
      <trkpt lat="44.55067" lon="4.24548">
        <ele>354</ele>
        <time>2018-06-03T07:35:19.000Z</time>
      </trkpt>
      <trkpt lat="44.55067" lon="4.24548">
        <ele>354</ele>
        <time>2018-06-03T07:35:20.000Z</time>
      </trkpt>
      <trkpt lat="44.55067" lon="4.24547">
        <ele>354</ele>
        <time>2018-06-03T07:35:21.000Z</time>
      </trkpt>
      <trkpt lat="44.55067" lon="4.24547">
        <ele>354</ele>
        <time>2018-06-03T07:35:22.000Z</time>
      </trkpt>
      <trkpt lat="44.55067" lon="4.24546">
        <ele>354</ele>
        <time>2018-06-03T07:35:23.000Z</time>
      </trkpt>
      <trkpt lat="44.55067" lon="4.24546">
        <ele>354</ele>
        <time>2018-06-03T07:35:24.000Z</time>
      </trkpt>
      <trkpt lat="44.55067" lon="4.24545">
        <ele>354</ele>
        <time>2018-06-03T07:35:25.000Z</time>
      </trkpt>
      <trkpt lat="44.55067" lon="4.24545">
        <ele>354</ele>
        <time>2018-06-03T07:35:26.000Z</time>
      </trkpt>
      <trkpt lat="44.55067" lon="4.24544">
        <ele>354</ele>
        <time>2018-06-03T07:35:27.000Z</time>
      </trkpt>
      <trkpt lat="44.55067" lon="4.24544">
        <ele>354</ele>
        <time>2018-06-03T07:35:28.000Z</time>
      </trkpt>
      <trkpt lat="44.55067" lon="4.24544">
        <ele>354</ele>
        <time>2018-06-03T07:35:29.000Z</time>
      </trkpt>
      <trkpt lat="44.55067" lon="4.24544">
        <ele>354</ele>
        <time>2018-06-03T07:35:30.000Z</time>
      </trkpt>
      <trkpt lat="44.55067" lon="4.24544">
        <ele>354</ele>
        <time>2018-06-03T07:35:31.000Z</time>
      </trkpt>
      <trkpt lat="44.55067" lon="4.24544">
        <ele>354</ele>
        <time>2018-06-03T07:35:32.000Z</time>
      </trkpt>
      <trkpt lat="44.55067" lon="4.24544">
        <ele>354</ele>
        <time>2018-06-03T07:35:33.000Z</time>
      </trkpt>
      <trkpt lat="44.55067" lon="4.24543">
        <ele>354</ele>
        <time>2018-06-03T07:35:34.000Z</time>
      </trkpt>
      <trkpt lat="44.55067" lon="4.24543">
        <ele>354</ele>
        <time>2018-06-03T07:35:35.000Z</time>
      </trkpt>
      <trkpt lat="44.55067" lon="4.24543">
        <ele>354</ele>
        <time>2018-06-03T07:35:36.000Z</time>
      </trkpt>
      <trkpt lat="44.55067" lon="4.24543">
        <ele>354</ele>
        <time>2018-06-03T07:35:37.000Z</time>
      </trkpt>
      <trkpt lat="44.55067" lon="4.24543">
        <ele>354</ele>
        <time>2018-06-03T07:35:38.000Z</time>
      </trkpt>
      <trkpt lat="44.55067" lon="4.24543">
        <ele>354</ele>
        <time>2018-06-03T07:35:39.000Z</time>
      </trkpt>
      <trkpt lat="44.55067" lon="4.24543">
        <ele>354</ele>
        <time>2018-06-03T07:35:40.000Z</time>
      </trkpt>
      <trkpt lat="44.55067" lon="4.24543">
        <ele>354</ele>
        <time>2018-06-03T07:35:41.000Z</time>
      </trkpt>
      <trkpt lat="44.55067" lon="4.24543">
        <ele>354</ele>
        <time>2018-06-03T07:35:42.000Z</time>
      </trkpt>
      <trkpt lat="44.55067" lon="4.24543">
        <ele>354</ele>
        <time>2018-06-03T07:35:43.000Z</time>
      </trkpt>
      <trkpt lat="44.55067" lon="4.24543">
        <ele>354</ele>
        <time>2018-06-03T07:35:44.000Z</time>
      </trkpt>
      <trkpt lat="44.55067" lon="4.24543">
        <ele>354</ele>
        <time>2018-06-03T07:35:45.000Z</time>
      </trkpt>
      <trkpt lat="44.55067" lon="4.24544">
        <ele>354</ele>
        <time>2018-06-03T07:35:46.000Z</time>
      </trkpt>
      <trkpt lat="44.55066" lon="4.24544">
        <ele>354</ele>
        <time>2018-06-03T07:35:47.000Z</time>
      </trkpt>
      <trkpt lat="44.55067" lon="4.24544">
        <ele>354</ele>
        <time>2018-06-03T07:35:48.000Z</time>
      </trkpt>
      <trkpt lat="44.55067" lon="4.24544">
        <ele>354</ele>
        <time>2018-06-03T07:35:49.000Z</time>
      </trkpt>
      <trkpt lat="44.55067" lon="4.24544">
        <ele>354</ele>
        <time>2018-06-03T07:35:50.000Z</time>
      </trkpt>
      <trkpt lat="44.55067" lon="4.24544">
        <ele>354</ele>
        <time>2018-06-03T07:35:51.000Z</time>
      </trkpt>
      <trkpt lat="44.55067" lon="4.24544">
        <ele>354</ele>
        <time>2018-06-03T07:35:52.000Z</time>
      </trkpt>
      <trkpt lat="44.55067" lon="4.24544">
        <ele>354</ele>
        <time>2018-06-03T07:35:53.000Z</time>
      </trkpt>
      <trkpt lat="44.55067" lon="4.24544">
        <ele>354</ele>
        <time>2018-06-03T07:35:54.000Z</time>
      </trkpt>
      <trkpt lat="44.55067" lon="4.24544">
        <ele>354</ele>
        <time>2018-06-03T07:35:55.000Z</time>
      </trkpt>
      <trkpt lat="44.55067" lon="4.24544">
        <ele>354</ele>
        <time>2018-06-03T07:35:56.000Z</time>
      </trkpt>
      <trkpt lat="44.55067" lon="4.24545">
        <ele>354</ele>
        <time>2018-06-03T07:35:57.000Z</time>
      </trkpt>
      <trkpt lat="44.55067" lon="4.24545">
        <ele>354</ele>
        <time>2018-06-03T07:35:58.000Z</time>
      </trkpt>
      <trkpt lat="44.55067" lon="4.24545">
        <ele>354</ele>
        <time>2018-06-03T07:35:59.000Z</time>
      </trkpt>
      <trkpt lat="44.55067" lon="4.24545">
        <ele>354</ele>
        <time>2018-06-03T07:36:00.000Z</time>
      </trkpt>
      <trkpt lat="44.55067" lon="4.24545">
        <ele>354</ele>
        <time>2018-06-03T07:36:01.000Z</time>
      </trkpt>
      <trkpt lat="44.55066" lon="4.24545">
        <ele>354</ele>
        <time>2018-06-03T07:36:02.000Z</time>
      </trkpt>
      <trkpt lat="44.55066" lon="4.24545">
        <ele>354</ele>
        <time>2018-06-03T07:36:03.000Z</time>
      </trkpt>
      <trkpt lat="44.55066" lon="4.24545">
        <ele>354</ele>
        <time>2018-06-03T07:36:04.000Z</time>
      </trkpt>
      <trkpt lat="44.55066" lon="4.24546">
        <ele>354</ele>
        <time>2018-06-03T07:36:05.000Z</time>
      </trkpt>
      <trkpt lat="44.55066" lon="4.24546">
        <ele>354</ele>
        <time>2018-06-03T07:36:06.000Z</time>
      </trkpt>
      <trkpt lat="44.55066" lon="4.24546">
        <ele>354</ele>
        <time>2018-06-03T07:36:07.000Z</time>
      </trkpt>
      <trkpt lat="44.55066" lon="4.24546">
        <ele>354</ele>
        <time>2018-06-03T07:36:08.000Z</time>
      </trkpt>
      <trkpt lat="44.55066" lon="4.24546">
        <ele>354</ele>
        <time>2018-06-03T07:36:09.000Z</time>
      </trkpt>
      <trkpt lat="44.55066" lon="4.24546">
        <ele>354</ele>
        <time>2018-06-03T07:36:10.000Z</time>
      </trkpt>
      <trkpt lat="44.55066" lon="4.24546">
        <ele>354</ele>
        <time>2018-06-03T07:36:11.000Z</time>
      </trkpt>
      <trkpt lat="44.55066" lon="4.24546">
        <ele>354</ele>
        <time>2018-06-03T07:36:12.000Z</time>
      </trkpt>
      <trkpt lat="44.55066" lon="4.24545">
        <ele>354</ele>
        <time>2018-06-03T07:36:13.000Z</time>
      </trkpt>
      <trkpt lat="44.55067" lon="4.24545">
        <ele>354</ele>
        <time>2018-06-03T07:36:14.000Z</time>
      </trkpt>
      <trkpt lat="44.55067" lon="4.24544">
        <ele>354</ele>
        <time>2018-06-03T07:36:15.000Z</time>
      </trkpt>
      <trkpt lat="44.55068" lon="4.24543">
        <ele>353</ele>
        <time>2018-06-03T07:36:16.000Z</time>
      </trkpt>
      <trkpt lat="44.55068" lon="4.24543">
        <ele>353</ele>
        <time>2018-06-03T07:36:17.000Z</time>
      </trkpt>
      <trkpt lat="44.55068" lon="4.24543">
        <ele>353</ele>
        <time>2018-06-03T07:36:18.000Z</time>
      </trkpt>
      <trkpt lat="44.55068" lon="4.24543">
        <ele>353</ele>
        <time>2018-06-03T07:36:19.000Z</time>
      </trkpt>
      <trkpt lat="44.55068" lon="4.24542">
        <ele>353</ele>
        <time>2018-06-03T07:36:20.000Z</time>
      </trkpt>
      <trkpt lat="44.55068" lon="4.24542">
        <ele>353</ele>
        <time>2018-06-03T07:36:21.000Z</time>
      </trkpt>
      <trkpt lat="44.55068" lon="4.24542">
        <ele>353</ele>
        <time>2018-06-03T07:36:22.000Z</time>
      </trkpt>
      <trkpt lat="44.55068" lon="4.24542">
        <ele>353</ele>
        <time>2018-06-03T07:36:23.000Z</time>
      </trkpt>
      <trkpt lat="44.55068" lon="4.24541">
        <ele>353</ele>
        <time>2018-06-03T07:36:24.000Z</time>
      </trkpt>
      <trkpt lat="44.55068" lon="4.24541">
        <ele>353</ele>
        <time>2018-06-03T07:36:25.000Z</time>
      </trkpt>
      <trkpt lat="44.55068" lon="4.24541">
        <ele>353</ele>
        <time>2018-06-03T07:36:26.000Z</time>
      </trkpt>
      <trkpt lat="44.55068" lon="4.24541">
        <ele>353</ele>
        <time>2018-06-03T07:36:27.000Z</time>
      </trkpt>
      <trkpt lat="44.55068" lon="4.24541">
        <ele>353</ele>
        <time>2018-06-03T07:36:28.000Z</time>
      </trkpt>
      <trkpt lat="44.55068" lon="4.2454">
        <ele>353</ele>
        <time>2018-06-03T07:36:29.000Z</time>
      </trkpt>
      <trkpt lat="44.55068" lon="4.2454">
        <ele>353</ele>
        <time>2018-06-03T07:36:30.000Z</time>
      </trkpt>
      <trkpt lat="44.55068" lon="4.2454">
        <ele>353</ele>
        <time>2018-06-03T07:36:31.000Z</time>
      </trkpt>
      <trkpt lat="44.55068" lon="4.2454">
        <ele>353</ele>
        <time>2018-06-03T07:36:32.000Z</time>
      </trkpt>
      <trkpt lat="44.55068" lon="4.24539">
        <ele>353</ele>
        <time>2018-06-03T07:36:33.000Z</time>
      </trkpt>
      <trkpt lat="44.55068" lon="4.24539">
        <ele>353</ele>
        <time>2018-06-03T07:36:34.000Z</time>
      </trkpt>
      <trkpt lat="44.55068" lon="4.24539">
        <ele>353</ele>
        <time>2018-06-03T07:36:35.000Z</time>
      </trkpt>
      <trkpt lat="44.55068" lon="4.24537">
        <ele>353</ele>
        <time>2018-06-03T07:36:36.000Z</time>
      </trkpt>
      <trkpt lat="44.55068" lon="4.24537">
        <ele>353</ele>
        <time>2018-06-03T07:36:37.000Z</time>
      </trkpt>
      <trkpt lat="44.55067" lon="4.24537">
        <ele>353</ele>
        <time>2018-06-03T07:36:38.000Z</time>
      </trkpt>
      <trkpt lat="44.55066" lon="4.24538">
        <ele>354</ele>
        <time>2018-06-03T07:36:39.000Z</time>
      </trkpt>
      <trkpt lat="44.55066" lon="4.24537">
        <ele>354</ele>
        <time>2018-06-03T07:36:40.000Z</time>
      </trkpt>
      <trkpt lat="44.55066" lon="4.24535">
        <ele>354</ele>
        <time>2018-06-03T07:36:41.000Z</time>
      </trkpt>
      <trkpt lat="44.55065" lon="4.24534">
        <ele>354</ele>
        <time>2018-06-03T07:36:42.000Z</time>
      </trkpt>
      <trkpt lat="44.55065" lon="4.24533">
        <ele>354</ele>
        <time>2018-06-03T07:36:43.000Z</time>
      </trkpt>
      <trkpt lat="44.55065" lon="4.24532">
        <ele>354</ele>
        <time>2018-06-03T07:36:44.000Z</time>
      </trkpt>
      <trkpt lat="44.55065" lon="4.2453">
        <ele>353</ele>
        <time>2018-06-03T07:36:45.000Z</time>
      </trkpt>
      <trkpt lat="44.55064" lon="4.24528">
        <ele>353</ele>
        <time>2018-06-03T07:36:46.000Z</time>
      </trkpt>
      <trkpt lat="44.55064" lon="4.24526">
        <ele>353</ele>
        <time>2018-06-03T07:36:47.000Z</time>
      </trkpt>
      <trkpt lat="44.55063" lon="4.24525">
        <ele>353</ele>
        <time>2018-06-03T07:36:48.000Z</time>
      </trkpt>
      <trkpt lat="44.55062" lon="4.24524">
        <ele>353</ele>
        <time>2018-06-03T07:36:49.000Z</time>
      </trkpt>
      <trkpt lat="44.55062" lon="4.24523">
        <ele>353</ele>
        <time>2018-06-03T07:36:50.000Z</time>
      </trkpt>
      <trkpt lat="44.55061" lon="4.24522">
        <ele>354</ele>
        <time>2018-06-03T07:36:51.000Z</time>
      </trkpt>
      <trkpt lat="44.55061" lon="4.24521">
        <ele>354</ele>
        <time>2018-06-03T07:36:52.000Z</time>
      </trkpt>
      <trkpt lat="44.5506" lon="4.2452">
        <ele>354</ele>
        <time>2018-06-03T07:36:53.000Z</time>
      </trkpt>
      <trkpt lat="44.55059" lon="4.24519">
        <ele>354</ele>
        <time>2018-06-03T07:36:54.000Z</time>
      </trkpt>
      <trkpt lat="44.55059" lon="4.24518">
        <ele>354</ele>
        <time>2018-06-03T07:36:55.000Z</time>
      </trkpt>
      <trkpt lat="44.55058" lon="4.24518">
        <ele>354</ele>
        <time>2018-06-03T07:36:56.000Z</time>
      </trkpt>
      <trkpt lat="44.55058" lon="4.24517">
        <ele>354</ele>
        <time>2018-06-03T07:36:57.000Z</time>
      </trkpt>
      <trkpt lat="44.55058" lon="4.24517">
        <ele>354</ele>
        <time>2018-06-03T07:36:58.000Z</time>
      </trkpt>
      <trkpt lat="44.55057" lon="4.24517">
        <ele>354</ele>
        <time>2018-06-03T07:36:59.000Z</time>
      </trkpt>
      <trkpt lat="44.55057" lon="4.24516">
        <ele>354</ele>
        <time>2018-06-03T07:37:00.000Z</time>
      </trkpt>
      <trkpt lat="44.55056" lon="4.24515">
        <ele>354</ele>
        <time>2018-06-03T07:37:01.000Z</time>
      </trkpt>
      <trkpt lat="44.55056" lon="4.24515">
        <ele>354</ele>
        <time>2018-06-03T07:37:02.000Z</time>
      </trkpt>
      <trkpt lat="44.55055" lon="4.24514">
        <ele>354</ele>
        <time>2018-06-03T07:37:03.000Z</time>
      </trkpt>
      <trkpt lat="44.55055" lon="4.24513">
        <ele>354</ele>
        <time>2018-06-03T07:37:04.000Z</time>
      </trkpt>
      <trkpt lat="44.55055" lon="4.24512">
        <ele>354</ele>
        <time>2018-06-03T07:37:05.000Z</time>
      </trkpt>
      <trkpt lat="44.55054" lon="4.24511">
        <ele>354</ele>
        <time>2018-06-03T07:37:06.000Z</time>
      </trkpt>
      <trkpt lat="44.55053" lon="4.2451">
        <ele>355</ele>
        <time>2018-06-03T07:37:07.000Z</time>
      </trkpt>
      <trkpt lat="44.55053" lon="4.2451">
        <ele>355</ele>
        <time>2018-06-03T07:37:08.000Z</time>
      </trkpt>
      <trkpt lat="44.55052" lon="4.24508">
        <ele>355</ele>
        <time>2018-06-03T07:37:09.000Z</time>
      </trkpt>
      <trkpt lat="44.55052" lon="4.24507">
        <ele>355</ele>
        <time>2018-06-03T07:37:10.000Z</time>
      </trkpt>
      <trkpt lat="44.55053" lon="4.24506">
        <ele>355</ele>
        <time>2018-06-03T07:37:11.000Z</time>
      </trkpt>
      <trkpt lat="44.55053" lon="4.24505">
        <ele>354</ele>
        <time>2018-06-03T07:37:12.000Z</time>
      </trkpt>
      <trkpt lat="44.55054" lon="4.24504">
        <ele>354</ele>
        <time>2018-06-03T07:37:13.000Z</time>
      </trkpt>
      <trkpt lat="44.55054" lon="4.24503">
        <ele>354</ele>
        <time>2018-06-03T07:37:14.000Z</time>
      </trkpt>
      <trkpt lat="44.55055" lon="4.24503">
        <ele>354</ele>
        <time>2018-06-03T07:37:15.000Z</time>
      </trkpt>
      <trkpt lat="44.55056" lon="4.24502">
        <ele>354</ele>
        <time>2018-06-03T07:37:16.000Z</time>
      </trkpt>
      <trkpt lat="44.55057" lon="4.24501">
        <ele>353</ele>
        <time>2018-06-03T07:37:17.000Z</time>
      </trkpt>
      <trkpt lat="44.55058" lon="4.245">
        <ele>353</ele>
        <time>2018-06-03T07:37:18.000Z</time>
      </trkpt>
      <trkpt lat="44.55058" lon="4.24499">
        <ele>355</ele>
        <time>2018-06-03T07:37:19.000Z</time>
      </trkpt>
      <trkpt lat="44.55059" lon="4.24498">
        <ele>355</ele>
        <time>2018-06-03T07:37:20.000Z</time>
      </trkpt>
      <trkpt lat="44.5506" lon="4.24497">
        <ele>355</ele>
        <time>2018-06-03T07:37:21.000Z</time>
      </trkpt>
      <trkpt lat="44.55061" lon="4.24496">
        <ele>355</ele>
        <time>2018-06-03T07:37:22.000Z</time>
      </trkpt>
      <trkpt lat="44.55062" lon="4.24495">
        <ele>354</ele>
        <time>2018-06-03T07:37:23.000Z</time>
      </trkpt>
      <trkpt lat="44.55063" lon="4.24494">
        <ele>354</ele>
        <time>2018-06-03T07:37:24.000Z</time>
      </trkpt>
      <trkpt lat="44.55064" lon="4.24494">
        <ele>354</ele>
        <time>2018-06-03T07:37:25.000Z</time>
      </trkpt>
      <trkpt lat="44.55064" lon="4.24493">
        <ele>354</ele>
        <time>2018-06-03T07:37:26.000Z</time>
      </trkpt>
      <trkpt lat="44.55065" lon="4.24492">
        <ele>353</ele>
        <time>2018-06-03T07:37:27.000Z</time>
      </trkpt>
      <trkpt lat="44.55066" lon="4.24491">
        <ele>353</ele>
        <time>2018-06-03T07:37:28.000Z</time>
      </trkpt>
      <trkpt lat="44.55066" lon="4.2449">
        <ele>353</ele>
        <time>2018-06-03T07:37:29.000Z</time>
      </trkpt>
      <trkpt lat="44.55066" lon="4.2449">
        <ele>353</ele>
        <time>2018-06-03T07:37:30.000Z</time>
      </trkpt>
      <trkpt lat="44.55066" lon="4.2449">
        <ele>353</ele>
        <time>2018-06-03T07:37:31.000Z</time>
      </trkpt>
      <trkpt lat="44.55067" lon="4.24489">
        <ele>353</ele>
        <time>2018-06-03T07:37:32.000Z</time>
      </trkpt>
      <trkpt lat="44.55067" lon="4.24489">
        <ele>353</ele>
        <time>2018-06-03T07:37:33.000Z</time>
      </trkpt>
      <trkpt lat="44.55067" lon="4.24489">
        <ele>353</ele>
        <time>2018-06-03T07:37:34.000Z</time>
      </trkpt>
      <trkpt lat="44.55068" lon="4.24488">
        <ele>353</ele>
        <time>2018-06-03T07:37:35.000Z</time>
      </trkpt>
      <trkpt lat="44.55069" lon="4.24488">
        <ele>353</ele>
        <time>2018-06-03T07:37:36.000Z</time>
      </trkpt>
      <trkpt lat="44.5507" lon="4.24486">
        <ele>353</ele>
        <time>2018-06-03T07:37:37.000Z</time>
      </trkpt>
      <trkpt lat="44.55072" lon="4.24485">
        <ele>353</ele>
        <time>2018-06-03T07:37:38.000Z</time>
      </trkpt>
      <trkpt lat="44.55074" lon="4.24484">
        <ele>353</ele>
        <time>2018-06-03T07:37:39.000Z</time>
      </trkpt>
      <trkpt lat="44.55075" lon="4.24483">
        <ele>353</ele>
        <time>2018-06-03T07:37:40.000Z</time>
      </trkpt>
      <trkpt lat="44.55077" lon="4.24482">
        <ele>353</ele>
        <time>2018-06-03T07:37:41.000Z</time>
      </trkpt>
      <trkpt lat="44.55079" lon="4.24482">
        <ele>352</ele>
        <time>2018-06-03T07:37:42.000Z</time>
      </trkpt>
      <trkpt lat="44.55081" lon="4.24482">
        <ele>352</ele>
        <time>2018-06-03T07:37:43.000Z</time>
      </trkpt>
      <trkpt lat="44.55083" lon="4.24482">
        <ele>352</ele>
        <time>2018-06-03T07:37:44.000Z</time>
      </trkpt>
      <trkpt lat="44.55085" lon="4.24482">
        <ele>349</ele>
        <time>2018-06-03T07:37:45.000Z</time>
      </trkpt>
      <trkpt lat="44.55086" lon="4.24482">
        <ele>349</ele>
        <time>2018-06-03T07:37:46.000Z</time>
      </trkpt>
      <trkpt lat="44.55087" lon="4.24481">
        <ele>349</ele>
        <time>2018-06-03T07:37:47.000Z</time>
      </trkpt>
      <trkpt lat="44.55089" lon="4.24481">
        <ele>350</ele>
        <time>2018-06-03T07:37:48.000Z</time>
      </trkpt>
      <trkpt lat="44.5509" lon="4.2448">
        <ele>350</ele>
        <time>2018-06-03T07:37:49.000Z</time>
      </trkpt>
      <trkpt lat="44.5509" lon="4.2448">
        <ele>350</ele>
        <time>2018-06-03T07:37:50.000Z</time>
      </trkpt>
      <trkpt lat="44.55091" lon="4.2448">
        <ele>350</ele>
        <time>2018-06-03T07:37:51.000Z</time>
      </trkpt>
      <trkpt lat="44.55091" lon="4.2448">
        <ele>350</ele>
        <time>2018-06-03T07:37:52.000Z</time>
      </trkpt>
      <trkpt lat="44.55091" lon="4.2448">
        <ele>350</ele>
        <time>2018-06-03T07:37:53.000Z</time>
      </trkpt>
      <trkpt lat="44.55091" lon="4.2448">
        <ele>350</ele>
        <time>2018-06-03T07:37:54.000Z</time>
      </trkpt>
      <trkpt lat="44.55091" lon="4.2448">
        <ele>350</ele>
        <time>2018-06-03T07:37:55.000Z</time>
      </trkpt>
      <trkpt lat="44.55092" lon="4.2448">
        <ele>350</ele>
        <time>2018-06-03T07:37:56.000Z</time>
      </trkpt>
      <trkpt lat="44.55092" lon="4.2448">
        <ele>350</ele>
        <time>2018-06-03T07:37:57.000Z</time>
      </trkpt>
      <trkpt lat="44.55093" lon="4.24481">
        <ele>350</ele>
        <time>2018-06-03T07:37:58.000Z</time>
      </trkpt>
      <trkpt lat="44.55094" lon="4.24481">
        <ele>350</ele>
        <time>2018-06-03T07:37:59.000Z</time>
      </trkpt>
      <trkpt lat="44.55094" lon="4.24481">
        <ele>350</ele>
        <time>2018-06-03T07:38:00.000Z</time>
      </trkpt>
      <trkpt lat="44.55095" lon="4.24481">
        <ele>350</ele>
        <time>2018-06-03T07:38:01.000Z</time>
      </trkpt>
      <trkpt lat="44.55095" lon="4.24481">
        <ele>350</ele>
        <time>2018-06-03T07:38:02.000Z</time>
      </trkpt>
      <trkpt lat="44.55095" lon="4.24481">
        <ele>350</ele>
        <time>2018-06-03T07:38:03.000Z</time>
      </trkpt>
      <trkpt lat="44.55095" lon="4.24481">
        <ele>350</ele>
        <time>2018-06-03T07:38:04.000Z</time>
      </trkpt>
      <trkpt lat="44.55095" lon="4.24481">
        <ele>350</ele>
        <time>2018-06-03T07:38:05.000Z</time>
      </trkpt>
      <trkpt lat="44.55095" lon="4.24481">
        <ele>350</ele>
        <time>2018-06-03T07:38:06.000Z</time>
      </trkpt>
      <trkpt lat="44.55095" lon="4.24482">
        <ele>350</ele>
        <time>2018-06-03T07:38:07.000Z</time>
      </trkpt>
      <trkpt lat="44.55095" lon="4.24482">
        <ele>350</ele>
        <time>2018-06-03T07:38:08.000Z</time>
      </trkpt>
      <trkpt lat="44.55095" lon="4.24482">
        <ele>350</ele>
        <time>2018-06-03T07:38:09.000Z</time>
      </trkpt>
      <trkpt lat="44.55095" lon="4.24482">
        <ele>350</ele>
        <time>2018-06-03T07:38:10.000Z</time>
      </trkpt>
      <trkpt lat="44.55095" lon="4.24482">
        <ele>350</ele>
        <time>2018-06-03T07:38:11.000Z</time>
      </trkpt>
      <trkpt lat="44.55095" lon="4.24482">
        <ele>350</ele>
        <time>2018-06-03T07:38:12.000Z</time>
      </trkpt>
      <trkpt lat="44.55095" lon="4.24482">
        <ele>350</ele>
        <time>2018-06-03T07:38:13.000Z</time>
      </trkpt>
      <trkpt lat="44.55096" lon="4.24483">
        <ele>350</ele>
        <time>2018-06-03T07:38:14.000Z</time>
      </trkpt>
      <trkpt lat="44.55096" lon="4.24483">
        <ele>350</ele>
        <time>2018-06-03T07:38:15.000Z</time>
      </trkpt>
      <trkpt lat="44.55098" lon="4.24484">
        <ele>350</ele>
        <time>2018-06-03T07:38:16.000Z</time>
      </trkpt>
      <trkpt lat="44.55098" lon="4.24484">
        <ele>350</ele>
        <time>2018-06-03T07:38:17.000Z</time>
      </trkpt>
      <trkpt lat="44.55099" lon="4.24484">
        <ele>350</ele>
        <time>2018-06-03T07:38:18.000Z</time>
      </trkpt>
      <trkpt lat="44.551" lon="4.24484">
        <ele>351</ele>
        <time>2018-06-03T07:38:19.000Z</time>
      </trkpt>
      <trkpt lat="44.55101" lon="4.24484">
        <ele>351</ele>
        <time>2018-06-03T07:38:20.000Z</time>
      </trkpt>
      <trkpt lat="44.55102" lon="4.24485">
        <ele>351</ele>
        <time>2018-06-03T07:38:21.000Z</time>
      </trkpt>
      <trkpt lat="44.55103" lon="4.24486">
        <ele>351</ele>
        <time>2018-06-03T07:38:22.000Z</time>
      </trkpt>
      <trkpt lat="44.55104" lon="4.24486">
        <ele>351</ele>
        <time>2018-06-03T07:38:23.000Z</time>
      </trkpt>
      <trkpt lat="44.55104" lon="4.24487">
        <ele>351</ele>
        <time>2018-06-03T07:38:24.000Z</time>
      </trkpt>
      <trkpt lat="44.55105" lon="4.24488">
        <ele>351</ele>
        <time>2018-06-03T07:38:25.000Z</time>
      </trkpt>
      <trkpt lat="44.55106" lon="4.24489">
        <ele>351</ele>
        <time>2018-06-03T07:38:26.000Z</time>
      </trkpt>
      <trkpt lat="44.55107" lon="4.24489">
        <ele>351</ele>
        <time>2018-06-03T07:38:27.000Z</time>
      </trkpt>
      <trkpt lat="44.55108" lon="4.24488">
        <ele>352</ele>
        <time>2018-06-03T07:38:28.000Z</time>
      </trkpt>
      <trkpt lat="44.55109" lon="4.24488">
        <ele>352</ele>
        <time>2018-06-03T07:38:29.000Z</time>
      </trkpt>
      <trkpt lat="44.55109" lon="4.24487">
        <ele>352</ele>
        <time>2018-06-03T07:38:30.000Z</time>
      </trkpt>
      <trkpt lat="44.5511" lon="4.24486">
        <ele>352</ele>
        <time>2018-06-03T07:38:31.000Z</time>
      </trkpt>
      <trkpt lat="44.5511" lon="4.24485">
        <ele>352</ele>
        <time>2018-06-03T07:38:32.000Z</time>
      </trkpt>
      <trkpt lat="44.5511" lon="4.24484">
        <ele>352</ele>
        <time>2018-06-03T07:38:33.000Z</time>
      </trkpt>
      <trkpt lat="44.5511" lon="4.24482">
        <ele>352</ele>
        <time>2018-06-03T07:38:34.000Z</time>
      </trkpt>
      <trkpt lat="44.5511" lon="4.24481">
        <ele>352</ele>
        <time>2018-06-03T07:38:35.000Z</time>
      </trkpt>
      <trkpt lat="44.55111" lon="4.2448">
        <ele>352</ele>
        <time>2018-06-03T07:38:36.000Z</time>
      </trkpt>
      <trkpt lat="44.55111" lon="4.24478">
        <ele>353</ele>
        <time>2018-06-03T07:38:37.000Z</time>
      </trkpt>
      <trkpt lat="44.55112" lon="4.24477">
        <ele>353</ele>
        <time>2018-06-03T07:38:38.000Z</time>
      </trkpt>
      <trkpt lat="44.55112" lon="4.24476">
        <ele>353</ele>
        <time>2018-06-03T07:38:39.000Z</time>
      </trkpt>
      <trkpt lat="44.55112" lon="4.24475">
        <ele>353</ele>
        <time>2018-06-03T07:38:40.000Z</time>
      </trkpt>
      <trkpt lat="44.55113" lon="4.24474">
        <ele>353</ele>
        <time>2018-06-03T07:38:41.000Z</time>
      </trkpt>
      <trkpt lat="44.55113" lon="4.24472">
        <ele>353</ele>
        <time>2018-06-03T07:38:42.000Z</time>
      </trkpt>
      <trkpt lat="44.55113" lon="4.24471">
        <ele>353</ele>
        <time>2018-06-03T07:38:43.000Z</time>
      </trkpt>
      <trkpt lat="44.55114" lon="4.2447">
        <ele>353</ele>
        <time>2018-06-03T07:38:44.000Z</time>
      </trkpt>
      <trkpt lat="44.55114" lon="4.24469">
        <ele>353</ele>
        <time>2018-06-03T07:38:45.000Z</time>
      </trkpt>
      <trkpt lat="44.55114" lon="4.24468">
        <ele>353</ele>
        <time>2018-06-03T07:38:46.000Z</time>
      </trkpt>
      <trkpt lat="44.55115" lon="4.24468">
        <ele>353</ele>
        <time>2018-06-03T07:38:47.000Z</time>
      </trkpt>
      <trkpt lat="44.55115" lon="4.24467">
        <ele>353</ele>
        <time>2018-06-03T07:38:48.000Z</time>
      </trkpt>
      <trkpt lat="44.55115" lon="4.24466">
        <ele>353</ele>
        <time>2018-06-03T07:38:49.000Z</time>
      </trkpt>
      <trkpt lat="44.55116" lon="4.24466">
        <ele>353</ele>
        <time>2018-06-03T07:38:50.000Z</time>
      </trkpt>
      <trkpt lat="44.55116" lon="4.24465">
        <ele>353</ele>
        <time>2018-06-03T07:38:51.000Z</time>
      </trkpt>
      <trkpt lat="44.55116" lon="4.24464">
        <ele>353</ele>
        <time>2018-06-03T07:38:52.000Z</time>
      </trkpt>
      <trkpt lat="44.55117" lon="4.24464">
        <ele>353</ele>
        <time>2018-06-03T07:38:53.000Z</time>
      </trkpt>
      <trkpt lat="44.55117" lon="4.24463">
        <ele>353</ele>
        <time>2018-06-03T07:38:54.000Z</time>
      </trkpt>
      <trkpt lat="44.55118" lon="4.24462">
        <ele>354</ele>
        <time>2018-06-03T07:38:55.000Z</time>
      </trkpt>
      <trkpt lat="44.55118" lon="4.24462">
        <ele>354</ele>
        <time>2018-06-03T07:38:56.000Z</time>
      </trkpt>
      <trkpt lat="44.55119" lon="4.24461">
        <ele>354</ele>
        <time>2018-06-03T07:38:57.000Z</time>
      </trkpt>
      <trkpt lat="44.55119" lon="4.24461">
        <ele>354</ele>
        <time>2018-06-03T07:38:58.000Z</time>
      </trkpt>
      <trkpt lat="44.55119" lon="4.2446">
        <ele>354</ele>
        <time>2018-06-03T07:38:59.000Z</time>
      </trkpt>
      <trkpt lat="44.55119" lon="4.2446">
        <ele>354</ele>
        <time>2018-06-03T07:39:00.000Z</time>
      </trkpt>
      <trkpt lat="44.55119" lon="4.2446">
        <ele>354</ele>
        <time>2018-06-03T07:39:01.000Z</time>
      </trkpt>
      <trkpt lat="44.55119" lon="4.2446">
        <ele>354</ele>
        <time>2018-06-03T07:39:02.000Z</time>
      </trkpt>
      <trkpt lat="44.55119" lon="4.2446">
        <ele>354</ele>
        <time>2018-06-03T07:39:03.000Z</time>
      </trkpt>
      <trkpt lat="44.55119" lon="4.2446">
        <ele>354</ele>
        <time>2018-06-03T07:39:04.000Z</time>
      </trkpt>
      <trkpt lat="44.55119" lon="4.24459">
        <ele>354</ele>
        <time>2018-06-03T07:39:05.000Z</time>
      </trkpt>
      <trkpt lat="44.55119" lon="4.24459">
        <ele>354</ele>
        <time>2018-06-03T07:39:06.000Z</time>
      </trkpt>
      <trkpt lat="44.55119" lon="4.24459">
        <ele>354</ele>
        <time>2018-06-03T07:39:07.000Z</time>
      </trkpt>
      <trkpt lat="44.5512" lon="4.24459">
        <ele>354</ele>
        <time>2018-06-03T07:39:08.000Z</time>
      </trkpt>
      <trkpt lat="44.5512" lon="4.24458">
        <ele>354</ele>
        <time>2018-06-03T07:39:09.000Z</time>
      </trkpt>
      <trkpt lat="44.5512" lon="4.24458">
        <ele>354</ele>
        <time>2018-06-03T07:39:10.000Z</time>
      </trkpt>
      <trkpt lat="44.5512" lon="4.24458">
        <ele>354</ele>
        <time>2018-06-03T07:39:11.000Z</time>
      </trkpt>
      <trkpt lat="44.5512" lon="4.24458">
        <ele>354</ele>
        <time>2018-06-03T07:39:12.000Z</time>
      </trkpt>
      <trkpt lat="44.5512" lon="4.24458">
        <ele>354</ele>
        <time>2018-06-03T07:39:13.000Z</time>
      </trkpt>
      <trkpt lat="44.5512" lon="4.24458">
        <ele>354</ele>
        <time>2018-06-03T07:39:14.000Z</time>
      </trkpt>
      <trkpt lat="44.5512" lon="4.24458">
        <ele>354</ele>
        <time>2018-06-03T07:39:15.000Z</time>
      </trkpt>
      <trkpt lat="44.5512" lon="4.24458">
        <ele>354</ele>
        <time>2018-06-03T07:39:16.000Z</time>
      </trkpt>
      <trkpt lat="44.5512" lon="4.24458">
        <ele>354</ele>
        <time>2018-06-03T07:39:17.000Z</time>
      </trkpt>
      <trkpt lat="44.5512" lon="4.24458">
        <ele>354</ele>
        <time>2018-06-03T07:39:18.000Z</time>
      </trkpt>
      <trkpt lat="44.5512" lon="4.24458">
        <ele>354</ele>
        <time>2018-06-03T07:39:19.000Z</time>
      </trkpt>
      <trkpt lat="44.5512" lon="4.24458">
        <ele>354</ele>
        <time>2018-06-03T07:39:20.000Z</time>
      </trkpt>
      <trkpt lat="44.55121" lon="4.24458">
        <ele>354</ele>
        <time>2018-06-03T07:39:21.000Z</time>
      </trkpt>
      <trkpt lat="44.55121" lon="4.24456">
        <ele>354</ele>
        <time>2018-06-03T07:39:22.000Z</time>
      </trkpt>
      <trkpt lat="44.55121" lon="4.24454">
        <ele>354</ele>
        <time>2018-06-03T07:39:23.000Z</time>
      </trkpt>
      <trkpt lat="44.55122" lon="4.24452">
        <ele>354</ele>
        <time>2018-06-03T07:39:24.000Z</time>
      </trkpt>
      <trkpt lat="44.55123" lon="4.24449">
        <ele>354</ele>
        <time>2018-06-03T07:39:25.000Z</time>
      </trkpt>
      <trkpt lat="44.55125" lon="4.24447">
        <ele>354</ele>
        <time>2018-06-03T07:39:26.000Z</time>
      </trkpt>
      <trkpt lat="44.55126" lon="4.24445">
        <ele>354</ele>
        <time>2018-06-03T07:39:27.000Z</time>
      </trkpt>
      <trkpt lat="44.55128" lon="4.24444">
        <ele>354</ele>
        <time>2018-06-03T07:39:28.000Z</time>
      </trkpt>
      <trkpt lat="44.5513" lon="4.24445">
        <ele>355</ele>
        <time>2018-06-03T07:39:29.000Z</time>
      </trkpt>
      <trkpt lat="44.55131" lon="4.24445">
        <ele>355</ele>
        <time>2018-06-03T07:39:30.000Z</time>
      </trkpt>
      <trkpt lat="44.55131" lon="4.24444">
        <ele>355</ele>
        <time>2018-06-03T07:39:31.000Z</time>
      </trkpt>
      <trkpt lat="44.55132" lon="4.24444">
        <ele>355</ele>
        <time>2018-06-03T07:39:32.000Z</time>
      </trkpt>
      <trkpt lat="44.55133" lon="4.24442">
        <ele>355</ele>
        <time>2018-06-03T07:39:33.000Z</time>
      </trkpt>
      <trkpt lat="44.55133" lon="4.24441">
        <ele>355</ele>
        <time>2018-06-03T07:39:34.000Z</time>
      </trkpt>
      <trkpt lat="44.55135" lon="4.2444">
        <ele>355</ele>
        <time>2018-06-03T07:39:35.000Z</time>
      </trkpt>
      <trkpt lat="44.55137" lon="4.24441">
        <ele>355</ele>
        <time>2018-06-03T07:39:36.000Z</time>
      </trkpt>
      <trkpt lat="44.55139" lon="4.2444">
        <ele>355</ele>
        <time>2018-06-03T07:39:37.000Z</time>
      </trkpt>
      <trkpt lat="44.55142" lon="4.2444">
        <ele>355</ele>
        <time>2018-06-03T07:39:38.000Z</time>
      </trkpt>
      <trkpt lat="44.55144" lon="4.24439">
        <ele>356</ele>
        <time>2018-06-03T07:39:39.000Z</time>
      </trkpt>
      <trkpt lat="44.55145" lon="4.24439">
        <ele>356</ele>
        <time>2018-06-03T07:39:40.000Z</time>
      </trkpt>
      <trkpt lat="44.55147" lon="4.24438">
        <ele>356</ele>
        <time>2018-06-03T07:39:41.000Z</time>
      </trkpt>
      <trkpt lat="44.55149" lon="4.24438">
        <ele>356</ele>
        <time>2018-06-03T07:39:42.000Z</time>
      </trkpt>
      <trkpt lat="44.5515" lon="4.24437">
        <ele>356</ele>
        <time>2018-06-03T07:39:43.000Z</time>
      </trkpt>
      <trkpt lat="44.55152" lon="4.24436">
        <ele>356</ele>
        <time>2018-06-03T07:39:44.000Z</time>
      </trkpt>
      <trkpt lat="44.55155" lon="4.24436">
        <ele>356</ele>
        <time>2018-06-03T07:39:45.000Z</time>
      </trkpt>
      <trkpt lat="44.55157" lon="4.24435">
        <ele>356</ele>
        <time>2018-06-03T07:39:46.000Z</time>
      </trkpt>
      <trkpt lat="44.5516" lon="4.24434">
        <ele>357</ele>
        <time>2018-06-03T07:39:47.000Z</time>
      </trkpt>
      <trkpt lat="44.55162" lon="4.24433">
        <ele>357</ele>
        <time>2018-06-03T07:39:48.000Z</time>
      </trkpt>
      <trkpt lat="44.55164" lon="4.24432">
        <ele>357</ele>
        <time>2018-06-03T07:39:49.000Z</time>
      </trkpt>
      <trkpt lat="44.55165" lon="4.24431">
        <ele>357</ele>
        <time>2018-06-03T07:39:50.000Z</time>
      </trkpt>
      <trkpt lat="44.55167" lon="4.24431">
        <ele>365</ele>
        <time>2018-06-03T07:39:51.000Z</time>
      </trkpt>
      <trkpt lat="44.5517" lon="4.24432">
        <ele>366</ele>
        <time>2018-06-03T07:39:52.000Z</time>
      </trkpt>
      <trkpt lat="44.55172" lon="4.24433">
        <ele>366</ele>
        <time>2018-06-03T07:39:53.000Z</time>
      </trkpt>
      <trkpt lat="44.55173" lon="4.24434">
        <ele>367</ele>
        <time>2018-06-03T07:39:54.000Z</time>
      </trkpt>
      <trkpt lat="44.55173" lon="4.24434">
        <ele>367</ele>
        <time>2018-06-03T07:39:55.000Z</time>
      </trkpt>
      <trkpt lat="44.55174" lon="4.24434">
        <ele>367</ele>
        <time>2018-06-03T07:39:56.000Z</time>
      </trkpt>
      <trkpt lat="44.55174" lon="4.24434">
        <ele>367</ele>
        <time>2018-06-03T07:39:57.000Z</time>
      </trkpt>
      <trkpt lat="44.55174" lon="4.24434">
        <ele>367</ele>
        <time>2018-06-03T07:39:58.000Z</time>
      </trkpt>
      <trkpt lat="44.55174" lon="4.24433">
        <ele>367</ele>
        <time>2018-06-03T07:39:59.000Z</time>
      </trkpt>
      <trkpt lat="44.55175" lon="4.24433">
        <ele>367</ele>
        <time>2018-06-03T07:40:00.000Z</time>
      </trkpt>
      <trkpt lat="44.55176" lon="4.24433">
        <ele>367</ele>
        <time>2018-06-03T07:40:01.000Z</time>
      </trkpt>
      <trkpt lat="44.55177" lon="4.24432">
        <ele>367</ele>
        <time>2018-06-03T07:40:02.000Z</time>
      </trkpt>
      <trkpt lat="44.55178" lon="4.24431">
        <ele>367</ele>
        <time>2018-06-03T07:40:03.000Z</time>
      </trkpt>
      <trkpt lat="44.55179" lon="4.24431">
        <ele>367</ele>
        <time>2018-06-03T07:40:04.000Z</time>
      </trkpt>
      <trkpt lat="44.5518" lon="4.2443">
        <ele>367</ele>
        <time>2018-06-03T07:40:05.000Z</time>
      </trkpt>
      <trkpt lat="44.55181" lon="4.2443">
        <ele>367</ele>
        <time>2018-06-03T07:40:06.000Z</time>
      </trkpt>
      <trkpt lat="44.55181" lon="4.24429">
        <ele>367</ele>
        <time>2018-06-03T07:40:07.000Z</time>
      </trkpt>
      <trkpt lat="44.55181" lon="4.24429">
        <ele>367</ele>
        <time>2018-06-03T07:40:08.000Z</time>
      </trkpt>
      <trkpt lat="44.55181" lon="4.24429">
        <ele>367</ele>
        <time>2018-06-03T07:40:09.000Z</time>
      </trkpt>
      <trkpt lat="44.55181" lon="4.24429">
        <ele>367</ele>
        <time>2018-06-03T07:40:10.000Z</time>
      </trkpt>
      <trkpt lat="44.55181" lon="4.24429">
        <ele>367</ele>
        <time>2018-06-03T07:40:11.000Z</time>
      </trkpt>
      <trkpt lat="44.55181" lon="4.24429">
        <ele>367</ele>
        <time>2018-06-03T07:40:12.000Z</time>
      </trkpt>
      <trkpt lat="44.55181" lon="4.24429">
        <ele>367</ele>
        <time>2018-06-03T07:40:13.000Z</time>
      </trkpt>
      <trkpt lat="44.55181" lon="4.24429">
        <ele>367</ele>
        <time>2018-06-03T07:40:14.000Z</time>
      </trkpt>
      <trkpt lat="44.55181" lon="4.24429">
        <ele>367</ele>
        <time>2018-06-03T07:40:15.000Z</time>
      </trkpt>
      <trkpt lat="44.55181" lon="4.24429">
        <ele>367</ele>
        <time>2018-06-03T07:40:16.000Z</time>
      </trkpt>
      <trkpt lat="44.55181" lon="4.24428">
        <ele>367</ele>
        <time>2018-06-03T07:40:17.000Z</time>
      </trkpt>
      <trkpt lat="44.55182" lon="4.24427">
        <ele>367</ele>
        <time>2018-06-03T07:40:18.000Z</time>
      </trkpt>
      <trkpt lat="44.55183" lon="4.24426">
        <ele>367</ele>
        <time>2018-06-03T07:40:19.000Z</time>
      </trkpt>
      <trkpt lat="44.55184" lon="4.24425">
        <ele>367</ele>
        <time>2018-06-03T07:40:20.000Z</time>
      </trkpt>
      <trkpt lat="44.55186" lon="4.24424">
        <ele>368</ele>
        <time>2018-06-03T07:40:21.000Z</time>
      </trkpt>
      <trkpt lat="44.55187" lon="4.24424">
        <ele>368</ele>
        <time>2018-06-03T07:40:22.000Z</time>
      </trkpt>
      <trkpt lat="44.55188" lon="4.24423">
        <ele>368</ele>
        <time>2018-06-03T07:40:23.000Z</time>
      </trkpt>
      <trkpt lat="44.55189" lon="4.24422">
        <ele>369</ele>
        <time>2018-06-03T07:40:24.000Z</time>
      </trkpt>
      <trkpt lat="44.5519" lon="4.24421">
        <ele>369</ele>
        <time>2018-06-03T07:40:25.000Z</time>
      </trkpt>
      <trkpt lat="44.55192" lon="4.2442">
        <ele>369</ele>
        <time>2018-06-03T07:40:26.000Z</time>
      </trkpt>
      <trkpt lat="44.55193" lon="4.24419">
        <ele>369</ele>
        <time>2018-06-03T07:40:27.000Z</time>
      </trkpt>
      <trkpt lat="44.55194" lon="4.24417">
        <ele>370</ele>
        <time>2018-06-03T07:40:28.000Z</time>
      </trkpt>
      <trkpt lat="44.55196" lon="4.24415">
        <ele>364</ele>
        <time>2018-06-03T07:40:29.000Z</time>
      </trkpt>
      <trkpt lat="44.55198" lon="4.24413">
        <ele>364</ele>
        <time>2018-06-03T07:40:30.000Z</time>
      </trkpt>
      <trkpt lat="44.55199" lon="4.24411">
        <ele>364</ele>
        <time>2018-06-03T07:40:31.000Z</time>
      </trkpt>
      <trkpt lat="44.55201" lon="4.24409">
        <ele>365</ele>
        <time>2018-06-03T07:40:32.000Z</time>
      </trkpt>
      <trkpt lat="44.55202" lon="4.24407">
        <ele>365</ele>
        <time>2018-06-03T07:40:33.000Z</time>
      </trkpt>
      <trkpt lat="44.55204" lon="4.24405">
        <ele>365</ele>
        <time>2018-06-03T07:40:34.000Z</time>
      </trkpt>
      <trkpt lat="44.55205" lon="4.24404">
        <ele>365</ele>
        <time>2018-06-03T07:40:35.000Z</time>
      </trkpt>
      <trkpt lat="44.55207" lon="4.24402">
        <ele>365</ele>
        <time>2018-06-03T07:40:36.000Z</time>
      </trkpt>
      <trkpt lat="44.55209" lon="4.244">
        <ele>366</ele>
        <time>2018-06-03T07:40:37.000Z</time>
      </trkpt>
      <trkpt lat="44.5521" lon="4.24399">
        <ele>366</ele>
        <time>2018-06-03T07:40:38.000Z</time>
      </trkpt>
      <trkpt lat="44.55211" lon="4.24397">
        <ele>366</ele>
        <time>2018-06-03T07:40:39.000Z</time>
      </trkpt>
      <trkpt lat="44.55212" lon="4.24396">
        <ele>366</ele>
        <time>2018-06-03T07:40:40.000Z</time>
      </trkpt>
      <trkpt lat="44.55214" lon="4.24394">
        <ele>366</ele>
        <time>2018-06-03T07:40:41.000Z</time>
      </trkpt>
      <trkpt lat="44.55215" lon="4.24393">
        <ele>366</ele>
        <time>2018-06-03T07:40:42.000Z</time>
      </trkpt>
      <trkpt lat="44.55217" lon="4.24391">
        <ele>366</ele>
        <time>2018-06-03T07:40:43.000Z</time>
      </trkpt>
      <trkpt lat="44.55218" lon="4.2439">
        <ele>366</ele>
        <time>2018-06-03T07:40:44.000Z</time>
      </trkpt>
      <trkpt lat="44.55219" lon="4.24389">
        <ele>366</ele>
        <time>2018-06-03T07:40:45.000Z</time>
      </trkpt>
      <trkpt lat="44.55221" lon="4.24387">
        <ele>366</ele>
        <time>2018-06-03T07:40:46.000Z</time>
      </trkpt>
      <trkpt lat="44.55222" lon="4.24385">
        <ele>366</ele>
        <time>2018-06-03T07:40:47.000Z</time>
      </trkpt>
      <trkpt lat="44.55224" lon="4.24384">
        <ele>366</ele>
        <time>2018-06-03T07:40:48.000Z</time>
      </trkpt>
      <trkpt lat="44.55225" lon="4.24382">
        <ele>366</ele>
        <time>2018-06-03T07:40:49.000Z</time>
      </trkpt>
      <trkpt lat="44.55227" lon="4.24381">
        <ele>366</ele>
        <time>2018-06-03T07:40:50.000Z</time>
      </trkpt>
      <trkpt lat="44.55228" lon="4.24379">
        <ele>366</ele>
        <time>2018-06-03T07:40:51.000Z</time>
      </trkpt>
      <trkpt lat="44.5523" lon="4.24378">
        <ele>365</ele>
        <time>2018-06-03T07:40:52.000Z</time>
      </trkpt>
      <trkpt lat="44.55231" lon="4.24376">
        <ele>365</ele>
        <time>2018-06-03T07:40:53.000Z</time>
      </trkpt>
      <trkpt lat="44.55233" lon="4.24374">
        <ele>365</ele>
        <time>2018-06-03T07:40:54.000Z</time>
      </trkpt>
      <trkpt lat="44.55234" lon="4.24372">
        <ele>365</ele>
        <time>2018-06-03T07:40:55.000Z</time>
      </trkpt>
      <trkpt lat="44.55236" lon="4.24371">
        <ele>364</ele>
        <time>2018-06-03T07:40:56.000Z</time>
      </trkpt>
      <trkpt lat="44.55237" lon="4.24369">
        <ele>364</ele>
        <time>2018-06-03T07:40:57.000Z</time>
      </trkpt>
      <trkpt lat="44.55239" lon="4.24368">
        <ele>364</ele>
        <time>2018-06-03T07:40:58.000Z</time>
      </trkpt>
      <trkpt lat="44.55241" lon="4.24367">
        <ele>364</ele>
        <time>2018-06-03T07:40:59.000Z</time>
      </trkpt>
      <trkpt lat="44.55243" lon="4.24366">
        <ele>364</ele>
        <time>2018-06-03T07:41:00.000Z</time>
      </trkpt>
      <trkpt lat="44.55245" lon="4.24365">
        <ele>364</ele>
        <time>2018-06-03T07:41:01.000Z</time>
      </trkpt>
      <trkpt lat="44.55248" lon="4.24365">
        <ele>363</ele>
        <time>2018-06-03T07:41:02.000Z</time>
      </trkpt>
      <trkpt lat="44.5525" lon="4.24365">
        <ele>364</ele>
        <time>2018-06-03T07:41:03.000Z</time>
      </trkpt>
      <trkpt lat="44.55252" lon="4.24365">
        <ele>369</ele>
        <time>2018-06-03T07:41:04.000Z</time>
      </trkpt>
      <trkpt lat="44.55254" lon="4.24365">
        <ele>369</ele>
        <time>2018-06-03T07:41:05.000Z</time>
      </trkpt>
      <trkpt lat="44.55256" lon="4.24364">
        <ele>369</ele>
        <time>2018-06-03T07:41:06.000Z</time>
      </trkpt>
      <trkpt lat="44.55258" lon="4.24364">
        <ele>369</ele>
        <time>2018-06-03T07:41:07.000Z</time>
      </trkpt>
      <trkpt lat="44.5526" lon="4.24364">
        <ele>369</ele>
        <time>2018-06-03T07:41:08.000Z</time>
      </trkpt>
      <trkpt lat="44.55263" lon="4.24363">
        <ele>369</ele>
        <time>2018-06-03T07:41:09.000Z</time>
      </trkpt>
      <trkpt lat="44.55265" lon="4.24362">
        <ele>369</ele>
        <time>2018-06-03T07:41:10.000Z</time>
      </trkpt>
      <trkpt lat="44.55267" lon="4.24361">
        <ele>369</ele>
        <time>2018-06-03T07:41:11.000Z</time>
      </trkpt>
      <trkpt lat="44.5527" lon="4.2436">
        <ele>369</ele>
        <time>2018-06-03T07:41:12.000Z</time>
      </trkpt>
      <trkpt lat="44.55272" lon="4.2436">
        <ele>369</ele>
        <time>2018-06-03T07:41:13.000Z</time>
      </trkpt>
      <trkpt lat="44.55274" lon="4.24359">
        <ele>369</ele>
        <time>2018-06-03T07:41:14.000Z</time>
      </trkpt>
      <trkpt lat="44.55276" lon="4.24359">
        <ele>369</ele>
        <time>2018-06-03T07:41:15.000Z</time>
      </trkpt>
      <trkpt lat="44.55279" lon="4.24359">
        <ele>370</ele>
        <time>2018-06-03T07:41:16.000Z</time>
      </trkpt>
      <trkpt lat="44.55282" lon="4.24359">
        <ele>370</ele>
        <time>2018-06-03T07:41:17.000Z</time>
      </trkpt>
      <trkpt lat="44.55284" lon="4.24359">
        <ele>370</ele>
        <time>2018-06-03T07:41:18.000Z</time>
      </trkpt>
      <trkpt lat="44.55287" lon="4.24358">
        <ele>370</ele>
        <time>2018-06-03T07:41:19.000Z</time>
      </trkpt>
      <trkpt lat="44.55289" lon="4.24358">
        <ele>370</ele>
        <time>2018-06-03T07:41:20.000Z</time>
      </trkpt>
      <trkpt lat="44.55292" lon="4.24358">
        <ele>371</ele>
        <time>2018-06-03T07:41:21.000Z</time>
      </trkpt>
      <trkpt lat="44.55295" lon="4.24358">
        <ele>371</ele>
        <time>2018-06-03T07:41:22.000Z</time>
      </trkpt>
      <trkpt lat="44.55298" lon="4.24358">
        <ele>371</ele>
        <time>2018-06-03T07:41:23.000Z</time>
      </trkpt>
      <trkpt lat="44.55301" lon="4.24359">
        <ele>371</ele>
        <time>2018-06-03T07:41:24.000Z</time>
      </trkpt>
      <trkpt lat="44.55304" lon="4.24359">
        <ele>371</ele>
        <time>2018-06-03T07:41:25.000Z</time>
      </trkpt>
      <trkpt lat="44.55306" lon="4.2436">
        <ele>372</ele>
        <time>2018-06-03T07:41:26.000Z</time>
      </trkpt>
      <trkpt lat="44.55309" lon="4.2436">
        <ele>372</ele>
        <time>2018-06-03T07:41:27.000Z</time>
      </trkpt>
      <trkpt lat="44.55311" lon="4.24361">
        <ele>372</ele>
        <time>2018-06-03T07:41:28.000Z</time>
      </trkpt>
      <trkpt lat="44.55314" lon="4.24362">
        <ele>372</ele>
        <time>2018-06-03T07:41:29.000Z</time>
      </trkpt>
      <trkpt lat="44.55316" lon="4.24363">
        <ele>372</ele>
        <time>2018-06-03T07:41:30.000Z</time>
      </trkpt>
      <trkpt lat="44.55319" lon="4.24363">
        <ele>372</ele>
        <time>2018-06-03T07:41:31.000Z</time>
      </trkpt>
      <trkpt lat="44.55321" lon="4.24365">
        <ele>373</ele>
        <time>2018-06-03T07:41:32.000Z</time>
      </trkpt>
      <trkpt lat="44.55324" lon="4.24366">
        <ele>373</ele>
        <time>2018-06-03T07:41:33.000Z</time>
      </trkpt>
      <trkpt lat="44.55326" lon="4.24367">
        <ele>373</ele>
        <time>2018-06-03T07:41:34.000Z</time>
      </trkpt>
      <trkpt lat="44.55328" lon="4.24368">
        <ele>374</ele>
        <time>2018-06-03T07:41:35.000Z</time>
      </trkpt>
      <trkpt lat="44.55331" lon="4.24368">
        <ele>374</ele>
        <time>2018-06-03T07:41:36.000Z</time>
      </trkpt>
      <trkpt lat="44.55333" lon="4.24369">
        <ele>374</ele>
        <time>2018-06-03T07:41:37.000Z</time>
      </trkpt>
      <trkpt lat="44.55336" lon="4.24369">
        <ele>383</ele>
        <time>2018-06-03T07:41:38.000Z</time>
      </trkpt>
      <trkpt lat="44.55338" lon="4.24368">
        <ele>383</ele>
        <time>2018-06-03T07:41:39.000Z</time>
      </trkpt>
      <trkpt lat="44.55341" lon="4.24368">
        <ele>383</ele>
        <time>2018-06-03T07:41:40.000Z</time>
      </trkpt>
      <trkpt lat="44.55344" lon="4.24367">
        <ele>383</ele>
        <time>2018-06-03T07:41:41.000Z</time>
      </trkpt>
      <trkpt lat="44.55346" lon="4.24367">
        <ele>383</ele>
        <time>2018-06-03T07:41:42.000Z</time>
      </trkpt>
      <trkpt lat="44.55349" lon="4.24367">
        <ele>383</ele>
        <time>2018-06-03T07:41:43.000Z</time>
      </trkpt>
      <trkpt lat="44.55352" lon="4.24367">
        <ele>384</ele>
        <time>2018-06-03T07:41:44.000Z</time>
      </trkpt>
      <trkpt lat="44.55354" lon="4.24367">
        <ele>384</ele>
        <time>2018-06-03T07:41:45.000Z</time>
      </trkpt>
      <trkpt lat="44.55357" lon="4.24367">
        <ele>384</ele>
        <time>2018-06-03T07:41:46.000Z</time>
      </trkpt>
      <trkpt lat="44.55359" lon="4.24367">
        <ele>385</ele>
        <time>2018-06-03T07:41:47.000Z</time>
      </trkpt>
      <trkpt lat="44.55361" lon="4.24367">
        <ele>385</ele>
        <time>2018-06-03T07:41:48.000Z</time>
      </trkpt>
      <trkpt lat="44.55364" lon="4.24366">
        <ele>385</ele>
        <time>2018-06-03T07:41:49.000Z</time>
      </trkpt>
      <trkpt lat="44.55366" lon="4.24365">
        <ele>385</ele>
        <time>2018-06-03T07:41:50.000Z</time>
      </trkpt>
      <trkpt lat="44.55368" lon="4.24364">
        <ele>385</ele>
        <time>2018-06-03T07:41:51.000Z</time>
      </trkpt>
      <trkpt lat="44.55371" lon="4.24364">
        <ele>385</ele>
        <time>2018-06-03T07:41:52.000Z</time>
      </trkpt>
      <trkpt lat="44.55373" lon="4.24363">
        <ele>385</ele>
        <time>2018-06-03T07:41:53.000Z</time>
      </trkpt>
      <trkpt lat="44.55375" lon="4.24363">
        <ele>386</ele>
        <time>2018-06-03T07:41:54.000Z</time>
      </trkpt>
      <trkpt lat="44.55377" lon="4.24362">
        <ele>386</ele>
        <time>2018-06-03T07:41:55.000Z</time>
      </trkpt>
      <trkpt lat="44.55379" lon="4.24362">
        <ele>386</ele>
        <time>2018-06-03T07:41:56.000Z</time>
      </trkpt>
      <trkpt lat="44.55381" lon="4.24362">
        <ele>386</ele>
        <time>2018-06-03T07:41:57.000Z</time>
      </trkpt>
      <trkpt lat="44.55383" lon="4.24361">
        <ele>386</ele>
        <time>2018-06-03T07:41:58.000Z</time>
      </trkpt>
      <trkpt lat="44.55384" lon="4.24361">
        <ele>386</ele>
        <time>2018-06-03T07:41:59.000Z</time>
      </trkpt>
      <trkpt lat="44.55385" lon="4.24361">
        <ele>386</ele>
        <time>2018-06-03T07:42:00.000Z</time>
      </trkpt>
      <trkpt lat="44.55387" lon="4.2436">
        <ele>386</ele>
        <time>2018-06-03T07:42:01.000Z</time>
      </trkpt>
      <trkpt lat="44.55388" lon="4.2436">
        <ele>386</ele>
        <time>2018-06-03T07:42:02.000Z</time>
      </trkpt>
      <trkpt lat="44.55389" lon="4.2436">
        <ele>386</ele>
        <time>2018-06-03T07:42:03.000Z</time>
      </trkpt>
      <trkpt lat="44.55391" lon="4.24359">
        <ele>386</ele>
        <time>2018-06-03T07:42:04.000Z</time>
      </trkpt>
      <trkpt lat="44.55392" lon="4.24358">
        <ele>386</ele>
        <time>2018-06-03T07:42:05.000Z</time>
      </trkpt>
      <trkpt lat="44.55393" lon="4.24358">
        <ele>386</ele>
        <time>2018-06-03T07:42:06.000Z</time>
      </trkpt>
      <trkpt lat="44.55394" lon="4.24357">
        <ele>386</ele>
        <time>2018-06-03T07:42:07.000Z</time>
      </trkpt>
      <trkpt lat="44.55395" lon="4.24355">
        <ele>386</ele>
        <time>2018-06-03T07:42:08.000Z</time>
      </trkpt>
      <trkpt lat="44.55397" lon="4.24354">
        <ele>386</ele>
        <time>2018-06-03T07:42:09.000Z</time>
      </trkpt>
      <trkpt lat="44.55398" lon="4.24354">
        <ele>386</ele>
        <time>2018-06-03T07:42:10.000Z</time>
      </trkpt>
      <trkpt lat="44.554" lon="4.24352">
        <ele>386</ele>
        <time>2018-06-03T07:42:11.000Z</time>
      </trkpt>
      <trkpt lat="44.554" lon="4.24351">
        <ele>385</ele>
        <time>2018-06-03T07:42:12.000Z</time>
      </trkpt>
      <trkpt lat="44.55402" lon="4.24349">
        <ele>385</ele>
        <time>2018-06-03T07:42:13.000Z</time>
      </trkpt>
      <trkpt lat="44.55403" lon="4.24348">
        <ele>385</ele>
        <time>2018-06-03T07:42:14.000Z</time>
      </trkpt>
      <trkpt lat="44.55404" lon="4.24347">
        <ele>385</ele>
        <time>2018-06-03T07:42:15.000Z</time>
      </trkpt>
      <trkpt lat="44.55406" lon="4.24347">
        <ele>385</ele>
        <time>2018-06-03T07:42:16.000Z</time>
      </trkpt>
      <trkpt lat="44.55407" lon="4.24346">
        <ele>384</ele>
        <time>2018-06-03T07:42:17.000Z</time>
      </trkpt>
      <trkpt lat="44.55408" lon="4.24345">
        <ele>384</ele>
        <time>2018-06-03T07:42:18.000Z</time>
      </trkpt>
      <trkpt lat="44.55409" lon="4.24344">
        <ele>384</ele>
        <time>2018-06-03T07:42:19.000Z</time>
      </trkpt>
      <trkpt lat="44.55411" lon="4.24343">
        <ele>384</ele>
        <time>2018-06-03T07:42:20.000Z</time>
      </trkpt>
      <trkpt lat="44.55413" lon="4.24342">
        <ele>383</ele>
        <time>2018-06-03T07:42:21.000Z</time>
      </trkpt>
      <trkpt lat="44.55415" lon="4.24342">
        <ele>383</ele>
        <time>2018-06-03T07:42:22.000Z</time>
      </trkpt>
      <trkpt lat="44.55416" lon="4.24341">
        <ele>383</ele>
        <time>2018-06-03T07:42:23.000Z</time>
      </trkpt>
      <trkpt lat="44.55418" lon="4.2434">
        <ele>387</ele>
        <time>2018-06-03T07:42:24.000Z</time>
      </trkpt>
      <trkpt lat="44.55419" lon="4.24339">
        <ele>387</ele>
        <time>2018-06-03T07:42:25.000Z</time>
      </trkpt>
      <trkpt lat="44.5542" lon="4.24338">
        <ele>387</ele>
        <time>2018-06-03T07:42:26.000Z</time>
      </trkpt>
      <trkpt lat="44.55422" lon="4.24336">
        <ele>387</ele>
        <time>2018-06-03T07:42:27.000Z</time>
      </trkpt>
      <trkpt lat="44.55423" lon="4.24334">
        <ele>387</ele>
        <time>2018-06-03T07:42:28.000Z</time>
      </trkpt>
      <trkpt lat="44.55424" lon="4.24332">
        <ele>382</ele>
        <time>2018-06-03T07:42:29.000Z</time>
      </trkpt>
      <trkpt lat="44.55425" lon="4.24331">
        <ele>383</ele>
        <time>2018-06-03T07:42:30.000Z</time>
      </trkpt>
      <trkpt lat="44.55426" lon="4.2433">
        <ele>383</ele>
        <time>2018-06-03T07:42:31.000Z</time>
      </trkpt>
      <trkpt lat="44.55427" lon="4.24328">
        <ele>383</ele>
        <time>2018-06-03T07:42:32.000Z</time>
      </trkpt>
      <trkpt lat="44.55428" lon="4.24326">
        <ele>383</ele>
        <time>2018-06-03T07:42:33.000Z</time>
      </trkpt>
      <trkpt lat="44.55429" lon="4.24325">
        <ele>383</ele>
        <time>2018-06-03T07:42:34.000Z</time>
      </trkpt>
      <trkpt lat="44.5543" lon="4.24324">
        <ele>384</ele>
        <time>2018-06-03T07:42:35.000Z</time>
      </trkpt>
      <trkpt lat="44.55431" lon="4.24323">
        <ele>384</ele>
        <time>2018-06-03T07:42:36.000Z</time>
      </trkpt>
      <trkpt lat="44.55432" lon="4.24322">
        <ele>384</ele>
        <time>2018-06-03T07:42:37.000Z</time>
      </trkpt>
      <trkpt lat="44.55434" lon="4.24321">
        <ele>384</ele>
        <time>2018-06-03T07:42:38.000Z</time>
      </trkpt>
      <trkpt lat="44.55435" lon="4.2432">
        <ele>384</ele>
        <time>2018-06-03T07:42:39.000Z</time>
      </trkpt>
      <trkpt lat="44.55436" lon="4.24319">
        <ele>384</ele>
        <time>2018-06-03T07:42:40.000Z</time>
      </trkpt>
      <trkpt lat="44.55437" lon="4.24318">
        <ele>385</ele>
        <time>2018-06-03T07:42:41.000Z</time>
      </trkpt>
      <trkpt lat="44.55438" lon="4.24317">
        <ele>385</ele>
        <time>2018-06-03T07:42:42.000Z</time>
      </trkpt>
      <trkpt lat="44.5544" lon="4.24316">
        <ele>385</ele>
        <time>2018-06-03T07:42:43.000Z</time>
      </trkpt>
      <trkpt lat="44.55441" lon="4.24315">
        <ele>385</ele>
        <time>2018-06-03T07:42:44.000Z</time>
      </trkpt>
      <trkpt lat="44.55442" lon="4.24314">
        <ele>385</ele>
        <time>2018-06-03T07:42:45.000Z</time>
      </trkpt>
      <trkpt lat="44.55443" lon="4.24313">
        <ele>385</ele>
        <time>2018-06-03T07:42:46.000Z</time>
      </trkpt>
      <trkpt lat="44.55444" lon="4.24312">
        <ele>385</ele>
        <time>2018-06-03T07:42:47.000Z</time>
      </trkpt>
      <trkpt lat="44.55445" lon="4.24311">
        <ele>385</ele>
        <time>2018-06-03T07:42:48.000Z</time>
      </trkpt>
      <trkpt lat="44.55446" lon="4.2431">
        <ele>386</ele>
        <time>2018-06-03T07:42:49.000Z</time>
      </trkpt>
      <trkpt lat="44.55448" lon="4.24309">
        <ele>386</ele>
        <time>2018-06-03T07:42:50.000Z</time>
      </trkpt>
      <trkpt lat="44.55449" lon="4.24309">
        <ele>386</ele>
        <time>2018-06-03T07:42:51.000Z</time>
      </trkpt>
      <trkpt lat="44.55451" lon="4.24308">
        <ele>386</ele>
        <time>2018-06-03T07:42:52.000Z</time>
      </trkpt>
      <trkpt lat="44.55452" lon="4.24306">
        <ele>386</ele>
        <time>2018-06-03T07:42:53.000Z</time>
      </trkpt>
      <trkpt lat="44.55453" lon="4.24305">
        <ele>386</ele>
        <time>2018-06-03T07:42:54.000Z</time>
      </trkpt>
      <trkpt lat="44.55455" lon="4.24303">
        <ele>386</ele>
        <time>2018-06-03T07:42:55.000Z</time>
      </trkpt>
      <trkpt lat="44.55457" lon="4.24302">
        <ele>387</ele>
        <time>2018-06-03T07:42:56.000Z</time>
      </trkpt>
      <trkpt lat="44.55458" lon="4.24301">
        <ele>387</ele>
        <time>2018-06-03T07:42:57.000Z</time>
      </trkpt>
      <trkpt lat="44.55459" lon="4.24301">
        <ele>387</ele>
        <time>2018-06-03T07:42:58.000Z</time>
      </trkpt>
      <trkpt lat="44.5546" lon="4.243">
        <ele>387</ele>
        <time>2018-06-03T07:42:59.000Z</time>
      </trkpt>
      <trkpt lat="44.55462" lon="4.243">
        <ele>387</ele>
        <time>2018-06-03T07:43:00.000Z</time>
      </trkpt>
      <trkpt lat="44.55463" lon="4.24299">
        <ele>387</ele>
        <time>2018-06-03T07:43:01.000Z</time>
      </trkpt>
      <trkpt lat="44.55465" lon="4.24297">
        <ele>387</ele>
        <time>2018-06-03T07:43:02.000Z</time>
      </trkpt>
      <trkpt lat="44.55467" lon="4.24297">
        <ele>388</ele>
        <time>2018-06-03T07:43:03.000Z</time>
      </trkpt>
      <trkpt lat="44.55469" lon="4.24296">
        <ele>388</ele>
        <time>2018-06-03T07:43:04.000Z</time>
      </trkpt>
      <trkpt lat="44.5547" lon="4.24295">
        <ele>388</ele>
        <time>2018-06-03T07:43:05.000Z</time>
      </trkpt>
      <trkpt lat="44.55472" lon="4.24294">
        <ele>388</ele>
        <time>2018-06-03T07:43:06.000Z</time>
      </trkpt>
      <trkpt lat="44.55473" lon="4.24293">
        <ele>388</ele>
        <time>2018-06-03T07:43:07.000Z</time>
      </trkpt>
      <trkpt lat="44.55475" lon="4.24292">
        <ele>388</ele>
        <time>2018-06-03T07:43:08.000Z</time>
      </trkpt>
      <trkpt lat="44.55476" lon="4.24291">
        <ele>388</ele>
        <time>2018-06-03T07:43:09.000Z</time>
      </trkpt>
      <trkpt lat="44.55478" lon="4.2429">
        <ele>388</ele>
        <time>2018-06-03T07:43:10.000Z</time>
      </trkpt>
      <trkpt lat="44.55479" lon="4.2429">
        <ele>388</ele>
        <time>2018-06-03T07:43:11.000Z</time>
      </trkpt>
      <trkpt lat="44.55481" lon="4.24288">
        <ele>388</ele>
        <time>2018-06-03T07:43:12.000Z</time>
      </trkpt>
      <trkpt lat="44.55483" lon="4.24287">
        <ele>388</ele>
        <time>2018-06-03T07:43:13.000Z</time>
      </trkpt>
      <trkpt lat="44.55485" lon="4.24285">
        <ele>388</ele>
        <time>2018-06-03T07:43:14.000Z</time>
      </trkpt>
      <trkpt lat="44.55487" lon="4.24283">
        <ele>388</ele>
        <time>2018-06-03T07:43:15.000Z</time>
      </trkpt>
      <trkpt lat="44.55489" lon="4.24281">
        <ele>388</ele>
        <time>2018-06-03T07:43:16.000Z</time>
      </trkpt>
      <trkpt lat="44.55491" lon="4.2428">
        <ele>388</ele>
        <time>2018-06-03T07:43:17.000Z</time>
      </trkpt>
      <trkpt lat="44.55492" lon="4.24278">
        <ele>388</ele>
        <time>2018-06-03T07:43:18.000Z</time>
      </trkpt>
      <trkpt lat="44.55494" lon="4.24277">
        <ele>388</ele>
        <time>2018-06-03T07:43:19.000Z</time>
      </trkpt>
      <trkpt lat="44.55496" lon="4.24275">
        <ele>388</ele>
        <time>2018-06-03T07:43:20.000Z</time>
      </trkpt>
      <trkpt lat="44.55497" lon="4.24273">
        <ele>388</ele>
        <time>2018-06-03T07:43:21.000Z</time>
      </trkpt>
      <trkpt lat="44.55499" lon="4.24271">
        <ele>388</ele>
        <time>2018-06-03T07:43:22.000Z</time>
      </trkpt>
      <trkpt lat="44.55501" lon="4.24269">
        <ele>395</ele>
        <time>2018-06-03T07:43:23.000Z</time>
      </trkpt>
      <trkpt lat="44.55503" lon="4.24267">
        <ele>395</ele>
        <time>2018-06-03T07:43:24.000Z</time>
      </trkpt>
      <trkpt lat="44.55504" lon="4.24265">
        <ele>394</ele>
        <time>2018-06-03T07:43:25.000Z</time>
      </trkpt>
      <trkpt lat="44.55506" lon="4.24264">
        <ele>394</ele>
        <time>2018-06-03T07:43:26.000Z</time>
      </trkpt>
      <trkpt lat="44.55508" lon="4.24262">
        <ele>394</ele>
        <time>2018-06-03T07:43:27.000Z</time>
      </trkpt>
      <trkpt lat="44.5551" lon="4.24262">
        <ele>394</ele>
        <time>2018-06-03T07:43:28.000Z</time>
      </trkpt>
      <trkpt lat="44.55511" lon="4.24261">
        <ele>394</ele>
        <time>2018-06-03T07:43:29.000Z</time>
      </trkpt>
      <trkpt lat="44.55513" lon="4.2426">
        <ele>394</ele>
        <time>2018-06-03T07:43:30.000Z</time>
      </trkpt>
      <trkpt lat="44.55515" lon="4.24259">
        <ele>394</ele>
        <time>2018-06-03T07:43:31.000Z</time>
      </trkpt>
      <trkpt lat="44.55517" lon="4.24258">
        <ele>395</ele>
        <time>2018-06-03T07:43:32.000Z</time>
      </trkpt>
      <trkpt lat="44.55519" lon="4.24257">
        <ele>395</ele>
        <time>2018-06-03T07:43:33.000Z</time>
      </trkpt>
      <trkpt lat="44.55521" lon="4.24256">
        <ele>395</ele>
        <time>2018-06-03T07:43:34.000Z</time>
      </trkpt>
      <trkpt lat="44.55523" lon="4.24255">
        <ele>396</ele>
        <time>2018-06-03T07:43:35.000Z</time>
      </trkpt>
      <trkpt lat="44.55526" lon="4.24254">
        <ele>396</ele>
        <time>2018-06-03T07:43:36.000Z</time>
      </trkpt>
      <trkpt lat="44.55528" lon="4.24254">
        <ele>396</ele>
        <time>2018-06-03T07:43:37.000Z</time>
      </trkpt>
      <trkpt lat="44.5553" lon="4.24253">
        <ele>396</ele>
        <time>2018-06-03T07:43:38.000Z</time>
      </trkpt>
      <trkpt lat="44.55531" lon="4.24253">
        <ele>397</ele>
        <time>2018-06-03T07:43:39.000Z</time>
      </trkpt>
      <trkpt lat="44.55533" lon="4.24252">
        <ele>397</ele>
        <time>2018-06-03T07:43:40.000Z</time>
      </trkpt>
      <trkpt lat="44.55535" lon="4.24253">
        <ele>397</ele>
        <time>2018-06-03T07:43:41.000Z</time>
      </trkpt>
      <trkpt lat="44.55537" lon="4.24253">
        <ele>397</ele>
        <time>2018-06-03T07:43:42.000Z</time>
      </trkpt>
      <trkpt lat="44.55539" lon="4.24254">
        <ele>397</ele>
        <time>2018-06-03T07:43:43.000Z</time>
      </trkpt>
      <trkpt lat="44.5554" lon="4.24254">
        <ele>397</ele>
        <time>2018-06-03T07:43:44.000Z</time>
      </trkpt>
      <trkpt lat="44.55542" lon="4.24254">
        <ele>398</ele>
        <time>2018-06-03T07:43:45.000Z</time>
      </trkpt>
      <trkpt lat="44.55544" lon="4.24254">
        <ele>398</ele>
        <time>2018-06-03T07:43:46.000Z</time>
      </trkpt>
      <trkpt lat="44.55545" lon="4.24255">
        <ele>398</ele>
        <time>2018-06-03T07:43:47.000Z</time>
      </trkpt>
      <trkpt lat="44.55546" lon="4.24256">
        <ele>398</ele>
        <time>2018-06-03T07:43:48.000Z</time>
      </trkpt>
      <trkpt lat="44.55547" lon="4.24257">
        <ele>398</ele>
        <time>2018-06-03T07:43:49.000Z</time>
      </trkpt>
      <trkpt lat="44.55548" lon="4.24259">
        <ele>398</ele>
        <time>2018-06-03T07:43:50.000Z</time>
      </trkpt>
      <trkpt lat="44.55549" lon="4.2426">
        <ele>398</ele>
        <time>2018-06-03T07:43:51.000Z</time>
      </trkpt>
      <trkpt lat="44.55549" lon="4.24262">
        <ele>398</ele>
        <time>2018-06-03T07:43:52.000Z</time>
      </trkpt>
      <trkpt lat="44.55549" lon="4.24263">
        <ele>398</ele>
        <time>2018-06-03T07:43:53.000Z</time>
      </trkpt>
      <trkpt lat="44.55548" lon="4.24264">
        <ele>398</ele>
        <time>2018-06-03T07:43:54.000Z</time>
      </trkpt>
      <trkpt lat="44.55547" lon="4.24266">
        <ele>399</ele>
        <time>2018-06-03T07:43:55.000Z</time>
      </trkpt>
      <trkpt lat="44.55546" lon="4.24267">
        <ele>399</ele>
        <time>2018-06-03T07:43:56.000Z</time>
      </trkpt>
      <trkpt lat="44.55545" lon="4.24267">
        <ele>399</ele>
        <time>2018-06-03T07:43:57.000Z</time>
      </trkpt>
      <trkpt lat="44.55544" lon="4.24268">
        <ele>399</ele>
        <time>2018-06-03T07:43:58.000Z</time>
      </trkpt>
      <trkpt lat="44.55544" lon="4.24268">
        <ele>399</ele>
        <time>2018-06-03T07:43:59.000Z</time>
      </trkpt>
      <trkpt lat="44.55543" lon="4.24269">
        <ele>399</ele>
        <time>2018-06-03T07:44:00.000Z</time>
      </trkpt>
      <trkpt lat="44.55543" lon="4.2427">
        <ele>399</ele>
        <time>2018-06-03T07:44:01.000Z</time>
      </trkpt>
      <trkpt lat="44.55542" lon="4.24271">
        <ele>399</ele>
        <time>2018-06-03T07:44:02.000Z</time>
      </trkpt>
      <trkpt lat="44.55541" lon="4.24271">
        <ele>399</ele>
        <time>2018-06-03T07:44:03.000Z</time>
      </trkpt>
      <trkpt lat="44.5554" lon="4.24272">
        <ele>399</ele>
        <time>2018-06-03T07:44:04.000Z</time>
      </trkpt>
      <trkpt lat="44.5554" lon="4.24274">
        <ele>399</ele>
        <time>2018-06-03T07:44:05.000Z</time>
      </trkpt>
      <trkpt lat="44.55539" lon="4.24275">
        <ele>399</ele>
        <time>2018-06-03T07:44:06.000Z</time>
      </trkpt>
      <trkpt lat="44.55538" lon="4.24277">
        <ele>399</ele>
        <time>2018-06-03T07:44:07.000Z</time>
      </trkpt>
      <trkpt lat="44.55537" lon="4.24279">
        <ele>399</ele>
        <time>2018-06-03T07:44:08.000Z</time>
      </trkpt>
      <trkpt lat="44.55536" lon="4.24281">
        <ele>399</ele>
        <time>2018-06-03T07:44:09.000Z</time>
      </trkpt>
      <trkpt lat="44.55535" lon="4.24282">
        <ele>399</ele>
        <time>2018-06-03T07:44:10.000Z</time>
      </trkpt>
      <trkpt lat="44.55534" lon="4.24284">
        <ele>399</ele>
        <time>2018-06-03T07:44:11.000Z</time>
      </trkpt>
      <trkpt lat="44.55533" lon="4.24285">
        <ele>400</ele>
        <time>2018-06-03T07:44:12.000Z</time>
      </trkpt>
      <trkpt lat="44.55532" lon="4.24287">
        <ele>400</ele>
        <time>2018-06-03T07:44:13.000Z</time>
      </trkpt>
      <trkpt lat="44.55531" lon="4.24288">
        <ele>400</ele>
        <time>2018-06-03T07:44:14.000Z</time>
      </trkpt>
      <trkpt lat="44.55532" lon="4.24289">
        <ele>400</ele>
        <time>2018-06-03T07:44:15.000Z</time>
      </trkpt>
      <trkpt lat="44.55532" lon="4.2429">
        <ele>400</ele>
        <time>2018-06-03T07:44:16.000Z</time>
      </trkpt>
      <trkpt lat="44.55532" lon="4.24291">
        <ele>400</ele>
        <time>2018-06-03T07:44:17.000Z</time>
      </trkpt>
      <trkpt lat="44.55532" lon="4.24291">
        <ele>400</ele>
        <time>2018-06-03T07:44:18.000Z</time>
      </trkpt>
      <trkpt lat="44.55533" lon="4.24291">
        <ele>400</ele>
        <time>2018-06-03T07:44:19.000Z</time>
      </trkpt>
      <trkpt lat="44.55533" lon="4.24291">
        <ele>400</ele>
        <time>2018-06-03T07:44:20.000Z</time>
      </trkpt>
      <trkpt lat="44.55534" lon="4.24291">
        <ele>400</ele>
        <time>2018-06-03T07:44:21.000Z</time>
      </trkpt>
      <trkpt lat="44.55535" lon="4.24291">
        <ele>400</ele>
        <time>2018-06-03T07:44:22.000Z</time>
      </trkpt>
      <trkpt lat="44.55535" lon="4.24291">
        <ele>400</ele>
        <time>2018-06-03T07:44:23.000Z</time>
      </trkpt>
      <trkpt lat="44.55536" lon="4.24291">
        <ele>400</ele>
        <time>2018-06-03T07:44:24.000Z</time>
      </trkpt>
      <trkpt lat="44.55537" lon="4.24291">
        <ele>400</ele>
        <time>2018-06-03T07:44:25.000Z</time>
      </trkpt>
      <trkpt lat="44.55538" lon="4.24291">
        <ele>400</ele>
        <time>2018-06-03T07:44:26.000Z</time>
      </trkpt>
      <trkpt lat="44.55539" lon="4.24291">
        <ele>400</ele>
        <time>2018-06-03T07:44:27.000Z</time>
      </trkpt>
      <trkpt lat="44.55541" lon="4.24291">
        <ele>400</ele>
        <time>2018-06-03T07:44:28.000Z</time>
      </trkpt>
      <trkpt lat="44.55542" lon="4.24291">
        <ele>400</ele>
        <time>2018-06-03T07:44:29.000Z</time>
      </trkpt>
      <trkpt lat="44.55543" lon="4.24291">
        <ele>400</ele>
        <time>2018-06-03T07:44:30.000Z</time>
      </trkpt>
      <trkpt lat="44.55544" lon="4.24291">
        <ele>401</ele>
        <time>2018-06-03T07:44:31.000Z</time>
      </trkpt>
      <trkpt lat="44.55545" lon="4.24291">
        <ele>401</ele>
        <time>2018-06-03T07:44:32.000Z</time>
      </trkpt>
      <trkpt lat="44.55546" lon="4.24291">
        <ele>401</ele>
        <time>2018-06-03T07:44:33.000Z</time>
      </trkpt>
      <trkpt lat="44.55547" lon="4.24291">
        <ele>401</ele>
        <time>2018-06-03T07:44:34.000Z</time>
      </trkpt>
      <trkpt lat="44.55549" lon="4.24291">
        <ele>401</ele>
        <time>2018-06-03T07:44:35.000Z</time>
      </trkpt>
      <trkpt lat="44.5555" lon="4.24292">
        <ele>401</ele>
        <time>2018-06-03T07:44:36.000Z</time>
      </trkpt>
      <trkpt lat="44.55552" lon="4.24292">
        <ele>401</ele>
        <time>2018-06-03T07:44:37.000Z</time>
      </trkpt>
      <trkpt lat="44.55553" lon="4.24292">
        <ele>401</ele>
        <time>2018-06-03T07:44:38.000Z</time>
      </trkpt>
      <trkpt lat="44.55554" lon="4.24292">
        <ele>401</ele>
        <time>2018-06-03T07:44:39.000Z</time>
      </trkpt>
      <trkpt lat="44.55555" lon="4.24292">
        <ele>401</ele>
        <time>2018-06-03T07:44:40.000Z</time>
      </trkpt>
      <trkpt lat="44.55556" lon="4.24291">
        <ele>401</ele>
        <time>2018-06-03T07:44:41.000Z</time>
      </trkpt>
      <trkpt lat="44.55558" lon="4.24292">
        <ele>401</ele>
        <time>2018-06-03T07:44:42.000Z</time>
      </trkpt>
      <trkpt lat="44.55559" lon="4.24292">
        <ele>401</ele>
        <time>2018-06-03T07:44:43.000Z</time>
      </trkpt>
      <trkpt lat="44.5556" lon="4.24293">
        <ele>401</ele>
        <time>2018-06-03T07:44:44.000Z</time>
      </trkpt>
      <trkpt lat="44.55562" lon="4.24295">
        <ele>401</ele>
        <time>2018-06-03T07:44:45.000Z</time>
      </trkpt>
      <trkpt lat="44.55563" lon="4.24296">
        <ele>401</ele>
        <time>2018-06-03T07:44:46.000Z</time>
      </trkpt>
      <trkpt lat="44.55565" lon="4.24298">
        <ele>402</ele>
        <time>2018-06-03T07:44:47.000Z</time>
      </trkpt>
      <trkpt lat="44.55566" lon="4.243">
        <ele>402</ele>
        <time>2018-06-03T07:44:48.000Z</time>
      </trkpt>
      <trkpt lat="44.55568" lon="4.24302">
        <ele>402</ele>
        <time>2018-06-03T07:44:49.000Z</time>
      </trkpt>
      <trkpt lat="44.55569" lon="4.24304">
        <ele>402</ele>
        <time>2018-06-03T07:44:50.000Z</time>
      </trkpt>
      <trkpt lat="44.5557" lon="4.24306">
        <ele>403</ele>
        <time>2018-06-03T07:44:51.000Z</time>
      </trkpt>
      <trkpt lat="44.55571" lon="4.24307">
        <ele>403</ele>
        <time>2018-06-03T07:44:52.000Z</time>
      </trkpt>
      <trkpt lat="44.55572" lon="4.24309">
        <ele>403</ele>
        <time>2018-06-03T07:44:53.000Z</time>
      </trkpt>
      <trkpt lat="44.55573" lon="4.24311">
        <ele>403</ele>
        <time>2018-06-03T07:44:54.000Z</time>
      </trkpt>
      <trkpt lat="44.55574" lon="4.24312">
        <ele>404</ele>
        <time>2018-06-03T07:44:55.000Z</time>
      </trkpt>
      <trkpt lat="44.55575" lon="4.24314">
        <ele>404</ele>
        <time>2018-06-03T07:44:56.000Z</time>
      </trkpt>
      <trkpt lat="44.55576" lon="4.24317">
        <ele>404</ele>
        <time>2018-06-03T07:44:57.000Z</time>
      </trkpt>
      <trkpt lat="44.55576" lon="4.2432">
        <ele>405</ele>
        <time>2018-06-03T07:44:58.000Z</time>
      </trkpt>
      <trkpt lat="44.55577" lon="4.24322">
        <ele>405</ele>
        <time>2018-06-03T07:44:59.000Z</time>
      </trkpt>
      <trkpt lat="44.55578" lon="4.24325">
        <ele>406</ele>
        <time>2018-06-03T07:45:00.000Z</time>
      </trkpt>
      <trkpt lat="44.55579" lon="4.24327">
        <ele>406</ele>
        <time>2018-06-03T07:45:01.000Z</time>
      </trkpt>
      <trkpt lat="44.55579" lon="4.24329">
        <ele>406</ele>
        <time>2018-06-03T07:45:02.000Z</time>
      </trkpt>
      <trkpt lat="44.5558" lon="4.24332">
        <ele>407</ele>
        <time>2018-06-03T07:45:03.000Z</time>
      </trkpt>
      <trkpt lat="44.55581" lon="4.24334">
        <ele>409</ele>
        <time>2018-06-03T07:45:04.000Z</time>
      </trkpt>
      <trkpt lat="44.55583" lon="4.24336">
        <ele>409</ele>
        <time>2018-06-03T07:45:05.000Z</time>
      </trkpt>
      <trkpt lat="44.55584" lon="4.24337">
        <ele>410</ele>
        <time>2018-06-03T07:45:06.000Z</time>
      </trkpt>
      <trkpt lat="44.55585" lon="4.24338">
        <ele>411</ele>
        <time>2018-06-03T07:45:07.000Z</time>
      </trkpt>
      <trkpt lat="44.55587" lon="4.24338">
        <ele>412</ele>
        <time>2018-06-03T07:45:08.000Z</time>
      </trkpt>
      <trkpt lat="44.55589" lon="4.24339">
        <ele>413</ele>
        <time>2018-06-03T07:45:09.000Z</time>
      </trkpt>
      <trkpt lat="44.5559" lon="4.2434">
        <ele>414</ele>
        <time>2018-06-03T07:45:10.000Z</time>
      </trkpt>
      <trkpt lat="44.55592" lon="4.2434">
        <ele>415</ele>
        <time>2018-06-03T07:45:11.000Z</time>
      </trkpt>
      <trkpt lat="44.55595" lon="4.24341">
        <ele>416</ele>
        <time>2018-06-03T07:45:12.000Z</time>
      </trkpt>
      <trkpt lat="44.55597" lon="4.24341">
        <ele>417</ele>
        <time>2018-06-03T07:45:13.000Z</time>
      </trkpt>
      <trkpt lat="44.55599" lon="4.24342">
        <ele>417</ele>
        <time>2018-06-03T07:45:14.000Z</time>
      </trkpt>
      <trkpt lat="44.55601" lon="4.24343">
        <ele>418</ele>
        <time>2018-06-03T07:45:15.000Z</time>
      </trkpt>
      <trkpt lat="44.55603" lon="4.24344">
        <ele>419</ele>
        <time>2018-06-03T07:45:16.000Z</time>
      </trkpt>
      <trkpt lat="44.55604" lon="4.24345">
        <ele>419</ele>
        <time>2018-06-03T07:45:17.000Z</time>
      </trkpt>
      <trkpt lat="44.55606" lon="4.24347">
        <ele>420</ele>
        <time>2018-06-03T07:45:18.000Z</time>
      </trkpt>
      <trkpt lat="44.55607" lon="4.24349">
        <ele>421</ele>
        <time>2018-06-03T07:45:19.000Z</time>
      </trkpt>
      <trkpt lat="44.55609" lon="4.24351">
        <ele>421</ele>
        <time>2018-06-03T07:45:20.000Z</time>
      </trkpt>
      <trkpt lat="44.5561" lon="4.24353">
        <ele>422</ele>
        <time>2018-06-03T07:45:21.000Z</time>
      </trkpt>
      <trkpt lat="44.55611" lon="4.24356">
        <ele>423</ele>
        <time>2018-06-03T07:45:22.000Z</time>
      </trkpt>
      <trkpt lat="44.55612" lon="4.24358">
        <ele>423</ele>
        <time>2018-06-03T07:45:23.000Z</time>
      </trkpt>
      <trkpt lat="44.55613" lon="4.24361">
        <ele>424</ele>
        <time>2018-06-03T07:45:24.000Z</time>
      </trkpt>
      <trkpt lat="44.55614" lon="4.24363">
        <ele>424</ele>
        <time>2018-06-03T07:45:25.000Z</time>
      </trkpt>
      <trkpt lat="44.55615" lon="4.24365">
        <ele>424</ele>
        <time>2018-06-03T07:45:26.000Z</time>
      </trkpt>
      <trkpt lat="44.55617" lon="4.24366">
        <ele>425</ele>
        <time>2018-06-03T07:45:27.000Z</time>
      </trkpt>
      <trkpt lat="44.55619" lon="4.24367">
        <ele>425</ele>
        <time>2018-06-03T07:45:28.000Z</time>
      </trkpt>
      <trkpt lat="44.5562" lon="4.24367">
        <ele>425</ele>
        <time>2018-06-03T07:45:29.000Z</time>
      </trkpt>
      <trkpt lat="44.55622" lon="4.24367">
        <ele>425</ele>
        <time>2018-06-03T07:45:30.000Z</time>
      </trkpt>
      <trkpt lat="44.55623" lon="4.24366">
        <ele>425</ele>
        <time>2018-06-03T07:45:31.000Z</time>
      </trkpt>
      <trkpt lat="44.55625" lon="4.24364">
        <ele>425</ele>
        <time>2018-06-03T07:45:32.000Z</time>
      </trkpt>
      <trkpt lat="44.55626" lon="4.24363">
        <ele>425</ele>
        <time>2018-06-03T07:45:33.000Z</time>
      </trkpt>
      <trkpt lat="44.55627" lon="4.24361">
        <ele>425</ele>
        <time>2018-06-03T07:45:34.000Z</time>
      </trkpt>
      <trkpt lat="44.55629" lon="4.2436">
        <ele>425</ele>
        <time>2018-06-03T07:45:35.000Z</time>
      </trkpt>
      <trkpt lat="44.5563" lon="4.24359">
        <ele>425</ele>
        <time>2018-06-03T07:45:36.000Z</time>
      </trkpt>
      <trkpt lat="44.55631" lon="4.24357">
        <ele>425</ele>
        <time>2018-06-03T07:45:37.000Z</time>
      </trkpt>
      <trkpt lat="44.55632" lon="4.24356">
        <ele>425</ele>
        <time>2018-06-03T07:45:38.000Z</time>
      </trkpt>
      <trkpt lat="44.55633" lon="4.24354">
        <ele>424</ele>
        <time>2018-06-03T07:45:39.000Z</time>
      </trkpt>
      <trkpt lat="44.55635" lon="4.24352">
        <ele>424</ele>
        <time>2018-06-03T07:45:40.000Z</time>
      </trkpt>
      <trkpt lat="44.55636" lon="4.24351">
        <ele>424</ele>
        <time>2018-06-03T07:45:41.000Z</time>
      </trkpt>
      <trkpt lat="44.55638" lon="4.24349">
        <ele>424</ele>
        <time>2018-06-03T07:45:42.000Z</time>
      </trkpt>
      <trkpt lat="44.55639" lon="4.24348">
        <ele>424</ele>
        <time>2018-06-03T07:45:43.000Z</time>
      </trkpt>
      <trkpt lat="44.5564" lon="4.24346">
        <ele>424</ele>
        <time>2018-06-03T07:45:44.000Z</time>
      </trkpt>
      <trkpt lat="44.55641" lon="4.24345">
        <ele>424</ele>
        <time>2018-06-03T07:45:45.000Z</time>
      </trkpt>
      <trkpt lat="44.55642" lon="4.24343">
        <ele>424</ele>
        <time>2018-06-03T07:45:46.000Z</time>
      </trkpt>
      <trkpt lat="44.55643" lon="4.24342">
        <ele>424</ele>
        <time>2018-06-03T07:45:47.000Z</time>
      </trkpt>
      <trkpt lat="44.55644" lon="4.2434">
        <ele>424</ele>
        <time>2018-06-03T07:45:48.000Z</time>
      </trkpt>
      <trkpt lat="44.55646" lon="4.24339">
        <ele>423</ele>
        <time>2018-06-03T07:45:49.000Z</time>
      </trkpt>
      <trkpt lat="44.55647" lon="4.24337">
        <ele>423</ele>
        <time>2018-06-03T07:45:50.000Z</time>
      </trkpt>
      <trkpt lat="44.55649" lon="4.24335">
        <ele>423</ele>
        <time>2018-06-03T07:45:51.000Z</time>
      </trkpt>
      <trkpt lat="44.5565" lon="4.24333">
        <ele>415</ele>
        <time>2018-06-03T07:45:52.000Z</time>
      </trkpt>
      <trkpt lat="44.55652" lon="4.24331">
        <ele>416</ele>
        <time>2018-06-03T07:45:53.000Z</time>
      </trkpt>
      <trkpt lat="44.55654" lon="4.24329">
        <ele>416</ele>
        <time>2018-06-03T07:45:54.000Z</time>
      </trkpt>
      <trkpt lat="44.55655" lon="4.24329">
        <ele>416</ele>
        <time>2018-06-03T07:45:55.000Z</time>
      </trkpt>
      <trkpt lat="44.55657" lon="4.24328">
        <ele>417</ele>
        <time>2018-06-03T07:45:56.000Z</time>
      </trkpt>
      <trkpt lat="44.55658" lon="4.24327">
        <ele>417</ele>
        <time>2018-06-03T07:45:57.000Z</time>
      </trkpt>
      <trkpt lat="44.5566" lon="4.24325">
        <ele>417</ele>
        <time>2018-06-03T07:45:58.000Z</time>
      </trkpt>
      <trkpt lat="44.55661" lon="4.24324">
        <ele>417</ele>
        <time>2018-06-03T07:45:59.000Z</time>
      </trkpt>
      <trkpt lat="44.55663" lon="4.24323">
        <ele>417</ele>
        <time>2018-06-03T07:46:00.000Z</time>
      </trkpt>
      <trkpt lat="44.55664" lon="4.24322">
        <ele>417</ele>
        <time>2018-06-03T07:46:01.000Z</time>
      </trkpt>
      <trkpt lat="44.55666" lon="4.24321">
        <ele>416</ele>
        <time>2018-06-03T07:46:02.000Z</time>
      </trkpt>
      <trkpt lat="44.55667" lon="4.2432">
        <ele>421</ele>
        <time>2018-06-03T07:46:03.000Z</time>
      </trkpt>
      <trkpt lat="44.55669" lon="4.24319">
        <ele>421</ele>
        <time>2018-06-03T07:46:04.000Z</time>
      </trkpt>
      <trkpt lat="44.5567" lon="4.24317">
        <ele>421</ele>
        <time>2018-06-03T07:46:05.000Z</time>
      </trkpt>
      <trkpt lat="44.55671" lon="4.24316">
        <ele>421</ele>
        <time>2018-06-03T07:46:06.000Z</time>
      </trkpt>
      <trkpt lat="44.55673" lon="4.24315">
        <ele>421</ele>
        <time>2018-06-03T07:46:07.000Z</time>
      </trkpt>
      <trkpt lat="44.55674" lon="4.24313">
        <ele>421</ele>
        <time>2018-06-03T07:46:08.000Z</time>
      </trkpt>
      <trkpt lat="44.55676" lon="4.24311">
        <ele>421</ele>
        <time>2018-06-03T07:46:09.000Z</time>
      </trkpt>
      <trkpt lat="44.55677" lon="4.24309">
        <ele>421</ele>
        <time>2018-06-03T07:46:10.000Z</time>
      </trkpt>
      <trkpt lat="44.55679" lon="4.24307">
        <ele>421</ele>
        <time>2018-06-03T07:46:11.000Z</time>
      </trkpt>
      <trkpt lat="44.5568" lon="4.24305">
        <ele>420</ele>
        <time>2018-06-03T07:46:12.000Z</time>
      </trkpt>
      <trkpt lat="44.55681" lon="4.24303">
        <ele>420</ele>
        <time>2018-06-03T07:46:13.000Z</time>
      </trkpt>
      <trkpt lat="44.55682" lon="4.24301">
        <ele>420</ele>
        <time>2018-06-03T07:46:14.000Z</time>
      </trkpt>
      <trkpt lat="44.55684" lon="4.24299">
        <ele>420</ele>
        <time>2018-06-03T07:46:15.000Z</time>
      </trkpt>
      <trkpt lat="44.55685" lon="4.24297">
        <ele>420</ele>
        <time>2018-06-03T07:46:16.000Z</time>
      </trkpt>
      <trkpt lat="44.55686" lon="4.24297">
        <ele>420</ele>
        <time>2018-06-03T07:46:17.000Z</time>
      </trkpt>
      <trkpt lat="44.55687" lon="4.24296">
        <ele>420</ele>
        <time>2018-06-03T07:46:18.000Z</time>
      </trkpt>
      <trkpt lat="44.55689" lon="4.24294">
        <ele>420</ele>
        <time>2018-06-03T07:46:19.000Z</time>
      </trkpt>
      <trkpt lat="44.55691" lon="4.24294">
        <ele>420</ele>
        <time>2018-06-03T07:46:20.000Z</time>
      </trkpt>
      <trkpt lat="44.55692" lon="4.24293">
        <ele>420</ele>
        <time>2018-06-03T07:46:21.000Z</time>
      </trkpt>
      <trkpt lat="44.55694" lon="4.24293">
        <ele>420</ele>
        <time>2018-06-03T07:46:22.000Z</time>
      </trkpt>
      <trkpt lat="44.55696" lon="4.24292">
        <ele>420</ele>
        <time>2018-06-03T07:46:23.000Z</time>
      </trkpt>
      <trkpt lat="44.55698" lon="4.24291">
        <ele>420</ele>
        <time>2018-06-03T07:46:24.000Z</time>
      </trkpt>
      <trkpt lat="44.557" lon="4.2429">
        <ele>421</ele>
        <time>2018-06-03T07:46:25.000Z</time>
      </trkpt>
      <trkpt lat="44.55702" lon="4.2429">
        <ele>421</ele>
        <time>2018-06-03T07:46:26.000Z</time>
      </trkpt>
      <trkpt lat="44.55704" lon="4.2429">
        <ele>421</ele>
        <time>2018-06-03T07:46:27.000Z</time>
      </trkpt>
      <trkpt lat="44.55706" lon="4.2429">
        <ele>421</ele>
        <time>2018-06-03T07:46:28.000Z</time>
      </trkpt>
      <trkpt lat="44.55709" lon="4.2429">
        <ele>421</ele>
        <time>2018-06-03T07:46:29.000Z</time>
      </trkpt>
      <trkpt lat="44.55711" lon="4.24291">
        <ele>421</ele>
        <time>2018-06-03T07:46:30.000Z</time>
      </trkpt>
      <trkpt lat="44.55712" lon="4.24291">
        <ele>421</ele>
        <time>2018-06-03T07:46:31.000Z</time>
      </trkpt>
      <trkpt lat="44.55714" lon="4.24291">
        <ele>422</ele>
        <time>2018-06-03T07:46:32.000Z</time>
      </trkpt>
      <trkpt lat="44.55716" lon="4.24292">
        <ele>422</ele>
        <time>2018-06-03T07:46:33.000Z</time>
      </trkpt>
      <trkpt lat="44.55718" lon="4.24291">
        <ele>422</ele>
        <time>2018-06-03T07:46:34.000Z</time>
      </trkpt>
      <trkpt lat="44.5572" lon="4.24292">
        <ele>422</ele>
        <time>2018-06-03T07:46:35.000Z</time>
      </trkpt>
      <trkpt lat="44.55722" lon="4.24291">
        <ele>422</ele>
        <time>2018-06-03T07:46:36.000Z</time>
      </trkpt>
      <trkpt lat="44.55724" lon="4.24291">
        <ele>422</ele>
        <time>2018-06-03T07:46:37.000Z</time>
      </trkpt>
      <trkpt lat="44.55726" lon="4.24291">
        <ele>422</ele>
        <time>2018-06-03T07:46:38.000Z</time>
      </trkpt>
      <trkpt lat="44.55728" lon="4.2429">
        <ele>422</ele>
        <time>2018-06-03T07:46:39.000Z</time>
      </trkpt>
      <trkpt lat="44.5573" lon="4.2429">
        <ele>423</ele>
        <time>2018-06-03T07:46:40.000Z</time>
      </trkpt>
      <trkpt lat="44.55732" lon="4.2429">
        <ele>423</ele>
        <time>2018-06-03T07:46:41.000Z</time>
      </trkpt>
      <trkpt lat="44.55734" lon="4.2429">
        <ele>423</ele>
        <time>2018-06-03T07:46:42.000Z</time>
      </trkpt>
      <trkpt lat="44.55736" lon="4.2429">
        <ele>423</ele>
        <time>2018-06-03T07:46:43.000Z</time>
      </trkpt>
      <trkpt lat="44.55738" lon="4.2429">
        <ele>423</ele>
        <time>2018-06-03T07:46:44.000Z</time>
      </trkpt>
      <trkpt lat="44.5574" lon="4.2429">
        <ele>423</ele>
        <time>2018-06-03T07:46:45.000Z</time>
      </trkpt>
      <trkpt lat="44.55742" lon="4.2429">
        <ele>423</ele>
        <time>2018-06-03T07:46:46.000Z</time>
      </trkpt>
      <trkpt lat="44.55744" lon="4.2429">
        <ele>423</ele>
        <time>2018-06-03T07:46:47.000Z</time>
      </trkpt>
      <trkpt lat="44.55745" lon="4.24289">
        <ele>423</ele>
        <time>2018-06-03T07:46:48.000Z</time>
      </trkpt>
      <trkpt lat="44.55748" lon="4.2429">
        <ele>423</ele>
        <time>2018-06-03T07:46:49.000Z</time>
      </trkpt>
      <trkpt lat="44.5575" lon="4.2429">
        <ele>423</ele>
        <time>2018-06-03T07:46:50.000Z</time>
      </trkpt>
      <trkpt lat="44.55752" lon="4.2429">
        <ele>426</ele>
        <time>2018-06-03T07:46:51.000Z</time>
      </trkpt>
      <trkpt lat="44.55754" lon="4.2429">
        <ele>426</ele>
        <time>2018-06-03T07:46:52.000Z</time>
      </trkpt>
      <trkpt lat="44.55756" lon="4.24291">
        <ele>426</ele>
        <time>2018-06-03T07:46:53.000Z</time>
      </trkpt>
      <trkpt lat="44.55758" lon="4.24292">
        <ele>426</ele>
        <time>2018-06-03T07:46:54.000Z</time>
      </trkpt>
      <trkpt lat="44.5576" lon="4.24294">
        <ele>426</ele>
        <time>2018-06-03T07:46:55.000Z</time>
      </trkpt>
      <trkpt lat="44.55762" lon="4.24295">
        <ele>426</ele>
        <time>2018-06-03T07:46:56.000Z</time>
      </trkpt>
      <trkpt lat="44.55764" lon="4.24296">
        <ele>426</ele>
        <time>2018-06-03T07:46:57.000Z</time>
      </trkpt>
      <trkpt lat="44.55766" lon="4.24297">
        <ele>426</ele>
        <time>2018-06-03T07:46:58.000Z</time>
      </trkpt>
      <trkpt lat="44.55768" lon="4.24297">
        <ele>426</ele>
        <time>2018-06-03T07:46:59.000Z</time>
      </trkpt>
      <trkpt lat="44.5577" lon="4.24298">
        <ele>426</ele>
        <time>2018-06-03T07:47:00.000Z</time>
      </trkpt>
      <trkpt lat="44.55772" lon="4.24298">
        <ele>426</ele>
        <time>2018-06-03T07:47:01.000Z</time>
      </trkpt>
      <trkpt lat="44.55774" lon="4.243">
        <ele>426</ele>
        <time>2018-06-03T07:47:02.000Z</time>
      </trkpt>
      <trkpt lat="44.55776" lon="4.24302">
        <ele>426</ele>
        <time>2018-06-03T07:47:03.000Z</time>
      </trkpt>
      <trkpt lat="44.55777" lon="4.24304">
        <ele>427</ele>
        <time>2018-06-03T07:47:04.000Z</time>
      </trkpt>
      <trkpt lat="44.55779" lon="4.24306">
        <ele>427</ele>
        <time>2018-06-03T07:47:05.000Z</time>
      </trkpt>
      <trkpt lat="44.55781" lon="4.24309">
        <ele>427</ele>
        <time>2018-06-03T07:47:06.000Z</time>
      </trkpt>
      <trkpt lat="44.55782" lon="4.24311">
        <ele>427</ele>
        <time>2018-06-03T07:47:07.000Z</time>
      </trkpt>
      <trkpt lat="44.55784" lon="4.24313">
        <ele>427</ele>
        <time>2018-06-03T07:47:08.000Z</time>
      </trkpt>
      <trkpt lat="44.55786" lon="4.24315">
        <ele>427</ele>
        <time>2018-06-03T07:47:09.000Z</time>
      </trkpt>
      <trkpt lat="44.55787" lon="4.24318">
        <ele>427</ele>
        <time>2018-06-03T07:47:10.000Z</time>
      </trkpt>
      <trkpt lat="44.55788" lon="4.2432">
        <ele>427</ele>
        <time>2018-06-03T07:47:11.000Z</time>
      </trkpt>
      <trkpt lat="44.5579" lon="4.24323">
        <ele>427</ele>
        <time>2018-06-03T07:47:12.000Z</time>
      </trkpt>
      <trkpt lat="44.55791" lon="4.24326">
        <ele>427</ele>
        <time>2018-06-03T07:47:13.000Z</time>
      </trkpt>
      <trkpt lat="44.55792" lon="4.24328">
        <ele>427</ele>
        <time>2018-06-03T07:47:14.000Z</time>
      </trkpt>
      <trkpt lat="44.55794" lon="4.24331">
        <ele>427</ele>
        <time>2018-06-03T07:47:15.000Z</time>
      </trkpt>
      <trkpt lat="44.55795" lon="4.24333">
        <ele>427</ele>
        <time>2018-06-03T07:47:16.000Z</time>
      </trkpt>
      <trkpt lat="44.55796" lon="4.24336">
        <ele>437</ele>
        <time>2018-06-03T07:47:17.000Z</time>
      </trkpt>
      <trkpt lat="44.55796" lon="4.24337">
        <ele>437</ele>
        <time>2018-06-03T07:47:18.000Z</time>
      </trkpt>
      <trkpt lat="44.55797" lon="4.24339">
        <ele>437</ele>
        <time>2018-06-03T07:47:19.000Z</time>
      </trkpt>
      <trkpt lat="44.55798" lon="4.2434">
        <ele>437</ele>
        <time>2018-06-03T07:47:20.000Z</time>
      </trkpt>
      <trkpt lat="44.55798" lon="4.24343">
        <ele>437</ele>
        <time>2018-06-03T07:47:21.000Z</time>
      </trkpt>
      <trkpt lat="44.55799" lon="4.24345">
        <ele>437</ele>
        <time>2018-06-03T07:47:22.000Z</time>
      </trkpt>
      <trkpt lat="44.558" lon="4.24347">
        <ele>437</ele>
        <time>2018-06-03T07:47:23.000Z</time>
      </trkpt>
      <trkpt lat="44.55801" lon="4.24348">
        <ele>437</ele>
        <time>2018-06-03T07:47:24.000Z</time>
      </trkpt>
      <trkpt lat="44.55802" lon="4.24351">
        <ele>437</ele>
        <time>2018-06-03T07:47:25.000Z</time>
      </trkpt>
      <trkpt lat="44.55804" lon="4.24352">
        <ele>437</ele>
        <time>2018-06-03T07:47:26.000Z</time>
      </trkpt>
      <trkpt lat="44.55806" lon="4.24354">
        <ele>437</ele>
        <time>2018-06-03T07:47:27.000Z</time>
      </trkpt>
      <trkpt lat="44.55807" lon="4.24356">
        <ele>437</ele>
        <time>2018-06-03T07:47:28.000Z</time>
      </trkpt>
      <trkpt lat="44.55808" lon="4.24358">
        <ele>437</ele>
        <time>2018-06-03T07:47:29.000Z</time>
      </trkpt>
      <trkpt lat="44.5581" lon="4.24359">
        <ele>438</ele>
        <time>2018-06-03T07:47:30.000Z</time>
      </trkpt>
      <trkpt lat="44.55811" lon="4.24361">
        <ele>438</ele>
        <time>2018-06-03T07:47:31.000Z</time>
      </trkpt>
      <trkpt lat="44.55812" lon="4.24362">
        <ele>438</ele>
        <time>2018-06-03T07:47:32.000Z</time>
      </trkpt>
      <trkpt lat="44.55813" lon="4.24364">
        <ele>438</ele>
        <time>2018-06-03T07:47:33.000Z</time>
      </trkpt>
      <trkpt lat="44.55815" lon="4.24366">
        <ele>438</ele>
        <time>2018-06-03T07:47:34.000Z</time>
      </trkpt>
      <trkpt lat="44.55816" lon="4.24368">
        <ele>438</ele>
        <time>2018-06-03T07:47:35.000Z</time>
      </trkpt>
      <trkpt lat="44.55817" lon="4.2437">
        <ele>438</ele>
        <time>2018-06-03T07:47:36.000Z</time>
      </trkpt>
      <trkpt lat="44.55819" lon="4.24371">
        <ele>439</ele>
        <time>2018-06-03T07:47:37.000Z</time>
      </trkpt>
      <trkpt lat="44.5582" lon="4.24373">
        <ele>439</ele>
        <time>2018-06-03T07:47:38.000Z</time>
      </trkpt>
      <trkpt lat="44.55822" lon="4.24375">
        <ele>439</ele>
        <time>2018-06-03T07:47:39.000Z</time>
      </trkpt>
      <trkpt lat="44.55823" lon="4.24376">
        <ele>439</ele>
        <time>2018-06-03T07:47:40.000Z</time>
      </trkpt>
      <trkpt lat="44.55824" lon="4.24376">
        <ele>439</ele>
        <time>2018-06-03T07:47:41.000Z</time>
      </trkpt>
      <trkpt lat="44.55825" lon="4.24377">
        <ele>439</ele>
        <time>2018-06-03T07:47:42.000Z</time>
      </trkpt>
      <trkpt lat="44.55827" lon="4.24378">
        <ele>439</ele>
        <time>2018-06-03T07:47:43.000Z</time>
      </trkpt>
      <trkpt lat="44.55828" lon="4.24378">
        <ele>439</ele>
        <time>2018-06-03T07:47:44.000Z</time>
      </trkpt>
      <trkpt lat="44.5583" lon="4.2438">
        <ele>439</ele>
        <time>2018-06-03T07:47:45.000Z</time>
      </trkpt>
      <trkpt lat="44.55831" lon="4.24382">
        <ele>440</ele>
        <time>2018-06-03T07:47:46.000Z</time>
      </trkpt>
      <trkpt lat="44.55833" lon="4.24384">
        <ele>440</ele>
        <time>2018-06-03T07:47:47.000Z</time>
      </trkpt>
      <trkpt lat="44.55835" lon="4.24386">
        <ele>431</ele>
        <time>2018-06-03T07:47:48.000Z</time>
      </trkpt>
      <trkpt lat="44.55836" lon="4.24388">
        <ele>432</ele>
        <time>2018-06-03T07:47:49.000Z</time>
      </trkpt>
      <trkpt lat="44.55838" lon="4.2439">
        <ele>432</ele>
        <time>2018-06-03T07:47:50.000Z</time>
      </trkpt>
      <trkpt lat="44.55839" lon="4.24392">
        <ele>432</ele>
        <time>2018-06-03T07:47:51.000Z</time>
      </trkpt>
      <trkpt lat="44.55841" lon="4.24394">
        <ele>433</ele>
        <time>2018-06-03T07:47:52.000Z</time>
      </trkpt>
      <trkpt lat="44.55842" lon="4.24397">
        <ele>433</ele>
        <time>2018-06-03T07:47:53.000Z</time>
      </trkpt>
      <trkpt lat="44.55843" lon="4.24399">
        <ele>433</ele>
        <time>2018-06-03T07:47:54.000Z</time>
      </trkpt>
      <trkpt lat="44.55844" lon="4.24401">
        <ele>434</ele>
        <time>2018-06-03T07:47:55.000Z</time>
      </trkpt>
      <trkpt lat="44.55845" lon="4.24402">
        <ele>434</ele>
        <time>2018-06-03T07:47:56.000Z</time>
      </trkpt>
      <trkpt lat="44.55845" lon="4.24402">
        <ele>434</ele>
        <time>2018-06-03T07:47:57.000Z</time>
      </trkpt>
      <trkpt lat="44.55846" lon="4.24403">
        <ele>434</ele>
        <time>2018-06-03T07:47:58.000Z</time>
      </trkpt>
      <trkpt lat="44.55846" lon="4.24404">
        <ele>434</ele>
        <time>2018-06-03T07:47:59.000Z</time>
      </trkpt>
      <trkpt lat="44.55846" lon="4.24405">
        <ele>434</ele>
        <time>2018-06-03T07:48:00.000Z</time>
      </trkpt>
      <trkpt lat="44.55847" lon="4.24405">
        <ele>434</ele>
        <time>2018-06-03T07:48:01.000Z</time>
      </trkpt>
      <trkpt lat="44.55847" lon="4.24406">
        <ele>434</ele>
        <time>2018-06-03T07:48:02.000Z</time>
      </trkpt>
      <trkpt lat="44.55847" lon="4.24406">
        <ele>434</ele>
        <time>2018-06-03T07:48:03.000Z</time>
      </trkpt>
      <trkpt lat="44.55847" lon="4.24407">
        <ele>434</ele>
        <time>2018-06-03T07:48:04.000Z</time>
      </trkpt>
      <trkpt lat="44.55848" lon="4.24408">
        <ele>435</ele>
        <time>2018-06-03T07:48:05.000Z</time>
      </trkpt>
      <trkpt lat="44.55848" lon="4.24408">
        <ele>435</ele>
        <time>2018-06-03T07:48:06.000Z</time>
      </trkpt>
      <trkpt lat="44.55848" lon="4.24409">
        <ele>435</ele>
        <time>2018-06-03T07:48:07.000Z</time>
      </trkpt>
      <trkpt lat="44.55848" lon="4.24409">
        <ele>435</ele>
        <time>2018-06-03T07:48:08.000Z</time>
      </trkpt>
      <trkpt lat="44.55848" lon="4.2441">
        <ele>435</ele>
        <time>2018-06-03T07:48:09.000Z</time>
      </trkpt>
      <trkpt lat="44.55849" lon="4.24411">
        <ele>435</ele>
        <time>2018-06-03T07:48:10.000Z</time>
      </trkpt>
      <trkpt lat="44.55849" lon="4.24411">
        <ele>435</ele>
        <time>2018-06-03T07:48:11.000Z</time>
      </trkpt>
      <trkpt lat="44.55849" lon="4.24412">
        <ele>435</ele>
        <time>2018-06-03T07:48:12.000Z</time>
      </trkpt>
      <trkpt lat="44.55849" lon="4.24412">
        <ele>435</ele>
        <time>2018-06-03T07:48:13.000Z</time>
      </trkpt>
      <trkpt lat="44.55849" lon="4.24413">
        <ele>435</ele>
        <time>2018-06-03T07:48:14.000Z</time>
      </trkpt>
      <trkpt lat="44.55849" lon="4.24413">
        <ele>435</ele>
        <time>2018-06-03T07:48:15.000Z</time>
      </trkpt>
      <trkpt lat="44.5585" lon="4.24414">
        <ele>435</ele>
        <time>2018-06-03T07:48:16.000Z</time>
      </trkpt>
      <trkpt lat="44.5585" lon="4.24414">
        <ele>435</ele>
        <time>2018-06-03T07:48:17.000Z</time>
      </trkpt>
      <trkpt lat="44.5585" lon="4.24415">
        <ele>435</ele>
        <time>2018-06-03T07:48:18.000Z</time>
      </trkpt>
      <trkpt lat="44.5585" lon="4.24415">
        <ele>435</ele>
        <time>2018-06-03T07:48:19.000Z</time>
      </trkpt>
      <trkpt lat="44.5585" lon="4.24416">
        <ele>435</ele>
        <time>2018-06-03T07:48:20.000Z</time>
      </trkpt>
      <trkpt lat="44.5585" lon="4.24416">
        <ele>435</ele>
        <time>2018-06-03T07:48:21.000Z</time>
      </trkpt>
      <trkpt lat="44.5585" lon="4.24417">
        <ele>435</ele>
        <time>2018-06-03T07:48:22.000Z</time>
      </trkpt>
      <trkpt lat="44.5585" lon="4.24417">
        <ele>440</ele>
        <time>2018-06-03T07:48:23.000Z</time>
      </trkpt>
      <trkpt lat="44.55851" lon="4.24417">
        <ele>440</ele>
        <time>2018-06-03T07:48:24.000Z</time>
      </trkpt>
      <trkpt lat="44.55851" lon="4.24418">
        <ele>440</ele>
        <time>2018-06-03T07:48:25.000Z</time>
      </trkpt>
      <trkpt lat="44.5585" lon="4.24418">
        <ele>440</ele>
        <time>2018-06-03T07:48:26.000Z</time>
      </trkpt>
      <trkpt lat="44.5585" lon="4.24419">
        <ele>440</ele>
        <time>2018-06-03T07:48:27.000Z</time>
      </trkpt>
      <trkpt lat="44.55851" lon="4.24419">
        <ele>440</ele>
        <time>2018-06-03T07:48:28.000Z</time>
      </trkpt>
      <trkpt lat="44.55851" lon="4.24419">
        <ele>440</ele>
        <time>2018-06-03T07:48:29.000Z</time>
      </trkpt>
      <trkpt lat="44.55851" lon="4.24419">
        <ele>440</ele>
        <time>2018-06-03T07:48:30.000Z</time>
      </trkpt>
      <trkpt lat="44.55851" lon="4.2442">
        <ele>440</ele>
        <time>2018-06-03T07:48:31.000Z</time>
      </trkpt>
      <trkpt lat="44.55851" lon="4.24421">
        <ele>440</ele>
        <time>2018-06-03T07:48:32.000Z</time>
      </trkpt>
      <trkpt lat="44.55852" lon="4.24422">
        <ele>440</ele>
        <time>2018-06-03T07:48:33.000Z</time>
      </trkpt>
      <trkpt lat="44.55852" lon="4.24424">
        <ele>440</ele>
        <time>2018-06-03T07:48:34.000Z</time>
      </trkpt>
      <trkpt lat="44.55853" lon="4.24426">
        <ele>440</ele>
        <time>2018-06-03T07:48:35.000Z</time>
      </trkpt>
      <trkpt lat="44.55855" lon="4.24429">
        <ele>440</ele>
        <time>2018-06-03T07:48:36.000Z</time>
      </trkpt>
      <trkpt lat="44.55855" lon="4.24432">
        <ele>440</ele>
        <time>2018-06-03T07:48:37.000Z</time>
      </trkpt>
      <trkpt lat="44.55856" lon="4.24434">
        <ele>440</ele>
        <time>2018-06-03T07:48:38.000Z</time>
      </trkpt>
      <trkpt lat="44.55857" lon="4.24437">
        <ele>440</ele>
        <time>2018-06-03T07:48:39.000Z</time>
      </trkpt>
      <trkpt lat="44.55857" lon="4.24441">
        <ele>440</ele>
        <time>2018-06-03T07:48:40.000Z</time>
      </trkpt>
      <trkpt lat="44.55856" lon="4.24445">
        <ele>440</ele>
        <time>2018-06-03T07:48:41.000Z</time>
      </trkpt>
      <trkpt lat="44.55856" lon="4.2445">
        <ele>440</ele>
        <time>2018-06-03T07:48:42.000Z</time>
      </trkpt>
      <trkpt lat="44.55856" lon="4.24455">
        <ele>441</ele>
        <time>2018-06-03T07:48:43.000Z</time>
      </trkpt>
      <trkpt lat="44.55855" lon="4.2446">
        <ele>441</ele>
        <time>2018-06-03T07:48:44.000Z</time>
      </trkpt>
      <trkpt lat="44.55855" lon="4.24465">
        <ele>442</ele>
        <time>2018-06-03T07:48:45.000Z</time>
      </trkpt>
      <trkpt lat="44.55854" lon="4.2447">
        <ele>443</ele>
        <time>2018-06-03T07:48:46.000Z</time>
      </trkpt>
      <trkpt lat="44.55854" lon="4.24475">
        <ele>444</ele>
        <time>2018-06-03T07:48:47.000Z</time>
      </trkpt>
      <trkpt lat="44.55853" lon="4.2448">
        <ele>444</ele>
        <time>2018-06-03T07:48:48.000Z</time>
      </trkpt>
      <trkpt lat="44.55853" lon="4.24485">
        <ele>445</ele>
        <time>2018-06-03T07:48:49.000Z</time>
      </trkpt>
      <trkpt lat="44.55852" lon="4.2449">
        <ele>446</ele>
        <time>2018-06-03T07:48:50.000Z</time>
      </trkpt>
      <trkpt lat="44.55852" lon="4.24495">
        <ele>447</ele>
        <time>2018-06-03T07:48:51.000Z</time>
      </trkpt>
      <trkpt lat="44.55851" lon="4.24499">
        <ele>448</ele>
        <time>2018-06-03T07:48:52.000Z</time>
      </trkpt>
      <trkpt lat="44.5585" lon="4.24504">
        <ele>454</ele>
        <time>2018-06-03T07:48:53.000Z</time>
      </trkpt>
      <trkpt lat="44.5585" lon="4.24508">
        <ele>454</ele>
        <time>2018-06-03T07:48:54.000Z</time>
      </trkpt>
      <trkpt lat="44.5585" lon="4.24513">
        <ele>454</ele>
        <time>2018-06-03T07:48:55.000Z</time>
      </trkpt>
      <trkpt lat="44.5585" lon="4.24519">
        <ele>454</ele>
        <time>2018-06-03T07:48:56.000Z</time>
      </trkpt>
      <trkpt lat="44.55851" lon="4.24524">
        <ele>454</ele>
        <time>2018-06-03T07:48:57.000Z</time>
      </trkpt>
      <trkpt lat="44.55852" lon="4.24528">
        <ele>454</ele>
        <time>2018-06-03T07:48:58.000Z</time>
      </trkpt>
      <trkpt lat="44.55854" lon="4.24531">
        <ele>454</ele>
        <time>2018-06-03T07:48:59.000Z</time>
      </trkpt>
      <trkpt lat="44.55857" lon="4.24534">
        <ele>454</ele>
        <time>2018-06-03T07:49:00.000Z</time>
      </trkpt>
      <trkpt lat="44.55859" lon="4.24536">
        <ele>454</ele>
        <time>2018-06-03T07:49:01.000Z</time>
      </trkpt>
      <trkpt lat="44.55861" lon="4.24538">
        <ele>454</ele>
        <time>2018-06-03T07:49:02.000Z</time>
      </trkpt>
      <trkpt lat="44.55864" lon="4.2454">
        <ele>453</ele>
        <time>2018-06-03T07:49:03.000Z</time>
      </trkpt>
      <trkpt lat="44.55866" lon="4.24541">
        <ele>453</ele>
        <time>2018-06-03T07:49:04.000Z</time>
      </trkpt>
      <trkpt lat="44.55868" lon="4.24543">
        <ele>453</ele>
        <time>2018-06-03T07:49:05.000Z</time>
      </trkpt>
      <trkpt lat="44.5587" lon="4.24545">
        <ele>453</ele>
        <time>2018-06-03T07:49:06.000Z</time>
      </trkpt>
      <trkpt lat="44.55872" lon="4.24546">
        <ele>453</ele>
        <time>2018-06-03T07:49:07.000Z</time>
      </trkpt>
      <trkpt lat="44.55874" lon="4.24547">
        <ele>453</ele>
        <time>2018-06-03T07:49:08.000Z</time>
      </trkpt>
      <trkpt lat="44.55876" lon="4.24548">
        <ele>452</ele>
        <time>2018-06-03T07:49:09.000Z</time>
      </trkpt>
      <trkpt lat="44.55878" lon="4.24548">
        <ele>452</ele>
        <time>2018-06-03T07:49:10.000Z</time>
      </trkpt>
      <trkpt lat="44.5588" lon="4.24549">
        <ele>452</ele>
        <time>2018-06-03T07:49:11.000Z</time>
      </trkpt>
      <trkpt lat="44.55882" lon="4.2455">
        <ele>452</ele>
        <time>2018-06-03T07:49:12.000Z</time>
      </trkpt>
      <trkpt lat="44.55884" lon="4.24551">
        <ele>452</ele>
        <time>2018-06-03T07:49:13.000Z</time>
      </trkpt>
      <trkpt lat="44.55886" lon="4.24551">
        <ele>451</ele>
        <time>2018-06-03T07:49:14.000Z</time>
      </trkpt>
      <trkpt lat="44.55887" lon="4.24552">
        <ele>451</ele>
        <time>2018-06-03T07:49:15.000Z</time>
      </trkpt>
      <trkpt lat="44.55889" lon="4.24554">
        <ele>451</ele>
        <time>2018-06-03T07:49:16.000Z</time>
      </trkpt>
      <trkpt lat="44.55891" lon="4.24555">
        <ele>451</ele>
        <time>2018-06-03T07:49:17.000Z</time>
      </trkpt>
      <trkpt lat="44.55893" lon="4.24556">
        <ele>451</ele>
        <time>2018-06-03T07:49:18.000Z</time>
      </trkpt>
      <trkpt lat="44.55895" lon="4.24557">
        <ele>451</ele>
        <time>2018-06-03T07:49:19.000Z</time>
      </trkpt>
      <trkpt lat="44.55896" lon="4.24558">
        <ele>451</ele>
        <time>2018-06-03T07:49:20.000Z</time>
      </trkpt>
      <trkpt lat="44.55897" lon="4.2456">
        <ele>451</ele>
        <time>2018-06-03T07:49:21.000Z</time>
      </trkpt>
      <trkpt lat="44.55899" lon="4.24561">
        <ele>451</ele>
        <time>2018-06-03T07:49:22.000Z</time>
      </trkpt>
      <trkpt lat="44.559" lon="4.24563">
        <ele>451</ele>
        <time>2018-06-03T07:49:23.000Z</time>
      </trkpt>
      <trkpt lat="44.55902" lon="4.24565">
        <ele>451</ele>
        <time>2018-06-03T07:49:24.000Z</time>
      </trkpt>
      <trkpt lat="44.55904" lon="4.24566">
        <ele>451</ele>
        <time>2018-06-03T07:49:25.000Z</time>
      </trkpt>
      <trkpt lat="44.55905" lon="4.24568">
        <ele>451</ele>
        <time>2018-06-03T07:49:26.000Z</time>
      </trkpt>
      <trkpt lat="44.55907" lon="4.24571">
        <ele>451</ele>
        <time>2018-06-03T07:49:27.000Z</time>
      </trkpt>
      <trkpt lat="44.55909" lon="4.24573">
        <ele>451</ele>
        <time>2018-06-03T07:49:28.000Z</time>
      </trkpt>
      <trkpt lat="44.5591" lon="4.24576">
        <ele>451</ele>
        <time>2018-06-03T07:49:29.000Z</time>
      </trkpt>
      <trkpt lat="44.55912" lon="4.24579">
        <ele>450</ele>
        <time>2018-06-03T07:49:30.000Z</time>
      </trkpt>
      <trkpt lat="44.55913" lon="4.24582">
        <ele>450</ele>
        <time>2018-06-03T07:49:31.000Z</time>
      </trkpt>
      <trkpt lat="44.55914" lon="4.24585">
        <ele>452</ele>
        <time>2018-06-03T07:49:32.000Z</time>
      </trkpt>
      <trkpt lat="44.55915" lon="4.24587">
        <ele>453</ele>
        <time>2018-06-03T07:49:33.000Z</time>
      </trkpt>
      <trkpt lat="44.55917" lon="4.2459">
        <ele>449</ele>
        <time>2018-06-03T07:49:34.000Z</time>
      </trkpt>
      <trkpt lat="44.55917" lon="4.24593">
        <ele>448</ele>
        <time>2018-06-03T07:49:35.000Z</time>
      </trkpt>
      <trkpt lat="44.55918" lon="4.24595">
        <ele>448</ele>
        <time>2018-06-03T07:49:36.000Z</time>
      </trkpt>
      <trkpt lat="44.55919" lon="4.24598">
        <ele>448</ele>
        <time>2018-06-03T07:49:37.000Z</time>
      </trkpt>
      <trkpt lat="44.5592" lon="4.24601">
        <ele>447</ele>
        <time>2018-06-03T07:49:38.000Z</time>
      </trkpt>
      <trkpt lat="44.55921" lon="4.24603">
        <ele>447</ele>
        <time>2018-06-03T07:49:39.000Z</time>
      </trkpt>
      <trkpt lat="44.55923" lon="4.24606">
        <ele>447</ele>
        <time>2018-06-03T07:49:40.000Z</time>
      </trkpt>
      <trkpt lat="44.55925" lon="4.2461">
        <ele>447</ele>
        <time>2018-06-03T07:49:41.000Z</time>
      </trkpt>
      <trkpt lat="44.55926" lon="4.24613">
        <ele>447</ele>
        <time>2018-06-03T07:49:42.000Z</time>
      </trkpt>
      <trkpt lat="44.55927" lon="4.24615">
        <ele>447</ele>
        <time>2018-06-03T07:49:43.000Z</time>
      </trkpt>
      <trkpt lat="44.55929" lon="4.24618">
        <ele>447</ele>
        <time>2018-06-03T07:49:44.000Z</time>
      </trkpt>
      <trkpt lat="44.5593" lon="4.24621">
        <ele>447</ele>
        <time>2018-06-03T07:49:45.000Z</time>
      </trkpt>
      <trkpt lat="44.55931" lon="4.24624">
        <ele>447</ele>
        <time>2018-06-03T07:49:46.000Z</time>
      </trkpt>
      <trkpt lat="44.55932" lon="4.24628">
        <ele>447</ele>
        <time>2018-06-03T07:49:47.000Z</time>
      </trkpt>
      <trkpt lat="44.55933" lon="4.24632">
        <ele>447</ele>
        <time>2018-06-03T07:49:48.000Z</time>
      </trkpt>
      <trkpt lat="44.55934" lon="4.24635">
        <ele>448</ele>
        <time>2018-06-03T07:49:49.000Z</time>
      </trkpt>
      <trkpt lat="44.55934" lon="4.24639">
        <ele>448</ele>
        <time>2018-06-03T07:49:50.000Z</time>
      </trkpt>
      <trkpt lat="44.55935" lon="4.24642">
        <ele>449</ele>
        <time>2018-06-03T07:49:51.000Z</time>
      </trkpt>
      <trkpt lat="44.55935" lon="4.24646">
        <ele>449</ele>
        <time>2018-06-03T07:49:52.000Z</time>
      </trkpt>
      <trkpt lat="44.55936" lon="4.2465">
        <ele>450</ele>
        <time>2018-06-03T07:49:53.000Z</time>
      </trkpt>
      <trkpt lat="44.55937" lon="4.24655">
        <ele>450</ele>
        <time>2018-06-03T07:49:54.000Z</time>
      </trkpt>
      <trkpt lat="44.55938" lon="4.2466">
        <ele>450</ele>
        <time>2018-06-03T07:49:55.000Z</time>
      </trkpt>
      <trkpt lat="44.55939" lon="4.24665">
        <ele>451</ele>
        <time>2018-06-03T07:49:56.000Z</time>
      </trkpt>
      <trkpt lat="44.55939" lon="4.24671">
        <ele>455</ele>
        <time>2018-06-03T07:49:57.000Z</time>
      </trkpt>
      <trkpt lat="44.55939" lon="4.24677">
        <ele>455</ele>
        <time>2018-06-03T07:49:58.000Z</time>
      </trkpt>
      <trkpt lat="44.55938" lon="4.24684">
        <ele>455</ele>
        <time>2018-06-03T07:49:59.000Z</time>
      </trkpt>
      <trkpt lat="44.55936" lon="4.24691">
        <ele>455</ele>
        <time>2018-06-03T07:50:00.000Z</time>
      </trkpt>
      <trkpt lat="44.55934" lon="4.24697">
        <ele>456</ele>
        <time>2018-06-03T07:50:01.000Z</time>
      </trkpt>
      <trkpt lat="44.55933" lon="4.24704">
        <ele>456</ele>
        <time>2018-06-03T07:50:02.000Z</time>
      </trkpt>
      <trkpt lat="44.55933" lon="4.2471">
        <ele>456</ele>
        <time>2018-06-03T07:50:03.000Z</time>
      </trkpt>
      <trkpt lat="44.55935" lon="4.24715">
        <ele>456</ele>
        <time>2018-06-03T07:50:04.000Z</time>
      </trkpt>
      <trkpt lat="44.55938" lon="4.24718">
        <ele>456</ele>
        <time>2018-06-03T07:50:05.000Z</time>
      </trkpt>
      <trkpt lat="44.55941" lon="4.24721">
        <ele>456</ele>
        <time>2018-06-03T07:50:06.000Z</time>
      </trkpt>
      <trkpt lat="44.55944" lon="4.24722">
        <ele>455</ele>
        <time>2018-06-03T07:50:07.000Z</time>
      </trkpt>
      <trkpt lat="44.55948" lon="4.24723">
        <ele>455</ele>
        <time>2018-06-03T07:50:08.000Z</time>
      </trkpt>
      <trkpt lat="44.55952" lon="4.24724">
        <ele>454</ele>
        <time>2018-06-03T07:50:09.000Z</time>
      </trkpt>
      <trkpt lat="44.55956" lon="4.24726">
        <ele>454</ele>
        <time>2018-06-03T07:50:10.000Z</time>
      </trkpt>
      <trkpt lat="44.5596" lon="4.24727">
        <ele>453</ele>
        <time>2018-06-03T07:50:11.000Z</time>
      </trkpt>
      <trkpt lat="44.55963" lon="4.24729">
        <ele>453</ele>
        <time>2018-06-03T07:50:12.000Z</time>
      </trkpt>
      <trkpt lat="44.55967" lon="4.24733">
        <ele>452</ele>
        <time>2018-06-03T07:50:13.000Z</time>
      </trkpt>
      <trkpt lat="44.55969" lon="4.24738">
        <ele>452</ele>
        <time>2018-06-03T07:50:14.000Z</time>
      </trkpt>
      <trkpt lat="44.55972" lon="4.24742">
        <ele>452</ele>
        <time>2018-06-03T07:50:15.000Z</time>
      </trkpt>
      <trkpt lat="44.55975" lon="4.24747">
        <ele>451</ele>
        <time>2018-06-03T07:50:16.000Z</time>
      </trkpt>
      <trkpt lat="44.55977" lon="4.24752">
        <ele>453</ele>
        <time>2018-06-03T07:50:17.000Z</time>
      </trkpt>
      <trkpt lat="44.5598" lon="4.24756">
        <ele>453</ele>
        <time>2018-06-03T07:50:18.000Z</time>
      </trkpt>
      <trkpt lat="44.55983" lon="4.2476">
        <ele>453</ele>
        <time>2018-06-03T07:50:19.000Z</time>
      </trkpt>
      <trkpt lat="44.55985" lon="4.24764">
        <ele>453</ele>
        <time>2018-06-03T07:50:20.000Z</time>
      </trkpt>
      <trkpt lat="44.55988" lon="4.24768">
        <ele>453</ele>
        <time>2018-06-03T07:50:21.000Z</time>
      </trkpt>
      <trkpt lat="44.55991" lon="4.24772">
        <ele>453</ele>
        <time>2018-06-03T07:50:22.000Z</time>
      </trkpt>
      <trkpt lat="44.55994" lon="4.24775">
        <ele>453</ele>
        <time>2018-06-03T07:50:23.000Z</time>
      </trkpt>
      <trkpt lat="44.55998" lon="4.24777">
        <ele>453</ele>
        <time>2018-06-03T07:50:24.000Z</time>
      </trkpt>
      <trkpt lat="44.56001" lon="4.24779">
        <ele>448</ele>
        <time>2018-06-03T07:50:25.000Z</time>
      </trkpt>
      <trkpt lat="44.56004" lon="4.24783">
        <ele>448</ele>
        <time>2018-06-03T07:50:26.000Z</time>
      </trkpt>
      <trkpt lat="44.56007" lon="4.24786">
        <ele>448</ele>
        <time>2018-06-03T07:50:27.000Z</time>
      </trkpt>
      <trkpt lat="44.56011" lon="4.2479">
        <ele>448</ele>
        <time>2018-06-03T07:50:28.000Z</time>
      </trkpt>
      <trkpt lat="44.56015" lon="4.24793">
        <ele>448</ele>
        <time>2018-06-03T07:50:29.000Z</time>
      </trkpt>
      <trkpt lat="44.56019" lon="4.24796">
        <ele>448</ele>
        <time>2018-06-03T07:50:30.000Z</time>
      </trkpt>
      <trkpt lat="44.56023" lon="4.24798">
        <ele>448</ele>
        <time>2018-06-03T07:50:31.000Z</time>
      </trkpt>
      <trkpt lat="44.56028" lon="4.248">
        <ele>448</ele>
        <time>2018-06-03T07:50:32.000Z</time>
      </trkpt>
      <trkpt lat="44.56033" lon="4.24802">
        <ele>448</ele>
        <time>2018-06-03T07:50:33.000Z</time>
      </trkpt>
      <trkpt lat="44.56039" lon="4.24803">
        <ele>448</ele>
        <time>2018-06-03T07:50:34.000Z</time>
      </trkpt>
      <trkpt lat="44.56044" lon="4.24803">
        <ele>448</ele>
        <time>2018-06-03T07:50:35.000Z</time>
      </trkpt>
      <trkpt lat="44.5605" lon="4.24803">
        <ele>448</ele>
        <time>2018-06-03T07:50:36.000Z</time>
      </trkpt>
      <trkpt lat="44.56056" lon="4.24803">
        <ele>448</ele>
        <time>2018-06-03T07:50:37.000Z</time>
      </trkpt>
      <trkpt lat="44.56062" lon="4.24802">
        <ele>448</ele>
        <time>2018-06-03T07:50:38.000Z</time>
      </trkpt>
      <trkpt lat="44.56069" lon="4.24802">
        <ele>448</ele>
        <time>2018-06-03T07:50:39.000Z</time>
      </trkpt>
      <trkpt lat="44.56075" lon="4.24801">
        <ele>448</ele>
        <time>2018-06-03T07:50:40.000Z</time>
      </trkpt>
      <trkpt lat="44.56081" lon="4.24801">
        <ele>448</ele>
        <time>2018-06-03T07:50:41.000Z</time>
      </trkpt>
      <trkpt lat="44.56086" lon="4.248">
        <ele>447</ele>
        <time>2018-06-03T07:50:42.000Z</time>
      </trkpt>
      <trkpt lat="44.56092" lon="4.24798">
        <ele>447</ele>
        <time>2018-06-03T07:50:43.000Z</time>
      </trkpt>
      <trkpt lat="44.56099" lon="4.24797">
        <ele>447</ele>
        <time>2018-06-03T07:50:44.000Z</time>
      </trkpt>
      <trkpt lat="44.56105" lon="4.24795">
        <ele>447</ele>
        <time>2018-06-03T07:50:45.000Z</time>
      </trkpt>
      <trkpt lat="44.56111" lon="4.24795">
        <ele>447</ele>
        <time>2018-06-03T07:50:46.000Z</time>
      </trkpt>
      <trkpt lat="44.56118" lon="4.24795">
        <ele>446</ele>
        <time>2018-06-03T07:50:47.000Z</time>
      </trkpt>
      <trkpt lat="44.56124" lon="4.24796">
        <ele>446</ele>
        <time>2018-06-03T07:50:48.000Z</time>
      </trkpt>
      <trkpt lat="44.5613" lon="4.24796">
        <ele>446</ele>
        <time>2018-06-03T07:50:49.000Z</time>
      </trkpt>
      <trkpt lat="44.56136" lon="4.24795">
        <ele>446</ele>
        <time>2018-06-03T07:50:50.000Z</time>
      </trkpt>
      <trkpt lat="44.56142" lon="4.24793">
        <ele>446</ele>
        <time>2018-06-03T07:50:51.000Z</time>
      </trkpt>
      <trkpt lat="44.56148" lon="4.24791">
        <ele>446</ele>
        <time>2018-06-03T07:50:52.000Z</time>
      </trkpt>
      <trkpt lat="44.56155" lon="4.24789">
        <ele>446</ele>
        <time>2018-06-03T07:50:53.000Z</time>
      </trkpt>
      <trkpt lat="44.56163" lon="4.24787">
        <ele>446</ele>
        <time>2018-06-03T07:50:54.000Z</time>
      </trkpt>
      <trkpt lat="44.5617" lon="4.24785">
        <ele>446</ele>
        <time>2018-06-03T07:50:55.000Z</time>
      </trkpt>
      <trkpt lat="44.56178" lon="4.24783">
        <ele>446</ele>
        <time>2018-06-03T07:50:56.000Z</time>
      </trkpt>
      <trkpt lat="44.56185" lon="4.24782">
        <ele>446</ele>
        <time>2018-06-03T07:50:57.000Z</time>
      </trkpt>
      <trkpt lat="44.56192" lon="4.24781">
        <ele>446</ele>
        <time>2018-06-03T07:50:58.000Z</time>
      </trkpt>
      <trkpt lat="44.56198" lon="4.24782">
        <ele>446</ele>
        <time>2018-06-03T07:50:59.000Z</time>
      </trkpt>
      <trkpt lat="44.56203" lon="4.24786">
        <ele>446</ele>
        <time>2018-06-03T07:51:00.000Z</time>
      </trkpt>
      <trkpt lat="44.56207" lon="4.24791">
        <ele>446</ele>
        <time>2018-06-03T07:51:01.000Z</time>
      </trkpt>
      <trkpt lat="44.56209" lon="4.24798">
        <ele>445</ele>
        <time>2018-06-03T07:51:02.000Z</time>
      </trkpt>
      <trkpt lat="44.56211" lon="4.24804">
        <ele>445</ele>
        <time>2018-06-03T07:51:03.000Z</time>
      </trkpt>
      <trkpt lat="44.56212" lon="4.2481">
        <ele>445</ele>
        <time>2018-06-03T07:51:04.000Z</time>
      </trkpt>
      <trkpt lat="44.56214" lon="4.24815">
        <ele>445</ele>
        <time>2018-06-03T07:51:05.000Z</time>
      </trkpt>
      <trkpt lat="44.56215" lon="4.24821">
        <ele>445</ele>
        <time>2018-06-03T07:51:06.000Z</time>
      </trkpt>
      <trkpt lat="44.56217" lon="4.24827">
        <ele>445</ele>
        <time>2018-06-03T07:51:07.000Z</time>
      </trkpt>
      <trkpt lat="44.56218" lon="4.24832">
        <ele>445</ele>
        <time>2018-06-03T07:51:08.000Z</time>
      </trkpt>
      <trkpt lat="44.56221" lon="4.24836">
        <ele>440</ele>
        <time>2018-06-03T07:51:09.000Z</time>
      </trkpt>
      <trkpt lat="44.56223" lon="4.24839">
        <ele>440</ele>
        <time>2018-06-03T07:51:10.000Z</time>
      </trkpt>
      <trkpt lat="44.56226" lon="4.24842">
        <ele>441</ele>
        <time>2018-06-03T07:51:11.000Z</time>
      </trkpt>
      <trkpt lat="44.56229" lon="4.24844">
        <ele>441</ele>
        <time>2018-06-03T07:51:12.000Z</time>
      </trkpt>
      <trkpt lat="44.56232" lon="4.24845">
        <ele>441</ele>
        <time>2018-06-03T07:51:13.000Z</time>
      </trkpt>
      <trkpt lat="44.56235" lon="4.24846">
        <ele>441</ele>
        <time>2018-06-03T07:51:14.000Z</time>
      </trkpt>
      <trkpt lat="44.56238" lon="4.24847">
        <ele>442</ele>
        <time>2018-06-03T07:51:15.000Z</time>
      </trkpt>
      <trkpt lat="44.5624" lon="4.24847">
        <ele>442</ele>
        <time>2018-06-03T07:51:16.000Z</time>
      </trkpt>
      <trkpt lat="44.56242" lon="4.24847">
        <ele>442</ele>
        <time>2018-06-03T07:51:17.000Z</time>
      </trkpt>
      <trkpt lat="44.56242" lon="4.24846">
        <ele>443</ele>
        <time>2018-06-03T07:51:18.000Z</time>
      </trkpt>
      <trkpt lat="44.56241" lon="4.24844">
        <ele>443</ele>
        <time>2018-06-03T07:51:19.000Z</time>
      </trkpt>
      <trkpt lat="44.5624" lon="4.24845">
        <ele>442</ele>
        <time>2018-06-03T07:51:20.000Z</time>
      </trkpt>
      <trkpt lat="44.56237" lon="4.24845">
        <ele>442</ele>
        <time>2018-06-03T07:51:21.000Z</time>
      </trkpt>
      <trkpt lat="44.56234" lon="4.24845">
        <ele>441</ele>
        <time>2018-06-03T07:51:22.000Z</time>
      </trkpt>
      <trkpt lat="44.56231" lon="4.24845">
        <ele>441</ele>
        <time>2018-06-03T07:51:23.000Z</time>
      </trkpt>
      <trkpt lat="44.56227" lon="4.24844">
        <ele>441</ele>
        <time>2018-06-03T07:51:24.000Z</time>
      </trkpt>
      <trkpt lat="44.56224" lon="4.24841">
        <ele>440</ele>
        <time>2018-06-03T07:51:25.000Z</time>
      </trkpt>
      <trkpt lat="44.56221" lon="4.24837">
        <ele>440</ele>
        <time>2018-06-03T07:51:26.000Z</time>
      </trkpt>
      <trkpt lat="44.56219" lon="4.24832">
        <ele>445</ele>
        <time>2018-06-03T07:51:27.000Z</time>
      </trkpt>
      <trkpt lat="44.56217" lon="4.24826">
        <ele>445</ele>
        <time>2018-06-03T07:51:28.000Z</time>
      </trkpt>
      <trkpt lat="44.56215" lon="4.2482">
        <ele>445</ele>
        <time>2018-06-03T07:51:29.000Z</time>
      </trkpt>
      <trkpt lat="44.56214" lon="4.24814">
        <ele>445</ele>
        <time>2018-06-03T07:51:30.000Z</time>
      </trkpt>
      <trkpt lat="44.56212" lon="4.24807">
        <ele>445</ele>
        <time>2018-06-03T07:51:31.000Z</time>
      </trkpt>
      <trkpt lat="44.5621" lon="4.24801">
        <ele>445</ele>
        <time>2018-06-03T07:51:32.000Z</time>
      </trkpt>
      <trkpt lat="44.56208" lon="4.24794">
        <ele>446</ele>
        <time>2018-06-03T07:51:33.000Z</time>
      </trkpt>
      <trkpt lat="44.56205" lon="4.24789">
        <ele>446</ele>
        <time>2018-06-03T07:51:34.000Z</time>
      </trkpt>
      <trkpt lat="44.56203" lon="4.24784">
        <ele>446</ele>
        <time>2018-06-03T07:51:35.000Z</time>
      </trkpt>
      <trkpt lat="44.56201" lon="4.24778">
        <ele>446</ele>
        <time>2018-06-03T07:51:36.000Z</time>
      </trkpt>
      <trkpt lat="44.562" lon="4.24773">
        <ele>447</ele>
        <time>2018-06-03T07:51:37.000Z</time>
      </trkpt>
      <trkpt lat="44.562" lon="4.24768">
        <ele>447</ele>
        <time>2018-06-03T07:51:38.000Z</time>
      </trkpt>
      <trkpt lat="44.56199" lon="4.24763">
        <ele>447</ele>
        <time>2018-06-03T07:51:39.000Z</time>
      </trkpt>
      <trkpt lat="44.56199" lon="4.24759">
        <ele>447</ele>
        <time>2018-06-03T07:51:40.000Z</time>
      </trkpt>
      <trkpt lat="44.56199" lon="4.24753">
        <ele>447</ele>
        <time>2018-06-03T07:51:41.000Z</time>
      </trkpt>
      <trkpt lat="44.562" lon="4.24747">
        <ele>450</ele>
        <time>2018-06-03T07:51:42.000Z</time>
      </trkpt>
      <trkpt lat="44.56201" lon="4.24741">
        <ele>450</ele>
        <time>2018-06-03T07:51:43.000Z</time>
      </trkpt>
      <trkpt lat="44.56202" lon="4.24735">
        <ele>450</ele>
        <time>2018-06-03T07:51:44.000Z</time>
      </trkpt>
      <trkpt lat="44.56204" lon="4.24729">
        <ele>450</ele>
        <time>2018-06-03T07:51:45.000Z</time>
      </trkpt>
      <trkpt lat="44.56206" lon="4.24722">
        <ele>450</ele>
        <time>2018-06-03T07:51:46.000Z</time>
      </trkpt>
      <trkpt lat="44.56206" lon="4.24715">
        <ele>450</ele>
        <time>2018-06-03T07:51:47.000Z</time>
      </trkpt>
      <trkpt lat="44.56208" lon="4.24708">
        <ele>450</ele>
        <time>2018-06-03T07:51:48.000Z</time>
      </trkpt>
      <trkpt lat="44.56209" lon="4.24702">
        <ele>449</ele>
        <time>2018-06-03T07:51:49.000Z</time>
      </trkpt>
      <trkpt lat="44.56211" lon="4.24695">
        <ele>449</ele>
        <time>2018-06-03T07:51:50.000Z</time>
      </trkpt>
      <trkpt lat="44.56214" lon="4.24686">
        <ele>449</ele>
        <time>2018-06-03T07:51:51.000Z</time>
      </trkpt>
      <trkpt lat="44.56216" lon="4.24677">
        <ele>449</ele>
        <time>2018-06-03T07:51:52.000Z</time>
      </trkpt>
      <trkpt lat="44.56218" lon="4.24668">
        <ele>448</ele>
        <time>2018-06-03T07:51:53.000Z</time>
      </trkpt>
      <trkpt lat="44.56219" lon="4.24659">
        <ele>447</ele>
        <time>2018-06-03T07:51:54.000Z</time>
      </trkpt>
      <trkpt lat="44.5622" lon="4.24649">
        <ele>446</ele>
        <time>2018-06-03T07:51:55.000Z</time>
      </trkpt>
      <trkpt lat="44.56221" lon="4.24641">
        <ele>446</ele>
        <time>2018-06-03T07:51:56.000Z</time>
      </trkpt>
      <trkpt lat="44.56223" lon="4.24633">
        <ele>446</ele>
        <time>2018-06-03T07:51:57.000Z</time>
      </trkpt>
      <trkpt lat="44.56225" lon="4.24623">
        <ele>445</ele>
        <time>2018-06-03T07:51:58.000Z</time>
      </trkpt>
      <trkpt lat="44.56226" lon="4.24612">
        <ele>445</ele>
        <time>2018-06-03T07:51:59.000Z</time>
      </trkpt>
      <trkpt lat="44.56227" lon="4.246">
        <ele>444</ele>
        <time>2018-06-03T07:52:00.000Z</time>
      </trkpt>
      <trkpt lat="44.56226" lon="4.24588">
        <ele>443</ele>
        <time>2018-06-03T07:52:01.000Z</time>
      </trkpt>
      <trkpt lat="44.56225" lon="4.24577">
        <ele>440</ele>
        <time>2018-06-03T07:52:02.000Z</time>
      </trkpt>
      <trkpt lat="44.56226" lon="4.24567">
        <ele>440</ele>
        <time>2018-06-03T07:52:03.000Z</time>
      </trkpt>
      <trkpt lat="44.56226" lon="4.24557">
        <ele>440</ele>
        <time>2018-06-03T07:52:04.000Z</time>
      </trkpt>
      <trkpt lat="44.56226" lon="4.24548">
        <ele>439</ele>
        <time>2018-06-03T07:52:05.000Z</time>
      </trkpt>
      <trkpt lat="44.56226" lon="4.24539">
        <ele>439</ele>
        <time>2018-06-03T07:52:06.000Z</time>
      </trkpt>
      <trkpt lat="44.56225" lon="4.24531">
        <ele>438</ele>
        <time>2018-06-03T07:52:07.000Z</time>
      </trkpt>
      <trkpt lat="44.56225" lon="4.24523">
        <ele>438</ele>
        <time>2018-06-03T07:52:08.000Z</time>
      </trkpt>
      <trkpt lat="44.56225" lon="4.24514">
        <ele>437</ele>
        <time>2018-06-03T07:52:09.000Z</time>
      </trkpt>
      <trkpt lat="44.56226" lon="4.24504">
        <ele>436</ele>
        <time>2018-06-03T07:52:10.000Z</time>
      </trkpt>
      <trkpt lat="44.56226" lon="4.24496">
        <ele>432</ele>
        <time>2018-06-03T07:52:11.000Z</time>
      </trkpt>
      <trkpt lat="44.56225" lon="4.24488">
        <ele>433</ele>
        <time>2018-06-03T07:52:12.000Z</time>
      </trkpt>
      <trkpt lat="44.56224" lon="4.2448">
        <ele>433</ele>
        <time>2018-06-03T07:52:13.000Z</time>
      </trkpt>
      <trkpt lat="44.56225" lon="4.24471">
        <ele>433</ele>
        <time>2018-06-03T07:52:14.000Z</time>
      </trkpt>
      <trkpt lat="44.56226" lon="4.24462">
        <ele>433</ele>
        <time>2018-06-03T07:52:15.000Z</time>
      </trkpt>
      <trkpt lat="44.56227" lon="4.24453">
        <ele>432</ele>
        <time>2018-06-03T07:52:16.000Z</time>
      </trkpt>
      <trkpt lat="44.56228" lon="4.24443">
        <ele>431</ele>
        <time>2018-06-03T07:52:17.000Z</time>
      </trkpt>
      <trkpt lat="44.56228" lon="4.24433">
        <ele>430</ele>
        <time>2018-06-03T07:52:18.000Z</time>
      </trkpt>
      <trkpt lat="44.56228" lon="4.24423">
        <ele>429</ele>
        <time>2018-06-03T07:52:19.000Z</time>
      </trkpt>
      <trkpt lat="44.56228" lon="4.24413">
        <ele>427</ele>
        <time>2018-06-03T07:52:20.000Z</time>
      </trkpt>
      <trkpt lat="44.56226" lon="4.24404">
        <ele>428</ele>
        <time>2018-06-03T07:52:21.000Z</time>
      </trkpt>
      <trkpt lat="44.56223" lon="4.24396">
        <ele>429</ele>
        <time>2018-06-03T07:52:22.000Z</time>
      </trkpt>
      <trkpt lat="44.56222" lon="4.24388">
        <ele>430</ele>
        <time>2018-06-03T07:52:23.000Z</time>
      </trkpt>
      <trkpt lat="44.56222" lon="4.24381">
        <ele>430</ele>
        <time>2018-06-03T07:52:24.000Z</time>
      </trkpt>
      <trkpt lat="44.56223" lon="4.24376">
        <ele>429</ele>
        <time>2018-06-03T07:52:25.000Z</time>
      </trkpt>
      <trkpt lat="44.56227" lon="4.24371">
        <ele>429</ele>
        <time>2018-06-03T07:52:26.000Z</time>
      </trkpt>
      <trkpt lat="44.5623" lon="4.24366">
        <ele>428</ele>
        <time>2018-06-03T07:52:27.000Z</time>
      </trkpt>
      <trkpt lat="44.56234" lon="4.24358">
        <ele>427</ele>
        <time>2018-06-03T07:52:28.000Z</time>
      </trkpt>
      <trkpt lat="44.56236" lon="4.2435">
        <ele>426</ele>
        <time>2018-06-03T07:52:29.000Z</time>
      </trkpt>
      <trkpt lat="44.5624" lon="4.24341">
        <ele>424</ele>
        <time>2018-06-03T07:52:30.000Z</time>
      </trkpt>
      <trkpt lat="44.56243" lon="4.24332">
        <ele>422</ele>
        <time>2018-06-03T07:52:31.000Z</time>
      </trkpt>
      <trkpt lat="44.56247" lon="4.24325">
        <ele>423</ele>
        <time>2018-06-03T07:52:32.000Z</time>
      </trkpt>
      <trkpt lat="44.56252" lon="4.24318">
        <ele>417</ele>
        <time>2018-06-03T07:52:33.000Z</time>
      </trkpt>
      <trkpt lat="44.56257" lon="4.24312">
        <ele>417</ele>
        <time>2018-06-03T07:52:34.000Z</time>
      </trkpt>
      <trkpt lat="44.56261" lon="4.24307">
        <ele>417</ele>
        <time>2018-06-03T07:52:35.000Z</time>
      </trkpt>
      <trkpt lat="44.56266" lon="4.24302">
        <ele>417</ele>
        <time>2018-06-03T07:52:36.000Z</time>
      </trkpt>
      <trkpt lat="44.5627" lon="4.24297">
        <ele>416</ele>
        <time>2018-06-03T07:52:37.000Z</time>
      </trkpt>
      <trkpt lat="44.56274" lon="4.24292">
        <ele>416</ele>
        <time>2018-06-03T07:52:38.000Z</time>
      </trkpt>
      <trkpt lat="44.56279" lon="4.24287">
        <ele>416</ele>
        <time>2018-06-03T07:52:39.000Z</time>
      </trkpt>
      <trkpt lat="44.56283" lon="4.24281">
        <ele>416</ele>
        <time>2018-06-03T07:52:40.000Z</time>
      </trkpt>
      <trkpt lat="44.56287" lon="4.24275">
        <ele>416</ele>
        <time>2018-06-03T07:52:41.000Z</time>
      </trkpt>
      <trkpt lat="44.56291" lon="4.24269">
        <ele>415</ele>
        <time>2018-06-03T07:52:42.000Z</time>
      </trkpt>
      <trkpt lat="44.56295" lon="4.24264">
        <ele>415</ele>
        <time>2018-06-03T07:52:43.000Z</time>
      </trkpt>
      <trkpt lat="44.56297" lon="4.24258">
        <ele>414</ele>
        <time>2018-06-03T07:52:44.000Z</time>
      </trkpt>
      <trkpt lat="44.56298" lon="4.24252">
        <ele>414</ele>
        <time>2018-06-03T07:52:45.000Z</time>
      </trkpt>
      <trkpt lat="44.56301" lon="4.24246">
        <ele>411</ele>
        <time>2018-06-03T07:52:46.000Z</time>
      </trkpt>
      <trkpt lat="44.56304" lon="4.24239">
        <ele>411</ele>
        <time>2018-06-03T07:52:47.000Z</time>
      </trkpt>
      <trkpt lat="44.56307" lon="4.24232">
        <ele>411</ele>
        <time>2018-06-03T07:52:48.000Z</time>
      </trkpt>
      <trkpt lat="44.5631" lon="4.24223">
        <ele>410</ele>
        <time>2018-06-03T07:52:49.000Z</time>
      </trkpt>
      <trkpt lat="44.56313" lon="4.24215">
        <ele>410</ele>
        <time>2018-06-03T07:52:50.000Z</time>
      </trkpt>
      <trkpt lat="44.56316" lon="4.24206">
        <ele>409</ele>
        <time>2018-06-03T07:52:51.000Z</time>
      </trkpt>
      <trkpt lat="44.56318" lon="4.24198">
        <ele>409</ele>
        <time>2018-06-03T07:52:52.000Z</time>
      </trkpt>
      <trkpt lat="44.56319" lon="4.2419">
        <ele>408</ele>
        <time>2018-06-03T07:52:53.000Z</time>
      </trkpt>
      <trkpt lat="44.5632" lon="4.24183">
        <ele>407</ele>
        <time>2018-06-03T07:52:54.000Z</time>
      </trkpt>
      <trkpt lat="44.5632" lon="4.24176">
        <ele>406</ele>
        <time>2018-06-03T07:52:55.000Z</time>
      </trkpt>
      <trkpt lat="44.56319" lon="4.2417">
        <ele>405</ele>
        <time>2018-06-03T07:52:56.000Z</time>
      </trkpt>
      <trkpt lat="44.56318" lon="4.24164">
        <ele>401</ele>
        <time>2018-06-03T07:52:57.000Z</time>
      </trkpt>
      <trkpt lat="44.56316" lon="4.24158">
        <ele>401</ele>
        <time>2018-06-03T07:52:58.000Z</time>
      </trkpt>
      <trkpt lat="44.56315" lon="4.2415">
        <ele>401</ele>
        <time>2018-06-03T07:52:59.000Z</time>
      </trkpt>
      <trkpt lat="44.56314" lon="4.24143">
        <ele>401</ele>
        <time>2018-06-03T07:53:00.000Z</time>
      </trkpt>
      <trkpt lat="44.56313" lon="4.24134">
        <ele>400</ele>
        <time>2018-06-03T07:53:01.000Z</time>
      </trkpt>
      <trkpt lat="44.56311" lon="4.24127">
        <ele>400</ele>
        <time>2018-06-03T07:53:02.000Z</time>
      </trkpt>
      <trkpt lat="44.56309" lon="4.24121">
        <ele>399</ele>
        <time>2018-06-03T07:53:03.000Z</time>
      </trkpt>
      <trkpt lat="44.56305" lon="4.24116">
        <ele>399</ele>
        <time>2018-06-03T07:53:04.000Z</time>
      </trkpt>
      <trkpt lat="44.56301" lon="4.24111">
        <ele>399</ele>
        <time>2018-06-03T07:53:05.000Z</time>
      </trkpt>
      <trkpt lat="44.56296" lon="4.24107">
        <ele>399</ele>
        <time>2018-06-03T07:53:06.000Z</time>
      </trkpt>
      <trkpt lat="44.56293" lon="4.24103">
        <ele>399</ele>
        <time>2018-06-03T07:53:07.000Z</time>
      </trkpt>
      <trkpt lat="44.56289" lon="4.24099">
        <ele>399</ele>
        <time>2018-06-03T07:53:08.000Z</time>
      </trkpt>
      <trkpt lat="44.56286" lon="4.24094">
        <ele>399</ele>
        <time>2018-06-03T07:53:09.000Z</time>
      </trkpt>
      <trkpt lat="44.56282" lon="4.2409">
        <ele>399</ele>
        <time>2018-06-03T07:53:10.000Z</time>
      </trkpt>
      <trkpt lat="44.5628" lon="4.24085">
        <ele>398</ele>
        <time>2018-06-03T07:53:11.000Z</time>
      </trkpt>
      <trkpt lat="44.56278" lon="4.2408">
        <ele>393</ele>
        <time>2018-06-03T07:53:12.000Z</time>
      </trkpt>
      <trkpt lat="44.56276" lon="4.24075">
        <ele>393</ele>
        <time>2018-06-03T07:53:13.000Z</time>
      </trkpt>
      <trkpt lat="44.56275" lon="4.2407">
        <ele>393</ele>
        <time>2018-06-03T07:53:14.000Z</time>
      </trkpt>
      <trkpt lat="44.56273" lon="4.24064">
        <ele>393</ele>
        <time>2018-06-03T07:53:15.000Z</time>
      </trkpt>
      <trkpt lat="44.56273" lon="4.24057">
        <ele>392</ele>
        <time>2018-06-03T07:53:16.000Z</time>
      </trkpt>
      <trkpt lat="44.56273" lon="4.24052">
        <ele>392</ele>
        <time>2018-06-03T07:53:17.000Z</time>
      </trkpt>
      <trkpt lat="44.56273" lon="4.24048">
        <ele>392</ele>
        <time>2018-06-03T07:53:18.000Z</time>
      </trkpt>
      <trkpt lat="44.56274" lon="4.24044">
        <ele>392</ele>
        <time>2018-06-03T07:53:19.000Z</time>
      </trkpt>
      <trkpt lat="44.56274" lon="4.2404">
        <ele>392</ele>
        <time>2018-06-03T07:53:20.000Z</time>
      </trkpt>
      <trkpt lat="44.56274" lon="4.24036">
        <ele>392</ele>
        <time>2018-06-03T07:53:21.000Z</time>
      </trkpt>
      <trkpt lat="44.56275" lon="4.24033">
        <ele>391</ele>
        <time>2018-06-03T07:53:22.000Z</time>
      </trkpt>
      <trkpt lat="44.56274" lon="4.2403">
        <ele>391</ele>
        <time>2018-06-03T07:53:23.000Z</time>
      </trkpt>
      <trkpt lat="44.56274" lon="4.24027">
        <ele>391</ele>
        <time>2018-06-03T07:53:24.000Z</time>
      </trkpt>
      <trkpt lat="44.56274" lon="4.24024">
        <ele>391</ele>
        <time>2018-06-03T07:53:25.000Z</time>
      </trkpt>
      <trkpt lat="44.56274" lon="4.24021">
        <ele>391</ele>
        <time>2018-06-03T07:53:26.000Z</time>
      </trkpt>
      <trkpt lat="44.56274" lon="4.24017">
        <ele>391</ele>
        <time>2018-06-03T07:53:27.000Z</time>
      </trkpt>
      <trkpt lat="44.56274" lon="4.24014">
        <ele>391</ele>
        <time>2018-06-03T07:53:28.000Z</time>
      </trkpt>
      <trkpt lat="44.56274" lon="4.24011">
        <ele>391</ele>
        <time>2018-06-03T07:53:29.000Z</time>
      </trkpt>
      <trkpt lat="44.56273" lon="4.24008">
        <ele>391</ele>
        <time>2018-06-03T07:53:30.000Z</time>
      </trkpt>
      <trkpt lat="44.56273" lon="4.24005">
        <ele>390</ele>
        <time>2018-06-03T07:53:31.000Z</time>
      </trkpt>
      <trkpt lat="44.56272" lon="4.24002">
        <ele>390</ele>
        <time>2018-06-03T07:53:32.000Z</time>
      </trkpt>
      <trkpt lat="44.56272" lon="4.23999">
        <ele>391</ele>
        <time>2018-06-03T07:53:33.000Z</time>
      </trkpt>
      <trkpt lat="44.56271" lon="4.23996">
        <ele>391</ele>
        <time>2018-06-03T07:53:34.000Z</time>
      </trkpt>
      <trkpt lat="44.56271" lon="4.23993">
        <ele>391</ele>
        <time>2018-06-03T07:53:35.000Z</time>
      </trkpt>
      <trkpt lat="44.5627" lon="4.2399">
        <ele>391</ele>
        <time>2018-06-03T07:53:36.000Z</time>
      </trkpt>
      <trkpt lat="44.5627" lon="4.23987">
        <ele>391</ele>
        <time>2018-06-03T07:53:37.000Z</time>
      </trkpt>
      <trkpt lat="44.56269" lon="4.23985">
        <ele>391</ele>
        <time>2018-06-03T07:53:38.000Z</time>
      </trkpt>
      <trkpt lat="44.56269" lon="4.23982">
        <ele>391</ele>
        <time>2018-06-03T07:53:39.000Z</time>
      </trkpt>
      <trkpt lat="44.56268" lon="4.2398">
        <ele>391</ele>
        <time>2018-06-03T07:53:40.000Z</time>
      </trkpt>
      <trkpt lat="44.56268" lon="4.23977">
        <ele>391</ele>
        <time>2018-06-03T07:53:41.000Z</time>
      </trkpt>
      <trkpt lat="44.56267" lon="4.23974">
        <ele>392</ele>
        <time>2018-06-03T07:53:42.000Z</time>
      </trkpt>
      <trkpt lat="44.56266" lon="4.23971">
        <ele>392</ele>
        <time>2018-06-03T07:53:43.000Z</time>
      </trkpt>
      <trkpt lat="44.56266" lon="4.23968">
        <ele>392</ele>
        <time>2018-06-03T07:53:44.000Z</time>
      </trkpt>
      <trkpt lat="44.56265" lon="4.23965">
        <ele>392</ele>
        <time>2018-06-03T07:53:45.000Z</time>
      </trkpt>
      <trkpt lat="44.56265" lon="4.23962">
        <ele>392</ele>
        <time>2018-06-03T07:53:46.000Z</time>
      </trkpt>
      <trkpt lat="44.56264" lon="4.2396">
        <ele>392</ele>
        <time>2018-06-03T07:53:47.000Z</time>
      </trkpt>
      <trkpt lat="44.56263" lon="4.23957">
        <ele>392</ele>
        <time>2018-06-03T07:53:48.000Z</time>
      </trkpt>
      <trkpt lat="44.56263" lon="4.23953">
        <ele>392</ele>
        <time>2018-06-03T07:53:49.000Z</time>
      </trkpt>
      <trkpt lat="44.56262" lon="4.2395">
        <ele>392</ele>
        <time>2018-06-03T07:53:50.000Z</time>
      </trkpt>
      <trkpt lat="44.56262" lon="4.23947">
        <ele>392</ele>
        <time>2018-06-03T07:53:51.000Z</time>
      </trkpt>
      <trkpt lat="44.56262" lon="4.23943">
        <ele>392</ele>
        <time>2018-06-03T07:53:52.000Z</time>
      </trkpt>
      <trkpt lat="44.56262" lon="4.2394">
        <ele>392</ele>
        <time>2018-06-03T07:53:53.000Z</time>
      </trkpt>
      <trkpt lat="44.56261" lon="4.23937">
        <ele>392</ele>
        <time>2018-06-03T07:53:54.000Z</time>
      </trkpt>
      <trkpt lat="44.56261" lon="4.23934">
        <ele>392</ele>
        <time>2018-06-03T07:53:55.000Z</time>
      </trkpt>
      <trkpt lat="44.5626" lon="4.23931">
        <ele>392</ele>
        <time>2018-06-03T07:53:56.000Z</time>
      </trkpt>
      <trkpt lat="44.56259" lon="4.23928">
        <ele>392</ele>
        <time>2018-06-03T07:53:57.000Z</time>
      </trkpt>
      <trkpt lat="44.56259" lon="4.23925">
        <ele>392</ele>
        <time>2018-06-03T07:53:58.000Z</time>
      </trkpt>
      <trkpt lat="44.56258" lon="4.23923">
        <ele>392</ele>
        <time>2018-06-03T07:53:59.000Z</time>
      </trkpt>
      <trkpt lat="44.56257" lon="4.2392">
        <ele>392</ele>
        <time>2018-06-03T07:54:00.000Z</time>
      </trkpt>
      <trkpt lat="44.56257" lon="4.23917">
        <ele>392</ele>
        <time>2018-06-03T07:54:01.000Z</time>
      </trkpt>
      <trkpt lat="44.56256" lon="4.23914">
        <ele>393</ele>
        <time>2018-06-03T07:54:02.000Z</time>
      </trkpt>
      <trkpt lat="44.56255" lon="4.23912">
        <ele>393</ele>
        <time>2018-06-03T07:54:03.000Z</time>
      </trkpt>
      <trkpt lat="44.56255" lon="4.23909">
        <ele>393</ele>
        <time>2018-06-03T07:54:04.000Z</time>
      </trkpt>
      <trkpt lat="44.56254" lon="4.23907">
        <ele>393</ele>
        <time>2018-06-03T07:54:05.000Z</time>
      </trkpt>
      <trkpt lat="44.56253" lon="4.23905">
        <ele>394</ele>
        <time>2018-06-03T07:54:06.000Z</time>
      </trkpt>
      <trkpt lat="44.56253" lon="4.23903">
        <ele>394</ele>
        <time>2018-06-03T07:54:07.000Z</time>
      </trkpt>
      <trkpt lat="44.56252" lon="4.23901">
        <ele>394</ele>
        <time>2018-06-03T07:54:08.000Z</time>
      </trkpt>
      <trkpt lat="44.56251" lon="4.23899">
        <ele>394</ele>
        <time>2018-06-03T07:54:09.000Z</time>
      </trkpt>
      <trkpt lat="44.56251" lon="4.23897">
        <ele>395</ele>
        <time>2018-06-03T07:54:10.000Z</time>
      </trkpt>
      <trkpt lat="44.5625" lon="4.23895">
        <ele>392</ele>
        <time>2018-06-03T07:54:11.000Z</time>
      </trkpt>
      <trkpt lat="44.56249" lon="4.23894">
        <ele>390</ele>
        <time>2018-06-03T07:54:12.000Z</time>
      </trkpt>
      <trkpt lat="44.56249" lon="4.23892">
        <ele>390</ele>
        <time>2018-06-03T07:54:13.000Z</time>
      </trkpt>
      <trkpt lat="44.56249" lon="4.2389">
        <ele>390</ele>
        <time>2018-06-03T07:54:14.000Z</time>
      </trkpt>
      <trkpt lat="44.56248" lon="4.23888">
        <ele>390</ele>
        <time>2018-06-03T07:54:15.000Z</time>
      </trkpt>
      <trkpt lat="44.56247" lon="4.23887">
        <ele>390</ele>
        <time>2018-06-03T07:54:16.000Z</time>
      </trkpt>
      <trkpt lat="44.56247" lon="4.23885">
        <ele>390</ele>
        <time>2018-06-03T07:54:17.000Z</time>
      </trkpt>
      <trkpt lat="44.56246" lon="4.23883">
        <ele>391</ele>
        <time>2018-06-03T07:54:18.000Z</time>
      </trkpt>
      <trkpt lat="44.56246" lon="4.23881">
        <ele>391</ele>
        <time>2018-06-03T07:54:19.000Z</time>
      </trkpt>
      <trkpt lat="44.56245" lon="4.2388">
        <ele>391</ele>
        <time>2018-06-03T07:54:20.000Z</time>
      </trkpt>
      <trkpt lat="44.56245" lon="4.23878">
        <ele>391</ele>
        <time>2018-06-03T07:54:21.000Z</time>
      </trkpt>
      <trkpt lat="44.56244" lon="4.23876">
        <ele>391</ele>
        <time>2018-06-03T07:54:22.000Z</time>
      </trkpt>
      <trkpt lat="44.56243" lon="4.23874">
        <ele>391</ele>
        <time>2018-06-03T07:54:23.000Z</time>
      </trkpt>
      <trkpt lat="44.56243" lon="4.23872">
        <ele>391</ele>
        <time>2018-06-03T07:54:24.000Z</time>
      </trkpt>
      <trkpt lat="44.56242" lon="4.2387">
        <ele>391</ele>
        <time>2018-06-03T07:54:25.000Z</time>
      </trkpt>
      <trkpt lat="44.56242" lon="4.23868">
        <ele>391</ele>
        <time>2018-06-03T07:54:26.000Z</time>
      </trkpt>
      <trkpt lat="44.56242" lon="4.23867">
        <ele>391</ele>
        <time>2018-06-03T07:54:27.000Z</time>
      </trkpt>
      <trkpt lat="44.56241" lon="4.23865">
        <ele>391</ele>
        <time>2018-06-03T07:54:28.000Z</time>
      </trkpt>
      <trkpt lat="44.5624" lon="4.23863">
        <ele>391</ele>
        <time>2018-06-03T07:54:29.000Z</time>
      </trkpt>
      <trkpt lat="44.5624" lon="4.23861">
        <ele>391</ele>
        <time>2018-06-03T07:54:30.000Z</time>
      </trkpt>
      <trkpt lat="44.56239" lon="4.23859">
        <ele>391</ele>
        <time>2018-06-03T07:54:31.000Z</time>
      </trkpt>
      <trkpt lat="44.56238" lon="4.23857">
        <ele>392</ele>
        <time>2018-06-03T07:54:32.000Z</time>
      </trkpt>
      <trkpt lat="44.56237" lon="4.23855">
        <ele>392</ele>
        <time>2018-06-03T07:54:33.000Z</time>
      </trkpt>
      <trkpt lat="44.56237" lon="4.23854">
        <ele>392</ele>
        <time>2018-06-03T07:54:34.000Z</time>
      </trkpt>
      <trkpt lat="44.56237" lon="4.23852">
        <ele>392</ele>
        <time>2018-06-03T07:54:35.000Z</time>
      </trkpt>
      <trkpt lat="44.56237" lon="4.2385">
        <ele>392</ele>
        <time>2018-06-03T07:54:36.000Z</time>
      </trkpt>
      <trkpt lat="44.56238" lon="4.2385">
        <ele>392</ele>
        <time>2018-06-03T07:54:37.000Z</time>
      </trkpt>
      <trkpt lat="44.56239" lon="4.23849">
        <ele>392</ele>
        <time>2018-06-03T07:54:38.000Z</time>
      </trkpt>
      <trkpt lat="44.56241" lon="4.23849">
        <ele>392</ele>
        <time>2018-06-03T07:54:39.000Z</time>
      </trkpt>
      <trkpt lat="44.56242" lon="4.2385">
        <ele>393</ele>
        <time>2018-06-03T07:54:40.000Z</time>
      </trkpt>
      <trkpt lat="44.56243" lon="4.23851">
        <ele>392</ele>
        <time>2018-06-03T07:54:41.000Z</time>
      </trkpt>
      <trkpt lat="44.56245" lon="4.23852">
        <ele>392</ele>
        <time>2018-06-03T07:54:42.000Z</time>
      </trkpt>
      <trkpt lat="44.56246" lon="4.23853">
        <ele>392</ele>
        <time>2018-06-03T07:54:43.000Z</time>
      </trkpt>
      <trkpt lat="44.56248" lon="4.23854">
        <ele>392</ele>
        <time>2018-06-03T07:54:44.000Z</time>
      </trkpt>
      <trkpt lat="44.56249" lon="4.23855">
        <ele>392</ele>
        <time>2018-06-03T07:54:45.000Z</time>
      </trkpt>
      <trkpt lat="44.56251" lon="4.23855">
        <ele>397</ele>
        <time>2018-06-03T07:54:46.000Z</time>
      </trkpt>
      <trkpt lat="44.56252" lon="4.23856">
        <ele>397</ele>
        <time>2018-06-03T07:54:47.000Z</time>
      </trkpt>
      <trkpt lat="44.56254" lon="4.23857">
        <ele>397</ele>
        <time>2018-06-03T07:54:48.000Z</time>
      </trkpt>
      <trkpt lat="44.56255" lon="4.23858">
        <ele>397</ele>
        <time>2018-06-03T07:54:49.000Z</time>
      </trkpt>
      <trkpt lat="44.56256" lon="4.23859">
        <ele>397</ele>
        <time>2018-06-03T07:54:50.000Z</time>
      </trkpt>
      <trkpt lat="44.56258" lon="4.23861">
        <ele>397</ele>
        <time>2018-06-03T07:54:51.000Z</time>
      </trkpt>
      <trkpt lat="44.5626" lon="4.23862">
        <ele>397</ele>
        <time>2018-06-03T07:54:52.000Z</time>
      </trkpt>
      <trkpt lat="44.56261" lon="4.23863">
        <ele>397</ele>
        <time>2018-06-03T07:54:53.000Z</time>
      </trkpt>
      <trkpt lat="44.56262" lon="4.23864">
        <ele>397</ele>
        <time>2018-06-03T07:54:54.000Z</time>
      </trkpt>
      <trkpt lat="44.56264" lon="4.23865">
        <ele>397</ele>
        <time>2018-06-03T07:54:55.000Z</time>
      </trkpt>
      <trkpt lat="44.56266" lon="4.23866">
        <ele>397</ele>
        <time>2018-06-03T07:54:56.000Z</time>
      </trkpt>
      <trkpt lat="44.56267" lon="4.23867">
        <ele>397</ele>
        <time>2018-06-03T07:54:57.000Z</time>
      </trkpt>
      <trkpt lat="44.56269" lon="4.23867">
        <ele>397</ele>
        <time>2018-06-03T07:54:58.000Z</time>
      </trkpt>
      <trkpt lat="44.56271" lon="4.23868">
        <ele>397</ele>
        <time>2018-06-03T07:54:59.000Z</time>
      </trkpt>
      <trkpt lat="44.56273" lon="4.23869">
        <ele>397</ele>
        <time>2018-06-03T07:55:00.000Z</time>
      </trkpt>
      <trkpt lat="44.56275" lon="4.23869">
        <ele>397</ele>
        <time>2018-06-03T07:55:01.000Z</time>
      </trkpt>
      <trkpt lat="44.56277" lon="4.23869">
        <ele>397</ele>
        <time>2018-06-03T07:55:02.000Z</time>
      </trkpt>
      <trkpt lat="44.56279" lon="4.2387">
        <ele>397</ele>
        <time>2018-06-03T07:55:03.000Z</time>
      </trkpt>
      <trkpt lat="44.56282" lon="4.23871">
        <ele>397</ele>
        <time>2018-06-03T07:55:04.000Z</time>
      </trkpt>
      <trkpt lat="44.56284" lon="4.23872">
        <ele>397</ele>
        <time>2018-06-03T07:55:05.000Z</time>
      </trkpt>
      <trkpt lat="44.56287" lon="4.23873">
        <ele>398</ele>
        <time>2018-06-03T07:55:06.000Z</time>
      </trkpt>
      <trkpt lat="44.56291" lon="4.23874">
        <ele>398</ele>
        <time>2018-06-03T07:55:07.000Z</time>
      </trkpt>
      <trkpt lat="44.56294" lon="4.23875">
        <ele>398</ele>
        <time>2018-06-03T07:55:08.000Z</time>
      </trkpt>
      <trkpt lat="44.56297" lon="4.23877">
        <ele>398</ele>
        <time>2018-06-03T07:55:09.000Z</time>
      </trkpt>
      <trkpt lat="44.563" lon="4.23878">
        <ele>398</ele>
        <time>2018-06-03T07:55:10.000Z</time>
      </trkpt>
      <trkpt lat="44.56303" lon="4.23879">
        <ele>398</ele>
        <time>2018-06-03T07:55:11.000Z</time>
      </trkpt>
      <trkpt lat="44.56306" lon="4.23881">
        <ele>398</ele>
        <time>2018-06-03T07:55:12.000Z</time>
      </trkpt>
      <trkpt lat="44.5631" lon="4.23882">
        <ele>399</ele>
        <time>2018-06-03T07:55:13.000Z</time>
      </trkpt>
      <trkpt lat="44.56314" lon="4.23884">
        <ele>399</ele>
        <time>2018-06-03T07:55:14.000Z</time>
      </trkpt>
      <trkpt lat="44.56317" lon="4.23886">
        <ele>399</ele>
        <time>2018-06-03T07:55:15.000Z</time>
      </trkpt>
      <trkpt lat="44.56321" lon="4.23887">
        <ele>399</ele>
        <time>2018-06-03T07:55:16.000Z</time>
      </trkpt>
      <trkpt lat="44.56324" lon="4.23889">
        <ele>399</ele>
        <time>2018-06-03T07:55:17.000Z</time>
      </trkpt>
      <trkpt lat="44.56328" lon="4.23891">
        <ele>399</ele>
        <time>2018-06-03T07:55:18.000Z</time>
      </trkpt>
      <trkpt lat="44.56331" lon="4.23893">
        <ele>399</ele>
        <time>2018-06-03T07:55:19.000Z</time>
      </trkpt>
      <trkpt lat="44.56335" lon="4.23896">
        <ele>404</ele>
        <time>2018-06-03T07:55:20.000Z</time>
      </trkpt>
      <trkpt lat="44.56338" lon="4.23898">
        <ele>404</ele>
        <time>2018-06-03T07:55:21.000Z</time>
      </trkpt>
      <trkpt lat="44.56342" lon="4.23901">
        <ele>404</ele>
        <time>2018-06-03T07:55:22.000Z</time>
      </trkpt>
      <trkpt lat="44.56346" lon="4.23903">
        <ele>404</ele>
        <time>2018-06-03T07:55:23.000Z</time>
      </trkpt>
      <trkpt lat="44.56349" lon="4.23906">
        <ele>404</ele>
        <time>2018-06-03T07:55:24.000Z</time>
      </trkpt>
      <trkpt lat="44.56352" lon="4.23909">
        <ele>405</ele>
        <time>2018-06-03T07:55:25.000Z</time>
      </trkpt>
      <trkpt lat="44.56355" lon="4.23912">
        <ele>405</ele>
        <time>2018-06-03T07:55:26.000Z</time>
      </trkpt>
      <trkpt lat="44.56357" lon="4.23915">
        <ele>405</ele>
        <time>2018-06-03T07:55:27.000Z</time>
      </trkpt>
      <trkpt lat="44.56359" lon="4.23916">
        <ele>405</ele>
        <time>2018-06-03T07:55:28.000Z</time>
      </trkpt>
      <trkpt lat="44.5636" lon="4.23917">
        <ele>402</ele>
        <time>2018-06-03T07:55:29.000Z</time>
      </trkpt>
      <trkpt lat="44.56361" lon="4.23918">
        <ele>403</ele>
        <time>2018-06-03T07:55:30.000Z</time>
      </trkpt>
      <trkpt lat="44.56363" lon="4.23919">
        <ele>403</ele>
        <time>2018-06-03T07:55:31.000Z</time>
      </trkpt>
      <trkpt lat="44.56364" lon="4.23917">
        <ele>403</ele>
        <time>2018-06-03T07:55:32.000Z</time>
      </trkpt>
      <trkpt lat="44.56364" lon="4.23915">
        <ele>406</ele>
        <time>2018-06-03T07:55:33.000Z</time>
      </trkpt>
      <trkpt lat="44.56362" lon="4.23914">
        <ele>406</ele>
        <time>2018-06-03T07:55:34.000Z</time>
      </trkpt>
      <trkpt lat="44.5636" lon="4.23914">
        <ele>405</ele>
        <time>2018-06-03T07:55:35.000Z</time>
      </trkpt>
      <trkpt lat="44.56359" lon="4.23916">
        <ele>405</ele>
        <time>2018-06-03T07:55:36.000Z</time>
      </trkpt>
      <trkpt lat="44.56359" lon="4.23918">
        <ele>402</ele>
        <time>2018-06-03T07:55:37.000Z</time>
      </trkpt>
      <trkpt lat="44.56359" lon="4.23919">
        <ele>402</ele>
        <time>2018-06-03T07:55:38.000Z</time>
      </trkpt>
      <trkpt lat="44.56359" lon="4.23919">
        <ele>402</ele>
        <time>2018-06-03T07:55:39.000Z</time>
      </trkpt>
      <trkpt lat="44.56359" lon="4.23919">
        <ele>402</ele>
        <time>2018-06-03T07:55:40.000Z</time>
      </trkpt>
      <trkpt lat="44.56359" lon="4.23919">
        <ele>402</ele>
        <time>2018-06-03T07:55:41.000Z</time>
      </trkpt>
      <trkpt lat="44.56359" lon="4.23919">
        <ele>402</ele>
        <time>2018-06-03T07:55:42.000Z</time>
      </trkpt>
      <trkpt lat="44.56359" lon="4.2392">
        <ele>402</ele>
        <time>2018-06-03T07:55:43.000Z</time>
      </trkpt>
      <trkpt lat="44.56359" lon="4.2392">
        <ele>402</ele>
        <time>2018-06-03T07:55:44.000Z</time>
      </trkpt>
      <trkpt lat="44.56359" lon="4.2392">
        <ele>402</ele>
        <time>2018-06-03T07:55:45.000Z</time>
      </trkpt>
      <trkpt lat="44.56359" lon="4.2392">
        <ele>402</ele>
        <time>2018-06-03T07:55:46.000Z</time>
      </trkpt>
      <trkpt lat="44.56359" lon="4.2392">
        <ele>402</ele>
        <time>2018-06-03T07:55:47.000Z</time>
      </trkpt>
      <trkpt lat="44.56358" lon="4.2392">
        <ele>402</ele>
        <time>2018-06-03T07:55:48.000Z</time>
      </trkpt>
      <trkpt lat="44.56358" lon="4.2392">
        <ele>402</ele>
        <time>2018-06-03T07:55:49.000Z</time>
      </trkpt>
      <trkpt lat="44.56358" lon="4.2392">
        <ele>402</ele>
        <time>2018-06-03T07:55:50.000Z</time>
      </trkpt>
      <trkpt lat="44.56359" lon="4.23921">
        <ele>402</ele>
        <time>2018-06-03T07:55:51.000Z</time>
      </trkpt>
      <trkpt lat="44.56359" lon="4.23921">
        <ele>402</ele>
        <time>2018-06-03T07:55:52.000Z</time>
      </trkpt>
      <trkpt lat="44.5636" lon="4.23922">
        <ele>402</ele>
        <time>2018-06-03T07:55:53.000Z</time>
      </trkpt>
      <trkpt lat="44.56361" lon="4.23922">
        <ele>402</ele>
        <time>2018-06-03T07:55:54.000Z</time>
      </trkpt>
      <trkpt lat="44.56362" lon="4.23922">
        <ele>403</ele>
        <time>2018-06-03T07:55:55.000Z</time>
      </trkpt>
      <trkpt lat="44.56363" lon="4.2392">
        <ele>403</ele>
        <time>2018-06-03T07:55:56.000Z</time>
      </trkpt>
      <trkpt lat="44.56364" lon="4.23917">
        <ele>403</ele>
        <time>2018-06-03T07:55:57.000Z</time>
      </trkpt>
      <trkpt lat="44.56365" lon="4.23914">
        <ele>406</ele>
        <time>2018-06-03T07:55:58.000Z</time>
      </trkpt>
      <trkpt lat="44.56364" lon="4.23911">
        <ele>406</ele>
        <time>2018-06-03T07:55:59.000Z</time>
      </trkpt>
      <trkpt lat="44.56363" lon="4.23908">
        <ele>406</ele>
        <time>2018-06-03T07:56:00.000Z</time>
      </trkpt>
      <trkpt lat="44.56361" lon="4.23905">
        <ele>406</ele>
        <time>2018-06-03T07:56:01.000Z</time>
      </trkpt>
      <trkpt lat="44.5636" lon="4.23903">
        <ele>406</ele>
        <time>2018-06-03T07:56:02.000Z</time>
      </trkpt>
      <trkpt lat="44.56358" lon="4.23901">
        <ele>405</ele>
        <time>2018-06-03T07:56:03.000Z</time>
      </trkpt>
      <trkpt lat="44.56357" lon="4.23898">
        <ele>405</ele>
        <time>2018-06-03T07:56:04.000Z</time>
      </trkpt>
      <trkpt lat="44.56355" lon="4.23896">
        <ele>405</ele>
        <time>2018-06-03T07:56:05.000Z</time>
      </trkpt>
      <trkpt lat="44.56354" lon="4.23894">
        <ele>405</ele>
        <time>2018-06-03T07:56:06.000Z</time>
      </trkpt>
      <trkpt lat="44.56352" lon="4.23892">
        <ele>405</ele>
        <time>2018-06-03T07:56:07.000Z</time>
      </trkpt>
      <trkpt lat="44.56351" lon="4.23889">
        <ele>405</ele>
        <time>2018-06-03T07:56:08.000Z</time>
      </trkpt>
      <trkpt lat="44.5635" lon="4.23886">
        <ele>406</ele>
        <time>2018-06-03T07:56:09.000Z</time>
      </trkpt>
      <trkpt lat="44.5635" lon="4.23883">
        <ele>406</ele>
        <time>2018-06-03T07:56:10.000Z</time>
      </trkpt>
      <trkpt lat="44.5635" lon="4.2388">
        <ele>406</ele>
        <time>2018-06-03T07:56:11.000Z</time>
      </trkpt>
      <trkpt lat="44.56351" lon="4.23877">
        <ele>406</ele>
        <time>2018-06-03T07:56:12.000Z</time>
      </trkpt>
      <trkpt lat="44.56352" lon="4.23874">
        <ele>406</ele>
        <time>2018-06-03T07:56:13.000Z</time>
      </trkpt>
      <trkpt lat="44.56353" lon="4.23872">
        <ele>406</ele>
        <time>2018-06-03T07:56:14.000Z</time>
      </trkpt>
      <trkpt lat="44.56355" lon="4.2387">
        <ele>406</ele>
        <time>2018-06-03T07:56:15.000Z</time>
      </trkpt>
      <trkpt lat="44.56357" lon="4.23868">
        <ele>406</ele>
        <time>2018-06-03T07:56:16.000Z</time>
      </trkpt>
      <trkpt lat="44.56359" lon="4.23867">
        <ele>406</ele>
        <time>2018-06-03T07:56:17.000Z</time>
      </trkpt>
      <trkpt lat="44.56361" lon="4.23866">
        <ele>406</ele>
        <time>2018-06-03T07:56:18.000Z</time>
      </trkpt>
      <trkpt lat="44.56363" lon="4.23866">
        <ele>407</ele>
        <time>2018-06-03T07:56:19.000Z</time>
      </trkpt>
      <trkpt lat="44.56366" lon="4.23865">
        <ele>407</ele>
        <time>2018-06-03T07:56:20.000Z</time>
      </trkpt>
      <trkpt lat="44.56368" lon="4.23864">
        <ele>407</ele>
        <time>2018-06-03T07:56:21.000Z</time>
      </trkpt>
      <trkpt lat="44.56371" lon="4.23864">
        <ele>407</ele>
        <time>2018-06-03T07:56:22.000Z</time>
      </trkpt>
      <trkpt lat="44.56373" lon="4.23863">
        <ele>407</ele>
        <time>2018-06-03T07:56:23.000Z</time>
      </trkpt>
      <trkpt lat="44.56375" lon="4.23862">
        <ele>407</ele>
        <time>2018-06-03T07:56:24.000Z</time>
      </trkpt>
      <trkpt lat="44.56378" lon="4.23862">
        <ele>408</ele>
        <time>2018-06-03T07:56:25.000Z</time>
      </trkpt>
      <trkpt lat="44.5638" lon="4.23861">
        <ele>408</ele>
        <time>2018-06-03T07:56:26.000Z</time>
      </trkpt>
      <trkpt lat="44.56382" lon="4.23859">
        <ele>408</ele>
        <time>2018-06-03T07:56:27.000Z</time>
      </trkpt>
      <trkpt lat="44.56384" lon="4.23858">
        <ele>408</ele>
        <time>2018-06-03T07:56:28.000Z</time>
      </trkpt>
      <trkpt lat="44.56387" lon="4.23857">
        <ele>408</ele>
        <time>2018-06-03T07:56:29.000Z</time>
      </trkpt>
      <trkpt lat="44.56389" lon="4.23855">
        <ele>409</ele>
        <time>2018-06-03T07:56:30.000Z</time>
      </trkpt>
      <trkpt lat="44.56391" lon="4.23854">
        <ele>409</ele>
        <time>2018-06-03T07:56:31.000Z</time>
      </trkpt>
      <trkpt lat="44.56393" lon="4.23853">
        <ele>409</ele>
        <time>2018-06-03T07:56:32.000Z</time>
      </trkpt>
      <trkpt lat="44.56395" lon="4.23852">
        <ele>409</ele>
        <time>2018-06-03T07:56:33.000Z</time>
      </trkpt>
      <trkpt lat="44.56397" lon="4.23851">
        <ele>409</ele>
        <time>2018-06-03T07:56:34.000Z</time>
      </trkpt>
      <trkpt lat="44.56398" lon="4.23849">
        <ele>410</ele>
        <time>2018-06-03T07:56:35.000Z</time>
      </trkpt>
      <trkpt lat="44.564" lon="4.23848">
        <ele>410</ele>
        <time>2018-06-03T07:56:36.000Z</time>
      </trkpt>
      <trkpt lat="44.56402" lon="4.23846">
        <ele>410</ele>
        <time>2018-06-03T07:56:37.000Z</time>
      </trkpt>
      <trkpt lat="44.56403" lon="4.23845">
        <ele>411</ele>
        <time>2018-06-03T07:56:38.000Z</time>
      </trkpt>
      <trkpt lat="44.56405" lon="4.23843">
        <ele>411</ele>
        <time>2018-06-03T07:56:39.000Z</time>
      </trkpt>
      <trkpt lat="44.56407" lon="4.23841">
        <ele>411</ele>
        <time>2018-06-03T07:56:40.000Z</time>
      </trkpt>
      <trkpt lat="44.56409" lon="4.23839">
        <ele>412</ele>
        <time>2018-06-03T07:56:41.000Z</time>
      </trkpt>
      <trkpt lat="44.56411" lon="4.23837">
        <ele>412</ele>
        <time>2018-06-03T07:56:42.000Z</time>
      </trkpt>
      <trkpt lat="44.56413" lon="4.23836">
        <ele>413</ele>
        <time>2018-06-03T07:56:43.000Z</time>
      </trkpt>
      <trkpt lat="44.56415" lon="4.23834">
        <ele>413</ele>
        <time>2018-06-03T07:56:44.000Z</time>
      </trkpt>
      <trkpt lat="44.56417" lon="4.23833">
        <ele>414</ele>
        <time>2018-06-03T07:56:45.000Z</time>
      </trkpt>
      <trkpt lat="44.56419" lon="4.23831">
        <ele>415</ele>
        <time>2018-06-03T07:56:46.000Z</time>
      </trkpt>
      <trkpt lat="44.5642" lon="4.2383">
        <ele>415</ele>
        <time>2018-06-03T07:56:47.000Z</time>
      </trkpt>
      <trkpt lat="44.56422" lon="4.23829">
        <ele>415</ele>
        <time>2018-06-03T07:56:48.000Z</time>
      </trkpt>
      <trkpt lat="44.56423" lon="4.23828">
        <ele>415</ele>
        <time>2018-06-03T07:56:49.000Z</time>
      </trkpt>
      <trkpt lat="44.56425" lon="4.23827">
        <ele>416</ele>
        <time>2018-06-03T07:56:50.000Z</time>
      </trkpt>
      <trkpt lat="44.56427" lon="4.23826">
        <ele>416</ele>
        <time>2018-06-03T07:56:51.000Z</time>
      </trkpt>
      <trkpt lat="44.56429" lon="4.23825">
        <ele>416</ele>
        <time>2018-06-03T07:56:52.000Z</time>
      </trkpt>
      <trkpt lat="44.56431" lon="4.23824">
        <ele>416</ele>
        <time>2018-06-03T07:56:53.000Z</time>
      </trkpt>
      <trkpt lat="44.56433" lon="4.23824">
        <ele>417</ele>
        <time>2018-06-03T07:56:54.000Z</time>
      </trkpt>
      <trkpt lat="44.56435" lon="4.23823">
        <ele>417</ele>
        <time>2018-06-03T07:56:55.000Z</time>
      </trkpt>
      <trkpt lat="44.56437" lon="4.23822">
        <ele>417</ele>
        <time>2018-06-03T07:56:56.000Z</time>
      </trkpt>
      <trkpt lat="44.56439" lon="4.23821">
        <ele>417</ele>
        <time>2018-06-03T07:56:57.000Z</time>
      </trkpt>
      <trkpt lat="44.56441" lon="4.2382">
        <ele>418</ele>
        <time>2018-06-03T07:56:58.000Z</time>
      </trkpt>
      <trkpt lat="44.56444" lon="4.2382">
        <ele>418</ele>
        <time>2018-06-03T07:56:59.000Z</time>
      </trkpt>
      <trkpt lat="44.56446" lon="4.23819">
        <ele>418</ele>
        <time>2018-06-03T07:57:00.000Z</time>
      </trkpt>
      <trkpt lat="44.56448" lon="4.23819">
        <ele>418</ele>
        <time>2018-06-03T07:57:01.000Z</time>
      </trkpt>
      <trkpt lat="44.5645" lon="4.23818">
        <ele>418</ele>
        <time>2018-06-03T07:57:02.000Z</time>
      </trkpt>
      <trkpt lat="44.56452" lon="4.23817">
        <ele>419</ele>
        <time>2018-06-03T07:57:03.000Z</time>
      </trkpt>
      <trkpt lat="44.56454" lon="4.23815">
        <ele>419</ele>
        <time>2018-06-03T07:57:04.000Z</time>
      </trkpt>
      <trkpt lat="44.56456" lon="4.23814">
        <ele>419</ele>
        <time>2018-06-03T07:57:05.000Z</time>
      </trkpt>
      <trkpt lat="44.56459" lon="4.23813">
        <ele>419</ele>
        <time>2018-06-03T07:57:06.000Z</time>
      </trkpt>
      <trkpt lat="44.56461" lon="4.23812">
        <ele>419</ele>
        <time>2018-06-03T07:57:07.000Z</time>
      </trkpt>
      <trkpt lat="44.56464" lon="4.2381">
        <ele>420</ele>
        <time>2018-06-03T07:57:08.000Z</time>
      </trkpt>
      <trkpt lat="44.56466" lon="4.23809">
        <ele>420</ele>
        <time>2018-06-03T07:57:09.000Z</time>
      </trkpt>
      <trkpt lat="44.56468" lon="4.23808">
        <ele>420</ele>
        <time>2018-06-03T07:57:10.000Z</time>
      </trkpt>
      <trkpt lat="44.5647" lon="4.23806">
        <ele>420</ele>
        <time>2018-06-03T07:57:11.000Z</time>
      </trkpt>
      <trkpt lat="44.56472" lon="4.23805">
        <ele>420</ele>
        <time>2018-06-03T07:57:12.000Z</time>
      </trkpt>
      <trkpt lat="44.56474" lon="4.23804">
        <ele>420</ele>
        <time>2018-06-03T07:57:13.000Z</time>
      </trkpt>
      <trkpt lat="44.56476" lon="4.23802">
        <ele>420</ele>
        <time>2018-06-03T07:57:14.000Z</time>
      </trkpt>
      <trkpt lat="44.56479" lon="4.23801">
        <ele>420</ele>
        <time>2018-06-03T07:57:15.000Z</time>
      </trkpt>
      <trkpt lat="44.56481" lon="4.23799">
        <ele>420</ele>
        <time>2018-06-03T07:57:16.000Z</time>
      </trkpt>
      <trkpt lat="44.56483" lon="4.23798">
        <ele>421</ele>
        <time>2018-06-03T07:57:17.000Z</time>
      </trkpt>
      <trkpt lat="44.56486" lon="4.23797">
        <ele>421</ele>
        <time>2018-06-03T07:57:18.000Z</time>
      </trkpt>
      <trkpt lat="44.56488" lon="4.23796">
        <ele>421</ele>
        <time>2018-06-03T07:57:19.000Z</time>
      </trkpt>
      <trkpt lat="44.56491" lon="4.23795">
        <ele>421</ele>
        <time>2018-06-03T07:57:20.000Z</time>
      </trkpt>
      <trkpt lat="44.56493" lon="4.23795">
        <ele>421</ele>
        <time>2018-06-03T07:57:21.000Z</time>
      </trkpt>
      <trkpt lat="44.56496" lon="4.23794">
        <ele>421</ele>
        <time>2018-06-03T07:57:22.000Z</time>
      </trkpt>
      <trkpt lat="44.56499" lon="4.23795">
        <ele>421</ele>
        <time>2018-06-03T07:57:23.000Z</time>
      </trkpt>
      <trkpt lat="44.56502" lon="4.23795">
        <ele>429</ele>
        <time>2018-06-03T07:57:24.000Z</time>
      </trkpt>
      <trkpt lat="44.56505" lon="4.23796">
        <ele>429</ele>
        <time>2018-06-03T07:57:25.000Z</time>
      </trkpt>
      <trkpt lat="44.56508" lon="4.23796">
        <ele>429</ele>
        <time>2018-06-03T07:57:26.000Z</time>
      </trkpt>
      <trkpt lat="44.56511" lon="4.23796">
        <ele>429</ele>
        <time>2018-06-03T07:57:27.000Z</time>
      </trkpt>
      <trkpt lat="44.56514" lon="4.23797">
        <ele>429</ele>
        <time>2018-06-03T07:57:28.000Z</time>
      </trkpt>
      <trkpt lat="44.56518" lon="4.23796">
        <ele>429</ele>
        <time>2018-06-03T07:57:29.000Z</time>
      </trkpt>
      <trkpt lat="44.56522" lon="4.23795">
        <ele>430</ele>
        <time>2018-06-03T07:57:30.000Z</time>
      </trkpt>
      <trkpt lat="44.56525" lon="4.23793">
        <ele>430</ele>
        <time>2018-06-03T07:57:31.000Z</time>
      </trkpt>
      <trkpt lat="44.56528" lon="4.2379">
        <ele>430</ele>
        <time>2018-06-03T07:57:32.000Z</time>
      </trkpt>
      <trkpt lat="44.56531" lon="4.23787">
        <ele>430</ele>
        <time>2018-06-03T07:57:33.000Z</time>
      </trkpt>
      <trkpt lat="44.56533" lon="4.23783">
        <ele>430</ele>
        <time>2018-06-03T07:57:34.000Z</time>
      </trkpt>
      <trkpt lat="44.56534" lon="4.2378">
        <ele>430</ele>
        <time>2018-06-03T07:57:35.000Z</time>
      </trkpt>
      <trkpt lat="44.56535" lon="4.23777">
        <ele>430</ele>
        <time>2018-06-03T07:57:36.000Z</time>
      </trkpt>
      <trkpt lat="44.56537" lon="4.23773">
        <ele>430</ele>
        <time>2018-06-03T07:57:37.000Z</time>
      </trkpt>
      <trkpt lat="44.56538" lon="4.2377">
        <ele>430</ele>
        <time>2018-06-03T07:57:38.000Z</time>
      </trkpt>
      <trkpt lat="44.56539" lon="4.23768">
        <ele>430</ele>
        <time>2018-06-03T07:57:39.000Z</time>
      </trkpt>
      <trkpt lat="44.5654" lon="4.23765">
        <ele>430</ele>
        <time>2018-06-03T07:57:40.000Z</time>
      </trkpt>
      <trkpt lat="44.5654" lon="4.23761">
        <ele>430</ele>
        <time>2018-06-03T07:57:41.000Z</time>
      </trkpt>
      <trkpt lat="44.56541" lon="4.23758">
        <ele>430</ele>
        <time>2018-06-03T07:57:42.000Z</time>
      </trkpt>
      <trkpt lat="44.56542" lon="4.23754">
        <ele>430</ele>
        <time>2018-06-03T07:57:43.000Z</time>
      </trkpt>
      <trkpt lat="44.56542" lon="4.2375">
        <ele>430</ele>
        <time>2018-06-03T07:57:44.000Z</time>
      </trkpt>
      <trkpt lat="44.56542" lon="4.23746">
        <ele>428</ele>
        <time>2018-06-03T07:57:45.000Z</time>
      </trkpt>
      <trkpt lat="44.56542" lon="4.23742">
        <ele>428</ele>
        <time>2018-06-03T07:57:46.000Z</time>
      </trkpt>
      <trkpt lat="44.56542" lon="4.23738">
        <ele>428</ele>
        <time>2018-06-03T07:57:47.000Z</time>
      </trkpt>
      <trkpt lat="44.56541" lon="4.23734">
        <ele>428</ele>
        <time>2018-06-03T07:57:48.000Z</time>
      </trkpt>
      <trkpt lat="44.56541" lon="4.2373">
        <ele>428</ele>
        <time>2018-06-03T07:57:49.000Z</time>
      </trkpt>
      <trkpt lat="44.5654" lon="4.23726">
        <ele>428</ele>
        <time>2018-06-03T07:57:50.000Z</time>
      </trkpt>
      <trkpt lat="44.56539" lon="4.23723">
        <ele>428</ele>
        <time>2018-06-03T07:57:51.000Z</time>
      </trkpt>
      <trkpt lat="44.56538" lon="4.23719">
        <ele>428</ele>
        <time>2018-06-03T07:57:52.000Z</time>
      </trkpt>
      <trkpt lat="44.56538" lon="4.23715">
        <ele>428</ele>
        <time>2018-06-03T07:57:53.000Z</time>
      </trkpt>
      <trkpt lat="44.56539" lon="4.23711">
        <ele>428</ele>
        <time>2018-06-03T07:57:54.000Z</time>
      </trkpt>
      <trkpt lat="44.5654" lon="4.23708">
        <ele>428</ele>
        <time>2018-06-03T07:57:55.000Z</time>
      </trkpt>
      <trkpt lat="44.56542" lon="4.23705">
        <ele>428</ele>
        <time>2018-06-03T07:57:56.000Z</time>
      </trkpt>
      <trkpt lat="44.56544" lon="4.23704">
        <ele>428</ele>
        <time>2018-06-03T07:57:57.000Z</time>
      </trkpt>
      <trkpt lat="44.56546" lon="4.23702">
        <ele>428</ele>
        <time>2018-06-03T07:57:58.000Z</time>
      </trkpt>
      <trkpt lat="44.56548" lon="4.23701">
        <ele>428</ele>
        <time>2018-06-03T07:57:59.000Z</time>
      </trkpt>
      <trkpt lat="44.5655" lon="4.237">
        <ele>429</ele>
        <time>2018-06-03T07:58:00.000Z</time>
      </trkpt>
      <trkpt lat="44.56553" lon="4.23699">
        <ele>429</ele>
        <time>2018-06-03T07:58:01.000Z</time>
      </trkpt>
      <trkpt lat="44.56555" lon="4.23699">
        <ele>429</ele>
        <time>2018-06-03T07:58:02.000Z</time>
      </trkpt>
      <trkpt lat="44.56558" lon="4.23701">
        <ele>429</ele>
        <time>2018-06-03T07:58:03.000Z</time>
      </trkpt>
      <trkpt lat="44.5656" lon="4.23702">
        <ele>429</ele>
        <time>2018-06-03T07:58:04.000Z</time>
      </trkpt>
      <trkpt lat="44.56562" lon="4.23705">
        <ele>430</ele>
        <time>2018-06-03T07:58:05.000Z</time>
      </trkpt>
      <trkpt lat="44.56564" lon="4.23708">
        <ele>430</ele>
        <time>2018-06-03T07:58:06.000Z</time>
      </trkpt>
      <trkpt lat="44.56567" lon="4.23711">
        <ele>430</ele>
        <time>2018-06-03T07:58:07.000Z</time>
      </trkpt>
      <trkpt lat="44.56569" lon="4.23714">
        <ele>430</ele>
        <time>2018-06-03T07:58:08.000Z</time>
      </trkpt>
      <trkpt lat="44.56571" lon="4.23718">
        <ele>430</ele>
        <time>2018-06-03T07:58:09.000Z</time>
      </trkpt>
      <trkpt lat="44.56573" lon="4.23722">
        <ele>431</ele>
        <time>2018-06-03T07:58:10.000Z</time>
      </trkpt>
      <trkpt lat="44.56576" lon="4.23726">
        <ele>431</ele>
        <time>2018-06-03T07:58:11.000Z</time>
      </trkpt>
      <trkpt lat="44.56578" lon="4.2373">
        <ele>432</ele>
        <time>2018-06-03T07:58:12.000Z</time>
      </trkpt>
      <trkpt lat="44.56581" lon="4.23733">
        <ele>432</ele>
        <time>2018-06-03T07:58:13.000Z</time>
      </trkpt>
      <trkpt lat="44.56583" lon="4.23737">
        <ele>433</ele>
        <time>2018-06-03T07:58:14.000Z</time>
      </trkpt>
      <trkpt lat="44.56586" lon="4.23741">
        <ele>436</ele>
        <time>2018-06-03T07:58:15.000Z</time>
      </trkpt>
      <trkpt lat="44.56588" lon="4.23745">
        <ele>436</ele>
        <time>2018-06-03T07:58:16.000Z</time>
      </trkpt>
      <trkpt lat="44.56591" lon="4.23749">
        <ele>436</ele>
        <time>2018-06-03T07:58:17.000Z</time>
      </trkpt>
      <trkpt lat="44.56593" lon="4.23753">
        <ele>437</ele>
        <time>2018-06-03T07:58:18.000Z</time>
      </trkpt>
      <trkpt lat="44.56595" lon="4.23757">
        <ele>438</ele>
        <time>2018-06-03T07:58:19.000Z</time>
      </trkpt>
      <trkpt lat="44.56597" lon="4.23761">
        <ele>438</ele>
        <time>2018-06-03T07:58:20.000Z</time>
      </trkpt>
      <trkpt lat="44.56599" lon="4.23765">
        <ele>439</ele>
        <time>2018-06-03T07:58:21.000Z</time>
      </trkpt>
      <trkpt lat="44.56601" lon="4.23769">
        <ele>439</ele>
        <time>2018-06-03T07:58:22.000Z</time>
      </trkpt>
      <trkpt lat="44.56603" lon="4.23773">
        <ele>439</ele>
        <time>2018-06-03T07:58:23.000Z</time>
      </trkpt>
      <trkpt lat="44.56605" lon="4.23778">
        <ele>439</ele>
        <time>2018-06-03T07:58:24.000Z</time>
      </trkpt>
      <trkpt lat="44.56607" lon="4.23782">
        <ele>440</ele>
        <time>2018-06-03T07:58:25.000Z</time>
      </trkpt>
      <trkpt lat="44.56609" lon="4.23787">
        <ele>440</ele>
        <time>2018-06-03T07:58:26.000Z</time>
      </trkpt>
      <trkpt lat="44.56611" lon="4.23791">
        <ele>440</ele>
        <time>2018-06-03T07:58:27.000Z</time>
      </trkpt>
      <trkpt lat="44.56613" lon="4.23796">
        <ele>440</ele>
        <time>2018-06-03T07:58:28.000Z</time>
      </trkpt>
      <trkpt lat="44.56615" lon="4.238">
        <ele>440</ele>
        <time>2018-06-03T07:58:29.000Z</time>
      </trkpt>
      <trkpt lat="44.56618" lon="4.23805">
        <ele>441</ele>
        <time>2018-06-03T07:58:30.000Z</time>
      </trkpt>
      <trkpt lat="44.5662" lon="4.23809">
        <ele>441</ele>
        <time>2018-06-03T07:58:31.000Z</time>
      </trkpt>
      <trkpt lat="44.56623" lon="4.23813">
        <ele>441</ele>
        <time>2018-06-03T07:58:32.000Z</time>
      </trkpt>
      <trkpt lat="44.56626" lon="4.23817">
        <ele>441</ele>
        <time>2018-06-03T07:58:33.000Z</time>
      </trkpt>
      <trkpt lat="44.56629" lon="4.2382">
        <ele>441</ele>
        <time>2018-06-03T07:58:34.000Z</time>
      </trkpt>
      <trkpt lat="44.56632" lon="4.23823">
        <ele>442</ele>
        <time>2018-06-03T07:58:35.000Z</time>
      </trkpt>
      <trkpt lat="44.56635" lon="4.23825">
        <ele>442</ele>
        <time>2018-06-03T07:58:36.000Z</time>
      </trkpt>
      <trkpt lat="44.56638" lon="4.23828">
        <ele>442</ele>
        <time>2018-06-03T07:58:37.000Z</time>
      </trkpt>
      <trkpt lat="44.56641" lon="4.2383">
        <ele>442</ele>
        <time>2018-06-03T07:58:38.000Z</time>
      </trkpt>
      <trkpt lat="44.56644" lon="4.23832">
        <ele>443</ele>
        <time>2018-06-03T07:58:39.000Z</time>
      </trkpt>
      <trkpt lat="44.56647" lon="4.23833">
        <ele>443</ele>
        <time>2018-06-03T07:58:40.000Z</time>
      </trkpt>
      <trkpt lat="44.5665" lon="4.23835">
        <ele>445</ele>
        <time>2018-06-03T07:58:41.000Z</time>
      </trkpt>
      <trkpt lat="44.56653" lon="4.23836">
        <ele>445</ele>
        <time>2018-06-03T07:58:42.000Z</time>
      </trkpt>
      <trkpt lat="44.56655" lon="4.23838">
        <ele>445</ele>
        <time>2018-06-03T07:58:43.000Z</time>
      </trkpt>
      <trkpt lat="44.56658" lon="4.23839">
        <ele>445</ele>
        <time>2018-06-03T07:58:44.000Z</time>
      </trkpt>
      <trkpt lat="44.5666" lon="4.2384">
        <ele>445</ele>
        <time>2018-06-03T07:58:45.000Z</time>
      </trkpt>
      <trkpt lat="44.56663" lon="4.23841">
        <ele>445</ele>
        <time>2018-06-03T07:58:46.000Z</time>
      </trkpt>
      <trkpt lat="44.56665" lon="4.23842">
        <ele>445</ele>
        <time>2018-06-03T07:58:47.000Z</time>
      </trkpt>
      <trkpt lat="44.56668" lon="4.23844">
        <ele>448</ele>
        <time>2018-06-03T07:58:48.000Z</time>
      </trkpt>
      <trkpt lat="44.5667" lon="4.23845">
        <ele>448</ele>
        <time>2018-06-03T07:58:49.000Z</time>
      </trkpt>
      <trkpt lat="44.56672" lon="4.23846">
        <ele>448</ele>
        <time>2018-06-03T07:58:50.000Z</time>
      </trkpt>
      <trkpt lat="44.56675" lon="4.23846">
        <ele>449</ele>
        <time>2018-06-03T07:58:51.000Z</time>
      </trkpt>
      <trkpt lat="44.56677" lon="4.23846">
        <ele>449</ele>
        <time>2018-06-03T07:58:52.000Z</time>
      </trkpt>
      <trkpt lat="44.5668" lon="4.23847">
        <ele>449</ele>
        <time>2018-06-03T07:58:53.000Z</time>
      </trkpt>
      <trkpt lat="44.56682" lon="4.23846">
        <ele>449</ele>
        <time>2018-06-03T07:58:54.000Z</time>
      </trkpt>
      <trkpt lat="44.56685" lon="4.23846">
        <ele>449</ele>
        <time>2018-06-03T07:58:55.000Z</time>
      </trkpt>
      <trkpt lat="44.56688" lon="4.23845">
        <ele>450</ele>
        <time>2018-06-03T07:58:56.000Z</time>
      </trkpt>
      <trkpt lat="44.56691" lon="4.23844">
        <ele>450</ele>
        <time>2018-06-03T07:58:57.000Z</time>
      </trkpt>
      <trkpt lat="44.56693" lon="4.23844">
        <ele>450</ele>
        <time>2018-06-03T07:58:58.000Z</time>
      </trkpt>
      <trkpt lat="44.56696" lon="4.23843">
        <ele>450</ele>
        <time>2018-06-03T07:58:59.000Z</time>
      </trkpt>
      <trkpt lat="44.56698" lon="4.23843">
        <ele>451</ele>
        <time>2018-06-03T07:59:00.000Z</time>
      </trkpt>
      <trkpt lat="44.56701" lon="4.23842">
        <ele>451</ele>
        <time>2018-06-03T07:59:01.000Z</time>
      </trkpt>
      <trkpt lat="44.56703" lon="4.23841">
        <ele>451</ele>
        <time>2018-06-03T07:59:02.000Z</time>
      </trkpt>
      <trkpt lat="44.56706" lon="4.2384">
        <ele>451</ele>
        <time>2018-06-03T07:59:03.000Z</time>
      </trkpt>
      <trkpt lat="44.56708" lon="4.23839">
        <ele>451</ele>
        <time>2018-06-03T07:59:04.000Z</time>
      </trkpt>
      <trkpt lat="44.56711" lon="4.23838">
        <ele>451</ele>
        <time>2018-06-03T07:59:05.000Z</time>
      </trkpt>
      <trkpt lat="44.56713" lon="4.23837">
        <ele>452</ele>
        <time>2018-06-03T07:59:06.000Z</time>
      </trkpt>
      <trkpt lat="44.56716" lon="4.23835">
        <ele>452</ele>
        <time>2018-06-03T07:59:07.000Z</time>
      </trkpt>
      <trkpt lat="44.56719" lon="4.23834">
        <ele>452</ele>
        <time>2018-06-03T07:59:08.000Z</time>
      </trkpt>
      <trkpt lat="44.56721" lon="4.23832">
        <ele>448</ele>
        <time>2018-06-03T07:59:09.000Z</time>
      </trkpt>
      <trkpt lat="44.56724" lon="4.23831">
        <ele>448</ele>
        <time>2018-06-03T07:59:10.000Z</time>
      </trkpt>
      <trkpt lat="44.56726" lon="4.2383">
        <ele>448</ele>
        <time>2018-06-03T07:59:11.000Z</time>
      </trkpt>
      <trkpt lat="44.56729" lon="4.23829">
        <ele>449</ele>
        <time>2018-06-03T07:59:12.000Z</time>
      </trkpt>
      <trkpt lat="44.56732" lon="4.23828">
        <ele>449</ele>
        <time>2018-06-03T07:59:13.000Z</time>
      </trkpt>
      <trkpt lat="44.56734" lon="4.23827">
        <ele>449</ele>
        <time>2018-06-03T07:59:14.000Z</time>
      </trkpt>
      <trkpt lat="44.56737" lon="4.23826">
        <ele>450</ele>
        <time>2018-06-03T07:59:15.000Z</time>
      </trkpt>
      <trkpt lat="44.5674" lon="4.23826">
        <ele>450</ele>
        <time>2018-06-03T07:59:16.000Z</time>
      </trkpt>
      <trkpt lat="44.56743" lon="4.23826">
        <ele>451</ele>
        <time>2018-06-03T07:59:17.000Z</time>
      </trkpt>
      <trkpt lat="44.56745" lon="4.23827">
        <ele>451</ele>
        <time>2018-06-03T07:59:18.000Z</time>
      </trkpt>
      <trkpt lat="44.56748" lon="4.23829">
        <ele>452</ele>
        <time>2018-06-03T07:59:19.000Z</time>
      </trkpt>
      <trkpt lat="44.5675" lon="4.2383">
        <ele>453</ele>
        <time>2018-06-03T07:59:20.000Z</time>
      </trkpt>
      <trkpt lat="44.56753" lon="4.23831">
        <ele>453</ele>
        <time>2018-06-03T07:59:21.000Z</time>
      </trkpt>
      <trkpt lat="44.56755" lon="4.23832">
        <ele>453</ele>
        <time>2018-06-03T07:59:22.000Z</time>
      </trkpt>
      <trkpt lat="44.56758" lon="4.23834">
        <ele>455</ele>
        <time>2018-06-03T07:59:23.000Z</time>
      </trkpt>
      <trkpt lat="44.5676" lon="4.23836">
        <ele>456</ele>
        <time>2018-06-03T07:59:24.000Z</time>
      </trkpt>
      <trkpt lat="44.56763" lon="4.23838">
        <ele>456</ele>
        <time>2018-06-03T07:59:25.000Z</time>
      </trkpt>
      <trkpt lat="44.56765" lon="4.2384">
        <ele>456</ele>
        <time>2018-06-03T07:59:26.000Z</time>
      </trkpt>
      <trkpt lat="44.56768" lon="4.23841">
        <ele>456</ele>
        <time>2018-06-03T07:59:27.000Z</time>
      </trkpt>
      <trkpt lat="44.5677" lon="4.23841">
        <ele>457</ele>
        <time>2018-06-03T07:59:28.000Z</time>
      </trkpt>
      <trkpt lat="44.56772" lon="4.23843">
        <ele>457</ele>
        <time>2018-06-03T07:59:29.000Z</time>
      </trkpt>
      <trkpt lat="44.56775" lon="4.23844">
        <ele>457</ele>
        <time>2018-06-03T07:59:30.000Z</time>
      </trkpt>
      <trkpt lat="44.56778" lon="4.23845">
        <ele>457</ele>
        <time>2018-06-03T07:59:31.000Z</time>
      </trkpt>
      <trkpt lat="44.56781" lon="4.23845">
        <ele>457</ele>
        <time>2018-06-03T07:59:32.000Z</time>
      </trkpt>
      <trkpt lat="44.56784" lon="4.23845">
        <ele>457</ele>
        <time>2018-06-03T07:59:33.000Z</time>
      </trkpt>
      <trkpt lat="44.56786" lon="4.23846">
        <ele>457</ele>
        <time>2018-06-03T07:59:34.000Z</time>
      </trkpt>
      <trkpt lat="44.56788" lon="4.23846">
        <ele>457</ele>
        <time>2018-06-03T07:59:35.000Z</time>
      </trkpt>
      <trkpt lat="44.56791" lon="4.23846">
        <ele>457</ele>
        <time>2018-06-03T07:59:36.000Z</time>
      </trkpt>
      <trkpt lat="44.56793" lon="4.23846">
        <ele>457</ele>
        <time>2018-06-03T07:59:37.000Z</time>
      </trkpt>
      <trkpt lat="44.56795" lon="4.23846">
        <ele>457</ele>
        <time>2018-06-03T07:59:38.000Z</time>
      </trkpt>
      <trkpt lat="44.56798" lon="4.23847">
        <ele>458</ele>
        <time>2018-06-03T07:59:39.000Z</time>
      </trkpt>
      <trkpt lat="44.568" lon="4.23847">
        <ele>458</ele>
        <time>2018-06-03T07:59:40.000Z</time>
      </trkpt>
      <trkpt lat="44.56802" lon="4.23848">
        <ele>458</ele>
        <time>2018-06-03T07:59:41.000Z</time>
      </trkpt>
      <trkpt lat="44.56805" lon="4.23848">
        <ele>458</ele>
        <time>2018-06-03T07:59:42.000Z</time>
      </trkpt>
      <trkpt lat="44.56807" lon="4.23849">
        <ele>458</ele>
        <time>2018-06-03T07:59:43.000Z</time>
      </trkpt>
      <trkpt lat="44.56809" lon="4.23849">
        <ele>458</ele>
        <time>2018-06-03T07:59:44.000Z</time>
      </trkpt>
      <trkpt lat="44.56811" lon="4.2385">
        <ele>457</ele>
        <time>2018-06-03T07:59:45.000Z</time>
      </trkpt>
      <trkpt lat="44.56813" lon="4.23851">
        <ele>458</ele>
        <time>2018-06-03T07:59:46.000Z</time>
      </trkpt>
      <trkpt lat="44.56815" lon="4.23852">
        <ele>458</ele>
        <time>2018-06-03T07:59:47.000Z</time>
      </trkpt>
      <trkpt lat="44.56817" lon="4.23853">
        <ele>458</ele>
        <time>2018-06-03T07:59:48.000Z</time>
      </trkpt>
      <trkpt lat="44.56819" lon="4.23855">
        <ele>458</ele>
        <time>2018-06-03T07:59:49.000Z</time>
      </trkpt>
      <trkpt lat="44.5682" lon="4.23857">
        <ele>458</ele>
        <time>2018-06-03T07:59:50.000Z</time>
      </trkpt>
      <trkpt lat="44.56822" lon="4.23858">
        <ele>458</ele>
        <time>2018-06-03T07:59:51.000Z</time>
      </trkpt>
      <trkpt lat="44.56824" lon="4.23859">
        <ele>458</ele>
        <time>2018-06-03T07:59:52.000Z</time>
      </trkpt>
      <trkpt lat="44.56826" lon="4.2386">
        <ele>458</ele>
        <time>2018-06-03T07:59:53.000Z</time>
      </trkpt>
      <trkpt lat="44.56828" lon="4.23861">
        <ele>458</ele>
        <time>2018-06-03T07:59:54.000Z</time>
      </trkpt>
      <trkpt lat="44.5683" lon="4.23863">
        <ele>458</ele>
        <time>2018-06-03T07:59:55.000Z</time>
      </trkpt>
      <trkpt lat="44.56832" lon="4.23865">
        <ele>458</ele>
        <time>2018-06-03T07:59:56.000Z</time>
      </trkpt>
      <trkpt lat="44.56833" lon="4.23868">
        <ele>459</ele>
        <time>2018-06-03T07:59:57.000Z</time>
      </trkpt>
      <trkpt lat="44.56835" lon="4.23872">
        <ele>457</ele>
        <time>2018-06-03T07:59:58.000Z</time>
      </trkpt>
      <trkpt lat="44.56836" lon="4.23876">
        <ele>458</ele>
        <time>2018-06-03T07:59:59.000Z</time>
      </trkpt>
      <trkpt lat="44.56837" lon="4.2388">
        <ele>458</ele>
        <time>2018-06-03T08:00:00.000Z</time>
      </trkpt>
      <trkpt lat="44.56838" lon="4.23884">
        <ele>458</ele>
        <time>2018-06-03T08:00:01.000Z</time>
      </trkpt>
      <trkpt lat="44.56839" lon="4.23888">
        <ele>459</ele>
        <time>2018-06-03T08:00:02.000Z</time>
      </trkpt>
      <trkpt lat="44.56839" lon="4.23892">
        <ele>459</ele>
        <time>2018-06-03T08:00:03.000Z</time>
      </trkpt>
      <trkpt lat="44.5684" lon="4.23895">
        <ele>460</ele>
        <time>2018-06-03T08:00:04.000Z</time>
      </trkpt>
      <trkpt lat="44.56841" lon="4.23897">
        <ele>460</ele>
        <time>2018-06-03T08:00:05.000Z</time>
      </trkpt>
      <trkpt lat="44.56842" lon="4.23901">
        <ele>461</ele>
        <time>2018-06-03T08:00:06.000Z</time>
      </trkpt>
      <trkpt lat="44.56844" lon="4.23906">
        <ele>461</ele>
        <time>2018-06-03T08:00:07.000Z</time>
      </trkpt>
      <trkpt lat="44.56845" lon="4.2391">
        <ele>461</ele>
        <time>2018-06-03T08:00:08.000Z</time>
      </trkpt>
      <trkpt lat="44.56847" lon="4.23915">
        <ele>462</ele>
        <time>2018-06-03T08:00:09.000Z</time>
      </trkpt>
      <trkpt lat="44.56848" lon="4.2392">
        <ele>464</ele>
        <time>2018-06-03T08:00:10.000Z</time>
      </trkpt>
      <trkpt lat="44.5685" lon="4.23924">
        <ele>464</ele>
        <time>2018-06-03T08:00:11.000Z</time>
      </trkpt>
      <trkpt lat="44.56852" lon="4.23927">
        <ele>464</ele>
        <time>2018-06-03T08:00:12.000Z</time>
      </trkpt>
      <trkpt lat="44.56855" lon="4.2393">
        <ele>463</ele>
        <time>2018-06-03T08:00:13.000Z</time>
      </trkpt>
      <trkpt lat="44.56857" lon="4.23933">
        <ele>463</ele>
        <time>2018-06-03T08:00:14.000Z</time>
      </trkpt>
      <trkpt lat="44.5686" lon="4.23937">
        <ele>463</ele>
        <time>2018-06-03T08:00:15.000Z</time>
      </trkpt>
      <trkpt lat="44.56862" lon="4.23941">
        <ele>463</ele>
        <time>2018-06-03T08:00:16.000Z</time>
      </trkpt>
      <trkpt lat="44.56864" lon="4.23945">
        <ele>463</ele>
        <time>2018-06-03T08:00:17.000Z</time>
      </trkpt>
      <trkpt lat="44.56867" lon="4.23948">
        <ele>463</ele>
        <time>2018-06-03T08:00:18.000Z</time>
      </trkpt>
      <trkpt lat="44.56869" lon="4.23952">
        <ele>463</ele>
        <time>2018-06-03T08:00:19.000Z</time>
      </trkpt>
      <trkpt lat="44.56872" lon="4.23956">
        <ele>463</ele>
        <time>2018-06-03T08:00:20.000Z</time>
      </trkpt>
      <trkpt lat="44.56874" lon="4.23959">
        <ele>463</ele>
        <time>2018-06-03T08:00:21.000Z</time>
      </trkpt>
      <trkpt lat="44.56876" lon="4.23962">
        <ele>463</ele>
        <time>2018-06-03T08:00:22.000Z</time>
      </trkpt>
      <trkpt lat="44.56878" lon="4.23966">
        <ele>463</ele>
        <time>2018-06-03T08:00:23.000Z</time>
      </trkpt>
      <trkpt lat="44.5688" lon="4.23971">
        <ele>463</ele>
        <time>2018-06-03T08:00:24.000Z</time>
      </trkpt>
      <trkpt lat="44.56883" lon="4.23975">
        <ele>463</ele>
        <time>2018-06-03T08:00:25.000Z</time>
      </trkpt>
      <trkpt lat="44.56885" lon="4.23979">
        <ele>463</ele>
        <time>2018-06-03T08:00:26.000Z</time>
      </trkpt>
      <trkpt lat="44.56888" lon="4.23983">
        <ele>464</ele>
        <time>2018-06-03T08:00:27.000Z</time>
      </trkpt>
      <trkpt lat="44.56891" lon="4.23988">
        <ele>464</ele>
        <time>2018-06-03T08:00:28.000Z</time>
      </trkpt>
      <trkpt lat="44.56894" lon="4.23991">
        <ele>464</ele>
        <time>2018-06-03T08:00:29.000Z</time>
      </trkpt>
      <trkpt lat="44.56897" lon="4.23994">
        <ele>464</ele>
        <time>2018-06-03T08:00:30.000Z</time>
      </trkpt>
      <trkpt lat="44.56901" lon="4.23998">
        <ele>464</ele>
        <time>2018-06-03T08:00:31.000Z</time>
      </trkpt>
      <trkpt lat="44.56904" lon="4.24001">
        <ele>463</ele>
        <time>2018-06-03T08:00:32.000Z</time>
      </trkpt>
      <trkpt lat="44.56908" lon="4.24004">
        <ele>464</ele>
        <time>2018-06-03T08:00:33.000Z</time>
      </trkpt>
      <trkpt lat="44.56912" lon="4.24007">
        <ele>464</ele>
        <time>2018-06-03T08:00:34.000Z</time>
      </trkpt>
      <trkpt lat="44.56916" lon="4.24011">
        <ele>464</ele>
        <time>2018-06-03T08:00:35.000Z</time>
      </trkpt>
      <trkpt lat="44.56919" lon="4.24016">
        <ele>467</ele>
        <time>2018-06-03T08:00:36.000Z</time>
      </trkpt>
      <trkpt lat="44.56922" lon="4.24022">
        <ele>467</ele>
        <time>2018-06-03T08:00:37.000Z</time>
      </trkpt>
      <trkpt lat="44.56925" lon="4.24027">
        <ele>467</ele>
        <time>2018-06-03T08:00:38.000Z</time>
      </trkpt>
      <trkpt lat="44.56929" lon="4.24031">
        <ele>467</ele>
        <time>2018-06-03T08:00:39.000Z</time>
      </trkpt>
      <trkpt lat="44.56933" lon="4.24034">
        <ele>467</ele>
        <time>2018-06-03T08:00:40.000Z</time>
      </trkpt>
      <trkpt lat="44.56937" lon="4.24034">
        <ele>468</ele>
        <time>2018-06-03T08:00:41.000Z</time>
      </trkpt>
      <trkpt lat="44.56942" lon="4.24034">
        <ele>468</ele>
        <time>2018-06-03T08:00:42.000Z</time>
      </trkpt>
      <trkpt lat="44.56946" lon="4.24032">
        <ele>468</ele>
        <time>2018-06-03T08:00:43.000Z</time>
      </trkpt>
      <trkpt lat="44.5695" lon="4.24031">
        <ele>468</ele>
        <time>2018-06-03T08:00:44.000Z</time>
      </trkpt>
      <trkpt lat="44.56955" lon="4.24029">
        <ele>468</ele>
        <time>2018-06-03T08:00:45.000Z</time>
      </trkpt>
      <trkpt lat="44.56959" lon="4.24027">
        <ele>468</ele>
        <time>2018-06-03T08:00:46.000Z</time>
      </trkpt>
      <trkpt lat="44.56963" lon="4.24026">
        <ele>469</ele>
        <time>2018-06-03T08:00:47.000Z</time>
      </trkpt>
      <trkpt lat="44.56967" lon="4.24023">
        <ele>469</ele>
        <time>2018-06-03T08:00:48.000Z</time>
      </trkpt>
      <trkpt lat="44.56971" lon="4.24022">
        <ele>469</ele>
        <time>2018-06-03T08:00:49.000Z</time>
      </trkpt>
      <trkpt lat="44.56975" lon="4.24018">
        <ele>469</ele>
        <time>2018-06-03T08:00:50.000Z</time>
      </trkpt>
      <trkpt lat="44.56979" lon="4.24015">
        <ele>469</ele>
        <time>2018-06-03T08:00:51.000Z</time>
      </trkpt>
      <trkpt lat="44.56983" lon="4.2401">
        <ele>469</ele>
        <time>2018-06-03T08:00:52.000Z</time>
      </trkpt>
      <trkpt lat="44.56987" lon="4.24005">
        <ele>468</ele>
        <time>2018-06-03T08:00:53.000Z</time>
      </trkpt>
      <trkpt lat="44.56991" lon="4.24">
        <ele>466</ele>
        <time>2018-06-03T08:00:54.000Z</time>
      </trkpt>
      <trkpt lat="44.56995" lon="4.23994">
        <ele>467</ele>
        <time>2018-06-03T08:00:55.000Z</time>
      </trkpt>
      <trkpt lat="44.56998" lon="4.23989">
        <ele>466</ele>
        <time>2018-06-03T08:00:56.000Z</time>
      </trkpt>
      <trkpt lat="44.57002" lon="4.23983">
        <ele>468</ele>
        <time>2018-06-03T08:00:57.000Z</time>
      </trkpt>
      <trkpt lat="44.57006" lon="4.23977">
        <ele>468</ele>
        <time>2018-06-03T08:00:58.000Z</time>
      </trkpt>
      <trkpt lat="44.5701" lon="4.23971">
        <ele>468</ele>
        <time>2018-06-03T08:00:59.000Z</time>
      </trkpt>
      <trkpt lat="44.57014" lon="4.23965">
        <ele>467</ele>
        <time>2018-06-03T08:01:00.000Z</time>
      </trkpt>
      <trkpt lat="44.57018" lon="4.23959">
        <ele>467</ele>
        <time>2018-06-03T08:01:01.000Z</time>
      </trkpt>
      <trkpt lat="44.57021" lon="4.23952">
        <ele>467</ele>
        <time>2018-06-03T08:01:02.000Z</time>
      </trkpt>
      <trkpt lat="44.57024" lon="4.23945">
        <ele>466</ele>
        <time>2018-06-03T08:01:03.000Z</time>
      </trkpt>
      <trkpt lat="44.57027" lon="4.23937">
        <ele>466</ele>
        <time>2018-06-03T08:01:04.000Z</time>
      </trkpt>
      <trkpt lat="44.57029" lon="4.23929">
        <ele>465</ele>
        <time>2018-06-03T08:01:05.000Z</time>
      </trkpt>
      <trkpt lat="44.57029" lon="4.23921">
        <ele>465</ele>
        <time>2018-06-03T08:01:06.000Z</time>
      </trkpt>
      <trkpt lat="44.5703" lon="4.23912">
        <ele>459</ele>
        <time>2018-06-03T08:01:07.000Z</time>
      </trkpt>
      <trkpt lat="44.5703" lon="4.23904">
        <ele>459</ele>
        <time>2018-06-03T08:01:08.000Z</time>
      </trkpt>
      <trkpt lat="44.57031" lon="4.23895">
        <ele>459</ele>
        <time>2018-06-03T08:01:09.000Z</time>
      </trkpt>
      <trkpt lat="44.57034" lon="4.23887">
        <ele>459</ele>
        <time>2018-06-03T08:01:10.000Z</time>
      </trkpt>
      <trkpt lat="44.57037" lon="4.2388">
        <ele>459</ele>
        <time>2018-06-03T08:01:11.000Z</time>
      </trkpt>
      <trkpt lat="44.57042" lon="4.23874">
        <ele>459</ele>
        <time>2018-06-03T08:01:12.000Z</time>
      </trkpt>
      <trkpt lat="44.57047" lon="4.23869">
        <ele>459</ele>
        <time>2018-06-03T08:01:13.000Z</time>
      </trkpt>
      <trkpt lat="44.57052" lon="4.23864">
        <ele>459</ele>
        <time>2018-06-03T08:01:14.000Z</time>
      </trkpt>
      <trkpt lat="44.57056" lon="4.23859">
        <ele>459</ele>
        <time>2018-06-03T08:01:15.000Z</time>
      </trkpt>
      <trkpt lat="44.57061" lon="4.23854">
        <ele>459</ele>
        <time>2018-06-03T08:01:16.000Z</time>
      </trkpt>
      <trkpt lat="44.57065" lon="4.23849">
        <ele>459</ele>
        <time>2018-06-03T08:01:17.000Z</time>
      </trkpt>
      <trkpt lat="44.5707" lon="4.23844">
        <ele>459</ele>
        <time>2018-06-03T08:01:18.000Z</time>
      </trkpt>
      <trkpt lat="44.57074" lon="4.23839">
        <ele>459</ele>
        <time>2018-06-03T08:01:19.000Z</time>
      </trkpt>
      <trkpt lat="44.57078" lon="4.23833">
        <ele>457</ele>
        <time>2018-06-03T08:01:20.000Z</time>
      </trkpt>
      <trkpt lat="44.57082" lon="4.23827">
        <ele>457</ele>
        <time>2018-06-03T08:01:21.000Z</time>
      </trkpt>
      <trkpt lat="44.57085" lon="4.2382">
        <ele>457</ele>
        <time>2018-06-03T08:01:22.000Z</time>
      </trkpt>
      <trkpt lat="44.57089" lon="4.23813">
        <ele>457</ele>
        <time>2018-06-03T08:01:23.000Z</time>
      </trkpt>
      <trkpt lat="44.57092" lon="4.23806">
        <ele>456</ele>
        <time>2018-06-03T08:01:24.000Z</time>
      </trkpt>
      <trkpt lat="44.57096" lon="4.23799">
        <ele>455</ele>
        <time>2018-06-03T08:01:25.000Z</time>
      </trkpt>
      <trkpt lat="44.571" lon="4.23793">
        <ele>455</ele>
        <time>2018-06-03T08:01:26.000Z</time>
      </trkpt>
      <trkpt lat="44.57105" lon="4.23787">
        <ele>454</ele>
        <time>2018-06-03T08:01:27.000Z</time>
      </trkpt>
      <trkpt lat="44.5711" lon="4.23782">
        <ele>454</ele>
        <time>2018-06-03T08:01:28.000Z</time>
      </trkpt>
      <trkpt lat="44.57115" lon="4.23778">
        <ele>454</ele>
        <time>2018-06-03T08:01:29.000Z</time>
      </trkpt>
      <trkpt lat="44.57121" lon="4.23775">
        <ele>454</ele>
        <time>2018-06-03T08:01:30.000Z</time>
      </trkpt>
      <trkpt lat="44.57127" lon="4.23772">
        <ele>454</ele>
        <time>2018-06-03T08:01:31.000Z</time>
      </trkpt>
      <trkpt lat="44.57133" lon="4.2377">
        <ele>454</ele>
        <time>2018-06-03T08:01:32.000Z</time>
      </trkpt>
      <trkpt lat="44.5714" lon="4.23768">
        <ele>454</ele>
        <time>2018-06-03T08:01:33.000Z</time>
      </trkpt>
      <trkpt lat="44.57146" lon="4.23767">
        <ele>453</ele>
        <time>2018-06-03T08:01:34.000Z</time>
      </trkpt>
      <trkpt lat="44.57153" lon="4.23768">
        <ele>453</ele>
        <time>2018-06-03T08:01:35.000Z</time>
      </trkpt>
      <trkpt lat="44.5716" lon="4.2377">
        <ele>453</ele>
        <time>2018-06-03T08:01:36.000Z</time>
      </trkpt>
      <trkpt lat="44.57167" lon="4.23773">
        <ele>454</ele>
        <time>2018-06-03T08:01:37.000Z</time>
      </trkpt>
      <trkpt lat="44.57174" lon="4.23778">
        <ele>455</ele>
        <time>2018-06-03T08:01:38.000Z</time>
      </trkpt>
      <trkpt lat="44.57181" lon="4.23783">
        <ele>456</ele>
        <time>2018-06-03T08:01:39.000Z</time>
      </trkpt>
      <trkpt lat="44.57188" lon="4.23789">
        <ele>456</ele>
        <time>2018-06-03T08:01:40.000Z</time>
      </trkpt>
      <trkpt lat="44.57195" lon="4.23794">
        <ele>457</ele>
        <time>2018-06-03T08:01:41.000Z</time>
      </trkpt>
      <trkpt lat="44.57202" lon="4.23799">
        <ele>457</ele>
        <time>2018-06-03T08:01:42.000Z</time>
      </trkpt>
      <trkpt lat="44.5721" lon="4.23803">
        <ele>457</ele>
        <time>2018-06-03T08:01:43.000Z</time>
      </trkpt>
      <trkpt lat="44.57217" lon="4.23806">
        <ele>457</ele>
        <time>2018-06-03T08:01:44.000Z</time>
      </trkpt>
      <trkpt lat="44.57223" lon="4.23807">
        <ele>457</ele>
        <time>2018-06-03T08:01:45.000Z</time>
      </trkpt>
      <trkpt lat="44.57227" lon="4.23806">
        <ele>457</ele>
        <time>2018-06-03T08:01:46.000Z</time>
      </trkpt>
      <trkpt lat="44.5723" lon="4.23803">
        <ele>457</ele>
        <time>2018-06-03T08:01:47.000Z</time>
      </trkpt>
      <trkpt lat="44.57235" lon="4.238">
        <ele>456</ele>
        <time>2018-06-03T08:01:48.000Z</time>
      </trkpt>
      <trkpt lat="44.57239" lon="4.23796">
        <ele>456</ele>
        <time>2018-06-03T08:01:49.000Z</time>
      </trkpt>
      <trkpt lat="44.57242" lon="4.2379">
        <ele>455</ele>
        <time>2018-06-03T08:01:50.000Z</time>
      </trkpt>
      <trkpt lat="44.57243" lon="4.23783">
        <ele>455</ele>
        <time>2018-06-03T08:01:51.000Z</time>
      </trkpt>
      <trkpt lat="44.57243" lon="4.23775">
        <ele>454</ele>
        <time>2018-06-03T08:01:52.000Z</time>
      </trkpt>
      <trkpt lat="44.57242" lon="4.23767">
        <ele>453</ele>
        <time>2018-06-03T08:01:53.000Z</time>
      </trkpt>
      <trkpt lat="44.57241" lon="4.23759">
        <ele>452</ele>
        <time>2018-06-03T08:01:54.000Z</time>
      </trkpt>
      <trkpt lat="44.5724" lon="4.23751">
        <ele>451</ele>
        <time>2018-06-03T08:01:55.000Z</time>
      </trkpt>
      <trkpt lat="44.5724" lon="4.23743">
        <ele>449</ele>
        <time>2018-06-03T08:01:56.000Z</time>
      </trkpt>
      <trkpt lat="44.57239" lon="4.23735">
        <ele>449</ele>
        <time>2018-06-03T08:01:57.000Z</time>
      </trkpt>
      <trkpt lat="44.57239" lon="4.23728">
        <ele>449</ele>
        <time>2018-06-03T08:01:58.000Z</time>
      </trkpt>
      <trkpt lat="44.57238" lon="4.23722">
        <ele>449</ele>
        <time>2018-06-03T08:01:59.000Z</time>
      </trkpt>
      <trkpt lat="44.57238" lon="4.23716">
        <ele>449</ele>
        <time>2018-06-03T08:02:00.000Z</time>
      </trkpt>
      <trkpt lat="44.57237" lon="4.23712">
        <ele>450</ele>
        <time>2018-06-03T08:02:01.000Z</time>
      </trkpt>
      <trkpt lat="44.57237" lon="4.23707">
        <ele>450</ele>
        <time>2018-06-03T08:02:02.000Z</time>
      </trkpt>
      <trkpt lat="44.57236" lon="4.23703">
        <ele>450</ele>
        <time>2018-06-03T08:02:03.000Z</time>
      </trkpt>
      <trkpt lat="44.57236" lon="4.23699">
        <ele>450</ele>
        <time>2018-06-03T08:02:04.000Z</time>
      </trkpt>
      <trkpt lat="44.57236" lon="4.23695">
        <ele>450</ele>
        <time>2018-06-03T08:02:05.000Z</time>
      </trkpt>
      <trkpt lat="44.57236" lon="4.23691">
        <ele>450</ele>
        <time>2018-06-03T08:02:06.000Z</time>
      </trkpt>
      <trkpt lat="44.57236" lon="4.23687">
        <ele>450</ele>
        <time>2018-06-03T08:02:07.000Z</time>
      </trkpt>
      <trkpt lat="44.57236" lon="4.23683">
        <ele>451</ele>
        <time>2018-06-03T08:02:08.000Z</time>
      </trkpt>
      <trkpt lat="44.57237" lon="4.23679">
        <ele>451</ele>
        <time>2018-06-03T08:02:09.000Z</time>
      </trkpt>
      <trkpt lat="44.57237" lon="4.23675">
        <ele>451</ele>
        <time>2018-06-03T08:02:10.000Z</time>
      </trkpt>
      <trkpt lat="44.57237" lon="4.23671">
        <ele>451</ele>
        <time>2018-06-03T08:02:11.000Z</time>
      </trkpt>
      <trkpt lat="44.57237" lon="4.23667">
        <ele>451</ele>
        <time>2018-06-03T08:02:12.000Z</time>
      </trkpt>
      <trkpt lat="44.57237" lon="4.23663">
        <ele>452</ele>
        <time>2018-06-03T08:02:13.000Z</time>
      </trkpt>
      <trkpt lat="44.57238" lon="4.2366">
        <ele>452</ele>
        <time>2018-06-03T08:02:14.000Z</time>
      </trkpt>
      <trkpt lat="44.57238" lon="4.23656">
        <ele>452</ele>
        <time>2018-06-03T08:02:15.000Z</time>
      </trkpt>
      <trkpt lat="44.57238" lon="4.23652">
        <ele>452</ele>
        <time>2018-06-03T08:02:16.000Z</time>
      </trkpt>
      <trkpt lat="44.57239" lon="4.23649">
        <ele>452</ele>
        <time>2018-06-03T08:02:17.000Z</time>
      </trkpt>
      <trkpt lat="44.5724" lon="4.23645">
        <ele>452</ele>
        <time>2018-06-03T08:02:18.000Z</time>
      </trkpt>
      <trkpt lat="44.57241" lon="4.23641">
        <ele>452</ele>
        <time>2018-06-03T08:02:19.000Z</time>
      </trkpt>
      <trkpt lat="44.57241" lon="4.23637">
        <ele>452</ele>
        <time>2018-06-03T08:02:20.000Z</time>
      </trkpt>
      <trkpt lat="44.57241" lon="4.23633">
        <ele>452</ele>
        <time>2018-06-03T08:02:21.000Z</time>
      </trkpt>
      <trkpt lat="44.57242" lon="4.23628">
        <ele>453</ele>
        <time>2018-06-03T08:02:22.000Z</time>
      </trkpt>
      <trkpt lat="44.57242" lon="4.23623">
        <ele>453</ele>
        <time>2018-06-03T08:02:23.000Z</time>
      </trkpt>
      <trkpt lat="44.57241" lon="4.23617">
        <ele>453</ele>
        <time>2018-06-03T08:02:24.000Z</time>
      </trkpt>
      <trkpt lat="44.57241" lon="4.23612">
        <ele>453</ele>
        <time>2018-06-03T08:02:25.000Z</time>
      </trkpt>
      <trkpt lat="44.57241" lon="4.23607">
        <ele>454</ele>
        <time>2018-06-03T08:02:26.000Z</time>
      </trkpt>
      <trkpt lat="44.5724" lon="4.23602">
        <ele>454</ele>
        <time>2018-06-03T08:02:27.000Z</time>
      </trkpt>
      <trkpt lat="44.5724" lon="4.23597">
        <ele>455</ele>
        <time>2018-06-03T08:02:28.000Z</time>
      </trkpt>
      <trkpt lat="44.5724" lon="4.23592">
        <ele>456</ele>
        <time>2018-06-03T08:02:29.000Z</time>
      </trkpt>
      <trkpt lat="44.57239" lon="4.23586">
        <ele>456</ele>
        <time>2018-06-03T08:02:30.000Z</time>
      </trkpt>
      <trkpt lat="44.57239" lon="4.23581">
        <ele>457</ele>
        <time>2018-06-03T08:02:31.000Z</time>
      </trkpt>
      <trkpt lat="44.57239" lon="4.23575">
        <ele>457</ele>
        <time>2018-06-03T08:02:32.000Z</time>
      </trkpt>
      <trkpt lat="44.57238" lon="4.2357">
        <ele>456</ele>
        <time>2018-06-03T08:02:33.000Z</time>
      </trkpt>
      <trkpt lat="44.57238" lon="4.23564">
        <ele>456</ele>
        <time>2018-06-03T08:02:34.000Z</time>
      </trkpt>
      <trkpt lat="44.57238" lon="4.23559">
        <ele>456</ele>
        <time>2018-06-03T08:02:35.000Z</time>
      </trkpt>
      <trkpt lat="44.57238" lon="4.23553">
        <ele>456</ele>
        <time>2018-06-03T08:02:36.000Z</time>
      </trkpt>
      <trkpt lat="44.57237" lon="4.23547">
        <ele>456</ele>
        <time>2018-06-03T08:02:37.000Z</time>
      </trkpt>
      <trkpt lat="44.57237" lon="4.23542">
        <ele>456</ele>
        <time>2018-06-03T08:02:38.000Z</time>
      </trkpt>
      <trkpt lat="44.57237" lon="4.23536">
        <ele>456</ele>
        <time>2018-06-03T08:02:39.000Z</time>
      </trkpt>
      <trkpt lat="44.57236" lon="4.23531">
        <ele>456</ele>
        <time>2018-06-03T08:02:40.000Z</time>
      </trkpt>
      <trkpt lat="44.57236" lon="4.23525">
        <ele>456</ele>
        <time>2018-06-03T08:02:41.000Z</time>
      </trkpt>
      <trkpt lat="44.57236" lon="4.23519">
        <ele>457</ele>
        <time>2018-06-03T08:02:42.000Z</time>
      </trkpt>
      <trkpt lat="44.57236" lon="4.23513">
        <ele>457</ele>
        <time>2018-06-03T08:02:43.000Z</time>
      </trkpt>
      <trkpt lat="44.57236" lon="4.23508">
        <ele>458</ele>
        <time>2018-06-03T08:02:44.000Z</time>
      </trkpt>
      <trkpt lat="44.57237" lon="4.23502">
        <ele>458</ele>
        <time>2018-06-03T08:02:45.000Z</time>
      </trkpt>
      <trkpt lat="44.57237" lon="4.23496">
        <ele>458</ele>
        <time>2018-06-03T08:02:46.000Z</time>
      </trkpt>
      <trkpt lat="44.57237" lon="4.2349">
        <ele>458</ele>
        <time>2018-06-03T08:02:47.000Z</time>
      </trkpt>
      <trkpt lat="44.57238" lon="4.23484">
        <ele>457</ele>
        <time>2018-06-03T08:02:48.000Z</time>
      </trkpt>
      <trkpt lat="44.57239" lon="4.23478">
        <ele>457</ele>
        <time>2018-06-03T08:02:49.000Z</time>
      </trkpt>
      <trkpt lat="44.57239" lon="4.23472">
        <ele>457</ele>
        <time>2018-06-03T08:02:50.000Z</time>
      </trkpt>
      <trkpt lat="44.5724" lon="4.23466">
        <ele>457</ele>
        <time>2018-06-03T08:02:51.000Z</time>
      </trkpt>
      <trkpt lat="44.57241" lon="4.2346">
        <ele>457</ele>
        <time>2018-06-03T08:02:52.000Z</time>
      </trkpt>
      <trkpt lat="44.57243" lon="4.23454">
        <ele>457</ele>
        <time>2018-06-03T08:02:53.000Z</time>
      </trkpt>
      <trkpt lat="44.57244" lon="4.23448">
        <ele>457</ele>
        <time>2018-06-03T08:02:54.000Z</time>
      </trkpt>
      <trkpt lat="44.57245" lon="4.23442">
        <ele>457</ele>
        <time>2018-06-03T08:02:55.000Z</time>
      </trkpt>
      <trkpt lat="44.57246" lon="4.23436">
        <ele>457</ele>
        <time>2018-06-03T08:02:56.000Z</time>
      </trkpt>
      <trkpt lat="44.57248" lon="4.2343">
        <ele>457</ele>
        <time>2018-06-03T08:02:57.000Z</time>
      </trkpt>
      <trkpt lat="44.57249" lon="4.23424">
        <ele>458</ele>
        <time>2018-06-03T08:02:58.000Z</time>
      </trkpt>
      <trkpt lat="44.57251" lon="4.23418">
        <ele>459</ele>
        <time>2018-06-03T08:02:59.000Z</time>
      </trkpt>
      <trkpt lat="44.57252" lon="4.23411">
        <ele>460</ele>
        <time>2018-06-03T08:03:00.000Z</time>
      </trkpt>
      <trkpt lat="44.57254" lon="4.23405">
        <ele>461</ele>
        <time>2018-06-03T08:03:01.000Z</time>
      </trkpt>
      <trkpt lat="44.57256" lon="4.23399">
        <ele>462</ele>
        <time>2018-06-03T08:03:02.000Z</time>
      </trkpt>
      <trkpt lat="44.57257" lon="4.23392">
        <ele>462</ele>
        <time>2018-06-03T08:03:03.000Z</time>
      </trkpt>
      <trkpt lat="44.57259" lon="4.23386">
        <ele>462</ele>
        <time>2018-06-03T08:03:04.000Z</time>
      </trkpt>
      <trkpt lat="44.57261" lon="4.2338">
        <ele>463</ele>
        <time>2018-06-03T08:03:05.000Z</time>
      </trkpt>
      <trkpt lat="44.57262" lon="4.23373">
        <ele>463</ele>
        <time>2018-06-03T08:03:06.000Z</time>
      </trkpt>
      <trkpt lat="44.57264" lon="4.23367">
        <ele>463</ele>
        <time>2018-06-03T08:03:07.000Z</time>
      </trkpt>
      <trkpt lat="44.57266" lon="4.2336">
        <ele>462</ele>
        <time>2018-06-03T08:03:08.000Z</time>
      </trkpt>
      <trkpt lat="44.57268" lon="4.23354">
        <ele>462</ele>
        <time>2018-06-03T08:03:09.000Z</time>
      </trkpt>
      <trkpt lat="44.5727" lon="4.23347">
        <ele>462</ele>
        <time>2018-06-03T08:03:10.000Z</time>
      </trkpt>
      <trkpt lat="44.57271" lon="4.23341">
        <ele>462</ele>
        <time>2018-06-03T08:03:11.000Z</time>
      </trkpt>
      <trkpt lat="44.57273" lon="4.23334">
        <ele>462</ele>
        <time>2018-06-03T08:03:12.000Z</time>
      </trkpt>
      <trkpt lat="44.57274" lon="4.23327">
        <ele>462</ele>
        <time>2018-06-03T08:03:13.000Z</time>
      </trkpt>
      <trkpt lat="44.57275" lon="4.2332">
        <ele>462</ele>
        <time>2018-06-03T08:03:14.000Z</time>
      </trkpt>
      <trkpt lat="44.57276" lon="4.23313">
        <ele>462</ele>
        <time>2018-06-03T08:03:15.000Z</time>
      </trkpt>
      <trkpt lat="44.57277" lon="4.23307">
        <ele>462</ele>
        <time>2018-06-03T08:03:16.000Z</time>
      </trkpt>
      <trkpt lat="44.57277" lon="4.233">
        <ele>462</ele>
        <time>2018-06-03T08:03:17.000Z</time>
      </trkpt>
      <trkpt lat="44.57278" lon="4.23293">
        <ele>462</ele>
        <time>2018-06-03T08:03:18.000Z</time>
      </trkpt>
      <trkpt lat="44.57279" lon="4.23286">
        <ele>462</ele>
        <time>2018-06-03T08:03:19.000Z</time>
      </trkpt>
      <trkpt lat="44.57279" lon="4.2328">
        <ele>462</ele>
        <time>2018-06-03T08:03:20.000Z</time>
      </trkpt>
      <trkpt lat="44.57281" lon="4.23274">
        <ele>462</ele>
        <time>2018-06-03T08:03:21.000Z</time>
      </trkpt>
      <trkpt lat="44.57282" lon="4.23268">
        <ele>462</ele>
        <time>2018-06-03T08:03:22.000Z</time>
      </trkpt>
      <trkpt lat="44.57283" lon="4.23262">
        <ele>462</ele>
        <time>2018-06-03T08:03:23.000Z</time>
      </trkpt>
      <trkpt lat="44.57285" lon="4.23257">
        <ele>462</ele>
        <time>2018-06-03T08:03:24.000Z</time>
      </trkpt>
      <trkpt lat="44.57286" lon="4.23252">
        <ele>463</ele>
        <time>2018-06-03T08:03:25.000Z</time>
      </trkpt>
      <trkpt lat="44.57288" lon="4.23247">
        <ele>463</ele>
        <time>2018-06-03T08:03:26.000Z</time>
      </trkpt>
      <trkpt lat="44.5729" lon="4.23242">
        <ele>463</ele>
        <time>2018-06-03T08:03:27.000Z</time>
      </trkpt>
      <trkpt lat="44.57291" lon="4.23238">
        <ele>464</ele>
        <time>2018-06-03T08:03:28.000Z</time>
      </trkpt>
      <trkpt lat="44.57293" lon="4.23234">
        <ele>464</ele>
        <time>2018-06-03T08:03:29.000Z</time>
      </trkpt>
      <trkpt lat="44.57295" lon="4.2323">
        <ele>464</ele>
        <time>2018-06-03T08:03:30.000Z</time>
      </trkpt>
      <trkpt lat="44.57297" lon="4.23226">
        <ele>464</ele>
        <time>2018-06-03T08:03:31.000Z</time>
      </trkpt>
      <trkpt lat="44.57299" lon="4.23222">
        <ele>464</ele>
        <time>2018-06-03T08:03:32.000Z</time>
      </trkpt>
      <trkpt lat="44.57301" lon="4.23218">
        <ele>465</ele>
        <time>2018-06-03T08:03:33.000Z</time>
      </trkpt>
      <trkpt lat="44.57303" lon="4.23213">
        <ele>465</ele>
        <time>2018-06-03T08:03:34.000Z</time>
      </trkpt>
      <trkpt lat="44.57305" lon="4.23209">
        <ele>465</ele>
        <time>2018-06-03T08:03:35.000Z</time>
      </trkpt>
      <trkpt lat="44.57307" lon="4.23205">
        <ele>465</ele>
        <time>2018-06-03T08:03:36.000Z</time>
      </trkpt>
      <trkpt lat="44.57309" lon="4.23201">
        <ele>465</ele>
        <time>2018-06-03T08:03:37.000Z</time>
      </trkpt>
      <trkpt lat="44.57311" lon="4.23197">
        <ele>465</ele>
        <time>2018-06-03T08:03:38.000Z</time>
      </trkpt>
      <trkpt lat="44.57312" lon="4.23192">
        <ele>466</ele>
        <time>2018-06-03T08:03:39.000Z</time>
      </trkpt>
      <trkpt lat="44.57314" lon="4.23188">
        <ele>466</ele>
        <time>2018-06-03T08:03:40.000Z</time>
      </trkpt>
      <trkpt lat="44.57316" lon="4.23184">
        <ele>466</ele>
        <time>2018-06-03T08:03:41.000Z</time>
      </trkpt>
      <trkpt lat="44.57317" lon="4.23179">
        <ele>467</ele>
        <time>2018-06-03T08:03:42.000Z</time>
      </trkpt>
      <trkpt lat="44.57318" lon="4.23175">
        <ele>467</ele>
        <time>2018-06-03T08:03:43.000Z</time>
      </trkpt>
      <trkpt lat="44.57319" lon="4.2317">
        <ele>467</ele>
        <time>2018-06-03T08:03:44.000Z</time>
      </trkpt>
      <trkpt lat="44.5732" lon="4.23165">
        <ele>469</ele>
        <time>2018-06-03T08:03:45.000Z</time>
      </trkpt>
      <trkpt lat="44.57321" lon="4.2316">
        <ele>469</ele>
        <time>2018-06-03T08:03:46.000Z</time>
      </trkpt>
      <trkpt lat="44.57321" lon="4.23156">
        <ele>469</ele>
        <time>2018-06-03T08:03:47.000Z</time>
      </trkpt>
      <trkpt lat="44.57322" lon="4.23151">
        <ele>469</ele>
        <time>2018-06-03T08:03:48.000Z</time>
      </trkpt>
      <trkpt lat="44.57323" lon="4.23146">
        <ele>469</ele>
        <time>2018-06-03T08:03:49.000Z</time>
      </trkpt>
      <trkpt lat="44.57323" lon="4.23141">
        <ele>469</ele>
        <time>2018-06-03T08:03:50.000Z</time>
      </trkpt>
      <trkpt lat="44.57324" lon="4.23137">
        <ele>469</ele>
        <time>2018-06-03T08:03:51.000Z</time>
      </trkpt>
      <trkpt lat="44.57325" lon="4.23132">
        <ele>469</ele>
        <time>2018-06-03T08:03:52.000Z</time>
      </trkpt>
      <trkpt lat="44.57326" lon="4.23128">
        <ele>469</ele>
        <time>2018-06-03T08:03:53.000Z</time>
      </trkpt>
      <trkpt lat="44.57327" lon="4.23123">
        <ele>470</ele>
        <time>2018-06-03T08:03:54.000Z</time>
      </trkpt>
      <trkpt lat="44.57327" lon="4.23119">
        <ele>470</ele>
        <time>2018-06-03T08:03:55.000Z</time>
      </trkpt>
      <trkpt lat="44.57328" lon="4.23114">
        <ele>470</ele>
        <time>2018-06-03T08:03:56.000Z</time>
      </trkpt>
      <trkpt lat="44.57329" lon="4.2311">
        <ele>471</ele>
        <time>2018-06-03T08:03:57.000Z</time>
      </trkpt>
      <trkpt lat="44.5733" lon="4.23106">
        <ele>471</ele>
        <time>2018-06-03T08:03:58.000Z</time>
      </trkpt>
      <trkpt lat="44.57331" lon="4.23102">
        <ele>472</ele>
        <time>2018-06-03T08:03:59.000Z</time>
      </trkpt>
      <trkpt lat="44.57331" lon="4.23098">
        <ele>473</ele>
        <time>2018-06-03T08:04:00.000Z</time>
      </trkpt>
      <trkpt lat="44.57332" lon="4.23094">
        <ele>474</ele>
        <time>2018-06-03T08:04:01.000Z</time>
      </trkpt>
      <trkpt lat="44.57333" lon="4.2309">
        <ele>475</ele>
        <time>2018-06-03T08:04:02.000Z</time>
      </trkpt>
      <trkpt lat="44.57334" lon="4.23086">
        <ele>478</ele>
        <time>2018-06-03T08:04:03.000Z</time>
      </trkpt>
      <trkpt lat="44.57335" lon="4.23081">
        <ele>478</ele>
        <time>2018-06-03T08:04:04.000Z</time>
      </trkpt>
      <trkpt lat="44.57336" lon="4.23077">
        <ele>480</ele>
        <time>2018-06-03T08:04:05.000Z</time>
      </trkpt>
      <trkpt lat="44.57337" lon="4.23073">
        <ele>481</ele>
        <time>2018-06-03T08:04:06.000Z</time>
      </trkpt>
      <trkpt lat="44.57338" lon="4.23069">
        <ele>483</ele>
        <time>2018-06-03T08:04:07.000Z</time>
      </trkpt>
      <trkpt lat="44.57339" lon="4.23065">
        <ele>483</ele>
        <time>2018-06-03T08:04:08.000Z</time>
      </trkpt>
      <trkpt lat="44.5734" lon="4.2306">
        <ele>484</ele>
        <time>2018-06-03T08:04:09.000Z</time>
      </trkpt>
      <trkpt lat="44.57341" lon="4.23056">
        <ele>485</ele>
        <time>2018-06-03T08:04:10.000Z</time>
      </trkpt>
      <trkpt lat="44.57342" lon="4.23052">
        <ele>485</ele>
        <time>2018-06-03T08:04:11.000Z</time>
      </trkpt>
      <trkpt lat="44.57344" lon="4.23048">
        <ele>486</ele>
        <time>2018-06-03T08:04:12.000Z</time>
      </trkpt>
      <trkpt lat="44.57344" lon="4.23043">
        <ele>486</ele>
        <time>2018-06-03T08:04:13.000Z</time>
      </trkpt>
      <trkpt lat="44.57346" lon="4.23038">
        <ele>486</ele>
        <time>2018-06-03T08:04:14.000Z</time>
      </trkpt>
      <trkpt lat="44.57346" lon="4.23034">
        <ele>486</ele>
        <time>2018-06-03T08:04:15.000Z</time>
      </trkpt>
      <trkpt lat="44.57347" lon="4.23028">
        <ele>486</ele>
        <time>2018-06-03T08:04:16.000Z</time>
      </trkpt>
      <trkpt lat="44.57347" lon="4.23023">
        <ele>486</ele>
        <time>2018-06-03T08:04:17.000Z</time>
      </trkpt>
      <trkpt lat="44.57347" lon="4.23018">
        <ele>485</ele>
        <time>2018-06-03T08:04:18.000Z</time>
      </trkpt>
      <trkpt lat="44.57347" lon="4.23014">
        <ele>485</ele>
        <time>2018-06-03T08:04:19.000Z</time>
      </trkpt>
      <trkpt lat="44.57346" lon="4.23009">
        <ele>484</ele>
        <time>2018-06-03T08:04:20.000Z</time>
      </trkpt>
      <trkpt lat="44.57346" lon="4.23006">
        <ele>484</ele>
        <time>2018-06-03T08:04:21.000Z</time>
      </trkpt>
      <trkpt lat="44.57345" lon="4.23002">
        <ele>483</ele>
        <time>2018-06-03T08:04:22.000Z</time>
      </trkpt>
      <trkpt lat="44.57345" lon="4.22998">
        <ele>484</ele>
        <time>2018-06-03T08:04:23.000Z</time>
      </trkpt>
      <trkpt lat="44.57346" lon="4.22996">
        <ele>485</ele>
        <time>2018-06-03T08:04:24.000Z</time>
      </trkpt>
      <trkpt lat="44.57348" lon="4.22995">
        <ele>485</ele>
        <time>2018-06-03T08:04:25.000Z</time>
      </trkpt>
      <trkpt lat="44.57349" lon="4.22996">
        <ele>486</ele>
        <time>2018-06-03T08:04:26.000Z</time>
      </trkpt>
      <trkpt lat="44.5735" lon="4.22998">
        <ele>486</ele>
        <time>2018-06-03T08:04:27.000Z</time>
      </trkpt>
      <trkpt lat="44.57351" lon="4.23001">
        <ele>485</ele>
        <time>2018-06-03T08:04:28.000Z</time>
      </trkpt>
      <trkpt lat="44.57351" lon="4.23004">
        <ele>485</ele>
        <time>2018-06-03T08:04:29.000Z</time>
      </trkpt>
      <trkpt lat="44.57352" lon="4.23007">
        <ele>485</ele>
        <time>2018-06-03T08:04:30.000Z</time>
      </trkpt>
      <trkpt lat="44.57352" lon="4.2301">
        <ele>485</ele>
        <time>2018-06-03T08:04:31.000Z</time>
      </trkpt>
      <trkpt lat="44.57353" lon="4.23013">
        <ele>486</ele>
        <time>2018-06-03T08:04:32.000Z</time>
      </trkpt>
      <trkpt lat="44.57354" lon="4.23016">
        <ele>486</ele>
        <time>2018-06-03T08:04:33.000Z</time>
      </trkpt>
      <trkpt lat="44.57355" lon="4.23019">
        <ele>486</ele>
        <time>2018-06-03T08:04:34.000Z</time>
      </trkpt>
      <trkpt lat="44.57356" lon="4.23023">
        <ele>487</ele>
        <time>2018-06-03T08:04:35.000Z</time>
      </trkpt>
      <trkpt lat="44.57357" lon="4.23026">
        <ele>487</ele>
        <time>2018-06-03T08:04:36.000Z</time>
      </trkpt>
      <trkpt lat="44.57358" lon="4.2303">
        <ele>487</ele>
        <time>2018-06-03T08:04:37.000Z</time>
      </trkpt>
      <trkpt lat="44.57359" lon="4.23033">
        <ele>488</ele>
        <time>2018-06-03T08:04:38.000Z</time>
      </trkpt>
      <trkpt lat="44.5736" lon="4.23036">
        <ele>488</ele>
        <time>2018-06-03T08:04:39.000Z</time>
      </trkpt>
      <trkpt lat="44.57361" lon="4.23039">
        <ele>488</ele>
        <time>2018-06-03T08:04:40.000Z</time>
      </trkpt>
      <trkpt lat="44.57362" lon="4.23043">
        <ele>488</ele>
        <time>2018-06-03T08:04:41.000Z</time>
      </trkpt>
      <trkpt lat="44.57363" lon="4.23046">
        <ele>488</ele>
        <time>2018-06-03T08:04:42.000Z</time>
      </trkpt>
      <trkpt lat="44.57364" lon="4.23049">
        <ele>488</ele>
        <time>2018-06-03T08:04:43.000Z</time>
      </trkpt>
      <trkpt lat="44.57364" lon="4.23052">
        <ele>488</ele>
        <time>2018-06-03T08:04:44.000Z</time>
      </trkpt>
      <trkpt lat="44.57364" lon="4.23056">
        <ele>488</ele>
        <time>2018-06-03T08:04:45.000Z</time>
      </trkpt>
      <trkpt lat="44.57364" lon="4.23059">
        <ele>488</ele>
        <time>2018-06-03T08:04:46.000Z</time>
      </trkpt>
      <trkpt lat="44.57364" lon="4.23062">
        <ele>488</ele>
        <time>2018-06-03T08:04:47.000Z</time>
      </trkpt>
      <trkpt lat="44.57364" lon="4.23065">
        <ele>488</ele>
        <time>2018-06-03T08:04:48.000Z</time>
      </trkpt>
      <trkpt lat="44.57364" lon="4.23069">
        <ele>487</ele>
        <time>2018-06-03T08:04:49.000Z</time>
      </trkpt>
      <trkpt lat="44.57364" lon="4.23072">
        <ele>487</ele>
        <time>2018-06-03T08:04:50.000Z</time>
      </trkpt>
      <trkpt lat="44.57365" lon="4.23075">
        <ele>487</ele>
        <time>2018-06-03T08:04:51.000Z</time>
      </trkpt>
      <trkpt lat="44.57366" lon="4.23078">
        <ele>488</ele>
        <time>2018-06-03T08:04:52.000Z</time>
      </trkpt>
      <trkpt lat="44.57366" lon="4.23081">
        <ele>488</ele>
        <time>2018-06-03T08:04:53.000Z</time>
      </trkpt>
      <trkpt lat="44.57367" lon="4.23084">
        <ele>485</ele>
        <time>2018-06-03T08:04:54.000Z</time>
      </trkpt>
      <trkpt lat="44.57369" lon="4.23087">
        <ele>485</ele>
        <time>2018-06-03T08:04:55.000Z</time>
      </trkpt>
      <trkpt lat="44.5737" lon="4.2309">
        <ele>485</ele>
        <time>2018-06-03T08:04:56.000Z</time>
      </trkpt>
      <trkpt lat="44.57371" lon="4.23092">
        <ele>486</ele>
        <time>2018-06-03T08:04:57.000Z</time>
      </trkpt>
      <trkpt lat="44.57373" lon="4.23095">
        <ele>486</ele>
        <time>2018-06-03T08:04:58.000Z</time>
      </trkpt>
      <trkpt lat="44.57374" lon="4.23097">
        <ele>486</ele>
        <time>2018-06-03T08:04:59.000Z</time>
      </trkpt>
      <trkpt lat="44.57376" lon="4.23099">
        <ele>487</ele>
        <time>2018-06-03T08:05:00.000Z</time>
      </trkpt>
      <trkpt lat="44.57378" lon="4.231">
        <ele>487</ele>
        <time>2018-06-03T08:05:01.000Z</time>
      </trkpt>
      <trkpt lat="44.5738" lon="4.23102">
        <ele>487</ele>
        <time>2018-06-03T08:05:02.000Z</time>
      </trkpt>
      <trkpt lat="44.57382" lon="4.23104">
        <ele>487</ele>
        <time>2018-06-03T08:05:03.000Z</time>
      </trkpt>
      <trkpt lat="44.57384" lon="4.23106">
        <ele>487</ele>
        <time>2018-06-03T08:05:04.000Z</time>
      </trkpt>
      <trkpt lat="44.57385" lon="4.23109">
        <ele>488</ele>
        <time>2018-06-03T08:05:05.000Z</time>
      </trkpt>
      <trkpt lat="44.57387" lon="4.23111">
        <ele>488</ele>
        <time>2018-06-03T08:05:06.000Z</time>
      </trkpt>
      <trkpt lat="44.57389" lon="4.23113">
        <ele>488</ele>
        <time>2018-06-03T08:05:07.000Z</time>
      </trkpt>
      <trkpt lat="44.57391" lon="4.23115">
        <ele>488</ele>
        <time>2018-06-03T08:05:08.000Z</time>
      </trkpt>
      <trkpt lat="44.57392" lon="4.23118">
        <ele>488</ele>
        <time>2018-06-03T08:05:09.000Z</time>
      </trkpt>
      <trkpt lat="44.57394" lon="4.2312">
        <ele>488</ele>
        <time>2018-06-03T08:05:10.000Z</time>
      </trkpt>
      <trkpt lat="44.57396" lon="4.23122">
        <ele>488</ele>
        <time>2018-06-03T08:05:11.000Z</time>
      </trkpt>
      <trkpt lat="44.57397" lon="4.23124">
        <ele>488</ele>
        <time>2018-06-03T08:05:12.000Z</time>
      </trkpt>
      <trkpt lat="44.57399" lon="4.23127">
        <ele>488</ele>
        <time>2018-06-03T08:05:13.000Z</time>
      </trkpt>
      <trkpt lat="44.57401" lon="4.23129">
        <ele>488</ele>
        <time>2018-06-03T08:05:14.000Z</time>
      </trkpt>
      <trkpt lat="44.57402" lon="4.23131">
        <ele>488</ele>
        <time>2018-06-03T08:05:15.000Z</time>
      </trkpt>
      <trkpt lat="44.57404" lon="4.23134">
        <ele>488</ele>
        <time>2018-06-03T08:05:16.000Z</time>
      </trkpt>
      <trkpt lat="44.57405" lon="4.23136">
        <ele>488</ele>
        <time>2018-06-03T08:05:17.000Z</time>
      </trkpt>
      <trkpt lat="44.57407" lon="4.23138">
        <ele>488</ele>
        <time>2018-06-03T08:05:18.000Z</time>
      </trkpt>
      <trkpt lat="44.57409" lon="4.23139">
        <ele>488</ele>
        <time>2018-06-03T08:05:19.000Z</time>
      </trkpt>
      <trkpt lat="44.57411" lon="4.23141">
        <ele>488</ele>
        <time>2018-06-03T08:05:20.000Z</time>
      </trkpt>
      <trkpt lat="44.57412" lon="4.23143">
        <ele>488</ele>
        <time>2018-06-03T08:05:21.000Z</time>
      </trkpt>
      <trkpt lat="44.57414" lon="4.23144">
        <ele>488</ele>
        <time>2018-06-03T08:05:22.000Z</time>
      </trkpt>
      <trkpt lat="44.57416" lon="4.23146">
        <ele>489</ele>
        <time>2018-06-03T08:05:23.000Z</time>
      </trkpt>
      <trkpt lat="44.57418" lon="4.23148">
        <ele>501</ele>
        <time>2018-06-03T08:05:24.000Z</time>
      </trkpt>
      <trkpt lat="44.5742" lon="4.23149">
        <ele>501</ele>
        <time>2018-06-03T08:05:25.000Z</time>
      </trkpt>
      <trkpt lat="44.57422" lon="4.23151">
        <ele>500</ele>
        <time>2018-06-03T08:05:26.000Z</time>
      </trkpt>
      <trkpt lat="44.57424" lon="4.23153">
        <ele>500</ele>
        <time>2018-06-03T08:05:27.000Z</time>
      </trkpt>
      <trkpt lat="44.57425" lon="4.23155">
        <ele>500</ele>
        <time>2018-06-03T08:05:28.000Z</time>
      </trkpt>
      <trkpt lat="44.57427" lon="4.23157">
        <ele>500</ele>
        <time>2018-06-03T08:05:29.000Z</time>
      </trkpt>
      <trkpt lat="44.57429" lon="4.23159">
        <ele>500</ele>
        <time>2018-06-03T08:05:30.000Z</time>
      </trkpt>
      <trkpt lat="44.57431" lon="4.2316">
        <ele>501</ele>
        <time>2018-06-03T08:05:31.000Z</time>
      </trkpt>
      <trkpt lat="44.57433" lon="4.23161">
        <ele>501</ele>
        <time>2018-06-03T08:05:32.000Z</time>
      </trkpt>
      <trkpt lat="44.57435" lon="4.23162">
        <ele>502</ele>
        <time>2018-06-03T08:05:33.000Z</time>
      </trkpt>
      <trkpt lat="44.57437" lon="4.23163">
        <ele>503</ele>
        <time>2018-06-03T08:05:34.000Z</time>
      </trkpt>
      <trkpt lat="44.57439" lon="4.23165">
        <ele>503</ele>
        <time>2018-06-03T08:05:35.000Z</time>
      </trkpt>
      <trkpt lat="44.57441" lon="4.23167">
        <ele>500</ele>
        <time>2018-06-03T08:05:36.000Z</time>
      </trkpt>
      <trkpt lat="44.57443" lon="4.2317">
        <ele>500</ele>
        <time>2018-06-03T08:05:37.000Z</time>
      </trkpt>
      <trkpt lat="44.57444" lon="4.23173">
        <ele>501</ele>
        <time>2018-06-03T08:05:38.000Z</time>
      </trkpt>
      <trkpt lat="44.57444" lon="4.23177">
        <ele>501</ele>
        <time>2018-06-03T08:05:39.000Z</time>
      </trkpt>
      <trkpt lat="44.57444" lon="4.2318">
        <ele>501</ele>
        <time>2018-06-03T08:05:40.000Z</time>
      </trkpt>
      <trkpt lat="44.57443" lon="4.23182">
        <ele>501</ele>
        <time>2018-06-03T08:05:41.000Z</time>
      </trkpt>
      <trkpt lat="44.57443" lon="4.23184">
        <ele>501</ele>
        <time>2018-06-03T08:05:42.000Z</time>
      </trkpt>
      <trkpt lat="44.57442" lon="4.23186">
        <ele>501</ele>
        <time>2018-06-03T08:05:43.000Z</time>
      </trkpt>
      <trkpt lat="44.57441" lon="4.23188">
        <ele>501</ele>
        <time>2018-06-03T08:05:44.000Z</time>
      </trkpt>
      <trkpt lat="44.5744" lon="4.23189">
        <ele>501</ele>
        <time>2018-06-03T08:05:45.000Z</time>
      </trkpt>
      <trkpt lat="44.57439" lon="4.23192">
        <ele>501</ele>
        <time>2018-06-03T08:05:46.000Z</time>
      </trkpt>
      <trkpt lat="44.57438" lon="4.23195">
        <ele>501</ele>
        <time>2018-06-03T08:05:47.000Z</time>
      </trkpt>
      <trkpt lat="44.57438" lon="4.23199">
        <ele>501</ele>
        <time>2018-06-03T08:05:48.000Z</time>
      </trkpt>
      <trkpt lat="44.57437" lon="4.23202">
        <ele>501</ele>
        <time>2018-06-03T08:05:49.000Z</time>
      </trkpt>
      <trkpt lat="44.57436" lon="4.23205">
        <ele>501</ele>
        <time>2018-06-03T08:05:50.000Z</time>
      </trkpt>
      <trkpt lat="44.57436" lon="4.23208">
        <ele>500</ele>
        <time>2018-06-03T08:05:51.000Z</time>
      </trkpt>
      <trkpt lat="44.57435" lon="4.23212">
        <ele>500</ele>
        <time>2018-06-03T08:05:52.000Z</time>
      </trkpt>
      <trkpt lat="44.57435" lon="4.23215">
        <ele>500</ele>
        <time>2018-06-03T08:05:53.000Z</time>
      </trkpt>
      <trkpt lat="44.57435" lon="4.23218">
        <ele>500</ele>
        <time>2018-06-03T08:05:54.000Z</time>
      </trkpt>
      <trkpt lat="44.57436" lon="4.23221">
        <ele>500</ele>
        <time>2018-06-03T08:05:55.000Z</time>
      </trkpt>
      <trkpt lat="44.57436" lon="4.23225">
        <ele>500</ele>
        <time>2018-06-03T08:05:56.000Z</time>
      </trkpt>
      <trkpt lat="44.57437" lon="4.23228">
        <ele>499</ele>
        <time>2018-06-03T08:05:57.000Z</time>
      </trkpt>
      <trkpt lat="44.57438" lon="4.23231">
        <ele>499</ele>
        <time>2018-06-03T08:05:58.000Z</time>
      </trkpt>
      <trkpt lat="44.57439" lon="4.23235">
        <ele>499</ele>
        <time>2018-06-03T08:05:59.000Z</time>
      </trkpt>
      <trkpt lat="44.5744" lon="4.23237">
        <ele>499</ele>
        <time>2018-06-03T08:06:00.000Z</time>
      </trkpt>
      <trkpt lat="44.57441" lon="4.2324">
        <ele>499</ele>
        <time>2018-06-03T08:06:01.000Z</time>
      </trkpt>
      <trkpt lat="44.57442" lon="4.23242">
        <ele>499</ele>
        <time>2018-06-03T08:06:02.000Z</time>
      </trkpt>
      <trkpt lat="44.57443" lon="4.23244">
        <ele>500</ele>
        <time>2018-06-03T08:06:03.000Z</time>
      </trkpt>
      <trkpt lat="44.57445" lon="4.23246">
        <ele>500</ele>
        <time>2018-06-03T08:06:04.000Z</time>
      </trkpt>
      <trkpt lat="44.57446" lon="4.23249">
        <ele>500</ele>
        <time>2018-06-03T08:06:05.000Z</time>
      </trkpt>
      <trkpt lat="44.57448" lon="4.23252">
        <ele>499</ele>
        <time>2018-06-03T08:06:06.000Z</time>
      </trkpt>
      <trkpt lat="44.57449" lon="4.23255">
        <ele>499</ele>
        <time>2018-06-03T08:06:07.000Z</time>
      </trkpt>
      <trkpt lat="44.5745" lon="4.23257">
        <ele>500</ele>
        <time>2018-06-03T08:06:08.000Z</time>
      </trkpt>
      <trkpt lat="44.57451" lon="4.2326">
        <ele>500</ele>
        <time>2018-06-03T08:06:09.000Z</time>
      </trkpt>
      <trkpt lat="44.57452" lon="4.23264">
        <ele>500</ele>
        <time>2018-06-03T08:06:10.000Z</time>
      </trkpt>
      <trkpt lat="44.57453" lon="4.23267">
        <ele>500</ele>
        <time>2018-06-03T08:06:11.000Z</time>
      </trkpt>
      <trkpt lat="44.57454" lon="4.2327">
        <ele>501</ele>
        <time>2018-06-03T08:06:12.000Z</time>
      </trkpt>
      <trkpt lat="44.57456" lon="4.23273">
        <ele>501</ele>
        <time>2018-06-03T08:06:13.000Z</time>
      </trkpt>
      <trkpt lat="44.57457" lon="4.23275">
        <ele>501</ele>
        <time>2018-06-03T08:06:14.000Z</time>
      </trkpt>
      <trkpt lat="44.57459" lon="4.23277">
        <ele>501</ele>
        <time>2018-06-03T08:06:15.000Z</time>
      </trkpt>
      <trkpt lat="44.5746" lon="4.2328">
        <ele>502</ele>
        <time>2018-06-03T08:06:16.000Z</time>
      </trkpt>
      <trkpt lat="44.57462" lon="4.23282">
        <ele>502</ele>
        <time>2018-06-03T08:06:17.000Z</time>
      </trkpt>
      <trkpt lat="44.57463" lon="4.23284">
        <ele>502</ele>
        <time>2018-06-03T08:06:18.000Z</time>
      </trkpt>
      <trkpt lat="44.57465" lon="4.23287">
        <ele>502</ele>
        <time>2018-06-03T08:06:19.000Z</time>
      </trkpt>
      <trkpt lat="44.57466" lon="4.23289">
        <ele>502</ele>
        <time>2018-06-03T08:06:20.000Z</time>
      </trkpt>
      <trkpt lat="44.57468" lon="4.23292">
        <ele>502</ele>
        <time>2018-06-03T08:06:21.000Z</time>
      </trkpt>
      <trkpt lat="44.5747" lon="4.23295">
        <ele>503</ele>
        <time>2018-06-03T08:06:22.000Z</time>
      </trkpt>
      <trkpt lat="44.57471" lon="4.23298">
        <ele>503</ele>
        <time>2018-06-03T08:06:23.000Z</time>
      </trkpt>
      <trkpt lat="44.57473" lon="4.23301">
        <ele>503</ele>
        <time>2018-06-03T08:06:24.000Z</time>
      </trkpt>
      <trkpt lat="44.57474" lon="4.23304">
        <ele>503</ele>
        <time>2018-06-03T08:06:25.000Z</time>
      </trkpt>
      <trkpt lat="44.57475" lon="4.23308">
        <ele>504</ele>
        <time>2018-06-03T08:06:26.000Z</time>
      </trkpt>
      <trkpt lat="44.57476" lon="4.23311">
        <ele>504</ele>
        <time>2018-06-03T08:06:27.000Z</time>
      </trkpt>
      <trkpt lat="44.57477" lon="4.23314">
        <ele>504</ele>
        <time>2018-06-03T08:06:28.000Z</time>
      </trkpt>
      <trkpt lat="44.57478" lon="4.23317">
        <ele>504</ele>
        <time>2018-06-03T08:06:29.000Z</time>
      </trkpt>
      <trkpt lat="44.5748" lon="4.23319">
        <ele>505</ele>
        <time>2018-06-03T08:06:30.000Z</time>
      </trkpt>
      <trkpt lat="44.57481" lon="4.23322">
        <ele>505</ele>
        <time>2018-06-03T08:06:31.000Z</time>
      </trkpt>
      <trkpt lat="44.57482" lon="4.23324">
        <ele>506</ele>
        <time>2018-06-03T08:06:32.000Z</time>
      </trkpt>
      <trkpt lat="44.57484" lon="4.23327">
        <ele>506</ele>
        <time>2018-06-03T08:06:33.000Z</time>
      </trkpt>
      <trkpt lat="44.57486" lon="4.23329">
        <ele>507</ele>
        <time>2018-06-03T08:06:34.000Z</time>
      </trkpt>
      <trkpt lat="44.57487" lon="4.23332">
        <ele>507</ele>
        <time>2018-06-03T08:06:35.000Z</time>
      </trkpt>
      <trkpt lat="44.57489" lon="4.23334">
        <ele>506</ele>
        <time>2018-06-03T08:06:36.000Z</time>
      </trkpt>
      <trkpt lat="44.5749" lon="4.23336">
        <ele>507</ele>
        <time>2018-06-03T08:06:37.000Z</time>
      </trkpt>
      <trkpt lat="44.57492" lon="4.23339">
        <ele>507</ele>
        <time>2018-06-03T08:06:38.000Z</time>
      </trkpt>
      <trkpt lat="44.57494" lon="4.23341">
        <ele>507</ele>
        <time>2018-06-03T08:06:39.000Z</time>
      </trkpt>
      <trkpt lat="44.57495" lon="4.23344">
        <ele>506</ele>
        <time>2018-06-03T08:06:40.000Z</time>
      </trkpt>
      <trkpt lat="44.57496" lon="4.23347">
        <ele>505</ele>
        <time>2018-06-03T08:06:41.000Z</time>
      </trkpt>
      <trkpt lat="44.57498" lon="4.2335">
        <ele>505</ele>
        <time>2018-06-03T08:06:42.000Z</time>
      </trkpt>
      <trkpt lat="44.57499" lon="4.23353">
        <ele>504</ele>
        <time>2018-06-03T08:06:43.000Z</time>
      </trkpt>
      <trkpt lat="44.575" lon="4.23356">
        <ele>514</ele>
        <time>2018-06-03T08:06:44.000Z</time>
      </trkpt>
      <trkpt lat="44.57502" lon="4.23359">
        <ele>514</ele>
        <time>2018-06-03T08:06:45.000Z</time>
      </trkpt>
      <trkpt lat="44.57503" lon="4.23361">
        <ele>514</ele>
        <time>2018-06-03T08:06:46.000Z</time>
      </trkpt>
      <trkpt lat="44.57504" lon="4.23364">
        <ele>513</ele>
        <time>2018-06-03T08:06:47.000Z</time>
      </trkpt>
      <trkpt lat="44.57505" lon="4.23367">
        <ele>513</ele>
        <time>2018-06-03T08:06:48.000Z</time>
      </trkpt>
      <trkpt lat="44.57506" lon="4.23371">
        <ele>513</ele>
        <time>2018-06-03T08:06:49.000Z</time>
      </trkpt>
      <trkpt lat="44.57508" lon="4.23373">
        <ele>513</ele>
        <time>2018-06-03T08:06:50.000Z</time>
      </trkpt>
      <trkpt lat="44.57509" lon="4.23376">
        <ele>513</ele>
        <time>2018-06-03T08:06:51.000Z</time>
      </trkpt>
      <trkpt lat="44.5751" lon="4.23379">
        <ele>513</ele>
        <time>2018-06-03T08:06:52.000Z</time>
      </trkpt>
      <trkpt lat="44.57511" lon="4.23382">
        <ele>512</ele>
        <time>2018-06-03T08:06:53.000Z</time>
      </trkpt>
      <trkpt lat="44.57512" lon="4.23385">
        <ele>512</ele>
        <time>2018-06-03T08:06:54.000Z</time>
      </trkpt>
      <trkpt lat="44.57513" lon="4.23388">
        <ele>512</ele>
        <time>2018-06-03T08:06:55.000Z</time>
      </trkpt>
      <trkpt lat="44.57515" lon="4.23391">
        <ele>512</ele>
        <time>2018-06-03T08:06:56.000Z</time>
      </trkpt>
      <trkpt lat="44.57516" lon="4.23393">
        <ele>511</ele>
        <time>2018-06-03T08:06:57.000Z</time>
      </trkpt>
      <trkpt lat="44.57518" lon="4.23396">
        <ele>511</ele>
        <time>2018-06-03T08:06:58.000Z</time>
      </trkpt>
      <trkpt lat="44.5752" lon="4.23398">
        <ele>511</ele>
        <time>2018-06-03T08:06:59.000Z</time>
      </trkpt>
      <trkpt lat="44.57522" lon="4.23399">
        <ele>511</ele>
        <time>2018-06-03T08:07:00.000Z</time>
      </trkpt>
      <trkpt lat="44.57524" lon="4.23398">
        <ele>512</ele>
        <time>2018-06-03T08:07:01.000Z</time>
      </trkpt>
      <trkpt lat="44.57525" lon="4.23396">
        <ele>512</ele>
        <time>2018-06-03T08:07:02.000Z</time>
      </trkpt>
      <trkpt lat="44.57526" lon="4.23394">
        <ele>513</ele>
        <time>2018-06-03T08:07:03.000Z</time>
      </trkpt>
      <trkpt lat="44.57525" lon="4.23391">
        <ele>513</ele>
        <time>2018-06-03T08:07:04.000Z</time>
      </trkpt>
      <trkpt lat="44.57524" lon="4.23388">
        <ele>513</ele>
        <time>2018-06-03T08:07:05.000Z</time>
      </trkpt>
      <trkpt lat="44.57523" lon="4.23386">
        <ele>513</ele>
        <time>2018-06-03T08:07:06.000Z</time>
      </trkpt>
      <trkpt lat="44.57522" lon="4.23384">
        <ele>513</ele>
        <time>2018-06-03T08:07:07.000Z</time>
      </trkpt>
      <trkpt lat="44.57521" lon="4.23381">
        <ele>513</ele>
        <time>2018-06-03T08:07:08.000Z</time>
      </trkpt>
      <trkpt lat="44.57521" lon="4.23378">
        <ele>514</ele>
        <time>2018-06-03T08:07:09.000Z</time>
      </trkpt>
      <trkpt lat="44.57521" lon="4.23375">
        <ele>514</ele>
        <time>2018-06-03T08:07:10.000Z</time>
      </trkpt>
      <trkpt lat="44.57521" lon="4.23372">
        <ele>514</ele>
        <time>2018-06-03T08:07:11.000Z</time>
      </trkpt>
      <trkpt lat="44.57521" lon="4.23369">
        <ele>514</ele>
        <time>2018-06-03T08:07:12.000Z</time>
      </trkpt>
      <trkpt lat="44.57522" lon="4.23366">
        <ele>515</ele>
        <time>2018-06-03T08:07:13.000Z</time>
      </trkpt>
      <trkpt lat="44.57522" lon="4.23362">
        <ele>515</ele>
        <time>2018-06-03T08:07:14.000Z</time>
      </trkpt>
      <trkpt lat="44.57522" lon="4.23359">
        <ele>515</ele>
        <time>2018-06-03T08:07:15.000Z</time>
      </trkpt>
      <trkpt lat="44.57522" lon="4.23356">
        <ele>515</ele>
        <time>2018-06-03T08:07:16.000Z</time>
      </trkpt>
      <trkpt lat="44.57522" lon="4.23353">
        <ele>515</ele>
        <time>2018-06-03T08:07:17.000Z</time>
      </trkpt>
      <trkpt lat="44.57522" lon="4.2335">
        <ele>515</ele>
        <time>2018-06-03T08:07:18.000Z</time>
      </trkpt>
      <trkpt lat="44.57521" lon="4.23346">
        <ele>515</ele>
        <time>2018-06-03T08:07:19.000Z</time>
      </trkpt>
      <trkpt lat="44.57521" lon="4.23343">
        <ele>515</ele>
        <time>2018-06-03T08:07:20.000Z</time>
      </trkpt>
      <trkpt lat="44.57521" lon="4.2334">
        <ele>515</ele>
        <time>2018-06-03T08:07:21.000Z</time>
      </trkpt>
      <trkpt lat="44.57521" lon="4.23337">
        <ele>515</ele>
        <time>2018-06-03T08:07:22.000Z</time>
      </trkpt>
      <trkpt lat="44.5752" lon="4.23333">
        <ele>520</ele>
        <time>2018-06-03T08:07:23.000Z</time>
      </trkpt>
      <trkpt lat="44.57519" lon="4.2333">
        <ele>520</ele>
        <time>2018-06-03T08:07:24.000Z</time>
      </trkpt>
      <trkpt lat="44.57519" lon="4.23327">
        <ele>520</ele>
        <time>2018-06-03T08:07:25.000Z</time>
      </trkpt>
      <trkpt lat="44.57518" lon="4.23324">
        <ele>520</ele>
        <time>2018-06-03T08:07:26.000Z</time>
      </trkpt>
      <trkpt lat="44.57517" lon="4.23321">
        <ele>521</ele>
        <time>2018-06-03T08:07:27.000Z</time>
      </trkpt>
      <trkpt lat="44.57517" lon="4.23318">
        <ele>521</ele>
        <time>2018-06-03T08:07:28.000Z</time>
      </trkpt>
      <trkpt lat="44.57516" lon="4.23315">
        <ele>521</ele>
        <time>2018-06-03T08:07:29.000Z</time>
      </trkpt>
      <trkpt lat="44.57516" lon="4.23311">
        <ele>522</ele>
        <time>2018-06-03T08:07:30.000Z</time>
      </trkpt>
      <trkpt lat="44.57516" lon="4.23308">
        <ele>522</ele>
        <time>2018-06-03T08:07:31.000Z</time>
      </trkpt>
      <trkpt lat="44.57516" lon="4.23305">
        <ele>523</ele>
        <time>2018-06-03T08:07:32.000Z</time>
      </trkpt>
      <trkpt lat="44.57516" lon="4.23301">
        <ele>523</ele>
        <time>2018-06-03T08:07:33.000Z</time>
      </trkpt>
      <trkpt lat="44.57516" lon="4.23298">
        <ele>523</ele>
        <time>2018-06-03T08:07:34.000Z</time>
      </trkpt>
      <trkpt lat="44.57516" lon="4.23295">
        <ele>523</ele>
        <time>2018-06-03T08:07:35.000Z</time>
      </trkpt>
      <trkpt lat="44.57515" lon="4.23292">
        <ele>523</ele>
        <time>2018-06-03T08:07:36.000Z</time>
      </trkpt>
      <trkpt lat="44.57515" lon="4.23288">
        <ele>524</ele>
        <time>2018-06-03T08:07:37.000Z</time>
      </trkpt>
      <trkpt lat="44.57515" lon="4.23284">
        <ele>524</ele>
        <time>2018-06-03T08:07:38.000Z</time>
      </trkpt>
      <trkpt lat="44.57514" lon="4.23281">
        <ele>524</ele>
        <time>2018-06-03T08:07:39.000Z</time>
      </trkpt>
      <trkpt lat="44.57514" lon="4.23278">
        <ele>523</ele>
        <time>2018-06-03T08:07:40.000Z</time>
      </trkpt>
      <trkpt lat="44.57513" lon="4.23274">
        <ele>523</ele>
        <time>2018-06-03T08:07:41.000Z</time>
      </trkpt>
      <trkpt lat="44.57513" lon="4.23271">
        <ele>523</ele>
        <time>2018-06-03T08:07:42.000Z</time>
      </trkpt>
      <trkpt lat="44.57512" lon="4.23268">
        <ele>522</ele>
        <time>2018-06-03T08:07:43.000Z</time>
      </trkpt>
      <trkpt lat="44.57512" lon="4.23265">
        <ele>522</ele>
        <time>2018-06-03T08:07:44.000Z</time>
      </trkpt>
      <trkpt lat="44.57512" lon="4.23262">
        <ele>522</ele>
        <time>2018-06-03T08:07:45.000Z</time>
      </trkpt>
      <trkpt lat="44.57511" lon="4.23259">
        <ele>521</ele>
        <time>2018-06-03T08:07:46.000Z</time>
      </trkpt>
      <trkpt lat="44.57512" lon="4.23256">
        <ele>521</ele>
        <time>2018-06-03T08:07:47.000Z</time>
      </trkpt>
      <trkpt lat="44.57512" lon="4.23252">
        <ele>521</ele>
        <time>2018-06-03T08:07:48.000Z</time>
      </trkpt>
      <trkpt lat="44.57513" lon="4.23249">
        <ele>523</ele>
        <time>2018-06-03T08:07:49.000Z</time>
      </trkpt>
      <trkpt lat="44.57513" lon="4.23246">
        <ele>524</ele>
        <time>2018-06-03T08:07:50.000Z</time>
      </trkpt>
      <trkpt lat="44.57514" lon="4.23243">
        <ele>525</ele>
        <time>2018-06-03T08:07:51.000Z</time>
      </trkpt>
      <trkpt lat="44.57514" lon="4.2324">
        <ele>525</ele>
        <time>2018-06-03T08:07:52.000Z</time>
      </trkpt>
      <trkpt lat="44.57515" lon="4.23238">
        <ele>526</ele>
        <time>2018-06-03T08:07:53.000Z</time>
      </trkpt>
      <trkpt lat="44.57516" lon="4.23235">
        <ele>527</ele>
        <time>2018-06-03T08:07:54.000Z</time>
      </trkpt>
      <trkpt lat="44.57517" lon="4.23232">
        <ele>528</ele>
        <time>2018-06-03T08:07:55.000Z</time>
      </trkpt>
      <trkpt lat="44.57518" lon="4.23229">
        <ele>528</ele>
        <time>2018-06-03T08:07:56.000Z</time>
      </trkpt>
      <trkpt lat="44.57519" lon="4.23227">
        <ele>529</ele>
        <time>2018-06-03T08:07:57.000Z</time>
      </trkpt>
      <trkpt lat="44.5752" lon="4.23224">
        <ele>529</ele>
        <time>2018-06-03T08:07:58.000Z</time>
      </trkpt>
      <trkpt lat="44.57521" lon="4.2322">
        <ele>530</ele>
        <time>2018-06-03T08:07:59.000Z</time>
      </trkpt>
      <trkpt lat="44.57522" lon="4.23217">
        <ele>530</ele>
        <time>2018-06-03T08:08:00.000Z</time>
      </trkpt>
      <trkpt lat="44.57523" lon="4.23214">
        <ele>531</ele>
        <time>2018-06-03T08:08:01.000Z</time>
      </trkpt>
      <trkpt lat="44.57524" lon="4.23211">
        <ele>531</ele>
        <time>2018-06-03T08:08:02.000Z</time>
      </trkpt>
      <trkpt lat="44.57525" lon="4.23208">
        <ele>531</ele>
        <time>2018-06-03T08:08:03.000Z</time>
      </trkpt>
      <trkpt lat="44.57526" lon="4.23205">
        <ele>532</ele>
        <time>2018-06-03T08:08:04.000Z</time>
      </trkpt>
      <trkpt lat="44.57527" lon="4.23203">
        <ele>532</ele>
        <time>2018-06-03T08:08:05.000Z</time>
      </trkpt>
      <trkpt lat="44.57528" lon="4.232">
        <ele>532</ele>
        <time>2018-06-03T08:08:06.000Z</time>
      </trkpt>
      <trkpt lat="44.57528" lon="4.23197">
        <ele>532</ele>
        <time>2018-06-03T08:08:07.000Z</time>
      </trkpt>
      <trkpt lat="44.57529" lon="4.23194">
        <ele>532</ele>
        <time>2018-06-03T08:08:08.000Z</time>
      </trkpt>
      <trkpt lat="44.5753" lon="4.23191">
        <ele>532</ele>
        <time>2018-06-03T08:08:09.000Z</time>
      </trkpt>
      <trkpt lat="44.5753" lon="4.23188">
        <ele>532</ele>
        <time>2018-06-03T08:08:10.000Z</time>
      </trkpt>
      <trkpt lat="44.57531" lon="4.23185">
        <ele>532</ele>
        <time>2018-06-03T08:08:11.000Z</time>
      </trkpt>
      <trkpt lat="44.57532" lon="4.23182">
        <ele>533</ele>
        <time>2018-06-03T08:08:12.000Z</time>
      </trkpt>
      <trkpt lat="44.57533" lon="4.23179">
        <ele>533</ele>
        <time>2018-06-03T08:08:13.000Z</time>
      </trkpt>
      <trkpt lat="44.57534" lon="4.23176">
        <ele>533</ele>
        <time>2018-06-03T08:08:14.000Z</time>
      </trkpt>
      <trkpt lat="44.57534" lon="4.23172">
        <ele>533</ele>
        <time>2018-06-03T08:08:15.000Z</time>
      </trkpt>
      <trkpt lat="44.57535" lon="4.23169">
        <ele>534</ele>
        <time>2018-06-03T08:08:16.000Z</time>
      </trkpt>
      <trkpt lat="44.57536" lon="4.23166">
        <ele>538</ele>
        <time>2018-06-03T08:08:17.000Z</time>
      </trkpt>
      <trkpt lat="44.57537" lon="4.23163">
        <ele>539</ele>
        <time>2018-06-03T08:08:18.000Z</time>
      </trkpt>
      <trkpt lat="44.57537" lon="4.23159">
        <ele>539</ele>
        <time>2018-06-03T08:08:19.000Z</time>
      </trkpt>
      <trkpt lat="44.57537" lon="4.23156">
        <ele>539</ele>
        <time>2018-06-03T08:08:20.000Z</time>
      </trkpt>
      <trkpt lat="44.57536" lon="4.23153">
        <ele>539</ele>
        <time>2018-06-03T08:08:21.000Z</time>
      </trkpt>
      <trkpt lat="44.57535" lon="4.23151">
        <ele>539</ele>
        <time>2018-06-03T08:08:22.000Z</time>
      </trkpt>
      <trkpt lat="44.57533" lon="4.23149">
        <ele>538</ele>
        <time>2018-06-03T08:08:23.000Z</time>
      </trkpt>
      <trkpt lat="44.57531" lon="4.23147">
        <ele>538</ele>
        <time>2018-06-03T08:08:24.000Z</time>
      </trkpt>
      <trkpt lat="44.57529" lon="4.23145">
        <ele>538</ele>
        <time>2018-06-03T08:08:25.000Z</time>
      </trkpt>
      <trkpt lat="44.57527" lon="4.23144">
        <ele>537</ele>
        <time>2018-06-03T08:08:26.000Z</time>
      </trkpt>
      <trkpt lat="44.57525" lon="4.23142">
        <ele>537</ele>
        <time>2018-06-03T08:08:27.000Z</time>
      </trkpt>
      <trkpt lat="44.57523" lon="4.2314">
        <ele>537</ele>
        <time>2018-06-03T08:08:28.000Z</time>
      </trkpt>
      <trkpt lat="44.57521" lon="4.23138">
        <ele>537</ele>
        <time>2018-06-03T08:08:29.000Z</time>
      </trkpt>
      <trkpt lat="44.57519" lon="4.23136">
        <ele>537</ele>
        <time>2018-06-03T08:08:30.000Z</time>
      </trkpt>
      <trkpt lat="44.57517" lon="4.23134">
        <ele>537</ele>
        <time>2018-06-03T08:08:31.000Z</time>
      </trkpt>
      <trkpt lat="44.57515" lon="4.23131">
        <ele>537</ele>
        <time>2018-06-03T08:08:32.000Z</time>
      </trkpt>
      <trkpt lat="44.57513" lon="4.23128">
        <ele>537</ele>
        <time>2018-06-03T08:08:33.000Z</time>
      </trkpt>
      <trkpt lat="44.57512" lon="4.23125">
        <ele>537</ele>
        <time>2018-06-03T08:08:34.000Z</time>
      </trkpt>
      <trkpt lat="44.57511" lon="4.23123">
        <ele>537</ele>
        <time>2018-06-03T08:08:35.000Z</time>
      </trkpt>
      <trkpt lat="44.5751" lon="4.2312">
        <ele>537</ele>
        <time>2018-06-03T08:08:36.000Z</time>
      </trkpt>
      <trkpt lat="44.57509" lon="4.23117">
        <ele>537</ele>
        <time>2018-06-03T08:08:37.000Z</time>
      </trkpt>
      <trkpt lat="44.57508" lon="4.23114">
        <ele>537</ele>
        <time>2018-06-03T08:08:38.000Z</time>
      </trkpt>
      <trkpt lat="44.57507" lon="4.23111">
        <ele>537</ele>
        <time>2018-06-03T08:08:39.000Z</time>
      </trkpt>
      <trkpt lat="44.57507" lon="4.23108">
        <ele>537</ele>
        <time>2018-06-03T08:08:40.000Z</time>
      </trkpt>
      <trkpt lat="44.57506" lon="4.23105">
        <ele>537</ele>
        <time>2018-06-03T08:08:41.000Z</time>
      </trkpt>
      <trkpt lat="44.57506" lon="4.23102">
        <ele>536</ele>
        <time>2018-06-03T08:08:42.000Z</time>
      </trkpt>
      <trkpt lat="44.57505" lon="4.23099">
        <ele>536</ele>
        <time>2018-06-03T08:08:43.000Z</time>
      </trkpt>
      <trkpt lat="44.57505" lon="4.23095">
        <ele>536</ele>
        <time>2018-06-03T08:08:44.000Z</time>
      </trkpt>
      <trkpt lat="44.57505" lon="4.23092">
        <ele>535</ele>
        <time>2018-06-03T08:08:45.000Z</time>
      </trkpt>
      <trkpt lat="44.57504" lon="4.23089">
        <ele>534</ele>
        <time>2018-06-03T08:08:46.000Z</time>
      </trkpt>
      <trkpt lat="44.57504" lon="4.23085">
        <ele>534</ele>
        <time>2018-06-03T08:08:47.000Z</time>
      </trkpt>
      <trkpt lat="44.57505" lon="4.23082">
        <ele>535</ele>
        <time>2018-06-03T08:08:48.000Z</time>
      </trkpt>
      <trkpt lat="44.57505" lon="4.23079">
        <ele>536</ele>
        <time>2018-06-03T08:08:49.000Z</time>
      </trkpt>
      <trkpt lat="44.57505" lon="4.23075">
        <ele>537</ele>
        <time>2018-06-03T08:08:50.000Z</time>
      </trkpt>
      <trkpt lat="44.57505" lon="4.23072">
        <ele>539</ele>
        <time>2018-06-03T08:08:51.000Z</time>
      </trkpt>
      <trkpt lat="44.57506" lon="4.23068">
        <ele>540</ele>
        <time>2018-06-03T08:08:52.000Z</time>
      </trkpt>
      <trkpt lat="44.57506" lon="4.23065">
        <ele>541</ele>
        <time>2018-06-03T08:08:53.000Z</time>
      </trkpt>
      <trkpt lat="44.57507" lon="4.23061">
        <ele>542</ele>
        <time>2018-06-03T08:08:54.000Z</time>
      </trkpt>
      <trkpt lat="44.57508" lon="4.23057">
        <ele>542</ele>
        <time>2018-06-03T08:08:55.000Z</time>
      </trkpt>
      <trkpt lat="44.57508" lon="4.23054">
        <ele>543</ele>
        <time>2018-06-03T08:08:56.000Z</time>
      </trkpt>
      <trkpt lat="44.57509" lon="4.2305">
        <ele>543</ele>
        <time>2018-06-03T08:08:57.000Z</time>
      </trkpt>
      <trkpt lat="44.57509" lon="4.23047">
        <ele>544</ele>
        <time>2018-06-03T08:08:58.000Z</time>
      </trkpt>
      <trkpt lat="44.5751" lon="4.23043">
        <ele>544</ele>
        <time>2018-06-03T08:08:59.000Z</time>
      </trkpt>
      <trkpt lat="44.5751" lon="4.23039">
        <ele>544</ele>
        <time>2018-06-03T08:09:00.000Z</time>
      </trkpt>
      <trkpt lat="44.57511" lon="4.23035">
        <ele>544</ele>
        <time>2018-06-03T08:09:01.000Z</time>
      </trkpt>
      <trkpt lat="44.57511" lon="4.23032">
        <ele>544</ele>
        <time>2018-06-03T08:09:02.000Z</time>
      </trkpt>
      <trkpt lat="44.57512" lon="4.23028">
        <ele>544</ele>
        <time>2018-06-03T08:09:03.000Z</time>
      </trkpt>
      <trkpt lat="44.57512" lon="4.23025">
        <ele>543</ele>
        <time>2018-06-03T08:09:04.000Z</time>
      </trkpt>
      <trkpt lat="44.57513" lon="4.23021">
        <ele>543</ele>
        <time>2018-06-03T08:09:05.000Z</time>
      </trkpt>
      <trkpt lat="44.57513" lon="4.23018">
        <ele>543</ele>
        <time>2018-06-03T08:09:06.000Z</time>
      </trkpt>
      <trkpt lat="44.57513" lon="4.23014">
        <ele>542</ele>
        <time>2018-06-03T08:09:07.000Z</time>
      </trkpt>
      <trkpt lat="44.57513" lon="4.23011">
        <ele>542</ele>
        <time>2018-06-03T08:09:08.000Z</time>
      </trkpt>
      <trkpt lat="44.57514" lon="4.23008">
        <ele>541</ele>
        <time>2018-06-03T08:09:09.000Z</time>
      </trkpt>
      <trkpt lat="44.57514" lon="4.23005">
        <ele>541</ele>
        <time>2018-06-03T08:09:10.000Z</time>
      </trkpt>
      <trkpt lat="44.57514" lon="4.23002">
        <ele>540</ele>
        <time>2018-06-03T08:09:11.000Z</time>
      </trkpt>
      <trkpt lat="44.57514" lon="4.22998">
        <ele>542</ele>
        <time>2018-06-03T08:09:12.000Z</time>
      </trkpt>
      <trkpt lat="44.57515" lon="4.22996">
        <ele>542</ele>
        <time>2018-06-03T08:09:13.000Z</time>
      </trkpt>
      <trkpt lat="44.57515" lon="4.22993">
        <ele>543</ele>
        <time>2018-06-03T08:09:14.000Z</time>
      </trkpt>
      <trkpt lat="44.57516" lon="4.2299">
        <ele>543</ele>
        <time>2018-06-03T08:09:15.000Z</time>
      </trkpt>
      <trkpt lat="44.57517" lon="4.22987">
        <ele>544</ele>
        <time>2018-06-03T08:09:16.000Z</time>
      </trkpt>
      <trkpt lat="44.57517" lon="4.22984">
        <ele>545</ele>
        <time>2018-06-03T08:09:17.000Z</time>
      </trkpt>
      <trkpt lat="44.57517" lon="4.22981">
        <ele>545</ele>
        <time>2018-06-03T08:09:18.000Z</time>
      </trkpt>
      <trkpt lat="44.57518" lon="4.22978">
        <ele>546</ele>
        <time>2018-06-03T08:09:19.000Z</time>
      </trkpt>
      <trkpt lat="44.57518" lon="4.22975">
        <ele>546</ele>
        <time>2018-06-03T08:09:20.000Z</time>
      </trkpt>
      <trkpt lat="44.57519" lon="4.22972">
        <ele>547</ele>
        <time>2018-06-03T08:09:21.000Z</time>
      </trkpt>
      <trkpt lat="44.5752" lon="4.22969">
        <ele>547</ele>
        <time>2018-06-03T08:09:22.000Z</time>
      </trkpt>
      <trkpt lat="44.5752" lon="4.22966">
        <ele>547</ele>
        <time>2018-06-03T08:09:23.000Z</time>
      </trkpt>
      <trkpt lat="44.5752" lon="4.22963">
        <ele>548</ele>
        <time>2018-06-03T08:09:24.000Z</time>
      </trkpt>
      <trkpt lat="44.57521" lon="4.22961">
        <ele>548</ele>
        <time>2018-06-03T08:09:25.000Z</time>
      </trkpt>
      <trkpt lat="44.57521" lon="4.22958">
        <ele>548</ele>
        <time>2018-06-03T08:09:26.000Z</time>
      </trkpt>
      <trkpt lat="44.57521" lon="4.22956">
        <ele>548</ele>
        <time>2018-06-03T08:09:27.000Z</time>
      </trkpt>
      <trkpt lat="44.57522" lon="4.22953">
        <ele>548</ele>
        <time>2018-06-03T08:09:28.000Z</time>
      </trkpt>
      <trkpt lat="44.57522" lon="4.2295">
        <ele>548</ele>
        <time>2018-06-03T08:09:29.000Z</time>
      </trkpt>
      <trkpt lat="44.57523" lon="4.22947">
        <ele>548</ele>
        <time>2018-06-03T08:09:30.000Z</time>
      </trkpt>
      <trkpt lat="44.57523" lon="4.22945">
        <ele>548</ele>
        <time>2018-06-03T08:09:31.000Z</time>
      </trkpt>
      <trkpt lat="44.57523" lon="4.22942">
        <ele>548</ele>
        <time>2018-06-03T08:09:32.000Z</time>
      </trkpt>
      <trkpt lat="44.57524" lon="4.22939">
        <ele>548</ele>
        <time>2018-06-03T08:09:33.000Z</time>
      </trkpt>
      <trkpt lat="44.57524" lon="4.22936">
        <ele>547</ele>
        <time>2018-06-03T08:09:34.000Z</time>
      </trkpt>
      <trkpt lat="44.57525" lon="4.22934">
        <ele>547</ele>
        <time>2018-06-03T08:09:35.000Z</time>
      </trkpt>
      <trkpt lat="44.57525" lon="4.22931">
        <ele>547</ele>
        <time>2018-06-03T08:09:36.000Z</time>
      </trkpt>
      <trkpt lat="44.57525" lon="4.22928">
        <ele>547</ele>
        <time>2018-06-03T08:09:37.000Z</time>
      </trkpt>
      <trkpt lat="44.57525" lon="4.22925">
        <ele>547</ele>
        <time>2018-06-03T08:09:38.000Z</time>
      </trkpt>
      <trkpt lat="44.57526" lon="4.22922">
        <ele>547</ele>
        <time>2018-06-03T08:09:39.000Z</time>
      </trkpt>
      <trkpt lat="44.57526" lon="4.22919">
        <ele>547</ele>
        <time>2018-06-03T08:09:40.000Z</time>
      </trkpt>
      <trkpt lat="44.57526" lon="4.22916">
        <ele>545</ele>
        <time>2018-06-03T08:09:41.000Z</time>
      </trkpt>
      <trkpt lat="44.57527" lon="4.22913">
        <ele>545</ele>
        <time>2018-06-03T08:09:42.000Z</time>
      </trkpt>
      <trkpt lat="44.57527" lon="4.22909">
        <ele>545</ele>
        <time>2018-06-03T08:09:43.000Z</time>
      </trkpt>
      <trkpt lat="44.57527" lon="4.22906">
        <ele>545</ele>
        <time>2018-06-03T08:09:44.000Z</time>
      </trkpt>
      <trkpt lat="44.57528" lon="4.22903">
        <ele>545</ele>
        <time>2018-06-03T08:09:45.000Z</time>
      </trkpt>
      <trkpt lat="44.57528" lon="4.22901">
        <ele>545</ele>
        <time>2018-06-03T08:09:46.000Z</time>
      </trkpt>
      <trkpt lat="44.57529" lon="4.22898">
        <ele>546</ele>
        <time>2018-06-03T08:09:47.000Z</time>
      </trkpt>
      <trkpt lat="44.5753" lon="4.22895">
        <ele>546</ele>
        <time>2018-06-03T08:09:48.000Z</time>
      </trkpt>
      <trkpt lat="44.5753" lon="4.22893">
        <ele>546</ele>
        <time>2018-06-03T08:09:49.000Z</time>
      </trkpt>
      <trkpt lat="44.57531" lon="4.2289">
        <ele>546</ele>
        <time>2018-06-03T08:09:50.000Z</time>
      </trkpt>
      <trkpt lat="44.57531" lon="4.22887">
        <ele>546</ele>
        <time>2018-06-03T08:09:51.000Z</time>
      </trkpt>
      <trkpt lat="44.5753" lon="4.22885">
        <ele>546</ele>
        <time>2018-06-03T08:09:52.000Z</time>
      </trkpt>
      <trkpt lat="44.57529" lon="4.22883">
        <ele>546</ele>
        <time>2018-06-03T08:09:53.000Z</time>
      </trkpt>
      <trkpt lat="44.57527" lon="4.22881">
        <ele>545</ele>
        <time>2018-06-03T08:09:54.000Z</time>
      </trkpt>
      <trkpt lat="44.57526" lon="4.22879">
        <ele>545</ele>
        <time>2018-06-03T08:09:55.000Z</time>
      </trkpt>
      <trkpt lat="44.57524" lon="4.22877">
        <ele>545</ele>
        <time>2018-06-03T08:09:56.000Z</time>
      </trkpt>
      <trkpt lat="44.57579" lon="4.23065">
        <ele>556</ele>
      </trkpt>
      <trkpt lat="44.57625" lon="4.23089">
        <ele>576</ele>
      </trkpt>
      <trkpt lat="44.57656" lon="4.23233">
        <ele>567</ele>
      </trkpt>
      <trkpt lat="44.57749" lon="4.23258">
        <ele>573</ele>
      </trkpt>
      <trkpt lat="44.57798" lon="4.23203">
        <ele>585</ele>
      </trkpt>
      <trkpt lat="44.57828" lon="4.23134">
        <ele>597</ele>
      </trkpt>
      <trkpt lat="44.57844" lon="4.231">
        <ele>599</ele>
      </trkpt>
      <trkpt lat="44.57871" lon="4.23089">
        <ele>599</ele>
      </trkpt>
      <trkpt lat="44.57911" lon="4.23095">
        <ele>601</ele>
      </trkpt>
      <trkpt lat="44.57906" lon="4.23177">
        <ele>598</ele>
      </trkpt>
      <trkpt lat="44.57903" lon="4.23226">
        <ele>594</ele>
      </trkpt>
      <trkpt lat="44.57937" lon="4.23216">
        <ele>609</ele>
      </trkpt>
      <trkpt lat="44.57967" lon="4.23149">
        <ele>615</ele>
      </trkpt>
      <trkpt lat="44.58009" lon="4.23108">
        <ele>627</ele>
      </trkpt>
      <trkpt lat="44.58018" lon="4.2317">
        <ele>630</ele>
      </trkpt>
      <trkpt lat="44.58027" lon="4.23226">
        <ele>631</ele>
      </trkpt>
      <trkpt lat="44.58021" lon="4.23299">
        <ele>630</ele>
      </trkpt>
      <trkpt lat="44.58058" lon="4.23331">
        <ele>636</ele>
      </trkpt>
      <trkpt lat="44.58165" lon="4.23404">
        <ele>660</ele>
      </trkpt>
      <trkpt lat="44.58129" lon="4.23333">
        <ele>658</ele>
      </trkpt>
      <trkpt lat="44.58141" lon="4.23275">
        <ele>660</ele>
      </trkpt>
      <trkpt lat="44.58173" lon="4.23363">
        <ele>677</ele>
      </trkpt>
      <trkpt lat="44.58225" lon="4.23425">
        <ele>681</ele>
      </trkpt>
      <trkpt lat="44.5823" lon="4.23575">
        <ele>683</ele>
      </trkpt>
      <trkpt lat="44.58181" lon="4.23672">
        <ele>691</ele>
      </trkpt>
      <trkpt lat="44.58055" lon="4.23781">
        <ele>675</ele>
      </trkpt>
      <trkpt lat="44.58113" lon="4.23886">
        <ele>683</ele>
      </trkpt>
      <trkpt lat="44.58223" lon="4.23951">
        <ele>696</ele>
      </trkpt>
      <trkpt lat="44.58323" lon="4.24069">
        <ele>685</ele>
      </trkpt>
      <trkpt lat="44.58393" lon="4.24054">
        <ele>690</ele>
      </trkpt>
      <trkpt lat="44.58463" lon="4.24004">
        <ele>697</ele>
      </trkpt>
      <trkpt lat="44.58459" lon="4.24122">
        <ele>697</ele>
      </trkpt>
      <trkpt lat="44.58417" lon="4.24228">
        <ele>706</ele>
      </trkpt>
      <trkpt lat="44.58379" lon="4.24348">
        <ele>712</ele>
      </trkpt>
      <trkpt lat="44.58334" lon="4.24468">
        <ele>729</ele>
      </trkpt>
      <trkpt lat="44.58305" lon="4.24552">
        <ele>718</ele>
      </trkpt>
      <trkpt lat="44.58342" lon="4.24644">
        <ele>747</ele>
      </trkpt>
      <trkpt lat="44.58229" lon="4.24749">
        <ele>735</ele>
      </trkpt>
      <trkpt lat="44.58418" lon="4.24813">
        <ele>755</ele>
      </trkpt>
      <trkpt lat="44.58516" lon="4.24843">
        <ele>758</ele>
      </trkpt>
      <trkpt lat="44.5857" lon="4.24867">
        <ele>761</ele>
      </trkpt>
      <trkpt lat="44.58564" lon="4.2503">
        <ele>750</ele>
      </trkpt>
      <trkpt lat="44.58594" lon="4.2512">
        <ele>756</ele>
      </trkpt>
      <trkpt lat="44.58646" lon="4.25067">
        <ele>760</ele>
      </trkpt>
      <trkpt lat="44.5868" lon="4.24923">
        <ele>763</ele>
      </trkpt>
      <trkpt lat="44.58724" lon="4.24863">
        <ele>765</ele>
      </trkpt>
      <trkpt lat="44.58804" lon="4.24773">
        <ele>759</ele>
      </trkpt>
      <trkpt lat="44.58813" lon="4.24605">
        <ele>765</ele>
      </trkpt>
      <trkpt lat="44.58822" lon="4.24479">
        <ele>766</ele>
      </trkpt>
      <trkpt lat="44.58805" lon="4.24404">
        <ele>769</ele>
      </trkpt>
      <trkpt lat="44.58836" lon="4.24313">
        <ele>760</ele>
      </trkpt>
      <trkpt lat="44.58859" lon="4.2426">
        <ele>762</ele>
      </trkpt>
      <trkpt lat="44.58862" lon="4.2417">
        <ele>765</ele>
      </trkpt>
      <trkpt lat="44.58894" lon="4.24037">
        <ele>775</ele>
      </trkpt>
      <trkpt lat="44.58943" lon="4.23998">
        <ele>764</ele>
      </trkpt>
      <trkpt lat="44.58994" lon="4.23885">
        <ele>771</ele>
      </trkpt>
      <trkpt lat="44.59034" lon="4.2383">
        <ele>777</ele>
      </trkpt>
      <trkpt lat="44.59096" lon="4.2386">
        <ele>763</ele>
      </trkpt>
      <trkpt lat="44.59157" lon="4.23826">
        <ele>772</ele>
      </trkpt>
      <trkpt lat="44.59174" lon="4.23843">
        <ele>775</ele>
      </trkpt>
      <trkpt lat="44.59147" lon="4.24047">
        <ele>747</ele>
      </trkpt>
      <trkpt lat="44.59186" lon="4.24107">
        <ele>756</ele>
      </trkpt>
      <trkpt lat="44.59272" lon="4.24159">
        <ele>765</ele>
      </trkpt>
      <trkpt lat="44.59344" lon="4.24176">
        <ele>758</ele>
      </trkpt>
      <trkpt lat="44.59396" lon="4.24146">
        <ele>770</ele>
      </trkpt>
      <trkpt lat="44.59429" lon="4.24144">
        <ele>765</ele>
      </trkpt>
      <trkpt lat="44.59516" lon="4.24094">
        <ele>768</ele>
      </trkpt>
      <trkpt lat="44.59562" lon="4.24109">
        <ele>761</ele>
      </trkpt>
      <trkpt lat="44.59649" lon="4.24069">
        <ele>756</ele>
      </trkpt>
      <trkpt lat="44.59709" lon="4.23978">
        <ele>748</ele>
      </trkpt>
      <trkpt lat="44.59715" lon="4.23892">
        <ele>762</ele>
      </trkpt>
      <trkpt lat="44.59771" lon="4.23899">
        <ele>750</ele>
      </trkpt>
      <trkpt lat="44.5983" lon="4.23894">
        <ele>749</ele>
      </trkpt>
      <trkpt lat="44.59865" lon="4.23892">
        <ele>746</ele>
      </trkpt>
      <trkpt lat="44.59882" lon="4.23849">
        <ele>752</ele>
      </trkpt>
      <trkpt lat="44.59938" lon="4.23821">
        <ele>762</ele>
      </trkpt>
      <trkpt lat="44.59996" lon="4.23772">
        <ele>767</ele>
      </trkpt>
      <trkpt lat="44.60031" lon="4.23727">
        <ele>763</ele>
      </trkpt>
      <trkpt lat="44.60037" lon="4.23663">
        <ele>766</ele>
      </trkpt>
      <trkpt lat="44.60011" lon="4.236">
        <ele>769</ele>
      </trkpt>
      <trkpt lat="44.5997" lon="4.23538">
        <ele>786</ele>
      </trkpt>
      <trkpt lat="44.5997" lon="4.23521">
        <ele>786</ele>
      </trkpt>
      <trkpt lat="44.60005" lon="4.23504">
        <ele>773</ele>
      </trkpt>
      <trkpt lat="44.6003" lon="4.23461">
        <ele>782</ele>
      </trkpt>
      <trkpt lat="44.60059" lon="4.23439">
        <ele>784</ele>
      </trkpt>
      <trkpt lat="44.60121" lon="4.23549">
        <ele>775</ele>
      </trkpt>
      <trkpt lat="44.60218" lon="4.2362">
        <ele>781</ele>
      </trkpt>
      <trkpt lat="44.603" lon="4.23755">
        <ele>774</ele>
      </trkpt>
      <trkpt lat="44.60351" lon="4.23854">
        <ele>777</ele>
      </trkpt>
      <trkpt lat="44.60435" lon="4.23884">
        <ele>787</ele>
      </trkpt>
      <trkpt lat="44.60517" lon="4.2395">
        <ele>781</ele>
      </trkpt>
      <trkpt lat="44.6056" lon="4.2407">
        <ele>769</ele>
      </trkpt>
      <trkpt lat="44.60623" lon="4.24147">
        <ele>770</ele>
      </trkpt>
      <trkpt lat="44.6067" lon="4.24192">
        <ele>770</ele>
      </trkpt>
      <trkpt lat="44.60641" lon="4.24087">
        <ele>773</ele>
      </trkpt>
      <trkpt lat="44.60636" lon="4.23976">
        <ele>778</ele>
      </trkpt>
      <trkpt lat="44.60621" lon="4.2389">
        <ele>781</ele>
      </trkpt>
      <trkpt lat="44.60577" lon="4.23838">
        <ele>792</ele>
      </trkpt>
      <trkpt lat="44.60552" lon="4.23787">
        <ele>798</ele>
      </trkpt>
      <trkpt lat="44.60523" lon="4.23695">
        <ele>802</ele>
      </trkpt>
      <trkpt lat="44.60464" lon="4.23609">
        <ele>818</ele>
      </trkpt>
      <trkpt lat="44.60418" lon="4.23491">
        <ele>824</ele>
      </trkpt>
      <trkpt lat="44.60355" lon="4.23377">
        <ele>834</ele>
      </trkpt>
      <trkpt lat="44.60291" lon="4.23315">
        <ele>850</ele>
      </trkpt>
      <trkpt lat="44.60294" lon="4.23163">
        <ele>855</ele>
      </trkpt>
      <trkpt lat="44.60294" lon="4.23056">
        <ele>867</ele>
      </trkpt>
      <trkpt lat="44.60349" lon="4.22944">
        <ele>856</ele>
      </trkpt>
      <trkpt lat="44.60361" lon="4.2282">
        <ele>880</ele>
      </trkpt>
      <trkpt lat="44.6041" lon="4.22745">
        <ele>887</ele>
      </trkpt>
      <trkpt lat="44.60437" lon="4.22708">
        <ele>885</ele>
      </trkpt>
      <trkpt lat="44.60492" lon="4.22674">
        <ele>881</ele>
      </trkpt>
      <trkpt lat="44.60537" lon="4.22519">
        <ele>883</ele>
      </trkpt>
      <trkpt lat="44.60399" lon="4.22416">
        <ele>903</ele>
      </trkpt>
      <trkpt lat="44.60285" lon="4.22365">
        <ele>917</ele>
      </trkpt>
      <trkpt lat="44.60176" lon="4.22324">
        <ele>932</ele>
      </trkpt>
      <trkpt lat="44.6015" lon="4.22268">
        <ele>943</ele>
      </trkpt>
      <trkpt lat="44.60113" lon="4.22211">
        <ele>936</ele>
      </trkpt>
      <trkpt lat="44.60063" lon="4.22161">
        <ele>957</ele>
      </trkpt>
      <trkpt lat="44.60058" lon="4.22093">
        <ele>962</ele>
      </trkpt>
      <trkpt lat="44.60049" lon="4.2205">
        <ele>977</ele>
      </trkpt>
      <trkpt lat="44.60116" lon="4.22007">
        <ele>952</ele>
      </trkpt>
      <trkpt lat="44.60168" lon="4.21966">
        <ele>939</ele>
      </trkpt>
      <trkpt lat="44.60138" lon="4.21865">
        <ele>976</ele>
      </trkpt>
      <trkpt lat="44.60107" lon="4.21775">
        <ele>994</ele>
      </trkpt>
      <trkpt lat="44.60156" lon="4.21718">
        <ele>997</ele>
      </trkpt>
      <trkpt lat="44.60198" lon="4.21686">
        <ele>978</ele>
      </trkpt>
      <trkpt lat="44.60231" lon="4.21592">
        <ele>986</ele>
      </trkpt>
      <trkpt lat="44.60164" lon="4.21549">
        <ele>1010</ele>
      </trkpt>
      <trkpt lat="44.60109" lon="4.21476">
        <ele>1006</ele>
      </trkpt>
      <trkpt lat="44.60072" lon="4.21407">
        <ele>1024</ele>
      </trkpt>
      <trkpt lat="44.60057" lon="4.21377">
        <ele>1035</ele>
      </trkpt>
      <trkpt lat="44.60066" lon="4.21272">
        <ele>1037</ele>
      </trkpt>
      <trkpt lat="44.60085" lon="4.21156">
        <ele>1026</ele>
      </trkpt>
      <trkpt lat="44.60088" lon="4.21062">
        <ele>1032</ele>
      </trkpt>
      <trkpt lat="44.60123" lon="4.20937">
        <ele>1041</ele>
      </trkpt>
      <trkpt lat="44.60141" lon="4.2086">
        <ele>1050</ele>
      </trkpt>
      <trkpt lat="44.60155" lon="4.20789">
        <ele>1062</ele>
      </trkpt>
      <trkpt lat="44.60208" lon="4.20723">
        <ele>1054</ele>
      </trkpt>
      <trkpt lat="44.60231" lon="4.20611">
        <ele>1062</ele>
      </trkpt>
      <trkpt lat="44.60228" lon="4.20506">
        <ele>1066</ele>
      </trkpt>
      <trkpt lat="44.60225" lon="4.20397">
        <ele>1078</ele>
      </trkpt>
      <trkpt lat="44.60184" lon="4.20555">
        <ele>1078</ele>
      </trkpt>
      <trkpt lat="44.60175" lon="4.20671">
        <ele>1071</ele>
      </trkpt>
      <trkpt lat="44.60129" lon="4.20723">
        <ele>1079</ele>
      </trkpt>
      <trkpt lat="44.60077" lon="4.20843">
        <ele>1073</ele>
      </trkpt>
      <trkpt lat="44.60046" lon="4.20918">
        <ele>1065</ele>
      </trkpt>
      <trkpt lat="44.60007" lon="4.20948">
        <ele>1067</ele>
      </trkpt>
      <trkpt lat="44.59981" lon="4.20982">
        <ele>1061</ele>
      </trkpt>
      <trkpt lat="44.5996" lon="4.21164">
        <ele>1073</ele>
      </trkpt>
      <trkpt lat="44.59935" lon="4.21172">
        <ele>1082</ele>
      </trkpt>
      <trkpt lat="44.59917" lon="4.21293">
        <ele>1101</ele>
      </trkpt>
      <trkpt lat="44.59871" lon="4.21326">
        <ele>1125</ele>
      </trkpt>
      <trkpt lat="44.59853" lon="4.21366">
        <ele>1142</ele>
      </trkpt>
      <trkpt lat="44.59809" lon="4.21366">
        <ele>1148</ele>
      </trkpt>
      <trkpt lat="44.59775" lon="4.21525">
        <ele>1189</ele>
      </trkpt>
      <trkpt lat="44.5972" lon="4.2159">
        <ele>1193</ele>
      </trkpt>
      <trkpt lat="44.59709" lon="4.2165">
        <ele>1193</ele>
      </trkpt>
      <trkpt lat="44.59683" lon="4.21699">
        <ele>1193</ele>
      </trkpt>
      <trkpt lat="44.59569" lon="4.21712">
        <ele>1174</ele>
      </trkpt>
      <trkpt lat="44.59506" lon="4.21718">
        <ele>1171</ele>
      </trkpt>
      <trkpt lat="44.5944" lon="4.21708">
        <ele>1169</ele>
      </trkpt>
      <trkpt lat="44.59364" lon="4.21748">
        <ele>1168</ele>
      </trkpt>
      <trkpt lat="44.59321" lon="4.21748">
        <ele>1166</ele>
      </trkpt>
      <trkpt lat="44.5926" lon="4.21701">
        <ele>1162</ele>
      </trkpt>
      <trkpt lat="44.59187" lon="4.21675">
        <ele>1157</ele>
      </trkpt>
      <trkpt lat="44.59133" lon="4.21742">
        <ele>1140</ele>
      </trkpt>
      <trkpt lat="44.59096" lon="4.21832">
        <ele>1131</ele>
      </trkpt>
      <trkpt lat="44.59046" lon="4.21872">
        <ele>1118</ele>
      </trkpt>
      <trkpt lat="44.58875" lon="4.21904">
        <ele>1091</ele>
      </trkpt>
      <trkpt lat="44.58852" lon="4.21906">
        <ele>1090</ele>
      </trkpt>
      <trkpt lat="44.58818" lon="4.22114">
        <ele>1079</ele>
      </trkpt>
      <trkpt lat="44.58852" lon="4.22232">
        <ele>1058</ele>
      </trkpt>
      <trkpt lat="44.58832" lon="4.22386">
        <ele>1041</ele>
      </trkpt>
      <trkpt lat="44.58782" lon="4.22504">
        <ele>1018</ele>
      </trkpt>
      <trkpt lat="44.58741" lon="4.22616">
        <ele>1007</ele>
      </trkpt>
      <trkpt lat="44.58712" lon="4.22697">
        <ele>998</ele>
      </trkpt>
      <trkpt lat="44.58732" lon="4.22805">
        <ele>985</ele>
      </trkpt>
      <trkpt lat="44.58736" lon="4.22901">
        <ele>959</ele>
      </trkpt>
      <trkpt lat="44.58733" lon="4.22991">
        <ele>941</ele>
      </trkpt>
      <trkpt lat="44.58701" lon="4.22998">
        <ele>937</ele>
      </trkpt>
      <trkpt lat="44.58609" lon="4.2292">
        <ele>913</ele>
      </trkpt>
      <trkpt lat="44.58564" lon="4.22908">
        <ele>893</ele>
      </trkpt>
      <trkpt lat="44.58562" lon="4.22847">
        <ele>896</ele>
      </trkpt>
      <trkpt lat="44.58538" lon="4.22751">
        <ele>891</ele>
      </trkpt>
      <trkpt lat="44.58513" lon="4.22659">
        <ele>888</ele>
      </trkpt>
      <trkpt lat="44.58444" lon="4.22674">
        <ele>844</ele>
      </trkpt>
      <trkpt lat="44.58395" lon="4.22571">
        <ele>833</ele>
      </trkpt>
      <trkpt lat="44.58345" lon="4.22459">
        <ele>836</ele>
      </trkpt>
      <trkpt lat="44.58244" lon="4.2244">
        <ele>808</ele>
      </trkpt>
      <trkpt lat="44.58134" lon="4.22427">
        <ele>790</ele>
      </trkpt>
      <trkpt lat="44.58074" lon="4.22416">
        <ele>787</ele>
      </trkpt>
      <trkpt lat="44.58018" lon="4.22395">
        <ele>775</ele>
      </trkpt>
      <trkpt lat="44.57952" lon="4.2233">
        <ele>751</ele>
      </trkpt>
      <trkpt lat="44.57906" lon="4.22303">
        <ele>729</ele>
      </trkpt>
      <trkpt lat="44.5785" lon="4.22216">
        <ele>716</ele>
      </trkpt>
      <trkpt lat="44.57789" lon="4.22173">
        <ele>696</ele>
      </trkpt>
      <trkpt lat="44.57758" lon="4.22208">
        <ele>692</ele>
      </trkpt>
      <trkpt lat="44.57718" lon="4.22238">
        <ele>670</ele>
      </trkpt>
      <trkpt lat="44.57689" lon="4.22319">
        <ele>654</ele>
      </trkpt>
      <trkpt lat="44.57679" lon="4.22296">
        <ele>656</ele>
      </trkpt>
      <trkpt lat="44.57677" lon="4.22188">
        <ele>662</ele>
      </trkpt>
      <trkpt lat="44.57705" lon="4.22118">
        <ele>664</ele>
      </trkpt>
      <trkpt lat="44.5772" lon="4.22032">
        <ele>660</ele>
      </trkpt>
      <trkpt lat="44.57734" lon="4.21963">
        <ele>657</ele>
      </trkpt>
      <trkpt lat="44.57799" lon="4.21952">
        <ele>661</ele>
      </trkpt>
      <trkpt lat="44.57859" lon="4.21961">
        <ele>666</ele>
      </trkpt>
      <trkpt lat="44.5789" lon="4.21974">
        <ele>670</ele>
      </trkpt>
      <trkpt lat="44.57926" lon="4.21802">
        <ele>663</ele>
      </trkpt>
      <trkpt lat="44.57966" lon="4.21688">
        <ele>651</ele>
      </trkpt>
      <trkpt lat="44.57986" lon="4.21637">
        <ele>639</ele>
      </trkpt>
      <trkpt lat="44.58055" lon="4.21594">
        <ele>657</ele>
      </trkpt>
      <trkpt lat="44.58059" lon="4.21465">
        <ele>644</ele>
      </trkpt>
      <trkpt lat="44.58065" lon="4.21405">
        <ele>641</ele>
      </trkpt>
      <trkpt lat="44.58106" lon="4.21327">
        <ele>644</ele>
      </trkpt>
      <trkpt lat="44.58155" lon="4.21272">
        <ele>649</ele>
      </trkpt>
      <trkpt lat="44.58168" lon="4.21231">
        <ele>661</ele>
      </trkpt>
      <trkpt lat="44.58139" lon="4.2119">
        <ele>639</ele>
      </trkpt>
      <trkpt lat="44.58151" lon="4.21134">
        <ele>639</ele>
      </trkpt>
      <trkpt lat="44.58163" lon="4.21091">
        <ele>641</ele>
      </trkpt>
      <trkpt lat="44.58155" lon="4.21029">
        <ele>640</ele>
      </trkpt>
      <trkpt lat="44.58148" lon="4.20963">
        <ele>648</ele>
      </trkpt>
      <trkpt lat="44.58113" lon="4.20971">
        <ele>647</ele>
      </trkpt>
      <trkpt lat="44.58088" lon="4.21038">
        <ele>637</ele>
      </trkpt>
      <trkpt lat="44.58032" lon="4.21072">
        <ele>636</ele>
      </trkpt>
      <trkpt lat="44.57935" lon="4.21104">
        <ele>619</ele>
      </trkpt>
      <trkpt lat="44.57882" lon="4.21104">
        <ele>606</ele>
      </trkpt>
      <trkpt lat="44.57865" lon="4.20971">
        <ele>622</ele>
      </trkpt>
      <trkpt lat="44.57842" lon="4.20915">
        <ele>612</ele>
      </trkpt>
      <trkpt lat="44.57822" lon="4.20894">
        <ele>595</ele>
      </trkpt>
      <trkpt lat="44.57804" lon="4.20838">
        <ele>592</ele>
      </trkpt>
      <trkpt lat="44.57781" lon="4.20789">
        <ele>583</ele>
      </trkpt>
      <trkpt lat="44.5775" lon="4.20778">
        <ele>578</ele>
      </trkpt>
      <trkpt lat="44.577" lon="4.2077">
        <ele>565</ele>
      </trkpt>
      <trkpt lat="44.57657" lon="4.2083">
        <ele>553</ele>
      </trkpt>
      <trkpt lat="44.57623" lon="4.20879">
        <ele>540</ele>
      </trkpt>
      <trkpt lat="44.57601" lon="4.20911">
        <ele>535</ele>
      </trkpt>
      <trkpt lat="44.57573" lon="4.20896">
        <ele>526</ele>
      </trkpt>
      <trkpt lat="44.57575" lon="4.20984">
        <ele>512</ele>
      </trkpt>
      <trkpt lat="44.57547" lon="4.20963">
        <ele>509</ele>
      </trkpt>
      <trkpt lat="44.57538" lon="4.20997">
        <ele>505</ele>
      </trkpt>
      <trkpt lat="44.5751" lon="4.20969">
        <ele>503</ele>
      </trkpt>
      <trkpt lat="44.5751" lon="4.21027">
        <ele>494</ele>
      </trkpt>
      <trkpt lat="44.57498" lon="4.21016">
        <ele>485</ele>
      </trkpt>
      <trkpt lat="44.5748" lon="4.20965">
        <ele>489</ele>
      </trkpt>
      <trkpt lat="44.57474" lon="4.21051">
        <ele>483</ele>
      </trkpt>
      <trkpt lat="44.57397" lon="4.21037">
        <ele>472</ele>
      </trkpt>
      <trkpt lat="44.57337" lon="4.21042">
        <ele>470</ele>
      </trkpt>
      <trkpt lat="44.57322" lon="4.21078">
        <ele>471</ele>
      </trkpt>
      <trkpt lat="44.57296" lon="4.2107">
        <ele>467</ele>
      </trkpt>
      <trkpt lat="44.57262" lon="4.21033">
        <ele>463</ele>
      </trkpt>
      <trkpt lat="44.57227" lon="4.21048">
        <ele>460</ele>
      </trkpt>
      <trkpt lat="44.57204" lon="4.21033">
        <ele>458</ele>
      </trkpt>
      <trkpt lat="44.57215" lon="4.21162">
        <ele>469</ele>
      </trkpt>
      <trkpt lat="44.57189" lon="4.21181">
        <ele>470</ele>
      </trkpt>
      <trkpt lat="44.57174" lon="4.21148">
        <ele>467</ele>
      </trkpt>
      <trkpt lat="44.5717" lon="4.21189">
        <ele>470</ele>
      </trkpt>
      <trkpt lat="44.57147" lon="4.21147">
        <ele>470</ele>
      </trkpt>
      <trkpt lat="44.57113" lon="4.21209">
        <ele>477</ele>
      </trkpt>
      <trkpt lat="44.5707" lon="4.21286">
        <ele>478</ele>
      </trkpt>
      <trkpt lat="44.57014" lon="4.21378">
        <ele>485</ele>
      </trkpt>
      <trkpt lat="44.56972" lon="4.21405">
        <ele>486</ele>
      </trkpt>
      <trkpt lat="44.56959" lon="4.21341">
        <ele>480</ele>
      </trkpt>
      <trkpt lat="44.56897" lon="4.21322">
        <ele>470</ele>
      </trkpt>
      <trkpt lat="44.5685" lon="4.21328">
        <ele>470</ele>
      </trkpt>
      <trkpt lat="44.56798" lon="4.21343">
        <ele>478</ele>
      </trkpt>
      <trkpt lat="44.56693" lon="4.21472">
        <ele>482</ele>
      </trkpt>
      <trkpt lat="44.56681" lon="4.21535">
        <ele>478</ele>
      </trkpt>
      <trkpt lat="44.56659" lon="4.2158">
        <ele>488</ele>
      </trkpt>
      <trkpt lat="44.56613" lon="4.21606">
        <ele>491</ele>
      </trkpt>
      <trkpt lat="44.56534" lon="4.21664">
        <ele>501</ele>
      </trkpt>
      <trkpt lat="44.56457" lon="4.21677">
        <ele>491</ele>
      </trkpt>
      <trkpt lat="44.56379" lon="4.21657">
        <ele>480</ele>
      </trkpt>
      <trkpt lat="44.56344" lon="4.21565">
        <ele>482</ele>
      </trkpt>
      <trkpt lat="44.56266" lon="4.21535">
        <ele>471</ele>
      </trkpt>
      <trkpt lat="44.56253" lon="4.21559">
        <ele>467</ele>
      </trkpt>
      <trkpt lat="44.56269" lon="4.21595">
        <ele>461</ele>
      </trkpt>
      <trkpt lat="44.56209" lon="4.21695">
        <ele>439</ele>
      </trkpt>
      <trkpt lat="44.56227" lon="4.2172">
        <ele>439</ele>
      </trkpt>
      <trkpt lat="44.56219" lon="4.21811">
        <ele>432</ele>
      </trkpt>
      <trkpt lat="44.56242" lon="4.21899">
        <ele>429</ele>
      </trkpt>
      <trkpt lat="44.56224" lon="4.21992">
        <ele>428</ele>
      </trkpt>
      <trkpt lat="44.56195" lon="4.22053">
        <ele>431</ele>
      </trkpt>
      <trkpt lat="44.56146" lon="4.22097">
        <ele>449</ele>
      </trkpt>
      <trkpt lat="44.56159" lon="4.22182">
        <ele>450</ele>
      </trkpt>
      <trkpt lat="44.56113" lon="4.22226">
        <ele>457</ele>
      </trkpt>
      <trkpt lat="44.56112" lon="4.22251">
        <ele>463</ele>
      </trkpt>
      <trkpt lat="44.56177" lon="4.22289">
        <ele>451</ele>
      </trkpt>
      <trkpt lat="44.56233" lon="4.22365">
        <ele>455</ele>
      </trkpt>
      <trkpt lat="44.56234" lon="4.2239">
        <ele>456</ele>
      </trkpt>
      <trkpt lat="44.56209" lon="4.22379">
        <ele>459</ele>
      </trkpt>
      <trkpt lat="44.56139" lon="4.22327">
        <ele>467</ele>
      </trkpt>
      <trkpt lat="44.56104" lon="4.22329">
        <ele>472</ele>
      </trkpt>
      <trkpt lat="44.56058" lon="4.2231">
        <ele>477</ele>
      </trkpt>
      <trkpt lat="44.56043" lon="4.22308">
        <ele>478</ele>
      </trkpt>
      <trkpt lat="44.56066" lon="4.22362">
        <ele>491</ele>
      </trkpt>
      <trkpt lat="44.56118" lon="4.2239">
        <ele>482</ele>
      </trkpt>
      <trkpt lat="44.56147" lon="4.2243">
        <ele>483</ele>
      </trkpt>
      <trkpt lat="44.56131" lon="4.22486">
        <ele>486</ele>
      </trkpt>
      <trkpt lat="44.56115" lon="4.22415">
        <ele>485</ele>
      </trkpt>
      <trkpt lat="44.5605" lon="4.22413">
        <ele>498</ele>
      </trkpt>
      <trkpt lat="44.56089" lon="4.2246">
        <ele>492</ele>
      </trkpt>
      <trkpt lat="44.56055" lon="4.22634">
        <ele>504</ele>
      </trkpt>
      <trkpt lat="44.55997" lon="4.22611">
        <ele>505</ele>
      </trkpt>
      <trkpt lat="44.55931" lon="4.22525">
        <ele>515</ele>
      </trkpt>
      <trkpt lat="44.55885" lon="4.22484">
        <ele>522</ele>
      </trkpt>
      <trkpt lat="44.55859" lon="4.22512">
        <ele>519</ele>
      </trkpt>
      <trkpt lat="44.55841" lon="4.2257">
        <ele>514</ele>
      </trkpt>
      <trkpt lat="44.5579" lon="4.22619">
        <ele>521</ele>
      </trkpt>
      <trkpt lat="44.55772" lon="4.22701">
        <ele>510</ele>
      </trkpt>
      <trkpt lat="44.55741" lon="4.22827">
        <ele>505</ele>
      </trkpt>
      <trkpt lat="44.55708" lon="4.22915">
        <ele>502</ele>
      </trkpt>
      <trkpt lat="44.55666" lon="4.23041">
        <ele>495</ele>
      </trkpt>
      <trkpt lat="44.55627" lon="4.23009">
        <ele>495</ele>
      </trkpt>
      <trkpt lat="44.55602" lon="4.22944">
        <ele>500</ele>
      </trkpt>
      <trkpt lat="44.55567" lon="4.22901">
        <ele>488</ele>
      </trkpt>
      <trkpt lat="44.55551" lon="4.22915">
        <ele>483</ele>
      </trkpt>
      <trkpt lat="44.55542" lon="4.22887">
        <ele>481</ele>
      </trkpt>
      <trkpt lat="44.55524" lon="4.22889">
        <ele>476</ele>
      </trkpt>
      <trkpt lat="44.55509" lon="4.22851">
        <ele>472</ele>
      </trkpt>
      <trkpt lat="44.55507" lon="4.2284">
        <ele>469</ele>
      </trkpt>
      <trkpt lat="44.55494" lon="4.22846">
        <ele>455</ele>
      </trkpt>
      <trkpt lat="44.55469" lon="4.22793">
        <ele>453</ele>
      </trkpt>
      <trkpt lat="44.55447" lon="4.22718">
        <ele>462</ele>
      </trkpt>
      <trkpt lat="44.55419" lon="4.22725">
        <ele>455</ele>
      </trkpt>
      <trkpt lat="44.55407" lon="4.22733">
        <ele>439</ele>
      </trkpt>
      <trkpt lat="44.55428" lon="4.22746">
        <ele>450</ele>
      </trkpt>
      <trkpt lat="44.55441" lon="4.2281">
        <ele>445</ele>
      </trkpt>
      <trkpt lat="44.55456" lon="4.22841">
        <ele>444</ele>
      </trkpt>
      <trkpt lat="44.55432" lon="4.22896">
        <ele>436</ele>
      </trkpt>
      <trkpt lat="44.55421" lon="4.22947">
        <ele>433</ele>
      </trkpt>
      <trkpt lat="44.55428" lon="4.23019">
        <ele>429</ele>
      </trkpt>
      <trkpt lat="44.55427" lon="4.23071">
        <ele>426</ele>
      </trkpt>
      <trkpt lat="44.55437" lon="4.23114">
        <ele>429</ele>
      </trkpt>
      <trkpt lat="44.55413" lon="4.23126">
        <ele>413</ele>
      </trkpt>
      <trkpt lat="44.55369" lon="4.23174">
        <ele>410</ele>
      </trkpt>
      <trkpt lat="44.55368" lon="4.23284">
        <ele>412</ele>
      </trkpt>
      <trkpt lat="44.55331" lon="4.2335">
        <ele>400</ele>
      </trkpt>
      <trkpt lat="44.55314" lon="4.23434">
        <ele>401</ele>
      </trkpt>
      <trkpt lat="44.55286" lon="4.23534">
        <ele>398</ele>
      </trkpt>
      <trkpt lat="44.55269" lon="4.23665">
        <ele>391</ele>
      </trkpt>
      <trkpt lat="44.55243" lon="4.23773">
        <ele>380</ele>
      </trkpt>
      <trkpt lat="44.55251" lon="4.23917">
        <ele>373</ele>
      </trkpt>
      <trkpt lat="44.55315" lon="4.24029">
        <ele>381</ele>
      </trkpt>
      <trkpt lat="44.55341" lon="4.24123">
        <ele>376</ele>
      </trkpt>
      <trkpt lat="44.55301" lon="4.24204">
        <ele>366</ele>
      </trkpt>
      <trkpt lat="44.55273" lon="4.24235">
        <ele>362</ele>
      </trkpt>
      <trkpt lat="44.55269" lon="4.24273">
        <ele>358</ele>
      </trkpt>
      <trkpt lat="44.55313" lon="4.24288">
        <ele>361</ele>
      </trkpt>
      <trkpt lat="44.55313" lon="4.2431">
        <ele>361</ele>
      </trkpt>
      <trkpt lat="44.55258" lon="4.24335">
        <ele>360</ele>
      </trkpt>
      <trkpt lat="44.55223" lon="4.24344">
        <ele>362</ele>
      </trkpt>
      <trkpt lat="44.552" lon="4.24395">
        <ele>364</ele>
      </trkpt>
      <trkpt lat="44.55161" lon="4.24437">
        <ele>357</ele>
      </trkpt>
      <trkpt lat="44.55122" lon="4.24448">
        <ele>354</ele>
      </trkpt>
      <trkpt lat="44.55133" lon="4.24502">
        <ele>357</ele>
      </trkpt>
      <trkpt lat="44.55153" lon="4.24539">
        <ele>359</ele>
      </trkpt>
      <trkpt lat="44.55132" lon="4.2461">
        <ele>359</ele>
      </trkpt>
      <trkpt lat="44.55138" lon="4.24683">
        <ele>362</ele>
      </trkpt>
      <trkpt lat="44.55129" lon="4.24761">
        <ele>359</ele>
      </trkpt>
      <trkpt lat="44.55168" lon="4.24852">
        <ele>371</ele>
      </trkpt>
      <trkpt lat="44.55175" lon="4.24946">
        <ele>365</ele>
      </trkpt>
      <trkpt lat="44.55145" lon="4.25067">
        <ele>348</ele>
      </trkpt>
      <trkpt lat="44.55155" lon="4.25158">
        <ele>340</ele>
      </trkpt>
      <trkpt lat="44.55197" lon="4.25171">
        <ele>346</ele>
      </trkpt>
      <trkpt lat="44.55217" lon="4.25179">
        <ele>348</ele>
      </trkpt>
      <trkpt lat="44.55262" lon="4.25157">
        <ele>351</ele>
      </trkpt>
      <trkpt lat="44.55306" lon="4.25166">
        <ele>356</ele>
      </trkpt>
      <trkpt lat="44.55324" lon="4.25187">
        <ele>358</ele>
      </trkpt>
      <trkpt lat="44.55376" lon="4.25141">
        <ele>363</ele>
      </trkpt>
      <trkpt lat="44.55426" lon="4.25127">
        <ele>369</ele>
      </trkpt>
      <trkpt lat="44.55428" lon="4.25103">
        <ele>366</ele>
      </trkpt>
      <trkpt lat="44.55376" lon="4.25091">
        <ele>362</ele>
      </trkpt>
      <trkpt lat="44.55319" lon="4.25082">
        <ele>366</ele>
      </trkpt>
      <trkpt lat="44.55283" lon="4.25074">
        <ele>368</ele>
      </trkpt>
      <trkpt lat="44.55419" lon="4.25021">
        <ele>375</ele>
      </trkpt>
      <trkpt lat="44.55488" lon="4.24962">
        <ele>392</ele>
      </trkpt>
      <trkpt lat="44.55519" lon="4.25002">
        <ele>380</ele>
      </trkpt>
      <trkpt lat="44.55591" lon="4.24991">
        <ele>400</ele>
      </trkpt>
      <trkpt lat="44.55625" lon="4.25018">
        <ele>396</ele>
      </trkpt>
      <trkpt lat="44.55644" lon="4.25077">
        <ele>392</ele>
      </trkpt>
      <trkpt lat="44.55784" lon="4.25156">
        <ele>406</ele>
      </trkpt>
      <trkpt lat="44.55913" lon="4.25134">
        <ele>414</ele>
      </trkpt>
      <trkpt lat="44.55971" lon="4.25033">
        <ele>421</ele>
      </trkpt>
      <trkpt lat="44.56023" lon="4.25025">
        <ele>415</ele>
      </trkpt>
      <trkpt lat="44.56027" lon="4.25051">
        <ele>414</ele>
      </trkpt>
      <trkpt lat="44.55976" lon="4.25112">
        <ele>417</ele>
      </trkpt>
      <trkpt lat="44.55953" lon="4.25182">
        <ele>428</ele>
      </trkpt>
      <trkpt lat="44.55873" lon="4.25194">
        <ele>419</ele>
      </trkpt>
      <trkpt lat="44.55767" lon="4.25244">
        <ele>406</ele>
      </trkpt>
      <trkpt lat="44.55765" lon="4.25385">
        <ele>432</ele>
      </trkpt>
      <trkpt lat="44.55629" lon="4.25289">
        <ele>419</ele>
      </trkpt>
      <trkpt lat="44.55539" lon="4.25352">
        <ele>430</ele>
      </trkpt>
      <trkpt lat="44.5553" lon="4.25428">
        <ele>430</ele>
      </trkpt>
      <trkpt lat="44.55571" lon="4.25561">
        <ele>445</ele>
      </trkpt>
      <trkpt lat="44.55542" lon="4.25621">
        <ele>450</ele>
      </trkpt>
      <trkpt lat="44.55537" lon="4.25669">
        <ele>462</ele>
      </trkpt>
      <trkpt lat="44.55408" lon="4.25791">
        <ele>454</ele>
      </trkpt>
      <trkpt lat="44.55346" lon="4.25929">
        <ele>455</ele>
      </trkpt>
      <trkpt lat="44.55327" lon="4.26156">
        <ele>452</ele>
      </trkpt>
      <trkpt lat="44.55251" lon="4.25935">
        <ele>446</ele>
      </trkpt>
      <trkpt lat="44.55197" lon="4.25888">
        <ele>436</ele>
      </trkpt>
      <trkpt lat="44.55243" lon="4.25828">
        <ele>438</ele>
      </trkpt>
      <trkpt lat="44.55275" lon="4.25753">
        <ele>438</ele>
      </trkpt>
      <trkpt lat="44.55266" lon="4.25686">
        <ele>423</ele>
      </trkpt>
      <trkpt lat="44.55367" lon="4.25648">
        <ele>420</ele>
      </trkpt>
      <trkpt lat="44.55372" lon="4.25525">
        <ele>401</ele>
      </trkpt>
      <trkpt lat="44.55337" lon="4.2548">
        <ele>395</ele>
      </trkpt>
      <trkpt lat="44.55314" lon="4.25412">
        <ele>386</ele>
      </trkpt>
      <trkpt lat="44.55281" lon="4.25343">
        <ele>382</ele>
      </trkpt>
      <trkpt lat="44.55269" lon="4.25311">
        <ele>375</ele>
      </trkpt>
      <trkpt lat="44.55239" lon="4.25352">
        <ele>375</ele>
      </trkpt>
      <trkpt lat="44.55252" lon="4.25416">
        <ele>381</ele>
      </trkpt>
      <trkpt lat="44.55219" lon="4.25365">
        <ele>371</ele>
      </trkpt>
      <trkpt lat="44.55199" lon="4.25395">
        <ele>368</ele>
      </trkpt>
      <trkpt lat="44.55177" lon="4.25328">
        <ele>362</ele>
      </trkpt>
      <trkpt lat="44.55151" lon="4.25292">
        <ele>346</ele>
      </trkpt>
      <trkpt lat="44.55136" lon="4.25255">
        <ele>344</ele>
      </trkpt>
      <trkpt lat="44.55116" lon="4.25313">
        <ele>343</ele>
      </trkpt>
      <trkpt lat="44.55104" lon="4.25354">
        <ele>344</ele>
      </trkpt>
      <trkpt lat="44.55135" lon="4.25414">
        <ele>349</ele>
      </trkpt>
      <trkpt lat="44.55089" lon="4.25435">
        <ele>345</ele>
      </trkpt>
      <trkpt lat="44.55051" lon="4.25523">
        <ele>338</ele>
      </trkpt>
      <trkpt lat="44.55061" lon="4.2557">
        <ele>342</ele>
      </trkpt>
      <trkpt lat="44.55038" lon="4.25594">
        <ele>344</ele>
      </trkpt>
      <trkpt lat="44.54864" lon="4.25817">
        <ele>342</ele>
      </trkpt>
      <trkpt lat="44.54844" lon="4.25922">
        <ele>346</ele>
      </trkpt>
      <trkpt lat="44.54893" lon="4.25987">
        <ele>357</ele>
      </trkpt>
      <trkpt lat="44.5483" lon="4.26034">
        <ele>340</ele>
      </trkpt>
      <trkpt lat="44.54829" lon="4.26165">
        <ele>358</ele>
      </trkpt>
      <trkpt lat="44.54769" lon="4.26248">
        <ele>360</ele>
      </trkpt>
      <trkpt lat="44.54697" lon="4.26285">
        <ele>354</ele>
      </trkpt>
      <trkpt lat="44.54648" lon="4.26375">
        <ele>357</ele>
      </trkpt>
      <trkpt lat="44.54604" lon="4.2645">
        <ele>371</ele>
      </trkpt>
      <trkpt lat="44.54535" lon="4.266">
        <ele>370</ele>
      </trkpt>
      <trkpt lat="44.54467" lon="4.26709">
        <ele>357</ele>
      </trkpt>
      <trkpt lat="44.54416" lon="4.26797">
        <ele>350</ele>
      </trkpt>
      <trkpt lat="44.54373" lon="4.269">
        <ele>353</ele>
      </trkpt>
      <trkpt lat="44.54461" lon="4.26957">
        <ele>368</ele>
      </trkpt>
      <trkpt lat="44.54555" lon="4.27066">
        <ele>377</ele>
      </trkpt>
      <trkpt lat="44.5447" lon="4.26856">
        <ele>383</ele>
      </trkpt>
      <trkpt lat="44.54503" lon="4.26826">
        <ele>395</ele>
      </trkpt>
      <trkpt lat="44.5472" lon="4.27044">
        <ele>406</ele>
      </trkpt>
      <trkpt lat="44.54892" lon="4.27169">
        <ele>413</ele>
      </trkpt>
      <trkpt lat="44.5498" lon="4.27328">
        <ele>414</ele>
      </trkpt>
      <trkpt lat="44.55005" lon="4.27465">
        <ele>417</ele>
      </trkpt>
      <trkpt lat="44.55097" lon="4.27585">
        <ele>415</ele>
      </trkpt>
      <trkpt lat="44.55164" lon="4.27611">
        <ele>415</ele>
      </trkpt>
      <trkpt lat="44.55185" lon="4.27589">
        <ele>419</ele>
      </trkpt>
      <trkpt lat="44.55229" lon="4.27716">
        <ele>415</ele>
      </trkpt>
      <trkpt lat="44.55248" lon="4.27802">
        <ele>413</ele>
      </trkpt>
      <trkpt lat="44.55236" lon="4.27877">
        <ele>410</ele>
      </trkpt>
      <trkpt lat="44.55217" lon="4.27982">
        <ele>411</ele>
      </trkpt>
      <trkpt lat="44.552" lon="4.28029">
        <ele>416</ele>
      </trkpt>
      <trkpt lat="44.55159" lon="4.28015">
        <ele>413</ele>
      </trkpt>
      <trkpt lat="44.55112" lon="4.27994">
        <ele>405</ele>
      </trkpt>
      <trkpt lat="44.55064" lon="4.27953">
        <ele>402</ele>
      </trkpt>
      <trkpt lat="44.55049" lon="4.27934">
        <ele>400</ele>
      </trkpt>
      <trkpt lat="44.55041" lon="4.27951">
        <ele>402</ele>
      </trkpt>
      <trkpt lat="44.55056" lon="4.2797">
        <ele>403</ele>
      </trkpt>
      <trkpt lat="44.55096" lon="4.27999">
        <ele>406</ele>
      </trkpt>
      <trkpt lat="44.5509" lon="4.28009">
        <ele>411</ele>
      </trkpt>
      <trkpt lat="44.5506" lon="4.28004">
        <ele>416</ele>
      </trkpt>
      <trkpt lat="44.55094" lon="4.28032">
        <ele>415</ele>
      </trkpt>
      <trkpt lat="44.55118" lon="4.2804">
        <ele>416</ele>
      </trkpt>
      <trkpt lat="44.55079" lon="4.28049">
        <ele>422</ele>
      </trkpt>
      <trkpt lat="44.55047" lon="4.28046">
        <ele>422</ele>
      </trkpt>
      <trkpt lat="44.55027" lon="4.28033">
        <ele>421</ele>
      </trkpt>
      <trkpt lat="44.5494" lon="4.28009">
        <ele>425</ele>
      </trkpt>
      <trkpt lat="44.5483" lon="4.27997">
        <ele>421</ele>
      </trkpt>
      <trkpt lat="44.54905" lon="4.28022">
        <ele>429</ele>
      </trkpt>
      <trkpt lat="44.54974" lon="4.28056">
        <ele>431</ele>
      </trkpt>
      <trkpt lat="44.5502" lon="4.28121">
        <ele>435</ele>
      </trkpt>
      <trkpt lat="44.5494" lon="4.28142">
        <ele>441</ele>
      </trkpt>
      <trkpt lat="44.54881" lon="4.2814">
        <ele>447</ele>
      </trkpt>
      <trkpt lat="44.54819" lon="4.28147">
        <ele>452</ele>
      </trkpt>
      <trkpt lat="44.54787" lon="4.28168">
        <ele>452</ele>
      </trkpt>
      <trkpt lat="44.54752" lon="4.28192">
        <ele>452</ele>
      </trkpt>
      <trkpt lat="44.54676" lon="4.28147">
        <ele>457</ele>
      </trkpt>
      <trkpt lat="44.54578" lon="4.28108">
        <ele>444</ele>
      </trkpt>
      <trkpt lat="44.54513" lon="4.28121">
        <ele>439</ele>
      </trkpt>
      <trkpt lat="44.54606" lon="4.28438">
        <ele>427</ele>
      </trkpt>
      <trkpt lat="44.54633" lon="4.28489">
        <ele>420</ele>
      </trkpt>
      <trkpt lat="44.54794" lon="4.28328">
        <ele>428</ele>
      </trkpt>
      <trkpt lat="44.54948" lon="4.28221">
        <ele>433</ele>
      </trkpt>
      <trkpt lat="44.54993" lon="4.28236">
        <ele>429</ele>
      </trkpt>
      <trkpt lat="44.5495" lon="4.28311">
        <ele>413</ele>
      </trkpt>
      <trkpt lat="44.54885" lon="4.28318">
        <ele>417</ele>
      </trkpt>
      <trkpt lat="44.54835" lon="4.28358">
        <ele>402</ele>
      </trkpt>
      <trkpt lat="44.54749" lon="4.2847">
        <ele>400</ele>
      </trkpt>
      <trkpt lat="44.54745" lon="4.28494">
        <ele>390</ele>
      </trkpt>
      <trkpt lat="44.54729" lon="4.28564">
        <ele>378</ele>
      </trkpt>
      <trkpt lat="44.54814" lon="4.28483">
        <ele>378</ele>
      </trkpt>
      <trkpt lat="44.54729" lon="4.28635">
        <ele>359</ele>
      </trkpt>
      <trkpt lat="44.54656" lon="4.2874">
        <ele>341</ele>
      </trkpt>
      <trkpt lat="44.54603" lon="4.28815">
        <ele>322</ele>
      </trkpt>
      <trkpt lat="44.54529" lon="4.28856">
        <ele>307</ele>
      </trkpt>
      <trkpt lat="44.5447" lon="4.28904">
        <ele>305</ele>
      </trkpt>
      <trkpt lat="44.54427" lon="4.28969">
        <ele>282</ele>
      </trkpt>
      <trkpt lat="44.54367" lon="4.29027">
        <ele>266</ele>
      </trkpt>
      <trkpt lat="44.54298" lon="4.29009">
        <ele>260</ele>
      </trkpt>
      <trkpt lat="44.54253" lon="4.28992">
        <ele>261</ele>
      </trkpt>
      <trkpt lat="44.54271" lon="4.29034">
        <ele>254</ele>
      </trkpt>
      <trkpt lat="44.54305" lon="4.2908">
        <ele>254</ele>
      </trkpt>
      <trkpt lat="44.54275" lon="4.29077">
        <ele>249</ele>
      </trkpt>
      <trkpt lat="44.5425" lon="4.29125">
        <ele>230</ele>
      </trkpt>
      <trkpt lat="44.54185" lon="4.29074">
        <ele>234</ele>
      </trkpt>
      <trkpt lat="44.54149" lon="4.29082">
        <ele>227</ele>
      </trkpt>
      <trkpt lat="44.54127" lon="4.29052">
        <ele>227</ele>
      </trkpt>
      <trkpt lat="44.54092" lon="4.29176">
        <ele>209</ele>
      </trkpt>
      <trkpt lat="44.54064" lon="4.29209">
        <ele>211</ele>
      </trkpt>
      <trkpt lat="44.53911" lon="4.29185">
        <ele>203</ele>
      </trkpt>
      <trkpt lat="44.53797" lon="4.29323">
        <ele>206</ele>
      </trkpt>
      <trkpt lat="44.53676" lon="4.2953">
        <ele>212</ele>
      </trkpt>
      <trkpt lat="44.53648" lon="4.29551">
        <ele>206</ele>
      </trkpt>
      <trkpt lat="44.53606" lon="4.29579">
        <ele>202</ele>
      </trkpt>
      <trkpt lat="44.5343" lon="4.29585">
        <ele>203</ele>
      </trkpt>
      <trkpt lat="44.53326" lon="4.29594">
        <ele>206</ele>
      </trkpt>
      <trkpt lat="44.53244" lon="4.29623">
        <ele>202</ele>
      </trkpt>
      <trkpt lat="44.5316" lon="4.29625">
        <ele>191</ele>
      </trkpt>
      <trkpt lat="44.53137" lon="4.29621">
        <ele>191</ele>
      </trkpt>
      <trkpt lat="44.53111" lon="4.29599">
        <ele>189</ele>
      </trkpt>
      <trkpt lat="44.53088" lon="4.29524">
        <ele>188</ele>
      </trkpt>
      <trkpt lat="44.53068" lon="4.29478">
        <ele>195</ele>
      </trkpt>
      <trkpt lat="44.53038" lon="4.29476">
        <ele>197</ele>
      </trkpt>
      <trkpt lat="44.52997" lon="4.29509">
        <ele>193</ele>
      </trkpt>
      <trkpt lat="44.53083" lon="4.29365">
        <ele>209</ele>
      </trkpt>
      <trkpt lat="44.53078" lon="4.29314">
        <ele>210</ele>
      </trkpt>
      <trkpt lat="44.53" lon="4.29147">
        <ele>227</ele>
      </trkpt>
      <trkpt lat="44.52976" lon="4.2904">
        <ele>228</ele>
      </trkpt>
      <trkpt lat="44.52986" lon="4.28933">
        <ele>237</ele>
      </trkpt>
      <trkpt lat="44.53043" lon="4.28785">
        <ele>230</ele>
      </trkpt>
      <trkpt lat="44.53027" lon="4.28692">
        <ele>233</ele>
      </trkpt>
      <trkpt lat="44.53015" lon="4.28554">
        <ele>237</ele>
      </trkpt>
      <trkpt lat="44.53074" lon="4.28394">
        <ele>251</ele>
      </trkpt>
      <trkpt lat="44.53119" lon="4.28331">
        <ele>265</ele>
      </trkpt>
      <trkpt lat="44.53219" lon="4.28314">
        <ele>258</ele>
      </trkpt>
      <trkpt lat="44.53126" lon="4.28301">
        <ele>268</ele>
      </trkpt>
      <trkpt lat="44.53043" lon="4.28366">
        <ele>266</ele>
      </trkpt>
      <trkpt lat="44.52971" lon="4.28457">
        <ele>277</ele>
      </trkpt>
      <trkpt lat="44.52907" lon="4.2862">
        <ele>287</ele>
      </trkpt>
      <trkpt lat="44.52924" lon="4.28756">
        <ele>285</ele>
      </trkpt>
      <trkpt lat="44.52934" lon="4.28781">
        <ele>276</ele>
      </trkpt>
      <trkpt lat="44.52876" lon="4.28862">
        <ele>282</ele>
      </trkpt>
      <trkpt lat="44.52851" lon="4.28955">
        <ele>277</ele>
      </trkpt>
      <trkpt lat="44.52828" lon="4.29056">
        <ele>286</ele>
      </trkpt>
      <trkpt lat="44.52828" lon="4.29145">
        <ele>289</ele>
      </trkpt>
      <trkpt lat="44.52838" lon="4.29227">
        <ele>289</ele>
      </trkpt>
      <trkpt lat="44.52786" lon="4.2923">
        <ele>291</ele>
      </trkpt>
      <trkpt lat="44.52799" lon="4.29046">
        <ele>286</ele>
      </trkpt>
      <trkpt lat="44.52715" lon="4.29021">
        <ele>280</ele>
      </trkpt>
      <trkpt lat="44.52648" lon="4.28983">
        <ele>272</ele>
      </trkpt>
      <trkpt lat="44.52612" lon="4.28897">
        <ele>269</ele>
      </trkpt>
      <trkpt lat="44.52597" lon="4.28875">
        <ele>270</ele>
      </trkpt>
      <trkpt lat="44.52527" lon="4.28917">
        <ele>268</ele>
      </trkpt>
      <trkpt lat="44.52464" lon="4.28993">
        <ele>268</ele>
      </trkpt>
      <trkpt lat="44.52414" lon="4.29032">
        <ele>267</ele>
      </trkpt>
      <trkpt lat="44.52403" lon="4.29089">
        <ele>262</ele>
      </trkpt>
      <trkpt lat="44.52389" lon="4.29105">
        <ele>261</ele>
      </trkpt>
      <trkpt lat="44.52336" lon="4.29099">
        <ele>264</ele>
      </trkpt>
      <trkpt lat="44.52267" lon="4.29029">
        <ele>267</ele>
      </trkpt>
      <trkpt lat="44.5225" lon="4.29">
        <ele>271</ele>
      </trkpt>
      <trkpt lat="44.52208" lon="4.28993">
        <ele>272</ele>
      </trkpt>
      <trkpt lat="44.52206" lon="4.28965">
        <ele>273</ele>
      </trkpt>
      <trkpt lat="44.52172" lon="4.28926">
        <ele>274</ele>
      </trkpt>
      <trkpt lat="44.52182" lon="4.28872">
        <ele>277</ele>
      </trkpt>
      <trkpt lat="44.52238" lon="4.28834">
        <ele>279</ele>
      </trkpt>
      <trkpt lat="44.52274" lon="4.28736">
        <ele>285</ele>
      </trkpt>
      <trkpt lat="44.52322" lon="4.28652">
        <ele>290</ele>
      </trkpt>
      <trkpt lat="44.52347" lon="4.28584">
        <ele>291</ele>
      </trkpt>
      <trkpt lat="44.52287" lon="4.28554">
        <ele>293</ele>
      </trkpt>
      <trkpt lat="44.5225" lon="4.28546">
        <ele>293</ele>
      </trkpt>
      <trkpt lat="44.52239" lon="4.2856">
        <ele>289</ele>
      </trkpt>
      <trkpt lat="44.52225" lon="4.28549">
        <ele>288</ele>
      </trkpt>
      <trkpt lat="44.52236" lon="4.28514">
        <ele>290</ele>
      </trkpt>
      <trkpt lat="44.52246" lon="4.28385">
        <ele>289</ele>
      </trkpt>
      <trkpt lat="44.52265" lon="4.28339">
        <ele>294</ele>
      </trkpt>
      <trkpt lat="44.52286" lon="4.28334">
        <ele>296</ele>
      </trkpt>
      <trkpt lat="44.52377" lon="4.2826">
        <ele>298</ele>
      </trkpt>
      <trkpt lat="44.52421" lon="4.28247">
        <ele>297</ele>
      </trkpt>
      <trkpt lat="44.52394" lon="4.28157">
        <ele>298</ele>
      </trkpt>
      <trkpt lat="44.52387" lon="4.28152">
        <ele>298</ele>
      </trkpt>
      <trkpt lat="44.52349" lon="4.28184">
        <ele>297</ele>
      </trkpt>
      <trkpt lat="44.52321" lon="4.28187">
        <ele>297</ele>
      </trkpt>
      <trkpt lat="44.52251" lon="4.28232">
        <ele>296</ele>
      </trkpt>
      <trkpt lat="44.5222" lon="4.28257">
        <ele>291</ele>
      </trkpt>
      <trkpt lat="44.52188" lon="4.2824">
        <ele>295</ele>
      </trkpt>
      <trkpt lat="44.52162" lon="4.2821">
        <ele>295</ele>
      </trkpt>
      <trkpt lat="44.52125" lon="4.28141">
        <ele>301</ele>
      </trkpt>
      <trkpt lat="44.52168" lon="4.2807">
        <ele>308</ele>
      </trkpt>
      <trkpt lat="44.522" lon="4.28036">
        <ele>307</ele>
      </trkpt>
      <trkpt lat="44.52218" lon="4.27996">
        <ele>306</ele>
      </trkpt>
      <trkpt lat="44.52264" lon="4.27957">
        <ele>309</ele>
      </trkpt>
      <trkpt lat="44.52405" lon="4.27943">
        <ele>312</ele>
      </trkpt>
      <trkpt lat="44.52432" lon="4.27908">
        <ele>314</ele>
      </trkpt>
      <trkpt lat="44.52401" lon="4.27831">
        <ele>314</ele>
      </trkpt>
      <trkpt lat="44.52445" lon="4.27777">
        <ele>317</ele>
      </trkpt>
      <trkpt lat="44.52443" lon="4.27748">
        <ele>316</ele>
      </trkpt>
      <trkpt lat="44.5238" lon="4.27594">
        <ele>306</ele>
      </trkpt>
      <trkpt lat="44.524" lon="4.27577">
        <ele>305</ele>
      </trkpt>
      <trkpt lat="44.52402" lon="4.27557">
        <ele>304</ele>
      </trkpt>
      <trkpt lat="44.52392" lon="4.27549">
        <ele>304</ele>
      </trkpt>
      <trkpt lat="44.52385" lon="4.27505">
        <ele>303</ele>
      </trkpt>
      <trkpt lat="44.52398" lon="4.27474">
        <ele>303</ele>
      </trkpt>
      <trkpt lat="44.52408" lon="4.27469">
        <ele>303</ele>
      </trkpt>
      <trkpt lat="44.52405" lon="4.27433">
        <ele>304</ele>
      </trkpt>
      <trkpt lat="44.52394" lon="4.27444">
        <ele>303</ele>
      </trkpt>
      <trkpt lat="44.52378" lon="4.27446">
        <ele>302</ele>
      </trkpt>
      <trkpt lat="44.52367" lon="4.27455">
        <ele>301</ele>
      </trkpt>
      <trkpt lat="44.52349" lon="4.27455">
        <ele>300</ele>
      </trkpt>
      <trkpt lat="44.5233" lon="4.2746">
        <ele>298</ele>
      </trkpt>
      <trkpt lat="44.52325" lon="4.27463">
        <ele>298</ele>
      </trkpt>
      <trkpt lat="44.52314" lon="4.27452">
        <ele>298</ele>
      </trkpt>
      <trkpt lat="44.52309" lon="4.27445">
        <ele>298</ele>
      </trkpt>
      <trkpt lat="44.52285" lon="4.27463">
        <ele>298</ele>
      </trkpt>
      <trkpt lat="44.52269" lon="4.27468">
        <ele>298</ele>
      </trkpt>
      <trkpt lat="44.52264" lon="4.27452">
        <ele>299</ele>
      </trkpt>
      <trkpt lat="44.52238" lon="4.27418">
        <ele>302</ele>
      </trkpt>
      <trkpt lat="44.52224" lon="4.27412">
        <ele>303</ele>
      </trkpt>
      <trkpt lat="44.52218" lon="4.27413">
        <ele>303</ele>
      </trkpt>
      <trkpt lat="44.52207" lon="4.27401">
        <ele>303</ele>
      </trkpt>
      <trkpt lat="44.52185" lon="4.27378">
        <ele>302</ele>
      </trkpt>
      <trkpt lat="44.52164" lon="4.27361">
        <ele>302</ele>
      </trkpt>
      <trkpt lat="44.5212" lon="4.27324">
        <ele>302</ele>
      </trkpt>
      <trkpt lat="44.52112" lon="4.27316">
        <ele>302</ele>
      </trkpt>
      <trkpt lat="44.5214" lon="4.27266">
        <ele>303</ele>
      </trkpt>
      <trkpt lat="44.52155" lon="4.27254">
        <ele>303</ele>
      </trkpt>
      <trkpt lat="44.52207" lon="4.27229">
        <ele>308</ele>
      </trkpt>
      <trkpt lat="44.52243" lon="4.2717">
        <ele>314</ele>
      </trkpt>
      <trkpt lat="44.5228" lon="4.27128">
        <ele>324</ele>
      </trkpt>
      <trkpt lat="44.52294" lon="4.27061">
        <ele>330</ele>
      </trkpt>
      <trkpt lat="44.52307" lon="4.2703">
        <ele>332</ele>
      </trkpt>
      <trkpt lat="44.52395" lon="4.26983">
        <ele>343</ele>
      </trkpt>
      <trkpt lat="44.52428" lon="4.26953">
        <ele>350</ele>
      </trkpt>
      <trkpt lat="44.52439" lon="4.26936">
        <ele>351</ele>
      </trkpt>
      <trkpt lat="44.52474" lon="4.26928">
        <ele>353</ele>
      </trkpt>
      <trkpt lat="44.52496" lon="4.2693">
        <ele>355</ele>
      </trkpt>
      <trkpt lat="44.52515" lon="4.26919">
        <ele>356</ele>
      </trkpt>
      <trkpt lat="44.52524" lon="4.26895">
        <ele>357</ele>
      </trkpt>
      <trkpt lat="44.52547" lon="4.26874">
        <ele>358</ele>
      </trkpt>
      <trkpt lat="44.52562" lon="4.26858">
        <ele>358</ele>
      </trkpt>
      <trkpt lat="44.52622" lon="4.26838">
        <ele>361</ele>
      </trkpt>
      <trkpt lat="44.52635" lon="4.26838">
        <ele>361</ele>
      </trkpt>
      <trkpt lat="44.52664" lon="4.26816">
        <ele>362</ele>
      </trkpt>
      <trkpt lat="44.52706" lon="4.26809">
        <ele>366</ele>
      </trkpt>
      <trkpt lat="44.52733" lon="4.26795">
        <ele>367</ele>
      </trkpt>
      <trkpt lat="44.52736" lon="4.26786">
        <ele>367</ele>
      </trkpt>
      <trkpt lat="44.52714" lon="4.26759">
        <ele>367</ele>
      </trkpt>
      <trkpt lat="44.52698" lon="4.26747">
        <ele>369</ele>
      </trkpt>
      <trkpt lat="44.52689" lon="4.26712">
        <ele>369</ele>
      </trkpt>
      <trkpt lat="44.52686" lon="4.26681">
        <ele>369</ele>
      </trkpt>
      <trkpt lat="44.52683" lon="4.26653">
        <ele>369</ele>
      </trkpt>
      <trkpt lat="44.52683" lon="4.26627">
        <ele>369</ele>
      </trkpt>
      <trkpt lat="44.52685" lon="4.26607">
        <ele>368</ele>
      </trkpt>
      <trkpt lat="44.52697" lon="4.26588">
        <ele>369</ele>
      </trkpt>
      <trkpt lat="44.52723" lon="4.26559">
        <ele>369</ele>
      </trkpt>
      <trkpt lat="44.52734" lon="4.26547">
        <ele>369</ele>
      </trkpt>
      <trkpt lat="44.52752" lon="4.26522">
        <ele>374</ele>
      </trkpt>
      <trkpt lat="44.52785" lon="4.26475">
        <ele>374</ele>
      </trkpt>
      <trkpt lat="44.52819" lon="4.26421">
        <ele>376</ele>
      </trkpt>
      <trkpt lat="44.52855" lon="4.26419">
        <ele>377</ele>
      </trkpt>
      <trkpt lat="44.5285" lon="4.26352">
        <ele>375</ele>
      </trkpt>
      <trkpt lat="44.52812" lon="4.26327">
        <ele>371</ele>
      </trkpt>
      <trkpt lat="44.52847" lon="4.26271">
        <ele>376</ele>
      </trkpt>
      <trkpt lat="44.52842" lon="4.26245">
        <ele>379</ele>
      </trkpt>
      <trkpt lat="44.52851" lon="4.262">
        <ele>384</ele>
      </trkpt>
      <trkpt lat="44.52871" lon="4.2617">
        <ele>386</ele>
      </trkpt>
      <trkpt lat="44.52871" lon="4.26116">
        <ele>396</ele>
      </trkpt>
      <trkpt lat="44.52811" lon="4.26093">
        <ele>398</ele>
      </trkpt>
      <trkpt lat="44.52803" lon="4.26061">
        <ele>403</ele>
      </trkpt>
      <trkpt lat="44.52804" lon="4.26025">
        <ele>404</ele>
      </trkpt>
      <trkpt lat="44.52832" lon="4.26008">
        <ele>407</ele>
      </trkpt>
      <trkpt lat="44.52856" lon="4.26012">
        <ele>406</ele>
      </trkpt>
      <trkpt lat="44.52868" lon="4.25984">
        <ele>405</ele>
      </trkpt>
      <trkpt lat="44.52877" lon="4.2593">
        <ele>404</ele>
      </trkpt>
      <trkpt lat="44.52898" lon="4.25919">
        <ele>405</ele>
      </trkpt>
      <trkpt lat="44.529" lon="4.25848">
        <ele>404</ele>
      </trkpt>
      <trkpt lat="44.52891" lon="4.25817">
        <ele>405</ele>
      </trkpt>
      <trkpt lat="44.52919" lon="4.25807">
        <ele>406</ele>
      </trkpt>
      <trkpt lat="44.52944" lon="4.25751">
        <ele>408</ele>
      </trkpt>
      <trkpt lat="44.52953" lon="4.25699">
        <ele>413</ele>
      </trkpt>
      <trkpt lat="44.52949" lon="4.25644">
        <ele>416</ele>
      </trkpt>
      <trkpt lat="44.52952" lon="4.25542">
        <ele>419</ele>
      </trkpt>
      <trkpt lat="44.52951" lon="4.25492">
        <ele>422</ele>
      </trkpt>
      <trkpt lat="44.52966" lon="4.25417">
        <ele>422</ele>
      </trkpt>
      <trkpt lat="44.52997" lon="4.25347">
        <ele>433</ele>
      </trkpt>
      <trkpt lat="44.53054" lon="4.25269">
        <ele>434</ele>
      </trkpt>
      <trkpt lat="44.53088" lon="4.25161">
        <ele>440</ele>
      </trkpt>
      <trkpt lat="44.53119" lon="4.25027">
        <ele>445</ele>
      </trkpt>
      <trkpt lat="44.5311" lon="4.24996">
        <ele>445</ele>
      </trkpt>
      <trkpt lat="44.53024" lon="4.25129">
        <ele>444</ele>
      </trkpt>
      <trkpt lat="44.52959" lon="4.25219">
        <ele>442</ele>
      </trkpt>
      <trkpt lat="44.5292" lon="4.25238">
        <ele>439</ele>
      </trkpt>
      <trkpt lat="44.52892" lon="4.25226">
        <ele>433</ele>
      </trkpt>
      <trkpt lat="44.52827" lon="4.25208">
        <ele>422</ele>
      </trkpt>
      <trkpt lat="44.52791" lon="4.25215">
        <ele>421</ele>
      </trkpt>
      <trkpt lat="44.52787" lon="4.25244">
        <ele>420</ele>
      </trkpt>
      <trkpt lat="44.52751" lon="4.25261">
        <ele>415</ele>
      </trkpt>
      <trkpt lat="44.52731" lon="4.25243">
        <ele>412</ele>
      </trkpt>
      <trkpt lat="44.52689" lon="4.25187">
        <ele>409</ele>
      </trkpt>
      <trkpt lat="44.52663" lon="4.25186">
        <ele>398</ele>
      </trkpt>
      <trkpt lat="44.52658" lon="4.25206">
        <ele>396</ele>
      </trkpt>
      <trkpt lat="44.52633" lon="4.25199">
        <ele>393</ele>
      </trkpt>
      <trkpt lat="44.52609" lon="4.25134">
        <ele>384</ele>
      </trkpt>
      <trkpt lat="44.52633" lon="4.25068">
        <ele>377</ele>
      </trkpt>
      <trkpt lat="44.52659" lon="4.25039">
        <ele>377</ele>
      </trkpt>
      <trkpt lat="44.52776" lon="4.25035">
        <ele>396</ele>
      </trkpt>
      <trkpt lat="44.52878" lon="4.25035">
        <ele>405</ele>
      </trkpt>
      <trkpt lat="44.52954" lon="4.24993">
        <ele>407</ele>
      </trkpt>
      <trkpt lat="44.52966" lon="4.24924">
        <ele>407</ele>
      </trkpt>
      <trkpt lat="44.52884" lon="4.24813">
        <ele>402</ele>
      </trkpt>
      <trkpt lat="44.52842" lon="4.24744">
        <ele>398</ele>
      </trkpt>
      <trkpt lat="44.52859" lon="4.2469">
        <ele>404</ele>
      </trkpt>
      <trkpt lat="44.52872" lon="4.24641">
        <ele>404</ele>
      </trkpt>
      <trkpt lat="44.52877" lon="4.24583">
        <ele>396</ele>
      </trkpt>
      <trkpt lat="44.53012" lon="4.24536">
        <ele>419</ele>
      </trkpt>
      <trkpt lat="44.53145" lon="4.24431">
        <ele>416</ele>
      </trkpt>
      <trkpt lat="44.53206" lon="4.24349">
        <ele>422</ele>
      </trkpt>
      <trkpt lat="44.5311" lon="4.24221">
        <ele>421</ele>
      </trkpt>
      <trkpt lat="44.5316" lon="4.24236">
        <ele>424</ele>
      </trkpt>
      <trkpt lat="44.53209" lon="4.24259">
        <ele>427</ele>
      </trkpt>
      <trkpt lat="44.53237" lon="4.2418">
        <ele>436</ele>
      </trkpt>
      <trkpt lat="44.53166" lon="4.24135">
        <ele>429</ele>
      </trkpt>
      <trkpt lat="44.53143" lon="4.24036">
        <ele>433</ele>
      </trkpt>
      <trkpt lat="44.5312" lon="4.23924">
        <ele>436</ele>
      </trkpt>
      <trkpt lat="44.53067" lon="4.23809">
        <ele>434</ele>
      </trkpt>
      <trkpt lat="44.53027" lon="4.23697">
        <ele>435</ele>
      </trkpt>
      <trkpt lat="44.53019" lon="4.23663">
        <ele>438</ele>
      </trkpt>
      <trkpt lat="44.53214" lon="4.23847">
        <ele>451</ele>
      </trkpt>
      <trkpt lat="44.53287" lon="4.23796">
        <ele>468</ele>
      </trkpt>
      <trkpt lat="44.53272" lon="4.2371">
        <ele>476</ele>
      </trkpt>
      <trkpt lat="44.53273" lon="4.23637">
        <ele>482</ele>
      </trkpt>
      <trkpt lat="44.53279" lon="4.23504">
        <ele>482</ele>
      </trkpt>
      <trkpt lat="44.53322" lon="4.23431">
        <ele>485</ele>
      </trkpt>
      <trkpt lat="44.53304" lon="4.23341">
        <ele>480</ele>
      </trkpt>
      <trkpt lat="44.534" lon="4.23271">
        <ele>479</ele>
      </trkpt>
      <trkpt lat="44.53484" lon="4.2325">
        <ele>479</ele>
      </trkpt>
      <trkpt lat="44.53587" lon="4.23183">
        <ele>492</ele>
      </trkpt>
      <trkpt lat="44.53683" lon="4.23061">
        <ele>496</ele>
      </trkpt>
      <trkpt lat="44.53721" lon="4.22986">
        <ele>502</ele>
      </trkpt>
      <trkpt lat="44.53705" lon="4.22924">
        <ele>501</ele>
      </trkpt>
      <trkpt lat="44.53772" lon="4.22797">
        <ele>524</ele>
      </trkpt>
      <trkpt lat="44.53838" lon="4.22776">
        <ele>535</ele>
      </trkpt>
      <trkpt lat="44.53822" lon="4.22722">
        <ele>531</ele>
      </trkpt>
      <trkpt lat="44.53874" lon="4.22724">
        <ele>543</ele>
      </trkpt>
      <trkpt lat="44.5387" lon="4.22647">
        <ele>550</ele>
      </trkpt>
      <trkpt lat="44.54043" lon="4.22874">
        <ele>556</ele>
      </trkpt>
      <trkpt lat="44.54112" lon="4.22801">
        <ele>567</ele>
      </trkpt>
      <trkpt lat="44.54185" lon="4.22598">
        <ele>591</ele>
      </trkpt>
      <trkpt lat="44.54313" lon="4.2258">
        <ele>602</ele>
      </trkpt>
      <trkpt lat="44.54341" lon="4.22602">
        <ele>598</ele>
      </trkpt>
      <trkpt lat="44.54379" lon="4.22561">
        <ele>608</ele>
      </trkpt>
      <trkpt lat="44.54391" lon="4.22598">
        <ele>601</ele>
      </trkpt>
      <trkpt lat="44.54439" lon="4.22673">
        <ele>599</ele>
      </trkpt>
      <trkpt lat="44.54484" lon="4.22733">
        <ele>605</ele>
      </trkpt>
      <trkpt lat="44.54501" lon="4.2284">
        <ele>614</ele>
      </trkpt>
      <trkpt lat="44.54523" lon="4.22879">
        <ele>621</ele>
      </trkpt>
      <trkpt lat="44.54493" lon="4.22971">
        <ele>601</ele>
      </trkpt>
      <trkpt lat="44.5453" lon="4.23007">
        <ele>604</ele>
      </trkpt>
      <trkpt lat="44.54577" lon="4.23003">
        <ele>610</ele>
      </trkpt>
      <trkpt lat="44.54707" lon="4.2301">
        <ele>604</ele>
      </trkpt>
      <trkpt lat="44.5471" lon="4.2304">
        <ele>602</ele>
      </trkpt>
      <trkpt lat="44.54744" lon="4.23028">
        <ele>603</ele>
      </trkpt>
      <trkpt lat="44.54831" lon="4.23011">
        <ele>595</ele>
      </trkpt>
      <trkpt lat="44.54833" lon="4.2309">
        <ele>583</ele>
      </trkpt>
      <trkpt lat="44.54816" lon="4.23139">
        <ele>578</ele>
      </trkpt>
      <trkpt lat="44.54813" lon="4.23163">
        <ele>576</ele>
      </trkpt>
      <trkpt lat="44.54886" lon="4.23137">
        <ele>560</ele>
      </trkpt>
      <trkpt lat="44.54969" lon="4.23084">
        <ele>534</ele>
      </trkpt>
      <trkpt lat="44.54984" lon="4.23004">
        <ele>536</ele>
      </trkpt>
      <trkpt lat="44.55013" lon="4.22931">
        <ele>524</ele>
      </trkpt>
      <trkpt lat="44.55053" lon="4.22901">
        <ele>516</ele>
      </trkpt>
      <trkpt lat="44.55058" lon="4.22937">
        <ele>509</ele>
      </trkpt>
      <trkpt lat="44.55076" lon="4.2288">
        <ele>513</ele>
      </trkpt>
      <trkpt lat="44.55092" lon="4.22905">
        <ele>491</ele>
      </trkpt>
      <trkpt lat="44.55096" lon="4.22888">
        <ele>487</ele>
      </trkpt>
      <trkpt lat="44.55111" lon="4.22917">
        <ele>482</ele>
      </trkpt>
      <trkpt lat="44.55118" lon="4.22831">
        <ele>488</ele>
      </trkpt>
      <trkpt lat="44.5512" lon="4.22813">
        <ele>487</ele>
      </trkpt>
      <trkpt lat="44.55159" lon="4.22808">
        <ele>479</ele>
      </trkpt>
      <trkpt lat="44.55186" lon="4.22777">
        <ele>462</ele>
      </trkpt>
      <trkpt lat="44.55191" lon="4.22812">
        <ele>460</ele>
      </trkpt>
      <trkpt lat="44.55226" lon="4.22795">
        <ele>455</ele>
      </trkpt>
      <trkpt lat="44.55221" lon="4.22837">
        <ele>451</ele>
      </trkpt>
      <trkpt lat="44.55258" lon="4.22804">
        <ele>440</ele>
      </trkpt>
      <trkpt lat="44.55267" lon="4.22831">
        <ele>441</ele>
      </trkpt>
      <trkpt lat="44.55294" lon="4.22788">
        <ele>435</ele>
      </trkpt>
      <trkpt lat="44.55289" lon="4.22715">
        <ele>436</ele>
      </trkpt>
      <trkpt lat="44.55289" lon="4.22671">
        <ele>437</ele>
      </trkpt>
      <trkpt lat="44.55297" lon="4.22623">
        <ele>444</ele>
      </trkpt>
      <trkpt lat="44.55319" lon="4.22612">
        <ele>445</ele>
      </trkpt>
      <trkpt lat="44.55376" lon="4.22689">
        <ele>440</ele>
      </trkpt>
      <trkpt lat="44.55403" lon="4.22715">
        <ele>441</ele>
      </trkpt>
      <trkpt lat="44.55421" lon="4.22723">
        <ele>456</ele>
      </trkpt>
    </trkseg>
  </trk>
</gpx>